<?xml version='1.0' encoding='UTF-8'?><gpx version="1.1" creator="JPX - https://github.com/jenetics/jpx" xmlns="http://www.topografix.com/GPX/1/1"><trk><trkseg><trkpt lat="40.3656641" lon="18.2175201"><ele>33.0</ele><time>2026-04-04T14:01:39.187Z</time></trkpt><trkpt lat="40.3657564" lon="18.217624"><ele>33.0</ele><time>2026-04-04T14:01:41.187Z</time></trkpt><trkpt lat="40.3657928" lon="18.2177008"><ele>33.0</ele><time>2026-04-04T14:01:42.187Z</time></trkpt><trkpt lat="40.3658203" lon="18.2177951"><ele>33.0</ele><time>2026-04-04T14:01:43.188Z</time></trkpt><trkpt lat="40.3658231" lon="18.2179"><ele>33.0</ele><time>2026-04-04T14:01:44.188Z</time></trkpt><trkpt lat="40.3658023" lon="18.2180089"><ele>33.0</ele><time>2026-04-04T14:01:45.188Z</time></trkpt><trkpt lat="40.3657633" lon="18.2181206"><ele>33.0</ele><time>2026-04-04T14:01:46.188Z</time></trkpt><trkpt lat="40.3657119" lon="18.2182345"><ele>33.0</ele><time>2026-04-04T14:01:47.187Z</time></trkpt><trkpt lat="40.3656585" lon="18.2183419"><ele>33.0</ele><time>2026-04-04T14:01:48.187Z</time></trkpt><trkpt lat="40.3656034" lon="18.2184544"><ele>33.0</ele><time>2026-04-04T14:01:49.188Z</time></trkpt><trkpt lat="40.3655507" lon="18.2185678"><ele>33.0</ele><time>2026-04-04T14:01:50.189Z</time></trkpt><trkpt lat="40.3654952" lon="18.2186868"><ele>33.0</ele><time>2026-04-04T14:01:51.189Z</time></trkpt><trkpt lat="40.3654384" lon="18.2188113"><ele>33.0</ele><time>2026-04-04T14:01:52.188Z</time></trkpt><trkpt lat="40.3653788" lon="18.2189407"><ele>33.0</ele><time>2026-04-04T14:01:53.188Z</time></trkpt><trkpt lat="40.3653181" lon="18.2190755"><ele>33.0</ele><time>2026-04-04T14:01:54.187Z</time></trkpt><trkpt lat="40.3652565" lon="18.219215"><ele>33.75</ele><time>2026-04-04T14:01:55.188Z</time></trkpt><trkpt lat="40.3651964" lon="18.219355"><ele>34.5</ele><time>2026-04-04T14:01:56.188Z</time></trkpt><trkpt lat="40.365138" lon="18.2194942"><ele>35.25</ele><time>2026-04-04T14:01:57.188Z</time></trkpt><trkpt lat="40.3650797" lon="18.2196361"><ele>36.0</ele><time>2026-04-04T14:01:58.188Z</time></trkpt><trkpt lat="40.365021" lon="18.2197804"><ele>36.5</ele><time>2026-04-04T14:01:59.188Z</time></trkpt><trkpt lat="40.3649587" lon="18.2199243"><ele>37.0</ele><time>2026-04-04T14:02:00.188Z</time></trkpt><trkpt lat="40.3648915" lon="18.2200682"><ele>37.5</ele><time>2026-04-04T14:02:01.187Z</time></trkpt><trkpt lat="40.3648155" lon="18.2202118"><ele>38.0</ele><time>2026-04-04T14:02:02.188Z</time></trkpt><trkpt lat="40.3647232" lon="18.2203298"><ele>37.25</ele><time>2026-04-04T14:02:03.188Z</time></trkpt><trkpt lat="40.3646149" lon="18.2204104"><ele>36.5</ele><time>2026-04-04T14:02:04.188Z</time></trkpt><trkpt lat="40.3644927" lon="18.220471"><ele>35.75</ele><time>2026-04-04T14:02:05.188Z</time></trkpt><trkpt lat="40.3643599" lon="18.2205225"><ele>35.0</ele><time>2026-04-04T14:02:06.187Z</time></trkpt><trkpt lat="40.3642189" lon="18.2205762"><ele>35.0</ele><time>2026-04-04T14:02:07.187Z</time></trkpt><trkpt lat="40.3640728" lon="18.220627"><ele>35.0</ele><time>2026-04-04T14:02:08.187Z</time></trkpt><trkpt lat="40.3639263" lon="18.2206731"><ele>35.0</ele><time>2026-04-04T14:02:09.188Z</time></trkpt><trkpt lat="40.3637714" lon="18.2207087"><ele>34.0</ele><time>2026-04-04T14:02:10.188Z</time></trkpt><trkpt lat="40.3636091" lon="18.22074"><ele>33.0</ele><time>2026-04-04T14:02:11.188Z</time></trkpt><trkpt lat="40.3634428" lon="18.220765"><ele>32.0</ele><time>2026-04-04T14:02:12.187Z</time></trkpt><trkpt lat="40.3632686" lon="18.2207831"><ele>32.0</ele><time>2026-04-04T14:02:13.189Z</time></trkpt><trkpt lat="40.3630919" lon="18.2207949"><ele>32.0</ele><time>2026-04-04T14:02:14.188Z</time></trkpt><trkpt lat="40.3629149" lon="18.2208018"><ele>32.0</ele><time>2026-04-04T14:02:15.189Z</time></trkpt><trkpt lat="40.3627342" lon="18.2208036"><ele>33.0</ele><time>2026-04-04T14:02:16.188Z</time></trkpt><trkpt lat="40.3625484" lon="18.2207965"><ele>34.0</ele><time>2026-04-04T14:02:17.188Z</time></trkpt><trkpt lat="40.3623593" lon="18.2207831"><ele>35.0</ele><time>2026-04-04T14:02:18.189Z</time></trkpt><trkpt lat="40.3621669" lon="18.2207615"><ele>35.0</ele><time>2026-04-04T14:02:19.189Z</time></trkpt><trkpt lat="40.3619716" lon="18.220731"><ele>35.0</ele><time>2026-04-04T14:02:20.189Z</time></trkpt><trkpt lat="40.3617744" lon="18.220689"><ele>35.0</ele><time>2026-04-04T14:02:21.189Z</time></trkpt><trkpt lat="40.3615758" lon="18.2206395"><ele>34.666666666666664</ele><time>2026-04-04T14:02:22.189Z</time></trkpt><trkpt lat="40.3613751" lon="18.2205806"><ele>34.333333333333336</ele><time>2026-04-04T14:02:23.188Z</time></trkpt><trkpt lat="40.3611801" lon="18.2205203"><ele>34.0</ele><time>2026-04-04T14:02:24.188Z</time></trkpt><trkpt lat="40.3609858" lon="18.2204493"><ele>34.0</ele><time>2026-04-04T14:02:25.187Z</time></trkpt><trkpt lat="40.3607942" lon="18.2203666"><ele>34.0</ele><time>2026-04-04T14:02:26.188Z</time></trkpt><trkpt lat="40.3606074" lon="18.2202767"><ele>34.0</ele><time>2026-04-04T14:02:27.186Z</time></trkpt><trkpt lat="40.3604216" lon="18.2201778"><ele>33.66666666666667</ele><time>2026-04-04T14:02:28.188Z</time></trkpt><trkpt lat="40.3602389" lon="18.2200678"><ele>33.333333333333336</ele><time>2026-04-04T14:02:29.188Z</time></trkpt><trkpt lat="40.3600556" lon="18.2199525"><ele>33.0</ele><time>2026-04-04T14:02:30.187Z</time></trkpt><trkpt lat="40.3598774" lon="18.2198252"><ele>34.0</ele><time>2026-04-04T14:02:31.188Z</time></trkpt><trkpt lat="40.3596983" lon="18.2196891"><ele>35.0</ele><time>2026-04-04T14:02:32.189Z</time></trkpt><trkpt lat="40.3595201" lon="18.2195493"><ele>36.0</ele><time>2026-04-04T14:02:33.187Z</time></trkpt><trkpt lat="40.3593445" lon="18.2194009"><ele>36.0</ele><time>2026-04-04T14:02:34.188Z</time></trkpt><trkpt lat="40.3591764" lon="18.219244"><ele>36.0</ele><time>2026-04-04T14:02:35.186Z</time></trkpt><trkpt lat="40.3590075" lon="18.2190856"><ele>36.0</ele><time>2026-04-04T14:02:36.186Z</time></trkpt><trkpt lat="40.3588486" lon="18.2189112"><ele>35.666666666666664</ele><time>2026-04-04T14:02:37.188Z</time></trkpt><trkpt lat="40.3586915" lon="18.218727"><ele>35.33333333333333</ele><time>2026-04-04T14:02:38.188Z</time></trkpt><trkpt lat="40.358534" lon="18.218537"><ele>35.0</ele><time>2026-04-04T14:02:39.188Z</time></trkpt><trkpt lat="40.3583852" lon="18.2183403"><ele>34.666666666666664</ele><time>2026-04-04T14:02:40.188Z</time></trkpt><trkpt lat="40.3582396" lon="18.2181349"><ele>34.333333333333336</ele><time>2026-04-04T14:02:41.188Z</time></trkpt><trkpt lat="40.3580929" lon="18.2179296"><ele>34.0</ele><time>2026-04-04T14:02:42.188Z</time></trkpt><trkpt lat="40.3579494" lon="18.2177279"><ele>33.66666666666667</ele><time>2026-04-04T14:02:43.188Z</time></trkpt><trkpt lat="40.3578042" lon="18.2175239"><ele>33.333333333333336</ele><time>2026-04-04T14:02:44.188Z</time></trkpt><trkpt lat="40.3576607" lon="18.2173212"><ele>33.0</ele><time>2026-04-04T14:02:45.186Z</time></trkpt><trkpt lat="40.3575202" lon="18.217113"><ele>33.0</ele><time>2026-04-04T14:02:46.188Z</time></trkpt><trkpt lat="40.3573767" lon="18.2169036"><ele>33.0</ele><time>2026-04-04T14:02:47.186Z</time></trkpt><trkpt lat="40.3572378" lon="18.216695"><ele>33.0</ele><time>2026-04-04T14:02:48.188Z</time></trkpt><trkpt lat="40.3570937" lon="18.2164867"><ele>33.0</ele><time>2026-04-04T14:02:49.187Z</time></trkpt><trkpt lat="40.3569535" lon="18.2162803"><ele>33.0</ele><time>2026-04-04T14:02:50.187Z</time></trkpt><trkpt lat="40.3568112" lon="18.2160748"><ele>33.0</ele><time>2026-04-04T14:02:51.186Z</time></trkpt><trkpt lat="40.3566689" lon="18.2158722"><ele>33.0</ele><time>2026-04-04T14:02:52.187Z</time></trkpt><trkpt lat="40.3565284" lon="18.215667"><ele>33.0</ele><time>2026-04-04T14:02:53.188Z</time></trkpt><trkpt lat="40.3563891" lon="18.2154622"><ele>33.0</ele><time>2026-04-04T14:02:54.187Z</time></trkpt><trkpt lat="40.3562469" lon="18.2152549"><ele>32.333333333333336</ele><time>2026-04-04T14:02:55.189Z</time></trkpt><trkpt lat="40.356108" lon="18.2150495"><ele>31.666666666666668</ele><time>2026-04-04T14:02:56.187Z</time></trkpt><trkpt lat="40.3559676" lon="18.214842"><ele>31.0</ele><time>2026-04-04T14:02:57.187Z</time></trkpt><trkpt lat="40.3558289" lon="18.2146404"><ele>31.0</ele><time>2026-04-04T14:02:58.188Z</time></trkpt><trkpt lat="40.3556899" lon="18.2144402"><ele>31.0</ele><time>2026-04-04T14:02:59.186Z</time></trkpt><trkpt lat="40.3555493" lon="18.214237"><ele>31.0</ele><time>2026-04-04T14:03:00.187Z</time></trkpt><trkpt lat="40.3554054" lon="18.2140335"><ele>30.666666666666668</ele><time>2026-04-04T14:03:01.187Z</time></trkpt><trkpt lat="40.3552598" lon="18.2138331"><ele>30.333333333333336</ele><time>2026-04-04T14:03:02.186Z</time></trkpt><trkpt lat="40.3551172" lon="18.2136342"><ele>30.0</ele><time>2026-04-04T14:03:03.187Z</time></trkpt><trkpt lat="40.3549808" lon="18.2134321"><ele>30.0</ele><time>2026-04-04T14:03:04.186Z</time></trkpt><trkpt lat="40.3548434" lon="18.2132318"><ele>30.0</ele><time>2026-04-04T14:03:05.186Z</time></trkpt><trkpt lat="40.3547094" lon="18.2130362"><ele>30.0</ele><time>2026-04-04T14:03:06.186Z</time></trkpt><trkpt lat="40.3545739" lon="18.212838"><ele>30.333333333333336</ele><time>2026-04-04T14:03:07.188Z</time></trkpt><trkpt lat="40.3544388" lon="18.2126411"><ele>30.666666666666668</ele><time>2026-04-04T14:03:08.188Z</time></trkpt><trkpt lat="40.3543071" lon="18.2124476"><ele>31.0</ele><time>2026-04-04T14:03:09.187Z</time></trkpt><trkpt lat="40.3541744" lon="18.2122504"><ele>32.0</ele><time>2026-04-04T14:03:10.187Z</time></trkpt><trkpt lat="40.3540458" lon="18.2120592"><ele>33.0</ele><time>2026-04-04T14:03:11.187Z</time></trkpt><trkpt lat="40.353913" lon="18.2118645"><ele>34.0</ele><time>2026-04-04T14:03:12.186Z</time></trkpt><trkpt lat="40.353781" lon="18.2116702"><ele>35.0</ele><time>2026-04-04T14:03:13.187Z</time></trkpt><trkpt lat="40.3536528" lon="18.2114756"><ele>36.0</ele><time>2026-04-04T14:03:14.187Z</time></trkpt><trkpt lat="40.3535237" lon="18.2112801"><ele>37.0</ele><time>2026-04-04T14:03:15.186Z</time></trkpt><trkpt lat="40.3533924" lon="18.2110878"><ele>37.0</ele><time>2026-04-04T14:03:16.188Z</time></trkpt><trkpt lat="40.3532605" lon="18.2108965"><ele>37.0</ele><time>2026-04-04T14:03:17.187Z</time></trkpt><trkpt lat="40.3531252" lon="18.210711"><ele>37.0</ele><time>2026-04-04T14:03:18.186Z</time></trkpt><trkpt lat="40.3529869" lon="18.2105262"><ele>37.0</ele><time>2026-04-04T14:03:19.186Z</time></trkpt><trkpt lat="40.3528417" lon="18.2103472"><ele>37.0</ele><time>2026-04-04T14:03:20.187Z</time></trkpt><trkpt lat="40.3526929" lon="18.2101755"><ele>37.0</ele><time>2026-04-04T14:03:21.188Z</time></trkpt><trkpt lat="40.3525434" lon="18.2100083"><ele>37.0</ele><time>2026-04-04T14:03:22.187Z</time></trkpt><trkpt lat="40.3523867" lon="18.2098429"><ele>37.0</ele><time>2026-04-04T14:03:23.186Z</time></trkpt><trkpt lat="40.3522271" lon="18.2096822"><ele>37.0</ele><time>2026-04-04T14:03:24.187Z</time></trkpt><trkpt lat="40.3520678" lon="18.2095285"><ele>37.66666666666667</ele><time>2026-04-04T14:03:25.187Z</time></trkpt><trkpt lat="40.3519063" lon="18.2093779"><ele>38.333333333333336</ele><time>2026-04-04T14:03:26.187Z</time></trkpt><trkpt lat="40.3517522" lon="18.2092306"><ele>39.0</ele><time>2026-04-04T14:03:27.188Z</time></trkpt><trkpt lat="40.351603" lon="18.2090891"><ele>38.666666666666664</ele><time>2026-04-04T14:03:28.187Z</time></trkpt><trkpt lat="40.3514617" lon="18.2089672"><ele>38.33333333333333</ele><time>2026-04-04T14:03:29.186Z</time></trkpt><trkpt lat="40.3513327" lon="18.2088621"><ele>38.0</ele><time>2026-04-04T14:03:30.186Z</time></trkpt><trkpt lat="40.3512171" lon="18.2087723"><ele>38.0</ele><time>2026-04-04T14:03:31.187Z</time></trkpt><trkpt lat="40.3511166" lon="18.2086743"><ele>38.0</ele><time>2026-04-04T14:03:32.188Z</time></trkpt><trkpt lat="40.351039" lon="18.2085623"><ele>38.0</ele><time>2026-04-04T14:03:33.189Z</time></trkpt><trkpt lat="40.3509907" lon="18.2084223"><ele>38.0</ele><time>2026-04-04T14:03:34.187Z</time></trkpt><trkpt lat="40.3509708" lon="18.2082672"><ele>37.75</ele><time>2026-04-04T14:03:35.186Z</time></trkpt><trkpt lat="40.3509824" lon="18.2081152"><ele>37.5</ele><time>2026-04-04T14:03:36.186Z</time></trkpt><trkpt lat="40.3510138" lon="18.2079705"><ele>37.25</ele><time>2026-04-04T14:03:37.188Z</time></trkpt><trkpt lat="40.3510966" lon="18.2078563"><ele>37.0</ele><time>2026-04-04T14:03:38.186Z</time></trkpt><trkpt lat="40.3511871" lon="18.2077648"><ele>37.0</ele><time>2026-04-04T14:03:39.186Z</time></trkpt><trkpt lat="40.3512908" lon="18.2077017"><ele>37.0</ele><time>2026-04-04T14:03:40.186Z</time></trkpt><trkpt lat="40.3513942" lon="18.2076805"><ele>37.0</ele><time>2026-04-04T14:03:41.187Z</time></trkpt><trkpt lat="40.3514948" lon="18.2076952"><ele>37.0</ele><time>2026-04-04T14:03:42.187Z</time></trkpt><trkpt lat="40.3515778" lon="18.2077369"><ele>37.0</ele><time>2026-04-04T14:03:43.186Z</time></trkpt><trkpt lat="40.3516507" lon="18.2077998"><ele>37.0</ele><time>2026-04-04T14:03:44.188Z</time></trkpt><trkpt lat="40.3517152" lon="18.2078699"><ele>37.0</ele><time>2026-04-04T14:03:45.187Z</time></trkpt><trkpt lat="40.3517753" lon="18.207955"><ele>37.0</ele><time>2026-04-04T14:03:46.186Z</time></trkpt><trkpt lat="40.3518256" lon="18.2080621"><ele>37.0</ele><time>2026-04-04T14:03:47.188Z</time></trkpt><trkpt lat="40.3518613" lon="18.2081878"><ele>37.0</ele><time>2026-04-04T14:03:48.186Z</time></trkpt><trkpt lat="40.3518525" lon="18.2083405"><ele>37.0</ele><time>2026-04-04T14:03:49.188Z</time></trkpt><trkpt lat="40.3518449" lon="18.2085019"><ele>37.0</ele><time>2026-04-04T14:03:50.188Z</time></trkpt><trkpt lat="40.3518331" lon="18.2086682"><ele>37.0</ele><time>2026-04-04T14:03:51.189Z</time></trkpt><trkpt lat="40.3518241" lon="18.2088457"><ele>37.0</ele><time>2026-04-04T14:03:52.186Z</time></trkpt><trkpt lat="40.3518155" lon="18.2090233"><ele>37.5</ele><time>2026-04-04T14:03:53.189Z</time></trkpt><trkpt lat="40.351804" lon="18.2092103"><ele>38.0</ele><time>2026-04-04T14:03:54.188Z</time></trkpt><trkpt lat="40.3517905" lon="18.2094061"><ele>38.5</ele><time>2026-04-04T14:03:55.187Z</time></trkpt><trkpt lat="40.3517847" lon="18.2096003"><ele>39.0</ele><time>2026-04-04T14:03:56.186Z</time></trkpt><trkpt lat="40.3517686" lon="18.2097959"><ele>39.333333333333336</ele><time>2026-04-04T14:03:57.186Z</time></trkpt><trkpt lat="40.3517677" lon="18.2099909"><ele>39.66666666666667</ele><time>2026-04-04T14:03:58.187Z</time></trkpt><trkpt lat="40.3517737" lon="18.2101856"><ele>40.0</ele><time>2026-04-04T14:03:59.187Z</time></trkpt><trkpt lat="40.3517924" lon="18.2103862"><ele>40.0</ele><time>2026-04-04T14:04:00.188Z</time></trkpt><trkpt lat="40.3518252" lon="18.2105827"><ele>40.0</ele><time>2026-04-04T14:04:01.187Z</time></trkpt><trkpt lat="40.3518624" lon="18.2107725"><ele>40.0</ele><time>2026-04-04T14:04:02.188Z</time></trkpt><trkpt lat="40.3519071" lon="18.2109461"><ele>40.0</ele><time>2026-04-04T14:04:03.187Z</time></trkpt><trkpt lat="40.3519546" lon="18.2111106"><ele>40.2</ele><time>2026-04-04T14:04:04.188Z</time></trkpt><trkpt lat="40.3519976" lon="18.211254"><ele>40.4</ele><time>2026-04-04T14:04:05.186Z</time></trkpt><trkpt lat="40.3520259" lon="18.2113787"><ele>40.599999999999994</ele><time>2026-04-04T14:04:06.188Z</time></trkpt><trkpt lat="40.3520414" lon="18.2114884"><ele>40.8</ele><time>2026-04-04T14:04:07.187Z</time></trkpt><trkpt lat="40.3520447" lon="18.211597"><ele>41.0</ele><time>2026-04-04T14:04:08.186Z</time></trkpt><trkpt lat="40.3520367" lon="18.2116958"><ele>40.666666666666664</ele><time>2026-04-04T14:04:09.187Z</time></trkpt><trkpt lat="40.3520018" lon="18.2117928"><ele>40.33333333333333</ele><time>2026-04-04T14:04:10.187Z</time></trkpt><trkpt lat="40.3519694" lon="18.2118973"><ele>40.0</ele><time>2026-04-04T14:04:11.187Z</time></trkpt><trkpt lat="40.3519427" lon="18.2120017"><ele>39.666666666666664</ele><time>2026-04-04T14:04:12.186Z</time></trkpt><trkpt lat="40.3519326" lon="18.2121046"><ele>39.333333333333336</ele><time>2026-04-04T14:04:13.187Z</time></trkpt><trkpt lat="40.3519559" lon="18.2122041"><ele>39.0</ele><time>2026-04-04T14:04:14.186Z</time></trkpt><trkpt lat="40.3519926" lon="18.2123024"><ele>38.833333333333336</ele><time>2026-04-04T14:04:15.187Z</time></trkpt><trkpt lat="40.3520497" lon="18.2123857"><ele>38.666666666666664</ele><time>2026-04-04T14:04:16.188Z</time></trkpt><trkpt lat="40.352114" lon="18.2124544"><ele>38.5</ele><time>2026-04-04T14:04:17.188Z</time></trkpt><trkpt lat="40.3522072" lon="18.2124835"><ele>38.33333333333333</ele><time>2026-04-04T14:04:18.187Z</time></trkpt><trkpt lat="40.352296" lon="18.2124856"><ele>38.166666666666664</ele><time>2026-04-04T14:04:19.188Z</time></trkpt><trkpt lat="40.3523822" lon="18.2124768"><ele>38.0</ele><time>2026-04-04T14:04:20.187Z</time></trkpt><trkpt lat="40.3524673" lon="18.2124674"><ele>38.0</ele><time>2026-04-04T14:04:21.186Z</time></trkpt><trkpt lat="40.3525592" lon="18.2124719"><ele>38.0</ele><time>2026-04-04T14:04:22.187Z</time></trkpt><trkpt lat="40.3526567" lon="18.2124944"><ele>38.0</ele><time>2026-04-04T14:04:23.187Z</time></trkpt><trkpt lat="40.3527586" lon="18.2125405"><ele>38.0</ele><time>2026-04-04T14:04:24.187Z</time></trkpt><trkpt lat="40.3528607" lon="18.2126229"><ele>38.0</ele><time>2026-04-04T14:04:25.188Z</time></trkpt><trkpt lat="40.3529657" lon="18.2127471"><ele>37.0</ele><time>2026-04-04T14:04:26.186Z</time></trkpt><trkpt lat="40.3530628" lon="18.2129076"><ele>36.0</ele><time>2026-04-04T14:04:27.186Z</time></trkpt><trkpt lat="40.3531435" lon="18.2131033"><ele>35.0</ele><time>2026-04-04T14:04:28.186Z</time></trkpt><trkpt lat="40.353209" lon="18.2133218"><ele>34.33333333333333</ele><time>2026-04-04T14:04:29.187Z</time></trkpt><trkpt lat="40.3532713" lon="18.2135553"><ele>33.666666666666664</ele><time>2026-04-04T14:04:30.187Z</time></trkpt><trkpt lat="40.3533363" lon="18.2137979"><ele>33.0</ele><time>2026-04-04T14:04:31.188Z</time></trkpt><trkpt lat="40.3534004" lon="18.2140564"><ele>32.666666666666664</ele><time>2026-04-04T14:04:32.187Z</time></trkpt><trkpt lat="40.3534677" lon="18.2143089"><ele>32.33333333333333</ele><time>2026-04-04T14:04:33.186Z</time></trkpt><trkpt lat="40.3535349" lon="18.214561"><ele>32.0</ele><time>2026-04-04T14:04:34.189Z</time></trkpt><trkpt lat="40.3536034" lon="18.2148223"><ele>32.0</ele><time>2026-04-04T14:04:35.188Z</time></trkpt><trkpt lat="40.3536748" lon="18.2150858"><ele>32.0</ele><time>2026-04-04T14:04:36.186Z</time></trkpt><trkpt lat="40.3537441" lon="18.2153537"><ele>32.0</ele><time>2026-04-04T14:04:37.187Z</time></trkpt><trkpt lat="40.3538122" lon="18.2156235"><ele>31.333333333333332</ele><time>2026-04-04T14:04:38.188Z</time></trkpt><trkpt lat="40.3538852" lon="18.2158911"><ele>30.666666666666664</ele><time>2026-04-04T14:04:39.188Z</time></trkpt><trkpt lat="40.3539565" lon="18.2161646"><ele>30.0</ele><time>2026-04-04T14:04:40.187Z</time></trkpt><trkpt lat="40.3540308" lon="18.2164355"><ele>30.0</ele><time>2026-04-04T14:04:41.186Z</time></trkpt><trkpt lat="40.3541039" lon="18.216707"><ele>30.0</ele><time>2026-04-04T14:04:42.188Z</time></trkpt><trkpt lat="40.3541803" lon="18.2169808"><ele>30.0</ele><time>2026-04-04T14:04:43.187Z</time></trkpt><trkpt lat="40.3542508" lon="18.217257"><ele>30.333333333333336</ele><time>2026-04-04T14:04:44.186Z</time></trkpt><trkpt lat="40.3543253" lon="18.2175345"><ele>30.666666666666668</ele><time>2026-04-04T14:04:45.186Z</time></trkpt><trkpt lat="40.3543993" lon="18.2178105"><ele>31.0</ele><time>2026-04-04T14:04:46.188Z</time></trkpt><trkpt lat="40.3544716" lon="18.218087"><ele>31.0</ele><time>2026-04-04T14:04:47.188Z</time></trkpt><trkpt lat="40.3545433" lon="18.2183623"><ele>31.0</ele><time>2026-04-04T14:04:48.188Z</time></trkpt><trkpt lat="40.3546201" lon="18.2186341"><ele>31.0</ele><time>2026-04-04T14:04:49.188Z</time></trkpt><trkpt lat="40.3546946" lon="18.2189074"><ele>31.666666666666668</ele><time>2026-04-04T14:04:50.186Z</time></trkpt><trkpt lat="40.3547612" lon="18.219185"><ele>32.333333333333336</ele><time>2026-04-04T14:04:51.188Z</time></trkpt><trkpt lat="40.3548156" lon="18.2194672"><ele>33.0</ele><time>2026-04-04T14:04:52.187Z</time></trkpt><trkpt lat="40.3548474" lon="18.2197529"><ele>32.0</ele><time>2026-04-04T14:04:53.186Z</time></trkpt><trkpt lat="40.3548576" lon="18.2200394"><ele>31.0</ele><time>2026-04-04T14:04:54.188Z</time></trkpt><trkpt lat="40.3548482" lon="18.2203291"><ele>30.0</ele><time>2026-04-04T14:04:55.187Z</time></trkpt><trkpt lat="40.3548291" lon="18.2206204"><ele>31.0</ele><time>2026-04-04T14:04:56.188Z</time></trkpt><trkpt lat="40.3547983" lon="18.2209111"><ele>32.0</ele><time>2026-04-04T14:04:57.188Z</time></trkpt><trkpt lat="40.3547621" lon="18.2212017"><ele>33.0</ele><time>2026-04-04T14:04:58.188Z</time></trkpt><trkpt lat="40.3547323" lon="18.2214945"><ele>33.0</ele><time>2026-04-04T14:04:59.188Z</time></trkpt><trkpt lat="40.3547077" lon="18.2217881"><ele>33.0</ele><time>2026-04-04T14:05:00.188Z</time></trkpt><trkpt lat="40.3546882" lon="18.2220879"><ele>33.5</ele><time>2026-04-04T14:05:01.186Z</time></trkpt><trkpt lat="40.3546657" lon="18.2223858"><ele>34.0</ele><time>2026-04-04T14:05:02.187Z</time></trkpt><trkpt lat="40.354637" lon="18.222687"><ele>34.0</ele><time>2026-04-04T14:05:03.186Z</time></trkpt><trkpt lat="40.3546009" lon="18.2229898"><ele>34.0</ele><time>2026-04-04T14:05:04.187Z</time></trkpt><trkpt lat="40.3545553" lon="18.2232887"><ele>34.5</ele><time>2026-04-04T14:05:05.187Z</time></trkpt><trkpt lat="40.3545087" lon="18.2235887"><ele>35.0</ele><time>2026-04-04T14:05:06.187Z</time></trkpt><trkpt lat="40.3544572" lon="18.2238963"><ele>36.5</ele><time>2026-04-04T14:05:07.188Z</time></trkpt><trkpt lat="40.3543995" lon="18.2241994"><ele>38.0</ele><time>2026-04-04T14:05:08.188Z</time></trkpt><trkpt lat="40.354339" lon="18.2245017"><ele>38.0</ele><time>2026-04-04T14:05:09.187Z</time></trkpt><trkpt lat="40.3542699" lon="18.2248036"><ele>38.0</ele><time>2026-04-04T14:05:10.186Z</time></trkpt><trkpt lat="40.354203" lon="18.225109"><ele>38.5</ele><time>2026-04-04T14:05:11.188Z</time></trkpt><trkpt lat="40.3541345" lon="18.2254151"><ele>39.0</ele><time>2026-04-04T14:05:12.186Z</time></trkpt><trkpt lat="40.3540644" lon="18.2257212"><ele>39.5</ele><time>2026-04-04T14:05:13.188Z</time></trkpt><trkpt lat="40.3539935" lon="18.2260241"><ele>40.0</ele><time>2026-04-04T14:05:14.188Z</time></trkpt><trkpt lat="40.3539241" lon="18.2263296"><ele>41.0</ele><time>2026-04-04T14:05:15.187Z</time></trkpt><trkpt lat="40.3538534" lon="18.2266354"><ele>42.0</ele><time>2026-04-04T14:05:16.187Z</time></trkpt><trkpt lat="40.3537827" lon="18.2269419"><ele>42.0</ele><time>2026-04-04T14:05:17.187Z</time></trkpt><trkpt lat="40.3537132" lon="18.2272485"><ele>42.0</ele><time>2026-04-04T14:05:18.188Z</time></trkpt><trkpt lat="40.3536413" lon="18.2275534"><ele>41.0</ele><time>2026-04-04T14:05:19.186Z</time></trkpt><trkpt lat="40.3535684" lon="18.2278542"><ele>40.0</ele><time>2026-04-04T14:05:20.187Z</time></trkpt><trkpt lat="40.3535003" lon="18.2281556"><ele>39.5</ele><time>2026-04-04T14:05:21.189Z</time></trkpt><trkpt lat="40.3534335" lon="18.2284604"><ele>39.0</ele><time>2026-04-04T14:05:22.187Z</time></trkpt><trkpt lat="40.3533673" lon="18.228769"><ele>39.0</ele><time>2026-04-04T14:05:23.187Z</time></trkpt><trkpt lat="40.3533068" lon="18.2290815"><ele>39.0</ele><time>2026-04-04T14:05:24.188Z</time></trkpt><trkpt lat="40.3532579" lon="18.2293939"><ele>39.0</ele><time>2026-04-04T14:05:25.187Z</time></trkpt><trkpt lat="40.3532175" lon="18.2297147"><ele>39.0</ele><time>2026-04-04T14:05:26.187Z</time></trkpt><trkpt lat="40.3531876" lon="18.2300354"><ele>37.0</ele><time>2026-04-04T14:05:27.186Z</time></trkpt><trkpt lat="40.3531662" lon="18.2303605"><ele>35.0</ele><time>2026-04-04T14:05:28.186Z</time></trkpt><trkpt lat="40.3531523" lon="18.2306849"><ele>35.0</ele><time>2026-04-04T14:05:29.187Z</time></trkpt><trkpt lat="40.3531363" lon="18.2310102"><ele>35.0</ele><time>2026-04-04T14:05:30.187Z</time></trkpt><trkpt lat="40.3531227" lon="18.2313378"><ele>36.0</ele><time>2026-04-04T14:05:31.186Z</time></trkpt><trkpt lat="40.3531078" lon="18.2316639"><ele>37.0</ele><time>2026-04-04T14:05:32.188Z</time></trkpt><trkpt lat="40.3530933" lon="18.2319949"><ele>37.0</ele><time>2026-04-04T14:05:33.187Z</time></trkpt><trkpt lat="40.3530784" lon="18.2323239"><ele>37.0</ele><time>2026-04-04T14:05:34.187Z</time></trkpt><trkpt lat="40.3530602" lon="18.232653"><ele>37.0</ele><time>2026-04-04T14:05:35.186Z</time></trkpt><trkpt lat="40.3530411" lon="18.2329826"><ele>37.0</ele><time>2026-04-04T14:05:36.188Z</time></trkpt><trkpt lat="40.3530247" lon="18.2333111"><ele>36.0</ele><time>2026-04-04T14:05:37.188Z</time></trkpt><trkpt lat="40.3530062" lon="18.2336392"><ele>35.0</ele><time>2026-04-04T14:05:38.187Z</time></trkpt><trkpt lat="40.352991" lon="18.2339665"><ele>35.5</ele><time>2026-04-04T14:05:39.188Z</time></trkpt><trkpt lat="40.3529783" lon="18.2342941"><ele>36.0</ele><time>2026-04-04T14:05:40.186Z</time></trkpt><trkpt lat="40.3529618" lon="18.23462"><ele>36.0</ele><time>2026-04-04T14:05:41.187Z</time></trkpt><trkpt lat="40.3529459" lon="18.2349447"><ele>36.0</ele><time>2026-04-04T14:05:42.187Z</time></trkpt><trkpt lat="40.3529262" lon="18.2352714"><ele>36.0</ele><time>2026-04-04T14:05:43.188Z</time></trkpt><trkpt lat="40.3529055" lon="18.2355959"><ele>36.0</ele><time>2026-04-04T14:05:44.188Z</time></trkpt><trkpt lat="40.3528901" lon="18.2359221"><ele>36.5</ele><time>2026-04-04T14:05:45.188Z</time></trkpt><trkpt lat="40.3528755" lon="18.2362463"><ele>37.0</ele><time>2026-04-04T14:05:46.188Z</time></trkpt><trkpt lat="40.3528607" lon="18.2365638"><ele>37.0</ele><time>2026-04-04T14:05:47.186Z</time></trkpt><trkpt lat="40.352845" lon="18.2368799"><ele>37.0</ele><time>2026-04-04T14:05:48.188Z</time></trkpt><trkpt lat="40.352829" lon="18.2371957"><ele>37.0</ele><time>2026-04-04T14:05:49.189Z</time></trkpt><trkpt lat="40.3528178" lon="18.2375093"><ele>37.0</ele><time>2026-04-04T14:05:50.187Z</time></trkpt><trkpt lat="40.3528008" lon="18.2378256"><ele>37.5</ele><time>2026-04-04T14:05:51.186Z</time></trkpt><trkpt lat="40.3527877" lon="18.2381443"><ele>38.0</ele><time>2026-04-04T14:05:52.188Z</time></trkpt><trkpt lat="40.3527732" lon="18.238463"><ele>38.0</ele><time>2026-04-04T14:05:53.186Z</time></trkpt><trkpt lat="40.3527584" lon="18.2387853"><ele>38.0</ele><time>2026-04-04T14:05:54.187Z</time></trkpt><trkpt lat="40.3527404" lon="18.2391061"><ele>37.5</ele><time>2026-04-04T14:05:55.188Z</time></trkpt><trkpt lat="40.3527249" lon="18.2394298"><ele>37.0</ele><time>2026-04-04T14:05:56.188Z</time></trkpt><trkpt lat="40.3527114" lon="18.239754"><ele>36.5</ele><time>2026-04-04T14:05:57.186Z</time></trkpt><trkpt lat="40.3526937" lon="18.2400784"><ele>36.0</ele><time>2026-04-04T14:05:58.187Z</time></trkpt><trkpt lat="40.3526781" lon="18.2404022"><ele>36.0</ele><time>2026-04-04T14:05:59.187Z</time></trkpt><trkpt lat="40.3526627" lon="18.240722"><ele>36.0</ele><time>2026-04-04T14:06:00.187Z</time></trkpt><trkpt lat="40.3526479" lon="18.2410461"><ele>36.0</ele><time>2026-04-04T14:06:01.187Z</time></trkpt><trkpt lat="40.3526332" lon="18.2413702"><ele>36.0</ele><time>2026-04-04T14:06:02.188Z</time></trkpt><trkpt lat="40.3526164" lon="18.2416928"><ele>36.0</ele><time>2026-04-04T14:06:03.188Z</time></trkpt><trkpt lat="40.352601" lon="18.2420171"><ele>36.0</ele><time>2026-04-04T14:06:04.186Z</time></trkpt><trkpt lat="40.3525835" lon="18.2423399"><ele>35.5</ele><time>2026-04-04T14:06:05.188Z</time></trkpt><trkpt lat="40.352566" lon="18.2426658"><ele>35.0</ele><time>2026-04-04T14:06:06.187Z</time></trkpt><trkpt lat="40.3525457" lon="18.2429904"><ele>34.0</ele><time>2026-04-04T14:06:07.188Z</time></trkpt><trkpt lat="40.3525243" lon="18.2433122"><ele>33.0</ele><time>2026-04-04T14:06:08.187Z</time></trkpt><trkpt lat="40.3525012" lon="18.2436355"><ele>33.0</ele><time>2026-04-04T14:06:09.187Z</time></trkpt><trkpt lat="40.3524799" lon="18.2439593"><ele>33.0</ele><time>2026-04-04T14:06:10.186Z</time></trkpt><trkpt lat="40.3524643" lon="18.2442803"><ele>32.5</ele><time>2026-04-04T14:06:11.187Z</time></trkpt><trkpt lat="40.3524493" lon="18.2445979"><ele>32.0</ele><time>2026-04-04T14:06:12.188Z</time></trkpt><trkpt lat="40.3524347" lon="18.2449187"><ele>33.0</ele><time>2026-04-04T14:06:13.187Z</time></trkpt><trkpt lat="40.3524177" lon="18.2452394"><ele>34.0</ele><time>2026-04-04T14:06:14.187Z</time></trkpt><trkpt lat="40.3524035" lon="18.2455634"><ele>34.5</ele><time>2026-04-04T14:06:15.188Z</time></trkpt><trkpt lat="40.3523888" lon="18.2458847"><ele>35.0</ele><time>2026-04-04T14:06:16.187Z</time></trkpt><trkpt lat="40.3523718" lon="18.2462061"><ele>34.0</ele><time>2026-04-04T14:06:17.187Z</time></trkpt><trkpt lat="40.3523537" lon="18.246525"><ele>33.0</ele><time>2026-04-04T14:06:18.187Z</time></trkpt><trkpt lat="40.3523399" lon="18.2468439"><ele>33.0</ele><time>2026-04-04T14:06:19.186Z</time></trkpt><trkpt lat="40.3523268" lon="18.2471616"><ele>33.0</ele><time>2026-04-04T14:06:20.188Z</time></trkpt><trkpt lat="40.3523165" lon="18.2474817"><ele>32.0</ele><time>2026-04-04T14:06:21.186Z</time></trkpt><trkpt lat="40.352306" lon="18.2477992"><ele>31.0</ele><time>2026-04-04T14:06:22.186Z</time></trkpt><trkpt lat="40.3522976" lon="18.2481161"><ele>31.0</ele><time>2026-04-04T14:06:23.186Z</time></trkpt><trkpt lat="40.3522888" lon="18.2484322"><ele>31.0</ele><time>2026-04-04T14:06:24.186Z</time></trkpt><trkpt lat="40.3522756" lon="18.2487492"><ele>31.5</ele><time>2026-04-04T14:06:25.187Z</time></trkpt><trkpt lat="40.3522644" lon="18.2490667"><ele>32.0</ele><time>2026-04-04T14:06:26.186Z</time></trkpt><trkpt lat="40.3522565" lon="18.249383"><ele>32.0</ele><time>2026-04-04T14:06:27.187Z</time></trkpt><trkpt lat="40.3522495" lon="18.2496985"><ele>32.0</ele><time>2026-04-04T14:06:28.187Z</time></trkpt><trkpt lat="40.3522359" lon="18.2500165"><ele>32.0</ele><time>2026-04-04T14:06:29.186Z</time></trkpt><trkpt lat="40.3522229" lon="18.2503309"><ele>32.0</ele><time>2026-04-04T14:06:30.187Z</time></trkpt><trkpt lat="40.3522146" lon="18.250642"><ele>32.5</ele><time>2026-04-04T14:06:31.187Z</time></trkpt><trkpt lat="40.3522007" lon="18.2509583"><ele>33.0</ele><time>2026-04-04T14:06:32.187Z</time></trkpt><trkpt lat="40.3521866" lon="18.2512737"><ele>33.0</ele><time>2026-04-04T14:06:33.187Z</time></trkpt><trkpt lat="40.352174" lon="18.251586"><ele>33.0</ele><time>2026-04-04T14:06:34.187Z</time></trkpt><trkpt lat="40.3521606" lon="18.2518911"><ele>33.0</ele><time>2026-04-04T14:06:35.188Z</time></trkpt><trkpt lat="40.352149" lon="18.2521939"><ele>33.0</ele><time>2026-04-04T14:06:36.188Z</time></trkpt><trkpt lat="40.3521388" lon="18.2524887"><ele>32.666666666666664</ele><time>2026-04-04T14:06:37.186Z</time></trkpt><trkpt lat="40.3521251" lon="18.2527834"><ele>32.33333333333333</ele><time>2026-04-04T14:06:38.186Z</time></trkpt><trkpt lat="40.3521141" lon="18.2530737"><ele>32.0</ele><time>2026-04-04T14:06:39.186Z</time></trkpt><trkpt lat="40.352101" lon="18.2533606"><ele>31.666666666666664</ele><time>2026-04-04T14:06:40.186Z</time></trkpt><trkpt lat="40.3520907" lon="18.253652"><ele>31.333333333333336</ele><time>2026-04-04T14:06:41.186Z</time></trkpt><trkpt lat="40.3520761" lon="18.253937"><ele>31.0</ele><time>2026-04-04T14:06:42.188Z</time></trkpt><trkpt lat="40.3520648" lon="18.2542204"><ele>31.0</ele><time>2026-04-04T14:06:43.188Z</time></trkpt><trkpt lat="40.3520511" lon="18.2545056"><ele>31.0</ele><time>2026-04-04T14:06:44.186Z</time></trkpt><trkpt lat="40.3520407" lon="18.2547961"><ele>31.0</ele><time>2026-04-04T14:06:45.186Z</time></trkpt><trkpt lat="40.3520308" lon="18.2550874"><ele>31.666666666666668</ele><time>2026-04-04T14:06:46.187Z</time></trkpt><trkpt lat="40.3520193" lon="18.2553788"><ele>32.333333333333336</ele><time>2026-04-04T14:06:47.187Z</time></trkpt><trkpt lat="40.3520087" lon="18.2556729"><ele>33.0</ele><time>2026-04-04T14:06:48.186Z</time></trkpt><trkpt lat="40.3519974" lon="18.2559703"><ele>33.0</ele><time>2026-04-04T14:06:49.187Z</time></trkpt><trkpt lat="40.3519861" lon="18.256267"><ele>33.0</ele><time>2026-04-04T14:06:50.186Z</time></trkpt><trkpt lat="40.3519776" lon="18.256568"><ele>33.0</ele><time>2026-04-04T14:06:51.187Z</time></trkpt><trkpt lat="40.3519666" lon="18.2568713"><ele>33.0</ele><time>2026-04-04T14:06:52.188Z</time></trkpt><trkpt lat="40.3519569" lon="18.2571775"><ele>33.5</ele><time>2026-04-04T14:06:53.187Z</time></trkpt><trkpt lat="40.3519483" lon="18.2574856"><ele>34.0</ele><time>2026-04-04T14:06:54.187Z</time></trkpt><trkpt lat="40.3519384" lon="18.2577933"><ele>34.0</ele><time>2026-04-04T14:06:55.187Z</time></trkpt><trkpt lat="40.3519286" lon="18.2581095"><ele>34.0</ele><time>2026-04-04T14:06:56.186Z</time></trkpt><trkpt lat="40.3519227" lon="18.2584199"><ele>33.5</ele><time>2026-04-04T14:06:57.188Z</time></trkpt><trkpt lat="40.3519157" lon="18.2587348"><ele>33.0</ele><time>2026-04-04T14:06:58.187Z</time></trkpt><trkpt lat="40.3519079" lon="18.259048"><ele>33.0</ele><time>2026-04-04T14:06:59.187Z</time></trkpt><trkpt lat="40.3518983" lon="18.2593666"><ele>33.0</ele><time>2026-04-04T14:07:00.186Z</time></trkpt><trkpt lat="40.351892" lon="18.2596864"><ele>33.0</ele><time>2026-04-04T14:07:01.188Z</time></trkpt><trkpt lat="40.3518817" lon="18.2600097"><ele>33.0</ele><time>2026-04-04T14:07:02.186Z</time></trkpt><trkpt lat="40.3518729" lon="18.2603329"><ele>33.5</ele><time>2026-04-04T14:07:03.186Z</time></trkpt><trkpt lat="40.3518632" lon="18.2606536"><ele>34.0</ele><time>2026-04-04T14:07:04.186Z</time></trkpt><trkpt lat="40.3518528" lon="18.2609716"><ele>34.0</ele><time>2026-04-04T14:07:05.188Z</time></trkpt><trkpt lat="40.3518394" lon="18.2612899"><ele>34.0</ele><time>2026-04-04T14:07:06.188Z</time></trkpt><trkpt lat="40.3518288" lon="18.261615"><ele>34.0</ele><time>2026-04-04T14:07:07.188Z</time></trkpt><trkpt lat="40.3518192" lon="18.2619352"><ele>34.0</ele><time>2026-04-04T14:07:08.187Z</time></trkpt><trkpt lat="40.3518087" lon="18.2622497"><ele>33.5</ele><time>2026-04-04T14:07:09.186Z</time></trkpt><trkpt lat="40.3518013" lon="18.2625753"><ele>33.0</ele><time>2026-04-04T14:07:10.188Z</time></trkpt><trkpt lat="40.3517928" lon="18.262898"><ele>33.5</ele><time>2026-04-04T14:07:11.186Z</time></trkpt><trkpt lat="40.3517905" lon="18.2632219"><ele>34.0</ele><time>2026-04-04T14:07:12.187Z</time></trkpt><trkpt lat="40.35178" lon="18.2635464"><ele>34.0</ele><time>2026-04-04T14:07:13.186Z</time></trkpt><trkpt lat="40.3517775" lon="18.2638616"><ele>34.0</ele><time>2026-04-04T14:07:14.189Z</time></trkpt><trkpt lat="40.3517665" lon="18.2641863"><ele>33.5</ele><time>2026-04-04T14:07:15.186Z</time></trkpt><trkpt lat="40.3517621" lon="18.2645056"><ele>33.0</ele><time>2026-04-04T14:07:16.187Z</time></trkpt><trkpt lat="40.3517563" lon="18.26483"><ele>33.0</ele><time>2026-04-04T14:07:17.187Z</time></trkpt><trkpt lat="40.3517512" lon="18.2651505"><ele>33.0</ele><time>2026-04-04T14:07:18.187Z</time></trkpt><trkpt lat="40.3517448" lon="18.2654639"><ele>32.5</ele><time>2026-04-04T14:07:19.186Z</time></trkpt><trkpt lat="40.3517407" lon="18.2657713"><ele>32.0</ele><time>2026-04-04T14:07:20.188Z</time></trkpt><trkpt lat="40.3517404" lon="18.2660686"><ele>32.0</ele><time>2026-04-04T14:07:21.186Z</time></trkpt><trkpt lat="40.351738" lon="18.2663584"><ele>32.0</ele><time>2026-04-04T14:07:22.187Z</time></trkpt><trkpt lat="40.3517412" lon="18.2666496"><ele>32.0</ele><time>2026-04-04T14:07:23.187Z</time></trkpt><trkpt lat="40.3517396" lon="18.2669304"><ele>32.0</ele><time>2026-04-04T14:07:24.188Z</time></trkpt><trkpt lat="40.3517375" lon="18.2672079"><ele>32.0</ele><time>2026-04-04T14:07:25.187Z</time></trkpt><trkpt lat="40.3517374" lon="18.2674881"><ele>32.0</ele><time>2026-04-04T14:07:26.187Z</time></trkpt><trkpt lat="40.3517353" lon="18.2677605"><ele>32.0</ele><time>2026-04-04T14:07:27.187Z</time></trkpt><trkpt lat="40.3517366" lon="18.2680314"><ele>32.0</ele><time>2026-04-04T14:07:28.189Z</time></trkpt><trkpt lat="40.3517405" lon="18.2683016"><ele>32.0</ele><time>2026-04-04T14:07:29.189Z</time></trkpt><trkpt lat="40.3517398" lon="18.2685793"><ele>32.0</ele><time>2026-04-04T14:07:30.186Z</time></trkpt><trkpt lat="40.3517422" lon="18.2688567"><ele>32.0</ele><time>2026-04-04T14:07:31.188Z</time></trkpt><trkpt lat="40.3517445" lon="18.2691388"><ele>32.0</ele><time>2026-04-04T14:07:32.188Z</time></trkpt><trkpt lat="40.3517418" lon="18.2694207"><ele>32.0</ele><time>2026-04-04T14:07:33.186Z</time></trkpt><trkpt lat="40.3517396" lon="18.2697059"><ele>32.0</ele><time>2026-04-04T14:07:34.186Z</time></trkpt><trkpt lat="40.3517367" lon="18.2699944"><ele>32.0</ele><time>2026-04-04T14:07:35.186Z</time></trkpt><trkpt lat="40.351737" lon="18.2702854"><ele>32.0</ele><time>2026-04-04T14:07:36.186Z</time></trkpt><trkpt lat="40.3517349" lon="18.2705791"><ele>32.0</ele><time>2026-04-04T14:07:37.187Z</time></trkpt><trkpt lat="40.3517316" lon="18.2708762"><ele>32.0</ele><time>2026-04-04T14:07:38.186Z</time></trkpt><trkpt lat="40.3517311" lon="18.271174"><ele>32.0</ele><time>2026-04-04T14:07:39.187Z</time></trkpt><trkpt lat="40.3517316" lon="18.2714767"><ele>31.5</ele><time>2026-04-04T14:07:40.187Z</time></trkpt><trkpt lat="40.3517286" lon="18.2717797"><ele>31.0</ele><time>2026-04-04T14:07:41.187Z</time></trkpt><trkpt lat="40.3517319" lon="18.2720828"><ele>31.0</ele><time>2026-04-04T14:07:42.187Z</time></trkpt><trkpt lat="40.351727" lon="18.272387"><ele>31.0</ele><time>2026-04-04T14:07:43.188Z</time></trkpt><trkpt lat="40.3517284" lon="18.2726962"><ele>31.0</ele><time>2026-04-04T14:07:44.186Z</time></trkpt><trkpt lat="40.3517251" lon="18.2730044"><ele>31.0</ele><time>2026-04-04T14:07:45.188Z</time></trkpt><trkpt lat="40.3517227" lon="18.2733138"><ele>30.0</ele><time>2026-04-04T14:07:46.186Z</time></trkpt><trkpt lat="40.3517217" lon="18.2736237"><ele>29.0</ele><time>2026-04-04T14:07:47.187Z</time></trkpt><trkpt lat="40.3517244" lon="18.2739353"><ele>29.5</ele><time>2026-04-04T14:07:48.186Z</time></trkpt><trkpt lat="40.351726" lon="18.274248"><ele>30.0</ele><time>2026-04-04T14:07:49.188Z</time></trkpt><trkpt lat="40.3517277" lon="18.274556"><ele>31.0</ele><time>2026-04-04T14:07:50.187Z</time></trkpt><trkpt lat="40.3517312" lon="18.2748736"><ele>32.0</ele><time>2026-04-04T14:07:51.186Z</time></trkpt><trkpt lat="40.3517378" lon="18.2751857"><ele>32.0</ele><time>2026-04-04T14:07:52.186Z</time></trkpt><trkpt lat="40.3517378" lon="18.2755042"><ele>32.0</ele><time>2026-04-04T14:07:53.187Z</time></trkpt><trkpt lat="40.3517361" lon="18.2758221"><ele>32.5</ele><time>2026-04-04T14:07:54.186Z</time></trkpt><trkpt lat="40.3517334" lon="18.2761397"><ele>33.0</ele><time>2026-04-04T14:07:55.186Z</time></trkpt><trkpt lat="40.3517326" lon="18.2764567"><ele>33.0</ele><time>2026-04-04T14:07:56.189Z</time></trkpt><trkpt lat="40.3517319" lon="18.2767777"><ele>33.0</ele><time>2026-04-04T14:07:57.187Z</time></trkpt><trkpt lat="40.3517378" lon="18.2770981"><ele>32.0</ele><time>2026-04-04T14:07:58.186Z</time></trkpt><trkpt lat="40.3517417" lon="18.277424"><ele>31.0</ele><time>2026-04-04T14:07:59.187Z</time></trkpt><trkpt lat="40.3517385" lon="18.2777461"><ele>31.0</ele><time>2026-04-04T14:08:00.187Z</time></trkpt><trkpt lat="40.3517449" lon="18.2780684"><ele>31.0</ele><time>2026-04-04T14:08:01.186Z</time></trkpt><trkpt lat="40.3517568" lon="18.2783918"><ele>30.5</ele><time>2026-04-04T14:08:02.187Z</time></trkpt><trkpt lat="40.3517903" lon="18.2787082"><ele>30.0</ele><time>2026-04-04T14:08:03.186Z</time></trkpt><trkpt lat="40.3518449" lon="18.2790186"><ele>30.0</ele><time>2026-04-04T14:08:04.187Z</time></trkpt><trkpt lat="40.3519144" lon="18.2793272"><ele>30.0</ele><time>2026-04-04T14:08:05.187Z</time></trkpt><trkpt lat="40.3519954" lon="18.2796246"><ele>30.5</ele><time>2026-04-04T14:08:06.186Z</time></trkpt><trkpt lat="40.3520913" lon="18.2799165"><ele>31.0</ele><time>2026-04-04T14:08:07.187Z</time></trkpt><trkpt lat="40.3522016" lon="18.2801973"><ele>31.0</ele><time>2026-04-04T14:08:08.187Z</time></trkpt><trkpt lat="40.3523254" lon="18.2804643"><ele>31.0</ele><time>2026-04-04T14:08:09.187Z</time></trkpt><trkpt lat="40.352456" lon="18.280724"><ele>31.0</ele><time>2026-04-04T14:08:10.188Z</time></trkpt><trkpt lat="40.3526008" lon="18.2809691"><ele>31.0</ele><time>2026-04-04T14:08:11.186Z</time></trkpt><trkpt lat="40.3527442" lon="18.2812107"><ele>30.5</ele><time>2026-04-04T14:08:12.188Z</time></trkpt><trkpt lat="40.3528938" lon="18.281445"><ele>30.0</ele><time>2026-04-04T14:08:13.188Z</time></trkpt><trkpt lat="40.3530353" lon="18.2816816"><ele>30.0</ele><time>2026-04-04T14:08:14.186Z</time></trkpt><trkpt lat="40.353173" lon="18.2819175"><ele>30.0</ele><time>2026-04-04T14:08:15.188Z</time></trkpt><trkpt lat="40.3533081" lon="18.2821587"><ele>29.666666666666664</ele><time>2026-04-04T14:08:16.186Z</time></trkpt><trkpt lat="40.353444" lon="18.2823933"><ele>29.333333333333332</ele><time>2026-04-04T14:08:17.189Z</time></trkpt><trkpt lat="40.35358" lon="18.2826272"><ele>29.0</ele><time>2026-04-04T14:08:18.187Z</time></trkpt><trkpt lat="40.353717" lon="18.2828622"><ele>29.0</ele><time>2026-04-04T14:08:19.187Z</time></trkpt><trkpt lat="40.353851" lon="18.2831015"><ele>29.0</ele><time>2026-04-04T14:08:20.188Z</time></trkpt><trkpt lat="40.3539833" lon="18.2833393"><ele>28.666666666666664</ele><time>2026-04-04T14:08:21.187Z</time></trkpt><trkpt lat="40.3541167" lon="18.2835733"><ele>28.333333333333336</ele><time>2026-04-04T14:08:22.187Z</time></trkpt><trkpt lat="40.3542503" lon="18.2838077"><ele>28.0</ele><time>2026-04-04T14:08:23.187Z</time></trkpt><trkpt lat="40.3543869" lon="18.2840387"><ele>28.0</ele><time>2026-04-04T14:08:24.188Z</time></trkpt><trkpt lat="40.3545244" lon="18.284266"><ele>28.0</ele><time>2026-04-04T14:08:25.186Z</time></trkpt><trkpt lat="40.3546672" lon="18.2844932"><ele>28.0</ele><time>2026-04-04T14:08:26.187Z</time></trkpt><trkpt lat="40.3548155" lon="18.2847102"><ele>26.666666666666668</ele><time>2026-04-04T14:08:27.186Z</time></trkpt><trkpt lat="40.35497" lon="18.2849188"><ele>25.333333333333336</ele><time>2026-04-04T14:08:28.186Z</time></trkpt><trkpt lat="40.3551342" lon="18.2851166"><ele>24.0</ele><time>2026-04-04T14:08:29.187Z</time></trkpt><trkpt lat="40.3553028" lon="18.2853071"><ele>24.0</ele><time>2026-04-04T14:08:30.187Z</time></trkpt><trkpt lat="40.3554752" lon="18.2854868"><ele>24.0</ele><time>2026-04-04T14:08:31.187Z</time></trkpt><trkpt lat="40.3556505" lon="18.285664"><ele>24.0</ele><time>2026-04-04T14:08:32.187Z</time></trkpt><trkpt lat="40.3558273" lon="18.2858412"><ele>23.666666666666668</ele><time>2026-04-04T14:08:33.187Z</time></trkpt><trkpt lat="40.356002" lon="18.2860153"><ele>23.333333333333336</ele><time>2026-04-04T14:08:34.187Z</time></trkpt><trkpt lat="40.3561767" lon="18.2861909"><ele>23.0</ele><time>2026-04-04T14:08:35.187Z</time></trkpt><trkpt lat="40.3563523" lon="18.2863645"><ele>22.333333333333336</ele><time>2026-04-04T14:08:36.188Z</time></trkpt><trkpt lat="40.3565259" lon="18.2865387"><ele>21.666666666666668</ele><time>2026-04-04T14:08:37.187Z</time></trkpt><trkpt lat="40.3566981" lon="18.28671"><ele>21.0</ele><time>2026-04-04T14:08:38.188Z</time></trkpt><trkpt lat="40.3568696" lon="18.2868781"><ele>21.0</ele><time>2026-04-04T14:08:39.187Z</time></trkpt><trkpt lat="40.3570385" lon="18.2870489"><ele>21.0</ele><time>2026-04-04T14:08:40.186Z</time></trkpt><trkpt lat="40.3572067" lon="18.2872194"><ele>21.0</ele><time>2026-04-04T14:08:41.187Z</time></trkpt><trkpt lat="40.3573758" lon="18.2873908"><ele>20.0</ele><time>2026-04-04T14:08:42.187Z</time></trkpt><trkpt lat="40.3575506" lon="18.2875582"><ele>19.0</ele><time>2026-04-04T14:08:43.189Z</time></trkpt><trkpt lat="40.3577224" lon="18.2877267"><ele>18.0</ele><time>2026-04-04T14:08:44.188Z</time></trkpt><trkpt lat="40.3578935" lon="18.2879043"><ele>18.333333333333332</ele><time>2026-04-04T14:08:45.188Z</time></trkpt><trkpt lat="40.3580594" lon="18.2880869"><ele>18.666666666666664</ele><time>2026-04-04T14:08:46.187Z</time></trkpt><trkpt lat="40.3582222" lon="18.2882755"><ele>19.0</ele><time>2026-04-04T14:08:47.189Z</time></trkpt><trkpt lat="40.3583879" lon="18.2884679"><ele>19.0</ele><time>2026-04-04T14:08:48.187Z</time></trkpt><trkpt lat="40.3585457" lon="18.2886734"><ele>19.0</ele><time>2026-04-04T14:08:49.188Z</time></trkpt><trkpt lat="40.3586967" lon="18.2888894"><ele>19.0</ele><time>2026-04-04T14:08:50.186Z</time></trkpt><trkpt lat="40.3588468" lon="18.289105"><ele>17.5</ele><time>2026-04-04T14:08:51.186Z</time></trkpt><trkpt lat="40.3589976" lon="18.2893233"><ele>16.0</ele><time>2026-04-04T14:08:52.188Z</time></trkpt><trkpt lat="40.3591562" lon="18.2895367"><ele>16.0</ele><time>2026-04-04T14:08:53.186Z</time></trkpt><trkpt lat="40.3593068" lon="18.2897613"><ele>16.0</ele><time>2026-04-04T14:08:54.187Z</time></trkpt><trkpt lat="40.3594625" lon="18.2899821"><ele>16.0</ele><time>2026-04-04T14:08:55.188Z</time></trkpt><trkpt lat="40.3596174" lon="18.2902062"><ele>16.0</ele><time>2026-04-04T14:08:56.186Z</time></trkpt><trkpt lat="40.3597686" lon="18.290432"><ele>17.0</ele><time>2026-04-04T14:08:57.188Z</time></trkpt><trkpt lat="40.3599158" lon="18.2906619"><ele>18.0</ele><time>2026-04-04T14:08:58.187Z</time></trkpt><trkpt lat="40.360057" lon="18.290897"><ele>18.0</ele><time>2026-04-04T14:08:59.187Z</time></trkpt><trkpt lat="40.3601923" lon="18.2911467"><ele>18.0</ele><time>2026-04-04T14:09:00.187Z</time></trkpt><trkpt lat="40.3603202" lon="18.2913981"><ele>17.0</ele><time>2026-04-04T14:09:01.187Z</time></trkpt><trkpt lat="40.3604388" lon="18.291657"><ele>16.0</ele><time>2026-04-04T14:09:02.188Z</time></trkpt><trkpt lat="40.3605468" lon="18.2919228"><ele>16.0</ele><time>2026-04-04T14:09:03.186Z</time></trkpt><trkpt lat="40.360649" lon="18.2921962"><ele>16.0</ele><time>2026-04-04T14:09:04.187Z</time></trkpt><trkpt lat="40.3607529" lon="18.2924675"><ele>16.0</ele><time>2026-04-04T14:09:05.188Z</time></trkpt><trkpt lat="40.3608565" lon="18.2927404"><ele>16.0</ele><time>2026-04-04T14:09:06.187Z</time></trkpt><trkpt lat="40.360957" lon="18.2930161"><ele>15.5</ele><time>2026-04-04T14:09:07.187Z</time></trkpt><trkpt lat="40.3610567" lon="18.2932897"><ele>15.0</ele><time>2026-04-04T14:09:08.186Z</time></trkpt><trkpt lat="40.3611576" lon="18.2935681"><ele>15.0</ele><time>2026-04-04T14:09:09.187Z</time></trkpt><trkpt lat="40.3612568" lon="18.2938426"><ele>15.0</ele><time>2026-04-04T14:09:10.186Z</time></trkpt><trkpt lat="40.36136" lon="18.2941167"><ele>15.0</ele><time>2026-04-04T14:09:11.188Z</time></trkpt><trkpt lat="40.3614671" lon="18.2943867"><ele>15.0</ele><time>2026-04-04T14:09:12.188Z</time></trkpt><trkpt lat="40.3615698" lon="18.2946676"><ele>14.5</ele><time>2026-04-04T14:09:13.187Z</time></trkpt><trkpt lat="40.3616681" lon="18.2949432"><ele>14.0</ele><time>2026-04-04T14:09:14.188Z</time></trkpt><trkpt lat="40.3617677" lon="18.2952253"><ele>14.0</ele><time>2026-04-04T14:09:15.187Z</time></trkpt><trkpt lat="40.361865" lon="18.2955025"><ele>14.0</ele><time>2026-04-04T14:09:16.187Z</time></trkpt><trkpt lat="40.3619695" lon="18.2957771"><ele>13.0</ele><time>2026-04-04T14:09:17.186Z</time></trkpt><trkpt lat="40.3620653" lon="18.2960562"><ele>12.0</ele><time>2026-04-04T14:09:18.186Z</time></trkpt><trkpt lat="40.3621624" lon="18.2963331"><ele>12.0</ele><time>2026-04-04T14:09:19.188Z</time></trkpt><trkpt lat="40.3622584" lon="18.2966114"><ele>12.0</ele><time>2026-04-04T14:09:20.186Z</time></trkpt><trkpt lat="40.3623554" lon="18.2968915"><ele>12.0</ele><time>2026-04-04T14:09:21.188Z</time></trkpt><trkpt lat="40.3624529" lon="18.2971734"><ele>12.0</ele><time>2026-04-04T14:09:22.187Z</time></trkpt><trkpt lat="40.3625535" lon="18.2974516"><ele>13.0</ele><time>2026-04-04T14:09:23.186Z</time></trkpt><trkpt lat="40.3626612" lon="18.2977258"><ele>14.0</ele><time>2026-04-04T14:09:24.188Z</time></trkpt><trkpt lat="40.3627693" lon="18.2979909"><ele>13.0</ele><time>2026-04-04T14:09:25.186Z</time></trkpt><trkpt lat="40.3628923" lon="18.2982508"><ele>12.0</ele><time>2026-04-04T14:09:26.186Z</time></trkpt><trkpt lat="40.3630103" lon="18.2985205"><ele>12.0</ele><time>2026-04-04T14:09:27.188Z</time></trkpt><trkpt lat="40.3631298" lon="18.2987902"><ele>12.0</ele><time>2026-04-04T14:09:28.187Z</time></trkpt><trkpt lat="40.363252" lon="18.2990548"><ele>12.5</ele><time>2026-04-04T14:09:29.186Z</time></trkpt><trkpt lat="40.3633746" lon="18.2993211"><ele>13.0</ele><time>2026-04-04T14:09:30.188Z</time></trkpt><trkpt lat="40.3634921" lon="18.2995853"><ele>12.5</ele><time>2026-04-04T14:09:31.187Z</time></trkpt><trkpt lat="40.3636123" lon="18.2998514"><ele>12.0</ele><time>2026-04-04T14:09:32.186Z</time></trkpt><trkpt lat="40.3637287" lon="18.3001144"><ele>12.0</ele><time>2026-04-04T14:09:33.188Z</time></trkpt><trkpt lat="40.3638478" lon="18.3003769"><ele>12.0</ele><time>2026-04-04T14:09:34.186Z</time></trkpt><trkpt lat="40.3639646" lon="18.3006358"><ele>11.0</ele><time>2026-04-04T14:09:35.188Z</time></trkpt><trkpt lat="40.3640826" lon="18.3008924"><ele>10.0</ele><time>2026-04-04T14:09:36.187Z</time></trkpt><trkpt lat="40.3641974" lon="18.3011515"><ele>10.0</ele><time>2026-04-04T14:09:37.186Z</time></trkpt><trkpt lat="40.3643094" lon="18.3014124"><ele>10.0</ele><time>2026-04-04T14:09:38.187Z</time></trkpt><trkpt lat="40.3644159" lon="18.3016722"><ele>10.0</ele><time>2026-04-04T14:09:39.187Z</time></trkpt><trkpt lat="40.3645113" lon="18.3019386"><ele>10.0</ele><time>2026-04-04T14:09:40.186Z</time></trkpt><trkpt lat="40.364599" lon="18.302209"><ele>10.0</ele><time>2026-04-04T14:09:41.188Z</time></trkpt><trkpt lat="40.3646818" lon="18.3024873"><ele>10.0</ele><time>2026-04-04T14:09:42.186Z</time></trkpt><trkpt lat="40.3647586" lon="18.3027591"><ele>10.0</ele><time>2026-04-04T14:09:43.186Z</time></trkpt><trkpt lat="40.3648286" lon="18.3030329"><ele>10.0</ele><time>2026-04-04T14:09:44.188Z</time></trkpt><trkpt lat="40.3648926" lon="18.3033158"><ele>10.0</ele><time>2026-04-04T14:09:45.187Z</time></trkpt><trkpt lat="40.3649513" lon="18.3035977"><ele>10.0</ele><time>2026-04-04T14:09:46.186Z</time></trkpt><trkpt lat="40.3650075" lon="18.3038824"><ele>10.0</ele><time>2026-04-04T14:09:47.187Z</time></trkpt><trkpt lat="40.3650648" lon="18.3041627"><ele>10.0</ele><time>2026-04-04T14:09:48.188Z</time></trkpt><trkpt lat="40.3651195" lon="18.3044454"><ele>10.0</ele><time>2026-04-04T14:09:49.187Z</time></trkpt><trkpt lat="40.3651835" lon="18.3047262"><ele>10.0</ele><time>2026-04-04T14:09:50.186Z</time></trkpt><trkpt lat="40.3652804" lon="18.3049952"><ele>9.666666666666668</ele><time>2026-04-04T14:09:51.187Z</time></trkpt><trkpt lat="40.3653779" lon="18.3052526"><ele>9.333333333333334</ele><time>2026-04-04T14:09:52.187Z</time></trkpt><trkpt lat="40.3654947" lon="18.3054996"><ele>9.0</ele><time>2026-04-04T14:09:53.186Z</time></trkpt><trkpt lat="40.3656321" lon="18.3057338"><ele>9.0</ele><time>2026-04-04T14:09:54.187Z</time></trkpt><trkpt lat="40.3657658" lon="18.3059651"><ele>9.0</ele><time>2026-04-04T14:09:55.186Z</time></trkpt><trkpt lat="40.3658983" lon="18.3061917"><ele>9.0</ele><time>2026-04-04T14:09:56.188Z</time></trkpt><trkpt lat="40.3660336" lon="18.3064238"><ele>8.666666666666666</ele><time>2026-04-04T14:09:57.187Z</time></trkpt><trkpt lat="40.3661656" lon="18.3066567"><ele>8.333333333333332</ele><time>2026-04-04T14:09:58.187Z</time></trkpt><trkpt lat="40.3663018" lon="18.3068925"><ele>8.0</ele><time>2026-04-04T14:09:59.186Z</time></trkpt><trkpt lat="40.3664412" lon="18.3071211"><ele>7.0</ele><time>2026-04-04T14:10:00.186Z</time></trkpt><trkpt lat="40.3665728" lon="18.307359"><ele>6.0</ele><time>2026-04-04T14:10:01.188Z</time></trkpt><trkpt lat="40.3667058" lon="18.3075953"><ele>5.0</ele><time>2026-04-04T14:10:02.186Z</time></trkpt><trkpt lat="40.3668401" lon="18.3078248"><ele>5.0</ele><time>2026-04-04T14:10:03.188Z</time></trkpt><trkpt lat="40.3669684" lon="18.3080477"><ele>5.0</ele><time>2026-04-04T14:10:04.187Z</time></trkpt><trkpt lat="40.3670954" lon="18.3082604"><ele>5.0</ele><time>2026-04-04T14:10:05.186Z</time></trkpt><trkpt lat="40.367213" lon="18.3084622"><ele>5.0</ele><time>2026-04-04T14:10:06.186Z</time></trkpt><trkpt lat="40.3673209" lon="18.3086504"><ele>5.0</ele><time>2026-04-04T14:10:07.188Z</time></trkpt><trkpt lat="40.3674258" lon="18.3088244"><ele>5.0</ele><time>2026-04-04T14:10:08.188Z</time></trkpt><trkpt lat="40.3675206" lon="18.308986"><ele>5.0</ele><time>2026-04-04T14:10:09.187Z</time></trkpt><trkpt lat="40.3676103" lon="18.3091367"><ele>5.0</ele><time>2026-04-04T14:10:10.186Z</time></trkpt><trkpt lat="40.3676924" lon="18.3092767"><ele>5.0</ele><time>2026-04-04T14:10:11.186Z</time></trkpt><trkpt lat="40.3677695" lon="18.3094101"><ele>5.0</ele><time>2026-04-04T14:10:12.187Z</time></trkpt><trkpt lat="40.3678401" lon="18.309528"><ele>5.0</ele><time>2026-04-04T14:10:13.186Z</time></trkpt><trkpt lat="40.3679011" lon="18.3096302"><ele>5.0</ele><time>2026-04-04T14:10:14.187Z</time></trkpt><trkpt lat="40.3679442" lon="18.3097214"><ele>5.0</ele><time>2026-04-04T14:10:15.187Z</time></trkpt><trkpt lat="40.3679796" lon="18.309798"><ele>5.0</ele><time>2026-04-04T14:10:16.187Z</time></trkpt><trkpt lat="40.3680136" lon="18.3099157"><ele>5.0</ele><time>2026-04-04T14:10:18.188Z</time></trkpt><trkpt lat="40.3680127" lon="18.3100026"><ele>5.0</ele><time>2026-04-04T14:10:20.186Z</time></trkpt><trkpt lat="40.3679817" lon="18.3100987"><ele>5.2</ele><time>2026-04-04T14:10:23.187Z</time></trkpt><trkpt lat="40.3679653" lon="18.3101903"><ele>5.4</ele><time>2026-04-04T14:10:42.186Z</time></trkpt><trkpt lat="40.367873" lon="18.3102886"><ele>5.6</ele><time>2026-04-04T14:10:44.186Z</time></trkpt><trkpt lat="40.367801" lon="18.3103545"><ele>5.8</ele><time>2026-04-04T14:10:45.188Z</time></trkpt><trkpt lat="40.3677293" lon="18.3104336"><ele>6.0</ele><time>2026-04-04T14:10:46.187Z</time></trkpt><trkpt lat="40.3676294" lon="18.3105233"><ele>7.0</ele><time>2026-04-04T14:10:47.187Z</time></trkpt><trkpt lat="40.3675069" lon="18.310623"><ele>8.0</ele><time>2026-04-04T14:10:48.187Z</time></trkpt><trkpt lat="40.3673905" lon="18.3107183"><ele>9.0</ele><time>2026-04-04T14:10:49.187Z</time></trkpt><trkpt lat="40.3672626" lon="18.310841"><ele>10.0</ele><time>2026-04-04T14:10:50.187Z</time></trkpt><trkpt lat="40.367137" lon="18.310957"><ele>10.0</ele><time>2026-04-04T14:10:51.187Z</time></trkpt><trkpt lat="40.3670031" lon="18.3110636"><ele>10.0</ele><time>2026-04-04T14:10:52.187Z</time></trkpt><trkpt lat="40.3668626" lon="18.3111777"><ele>10.0</ele><time>2026-04-04T14:10:53.186Z</time></trkpt><trkpt lat="40.3667279" lon="18.3113038"><ele>10.333333333333334</ele><time>2026-04-04T14:10:54.187Z</time></trkpt><trkpt lat="40.3665911" lon="18.3114188"><ele>10.666666666666666</ele><time>2026-04-04T14:10:55.187Z</time></trkpt><trkpt lat="40.3664492" lon="18.3115402"><ele>11.0</ele><time>2026-04-04T14:10:56.186Z</time></trkpt><trkpt lat="40.3663037" lon="18.3116675"><ele>11.0</ele><time>2026-04-04T14:10:57.187Z</time></trkpt><trkpt lat="40.3661505" lon="18.3117873"><ele>11.0</ele><time>2026-04-04T14:10:58.186Z</time></trkpt><trkpt lat="40.3659957" lon="18.3119191"><ele>11.0</ele><time>2026-04-04T14:10:59.188Z</time></trkpt><trkpt lat="40.36584" lon="18.3120503"><ele>11.0</ele><time>2026-04-04T14:11:00.187Z</time></trkpt><trkpt lat="40.3656784" lon="18.3121812"><ele>11.0</ele><time>2026-04-04T14:11:01.186Z</time></trkpt><trkpt lat="40.3655262" lon="18.3123184"><ele>11.0</ele><time>2026-04-04T14:11:02.187Z</time></trkpt><trkpt lat="40.3653685" lon="18.3124574"><ele>9.666666666666666</ele><time>2026-04-04T14:11:03.187Z</time></trkpt><trkpt lat="40.3652081" lon="18.312595"><ele>8.333333333333334</ele><time>2026-04-04T14:11:04.187Z</time></trkpt><trkpt lat="40.365055" lon="18.3127446"><ele>7.0</ele><time>2026-04-04T14:11:05.188Z</time></trkpt><trkpt lat="40.3648961" lon="18.312884"><ele>7.0</ele><time>2026-04-04T14:11:06.188Z</time></trkpt><trkpt lat="40.3647304" lon="18.3130244"><ele>7.0</ele><time>2026-04-04T14:11:07.188Z</time></trkpt><trkpt lat="40.3645643" lon="18.3131655"><ele>7.0</ele><time>2026-04-04T14:11:08.187Z</time></trkpt><trkpt lat="40.3643997" lon="18.3133255"><ele>6.333333333333334</ele><time>2026-04-04T14:11:09.188Z</time></trkpt><trkpt lat="40.3642372" lon="18.3134864"><ele>5.666666666666667</ele><time>2026-04-04T14:11:10.188Z</time></trkpt><trkpt lat="40.3640593" lon="18.3136385"><ele>5.0</ele><time>2026-04-04T14:11:11.186Z</time></trkpt><trkpt lat="40.3638798" lon="18.3137822"><ele>4.666666666666667</ele><time>2026-04-04T14:11:12.186Z</time></trkpt><trkpt lat="40.3636929" lon="18.3139191"><ele>4.333333333333333</ele><time>2026-04-04T14:11:13.188Z</time></trkpt><trkpt lat="40.36349" lon="18.314041"><ele>4.0</ele><time>2026-04-04T14:11:14.189Z</time></trkpt><trkpt lat="40.3632852" lon="18.3141499"><ele>4.0</ele><time>2026-04-04T14:11:15.186Z</time></trkpt><trkpt lat="40.3630693" lon="18.3142466"><ele>4.0</ele><time>2026-04-04T14:11:16.187Z</time></trkpt><trkpt lat="40.3628502" lon="18.314332"><ele>5.5</ele><time>2026-04-04T14:11:17.187Z</time></trkpt><trkpt lat="40.3626269" lon="18.3144157"><ele>7.0</ele><time>2026-04-04T14:11:18.187Z</time></trkpt><trkpt lat="40.3624009" lon="18.3145027"><ele>7.0</ele><time>2026-04-04T14:11:19.186Z</time></trkpt><trkpt lat="40.3621735" lon="18.3145863"><ele>7.0</ele><time>2026-04-04T14:11:20.186Z</time></trkpt><trkpt lat="40.361946" lon="18.3146723"><ele>7.0</ele><time>2026-04-04T14:11:21.188Z</time></trkpt><trkpt lat="40.361718" lon="18.3147615"><ele>7.0</ele><time>2026-04-04T14:11:22.186Z</time></trkpt><trkpt lat="40.3614885" lon="18.3148533"><ele>7.5</ele><time>2026-04-04T14:11:23.188Z</time></trkpt><trkpt lat="40.3612512" lon="18.3149288"><ele>8.0</ele><time>2026-04-04T14:11:24.187Z</time></trkpt><trkpt lat="40.3610126" lon="18.3149734"><ele>8.0</ele><time>2026-04-04T14:11:25.186Z</time></trkpt><trkpt lat="40.3607703" lon="18.314987"><ele>8.0</ele><time>2026-04-04T14:11:26.187Z</time></trkpt><trkpt lat="40.3605252" lon="18.3149832"><ele>8.5</ele><time>2026-04-04T14:11:27.188Z</time></trkpt><trkpt lat="40.3602827" lon="18.3149761"><ele>9.0</ele><time>2026-04-04T14:11:28.187Z</time></trkpt><trkpt lat="40.3600346" lon="18.3149625"><ele>9.0</ele><time>2026-04-04T14:11:29.187Z</time></trkpt><trkpt lat="40.3597898" lon="18.314954"><ele>9.0</ele><time>2026-04-04T14:11:30.186Z</time></trkpt><trkpt lat="40.3595445" lon="18.3149682"><ele>9.5</ele><time>2026-04-04T14:11:31.187Z</time></trkpt><trkpt lat="40.3593034" lon="18.3150072"><ele>10.0</ele><time>2026-04-04T14:11:32.187Z</time></trkpt><trkpt lat="40.3590657" lon="18.3150732"><ele>8.5</ele><time>2026-04-04T14:11:33.188Z</time></trkpt><trkpt lat="40.3588307" lon="18.3151691"><ele>7.0</ele><time>2026-04-04T14:11:34.186Z</time></trkpt><trkpt lat="40.358595" lon="18.3152786"><ele>7.0</ele><time>2026-04-04T14:11:35.186Z</time></trkpt><trkpt lat="40.358362" lon="18.3153952"><ele>7.0</ele><time>2026-04-04T14:11:36.188Z</time></trkpt><trkpt lat="40.3581311" lon="18.315518"><ele>8.0</ele><time>2026-04-04T14:11:37.187Z</time></trkpt><trkpt lat="40.3578985" lon="18.3156442"><ele>9.0</ele><time>2026-04-04T14:11:38.186Z</time></trkpt><trkpt lat="40.3576634" lon="18.315765"><ele>9.0</ele><time>2026-04-04T14:11:39.186Z</time></trkpt><trkpt lat="40.3574283" lon="18.3158904"><ele>9.0</ele><time>2026-04-04T14:11:40.187Z</time></trkpt><trkpt lat="40.3571916" lon="18.3160157"><ele>8.5</ele><time>2026-04-04T14:11:41.187Z</time></trkpt><trkpt lat="40.356953" lon="18.3161383"><ele>8.0</ele><time>2026-04-04T14:11:42.186Z</time></trkpt><trkpt lat="40.3567148" lon="18.3162597"><ele>8.0</ele><time>2026-04-04T14:11:43.187Z</time></trkpt><trkpt lat="40.3564775" lon="18.3163834"><ele>8.0</ele><time>2026-04-04T14:11:44.187Z</time></trkpt><trkpt lat="40.3562403" lon="18.3165182"><ele>8.0</ele><time>2026-04-04T14:11:45.187Z</time></trkpt><trkpt lat="40.356015" lon="18.3166617"><ele>8.0</ele><time>2026-04-04T14:11:46.186Z</time></trkpt><trkpt lat="40.3557965" lon="18.3168126"><ele>8.0</ele><time>2026-04-04T14:11:47.186Z</time></trkpt><trkpt lat="40.3555835" lon="18.316965"><ele>8.0</ele><time>2026-04-04T14:11:48.187Z</time></trkpt><trkpt lat="40.3553768" lon="18.3171146"><ele>8.5</ele><time>2026-04-04T14:11:49.187Z</time></trkpt><trkpt lat="40.3551721" lon="18.3172552"><ele>9.0</ele><time>2026-04-04T14:11:50.188Z</time></trkpt><trkpt lat="40.3549793" lon="18.3173971"><ele>9.0</ele><time>2026-04-04T14:11:51.186Z</time></trkpt><trkpt lat="40.354797" lon="18.3175383"><ele>9.0</ele><time>2026-04-04T14:11:52.187Z</time></trkpt><trkpt lat="40.3546265" lon="18.3176652"><ele>9.0</ele><time>2026-04-04T14:11:53.188Z</time></trkpt><trkpt lat="40.3544649" lon="18.3177852"><ele>9.0</ele><time>2026-04-04T14:11:54.186Z</time></trkpt><trkpt lat="40.3543097" lon="18.3179055"><ele>9.0</ele><time>2026-04-04T14:11:55.188Z</time></trkpt><trkpt lat="40.3541656" lon="18.3180123"><ele>9.0</ele><time>2026-04-04T14:11:56.187Z</time></trkpt><trkpt lat="40.3540301" lon="18.3181046"><ele>9.0</ele><time>2026-04-04T14:11:57.187Z</time></trkpt><trkpt lat="40.3538992" lon="18.3181992"><ele>9.0</ele><time>2026-04-04T14:11:58.188Z</time></trkpt><trkpt lat="40.353769" lon="18.3182836"><ele>9.0</ele><time>2026-04-04T14:11:59.188Z</time></trkpt><trkpt lat="40.3536486" lon="18.3183636"><ele>9.0</ele><time>2026-04-04T14:12:00.187Z</time></trkpt><trkpt lat="40.3535366" lon="18.3184465"><ele>8.8</ele><time>2026-04-04T14:12:01.186Z</time></trkpt><trkpt lat="40.353431" lon="18.3185209"><ele>8.600000000000001</ele><time>2026-04-04T14:12:02.187Z</time></trkpt><trkpt lat="40.3533325" lon="18.3185867"><ele>8.4</ele><time>2026-04-04T14:12:03.186Z</time></trkpt><trkpt lat="40.3532517" lon="18.3186446"><ele>8.200000000000001</ele><time>2026-04-04T14:12:04.188Z</time></trkpt><trkpt lat="40.3531807" lon="18.3186907"><ele>8.0</ele><time>2026-04-04T14:12:05.188Z</time></trkpt><trkpt lat="40.3531223" lon="18.3187325"><ele>8.4</ele><time>2026-04-04T14:12:06.187Z</time></trkpt><trkpt lat="40.3530115" lon="18.3188161"><ele>8.8</ele><time>2026-04-04T14:12:08.187Z</time></trkpt><trkpt lat="40.3529573" lon="18.3188641"><ele>9.2</ele><time>2026-04-04T14:12:09.188Z</time></trkpt><trkpt lat="40.3528897" lon="18.3189165"><ele>9.6</ele><time>2026-04-04T14:12:10.187Z</time></trkpt><trkpt lat="40.3528076" lon="18.3189874"><ele>10.0</ele><time>2026-04-04T14:12:11.186Z</time></trkpt><trkpt lat="40.3526976" lon="18.3190844"><ele>10.0</ele><time>2026-04-04T14:12:12.187Z</time></trkpt><trkpt lat="40.3525663" lon="18.319201"><ele>10.0</ele><time>2026-04-04T14:12:13.187Z</time></trkpt><trkpt lat="40.352423" lon="18.3193407"><ele>10.0</ele><time>2026-04-04T14:12:14.186Z</time></trkpt><trkpt lat="40.352269" lon="18.3195013"><ele>10.0</ele><time>2026-04-04T14:12:15.187Z</time></trkpt><trkpt lat="40.3521013" lon="18.3196735"><ele>10.0</ele><time>2026-04-04T14:12:16.187Z</time></trkpt><trkpt lat="40.3519289" lon="18.3198587"><ele>10.0</ele><time>2026-04-04T14:12:17.188Z</time></trkpt><trkpt lat="40.3517522" lon="18.3200607"><ele>10.0</ele><time>2026-04-04T14:12:18.187Z</time></trkpt><trkpt lat="40.3515654" lon="18.3202551"><ele>10.0</ele><time>2026-04-04T14:12:19.186Z</time></trkpt><trkpt lat="40.3513798" lon="18.3204608"><ele>10.5</ele><time>2026-04-04T14:12:20.187Z</time></trkpt><trkpt lat="40.3511931" lon="18.3206704"><ele>11.0</ele><time>2026-04-04T14:12:21.186Z</time></trkpt><trkpt lat="40.3510052" lon="18.320882"><ele>11.0</ele><time>2026-04-04T14:12:22.186Z</time></trkpt><trkpt lat="40.3508208" lon="18.3210999"><ele>11.0</ele><time>2026-04-04T14:12:23.187Z</time></trkpt><trkpt lat="40.3506328" lon="18.3213069"><ele>11.0</ele><time>2026-04-04T14:12:24.186Z</time></trkpt><trkpt lat="40.3504475" lon="18.3215145"><ele>11.0</ele><time>2026-04-04T14:12:25.187Z</time></trkpt><trkpt lat="40.3502552" lon="18.3217122"><ele>11.0</ele><time>2026-04-04T14:12:26.186Z</time></trkpt><trkpt lat="40.350064" lon="18.3219081"><ele>11.0</ele><time>2026-04-04T14:12:27.187Z</time></trkpt><trkpt lat="40.3498677" lon="18.3220846"><ele>10.0</ele><time>2026-04-04T14:12:28.187Z</time></trkpt><trkpt lat="40.3496695" lon="18.3222556"><ele>9.0</ele><time>2026-04-04T14:12:29.186Z</time></trkpt><trkpt lat="40.3494686" lon="18.3224109"><ele>9.0</ele><time>2026-04-04T14:12:30.188Z</time></trkpt><trkpt lat="40.3492633" lon="18.3225543"><ele>9.0</ele><time>2026-04-04T14:12:31.188Z</time></trkpt><trkpt lat="40.3490559" lon="18.3226903"><ele>9.5</ele><time>2026-04-04T14:12:32.186Z</time></trkpt><trkpt lat="40.3488505" lon="18.3228279"><ele>10.0</ele><time>2026-04-04T14:12:33.186Z</time></trkpt><trkpt lat="40.3486488" lon="18.3229652"><ele>10.0</ele><time>2026-04-04T14:12:34.188Z</time></trkpt><trkpt lat="40.3484484" lon="18.3231007"><ele>10.0</ele><time>2026-04-04T14:12:35.187Z</time></trkpt><trkpt lat="40.3482483" lon="18.3232324"><ele>10.0</ele><time>2026-04-04T14:12:36.186Z</time></trkpt><trkpt lat="40.3480479" lon="18.3233653"><ele>9.666666666666668</ele><time>2026-04-04T14:12:37.187Z</time></trkpt><trkpt lat="40.3478504" lon="18.3234946"><ele>9.333333333333334</ele><time>2026-04-04T14:12:38.187Z</time></trkpt><trkpt lat="40.3476554" lon="18.32363"><ele>9.0</ele><time>2026-04-04T14:12:39.187Z</time></trkpt><trkpt lat="40.3474601" lon="18.3237559"><ele>9.0</ele><time>2026-04-04T14:12:40.187Z</time></trkpt><trkpt lat="40.3472664" lon="18.3238787"><ele>9.0</ele><time>2026-04-04T14:12:41.187Z</time></trkpt><trkpt lat="40.3470791" lon="18.3240024"><ele>9.0</ele><time>2026-04-04T14:12:42.187Z</time></trkpt><trkpt lat="40.3468905" lon="18.3241237"><ele>9.333333333333334</ele><time>2026-04-04T14:12:43.187Z</time></trkpt><trkpt lat="40.3467079" lon="18.3242449"><ele>9.666666666666668</ele><time>2026-04-04T14:12:44.187Z</time></trkpt><trkpt lat="40.3465247" lon="18.3243654"><ele>10.0</ele><time>2026-04-04T14:12:45.188Z</time></trkpt><trkpt lat="40.346345" lon="18.3244877"><ele>10.666666666666668</ele><time>2026-04-04T14:12:46.187Z</time></trkpt><trkpt lat="40.346164" lon="18.324604"><ele>11.333333333333334</ele><time>2026-04-04T14:12:47.186Z</time></trkpt><trkpt lat="40.3459902" lon="18.3247261"><ele>12.0</ele><time>2026-04-04T14:12:48.187Z</time></trkpt><trkpt lat="40.3458157" lon="18.3248506"><ele>12.333333333333332</ele><time>2026-04-04T14:12:49.186Z</time></trkpt><trkpt lat="40.3456375" lon="18.3249758"><ele>12.666666666666666</ele><time>2026-04-04T14:12:50.186Z</time></trkpt><trkpt lat="40.345455" lon="18.3250901"><ele>13.0</ele><time>2026-04-04T14:12:51.188Z</time></trkpt><trkpt lat="40.3452725" lon="18.3252054"><ele>13.0</ele><time>2026-04-04T14:12:52.186Z</time></trkpt><trkpt lat="40.3450954" lon="18.3253281"><ele>13.0</ele><time>2026-04-04T14:12:53.186Z</time></trkpt><trkpt lat="40.3449137" lon="18.3254472"><ele>13.0</ele><time>2026-04-04T14:12:54.187Z</time></trkpt><trkpt lat="40.3447305" lon="18.3255687"><ele>13.0</ele><time>2026-04-04T14:12:55.186Z</time></trkpt><trkpt lat="40.3445445" lon="18.3256901"><ele>13.0</ele><time>2026-04-04T14:12:56.186Z</time></trkpt><trkpt lat="40.344356" lon="18.3258211"><ele>13.0</ele><time>2026-04-04T14:12:57.186Z</time></trkpt><trkpt lat="40.3441619" lon="18.325949"><ele>13.0</ele><time>2026-04-04T14:12:58.186Z</time></trkpt><trkpt lat="40.3439643" lon="18.3260784"><ele>13.0</ele><time>2026-04-04T14:12:59.186Z</time></trkpt><trkpt lat="40.3437672" lon="18.3262109"><ele>13.0</ele><time>2026-04-04T14:13:00.186Z</time></trkpt><trkpt lat="40.3435697" lon="18.3263504"><ele>13.0</ele><time>2026-04-04T14:13:01.187Z</time></trkpt><trkpt lat="40.3433725" lon="18.3264844"><ele>13.0</ele><time>2026-04-04T14:13:02.187Z</time></trkpt><trkpt lat="40.3431689" lon="18.3266221"><ele>13.0</ele><time>2026-04-04T14:13:03.186Z</time></trkpt><trkpt lat="40.3429643" lon="18.3267605"><ele>13.0</ele><time>2026-04-04T14:13:04.186Z</time></trkpt><trkpt lat="40.342754" lon="18.3268984"><ele>13.0</ele><time>2026-04-04T14:13:05.187Z</time></trkpt><trkpt lat="40.3425418" lon="18.3270407"><ele>13.0</ele><time>2026-04-04T14:13:06.188Z</time></trkpt><trkpt lat="40.3423264" lon="18.3271813"><ele>13.0</ele><time>2026-04-04T14:13:07.187Z</time></trkpt><trkpt lat="40.342106" lon="18.327322"><ele>13.0</ele><time>2026-04-04T14:13:08.186Z</time></trkpt><trkpt lat="40.3418851" lon="18.3274662"><ele>13.0</ele><time>2026-04-04T14:13:09.188Z</time></trkpt><trkpt lat="40.3416602" lon="18.327611"><ele>13.0</ele><time>2026-04-04T14:13:10.187Z</time></trkpt><trkpt lat="40.3414341" lon="18.327758"><ele>12.5</ele><time>2026-04-04T14:13:11.187Z</time></trkpt><trkpt lat="40.3412057" lon="18.3279006"><ele>12.0</ele><time>2026-04-04T14:13:12.187Z</time></trkpt><trkpt lat="40.3409742" lon="18.3280462"><ele>13.0</ele><time>2026-04-04T14:13:13.186Z</time></trkpt><trkpt lat="40.3407398" lon="18.3281947"><ele>14.0</ele><time>2026-04-04T14:13:14.187Z</time></trkpt><trkpt lat="40.3405106" lon="18.3283521"><ele>14.0</ele><time>2026-04-04T14:13:15.187Z</time></trkpt><trkpt lat="40.3402798" lon="18.3285097"><ele>14.0</ele><time>2026-04-04T14:13:16.188Z</time></trkpt><trkpt lat="40.340044" lon="18.3286659"><ele>14.0</ele><time>2026-04-04T14:13:17.186Z</time></trkpt><trkpt lat="40.3398123" lon="18.3288261"><ele>14.0</ele><time>2026-04-04T14:13:18.187Z</time></trkpt><trkpt lat="40.339578" lon="18.3289896"><ele>14.5</ele><time>2026-04-04T14:13:19.186Z</time></trkpt><trkpt lat="40.3393509" lon="18.3291621"><ele>15.0</ele><time>2026-04-04T14:13:20.187Z</time></trkpt><trkpt lat="40.3391181" lon="18.3293369"><ele>15.0</ele><time>2026-04-04T14:13:21.186Z</time></trkpt><trkpt lat="40.3388937" lon="18.3295198"><ele>15.0</ele><time>2026-04-04T14:13:22.186Z</time></trkpt><trkpt lat="40.3386668" lon="18.3296898"><ele>15.5</ele><time>2026-04-04T14:13:23.187Z</time></trkpt><trkpt lat="40.338438" lon="18.3298585"><ele>16.0</ele><time>2026-04-04T14:13:24.187Z</time></trkpt><trkpt lat="40.3382091" lon="18.3300308"><ele>16.0</ele><time>2026-04-04T14:13:25.187Z</time></trkpt><trkpt lat="40.3379856" lon="18.3302105"><ele>16.0</ele><time>2026-04-04T14:13:26.186Z</time></trkpt><trkpt lat="40.3377561" lon="18.3303799"><ele>16.0</ele><time>2026-04-04T14:13:27.187Z</time></trkpt><trkpt lat="40.337532" lon="18.3305534"><ele>16.0</ele><time>2026-04-04T14:13:28.187Z</time></trkpt><trkpt lat="40.3373072" lon="18.3307282"><ele>15.5</ele><time>2026-04-04T14:13:29.187Z</time></trkpt><trkpt lat="40.337078" lon="18.330906"><ele>15.0</ele><time>2026-04-04T14:13:30.186Z</time></trkpt><trkpt lat="40.3368523" lon="18.3310903"><ele>15.0</ele><time>2026-04-04T14:13:31.186Z</time></trkpt><trkpt lat="40.3366306" lon="18.3312733"><ele>15.0</ele><time>2026-04-04T14:13:32.186Z</time></trkpt><trkpt lat="40.3364111" lon="18.3314638"><ele>15.5</ele><time>2026-04-04T14:13:33.187Z</time></trkpt><trkpt lat="40.3361966" lon="18.3316547"><ele>16.0</ele><time>2026-04-04T14:13:34.186Z</time></trkpt><trkpt lat="40.3359792" lon="18.3318469"><ele>16.0</ele><time>2026-04-04T14:13:35.188Z</time></trkpt><trkpt lat="40.3357653" lon="18.3320437"><ele>16.0</ele><time>2026-04-04T14:13:36.186Z</time></trkpt><trkpt lat="40.3355534" lon="18.3322372"><ele>15.0</ele><time>2026-04-04T14:13:37.187Z</time></trkpt><trkpt lat="40.3353459" lon="18.3324291"><ele>14.0</ele><time>2026-04-04T14:13:38.186Z</time></trkpt><trkpt lat="40.3351427" lon="18.3326261"><ele>14.0</ele><time>2026-04-04T14:13:39.187Z</time></trkpt><trkpt lat="40.3349429" lon="18.3328188"><ele>14.0</ele><time>2026-04-04T14:13:40.188Z</time></trkpt><trkpt lat="40.3347405" lon="18.3330082"><ele>13.5</ele><time>2026-04-04T14:13:41.187Z</time></trkpt><trkpt lat="40.334536" lon="18.3331898"><ele>13.0</ele><time>2026-04-04T14:13:42.187Z</time></trkpt><trkpt lat="40.3343382" lon="18.3333725"><ele>13.0</ele><time>2026-04-04T14:13:43.187Z</time></trkpt><trkpt lat="40.3341397" lon="18.3335542"><ele>13.0</ele><time>2026-04-04T14:13:44.186Z</time></trkpt><trkpt lat="40.3339393" lon="18.3337456"><ele>13.5</ele><time>2026-04-04T14:13:45.187Z</time></trkpt><trkpt lat="40.3337348" lon="18.3339331"><ele>14.0</ele><time>2026-04-04T14:13:46.186Z</time></trkpt><trkpt lat="40.3335282" lon="18.3341254"><ele>14.0</ele><time>2026-04-04T14:13:47.187Z</time></trkpt><trkpt lat="40.3333233" lon="18.3343096"><ele>14.0</ele><time>2026-04-04T14:13:48.187Z</time></trkpt><trkpt lat="40.3331194" lon="18.334497"><ele>14.5</ele><time>2026-04-04T14:13:49.186Z</time></trkpt><trkpt lat="40.3329123" lon="18.3346744"><ele>15.0</ele><time>2026-04-04T14:13:50.187Z</time></trkpt><trkpt lat="40.3327035" lon="18.3348464"><ele>15.0</ele><time>2026-04-04T14:13:51.186Z</time></trkpt><trkpt lat="40.3324847" lon="18.3350035"><ele>15.0</ele><time>2026-04-04T14:13:52.187Z</time></trkpt><trkpt lat="40.3322641" lon="18.3351566"><ele>15.0</ele><time>2026-04-04T14:13:53.188Z</time></trkpt><trkpt lat="40.3320411" lon="18.3352979"><ele>15.0</ele><time>2026-04-04T14:13:54.187Z</time></trkpt><trkpt lat="40.3318092" lon="18.3354305"><ele>15.0</ele><time>2026-04-04T14:13:55.187Z</time></trkpt><trkpt lat="40.3315811" lon="18.3355516"><ele>15.0</ele><time>2026-04-04T14:13:56.188Z</time></trkpt><trkpt lat="40.3313446" lon="18.335665"><ele>15.5</ele><time>2026-04-04T14:13:57.187Z</time></trkpt><trkpt lat="40.3311068" lon="18.3357715"><ele>16.0</ele><time>2026-04-04T14:13:58.187Z</time></trkpt><trkpt lat="40.3308781" lon="18.335879"><ele>16.0</ele><time>2026-04-04T14:13:59.187Z</time></trkpt><trkpt lat="40.3306497" lon="18.3359844"><ele>16.0</ele><time>2026-04-04T14:14:00.188Z</time></trkpt><trkpt lat="40.3304267" lon="18.336094"><ele>17.0</ele><time>2026-04-04T14:14:01.187Z</time></trkpt><trkpt lat="40.3302051" lon="18.3361993"><ele>18.0</ele><time>2026-04-04T14:14:02.188Z</time></trkpt><trkpt lat="40.3299902" lon="18.3363033"><ele>17.666666666666668</ele><time>2026-04-04T14:14:03.186Z</time></trkpt><trkpt lat="40.3297892" lon="18.3364113"><ele>17.333333333333336</ele><time>2026-04-04T14:14:04.188Z</time></trkpt><trkpt lat="40.329603" lon="18.3365077"><ele>17.0</ele><time>2026-04-04T14:14:05.186Z</time></trkpt><trkpt lat="40.3294446" lon="18.3365838"><ele>17.5</ele><time>2026-04-04T14:14:06.188Z</time></trkpt><trkpt lat="40.3293071" lon="18.3366377"><ele>18.0</ele><time>2026-04-04T14:14:07.186Z</time></trkpt><trkpt lat="40.3291834" lon="18.336659"><ele>18.5</ele><time>2026-04-04T14:14:08.186Z</time></trkpt><trkpt lat="40.3290725" lon="18.3366513"><ele>19.0</ele><time>2026-04-04T14:14:09.187Z</time></trkpt><trkpt lat="40.3289724" lon="18.3366609"><ele>18.8</ele><time>2026-04-04T14:14:10.188Z</time></trkpt><trkpt lat="40.3288786" lon="18.3366971"><ele>18.599999999999998</ele><time>2026-04-04T14:14:11.186Z</time></trkpt><trkpt lat="40.3288132" lon="18.336774"><ele>18.4</ele><time>2026-04-04T14:14:12.186Z</time></trkpt><trkpt lat="40.328783" lon="18.3368758"><ele>18.2</ele><time>2026-04-04T14:14:13.188Z</time></trkpt><trkpt lat="40.3287843" lon="18.3369997"><ele>18.0</ele><time>2026-04-04T14:14:14.187Z</time></trkpt><trkpt lat="40.3288239" lon="18.3371254"><ele>17.75</ele><time>2026-04-04T14:14:15.187Z</time></trkpt><trkpt lat="40.32888" lon="18.3372694"><ele>17.5</ele><time>2026-04-04T14:14:16.188Z</time></trkpt><trkpt lat="40.3289302" lon="18.3374435"><ele>17.25</ele><time>2026-04-04T14:14:17.187Z</time></trkpt><trkpt lat="40.3289654" lon="18.3376465"><ele>17.0</ele><time>2026-04-04T14:14:18.186Z</time></trkpt><trkpt lat="40.3289968" lon="18.3378759"><ele>17.0</ele><time>2026-04-04T14:14:19.187Z</time></trkpt><trkpt lat="40.3290335" lon="18.3381242"><ele>17.0</ele><time>2026-04-04T14:14:20.186Z</time></trkpt><trkpt lat="40.3290765" lon="18.3383836"><ele>17.0</ele><time>2026-04-04T14:14:21.188Z</time></trkpt><trkpt lat="40.3291316" lon="18.3386585"><ele>16.0</ele><time>2026-04-04T14:14:22.187Z</time></trkpt><trkpt lat="40.3291935" lon="18.3389435"><ele>15.0</ele><time>2026-04-04T14:14:23.186Z</time></trkpt><trkpt lat="40.3292594" lon="18.3392362"><ele>15.0</ele><time>2026-04-04T14:14:24.187Z</time></trkpt><trkpt lat="40.3293297" lon="18.3395339"><ele>15.0</ele><time>2026-04-04T14:14:25.188Z</time></trkpt><trkpt lat="40.3294019" lon="18.3398345"><ele>14.5</ele><time>2026-04-04T14:14:26.186Z</time></trkpt><trkpt lat="40.3294766" lon="18.3401445"><ele>14.0</ele><time>2026-04-04T14:14:27.187Z</time></trkpt><trkpt lat="40.3295496" lon="18.3404517"><ele>13.0</ele><time>2026-04-04T14:14:28.187Z</time></trkpt><trkpt lat="40.3296178" lon="18.3407648"><ele>12.0</ele><time>2026-04-04T14:14:29.188Z</time></trkpt><trkpt lat="40.3296888" lon="18.3410741"><ele>13.0</ele><time>2026-04-04T14:14:30.187Z</time></trkpt><trkpt lat="40.3297596" lon="18.3413786"><ele>14.0</ele><time>2026-04-04T14:14:31.187Z</time></trkpt><trkpt lat="40.3298274" lon="18.3416783"><ele>14.0</ele><time>2026-04-04T14:14:32.187Z</time></trkpt><trkpt lat="40.3298963" lon="18.3419679"><ele>14.0</ele><time>2026-04-04T14:14:33.188Z</time></trkpt><trkpt lat="40.3299633" lon="18.3422503"><ele>14.0</ele><time>2026-04-04T14:14:34.186Z</time></trkpt><trkpt lat="40.3300429" lon="18.342518"><ele>14.0</ele><time>2026-04-04T14:14:35.187Z</time></trkpt><trkpt lat="40.3301435" lon="18.3427729"><ele>14.0</ele><time>2026-04-04T14:14:36.186Z</time></trkpt><trkpt lat="40.3302641" lon="18.343011"><ele>14.0</ele><time>2026-04-04T14:14:37.187Z</time></trkpt><trkpt lat="40.330408" lon="18.3432369"><ele>14.0</ele><time>2026-04-04T14:14:38.187Z</time></trkpt><trkpt lat="40.3305711" lon="18.3434467"><ele>13.5</ele><time>2026-04-04T14:14:39.186Z</time></trkpt><trkpt lat="40.3307455" lon="18.3436595"><ele>13.0</ele><time>2026-04-04T14:14:40.187Z</time></trkpt><trkpt lat="40.3309231" lon="18.3438755"><ele>13.0</ele><time>2026-04-04T14:14:41.187Z</time></trkpt><trkpt lat="40.3311036" lon="18.3440917"><ele>13.0</ele><time>2026-04-04T14:14:42.187Z</time></trkpt><trkpt lat="40.3312942" lon="18.3443098"><ele>12.0</ele><time>2026-04-04T14:14:43.186Z</time></trkpt><trkpt lat="40.3314922" lon="18.3445223"><ele>11.0</ele><time>2026-04-04T14:14:44.187Z</time></trkpt><trkpt lat="40.3316944" lon="18.3447257"><ele>10.5</ele><time>2026-04-04T14:14:45.186Z</time></trkpt><trkpt lat="40.3319131" lon="18.3449257"><ele>10.0</ele><time>2026-04-04T14:14:46.188Z</time></trkpt><trkpt lat="40.3321301" lon="18.3451182"><ele>9.5</ele><time>2026-04-04T14:14:47.187Z</time></trkpt><trkpt lat="40.3323459" lon="18.3453086"><ele>9.0</ele><time>2026-04-04T14:14:48.187Z</time></trkpt><trkpt lat="40.3325626" lon="18.3454957"><ele>9.5</ele><time>2026-04-04T14:14:49.187Z</time></trkpt><trkpt lat="40.332781" lon="18.3456943"><ele>10.0</ele><time>2026-04-04T14:14:50.186Z</time></trkpt><trkpt lat="40.3330006" lon="18.3458917"><ele>9.5</ele><time>2026-04-04T14:14:51.188Z</time></trkpt><trkpt lat="40.3332198" lon="18.3460823"><ele>9.0</ele><time>2026-04-04T14:14:52.186Z</time></trkpt><trkpt lat="40.3334413" lon="18.3462753"><ele>9.0</ele><time>2026-04-04T14:14:53.188Z</time></trkpt><trkpt lat="40.3336625" lon="18.3464697"><ele>9.0</ele><time>2026-04-04T14:14:54.186Z</time></trkpt><trkpt lat="40.3338802" lon="18.3466668"><ele>7.5</ele><time>2026-04-04T14:14:55.188Z</time></trkpt><trkpt lat="40.3340853" lon="18.3468776"><ele>6.0</ele><time>2026-04-04T14:14:56.186Z</time></trkpt><trkpt lat="40.3342832" lon="18.3471031"><ele>7.0</ele><time>2026-04-04T14:14:57.186Z</time></trkpt><trkpt lat="40.3344615" lon="18.3473519"><ele>8.0</ele><time>2026-04-04T14:14:58.186Z</time></trkpt><trkpt lat="40.3346386" lon="18.3476022"><ele>7.0</ele><time>2026-04-04T14:14:59.187Z</time></trkpt><trkpt lat="40.3348179" lon="18.3478496"><ele>6.0</ele><time>2026-04-04T14:15:00.186Z</time></trkpt><trkpt lat="40.3349951" lon="18.3481048"><ele>6.0</ele><time>2026-04-04T14:15:01.187Z</time></trkpt><trkpt lat="40.3351707" lon="18.3483614"><ele>6.0</ele><time>2026-04-04T14:15:02.188Z</time></trkpt><trkpt lat="40.3353446" lon="18.3486172"><ele>6.5</ele><time>2026-04-04T14:15:03.187Z</time></trkpt><trkpt lat="40.3355091" lon="18.3488884"><ele>7.0</ele><time>2026-04-04T14:15:04.186Z</time></trkpt><trkpt lat="40.3356731" lon="18.3491637"><ele>6.0</ele><time>2026-04-04T14:15:05.186Z</time></trkpt><trkpt lat="40.3358316" lon="18.3494418"><ele>5.0</ele><time>2026-04-04T14:15:06.188Z</time></trkpt><trkpt lat="40.3359909" lon="18.3497239"><ele>5.0</ele><time>2026-04-04T14:15:07.186Z</time></trkpt><trkpt lat="40.3361531" lon="18.3500069"><ele>5.0</ele><time>2026-04-04T14:15:08.187Z</time></trkpt><trkpt lat="40.3363169" lon="18.3502881"><ele>2.5</ele><time>2026-04-04T14:15:09.186Z</time></trkpt><trkpt lat="40.3364802" lon="18.3505716"><ele>0.0</ele><time>2026-04-04T14:15:10.187Z</time></trkpt><trkpt lat="40.3366421" lon="18.3508551"><ele>0.0</ele><time>2026-04-04T14:15:11.186Z</time></trkpt><trkpt lat="40.3368065" lon="18.3511428"><ele>0.0</ele><time>2026-04-04T14:15:12.187Z</time></trkpt><trkpt lat="40.3369737" lon="18.3514296"><ele>0.0</ele><time>2026-04-04T14:15:13.187Z</time></trkpt><trkpt lat="40.3371365" lon="18.3517117"><ele>0.0</ele><time>2026-04-04T14:15:14.187Z</time></trkpt><trkpt lat="40.3372981" lon="18.3519951"><ele>-0.5</ele><time>2026-04-04T14:15:15.186Z</time></trkpt><trkpt lat="40.3374588" lon="18.3522759"><ele>-1.0</ele><time>2026-04-04T14:15:16.188Z</time></trkpt><trkpt lat="40.3376175" lon="18.3525585"><ele>-1.0</ele><time>2026-04-04T14:15:17.187Z</time></trkpt><trkpt lat="40.3377747" lon="18.3528323"><ele>-1.0</ele><time>2026-04-04T14:15:18.186Z</time></trkpt><trkpt lat="40.337925" lon="18.3530989"><ele>-0.5</ele><time>2026-04-04T14:15:19.187Z</time></trkpt><trkpt lat="40.3380714" lon="18.3533518"><ele>0.0</ele><time>2026-04-04T14:15:20.188Z</time></trkpt><trkpt lat="40.3382064" lon="18.3535936"><ele>0.0</ele><time>2026-04-04T14:15:21.186Z</time></trkpt><trkpt lat="40.338337" lon="18.3538175"><ele>0.0</ele><time>2026-04-04T14:15:22.187Z</time></trkpt><trkpt lat="40.3384557" lon="18.3540308"><ele>0.0</ele><time>2026-04-04T14:15:23.187Z</time></trkpt><trkpt lat="40.338569" lon="18.3542283"><ele>0.3333333333333333</ele><time>2026-04-04T14:15:24.186Z</time></trkpt><trkpt lat="40.338676" lon="18.3544204"><ele>0.6666666666666666</ele><time>2026-04-04T14:15:25.187Z</time></trkpt><trkpt lat="40.3387735" lon="18.3546132"><ele>1.0</ele><time>2026-04-04T14:15:26.187Z</time></trkpt><trkpt lat="40.3388547" lon="18.3548202"><ele>1.0</ele><time>2026-04-04T14:15:27.187Z</time></trkpt><trkpt lat="40.3389098" lon="18.3550334"><ele>1.0</ele><time>2026-04-04T14:15:28.186Z</time></trkpt><trkpt lat="40.3389394" lon="18.3552643"><ele>1.0</ele><time>2026-04-04T14:15:29.187Z</time></trkpt><trkpt lat="40.3389444" lon="18.3555003"><ele>1.0</ele><time>2026-04-04T14:15:30.187Z</time></trkpt><trkpt lat="40.3389191" lon="18.3557418"><ele>1.0</ele><time>2026-04-04T14:15:31.187Z</time></trkpt><trkpt lat="40.3388689" lon="18.3559836"><ele>1.0</ele><time>2026-04-04T14:15:32.187Z</time></trkpt><trkpt lat="40.3387888" lon="18.3562181"><ele>0.6666666666666666</ele><time>2026-04-04T14:15:33.186Z</time></trkpt><trkpt lat="40.3386939" lon="18.3564548"><ele>0.3333333333333333</ele><time>2026-04-04T14:15:34.187Z</time></trkpt><trkpt lat="40.3385955" lon="18.3566878"><ele>0.0</ele><time>2026-04-04T14:15:35.186Z</time></trkpt><trkpt lat="40.3384872" lon="18.3569274"><ele>0.0</ele><time>2026-04-04T14:15:36.187Z</time></trkpt><trkpt lat="40.3383798" lon="18.3571701"><ele>0.0</ele><time>2026-04-04T14:15:37.187Z</time></trkpt><trkpt lat="40.3382673" lon="18.3574221"><ele>0.0</ele><time>2026-04-04T14:15:38.186Z</time></trkpt><trkpt lat="40.338152" lon="18.3576845"><ele>0.0</ele><time>2026-04-04T14:15:39.187Z</time></trkpt><trkpt lat="40.3380313" lon="18.3579569"><ele>0.0</ele><time>2026-04-04T14:15:40.187Z</time></trkpt><trkpt lat="40.3379057" lon="18.3582501"><ele>-0.5</ele><time>2026-04-04T14:15:41.187Z</time></trkpt><trkpt lat="40.3377692" lon="18.3585537"><ele>-1.0</ele><time>2026-04-04T14:15:42.187Z</time></trkpt><trkpt lat="40.3376327" lon="18.3588635"><ele>-1.0</ele><time>2026-04-04T14:15:43.186Z</time></trkpt><trkpt lat="40.3374891" lon="18.3591884"><ele>-1.0</ele><time>2026-04-04T14:15:44.186Z</time></trkpt><trkpt lat="40.3373557" lon="18.35953"><ele>-0.5</ele><time>2026-04-04T14:15:45.186Z</time></trkpt><trkpt lat="40.3372382" lon="18.3598925"><ele>0.0</ele><time>2026-04-04T14:15:46.187Z</time></trkpt><trkpt lat="40.3371406" lon="18.3602677"><ele>0.5</ele><time>2026-04-04T14:15:47.187Z</time></trkpt><trkpt lat="40.3370405" lon="18.3606445"><ele>1.0</ele><time>2026-04-04T14:15:48.186Z</time></trkpt><trkpt lat="40.3369402" lon="18.3610156"><ele>0.5</ele><time>2026-04-04T14:15:49.186Z</time></trkpt><trkpt lat="40.3368428" lon="18.3613812"><ele>0.0</ele><time>2026-04-04T14:15:50.188Z</time></trkpt><trkpt lat="40.3367487" lon="18.3617386"><ele>0.0</ele><time>2026-04-04T14:15:51.187Z</time></trkpt><trkpt lat="40.3366535" lon="18.3620961"><ele>0.0</ele><time>2026-04-04T14:15:52.187Z</time></trkpt><trkpt lat="40.3365609" lon="18.3624407"><ele>0.0</ele><time>2026-04-04T14:15:53.186Z</time></trkpt><trkpt lat="40.33647" lon="18.3627896"><ele>0.0</ele><time>2026-04-04T14:15:54.187Z</time></trkpt><trkpt lat="40.3363821" lon="18.3631365"><ele>-0.5</ele><time>2026-04-04T14:15:55.187Z</time></trkpt><trkpt lat="40.3362955" lon="18.3634809"><ele>-1.0</ele><time>2026-04-04T14:15:56.188Z</time></trkpt><trkpt lat="40.3362044" lon="18.3638258"><ele>0.0</ele><time>2026-04-04T14:15:57.187Z</time></trkpt><trkpt lat="40.3361133" lon="18.364169"><ele>1.0</ele><time>2026-04-04T14:15:58.188Z</time></trkpt><trkpt lat="40.3360245" lon="18.3645096"><ele>3.0</ele><time>2026-04-04T14:15:59.187Z</time></trkpt><trkpt lat="40.3359372" lon="18.3648504"><ele>5.0</ele><time>2026-04-04T14:16:00.186Z</time></trkpt><trkpt lat="40.3358501" lon="18.3651857"><ele>5.0</ele><time>2026-04-04T14:16:01.186Z</time></trkpt><trkpt lat="40.3357685" lon="18.365509"><ele>5.0</ele><time>2026-04-04T14:16:02.187Z</time></trkpt><trkpt lat="40.3356881" lon="18.3658127"><ele>5.5</ele><time>2026-04-04T14:16:03.187Z</time></trkpt><trkpt lat="40.3356116" lon="18.3661027"><ele>6.0</ele><time>2026-04-04T14:16:04.187Z</time></trkpt><trkpt lat="40.3355381" lon="18.3663947"><ele>6.0</ele><time>2026-04-04T14:16:05.187Z</time></trkpt><trkpt lat="40.335468" lon="18.3666847"><ele>6.0</ele><time>2026-04-04T14:16:06.188Z</time></trkpt><trkpt lat="40.3353965" lon="18.3669637"><ele>4.666666666666667</ele><time>2026-04-04T14:16:07.186Z</time></trkpt><trkpt lat="40.3353271" lon="18.3672317"><ele>3.333333333333333</ele><time>2026-04-04T14:16:08.187Z</time></trkpt><trkpt lat="40.3352467" lon="18.3674883"><ele>2.0</ele><time>2026-04-04T14:16:09.188Z</time></trkpt><trkpt lat="40.3351577" lon="18.3677391"><ele>2.0</ele><time>2026-04-04T14:16:10.188Z</time></trkpt><trkpt lat="40.3350556" lon="18.367978"><ele>2.0</ele><time>2026-04-04T14:16:11.186Z</time></trkpt><trkpt lat="40.3349392" lon="18.3682095"><ele>2.0</ele><time>2026-04-04T14:16:12.187Z</time></trkpt><trkpt lat="40.3348156" lon="18.3684161"><ele>2.333333333333333</ele><time>2026-04-04T14:16:13.187Z</time></trkpt><trkpt lat="40.3346787" lon="18.3686143"><ele>2.6666666666666665</ele><time>2026-04-04T14:16:14.187Z</time></trkpt><trkpt lat="40.3345374" lon="18.3688056"><ele>3.0</ele><time>2026-04-04T14:16:15.186Z</time></trkpt><trkpt lat="40.3343641" lon="18.3689832"><ele>2.0</ele><time>2026-04-04T14:16:16.187Z</time></trkpt><trkpt lat="40.3341696" lon="18.3691564"><ele>1.0</ele><time>2026-04-04T14:16:17.187Z</time></trkpt><trkpt lat="40.3339587" lon="18.3693356"><ele>1.5</ele><time>2026-04-04T14:16:18.185Z</time></trkpt><trkpt lat="40.3337384" lon="18.3695154"><ele>2.0</ele><time>2026-04-04T14:16:19.186Z</time></trkpt><trkpt lat="40.3335241" lon="18.3697008"><ele>2.0</ele><time>2026-04-04T14:16:20.187Z</time></trkpt><trkpt lat="40.3333104" lon="18.3698858"><ele>2.0</ele><time>2026-04-04T14:16:21.186Z</time></trkpt><trkpt lat="40.3330957" lon="18.3700644"><ele>4.0</ele><time>2026-04-04T14:16:22.188Z</time></trkpt><trkpt lat="40.3328845" lon="18.3702484"><ele>6.0</ele><time>2026-04-04T14:16:23.186Z</time></trkpt><trkpt lat="40.3326757" lon="18.37043"><ele>4.0</ele><time>2026-04-04T14:16:24.187Z</time></trkpt><trkpt lat="40.3324711" lon="18.3705984"><ele>2.0</ele><time>2026-04-04T14:16:25.185Z</time></trkpt><trkpt lat="40.3322736" lon="18.370767"><ele>3.0</ele><time>2026-04-04T14:16:26.188Z</time></trkpt><trkpt lat="40.3320844" lon="18.3709364"><ele>4.0</ele><time>2026-04-04T14:16:27.186Z</time></trkpt><trkpt lat="40.3319004" lon="18.3711034"><ele>4.0</ele><time>2026-04-04T14:16:28.188Z</time></trkpt><trkpt lat="40.3317207" lon="18.3712645"><ele>4.0</ele><time>2026-04-04T14:16:29.187Z</time></trkpt><trkpt lat="40.3315339" lon="18.3714337"><ele>4.0</ele><time>2026-04-04T14:16:30.187Z</time></trkpt><trkpt lat="40.3313382" lon="18.3716076"><ele>2.5</ele><time>2026-04-04T14:16:31.186Z</time></trkpt><trkpt lat="40.3311317" lon="18.3717746"><ele>1.0</ele><time>2026-04-04T14:16:32.186Z</time></trkpt><trkpt lat="40.330921" lon="18.371944"><ele>1.0</ele><time>2026-04-04T14:16:33.187Z</time></trkpt><trkpt lat="40.3307044" lon="18.3721149"><ele>1.0</ele><time>2026-04-04T14:16:34.186Z</time></trkpt><trkpt lat="40.3304857" lon="18.3722946"><ele>0.0</ele><time>2026-04-04T14:16:35.187Z</time></trkpt><trkpt lat="40.330269" lon="18.3724719"><ele>-1.0</ele><time>2026-04-04T14:16:36.187Z</time></trkpt><trkpt lat="40.3300514" lon="18.3726593"><ele>-1.0</ele><time>2026-04-04T14:16:37.186Z</time></trkpt><trkpt lat="40.3298358" lon="18.3728493"><ele>-1.0</ele><time>2026-04-04T14:16:38.187Z</time></trkpt><trkpt lat="40.3296184" lon="18.3730336"><ele>-0.5</ele><time>2026-04-04T14:16:39.187Z</time></trkpt><trkpt lat="40.3294015" lon="18.373217"><ele>0.0</ele><time>2026-04-04T14:16:40.186Z</time></trkpt><trkpt lat="40.3291877" lon="18.3734026"><ele>0.0</ele><time>2026-04-04T14:16:41.186Z</time></trkpt><trkpt lat="40.3289732" lon="18.3735939"><ele>0.0</ele><time>2026-04-04T14:16:42.186Z</time></trkpt><trkpt lat="40.3287593" lon="18.3737745"><ele>1.0</ele><time>2026-04-04T14:16:43.188Z</time></trkpt><trkpt lat="40.3285424" lon="18.373955"><ele>2.0</ele><time>2026-04-04T14:16:44.186Z</time></trkpt><trkpt lat="40.3283348" lon="18.3741336"><ele>2.0</ele><time>2026-04-04T14:16:45.187Z</time></trkpt><trkpt lat="40.3281243" lon="18.3743092"><ele>2.0</ele><time>2026-04-04T14:16:46.186Z</time></trkpt><trkpt lat="40.3279164" lon="18.374491"><ele>2.5</ele><time>2026-04-04T14:16:47.187Z</time></trkpt><trkpt lat="40.3277007" lon="18.3746518"><ele>3.0</ele><time>2026-04-04T14:16:48.186Z</time></trkpt><trkpt lat="40.3274919" lon="18.3747896"><ele>3.0</ele><time>2026-04-04T14:16:49.186Z</time></trkpt><trkpt lat="40.3272887" lon="18.3749056"><ele>3.0</ele><time>2026-04-04T14:16:50.187Z</time></trkpt><trkpt lat="40.3270926" lon="18.3750155"><ele>3.0</ele><time>2026-04-04T14:16:51.187Z</time></trkpt><trkpt lat="40.3269085" lon="18.3751117"><ele>2.6666666666666665</ele><time>2026-04-04T14:16:52.188Z</time></trkpt><trkpt lat="40.3267302" lon="18.3751998"><ele>2.333333333333333</ele><time>2026-04-04T14:16:53.187Z</time></trkpt><trkpt lat="40.3265594" lon="18.375271"><ele>2.0</ele><time>2026-04-04T14:16:54.187Z</time></trkpt><trkpt lat="40.3264041" lon="18.3753442"><ele>2.333333333333333</ele><time>2026-04-04T14:16:55.187Z</time></trkpt><trkpt lat="40.326261" lon="18.3754158"><ele>2.6666666666666665</ele><time>2026-04-04T14:16:56.188Z</time></trkpt><trkpt lat="40.3261191" lon="18.3754954"><ele>3.0</ele><time>2026-04-04T14:16:57.185Z</time></trkpt><trkpt lat="40.3259745" lon="18.3755667"><ele>3.0</ele><time>2026-04-04T14:16:58.186Z</time></trkpt><trkpt lat="40.3258206" lon="18.3756292"><ele>3.0</ele><time>2026-04-04T14:16:59.187Z</time></trkpt><trkpt lat="40.3256674" lon="18.3756903"><ele>3.0</ele><time>2026-04-04T14:17:00.188Z</time></trkpt><trkpt lat="40.3255114" lon="18.3757569"><ele>3.0</ele><time>2026-04-04T14:17:01.187Z</time></trkpt><trkpt lat="40.3253566" lon="18.3758294"><ele>3.0</ele><time>2026-04-04T14:17:02.187Z</time></trkpt><trkpt lat="40.3252018" lon="18.3759094"><ele>3.0</ele><time>2026-04-04T14:17:03.186Z</time></trkpt><trkpt lat="40.3250449" lon="18.3759833"><ele>3.0</ele><time>2026-04-04T14:17:04.187Z</time></trkpt><trkpt lat="40.3248951" lon="18.3760522"><ele>3.0</ele><time>2026-04-04T14:17:05.186Z</time></trkpt><trkpt lat="40.324755" lon="18.3761165"><ele>3.0</ele><time>2026-04-04T14:17:06.188Z</time></trkpt><trkpt lat="40.3246323" lon="18.3761698"><ele>3.0</ele><time>2026-04-04T14:17:07.186Z</time></trkpt><trkpt lat="40.3245272" lon="18.3762208"><ele>3.0</ele><time>2026-04-04T14:17:08.186Z</time></trkpt><trkpt lat="40.3244347" lon="18.3762592"><ele>3.0</ele><time>2026-04-04T14:17:09.187Z</time></trkpt><trkpt lat="40.3243472" lon="18.3763084"><ele>3.0</ele><time>2026-04-04T14:17:10.187Z</time></trkpt><trkpt lat="40.3242473" lon="18.3763698"><ele>3.0</ele><time>2026-04-04T14:17:11.186Z</time></trkpt><trkpt lat="40.3241327" lon="18.3764354"><ele>3.0</ele><time>2026-04-04T14:17:12.188Z</time></trkpt><trkpt lat="40.3240074" lon="18.3764929"><ele>3.75</ele><time>2026-04-04T14:17:13.187Z</time></trkpt><trkpt lat="40.323876" lon="18.3765453"><ele>4.5</ele><time>2026-04-04T14:17:14.188Z</time></trkpt><trkpt lat="40.3237412" lon="18.3765971"><ele>5.25</ele><time>2026-04-04T14:17:15.187Z</time></trkpt><trkpt lat="40.3236077" lon="18.3766572"><ele>6.0</ele><time>2026-04-04T14:17:16.186Z</time></trkpt><trkpt lat="40.3234776" lon="18.3767372"><ele>6.0</ele><time>2026-04-04T14:17:17.187Z</time></trkpt><trkpt lat="40.3233513" lon="18.376836"><ele>6.0</ele><time>2026-04-04T14:17:18.187Z</time></trkpt><trkpt lat="40.3232259" lon="18.3769577"><ele>6.0</ele><time>2026-04-04T14:17:19.188Z</time></trkpt><trkpt lat="40.3230962" lon="18.3770807"><ele>5.333333333333333</ele><time>2026-04-04T14:17:20.186Z</time></trkpt><trkpt lat="40.3229503" lon="18.377216"><ele>4.666666666666666</ele><time>2026-04-04T14:17:21.187Z</time></trkpt><trkpt lat="40.3227879" lon="18.3773678"><ele>4.0</ele><time>2026-04-04T14:17:22.188Z</time></trkpt><trkpt lat="40.3226306" lon="18.3775188"><ele>4.0</ele><time>2026-04-04T14:17:23.187Z</time></trkpt><trkpt lat="40.3224687" lon="18.3776627"><ele>4.0</ele><time>2026-04-04T14:17:24.186Z</time></trkpt><trkpt lat="40.3223091" lon="18.3778036"><ele>4.0</ele><time>2026-04-04T14:17:25.187Z</time></trkpt><trkpt lat="40.3221585" lon="18.3779347"><ele>4.666666666666666</ele><time>2026-04-04T14:17:26.187Z</time></trkpt><trkpt lat="40.322016" lon="18.3780591"><ele>5.333333333333333</ele><time>2026-04-04T14:17:27.187Z</time></trkpt><trkpt lat="40.3218821" lon="18.3781822"><ele>6.0</ele><time>2026-04-04T14:17:28.187Z</time></trkpt><trkpt lat="40.3217613" lon="18.3783039"><ele>6.0</ele><time>2026-04-04T14:17:29.187Z</time></trkpt><trkpt lat="40.3216399" lon="18.3784272"><ele>6.0</ele><time>2026-04-04T14:17:30.186Z</time></trkpt><trkpt lat="40.3215165" lon="18.378541"><ele>6.0</ele><time>2026-04-04T14:17:31.186Z</time></trkpt><trkpt lat="40.3213953" lon="18.3786542"><ele>6.0</ele><time>2026-04-04T14:17:32.187Z</time></trkpt><trkpt lat="40.3212797" lon="18.3787629"><ele>6.0</ele><time>2026-04-04T14:17:33.187Z</time></trkpt><trkpt lat="40.3211692" lon="18.3788629"><ele>6.0</ele><time>2026-04-04T14:17:34.186Z</time></trkpt><trkpt lat="40.3210719" lon="18.3789488"><ele>6.0</ele><time>2026-04-04T14:17:35.186Z</time></trkpt><trkpt lat="40.3209866" lon="18.3790152"><ele>6.0</ele><time>2026-04-04T14:17:36.185Z</time></trkpt><trkpt lat="40.3208996" lon="18.3790932"><ele>6.0</ele><time>2026-04-04T14:17:37.188Z</time></trkpt><trkpt lat="40.3208176" lon="18.3791915"><ele>6.0</ele><time>2026-04-04T14:17:38.187Z</time></trkpt><trkpt lat="40.3207167" lon="18.3792934"><ele>6.0</ele><time>2026-04-04T14:17:39.185Z</time></trkpt><trkpt lat="40.3205988" lon="18.3793999"><ele>5.666666666666667</ele><time>2026-04-04T14:17:40.187Z</time></trkpt><trkpt lat="40.320477" lon="18.3795201"><ele>5.333333333333334</ele><time>2026-04-04T14:17:41.187Z</time></trkpt><trkpt lat="40.3203453" lon="18.3796393"><ele>5.0</ele><time>2026-04-04T14:17:42.187Z</time></trkpt><trkpt lat="40.3202065" lon="18.3797689"><ele>5.0</ele><time>2026-04-04T14:17:43.188Z</time></trkpt><trkpt lat="40.3200652" lon="18.3798962"><ele>5.0</ele><time>2026-04-04T14:17:44.185Z</time></trkpt><trkpt lat="40.3199199" lon="18.3800373"><ele>5.0</ele><time>2026-04-04T14:17:45.187Z</time></trkpt><trkpt lat="40.3197701" lon="18.380175"><ele>5.333333333333334</ele><time>2026-04-04T14:17:46.186Z</time></trkpt><trkpt lat="40.3196183" lon="18.3803249"><ele>5.666666666666667</ele><time>2026-04-04T14:17:47.186Z</time></trkpt><trkpt lat="40.3194559" lon="18.3804777"><ele>6.0</ele><time>2026-04-04T14:17:48.187Z</time></trkpt><trkpt lat="40.3192982" lon="18.3806265"><ele>5.666666666666667</ele><time>2026-04-04T14:17:49.187Z</time></trkpt><trkpt lat="40.3191382" lon="18.3807775"><ele>5.333333333333334</ele><time>2026-04-04T14:17:50.186Z</time></trkpt><trkpt lat="40.318978" lon="18.38093"><ele>5.0</ele><time>2026-04-04T14:17:51.187Z</time></trkpt><trkpt lat="40.3188147" lon="18.3810827"><ele>5.0</ele><time>2026-04-04T14:17:52.186Z</time></trkpt><trkpt lat="40.3186511" lon="18.3812401"><ele>5.0</ele><time>2026-04-04T14:17:53.186Z</time></trkpt><trkpt lat="40.318482" lon="18.3813971"><ele>5.0</ele><time>2026-04-04T14:17:54.188Z</time></trkpt><trkpt lat="40.3183138" lon="18.3815577"><ele>5.0</ele><time>2026-04-04T14:17:55.186Z</time></trkpt><trkpt lat="40.3181466" lon="18.3817118"><ele>5.0</ele><time>2026-04-04T14:17:56.187Z</time></trkpt><trkpt lat="40.3179793" lon="18.3818722"><ele>5.0</ele><time>2026-04-04T14:17:57.188Z</time></trkpt><trkpt lat="40.3178141" lon="18.3820355"><ele>4.0</ele><time>2026-04-04T14:17:58.187Z</time></trkpt><trkpt lat="40.3176389" lon="18.3821976"><ele>3.0</ele><time>2026-04-04T14:17:59.187Z</time></trkpt><trkpt lat="40.3174711" lon="18.3823642"><ele>2.0</ele><time>2026-04-04T14:18:00.188Z</time></trkpt><trkpt lat="40.3172982" lon="18.3825263"><ele>3.0</ele><time>2026-04-04T14:18:01.186Z</time></trkpt><trkpt lat="40.317129" lon="18.3826929"><ele>4.0</ele><time>2026-04-04T14:18:02.187Z</time></trkpt><trkpt lat="40.3169583" lon="18.3828592"><ele>5.0</ele><time>2026-04-04T14:18:03.187Z</time></trkpt><trkpt lat="40.3167811" lon="18.3830226"><ele>5.333333333333334</ele><time>2026-04-04T14:18:04.187Z</time></trkpt><trkpt lat="40.316604" lon="18.3831796"><ele>5.666666666666667</ele><time>2026-04-04T14:18:05.187Z</time></trkpt><trkpt lat="40.3164333" lon="18.3833441"><ele>6.0</ele><time>2026-04-04T14:18:06.187Z</time></trkpt><trkpt lat="40.3162575" lon="18.3835101"><ele>6.0</ele><time>2026-04-04T14:18:07.187Z</time></trkpt><trkpt lat="40.3160844" lon="18.3836767"><ele>6.0</ele><time>2026-04-04T14:18:08.187Z</time></trkpt><trkpt lat="40.3159128" lon="18.3838413"><ele>6.0</ele><time>2026-04-04T14:18:09.186Z</time></trkpt><trkpt lat="40.3157379" lon="18.3840087"><ele>6.333333333333334</ele><time>2026-04-04T14:18:10.186Z</time></trkpt><trkpt lat="40.3155585" lon="18.3841772"><ele>6.666666666666667</ele><time>2026-04-04T14:18:11.188Z</time></trkpt><trkpt lat="40.3153808" lon="18.3843515"><ele>7.0</ele><time>2026-04-04T14:18:12.187Z</time></trkpt><trkpt lat="40.3151987" lon="18.3845195"><ele>6.333333333333334</ele><time>2026-04-04T14:18:13.188Z</time></trkpt><trkpt lat="40.3150192" lon="18.3846876"><ele>5.666666666666667</ele><time>2026-04-04T14:18:14.187Z</time></trkpt><trkpt lat="40.3148377" lon="18.3848556"><ele>5.0</ele><time>2026-04-04T14:18:15.185Z</time></trkpt><trkpt lat="40.314655" lon="18.3850258"><ele>5.0</ele><time>2026-04-04T14:18:16.187Z</time></trkpt><trkpt lat="40.314474" lon="18.3851987"><ele>5.0</ele><time>2026-04-04T14:18:17.186Z</time></trkpt><trkpt lat="40.3142939" lon="18.3853715"><ele>5.0</ele><time>2026-04-04T14:18:18.186Z</time></trkpt><trkpt lat="40.3141153" lon="18.3855418"><ele>4.333333333333334</ele><time>2026-04-04T14:18:19.187Z</time></trkpt><trkpt lat="40.3139405" lon="18.3857178"><ele>3.666666666666667</ele><time>2026-04-04T14:18:20.186Z</time></trkpt><trkpt lat="40.3137746" lon="18.3859071"><ele>3.0</ele><time>2026-04-04T14:18:21.187Z</time></trkpt><trkpt lat="40.3136168" lon="18.3861143"><ele>3.0</ele><time>2026-04-04T14:18:22.188Z</time></trkpt><trkpt lat="40.31347" lon="18.3863261"><ele>3.0</ele><time>2026-04-04T14:18:23.187Z</time></trkpt><trkpt lat="40.313328" lon="18.3865499"><ele>3.0</ele><time>2026-04-04T14:18:24.186Z</time></trkpt><trkpt lat="40.3131956" lon="18.3867798"><ele>4.333333333333334</ele><time>2026-04-04T14:18:25.188Z</time></trkpt><trkpt lat="40.3130609" lon="18.3870094"><ele>5.666666666666667</ele><time>2026-04-04T14:18:26.186Z</time></trkpt><trkpt lat="40.3129268" lon="18.3872381"><ele>7.0</ele><time>2026-04-04T14:18:27.186Z</time></trkpt><trkpt lat="40.3127914" lon="18.3874643"><ele>7.0</ele><time>2026-04-04T14:18:28.187Z</time></trkpt><trkpt lat="40.3126525" lon="18.3876919"><ele>7.0</ele><time>2026-04-04T14:18:29.188Z</time></trkpt><trkpt lat="40.3125109" lon="18.3879184"><ele>7.0</ele><time>2026-04-04T14:18:30.186Z</time></trkpt><trkpt lat="40.312376" lon="18.3881534"><ele>5.5</ele><time>2026-04-04T14:18:31.187Z</time></trkpt><trkpt lat="40.312233" lon="18.3883864"><ele>4.0</ele><time>2026-04-04T14:18:32.186Z</time></trkpt><trkpt lat="40.3120884" lon="18.3886215"><ele>4.0</ele><time>2026-04-04T14:18:33.187Z</time></trkpt><trkpt lat="40.3119432" lon="18.3888574"><ele>4.0</ele><time>2026-04-04T14:18:34.186Z</time></trkpt><trkpt lat="40.3117987" lon="18.3891008"><ele>4.0</ele><time>2026-04-04T14:18:35.186Z</time></trkpt><trkpt lat="40.3116613" lon="18.3893451"><ele>4.0</ele><time>2026-04-04T14:18:36.186Z</time></trkpt><trkpt lat="40.3115227" lon="18.389574"><ele>3.6666666666666665</ele><time>2026-04-04T14:18:37.188Z</time></trkpt><trkpt lat="40.3113903" lon="18.3897959"><ele>3.333333333333333</ele><time>2026-04-04T14:18:38.186Z</time></trkpt><trkpt lat="40.3112568" lon="18.3900034"><ele>3.0</ele><time>2026-04-04T14:18:39.186Z</time></trkpt><trkpt lat="40.3111311" lon="18.3902031"><ele>3.0</ele><time>2026-04-04T14:18:40.187Z</time></trkpt><trkpt lat="40.3110091" lon="18.3903962"><ele>3.0</ele><time>2026-04-04T14:18:41.187Z</time></trkpt><trkpt lat="40.3108962" lon="18.390581"><ele>3.0</ele><time>2026-04-04T14:18:42.187Z</time></trkpt><trkpt lat="40.3107922" lon="18.3907551"><ele>3.25</ele><time>2026-04-04T14:18:43.187Z</time></trkpt><trkpt lat="40.3106882" lon="18.3909212"><ele>3.5</ele><time>2026-04-04T14:18:44.186Z</time></trkpt><trkpt lat="40.3105934" lon="18.3910667"><ele>3.75</ele><time>2026-04-04T14:18:45.187Z</time></trkpt><trkpt lat="40.3105081" lon="18.391198"><ele>4.0</ele><time>2026-04-04T14:18:46.187Z</time></trkpt><trkpt lat="40.3104343" lon="18.3913345"><ele>3.75</ele><time>2026-04-04T14:18:47.186Z</time></trkpt><trkpt lat="40.3103628" lon="18.3914686"><ele>3.5</ele><time>2026-04-04T14:18:48.187Z</time></trkpt><trkpt lat="40.3102755" lon="18.3916132"><ele>3.25</ele><time>2026-04-04T14:18:49.186Z</time></trkpt><trkpt lat="40.310191" lon="18.3917683"><ele>3.0</ele><time>2026-04-04T14:18:50.188Z</time></trkpt><trkpt lat="40.3100844" lon="18.3919448"><ele>3.0</ele><time>2026-04-04T14:18:51.186Z</time></trkpt><trkpt lat="40.3099711" lon="18.3921276"><ele>3.0</ele><time>2026-04-04T14:18:52.187Z</time></trkpt><trkpt lat="40.3098541" lon="18.3923216"><ele>3.0</ele><time>2026-04-04T14:18:53.186Z</time></trkpt><trkpt lat="40.3097328" lon="18.3925247"><ele>3.0</ele><time>2026-04-04T14:18:54.186Z</time></trkpt><trkpt lat="40.3096074" lon="18.3927352"><ele>3.0</ele><time>2026-04-04T14:18:55.187Z</time></trkpt><trkpt lat="40.3094759" lon="18.3929518"><ele>3.0</ele><time>2026-04-04T14:18:56.186Z</time></trkpt><trkpt lat="40.3093427" lon="18.393182"><ele>3.0</ele><time>2026-04-04T14:18:57.187Z</time></trkpt><trkpt lat="40.3092151" lon="18.3934251"><ele>3.0</ele><time>2026-04-04T14:18:58.186Z</time></trkpt><trkpt lat="40.3090742" lon="18.3936607"><ele>3.0</ele><time>2026-04-04T14:18:59.187Z</time></trkpt><trkpt lat="40.308933" lon="18.3938905"><ele>3.0</ele><time>2026-04-04T14:19:00.188Z</time></trkpt><trkpt lat="40.3087879" lon="18.3941215"><ele>3.0</ele><time>2026-04-04T14:19:01.186Z</time></trkpt><trkpt lat="40.3086464" lon="18.3943492"><ele>3.0</ele><time>2026-04-04T14:19:02.186Z</time></trkpt><trkpt lat="40.3085049" lon="18.3945735"><ele>3.0</ele><time>2026-04-04T14:19:03.186Z</time></trkpt><trkpt lat="40.3083757" lon="18.3947955"><ele>3.0</ele><time>2026-04-04T14:19:04.186Z</time></trkpt><trkpt lat="40.3082464" lon="18.3950091"><ele>3.0</ele><time>2026-04-04T14:19:05.186Z</time></trkpt><trkpt lat="40.3081329" lon="18.3952087"><ele>3.0</ele><time>2026-04-04T14:19:06.187Z</time></trkpt><trkpt lat="40.3080265" lon="18.3953938"><ele>2.75</ele><time>2026-04-04T14:19:07.186Z</time></trkpt><trkpt lat="40.307933" lon="18.3955528"><ele>2.5</ele><time>2026-04-04T14:19:08.186Z</time></trkpt><trkpt lat="40.3078472" lon="18.3956916"><ele>2.25</ele><time>2026-04-04T14:19:09.188Z</time></trkpt><trkpt lat="40.3077711" lon="18.3958192"><ele>2.0</ele><time>2026-04-04T14:19:10.187Z</time></trkpt><trkpt lat="40.3077052" lon="18.3959276"><ele>1.9999999999999998</ele><time>2026-04-04T14:19:11.186Z</time></trkpt><trkpt lat="40.3076528" lon="18.3960243"><ele>2.0</ele><time>2026-04-04T14:19:12.187Z</time></trkpt><trkpt lat="40.3076035" lon="18.3961079"><ele>2.0</ele><time>2026-04-04T14:19:13.187Z</time></trkpt><trkpt lat="40.3075614" lon="18.3961755"><ele>2.0</ele><time>2026-04-04T14:19:14.187Z</time></trkpt><trkpt lat="40.3074936" lon="18.3962696"><ele>1.9999999999999998</ele><time>2026-04-04T14:19:16.187Z</time></trkpt><trkpt lat="40.3074531" lon="18.3963407"><ele>2.0</ele><time>2026-04-04T14:19:18.187Z</time></trkpt><trkpt lat="40.3074128" lon="18.3964281"><ele>2.0</ele><time>2026-04-04T14:19:20.187Z</time></trkpt><trkpt lat="40.3073176" lon="18.3965569"><ele>2.0</ele><time>2026-04-04T14:19:22.188Z</time></trkpt><trkpt lat="40.3072451" lon="18.3966329"><ele>2.0</ele><time>2026-04-04T14:19:23.186Z</time></trkpt><trkpt lat="40.3071587" lon="18.3967333"><ele>2.0</ele><time>2026-04-04T14:19:24.187Z</time></trkpt><trkpt lat="40.3070636" lon="18.3968468"><ele>2.5</ele><time>2026-04-04T14:19:25.187Z</time></trkpt><trkpt lat="40.3069637" lon="18.3969635"><ele>3.0</ele><time>2026-04-04T14:19:26.186Z</time></trkpt><trkpt lat="40.306859" lon="18.3970832"><ele>3.5</ele><time>2026-04-04T14:19:27.187Z</time></trkpt><trkpt lat="40.3067509" lon="18.3971992"><ele>4.0</ele><time>2026-04-04T14:19:28.188Z</time></trkpt><trkpt lat="40.3066383" lon="18.3973144"><ele>4.0</ele><time>2026-04-04T14:19:29.186Z</time></trkpt><trkpt lat="40.3065217" lon="18.3974307"><ele>4.0</ele><time>2026-04-04T14:19:30.186Z</time></trkpt><trkpt lat="40.3064049" lon="18.3975479"><ele>4.0</ele><time>2026-04-04T14:19:31.186Z</time></trkpt><trkpt lat="40.3062852" lon="18.3976634"><ele>4.0</ele><time>2026-04-04T14:19:32.187Z</time></trkpt><trkpt lat="40.3061664" lon="18.3977936"><ele>4.0</ele><time>2026-04-04T14:19:33.187Z</time></trkpt><trkpt lat="40.3060425" lon="18.3979268"><ele>4.0</ele><time>2026-04-04T14:19:34.185Z</time></trkpt><trkpt lat="40.3059173" lon="18.3980564"><ele>4.0</ele><time>2026-04-04T14:19:35.187Z</time></trkpt><trkpt lat="40.3057916" lon="18.3981883"><ele>4.0</ele><time>2026-04-04T14:19:36.186Z</time></trkpt><trkpt lat="40.3056677" lon="18.3983191"><ele>4.0</ele><time>2026-04-04T14:19:37.188Z</time></trkpt><trkpt lat="40.3055391" lon="18.3984511"><ele>4.0</ele><time>2026-04-04T14:19:38.187Z</time></trkpt><trkpt lat="40.3054101" lon="18.3985858"><ele>4.333333333333333</ele><time>2026-04-04T14:19:39.186Z</time></trkpt><trkpt lat="40.3052786" lon="18.3987219"><ele>4.666666666666667</ele><time>2026-04-04T14:19:40.187Z</time></trkpt><trkpt lat="40.305149" lon="18.3988629"><ele>5.0</ele><time>2026-04-04T14:19:41.187Z</time></trkpt><trkpt lat="40.3050212" lon="18.3990109"><ele>5.0</ele><time>2026-04-04T14:19:42.188Z</time></trkpt><trkpt lat="40.304892" lon="18.3991658"><ele>5.0</ele><time>2026-04-04T14:19:43.185Z</time></trkpt><trkpt lat="40.3047638" lon="18.3993241"><ele>5.0</ele><time>2026-04-04T14:19:44.185Z</time></trkpt><trkpt lat="40.3046364" lon="18.399481"><ele>5.333333333333334</ele><time>2026-04-04T14:19:45.186Z</time></trkpt><trkpt lat="40.3045108" lon="18.3996384"><ele>5.666666666666667</ele><time>2026-04-04T14:19:46.187Z</time></trkpt><trkpt lat="40.3043865" lon="18.3997955"><ele>6.0</ele><time>2026-04-04T14:19:47.188Z</time></trkpt><trkpt lat="40.3042636" lon="18.3999479"><ele>6.666666666666666</ele><time>2026-04-04T14:19:48.187Z</time></trkpt><trkpt lat="40.3041453" lon="18.400103"><ele>7.333333333333333</ele><time>2026-04-04T14:19:49.188Z</time></trkpt><trkpt lat="40.3040304" lon="18.4002539"><ele>8.0</ele><time>2026-04-04T14:19:50.186Z</time></trkpt><trkpt lat="40.3039144" lon="18.4003977"><ele>8.333333333333332</ele><time>2026-04-04T14:19:51.187Z</time></trkpt><trkpt lat="40.303809" lon="18.4005613"><ele>8.666666666666666</ele><time>2026-04-04T14:19:52.185Z</time></trkpt><trkpt lat="40.3037028" lon="18.4007152"><ele>9.0</ele><time>2026-04-04T14:19:53.186Z</time></trkpt><trkpt lat="40.3035998" lon="18.4008803"><ele>9.0</ele><time>2026-04-04T14:19:54.187Z</time></trkpt><trkpt lat="40.3035081" lon="18.4010485"><ele>9.0</ele><time>2026-04-04T14:19:55.187Z</time></trkpt><trkpt lat="40.3034181" lon="18.4012282"><ele>9.0</ele><time>2026-04-04T14:19:56.186Z</time></trkpt><trkpt lat="40.3033499" lon="18.4014171"><ele>8.333333333333334</ele><time>2026-04-04T14:19:57.187Z</time></trkpt><trkpt lat="40.303288" lon="18.4016156"><ele>7.666666666666667</ele><time>2026-04-04T14:19:58.187Z</time></trkpt><trkpt lat="40.3032295" lon="18.4018182"><ele>7.0</ele><time>2026-04-04T14:19:59.186Z</time></trkpt><trkpt lat="40.3031731" lon="18.4020265"><ele>7.333333333333334</ele><time>2026-04-04T14:20:00.187Z</time></trkpt><trkpt lat="40.3031282" lon="18.4022307"><ele>7.666666666666666</ele><time>2026-04-04T14:20:01.186Z</time></trkpt><trkpt lat="40.3030699" lon="18.4024213"><ele>8.0</ele><time>2026-04-04T14:20:02.186Z</time></trkpt><trkpt lat="40.3030086" lon="18.402595"><ele>8.0</ele><time>2026-04-04T14:20:03.187Z</time></trkpt><trkpt lat="40.3029471" lon="18.402761"><ele>8.0</ele><time>2026-04-04T14:20:04.188Z</time></trkpt><trkpt lat="40.3028956" lon="18.4029288"><ele>8.0</ele><time>2026-04-04T14:20:05.187Z</time></trkpt><trkpt lat="40.3028618" lon="18.4031008"><ele>8.0</ele><time>2026-04-04T14:20:06.187Z</time></trkpt><trkpt lat="40.3028262" lon="18.4032795"><ele>7.5</ele><time>2026-04-04T14:20:07.186Z</time></trkpt><trkpt lat="40.3028046" lon="18.4034638"><ele>7.0</ele><time>2026-04-04T14:20:08.188Z</time></trkpt><trkpt lat="40.3027927" lon="18.403648"><ele>6.5</ele><time>2026-04-04T14:20:09.187Z</time></trkpt><trkpt lat="40.3027714" lon="18.4038328"><ele>6.0</ele><time>2026-04-04T14:20:10.185Z</time></trkpt><trkpt lat="40.3027357" lon="18.4040079"><ele>5.5</ele><time>2026-04-04T14:20:11.186Z</time></trkpt><trkpt lat="40.302686" lon="18.4041549"><ele>5.0</ele><time>2026-04-04T14:20:12.187Z</time></trkpt><trkpt lat="40.3026133" lon="18.4042761"><ele>4.5</ele><time>2026-04-04T14:20:13.186Z</time></trkpt><trkpt lat="40.3025237" lon="18.4043819"><ele>4.0</ele><time>2026-04-04T14:20:14.188Z</time></trkpt><trkpt lat="40.3024119" lon="18.4044489"><ele>4.0</ele><time>2026-04-04T14:20:15.187Z</time></trkpt><trkpt lat="40.3022923" lon="18.4045198"><ele>4.0</ele><time>2026-04-04T14:20:16.188Z</time></trkpt><trkpt lat="40.3021742" lon="18.4045883"><ele>4.0</ele><time>2026-04-04T14:20:17.187Z</time></trkpt><trkpt lat="40.3020614" lon="18.4046747"><ele>4.0</ele><time>2026-04-04T14:20:18.187Z</time></trkpt><trkpt lat="40.3019505" lon="18.4047721"><ele>4.0</ele><time>2026-04-04T14:20:19.188Z</time></trkpt><trkpt lat="40.3018455" lon="18.4048694"><ele>4.0</ele><time>2026-04-04T14:20:20.187Z</time></trkpt><trkpt lat="40.3017384" lon="18.4049428"><ele>4.0</ele><time>2026-04-04T14:20:21.188Z</time></trkpt><trkpt lat="40.3016341" lon="18.4050225"><ele>4.0</ele><time>2026-04-04T14:20:22.187Z</time></trkpt><trkpt lat="40.3015458" lon="18.4050879"><ele>3.9999999999999996</ele><time>2026-04-04T14:20:23.186Z</time></trkpt><trkpt lat="40.3014868" lon="18.4051428"><ele>4.0</ele><time>2026-04-04T14:20:24.188Z</time></trkpt><trkpt lat="40.3014285" lon="18.4051991"><ele>4.0</ele><time>2026-04-04T14:20:25.187Z</time></trkpt><trkpt lat="40.301347" lon="18.4052774"><ele>4.0</ele><time>2026-04-04T14:20:27.188Z</time></trkpt><trkpt lat="40.3012851" lon="18.4053445"><ele>3.9999999999999996</ele><time>2026-04-04T14:20:29.185Z</time></trkpt><trkpt lat="40.301199" lon="18.4054445"><ele>4.0</ele><time>2026-04-04T14:20:31.188Z</time></trkpt><trkpt lat="40.3011518" lon="18.4055062"><ele>3.833333333333333</ele><time>2026-04-04T14:20:32.187Z</time></trkpt><trkpt lat="40.3010949" lon="18.4055711"><ele>3.6666666666666665</ele><time>2026-04-04T14:20:33.186Z</time></trkpt><trkpt lat="40.3010296" lon="18.4056493"><ele>3.5</ele><time>2026-04-04T14:20:34.188Z</time></trkpt><trkpt lat="40.3009653" lon="18.4057211"><ele>3.333333333333333</ele><time>2026-04-04T14:20:35.186Z</time></trkpt><trkpt lat="40.300893" lon="18.4058059"><ele>3.1666666666666665</ele><time>2026-04-04T14:20:36.186Z</time></trkpt><trkpt lat="40.3008283" lon="18.4058725"><ele>3.0</ele><time>2026-04-04T14:20:37.187Z</time></trkpt><trkpt lat="40.3007756" lon="18.4059253"><ele>3.0</ele><time>2026-04-04T14:20:38.187Z</time></trkpt><trkpt lat="40.3007108" lon="18.4059806"><ele>3.0</ele><time>2026-04-04T14:20:39.188Z</time></trkpt><trkpt lat="40.3006478" lon="18.4060537"><ele>3.0</ele><time>2026-04-04T14:20:40.186Z</time></trkpt><trkpt lat="40.3005717" lon="18.406125"><ele>3.0</ele><time>2026-04-04T14:20:41.187Z</time></trkpt><trkpt lat="40.3005012" lon="18.4062098"><ele>3.0</ele><time>2026-04-04T14:20:42.186Z</time></trkpt><trkpt lat="40.3004285" lon="18.4062979"><ele>3.0</ele><time>2026-04-04T14:20:43.187Z</time></trkpt><trkpt lat="40.3003371" lon="18.406393"><ele>3.0</ele><time>2026-04-04T14:20:44.186Z</time></trkpt><trkpt lat="40.3002503" lon="18.4064967"><ele>3.0</ele><time>2026-04-04T14:20:45.186Z</time></trkpt><trkpt lat="40.3001599" lon="18.4066026"><ele>3.0</ele><time>2026-04-04T14:20:46.187Z</time></trkpt><trkpt lat="40.3000671" lon="18.4067079"><ele>3.0</ele><time>2026-04-04T14:20:47.187Z</time></trkpt><trkpt lat="40.2999718" lon="18.4068196"><ele>3.0</ele><time>2026-04-04T14:20:48.186Z</time></trkpt><trkpt lat="40.2998749" lon="18.4069323"><ele>3.0</ele><time>2026-04-04T14:20:49.186Z</time></trkpt><trkpt lat="40.2997714" lon="18.4070482"><ele>3.0</ele><time>2026-04-04T14:20:50.186Z</time></trkpt><trkpt lat="40.2996748" lon="18.4071757"><ele>3.25</ele><time>2026-04-04T14:20:51.187Z</time></trkpt><trkpt lat="40.2995717" lon="18.4072952"><ele>3.5</ele><time>2026-04-04T14:20:52.185Z</time></trkpt><trkpt lat="40.2994694" lon="18.407411"><ele>3.75</ele><time>2026-04-04T14:20:53.187Z</time></trkpt><trkpt lat="40.2993686" lon="18.4075246"><ele>4.0</ele><time>2026-04-04T14:20:54.187Z</time></trkpt><trkpt lat="40.299266" lon="18.4076367"><ele>4.0</ele><time>2026-04-04T14:20:55.187Z</time></trkpt><trkpt lat="40.2991642" lon="18.4077444"><ele>4.0</ele><time>2026-04-04T14:20:56.186Z</time></trkpt><trkpt lat="40.2990703" lon="18.4078603"><ele>4.0</ele><time>2026-04-04T14:20:57.187Z</time></trkpt><trkpt lat="40.2989664" lon="18.4079687"><ele>4.0</ele><time>2026-04-04T14:20:58.186Z</time></trkpt><trkpt lat="40.2988614" lon="18.4080787"><ele>4.0</ele><time>2026-04-04T14:20:59.187Z</time></trkpt><trkpt lat="40.2987562" lon="18.4082007"><ele>4.0</ele><time>2026-04-04T14:21:00.186Z</time></trkpt><trkpt lat="40.2986586" lon="18.4083234"><ele>4.0</ele><time>2026-04-04T14:21:01.186Z</time></trkpt><trkpt lat="40.2985472" lon="18.4084435"><ele>4.0</ele><time>2026-04-04T14:21:02.187Z</time></trkpt><trkpt lat="40.2984375" lon="18.4085669"><ele>4.0</ele><time>2026-04-04T14:21:03.186Z</time></trkpt><trkpt lat="40.2983302" lon="18.4086938"><ele>4.0</ele><time>2026-04-04T14:21:04.188Z</time></trkpt><trkpt lat="40.2982192" lon="18.408821"><ele>4.0</ele><time>2026-04-04T14:21:05.187Z</time></trkpt><trkpt lat="40.2981069" lon="18.4089465"><ele>4.0</ele><time>2026-04-04T14:21:06.185Z</time></trkpt><trkpt lat="40.2979898" lon="18.4090704"><ele>4.25</ele><time>2026-04-04T14:21:07.187Z</time></trkpt><trkpt lat="40.2978833" lon="18.4092007"><ele>4.5</ele><time>2026-04-04T14:21:08.188Z</time></trkpt><trkpt lat="40.2977753" lon="18.4093327"><ele>4.75</ele><time>2026-04-04T14:21:09.188Z</time></trkpt><trkpt lat="40.2976656" lon="18.4094615"><ele>5.0</ele><time>2026-04-04T14:21:10.186Z</time></trkpt><trkpt lat="40.2975484" lon="18.4095937"><ele>4.333333333333334</ele><time>2026-04-04T14:21:11.186Z</time></trkpt><trkpt lat="40.2974333" lon="18.4097295"><ele>3.666666666666667</ele><time>2026-04-04T14:21:12.188Z</time></trkpt><trkpt lat="40.2973161" lon="18.4098689"><ele>3.0</ele><time>2026-04-04T14:21:13.187Z</time></trkpt><trkpt lat="40.297211" lon="18.4100227"><ele>3.666666666666667</ele><time>2026-04-04T14:21:14.186Z</time></trkpt><trkpt lat="40.2971101" lon="18.410191"><ele>4.333333333333334</ele><time>2026-04-04T14:21:15.187Z</time></trkpt><trkpt lat="40.2970226" lon="18.4103703"><ele>5.0</ele><time>2026-04-04T14:21:16.187Z</time></trkpt><trkpt lat="40.2969465" lon="18.4105687"><ele>5.0</ele><time>2026-04-04T14:21:17.187Z</time></trkpt><trkpt lat="40.2968737" lon="18.4107721"><ele>5.0</ele><time>2026-04-04T14:21:18.187Z</time></trkpt><trkpt lat="40.2968313" lon="18.4110239"><ele>5.0</ele><time>2026-04-04T14:21:19.185Z</time></trkpt><trkpt lat="40.2967922" lon="18.4112774"><ele>4.0</ele><time>2026-04-04T14:21:20.186Z</time></trkpt><trkpt lat="40.2967536" lon="18.4115514"><ele>3.0</ele><time>2026-04-04T14:21:21.186Z</time></trkpt><trkpt lat="40.296707" lon="18.4118195"><ele>2.0</ele><time>2026-04-04T14:21:22.188Z</time></trkpt><trkpt lat="40.2966522" lon="18.4120926"><ele>2.0</ele><time>2026-04-04T14:21:23.187Z</time></trkpt><trkpt lat="40.2965994" lon="18.4123683"><ele>2.0</ele><time>2026-04-04T14:21:24.186Z</time></trkpt><trkpt lat="40.2965516" lon="18.4126429"><ele>2.0</ele><time>2026-04-04T14:21:25.187Z</time></trkpt><trkpt lat="40.2965039" lon="18.4129133"><ele>2.0</ele><time>2026-04-04T14:21:26.186Z</time></trkpt><trkpt lat="40.2964619" lon="18.4131792"><ele>2.0</ele><time>2026-04-04T14:21:27.188Z</time></trkpt><trkpt lat="40.2964226" lon="18.4134449"><ele>2.0</ele><time>2026-04-04T14:21:28.188Z</time></trkpt><trkpt lat="40.2963734" lon="18.4136997"><ele>1.6666666666666665</ele><time>2026-04-04T14:21:29.187Z</time></trkpt><trkpt lat="40.2963134" lon="18.4139558"><ele>1.3333333333333333</ele><time>2026-04-04T14:21:30.186Z</time></trkpt><trkpt lat="40.2962419" lon="18.4141976"><ele>1.0</ele><time>2026-04-04T14:21:31.187Z</time></trkpt><trkpt lat="40.2961544" lon="18.4144332"><ele>0.3333333333333333</ele><time>2026-04-04T14:21:32.186Z</time></trkpt><trkpt lat="40.2960559" lon="18.4146573"><ele>-0.3333333333333333</ele><time>2026-04-04T14:21:33.187Z</time></trkpt><trkpt lat="40.2959641" lon="18.4148722"><ele>-1.0</ele><time>2026-04-04T14:21:34.187Z</time></trkpt><trkpt lat="40.2958732" lon="18.4150759"><ele>-1.0</ele><time>2026-04-04T14:21:35.187Z</time></trkpt><trkpt lat="40.2957837" lon="18.4152697"><ele>-1.0</ele><time>2026-04-04T14:21:36.187Z</time></trkpt><trkpt lat="40.2957076" lon="18.4154521"><ele>-1.0</ele><time>2026-04-04T14:21:37.187Z</time></trkpt><trkpt lat="40.2956255" lon="18.4156251"><ele>-0.75</ele><time>2026-04-04T14:21:38.187Z</time></trkpt><trkpt lat="40.2955645" lon="18.4157695"><ele>-0.5</ele><time>2026-04-04T14:21:39.186Z</time></trkpt><trkpt lat="40.2955064" lon="18.4159063"><ele>-0.25</ele><time>2026-04-04T14:21:40.186Z</time></trkpt><trkpt lat="40.2954537" lon="18.4160395"><ele>0.0</ele><time>2026-04-04T14:21:41.188Z</time></trkpt><trkpt lat="40.2953948" lon="18.4161775"><ele>0.0</ele><time>2026-04-04T14:21:42.187Z</time></trkpt><trkpt lat="40.2953305" lon="18.4163353"><ele>0.0</ele><time>2026-04-04T14:21:43.188Z</time></trkpt><trkpt lat="40.2952636" lon="18.4165008"><ele>0.0</ele><time>2026-04-04T14:21:44.188Z</time></trkpt><trkpt lat="40.2951917" lon="18.416677"><ele>0.0</ele><time>2026-04-04T14:21:45.186Z</time></trkpt><trkpt lat="40.2951138" lon="18.4168525"><ele>0.0</ele><time>2026-04-04T14:21:46.187Z</time></trkpt><trkpt lat="40.2950337" lon="18.4170307"><ele>0.0</ele><time>2026-04-04T14:21:47.188Z</time></trkpt><trkpt lat="40.2949593" lon="18.417212"><ele>0.0</ele><time>2026-04-04T14:21:48.188Z</time></trkpt><trkpt lat="40.2948783" lon="18.4173952"><ele>-0.3333333333333333</ele><time>2026-04-04T14:21:49.186Z</time></trkpt><trkpt lat="40.2947993" lon="18.4175867"><ele>-0.6666666666666666</ele><time>2026-04-04T14:21:50.187Z</time></trkpt><trkpt lat="40.2947166" lon="18.4177759"><ele>-1.0</ele><time>2026-04-04T14:21:51.188Z</time></trkpt><trkpt lat="40.2946329" lon="18.4179672"><ele>-0.3333333333333333</ele><time>2026-04-04T14:21:52.186Z</time></trkpt><trkpt lat="40.2945497" lon="18.4181599"><ele>0.3333333333333333</ele><time>2026-04-04T14:21:53.187Z</time></trkpt><trkpt lat="40.2944605" lon="18.41835"><ele>1.0</ele><time>2026-04-04T14:21:54.187Z</time></trkpt><trkpt lat="40.2943704" lon="18.4185379"><ele>1.0</ele><time>2026-04-04T14:21:55.187Z</time></trkpt><trkpt lat="40.2942792" lon="18.4187302"><ele>1.0</ele><time>2026-04-04T14:21:56.188Z</time></trkpt><trkpt lat="40.2941899" lon="18.4189214"><ele>1.0</ele><time>2026-04-04T14:21:57.188Z</time></trkpt><trkpt lat="40.2941023" lon="18.4191104"><ele>1.3333333333333333</ele><time>2026-04-04T14:21:58.186Z</time></trkpt><trkpt lat="40.2940148" lon="18.419299"><ele>1.6666666666666665</ele><time>2026-04-04T14:21:59.186Z</time></trkpt><trkpt lat="40.2939312" lon="18.4194862"><ele>2.0</ele><time>2026-04-04T14:22:00.187Z</time></trkpt><trkpt lat="40.2938488" lon="18.4196703"><ele>2.0</ele><time>2026-04-04T14:22:01.187Z</time></trkpt><trkpt lat="40.2937648" lon="18.4198503"><ele>2.0</ele><time>2026-04-04T14:22:02.187Z</time></trkpt><trkpt lat="40.2936888" lon="18.4200406"><ele>2.0</ele><time>2026-04-04T14:22:03.186Z</time></trkpt><trkpt lat="40.2936132" lon="18.4202145"><ele>2.0</ele><time>2026-04-04T14:22:04.187Z</time></trkpt><trkpt lat="40.2935357" lon="18.4203763"><ele>2.0</ele><time>2026-04-04T14:22:05.187Z</time></trkpt><trkpt lat="40.2934622" lon="18.4205186"><ele>2.0</ele><time>2026-04-04T14:22:06.186Z</time></trkpt><trkpt lat="40.293402" lon="18.4206349"><ele>2.0</ele><time>2026-04-04T14:22:07.186Z</time></trkpt><trkpt lat="40.2933596" lon="18.4207336"><ele>2.1666666666666665</ele><time>2026-04-04T14:22:08.187Z</time></trkpt><trkpt lat="40.2933132" lon="18.4208319"><ele>2.333333333333333</ele><time>2026-04-04T14:22:09.188Z</time></trkpt><trkpt lat="40.2932665" lon="18.420924"><ele>2.5</ele><time>2026-04-04T14:22:10.188Z</time></trkpt><trkpt lat="40.293224" lon="18.4210073"><ele>2.6666666666666665</ele><time>2026-04-04T14:22:11.186Z</time></trkpt><trkpt lat="40.293187" lon="18.421091"><ele>2.8333333333333335</ele><time>2026-04-04T14:22:12.186Z</time></trkpt><trkpt lat="40.2931254" lon="18.4211858"><ele>3.0</ele><time>2026-04-04T14:22:14.187Z</time></trkpt><trkpt lat="40.2930851" lon="18.4212506"><ele>3.5</ele><time>2026-04-04T14:22:16.186Z</time></trkpt><trkpt lat="40.293042" lon="18.4213162"><ele>4.0</ele><time>2026-04-04T14:22:20.186Z</time></trkpt><trkpt lat="40.2930001" lon="18.4213819"><ele>4.5</ele><time>2026-04-04T14:22:39.188Z</time></trkpt><trkpt lat="40.2929035" lon="18.4215109"><ele>5.0</ele><time>2026-04-04T14:22:41.187Z</time></trkpt><trkpt lat="40.2928452" lon="18.4215857"><ele>5.5</ele><time>2026-04-04T14:22:42.187Z</time></trkpt><trkpt lat="40.2927781" lon="18.421672"><ele>6.0</ele><time>2026-04-04T14:22:43.185Z</time></trkpt><trkpt lat="40.2927022" lon="18.4217649"><ele>6.0</ele><time>2026-04-04T14:22:44.186Z</time></trkpt><trkpt lat="40.292626" lon="18.4218582"><ele>6.0</ele><time>2026-04-04T14:22:45.187Z</time></trkpt><trkpt lat="40.2925489" lon="18.4219568"><ele>6.0</ele><time>2026-04-04T14:22:46.187Z</time></trkpt><trkpt lat="40.292468" lon="18.42205"><ele>6.0</ele><time>2026-04-04T14:22:47.186Z</time></trkpt><trkpt lat="40.2923903" lon="18.4221301"><ele>6.0</ele><time>2026-04-04T14:22:48.186Z</time></trkpt><trkpt lat="40.2923023" lon="18.4222079"><ele>6.0</ele><time>2026-04-04T14:22:49.187Z</time></trkpt><trkpt lat="40.2922098" lon="18.4222881"><ele>6.0</ele><time>2026-04-04T14:22:50.186Z</time></trkpt><trkpt lat="40.2920996" lon="18.4223669"><ele>6.0</ele><time>2026-04-04T14:22:51.187Z</time></trkpt><trkpt lat="40.2920001" lon="18.4224424"><ele>6.0</ele><time>2026-04-04T14:22:52.186Z</time></trkpt><trkpt lat="40.2918869" lon="18.4225122"><ele>6.0</ele><time>2026-04-04T14:22:53.187Z</time></trkpt><trkpt lat="40.291768" lon="18.422577"><ele>6.0</ele><time>2026-04-04T14:22:54.187Z</time></trkpt><trkpt lat="40.2916509" lon="18.4226448"><ele>6.0</ele><time>2026-04-04T14:22:55.187Z</time></trkpt><trkpt lat="40.2915231" lon="18.4226987"><ele>6.0</ele><time>2026-04-04T14:22:56.187Z</time></trkpt><trkpt lat="40.2913968" lon="18.4227499"><ele>5.75</ele><time>2026-04-04T14:22:57.188Z</time></trkpt><trkpt lat="40.2912698" lon="18.4228025"><ele>5.5</ele><time>2026-04-04T14:22:58.188Z</time></trkpt><trkpt lat="40.2911343" lon="18.4228477"><ele>5.25</ele><time>2026-04-04T14:22:59.187Z</time></trkpt><trkpt lat="40.2910098" lon="18.4229006"><ele>5.0</ele><time>2026-04-04T14:23:00.187Z</time></trkpt><trkpt lat="40.2908816" lon="18.422965"><ele>5.0</ele><time>2026-04-04T14:23:01.187Z</time></trkpt><trkpt lat="40.2907525" lon="18.4230143"><ele>5.0</ele><time>2026-04-04T14:23:02.187Z</time></trkpt><trkpt lat="40.2906212" lon="18.4230632"><ele>5.0</ele><time>2026-04-04T14:23:03.186Z</time></trkpt><trkpt lat="40.290499" lon="18.4231195"><ele>5.0</ele><time>2026-04-04T14:23:04.187Z</time></trkpt><trkpt lat="40.2903698" lon="18.423175"><ele>5.25</ele><time>2026-04-04T14:23:05.187Z</time></trkpt><trkpt lat="40.2902422" lon="18.4232286"><ele>5.5</ele><time>2026-04-04T14:23:06.187Z</time></trkpt><trkpt lat="40.2901198" lon="18.4232844"><ele>5.75</ele><time>2026-04-04T14:23:07.188Z</time></trkpt><trkpt lat="40.2899826" lon="18.4233377"><ele>6.0</ele><time>2026-04-04T14:23:08.188Z</time></trkpt><trkpt lat="40.2898508" lon="18.423392"><ele>6.0</ele><time>2026-04-04T14:23:09.187Z</time></trkpt><trkpt lat="40.2897176" lon="18.4234559"><ele>6.0</ele><time>2026-04-04T14:23:10.186Z</time></trkpt><trkpt lat="40.2895848" lon="18.4235129"><ele>6.0</ele><time>2026-04-04T14:23:11.187Z</time></trkpt><trkpt lat="40.2894529" lon="18.4235736"><ele>6.0</ele><time>2026-04-04T14:23:12.187Z</time></trkpt><trkpt lat="40.2893193" lon="18.4236304"><ele>6.0</ele><time>2026-04-04T14:23:13.185Z</time></trkpt><trkpt lat="40.2891838" lon="18.4237028"><ele>6.0</ele><time>2026-04-04T14:23:14.187Z</time></trkpt><trkpt lat="40.2890449" lon="18.4237706"><ele>6.0</ele><time>2026-04-04T14:23:15.187Z</time></trkpt><trkpt lat="40.2889134" lon="18.4238508"><ele>6.0</ele><time>2026-04-04T14:23:16.187Z</time></trkpt><trkpt lat="40.2887738" lon="18.4239344"><ele>5.333333333333333</ele><time>2026-04-04T14:23:17.188Z</time></trkpt><trkpt lat="40.2886351" lon="18.4240236"><ele>4.666666666666666</ele><time>2026-04-04T14:23:18.186Z</time></trkpt><trkpt lat="40.2885013" lon="18.4241117"><ele>4.0</ele><time>2026-04-04T14:23:19.186Z</time></trkpt><trkpt lat="40.2883586" lon="18.4241972"><ele>4.0</ele><time>2026-04-04T14:23:20.187Z</time></trkpt><trkpt lat="40.2882191" lon="18.4242873"><ele>4.0</ele><time>2026-04-04T14:23:21.186Z</time></trkpt><trkpt lat="40.2880789" lon="18.4243742"><ele>4.0</ele><time>2026-04-04T14:23:22.186Z</time></trkpt><trkpt lat="40.287936" lon="18.424467"><ele>4.333333333333333</ele><time>2026-04-04T14:23:23.187Z</time></trkpt><trkpt lat="40.2877927" lon="18.4245665"><ele>4.666666666666667</ele><time>2026-04-04T14:23:24.187Z</time></trkpt><trkpt lat="40.2876559" lon="18.4246808"><ele>5.0</ele><time>2026-04-04T14:23:25.187Z</time></trkpt><trkpt lat="40.2875416" lon="18.4248273"><ele>5.0</ele><time>2026-04-04T14:23:26.187Z</time></trkpt><trkpt lat="40.2874265" lon="18.4249725"><ele>5.0</ele><time>2026-04-04T14:23:27.186Z</time></trkpt><trkpt lat="40.2873324" lon="18.4251272"><ele>5.0</ele><time>2026-04-04T14:23:28.185Z</time></trkpt><trkpt lat="40.2872378" lon="18.4252786"><ele>5.5</ele><time>2026-04-04T14:23:29.187Z</time></trkpt><trkpt lat="40.2871425" lon="18.4254274"><ele>6.0</ele><time>2026-04-04T14:23:30.186Z</time></trkpt><trkpt lat="40.2870475" lon="18.4255753"><ele>6.5</ele><time>2026-04-04T14:23:31.186Z</time></trkpt><trkpt lat="40.2869568" lon="18.4257027"><ele>7.0</ele><time>2026-04-04T14:23:32.186Z</time></trkpt><trkpt lat="40.2868604" lon="18.4258201"><ele>7.0</ele><time>2026-04-04T14:23:33.186Z</time></trkpt><trkpt lat="40.2867543" lon="18.4259241"><ele>7.0</ele><time>2026-04-04T14:23:34.187Z</time></trkpt><trkpt lat="40.2866384" lon="18.4260152"><ele>7.0</ele><time>2026-04-04T14:23:35.187Z</time></trkpt><trkpt lat="40.2865219" lon="18.4261113"><ele>7.0</ele><time>2026-04-04T14:23:36.187Z</time></trkpt><trkpt lat="40.2864072" lon="18.4262077"><ele>7.5</ele><time>2026-04-04T14:23:37.188Z</time></trkpt><trkpt lat="40.2862916" lon="18.4263035"><ele>8.0</ele><time>2026-04-04T14:23:38.188Z</time></trkpt><trkpt lat="40.2861816" lon="18.4263885"><ele>8.5</ele><time>2026-04-04T14:23:39.187Z</time></trkpt><trkpt lat="40.28609" lon="18.4264404"><ele>9.0</ele><time>2026-04-04T14:23:40.186Z</time></trkpt><trkpt lat="40.2860051" lon="18.4264673"><ele>9.2</ele><time>2026-04-04T14:23:41.187Z</time></trkpt><trkpt lat="40.2859197" lon="18.4264747"><ele>9.4</ele><time>2026-04-04T14:23:42.187Z</time></trkpt><trkpt lat="40.2858345" lon="18.4264878"><ele>9.6</ele><time>2026-04-04T14:23:43.187Z</time></trkpt><trkpt lat="40.2857388" lon="18.4264847"><ele>9.8</ele><time>2026-04-04T14:23:44.188Z</time></trkpt><trkpt lat="40.2856453" lon="18.4264728"><ele>10.0</ele><time>2026-04-04T14:23:45.186Z</time></trkpt><trkpt lat="40.2855405" lon="18.4264637"><ele>10.0</ele><time>2026-04-04T14:23:46.186Z</time></trkpt><trkpt lat="40.2854313" lon="18.4264932"><ele>10.0</ele><time>2026-04-04T14:23:47.186Z</time></trkpt><trkpt lat="40.2853257" lon="18.4265578"><ele>10.0</ele><time>2026-04-04T14:23:48.187Z</time></trkpt><trkpt lat="40.2852309" lon="18.4266715"><ele>10.0</ele><time>2026-04-04T14:23:49.186Z</time></trkpt><trkpt lat="40.2851532" lon="18.4268123"><ele>10.0</ele><time>2026-04-04T14:23:50.185Z</time></trkpt><trkpt lat="40.2850801" lon="18.4269543"><ele>10.0</ele><time>2026-04-04T14:23:51.187Z</time></trkpt><trkpt lat="40.2850251" lon="18.4271006"><ele>10.0</ele><time>2026-04-04T14:23:52.187Z</time></trkpt><trkpt lat="40.2849785" lon="18.4272318"><ele>10.0</ele><time>2026-04-04T14:23:53.187Z</time></trkpt><trkpt lat="40.2849275" lon="18.4273642"><ele>10.0</ele><time>2026-04-04T14:23:54.188Z</time></trkpt><trkpt lat="40.2848664" lon="18.427499"><ele>10.0</ele><time>2026-04-04T14:23:55.186Z</time></trkpt><trkpt lat="40.2848053" lon="18.4276429"><ele>10.0</ele><time>2026-04-04T14:23:56.186Z</time></trkpt><trkpt lat="40.2847313" lon="18.4278"><ele>10.0</ele><time>2026-04-04T14:23:57.187Z</time></trkpt><trkpt lat="40.2846612" lon="18.4279683"><ele>10.0</ele><time>2026-04-04T14:23:58.187Z</time></trkpt><trkpt lat="40.2845856" lon="18.4281453"><ele>10.0</ele><time>2026-04-04T14:23:59.187Z</time></trkpt><trkpt lat="40.2845134" lon="18.4283353"><ele>10.0</ele><time>2026-04-04T14:24:00.187Z</time></trkpt><trkpt lat="40.2844212" lon="18.4285266"><ele>10.0</ele><time>2026-04-04T14:24:01.186Z</time></trkpt><trkpt lat="40.2843269" lon="18.4287348"><ele>10.0</ele><time>2026-04-04T14:24:02.186Z</time></trkpt><trkpt lat="40.28424" lon="18.4289447"><ele>10.0</ele><time>2026-04-04T14:24:03.187Z</time></trkpt><trkpt lat="40.2841558" lon="18.4291617"><ele>10.333333333333334</ele><time>2026-04-04T14:24:04.187Z</time></trkpt><trkpt lat="40.2840636" lon="18.4293758"><ele>10.666666666666666</ele><time>2026-04-04T14:24:05.186Z</time></trkpt><trkpt lat="40.2839699" lon="18.4295941"><ele>11.0</ele><time>2026-04-04T14:24:06.186Z</time></trkpt><trkpt lat="40.2838811" lon="18.4298127"><ele>11.333333333333332</ele><time>2026-04-04T14:24:07.186Z</time></trkpt><trkpt lat="40.2837921" lon="18.4300294"><ele>11.666666666666666</ele><time>2026-04-04T14:24:08.187Z</time></trkpt><trkpt lat="40.2836974" lon="18.4302535"><ele>12.0</ele><time>2026-04-04T14:24:09.188Z</time></trkpt><trkpt lat="40.2835835" lon="18.4304585"><ele>11.333333333333334</ele><time>2026-04-04T14:24:10.187Z</time></trkpt><trkpt lat="40.283457" lon="18.430649"><ele>10.666666666666668</ele><time>2026-04-04T14:24:11.187Z</time></trkpt><trkpt lat="40.2833153" lon="18.4308107"><ele>10.0</ele><time>2026-04-04T14:24:12.187Z</time></trkpt><trkpt lat="40.2831346" lon="18.430935"><ele>10.666666666666668</ele><time>2026-04-04T14:24:13.187Z</time></trkpt><trkpt lat="40.2829585" lon="18.4310299"><ele>11.333333333333334</ele><time>2026-04-04T14:24:14.187Z</time></trkpt><trkpt lat="40.282778" lon="18.4310957"><ele>12.0</ele><time>2026-04-04T14:24:15.186Z</time></trkpt><trkpt lat="40.2825891" lon="18.4311318"><ele>12.0</ele><time>2026-04-04T14:24:16.185Z</time></trkpt><trkpt lat="40.2824025" lon="18.431156"><ele>12.0</ele><time>2026-04-04T14:24:17.187Z</time></trkpt><trkpt lat="40.2822089" lon="18.4311639"><ele>12.0</ele><time>2026-04-04T14:24:18.187Z</time></trkpt><trkpt lat="40.2820148" lon="18.4311758"><ele>12.666666666666668</ele><time>2026-04-04T14:24:19.188Z</time></trkpt><trkpt lat="40.2818141" lon="18.4311839"><ele>13.333333333333334</ele><time>2026-04-04T14:24:20.185Z</time></trkpt><trkpt lat="40.2816211" lon="18.4311934"><ele>14.0</ele><time>2026-04-04T14:24:21.187Z</time></trkpt><trkpt lat="40.2814269" lon="18.4312066"><ele>14.0</ele><time>2026-04-04T14:24:22.186Z</time></trkpt><trkpt lat="40.2812325" lon="18.4312232"><ele>14.0</ele><time>2026-04-04T14:24:23.188Z</time></trkpt><trkpt lat="40.2810392" lon="18.4312409"><ele>14.0</ele><time>2026-04-04T14:24:24.185Z</time></trkpt><trkpt lat="40.2808475" lon="18.4312519"><ele>14.0</ele><time>2026-04-04T14:24:25.187Z</time></trkpt><trkpt lat="40.2806592" lon="18.4312565"><ele>14.0</ele><time>2026-04-04T14:24:26.187Z</time></trkpt><trkpt lat="40.2804764" lon="18.4312728"><ele>14.0</ele><time>2026-04-04T14:24:27.185Z</time></trkpt><trkpt lat="40.2802944" lon="18.4312885"><ele>14.0</ele><time>2026-04-04T14:24:28.186Z</time></trkpt><trkpt lat="40.2801174" lon="18.4313046"><ele>14.0</ele><time>2026-04-04T14:24:29.187Z</time></trkpt><trkpt lat="40.2799508" lon="18.431322"><ele>14.0</ele><time>2026-04-04T14:24:30.188Z</time></trkpt><trkpt lat="40.2797917" lon="18.4313307"><ele>13.75</ele><time>2026-04-04T14:24:31.186Z</time></trkpt><trkpt lat="40.2796369" lon="18.4313216"><ele>13.5</ele><time>2026-04-04T14:24:32.186Z</time></trkpt><trkpt lat="40.2794948" lon="18.4312952"><ele>13.25</ele><time>2026-04-04T14:24:33.187Z</time></trkpt><trkpt lat="40.2793625" lon="18.4312583"><ele>13.0</ele><time>2026-04-04T14:24:34.186Z</time></trkpt><trkpt lat="40.279235" lon="18.4312054"><ele>13.0</ele><time>2026-04-04T14:24:35.187Z</time></trkpt><trkpt lat="40.2790997" lon="18.4311395"><ele>13.0</ele><time>2026-04-04T14:24:36.185Z</time></trkpt><trkpt lat="40.2789617" lon="18.4310621"><ele>13.0</ele><time>2026-04-04T14:24:37.186Z</time></trkpt><trkpt lat="40.2788206" lon="18.4309615"><ele>13.0</ele><time>2026-04-04T14:24:38.186Z</time></trkpt><trkpt lat="40.2786846" lon="18.4308457"><ele>13.0</ele><time>2026-04-04T14:24:39.187Z</time></trkpt><trkpt lat="40.2785557" lon="18.430717"><ele>13.0</ele><time>2026-04-04T14:24:40.186Z</time></trkpt><trkpt lat="40.2784192" lon="18.4305897"><ele>14.0</ele><time>2026-04-04T14:24:41.188Z</time></trkpt><trkpt lat="40.2782907" lon="18.4304553"><ele>15.0</ele><time>2026-04-04T14:24:42.186Z</time></trkpt><trkpt lat="40.2781684" lon="18.4303253"><ele>16.0</ele><time>2026-04-04T14:24:43.185Z</time></trkpt><trkpt lat="40.2780445" lon="18.4302046"><ele>14.5</ele><time>2026-04-04T14:24:44.187Z</time></trkpt><trkpt lat="40.2779254" lon="18.4300791"><ele>13.0</ele><time>2026-04-04T14:24:45.186Z</time></trkpt><trkpt lat="40.2778141" lon="18.4299672"><ele>11.5</ele><time>2026-04-04T14:24:46.187Z</time></trkpt><trkpt lat="40.2777048" lon="18.429859"><ele>10.0</ele><time>2026-04-04T14:24:47.187Z</time></trkpt><trkpt lat="40.277602" lon="18.4297593"><ele>10.0</ele><time>2026-04-04T14:24:48.188Z</time></trkpt><trkpt lat="40.2775106" lon="18.4296705"><ele>10.0</ele><time>2026-04-04T14:24:49.187Z</time></trkpt><trkpt lat="40.2774266" lon="18.4295857"><ele>10.0</ele><time>2026-04-04T14:24:50.186Z</time></trkpt><trkpt lat="40.2773485" lon="18.4295054"><ele>10.0</ele><time>2026-04-04T14:24:51.188Z</time></trkpt><trkpt lat="40.2772771" lon="18.4294283"><ele>10.0</ele><time>2026-04-04T14:24:52.187Z</time></trkpt><trkpt lat="40.2772075" lon="18.4293579"><ele>10.6</ele><time>2026-04-04T14:24:53.188Z</time></trkpt><trkpt lat="40.2771355" lon="18.429293"><ele>11.2</ele><time>2026-04-04T14:24:54.185Z</time></trkpt><trkpt lat="40.2770586" lon="18.4292209"><ele>11.8</ele><time>2026-04-04T14:24:55.188Z</time></trkpt><trkpt lat="40.2769768" lon="18.4291516"><ele>12.4</ele><time>2026-04-04T14:24:56.186Z</time></trkpt><trkpt lat="40.2768955" lon="18.4290904"><ele>13.0</ele><time>2026-04-04T14:24:57.187Z</time></trkpt><trkpt lat="40.2768118" lon="18.429035"><ele>13.0</ele><time>2026-04-04T14:24:58.187Z</time></trkpt><trkpt lat="40.276725" lon="18.4289913"><ele>13.0</ele><time>2026-04-04T14:24:59.187Z</time></trkpt><trkpt lat="40.2766381" lon="18.4289444"><ele>13.0</ele><time>2026-04-04T14:25:00.187Z</time></trkpt><trkpt lat="40.2765458" lon="18.4289104"><ele>13.0</ele><time>2026-04-04T14:25:01.186Z</time></trkpt><trkpt lat="40.2764532" lon="18.4288825"><ele>13.0</ele><time>2026-04-04T14:25:02.187Z</time></trkpt><trkpt lat="40.2763541" lon="18.428855"><ele>13.8</ele><time>2026-04-04T14:25:03.188Z</time></trkpt><trkpt lat="40.2762526" lon="18.4288374"><ele>14.600000000000001</ele><time>2026-04-04T14:25:04.187Z</time></trkpt><trkpt lat="40.2761472" lon="18.4288216"><ele>15.399999999999999</ele><time>2026-04-04T14:25:05.187Z</time></trkpt><trkpt lat="40.2760406" lon="18.428805"><ele>16.2</ele><time>2026-04-04T14:25:06.188Z</time></trkpt><trkpt lat="40.2759287" lon="18.4287873"><ele>17.0</ele><time>2026-04-04T14:25:07.188Z</time></trkpt><trkpt lat="40.2758171" lon="18.4287583"><ele>17.0</ele><time>2026-04-04T14:25:08.187Z</time></trkpt><trkpt lat="40.2757086" lon="18.4287425"><ele>17.0</ele><time>2026-04-04T14:25:09.186Z</time></trkpt><trkpt lat="40.2756036" lon="18.428711"><ele>17.0</ele><time>2026-04-04T14:25:10.186Z</time></trkpt><trkpt lat="40.2754936" lon="18.4286905"><ele>17.0</ele><time>2026-04-04T14:25:11.188Z</time></trkpt><trkpt lat="40.2753943" lon="18.4286734"><ele>17.0</ele><time>2026-04-04T14:25:12.186Z</time></trkpt><trkpt lat="40.2752909" lon="18.4286489"><ele>16.8</ele><time>2026-04-04T14:25:13.186Z</time></trkpt><trkpt lat="40.2751854" lon="18.4286243"><ele>16.6</ele><time>2026-04-04T14:25:14.186Z</time></trkpt><trkpt lat="40.2750839" lon="18.4285948"><ele>16.400000000000002</ele><time>2026-04-04T14:25:15.186Z</time></trkpt><trkpt lat="40.274976" lon="18.4285681"><ele>16.2</ele><time>2026-04-04T14:25:16.186Z</time></trkpt><trkpt lat="40.2748831" lon="18.4285477"><ele>16.0</ele><time>2026-04-04T14:25:17.187Z</time></trkpt><trkpt lat="40.2747999" lon="18.4285316"><ele>15.4</ele><time>2026-04-04T14:25:18.187Z</time></trkpt><trkpt lat="40.2747299" lon="18.4285143"><ele>14.8</ele><time>2026-04-04T14:25:19.185Z</time></trkpt><trkpt lat="40.2746143" lon="18.4284871"><ele>14.200000000000001</ele><time>2026-04-04T14:25:21.186Z</time></trkpt><trkpt lat="40.2745069" lon="18.4284589"><ele>13.600000000000001</ele><time>2026-04-04T14:25:23.188Z</time></trkpt><trkpt lat="40.2744023" lon="18.4284279"><ele>13.0</ele><time>2026-04-04T14:25:25.188Z</time></trkpt><trkpt lat="40.2743033" lon="18.4284045"><ele>12.999999999999998</ele><time>2026-04-04T14:25:27.186Z</time></trkpt><trkpt lat="40.2742141" lon="18.4283876"><ele>13.0</ele><time>2026-04-04T14:25:29.186Z</time></trkpt><trkpt lat="40.2741409" lon="18.4283673"><ele>13.0</ele><time>2026-04-04T14:25:31.187Z</time></trkpt><trkpt lat="40.2740471" lon="18.4283392"><ele>13.0</ele><time>2026-04-04T14:25:33.188Z</time></trkpt><trkpt lat="40.2739805" lon="18.4283371"><ele>12.999999999999998</ele><time>2026-04-04T14:25:34.187Z</time></trkpt><trkpt lat="40.273898" lon="18.4283174"><ele>13.0</ele><time>2026-04-04T14:25:35.185Z</time></trkpt><trkpt lat="40.2738107" lon="18.4282943"><ele>12.666666666666666</ele><time>2026-04-04T14:25:36.188Z</time></trkpt><trkpt lat="40.2737219" lon="18.4282701"><ele>12.333333333333332</ele><time>2026-04-04T14:25:37.187Z</time></trkpt><trkpt lat="40.2736412" lon="18.4282487"><ele>12.0</ele><time>2026-04-04T14:25:38.186Z</time></trkpt><trkpt lat="40.2735693" lon="18.4282354"><ele>11.666666666666666</ele><time>2026-04-04T14:25:39.186Z</time></trkpt><trkpt lat="40.2734916" lon="18.4282411"><ele>11.333333333333332</ele><time>2026-04-04T14:25:40.185Z</time></trkpt><trkpt lat="40.2734049" lon="18.4282562"><ele>11.0</ele><time>2026-04-04T14:25:41.187Z</time></trkpt><trkpt lat="40.2733139" lon="18.4282634"><ele>11.0</ele><time>2026-04-04T14:25:42.186Z</time></trkpt><trkpt lat="40.2732146" lon="18.428273"><ele>11.0</ele><time>2026-04-04T14:25:43.188Z</time></trkpt><trkpt lat="40.2731074" lon="18.4282835"><ele>11.0</ele><time>2026-04-04T14:25:44.187Z</time></trkpt><trkpt lat="40.2729986" lon="18.4282925"><ele>11.0</ele><time>2026-04-04T14:25:45.187Z</time></trkpt><trkpt lat="40.2728848" lon="18.4283051"><ele>11.0</ele><time>2026-04-04T14:25:46.185Z</time></trkpt><trkpt lat="40.2727729" lon="18.4283122"><ele>10.8</ele><time>2026-04-04T14:25:47.188Z</time></trkpt><trkpt lat="40.2726644" lon="18.4283281"><ele>10.600000000000001</ele><time>2026-04-04T14:25:48.187Z</time></trkpt><trkpt lat="40.2725546" lon="18.4283347"><ele>10.4</ele><time>2026-04-04T14:25:49.186Z</time></trkpt><trkpt lat="40.2724558" lon="18.4283506"><ele>10.2</ele><time>2026-04-04T14:25:50.185Z</time></trkpt><trkpt lat="40.272366" lon="18.4283764"><ele>10.0</ele><time>2026-04-04T14:25:51.187Z</time></trkpt><trkpt lat="40.2722822" lon="18.4284095"><ele>10.2</ele><time>2026-04-04T14:25:52.187Z</time></trkpt><trkpt lat="40.2722154" lon="18.4284458"><ele>10.4</ele><time>2026-04-04T14:25:53.186Z</time></trkpt><trkpt lat="40.2721123" lon="18.4284921"><ele>10.600000000000001</ele><time>2026-04-04T14:25:55.188Z</time></trkpt><trkpt lat="40.272026" lon="18.4285261"><ele>10.8</ele><time>2026-04-04T14:25:57.187Z</time></trkpt><trkpt lat="40.271923" lon="18.4285681"><ele>11.0</ele><time>2026-04-04T14:25:59.187Z</time></trkpt><trkpt lat="40.2718138" lon="18.4286314"><ele>11.0</ele><time>2026-04-04T14:26:01.186Z</time></trkpt><trkpt lat="40.2717062" lon="18.428677"><ele>11.0</ele><time>2026-04-04T14:26:03.187Z</time></trkpt><trkpt lat="40.271611" lon="18.4287329"><ele>11.0</ele><time>2026-04-04T14:26:05.187Z</time></trkpt><trkpt lat="40.2715127" lon="18.4287852"><ele>11.0</ele><time>2026-04-04T14:26:07.186Z</time></trkpt><trkpt lat="40.2714169" lon="18.4288284"><ele>11.0</ele><time>2026-04-04T14:26:09.186Z</time></trkpt><trkpt lat="40.2713291" lon="18.428866"><ele>10.8</ele><time>2026-04-04T14:26:11.186Z</time></trkpt><trkpt lat="40.271232" lon="18.4289212"><ele>10.600000000000001</ele><time>2026-04-04T14:26:13.186Z</time></trkpt><trkpt lat="40.2711579" lon="18.4289576"><ele>10.4</ele><time>2026-04-04T14:26:14.188Z</time></trkpt><trkpt lat="40.2710678" lon="18.4289934"><ele>10.2</ele><time>2026-04-04T14:26:15.186Z</time></trkpt><trkpt lat="40.2709635" lon="18.4290383"><ele>10.0</ele><time>2026-04-04T14:26:16.187Z</time></trkpt><trkpt lat="40.2708584" lon="18.4290791"><ele>10.0</ele><time>2026-04-04T14:26:17.187Z</time></trkpt><trkpt lat="40.270748" lon="18.4291225"><ele>10.0</ele><time>2026-04-04T14:26:18.187Z</time></trkpt><trkpt lat="40.2706468" lon="18.4291655"><ele>10.0</ele><time>2026-04-04T14:26:19.188Z</time></trkpt><trkpt lat="40.270548" lon="18.42922"><ele>10.0</ele><time>2026-04-04T14:26:20.186Z</time></trkpt><trkpt lat="40.2704557" lon="18.4292835"><ele>10.0</ele><time>2026-04-04T14:26:21.188Z</time></trkpt><trkpt lat="40.2703602" lon="18.4293564"><ele>9.75</ele><time>2026-04-04T14:26:22.186Z</time></trkpt><trkpt lat="40.2702573" lon="18.4294568"><ele>9.5</ele><time>2026-04-04T14:26:23.187Z</time></trkpt><trkpt lat="40.2701449" lon="18.4295556"><ele>9.25</ele><time>2026-04-04T14:26:24.187Z</time></trkpt><trkpt lat="40.2700198" lon="18.4296693"><ele>9.0</ele><time>2026-04-04T14:26:25.186Z</time></trkpt><trkpt lat="40.2698831" lon="18.4297742"><ele>7.666666666666667</ele><time>2026-04-04T14:26:26.186Z</time></trkpt><trkpt lat="40.2697551" lon="18.4298915"><ele>6.333333333333334</ele><time>2026-04-04T14:26:27.185Z</time></trkpt><trkpt lat="40.2696197" lon="18.4300088"><ele>5.0</ele><time>2026-04-04T14:26:28.188Z</time></trkpt><trkpt lat="40.2694905" lon="18.4301485"><ele>5.0</ele><time>2026-04-04T14:26:29.186Z</time></trkpt><trkpt lat="40.2693519" lon="18.430279"><ele>5.0</ele><time>2026-04-04T14:26:30.188Z</time></trkpt><trkpt lat="40.2692111" lon="18.4304075"><ele>5.0</ele><time>2026-04-04T14:26:31.188Z</time></trkpt><trkpt lat="40.2690707" lon="18.4305455"><ele>7.0</ele><time>2026-04-04T14:26:32.186Z</time></trkpt><trkpt lat="40.2689282" lon="18.4306833"><ele>9.0</ele><time>2026-04-04T14:26:33.188Z</time></trkpt><trkpt lat="40.2687777" lon="18.4308248"><ele>11.0</ele><time>2026-04-04T14:26:34.185Z</time></trkpt><trkpt lat="40.2686293" lon="18.4309663"><ele>11.0</ele><time>2026-04-04T14:26:35.187Z</time></trkpt><trkpt lat="40.2684782" lon="18.4311093"><ele>11.0</ele><time>2026-04-04T14:26:36.187Z</time></trkpt><trkpt lat="40.2683266" lon="18.4312541"><ele>11.0</ele><time>2026-04-04T14:26:37.185Z</time></trkpt><trkpt lat="40.2681661" lon="18.4313818"><ele>12.333333333333332</ele><time>2026-04-04T14:26:38.186Z</time></trkpt><trkpt lat="40.2679977" lon="18.431495"><ele>13.666666666666666</ele><time>2026-04-04T14:26:39.187Z</time></trkpt><trkpt lat="40.2678219" lon="18.4315889"><ele>15.0</ele><time>2026-04-04T14:26:40.187Z</time></trkpt><trkpt lat="40.2676462" lon="18.4316588"><ele>15.0</ele><time>2026-04-04T14:26:41.187Z</time></trkpt><trkpt lat="40.2674571" lon="18.4317019"><ele>15.0</ele><time>2026-04-04T14:26:42.187Z</time></trkpt><trkpt lat="40.2672642" lon="18.4317241"><ele>15.0</ele><time>2026-04-04T14:26:43.187Z</time></trkpt><trkpt lat="40.2670674" lon="18.4317352"><ele>15.0</ele><time>2026-04-04T14:26:44.186Z</time></trkpt><trkpt lat="40.2668699" lon="18.4317396"><ele>15.0</ele><time>2026-04-04T14:26:45.186Z</time></trkpt><trkpt lat="40.2666555" lon="18.4317335"><ele>15.0</ele><time>2026-04-04T14:26:46.185Z</time></trkpt><trkpt lat="40.2664499" lon="18.4317338"><ele>14.333333333333332</ele><time>2026-04-04T14:26:47.187Z</time></trkpt><trkpt lat="40.266243" lon="18.4317361"><ele>13.666666666666666</ele><time>2026-04-04T14:26:48.187Z</time></trkpt><trkpt lat="40.2660296" lon="18.4317537"><ele>13.0</ele><time>2026-04-04T14:26:49.186Z</time></trkpt><trkpt lat="40.2658193" lon="18.4317838"><ele>13.333333333333332</ele><time>2026-04-04T14:26:50.187Z</time></trkpt><trkpt lat="40.265604" lon="18.4318369"><ele>13.666666666666668</ele><time>2026-04-04T14:26:51.187Z</time></trkpt><trkpt lat="40.265391" lon="18.4319209"><ele>14.0</ele><time>2026-04-04T14:26:52.186Z</time></trkpt><trkpt lat="40.2651872" lon="18.4320302"><ele>14.0</ele><time>2026-04-04T14:26:53.185Z</time></trkpt><trkpt lat="40.264975" lon="18.4321462"><ele>14.0</ele><time>2026-04-04T14:26:54.186Z</time></trkpt><trkpt lat="40.2647552" lon="18.432274"><ele>14.0</ele><time>2026-04-04T14:26:55.188Z</time></trkpt><trkpt lat="40.2645347" lon="18.4324058"><ele>14.0</ele><time>2026-04-04T14:26:56.186Z</time></trkpt><trkpt lat="40.2643021" lon="18.4325375"><ele>14.0</ele><time>2026-04-04T14:26:57.186Z</time></trkpt><trkpt lat="40.2640638" lon="18.4326739"><ele>14.0</ele><time>2026-04-04T14:26:58.186Z</time></trkpt><trkpt lat="40.2638172" lon="18.4328089"><ele>14.0</ele><time>2026-04-04T14:26:59.187Z</time></trkpt><trkpt lat="40.2635725" lon="18.4329459"><ele>14.0</ele><time>2026-04-04T14:27:00.187Z</time></trkpt><trkpt lat="40.2633245" lon="18.4330914"><ele>15.0</ele><time>2026-04-04T14:27:01.186Z</time></trkpt><trkpt lat="40.2630838" lon="18.4332415"><ele>16.0</ele><time>2026-04-04T14:27:02.188Z</time></trkpt><trkpt lat="40.2628363" lon="18.4333861"><ele>16.0</ele><time>2026-04-04T14:27:03.187Z</time></trkpt><trkpt lat="40.2625875" lon="18.4335293"><ele>16.0</ele><time>2026-04-04T14:27:04.186Z</time></trkpt><trkpt lat="40.2623445" lon="18.4336627"><ele>16.5</ele><time>2026-04-04T14:27:05.188Z</time></trkpt><trkpt lat="40.2621076" lon="18.4338006"><ele>17.0</ele><time>2026-04-04T14:27:06.186Z</time></trkpt><trkpt lat="40.2618711" lon="18.4339404"><ele>17.0</ele><time>2026-04-04T14:27:07.188Z</time></trkpt><trkpt lat="40.261631" lon="18.4340803"><ele>17.0</ele><time>2026-04-04T14:27:08.187Z</time></trkpt><trkpt lat="40.2613922" lon="18.4342229"><ele>17.0</ele><time>2026-04-04T14:27:09.185Z</time></trkpt><trkpt lat="40.2611493" lon="18.4343588"><ele>17.0</ele><time>2026-04-04T14:27:10.186Z</time></trkpt><trkpt lat="40.2609071" lon="18.4344925"><ele>17.0</ele><time>2026-04-04T14:27:11.187Z</time></trkpt><trkpt lat="40.2606689" lon="18.4346309"><ele>17.0</ele><time>2026-04-04T14:27:12.188Z</time></trkpt><trkpt lat="40.2604301" lon="18.4347623"><ele>17.5</ele><time>2026-04-04T14:27:13.186Z</time></trkpt><trkpt lat="40.2601969" lon="18.434903"><ele>18.0</ele><time>2026-04-04T14:27:14.187Z</time></trkpt><trkpt lat="40.2599711" lon="18.4350352"><ele>17.5</ele><time>2026-04-04T14:27:15.188Z</time></trkpt><trkpt lat="40.2597499" lon="18.4351647"><ele>17.0</ele><time>2026-04-04T14:27:16.186Z</time></trkpt><trkpt lat="40.2595327" lon="18.4352979"><ele>17.0</ele><time>2026-04-04T14:27:17.186Z</time></trkpt><trkpt lat="40.2593218" lon="18.4354285"><ele>17.0</ele><time>2026-04-04T14:27:18.187Z</time></trkpt><trkpt lat="40.2591132" lon="18.4355553"><ele>18.5</ele><time>2026-04-04T14:27:19.187Z</time></trkpt><trkpt lat="40.2589018" lon="18.4356808"><ele>20.0</ele><time>2026-04-04T14:27:20.188Z</time></trkpt><trkpt lat="40.2586929" lon="18.4358054"><ele>20.0</ele><time>2026-04-04T14:27:21.186Z</time></trkpt><trkpt lat="40.2584772" lon="18.4359261"><ele>20.0</ele><time>2026-04-04T14:27:22.186Z</time></trkpt><trkpt lat="40.258252" lon="18.4360564"><ele>20.0</ele><time>2026-04-04T14:27:23.187Z</time></trkpt><trkpt lat="40.2580149" lon="18.4361993"><ele>20.0</ele><time>2026-04-04T14:27:24.186Z</time></trkpt><trkpt lat="40.2577633" lon="18.4363501"><ele>20.0</ele><time>2026-04-04T14:27:25.185Z</time></trkpt><trkpt lat="40.2574991" lon="18.4365102"><ele>20.0</ele><time>2026-04-04T14:27:26.186Z</time></trkpt><trkpt lat="40.2572301" lon="18.436675"><ele>20.0</ele><time>2026-04-04T14:27:27.187Z</time></trkpt><trkpt lat="40.2569531" lon="18.4368392"><ele>20.0</ele><time>2026-04-04T14:27:28.187Z</time></trkpt><trkpt lat="40.2566795" lon="18.4369978"><ele>20.5</ele><time>2026-04-04T14:27:29.187Z</time></trkpt><trkpt lat="40.2564073" lon="18.4371603"><ele>21.0</ele><time>2026-04-04T14:27:30.186Z</time></trkpt><trkpt lat="40.2561462" lon="18.4373068"><ele>21.0</ele><time>2026-04-04T14:27:31.186Z</time></trkpt><trkpt lat="40.2558991" lon="18.4374552"><ele>21.0</ele><time>2026-04-04T14:27:32.185Z</time></trkpt><trkpt lat="40.2556645" lon="18.4375955"><ele>21.5</ele><time>2026-04-04T14:27:33.187Z</time></trkpt><trkpt lat="40.2554366" lon="18.4377354"><ele>22.0</ele><time>2026-04-04T14:27:34.187Z</time></trkpt><trkpt lat="40.2552275" lon="18.4378662"><ele>22.0</ele><time>2026-04-04T14:27:35.186Z</time></trkpt><trkpt lat="40.255036" lon="18.4379832"><ele>22.0</ele><time>2026-04-04T14:27:36.187Z</time></trkpt><trkpt lat="40.2548462" lon="18.4381005"><ele>22.0</ele><time>2026-04-04T14:27:37.187Z</time></trkpt><trkpt lat="40.2546691" lon="18.4382009"><ele>21.666666666666664</ele><time>2026-04-04T14:27:38.185Z</time></trkpt><trkpt lat="40.2545046" lon="18.438291"><ele>21.333333333333332</ele><time>2026-04-04T14:27:39.186Z</time></trkpt><trkpt lat="40.2543581" lon="18.4383733"><ele>21.0</ele><time>2026-04-04T14:27:40.187Z</time></trkpt><trkpt lat="40.2542243" lon="18.4384391"><ele>21.0</ele><time>2026-04-04T14:27:41.186Z</time></trkpt><trkpt lat="40.2541013" lon="18.4384808"><ele>21.0</ele><time>2026-04-04T14:27:42.186Z</time></trkpt><trkpt lat="40.2540068" lon="18.4384545"><ele>21.0</ele><time>2026-04-04T14:27:43.186Z</time></trkpt><trkpt lat="40.2539097" lon="18.4384587"><ele>21.0</ele><time>2026-04-04T14:27:44.187Z</time></trkpt><trkpt lat="40.2538151" lon="18.4384873"><ele>21.0</ele><time>2026-04-04T14:27:45.187Z</time></trkpt><trkpt lat="40.2537217" lon="18.4385558"><ele>21.333333333333332</ele><time>2026-04-04T14:27:46.186Z</time></trkpt><trkpt lat="40.2536256" lon="18.4386595"><ele>21.666666666666664</ele><time>2026-04-04T14:27:47.186Z</time></trkpt><trkpt lat="40.2535044" lon="18.4387878"><ele>22.0</ele><time>2026-04-04T14:27:48.186Z</time></trkpt><trkpt lat="40.2533309" lon="18.438897"><ele>22.0</ele><time>2026-04-04T14:27:49.187Z</time></trkpt><trkpt lat="40.2531213" lon="18.4390036"><ele>22.0</ele><time>2026-04-04T14:27:50.187Z</time></trkpt><trkpt lat="40.2528719" lon="18.4391175"><ele>22.0</ele><time>2026-04-04T14:27:51.186Z</time></trkpt><trkpt lat="40.2526036" lon="18.4392233"><ele>22.0</ele><time>2026-04-04T14:27:52.187Z</time></trkpt><trkpt lat="40.252321" lon="18.4393424"><ele>22.0</ele><time>2026-04-04T14:27:53.187Z</time></trkpt><trkpt lat="40.2520223" lon="18.4394478"><ele>22.0</ele><time>2026-04-04T14:27:54.188Z</time></trkpt><trkpt lat="40.251724" lon="18.4395602"><ele>22.0</ele><time>2026-04-04T14:27:55.185Z</time></trkpt><trkpt lat="40.2514347" lon="18.4396697"><ele>22.0</ele><time>2026-04-04T14:27:56.186Z</time></trkpt><trkpt lat="40.2511504" lon="18.4397759"><ele>22.0</ele><time>2026-04-04T14:27:57.188Z</time></trkpt><trkpt lat="40.2508681" lon="18.439894"><ele>22.0</ele><time>2026-04-04T14:27:58.187Z</time></trkpt><trkpt lat="40.2505859" lon="18.4400032"><ele>21.5</ele><time>2026-04-04T14:27:59.185Z</time></trkpt><trkpt lat="40.2503042" lon="18.4401213"><ele>21.0</ele><time>2026-04-04T14:28:00.186Z</time></trkpt><trkpt lat="40.2500244" lon="18.4402375"><ele>21.0</ele><time>2026-04-04T14:28:01.186Z</time></trkpt><trkpt lat="40.2497408" lon="18.4403475"><ele>21.0</ele><time>2026-04-04T14:28:02.187Z</time></trkpt><trkpt lat="40.2494605" lon="18.4404591"><ele>21.0</ele><time>2026-04-04T14:28:03.186Z</time></trkpt><trkpt lat="40.2491801" lon="18.4405673"><ele>21.0</ele><time>2026-04-04T14:28:04.188Z</time></trkpt><trkpt lat="40.2489002" lon="18.4406763"><ele>21.0</ele><time>2026-04-04T14:28:05.186Z</time></trkpt><trkpt lat="40.2486238" lon="18.4407881"><ele>21.0</ele><time>2026-04-04T14:28:06.186Z</time></trkpt><trkpt lat="40.248346" lon="18.4409035"><ele>21.5</ele><time>2026-04-04T14:28:07.187Z</time></trkpt><trkpt lat="40.248063" lon="18.441025"><ele>22.0</ele><time>2026-04-04T14:28:08.187Z</time></trkpt><trkpt lat="40.2477621" lon="18.4411478"><ele>22.0</ele><time>2026-04-04T14:28:09.186Z</time></trkpt><trkpt lat="40.2474474" lon="18.4412789"><ele>22.0</ele><time>2026-04-04T14:28:10.185Z</time></trkpt><trkpt lat="40.2471304" lon="18.441402"><ele>22.0</ele><time>2026-04-04T14:28:11.187Z</time></trkpt><trkpt lat="40.2468124" lon="18.4415119"><ele>22.0</ele><time>2026-04-04T14:28:12.187Z</time></trkpt><trkpt lat="40.2464984" lon="18.4416292"><ele>21.0</ele><time>2026-04-04T14:28:13.188Z</time></trkpt><trkpt lat="40.2461851" lon="18.4417481"><ele>20.0</ele><time>2026-04-04T14:28:14.187Z</time></trkpt><trkpt lat="40.245867" lon="18.4418694"><ele>21.0</ele><time>2026-04-04T14:28:15.185Z</time></trkpt><trkpt lat="40.2455494" lon="18.4419897"><ele>22.0</ele><time>2026-04-04T14:28:16.188Z</time></trkpt><trkpt lat="40.245239" lon="18.4421141"><ele>22.0</ele><time>2026-04-04T14:28:17.187Z</time></trkpt><trkpt lat="40.2449335" lon="18.4422368"><ele>22.0</ele><time>2026-04-04T14:28:18.187Z</time></trkpt><trkpt lat="40.2446296" lon="18.4423611"><ele>21.0</ele><time>2026-04-04T14:28:19.186Z</time></trkpt><trkpt lat="40.2443231" lon="18.4424754"><ele>20.0</ele><time>2026-04-04T14:28:20.187Z</time></trkpt><trkpt lat="40.2440137" lon="18.4425935"><ele>20.0</ele><time>2026-04-04T14:28:21.187Z</time></trkpt><trkpt lat="40.2437057" lon="18.4427117"><ele>20.0</ele><time>2026-04-04T14:28:22.186Z</time></trkpt><trkpt lat="40.2433977" lon="18.4428296"><ele>20.5</ele><time>2026-04-04T14:28:23.186Z</time></trkpt><trkpt lat="40.2430946" lon="18.442947"><ele>21.0</ele><time>2026-04-04T14:28:24.187Z</time></trkpt><trkpt lat="40.242793" lon="18.4430702"><ele>21.0</ele><time>2026-04-04T14:28:25.188Z</time></trkpt><trkpt lat="40.2424807" lon="18.4431847"><ele>21.0</ele><time>2026-04-04T14:28:26.185Z</time></trkpt><trkpt lat="40.2421724" lon="18.4432894"><ele>21.5</ele><time>2026-04-04T14:28:27.185Z</time></trkpt><trkpt lat="40.2418668" lon="18.4434028"><ele>22.0</ele><time>2026-04-04T14:28:28.186Z</time></trkpt><trkpt lat="40.2415656" lon="18.4435182"><ele>22.5</ele><time>2026-04-04T14:28:29.186Z</time></trkpt><trkpt lat="40.241267" lon="18.4436397"><ele>23.0</ele><time>2026-04-04T14:28:30.188Z</time></trkpt><trkpt lat="40.2409735" lon="18.4437646"><ele>22.0</ele><time>2026-04-04T14:28:31.186Z</time></trkpt><trkpt lat="40.2406891" lon="18.4438822"><ele>21.0</ele><time>2026-04-04T14:28:32.187Z</time></trkpt><trkpt lat="40.2404069" lon="18.4440013"><ele>20.5</ele><time>2026-04-04T14:28:33.187Z</time></trkpt><trkpt lat="40.2401318" lon="18.4441181"><ele>20.0</ele><time>2026-04-04T14:28:34.188Z</time></trkpt><trkpt lat="40.2398601" lon="18.4442244"><ele>20.5</ele><time>2026-04-04T14:28:35.186Z</time></trkpt><trkpt lat="40.2395967" lon="18.4443057"><ele>21.0</ele><time>2026-04-04T14:28:36.187Z</time></trkpt><trkpt lat="40.2393291" lon="18.4443467"><ele>21.0</ele><time>2026-04-04T14:28:37.187Z</time></trkpt><trkpt lat="40.2390558" lon="18.4443451"><ele>21.0</ele><time>2026-04-04T14:28:38.187Z</time></trkpt><trkpt lat="40.2387677" lon="18.4443227"><ele>20.5</ele><time>2026-04-04T14:28:39.187Z</time></trkpt><trkpt lat="40.2384573" lon="18.4442922"><ele>20.0</ele><time>2026-04-04T14:28:40.187Z</time></trkpt><trkpt lat="40.2381292" lon="18.444265"><ele>19.5</ele><time>2026-04-04T14:28:41.187Z</time></trkpt><trkpt lat="40.2377879" lon="18.4442298"><ele>19.0</ele><time>2026-04-04T14:28:42.185Z</time></trkpt><trkpt lat="40.2374565" lon="18.4441983"><ele>19.0</ele><time>2026-04-04T14:28:43.187Z</time></trkpt><trkpt lat="40.2371244" lon="18.4441632"><ele>19.0</ele><time>2026-04-04T14:28:44.187Z</time></trkpt><trkpt lat="40.2367977" lon="18.4441261"><ele>19.0</ele><time>2026-04-04T14:28:45.186Z</time></trkpt><trkpt lat="40.2364747" lon="18.4440958"><ele>19.0</ele><time>2026-04-04T14:28:46.187Z</time></trkpt><trkpt lat="40.2361579" lon="18.4440609"><ele>19.0</ele><time>2026-04-04T14:28:47.188Z</time></trkpt><trkpt lat="40.2358511" lon="18.4440207"><ele>19.0</ele><time>2026-04-04T14:28:48.186Z</time></trkpt><trkpt lat="40.2355395" lon="18.4439839"><ele>18.5</ele><time>2026-04-04T14:28:49.187Z</time></trkpt><trkpt lat="40.2352367" lon="18.4439458"><ele>18.0</ele><time>2026-04-04T14:28:50.186Z</time></trkpt><trkpt lat="40.2349378" lon="18.4439054"><ele>18.5</ele><time>2026-04-04T14:28:51.185Z</time></trkpt><trkpt lat="40.2346391" lon="18.4438699"><ele>19.0</ele><time>2026-04-04T14:28:52.186Z</time></trkpt><trkpt lat="40.2343376" lon="18.4438318"><ele>19.0</ele><time>2026-04-04T14:28:53.185Z</time></trkpt><trkpt lat="40.2340382" lon="18.4437985"><ele>19.0</ele><time>2026-04-04T14:28:54.186Z</time></trkpt><trkpt lat="40.2337342" lon="18.4437676"><ele>18.5</ele><time>2026-04-04T14:28:55.186Z</time></trkpt><trkpt lat="40.2334177" lon="18.4437326"><ele>18.0</ele><time>2026-04-04T14:28:56.187Z</time></trkpt><trkpt lat="40.2330986" lon="18.4436993"><ele>18.0</ele><time>2026-04-04T14:28:57.186Z</time></trkpt><trkpt lat="40.2327747" lon="18.443665"><ele>18.0</ele><time>2026-04-04T14:28:58.187Z</time></trkpt><trkpt lat="40.2324454" lon="18.4436223"><ele>16.5</ele><time>2026-04-04T14:28:59.187Z</time></trkpt><trkpt lat="40.2321085" lon="18.4435842"><ele>15.0</ele><time>2026-04-04T14:29:00.186Z</time></trkpt><trkpt lat="40.2317727" lon="18.4435479"><ele>15.0</ele><time>2026-04-04T14:29:01.187Z</time></trkpt><trkpt lat="40.2314381" lon="18.4435155"><ele>15.0</ele><time>2026-04-04T14:29:02.186Z</time></trkpt><trkpt lat="40.2311019" lon="18.4434933"><ele>15.0</ele><time>2026-04-04T14:29:03.185Z</time></trkpt><trkpt lat="40.2307714" lon="18.4434876"><ele>15.0</ele><time>2026-04-04T14:29:04.187Z</time></trkpt><trkpt lat="40.2304506" lon="18.4434893"><ele>15.5</ele><time>2026-04-04T14:29:05.186Z</time></trkpt><trkpt lat="40.2301322" lon="18.4434976"><ele>16.0</ele><time>2026-04-04T14:29:06.186Z</time></trkpt><trkpt lat="40.2298259" lon="18.4435037"><ele>16.0</ele><time>2026-04-04T14:29:07.186Z</time></trkpt><trkpt lat="40.2295504" lon="18.4435039"><ele>16.0</ele><time>2026-04-04T14:29:08.185Z</time></trkpt><trkpt lat="40.2292911" lon="18.4434857"><ele>16.0</ele><time>2026-04-04T14:29:09.186Z</time></trkpt><trkpt lat="40.2290429" lon="18.4434288"><ele>16.0</ele><time>2026-04-04T14:29:10.186Z</time></trkpt><trkpt lat="40.2288143" lon="18.4433282"><ele>16.5</ele><time>2026-04-04T14:29:11.187Z</time></trkpt><trkpt lat="40.2285797" lon="18.4431868"><ele>17.0</ele><time>2026-04-04T14:29:12.188Z</time></trkpt><trkpt lat="40.2283342" lon="18.4430138"><ele>18.0</ele><time>2026-04-04T14:29:13.187Z</time></trkpt><trkpt lat="40.2280829" lon="18.4428297"><ele>19.0</ele><time>2026-04-04T14:29:14.186Z</time></trkpt><trkpt lat="40.2278333" lon="18.4426439"><ele>19.0</ele><time>2026-04-04T14:29:15.187Z</time></trkpt><trkpt lat="40.2275877" lon="18.4424575"><ele>19.0</ele><time>2026-04-04T14:29:16.187Z</time></trkpt><trkpt lat="40.2273425" lon="18.4422769"><ele>18.5</ele><time>2026-04-04T14:29:17.188Z</time></trkpt><trkpt lat="40.2270871" lon="18.4421205"><ele>18.0</ele><time>2026-04-04T14:29:18.186Z</time></trkpt><trkpt lat="40.2268253" lon="18.4419704"><ele>18.0</ele><time>2026-04-04T14:29:19.186Z</time></trkpt><trkpt lat="40.2265491" lon="18.4418532"><ele>18.0</ele><time>2026-04-04T14:29:20.186Z</time></trkpt><trkpt lat="40.2262771" lon="18.4417394"><ele>18.0</ele><time>2026-04-04T14:29:21.186Z</time></trkpt><trkpt lat="40.2260047" lon="18.4416317"><ele>18.0</ele><time>2026-04-04T14:29:22.186Z</time></trkpt><trkpt lat="40.2257199" lon="18.4415185"><ele>15.5</ele><time>2026-04-04T14:29:23.186Z</time></trkpt><trkpt lat="40.2254386" lon="18.4414079"><ele>13.0</ele><time>2026-04-04T14:29:24.187Z</time></trkpt><trkpt lat="40.2251662" lon="18.4412949"><ele>11.0</ele><time>2026-04-04T14:29:25.186Z</time></trkpt><trkpt lat="40.2249008" lon="18.4411823"><ele>9.0</ele><time>2026-04-04T14:29:26.187Z</time></trkpt><trkpt lat="40.2246301" lon="18.4410902"><ele>7.0</ele><time>2026-04-04T14:29:27.185Z</time></trkpt><trkpt lat="40.2243596" lon="18.4410406"><ele>5.0</ele><time>2026-04-04T14:29:28.187Z</time></trkpt><trkpt lat="40.2240854" lon="18.4410398"><ele>4.0</ele><time>2026-04-04T14:29:29.187Z</time></trkpt><trkpt lat="40.2238079" lon="18.4410914"><ele>3.0</ele><time>2026-04-04T14:29:30.188Z</time></trkpt><trkpt lat="40.2235309" lon="18.4411934"><ele>2.5</ele><time>2026-04-04T14:29:31.186Z</time></trkpt><trkpt lat="40.2232561" lon="18.4413272"><ele>2.0</ele><time>2026-04-04T14:29:32.186Z</time></trkpt><trkpt lat="40.2229767" lon="18.4414627"><ele>2.0</ele><time>2026-04-04T14:29:33.186Z</time></trkpt><trkpt lat="40.2226899" lon="18.4416008"><ele>2.0</ele><time>2026-04-04T14:29:34.186Z</time></trkpt><trkpt lat="40.2224017" lon="18.4417476"><ele>2.0</ele><time>2026-04-04T14:29:35.187Z</time></trkpt><trkpt lat="40.2221046" lon="18.441894"><ele>2.0</ele><time>2026-04-04T14:29:36.188Z</time></trkpt><trkpt lat="40.2218025" lon="18.4420529"><ele>2.5</ele><time>2026-04-04T14:29:37.187Z</time></trkpt><trkpt lat="40.221487" lon="18.4422095"><ele>3.0</ele><time>2026-04-04T14:29:38.187Z</time></trkpt><trkpt lat="40.2211637" lon="18.4423717"><ele>3.0</ele><time>2026-04-04T14:29:39.186Z</time></trkpt><trkpt lat="40.220832" lon="18.442535"><ele>3.0</ele><time>2026-04-04T14:29:40.186Z</time></trkpt><trkpt lat="40.220502" lon="18.4427022"><ele>2.5</ele><time>2026-04-04T14:29:41.187Z</time></trkpt><trkpt lat="40.2201726" lon="18.4428656"><ele>2.0</ele><time>2026-04-04T14:29:42.187Z</time></trkpt><trkpt lat="40.2198456" lon="18.4430326"><ele>3.5</ele><time>2026-04-04T14:29:43.187Z</time></trkpt><trkpt lat="40.2195184" lon="18.4431924"><ele>5.0</ele><time>2026-04-04T14:29:44.188Z</time></trkpt><trkpt lat="40.2192008" lon="18.4433478"><ele>4.0</ele><time>2026-04-04T14:29:45.186Z</time></trkpt><trkpt lat="40.2188889" lon="18.4434921"><ele>3.0</ele><time>2026-04-04T14:29:46.186Z</time></trkpt><trkpt lat="40.2185864" lon="18.4436366"><ele>3.0</ele><time>2026-04-04T14:29:47.186Z</time></trkpt><trkpt lat="40.21829" lon="18.4437761"><ele>3.0</ele><time>2026-04-04T14:29:48.186Z</time></trkpt><trkpt lat="40.2180029" lon="18.4439087"><ele>4.5</ele><time>2026-04-04T14:29:49.187Z</time></trkpt><trkpt lat="40.2177343" lon="18.4440775"><ele>6.0</ele><time>2026-04-04T14:29:50.187Z</time></trkpt><trkpt lat="40.2174748" lon="18.4442737"><ele>7.0</ele><time>2026-04-04T14:29:51.186Z</time></trkpt><trkpt lat="40.2172211" lon="18.4444845"><ele>8.0</ele><time>2026-04-04T14:29:52.188Z</time></trkpt><trkpt lat="40.2169682" lon="18.4447129"><ele>8.0</ele><time>2026-04-04T14:29:53.186Z</time></trkpt><trkpt lat="40.2167129" lon="18.4449469"><ele>8.0</ele><time>2026-04-04T14:29:54.187Z</time></trkpt><trkpt lat="40.216457" lon="18.4451854"><ele>9.5</ele><time>2026-04-04T14:29:55.186Z</time></trkpt><trkpt lat="40.216195" lon="18.4454219"><ele>11.0</ele><time>2026-04-04T14:29:56.185Z</time></trkpt><trkpt lat="40.2159306" lon="18.4456615"><ele>11.0</ele><time>2026-04-04T14:29:57.188Z</time></trkpt><trkpt lat="40.2156695" lon="18.4459037"><ele>11.0</ele><time>2026-04-04T14:29:58.187Z</time></trkpt><trkpt lat="40.2154061" lon="18.4461432"><ele>11.5</ele><time>2026-04-04T14:29:59.187Z</time></trkpt><trkpt lat="40.2151467" lon="18.4463823"><ele>12.0</ele><time>2026-04-04T14:30:00.186Z</time></trkpt><trkpt lat="40.2148841" lon="18.446618"><ele>10.0</ele><time>2026-04-04T14:30:01.185Z</time></trkpt><trkpt lat="40.2146244" lon="18.4468536"><ele>8.0</ele><time>2026-04-04T14:30:02.186Z</time></trkpt><trkpt lat="40.2143672" lon="18.4470835"><ele>10.0</ele><time>2026-04-04T14:30:03.188Z</time></trkpt><trkpt lat="40.2141155" lon="18.4473113"><ele>12.0</ele><time>2026-04-04T14:30:04.186Z</time></trkpt><trkpt lat="40.2138616" lon="18.4475352"><ele>12.0</ele><time>2026-04-04T14:30:05.186Z</time></trkpt><trkpt lat="40.2136135" lon="18.4477673"><ele>12.0</ele><time>2026-04-04T14:30:06.186Z</time></trkpt><trkpt lat="40.213373" lon="18.4480062"><ele>11.5</ele><time>2026-04-04T14:30:07.186Z</time></trkpt><trkpt lat="40.2131399" lon="18.4482645"><ele>11.0</ele><time>2026-04-04T14:30:08.187Z</time></trkpt><trkpt lat="40.2129127" lon="18.4485281"><ele>11.0</ele><time>2026-04-04T14:30:09.187Z</time></trkpt><trkpt lat="40.2126722" lon="18.4487823"><ele>11.0</ele><time>2026-04-04T14:30:10.185Z</time></trkpt><trkpt lat="40.212442" lon="18.4490406"><ele>11.5</ele><time>2026-04-04T14:30:11.185Z</time></trkpt><trkpt lat="40.2122095" lon="18.4492988"><ele>12.0</ele><time>2026-04-04T14:30:12.188Z</time></trkpt><trkpt lat="40.211976" lon="18.4495627"><ele>14.0</ele><time>2026-04-04T14:30:13.185Z</time></trkpt><trkpt lat="40.2117437" lon="18.4498222"><ele>16.0</ele><time>2026-04-04T14:30:14.188Z</time></trkpt><trkpt lat="40.21152" lon="18.4500618"><ele>14.0</ele><time>2026-04-04T14:30:15.186Z</time></trkpt><trkpt lat="40.211299" lon="18.4503009"><ele>12.0</ele><time>2026-04-04T14:30:16.186Z</time></trkpt><trkpt lat="40.2110967" lon="18.4505275"><ele>12.0</ele><time>2026-04-04T14:30:17.186Z</time></trkpt><trkpt lat="40.2108915" lon="18.4507539"><ele>12.0</ele><time>2026-04-04T14:30:18.187Z</time></trkpt><trkpt lat="40.2107029" lon="18.450971"><ele>11.0</ele><time>2026-04-04T14:30:19.188Z</time></trkpt><trkpt lat="40.2105167" lon="18.4511825"><ele>10.0</ele><time>2026-04-04T14:30:20.187Z</time></trkpt><trkpt lat="40.2103471" lon="18.4513712"><ele>11.333333333333334</ele><time>2026-04-04T14:30:21.185Z</time></trkpt><trkpt lat="40.2101804" lon="18.4515554"><ele>12.666666666666668</ele><time>2026-04-04T14:30:22.186Z</time></trkpt><trkpt lat="40.2100104" lon="18.4517227"><ele>14.0</ele><time>2026-04-04T14:30:23.188Z</time></trkpt><trkpt lat="40.2098368" lon="18.4518921"><ele>15.0</ele><time>2026-04-04T14:30:24.187Z</time></trkpt><trkpt lat="40.2096502" lon="18.4520717"><ele>16.0</ele><time>2026-04-04T14:30:25.187Z</time></trkpt><trkpt lat="40.2094488" lon="18.4522494"><ele>16.0</ele><time>2026-04-04T14:30:26.187Z</time></trkpt><trkpt lat="40.2092184" lon="18.4524348"><ele>16.0</ele><time>2026-04-04T14:30:27.186Z</time></trkpt><trkpt lat="40.2089936" lon="18.4526263"><ele>15.0</ele><time>2026-04-04T14:30:28.186Z</time></trkpt><trkpt lat="40.2087636" lon="18.4528385"><ele>14.0</ele><time>2026-04-04T14:30:29.188Z</time></trkpt><trkpt lat="40.2085339" lon="18.4530516"><ele>14.0</ele><time>2026-04-04T14:30:30.186Z</time></trkpt><trkpt lat="40.2083008" lon="18.4532664"><ele>14.0</ele><time>2026-04-04T14:30:31.187Z</time></trkpt><trkpt lat="40.2080707" lon="18.453485"><ele>14.0</ele><time>2026-04-04T14:30:32.186Z</time></trkpt><trkpt lat="40.2078355" lon="18.4536946"><ele>14.0</ele><time>2026-04-04T14:30:33.187Z</time></trkpt><trkpt lat="40.2075934" lon="18.4538964"><ele>14.0</ele><time>2026-04-04T14:30:34.186Z</time></trkpt><trkpt lat="40.2073583" lon="18.4540943"><ele>14.0</ele><time>2026-04-04T14:30:35.188Z</time></trkpt><trkpt lat="40.2071233" lon="18.4543006"><ele>14.0</ele><time>2026-04-04T14:30:36.186Z</time></trkpt><trkpt lat="40.2069064" lon="18.4545352"><ele>14.0</ele><time>2026-04-04T14:30:37.187Z</time></trkpt><trkpt lat="40.2066941" lon="18.4547867"><ele>12.5</ele><time>2026-04-04T14:30:38.186Z</time></trkpt><trkpt lat="40.2064956" lon="18.4550612"><ele>11.0</ele><time>2026-04-04T14:30:39.186Z</time></trkpt><trkpt lat="40.2062964" lon="18.4553252"><ele>9.5</ele><time>2026-04-04T14:30:40.186Z</time></trkpt><trkpt lat="40.2060988" lon="18.4555935"><ele>8.0</ele><time>2026-04-04T14:30:41.186Z</time></trkpt><trkpt lat="40.2059159" lon="18.4558571"><ele>8.0</ele><time>2026-04-04T14:30:42.187Z</time></trkpt><trkpt lat="40.2057419" lon="18.4561087"><ele>8.0</ele><time>2026-04-04T14:30:43.186Z</time></trkpt><trkpt lat="40.2055764" lon="18.4563438"><ele>6.5</ele><time>2026-04-04T14:30:44.188Z</time></trkpt><trkpt lat="40.2054067" lon="18.4565468"><ele>5.0</ele><time>2026-04-04T14:30:45.186Z</time></trkpt><trkpt lat="40.2052308" lon="18.4567196"><ele>5.0</ele><time>2026-04-04T14:30:46.187Z</time></trkpt><trkpt lat="40.2050426" lon="18.4568493"><ele>5.0</ele><time>2026-04-04T14:30:47.187Z</time></trkpt><trkpt lat="40.2048539" lon="18.4569455"><ele>5.0</ele><time>2026-04-04T14:30:48.188Z</time></trkpt><trkpt lat="40.2046646" lon="18.457015"><ele>3.666666666666667</ele><time>2026-04-04T14:30:49.185Z</time></trkpt><trkpt lat="40.2044654" lon="18.457052"><ele>2.3333333333333335</ele><time>2026-04-04T14:30:50.188Z</time></trkpt><trkpt lat="40.2042719" lon="18.4570852"><ele>1.0</ele><time>2026-04-04T14:30:51.186Z</time></trkpt><trkpt lat="40.204089" lon="18.4570955"><ele>1.6666666666666665</ele><time>2026-04-04T14:30:52.186Z</time></trkpt><trkpt lat="40.2039192" lon="18.4571116"><ele>2.3333333333333335</ele><time>2026-04-04T14:30:53.187Z</time></trkpt><trkpt lat="40.2037563" lon="18.4571243"><ele>3.0</ele><time>2026-04-04T14:30:54.186Z</time></trkpt><trkpt lat="40.2036036" lon="18.457134"><ele>3.0</ele><time>2026-04-04T14:30:55.187Z</time></trkpt><trkpt lat="40.2034677" lon="18.4571408"><ele>3.0</ele><time>2026-04-04T14:30:56.185Z</time></trkpt><trkpt lat="40.203337" lon="18.4571303"><ele>3.0</ele><time>2026-04-04T14:30:57.188Z</time></trkpt><trkpt lat="40.2032108" lon="18.4571004"><ele>3.0</ele><time>2026-04-04T14:30:58.185Z</time></trkpt><trkpt lat="40.2030837" lon="18.4570513"><ele>4.75</ele><time>2026-04-04T14:30:59.187Z</time></trkpt><trkpt lat="40.202957" lon="18.4569897"><ele>6.5</ele><time>2026-04-04T14:31:00.187Z</time></trkpt><trkpt lat="40.2028366" lon="18.4568951"><ele>8.25</ele><time>2026-04-04T14:31:01.187Z</time></trkpt><trkpt lat="40.2027173" lon="18.4568013"><ele>10.0</ele><time>2026-04-04T14:31:02.187Z</time></trkpt><trkpt lat="40.2026027" lon="18.456658"><ele>10.0</ele><time>2026-04-04T14:31:03.186Z</time></trkpt><trkpt lat="40.2024838" lon="18.4565137"><ele>10.0</ele><time>2026-04-04T14:31:04.187Z</time></trkpt><trkpt lat="40.2023567" lon="18.4563561"><ele>10.0</ele><time>2026-04-04T14:31:05.186Z</time></trkpt><trkpt lat="40.2021837" lon="18.4561618"><ele>13.5</ele><time>2026-04-04T14:31:06.187Z</time></trkpt><trkpt lat="40.2020113" lon="18.4559398"><ele>17.0</ele><time>2026-04-04T14:31:07.187Z</time></trkpt><trkpt lat="40.2018244" lon="18.4556935"><ele>17.5</ele><time>2026-04-04T14:31:08.186Z</time></trkpt><trkpt lat="40.2016239" lon="18.4554112"><ele>18.0</ele><time>2026-04-04T14:31:09.186Z</time></trkpt><trkpt lat="40.201418" lon="18.4551258"><ele>16.5</ele><time>2026-04-04T14:31:10.187Z</time></trkpt><trkpt lat="40.2012173" lon="18.4548399"><ele>15.0</ele><time>2026-04-04T14:31:11.187Z</time></trkpt><trkpt lat="40.2010142" lon="18.4545622"><ele>14.0</ele><time>2026-04-04T14:31:12.186Z</time></trkpt><trkpt lat="40.2008206" lon="18.4542966"><ele>13.0</ele><time>2026-04-04T14:31:13.187Z</time></trkpt><trkpt lat="40.2006414" lon="18.4540533"><ele>13.0</ele><time>2026-04-04T14:31:14.187Z</time></trkpt><trkpt lat="40.2004624" lon="18.4538373"><ele>13.0</ele><time>2026-04-04T14:31:15.187Z</time></trkpt><trkpt lat="40.2002747" lon="18.4536685"><ele>13.0</ele><time>2026-04-04T14:31:16.186Z</time></trkpt><trkpt lat="40.2000714" lon="18.4535496"><ele>13.0</ele><time>2026-04-04T14:31:17.186Z</time></trkpt><trkpt lat="40.1998493" lon="18.4534848"><ele>10.5</ele><time>2026-04-04T14:31:18.186Z</time></trkpt><trkpt lat="40.1996109" lon="18.4534512"><ele>8.0</ele><time>2026-04-04T14:31:19.186Z</time></trkpt><trkpt lat="40.1993673" lon="18.4534399"><ele>8.0</ele><time>2026-04-04T14:31:20.186Z</time></trkpt><trkpt lat="40.1991191" lon="18.4534313"><ele>8.0</ele><time>2026-04-04T14:31:21.188Z</time></trkpt><trkpt lat="40.1988704" lon="18.4534276"><ele>8.0</ele><time>2026-04-04T14:31:22.187Z</time></trkpt><trkpt lat="40.1986294" lon="18.4534266"><ele>8.0</ele><time>2026-04-04T14:31:23.187Z</time></trkpt><trkpt lat="40.1983794" lon="18.4534319"><ele>8.0</ele><time>2026-04-04T14:31:24.186Z</time></trkpt><trkpt lat="40.1981159" lon="18.4534259"><ele>8.0</ele><time>2026-04-04T14:31:25.187Z</time></trkpt><trkpt lat="40.1978429" lon="18.4534171"><ele>8.0</ele><time>2026-04-04T14:31:26.188Z</time></trkpt><trkpt lat="40.1975619" lon="18.4533966"><ele>8.0</ele><time>2026-04-04T14:31:27.186Z</time></trkpt><trkpt lat="40.1972739" lon="18.4533855"><ele>7.0</ele><time>2026-04-04T14:31:28.187Z</time></trkpt><trkpt lat="40.1969841" lon="18.4533688"><ele>6.0</ele><time>2026-04-04T14:31:29.187Z</time></trkpt><trkpt lat="40.1966961" lon="18.4533525"><ele>6.5</ele><time>2026-04-04T14:31:30.187Z</time></trkpt><trkpt lat="40.1964158" lon="18.4533413"><ele>7.0</ele><time>2026-04-04T14:31:31.188Z</time></trkpt><trkpt lat="40.1961395" lon="18.4533314"><ele>7.0</ele><time>2026-04-04T14:31:32.186Z</time></trkpt><trkpt lat="40.1958714" lon="18.4533209"><ele>7.0</ele><time>2026-04-04T14:31:33.187Z</time></trkpt><trkpt lat="40.195611" lon="18.4533154"><ele>8.0</ele><time>2026-04-04T14:31:34.185Z</time></trkpt><trkpt lat="40.1953559" lon="18.4533063"><ele>9.0</ele><time>2026-04-04T14:31:35.186Z</time></trkpt><trkpt lat="40.1951158" lon="18.4532979"><ele>9.0</ele><time>2026-04-04T14:31:36.187Z</time></trkpt><trkpt lat="40.194873" lon="18.4532894"><ele>9.0</ele><time>2026-04-04T14:31:37.186Z</time></trkpt><trkpt lat="40.1946223" lon="18.4532828"><ele>9.0</ele><time>2026-04-04T14:31:38.187Z</time></trkpt><trkpt lat="40.194365" lon="18.4532741"><ele>9.0</ele><time>2026-04-04T14:31:39.186Z</time></trkpt><trkpt lat="40.1941026" lon="18.4532645"><ele>9.0</ele><time>2026-04-04T14:31:40.186Z</time></trkpt><trkpt lat="40.1938391" lon="18.4532564"><ele>9.0</ele><time>2026-04-04T14:31:41.187Z</time></trkpt><trkpt lat="40.1935878" lon="18.453247"><ele>9.0</ele><time>2026-04-04T14:31:42.187Z</time></trkpt><trkpt lat="40.193343" lon="18.4532354"><ele>9.0</ele><time>2026-04-04T14:31:43.187Z</time></trkpt><trkpt lat="40.1930948" lon="18.4532354"><ele>10.0</ele><time>2026-04-04T14:31:44.185Z</time></trkpt><trkpt lat="40.1928577" lon="18.453256"><ele>11.0</ele><time>2026-04-04T14:31:45.187Z</time></trkpt><trkpt lat="40.1926439" lon="18.4533059"><ele>11.0</ele><time>2026-04-04T14:31:46.186Z</time></trkpt><trkpt lat="40.192448" lon="18.4533749"><ele>11.0</ele><time>2026-04-04T14:31:47.187Z</time></trkpt><trkpt lat="40.1922906" lon="18.4534501"><ele>11.0</ele><time>2026-04-04T14:31:48.187Z</time></trkpt><trkpt lat="40.1921622" lon="18.4534957"><ele>11.333333333333332</ele><time>2026-04-04T14:31:49.186Z</time></trkpt><trkpt lat="40.192057" lon="18.4535083"><ele>11.666666666666666</ele><time>2026-04-04T14:31:50.187Z</time></trkpt><trkpt lat="40.1919703" lon="18.4534764"><ele>12.0</ele><time>2026-04-04T14:31:51.187Z</time></trkpt><trkpt lat="40.1918925" lon="18.4534186"><ele>12.333333333333332</ele><time>2026-04-04T14:31:52.185Z</time></trkpt><trkpt lat="40.1918281" lon="18.4533572"><ele>12.666666666666666</ele><time>2026-04-04T14:31:53.187Z</time></trkpt><trkpt lat="40.191755" lon="18.4533361"><ele>13.0</ele><time>2026-04-04T14:31:54.187Z</time></trkpt><trkpt lat="40.1916788" lon="18.453368"><ele>13.0</ele><time>2026-04-04T14:31:55.186Z</time></trkpt><trkpt lat="40.1916259" lon="18.4534464"><ele>13.0</ele><time>2026-04-04T14:31:56.187Z</time></trkpt><trkpt lat="40.1915993" lon="18.4535476"><ele>13.0</ele><time>2026-04-04T14:31:57.187Z</time></trkpt><trkpt lat="40.1915877" lon="18.4536862"><ele>13.0</ele><time>2026-04-04T14:31:58.187Z</time></trkpt><trkpt lat="40.1915459" lon="18.4538178"><ele>13.0</ele><time>2026-04-04T14:31:59.187Z</time></trkpt><trkpt lat="40.1914821" lon="18.4539295"><ele>12.5</ele><time>2026-04-04T14:32:00.187Z</time></trkpt><trkpt lat="40.1913801" lon="18.4540196"><ele>12.0</ele><time>2026-04-04T14:32:01.187Z</time></trkpt><trkpt lat="40.1912532" lon="18.454108"><ele>11.5</ele><time>2026-04-04T14:32:02.186Z</time></trkpt><trkpt lat="40.1911002" lon="18.4542081"><ele>11.0</ele><time>2026-04-04T14:32:03.186Z</time></trkpt><trkpt lat="40.1909244" lon="18.4543214"><ele>11.0</ele><time>2026-04-04T14:32:04.187Z</time></trkpt><trkpt lat="40.1907291" lon="18.4544388"><ele>11.0</ele><time>2026-04-04T14:32:05.186Z</time></trkpt><trkpt lat="40.19052" lon="18.4545716"><ele>11.0</ele><time>2026-04-04T14:32:06.187Z</time></trkpt><trkpt lat="40.1902945" lon="18.4547131"><ele>10.5</ele><time>2026-04-04T14:32:07.187Z</time></trkpt><trkpt lat="40.1900541" lon="18.4548559"><ele>10.0</ele><time>2026-04-04T14:32:08.186Z</time></trkpt><trkpt lat="40.1898141" lon="18.4550016"><ele>10.0</ele><time>2026-04-04T14:32:09.187Z</time></trkpt><trkpt lat="40.1895775" lon="18.4551501"><ele>10.0</ele><time>2026-04-04T14:32:10.187Z</time></trkpt><trkpt lat="40.1893448" lon="18.4552976"><ele>10.0</ele><time>2026-04-04T14:32:11.188Z</time></trkpt><trkpt lat="40.1891077" lon="18.4554477"><ele>10.0</ele><time>2026-04-04T14:32:12.185Z</time></trkpt><trkpt lat="40.1888714" lon="18.4555874"><ele>10.0</ele><time>2026-04-04T14:32:13.186Z</time></trkpt><trkpt lat="40.1886327" lon="18.455727"><ele>10.0</ele><time>2026-04-04T14:32:14.186Z</time></trkpt><trkpt lat="40.1883898" lon="18.4558554"><ele>9.5</ele><time>2026-04-04T14:32:15.186Z</time></trkpt><trkpt lat="40.1881451" lon="18.4559819"><ele>9.0</ele><time>2026-04-04T14:32:16.186Z</time></trkpt><trkpt lat="40.1878897" lon="18.4561046"><ele>9.0</ele><time>2026-04-04T14:32:17.188Z</time></trkpt><trkpt lat="40.1876194" lon="18.4562144"><ele>9.0</ele><time>2026-04-04T14:32:18.186Z</time></trkpt><trkpt lat="40.1873523" lon="18.4563215"><ele>10.0</ele><time>2026-04-04T14:32:19.185Z</time></trkpt><trkpt lat="40.1870882" lon="18.4564456"><ele>11.0</ele><time>2026-04-04T14:32:20.186Z</time></trkpt><trkpt lat="40.186821" lon="18.4565599"><ele>11.0</ele><time>2026-04-04T14:32:21.185Z</time></trkpt><trkpt lat="40.1865496" lon="18.4566615"><ele>11.0</ele><time>2026-04-04T14:32:22.187Z</time></trkpt><trkpt lat="40.1862951" lon="18.4567855"><ele>10.5</ele><time>2026-04-04T14:32:23.187Z</time></trkpt><trkpt lat="40.1860269" lon="18.4569072"><ele>10.0</ele><time>2026-04-04T14:32:24.187Z</time></trkpt><trkpt lat="40.1857636" lon="18.4570536"><ele>10.5</ele><time>2026-04-04T14:32:25.186Z</time></trkpt><trkpt lat="40.1855051" lon="18.4572201"><ele>11.0</ele><time>2026-04-04T14:32:26.187Z</time></trkpt><trkpt lat="40.1852633" lon="18.4574201"><ele>11.0</ele><time>2026-04-04T14:32:27.187Z</time></trkpt><trkpt lat="40.1850221" lon="18.4576086"><ele>11.0</ele><time>2026-04-04T14:32:28.186Z</time></trkpt><trkpt lat="40.1847816" lon="18.4577903"><ele>10.0</ele><time>2026-04-04T14:32:29.185Z</time></trkpt><trkpt lat="40.1845475" lon="18.4579766"><ele>9.0</ele><time>2026-04-04T14:32:30.187Z</time></trkpt><trkpt lat="40.1843168" lon="18.4581632"><ele>9.0</ele><time>2026-04-04T14:32:31.188Z</time></trkpt><trkpt lat="40.1840817" lon="18.4583572"><ele>9.0</ele><time>2026-04-04T14:32:32.186Z</time></trkpt><trkpt lat="40.183835" lon="18.4585698"><ele>9.5</ele><time>2026-04-04T14:32:33.186Z</time></trkpt><trkpt lat="40.1835752" lon="18.4587838"><ele>10.0</ele><time>2026-04-04T14:32:34.187Z</time></trkpt><trkpt lat="40.1833036" lon="18.4589956"><ele>11.5</ele><time>2026-04-04T14:32:35.187Z</time></trkpt><trkpt lat="40.1830263" lon="18.4592081"><ele>13.0</ele><time>2026-04-04T14:32:36.187Z</time></trkpt><trkpt lat="40.1827523" lon="18.4594231"><ele>13.0</ele><time>2026-04-04T14:32:37.187Z</time></trkpt><trkpt lat="40.1824796" lon="18.4596356"><ele>13.0</ele><time>2026-04-04T14:32:38.188Z</time></trkpt><trkpt lat="40.1822193" lon="18.4598428"><ele>13.0</ele><time>2026-04-04T14:32:39.187Z</time></trkpt><trkpt lat="40.1819654" lon="18.4600538"><ele>13.0</ele><time>2026-04-04T14:32:40.188Z</time></trkpt><trkpt lat="40.1817199" lon="18.4602491"><ele>13.5</ele><time>2026-04-04T14:32:41.187Z</time></trkpt><trkpt lat="40.1814893" lon="18.4604419"><ele>14.0</ele><time>2026-04-04T14:32:42.187Z</time></trkpt><trkpt lat="40.1812497" lon="18.4606112"><ele>14.5</ele><time>2026-04-04T14:32:43.187Z</time></trkpt><trkpt lat="40.1809973" lon="18.4607484"><ele>15.0</ele><time>2026-04-04T14:32:44.187Z</time></trkpt><trkpt lat="40.1807293" lon="18.4608555"><ele>16.0</ele><time>2026-04-04T14:32:45.186Z</time></trkpt><trkpt lat="40.1804574" lon="18.4609487"><ele>17.0</ele><time>2026-04-04T14:32:46.186Z</time></trkpt><trkpt lat="40.1801862" lon="18.4610387"><ele>17.0</ele><time>2026-04-04T14:32:47.188Z</time></trkpt><trkpt lat="40.1799209" lon="18.4611249"><ele>17.0</ele><time>2026-04-04T14:32:48.188Z</time></trkpt><trkpt lat="40.179675" lon="18.4612045"><ele>17.0</ele><time>2026-04-04T14:32:49.187Z</time></trkpt><trkpt lat="40.1794214" lon="18.4612743"><ele>17.0</ele><time>2026-04-04T14:32:50.186Z</time></trkpt><trkpt lat="40.1791841" lon="18.4613544"><ele>17.5</ele><time>2026-04-04T14:32:51.186Z</time></trkpt><trkpt lat="40.1789522" lon="18.4614567"><ele>18.0</ele><time>2026-04-04T14:32:52.188Z</time></trkpt><trkpt lat="40.1787154" lon="18.4615898"><ele>18.0</ele><time>2026-04-04T14:32:53.187Z</time></trkpt><trkpt lat="40.1784632" lon="18.4617315"><ele>18.0</ele><time>2026-04-04T14:32:54.187Z</time></trkpt><trkpt lat="40.1781974" lon="18.4618739"><ele>18.5</ele><time>2026-04-04T14:32:55.186Z</time></trkpt><trkpt lat="40.1779242" lon="18.4620283"><ele>19.0</ele><time>2026-04-04T14:32:56.187Z</time></trkpt><trkpt lat="40.1776429" lon="18.4621912"><ele>20.0</ele><time>2026-04-04T14:32:57.187Z</time></trkpt><trkpt lat="40.1773644" lon="18.4623593"><ele>21.0</ele><time>2026-04-04T14:32:58.186Z</time></trkpt><trkpt lat="40.1770865" lon="18.4625322"><ele>21.0</ele><time>2026-04-04T14:32:59.186Z</time></trkpt><trkpt lat="40.1768072" lon="18.4626949"><ele>21.0</ele><time>2026-04-04T14:33:00.186Z</time></trkpt><trkpt lat="40.1765288" lon="18.4628547"><ele>21.5</ele><time>2026-04-04T14:33:01.186Z</time></trkpt><trkpt lat="40.1762562" lon="18.4630137"><ele>22.0</ele><time>2026-04-04T14:33:02.187Z</time></trkpt><trkpt lat="40.1759834" lon="18.4631725"><ele>22.0</ele><time>2026-04-04T14:33:03.186Z</time></trkpt><trkpt lat="40.1757163" lon="18.4633339"><ele>22.0</ele><time>2026-04-04T14:33:04.186Z</time></trkpt><trkpt lat="40.1754514" lon="18.4634931"><ele>21.5</ele><time>2026-04-04T14:33:05.187Z</time></trkpt><trkpt lat="40.1751919" lon="18.463651"><ele>21.0</ele><time>2026-04-04T14:33:06.186Z</time></trkpt><trkpt lat="40.1749286" lon="18.4638039"><ele>22.0</ele><time>2026-04-04T14:33:07.186Z</time></trkpt><trkpt lat="40.1746633" lon="18.463965"><ele>23.0</ele><time>2026-04-04T14:33:08.188Z</time></trkpt><trkpt lat="40.1743879" lon="18.4641212"><ele>23.0</ele><time>2026-04-04T14:33:09.187Z</time></trkpt><trkpt lat="40.1740993" lon="18.464284"><ele>23.0</ele><time>2026-04-04T14:33:10.187Z</time></trkpt><trkpt lat="40.1738205" lon="18.4644523"><ele>23.5</ele><time>2026-04-04T14:33:11.188Z</time></trkpt><trkpt lat="40.1735515" lon="18.4646161"><ele>24.0</ele><time>2026-04-04T14:33:12.188Z</time></trkpt><trkpt lat="40.1732973" lon="18.4647741"><ele>24.5</ele><time>2026-04-04T14:33:13.187Z</time></trkpt><trkpt lat="40.1730356" lon="18.464907"><ele>25.0</ele><time>2026-04-04T14:33:14.186Z</time></trkpt><trkpt lat="40.1727686" lon="18.4650307"><ele>25.0</ele><time>2026-04-04T14:33:15.186Z</time></trkpt><trkpt lat="40.1724835" lon="18.4650964"><ele>25.0</ele><time>2026-04-04T14:33:16.187Z</time></trkpt><trkpt lat="40.1722198" lon="18.4651609"><ele>23.5</ele><time>2026-04-04T14:33:17.185Z</time></trkpt><trkpt lat="40.17196" lon="18.4652264"><ele>22.0</ele><time>2026-04-04T14:33:18.186Z</time></trkpt><trkpt lat="40.1717048" lon="18.4652702"><ele>22.5</ele><time>2026-04-04T14:33:19.186Z</time></trkpt><trkpt lat="40.1714548" lon="18.465312"><ele>23.0</ele><time>2026-04-04T14:33:20.188Z</time></trkpt><trkpt lat="40.1711974" lon="18.4653534"><ele>23.0</ele><time>2026-04-04T14:33:21.187Z</time></trkpt><trkpt lat="40.1709402" lon="18.465397"><ele>23.0</ele><time>2026-04-04T14:33:22.186Z</time></trkpt><trkpt lat="40.1706854" lon="18.4654322"><ele>23.0</ele><time>2026-04-04T14:33:23.186Z</time></trkpt><trkpt lat="40.1704236" lon="18.4654742"><ele>23.0</ele><time>2026-04-04T14:33:24.188Z</time></trkpt><trkpt lat="40.1701652" lon="18.465517"><ele>23.0</ele><time>2026-04-04T14:33:25.187Z</time></trkpt><trkpt lat="40.1699165" lon="18.4655586"><ele>23.0</ele><time>2026-04-04T14:33:26.186Z</time></trkpt><trkpt lat="40.1696766" lon="18.4656077"><ele>23.5</ele><time>2026-04-04T14:33:27.188Z</time></trkpt><trkpt lat="40.16944" lon="18.4656875"><ele>24.0</ele><time>2026-04-04T14:33:28.187Z</time></trkpt><trkpt lat="40.1692223" lon="18.4658053"><ele>24.5</ele><time>2026-04-04T14:33:29.187Z</time></trkpt><trkpt lat="40.1690247" lon="18.4659589"><ele>25.0</ele><time>2026-04-04T14:33:30.186Z</time></trkpt><trkpt lat="40.1688458" lon="18.4661597"><ele>25.0</ele><time>2026-04-04T14:33:31.188Z</time></trkpt><trkpt lat="40.1686675" lon="18.4663663"><ele>25.0</ele><time>2026-04-04T14:33:32.187Z</time></trkpt><trkpt lat="40.1685038" lon="18.4665931"><ele>25.0</ele><time>2026-04-04T14:33:33.187Z</time></trkpt><trkpt lat="40.1683462" lon="18.4667998"><ele>25.0</ele><time>2026-04-04T14:33:34.187Z</time></trkpt><trkpt lat="40.168183" lon="18.4669992"><ele>25.0</ele><time>2026-04-04T14:33:35.186Z</time></trkpt><trkpt lat="40.1680258" lon="18.4671786"><ele>24.333333333333336</ele><time>2026-04-04T14:33:36.187Z</time></trkpt><trkpt lat="40.1678491" lon="18.467334"><ele>23.666666666666668</ele><time>2026-04-04T14:33:37.187Z</time></trkpt><trkpt lat="40.1676613" lon="18.4674848"><ele>23.0</ele><time>2026-04-04T14:33:38.186Z</time></trkpt><trkpt lat="40.1674676" lon="18.467632"><ele>23.0</ele><time>2026-04-04T14:33:39.187Z</time></trkpt><trkpt lat="40.1672761" lon="18.4677734"><ele>23.0</ele><time>2026-04-04T14:33:40.187Z</time></trkpt><trkpt lat="40.1670926" lon="18.4679165"><ele>23.0</ele><time>2026-04-04T14:33:41.186Z</time></trkpt><trkpt lat="40.166913" lon="18.4680586"><ele>23.0</ele><time>2026-04-04T14:33:42.185Z</time></trkpt><trkpt lat="40.1667278" lon="18.4681914"><ele>23.0</ele><time>2026-04-04T14:33:43.187Z</time></trkpt><trkpt lat="40.1665481" lon="18.4683224"><ele>23.0</ele><time>2026-04-04T14:33:44.187Z</time></trkpt><trkpt lat="40.1663576" lon="18.4684588"><ele>24.0</ele><time>2026-04-04T14:33:45.186Z</time></trkpt><trkpt lat="40.1661573" lon="18.4686134"><ele>25.0</ele><time>2026-04-04T14:33:46.187Z</time></trkpt><trkpt lat="40.1659198" lon="18.4687934"><ele>25.0</ele><time>2026-04-04T14:33:47.186Z</time></trkpt><trkpt lat="40.1656683" lon="18.4689832"><ele>25.0</ele><time>2026-04-04T14:33:48.186Z</time></trkpt><trkpt lat="40.165384" lon="18.4691875"><ele>25.0</ele><time>2026-04-04T14:33:49.185Z</time></trkpt><trkpt lat="40.1650815" lon="18.4694053"><ele>25.0</ele><time>2026-04-04T14:33:50.187Z</time></trkpt><trkpt lat="40.1647628" lon="18.4696164"><ele>25.0</ele><time>2026-04-04T14:33:51.187Z</time></trkpt><trkpt lat="40.1644427" lon="18.4698307"><ele>25.0</ele><time>2026-04-04T14:33:52.185Z</time></trkpt><trkpt lat="40.1641195" lon="18.4700451"><ele>25.5</ele><time>2026-04-04T14:33:53.186Z</time></trkpt><trkpt lat="40.1637951" lon="18.4702658"><ele>26.0</ele><time>2026-04-04T14:33:54.186Z</time></trkpt><trkpt lat="40.1634849" lon="18.4704827"><ele>26.0</ele><time>2026-04-04T14:33:55.188Z</time></trkpt><trkpt lat="40.1631782" lon="18.4706979"><ele>26.0</ele><time>2026-04-04T14:33:56.187Z</time></trkpt><trkpt lat="40.1628813" lon="18.4709141"><ele>26.0</ele><time>2026-04-04T14:33:57.186Z</time></trkpt><trkpt lat="40.1625834" lon="18.4711273"><ele>26.0</ele><time>2026-04-04T14:33:58.186Z</time></trkpt><trkpt lat="40.1622931" lon="18.4713416"><ele>25.5</ele><time>2026-04-04T14:33:59.186Z</time></trkpt><trkpt lat="40.1620021" lon="18.4715537"><ele>25.0</ele><time>2026-04-04T14:34:00.187Z</time></trkpt><trkpt lat="40.1617109" lon="18.4717581"><ele>24.5</ele><time>2026-04-04T14:34:01.188Z</time></trkpt><trkpt lat="40.1614208" lon="18.4719674"><ele>24.0</ele><time>2026-04-04T14:34:02.186Z</time></trkpt><trkpt lat="40.1611273" lon="18.472177"><ele>24.0</ele><time>2026-04-04T14:34:03.186Z</time></trkpt><trkpt lat="40.1608194" lon="18.4723967"><ele>24.0</ele><time>2026-04-04T14:34:04.187Z</time></trkpt><trkpt lat="40.1605092" lon="18.4726151"><ele>24.0</ele><time>2026-04-04T14:34:05.187Z</time></trkpt><trkpt lat="40.160201" lon="18.4728332"><ele>24.0</ele><time>2026-04-04T14:34:06.187Z</time></trkpt><trkpt lat="40.1598975" lon="18.4730491"><ele>24.5</ele><time>2026-04-04T14:34:07.187Z</time></trkpt><trkpt lat="40.1596015" lon="18.4732582"><ele>25.0</ele><time>2026-04-04T14:34:08.187Z</time></trkpt><trkpt lat="40.1593164" lon="18.4734645"><ele>25.0</ele><time>2026-04-04T14:34:09.187Z</time></trkpt><trkpt lat="40.159031" lon="18.473668"><ele>25.0</ele><time>2026-04-04T14:34:10.187Z</time></trkpt><trkpt lat="40.158756" lon="18.4738663"><ele>25.0</ele><time>2026-04-04T14:34:11.188Z</time></trkpt><trkpt lat="40.1584836" lon="18.4740572"><ele>25.0</ele><time>2026-04-04T14:34:12.187Z</time></trkpt><trkpt lat="40.1582127" lon="18.4742476"><ele>25.0</ele><time>2026-04-04T14:34:13.187Z</time></trkpt><trkpt lat="40.1579467" lon="18.4744449"><ele>25.0</ele><time>2026-04-04T14:34:14.187Z</time></trkpt><trkpt lat="40.1576926" lon="18.4746607"><ele>24.5</ele><time>2026-04-04T14:34:15.187Z</time></trkpt><trkpt lat="40.1574453" lon="18.4748893"><ele>24.0</ele><time>2026-04-04T14:34:16.187Z</time></trkpt><trkpt lat="40.157218" lon="18.4751257"><ele>24.5</ele><time>2026-04-04T14:34:17.187Z</time></trkpt><trkpt lat="40.1570085" lon="18.4753787"><ele>25.0</ele><time>2026-04-04T14:34:18.186Z</time></trkpt><trkpt lat="40.1568149" lon="18.4756443"><ele>25.0</ele><time>2026-04-04T14:34:19.186Z</time></trkpt><trkpt lat="40.1566277" lon="18.4759072"><ele>25.0</ele><time>2026-04-04T14:34:20.186Z</time></trkpt><trkpt lat="40.1564458" lon="18.4761839"><ele>25.0</ele><time>2026-04-04T14:34:21.186Z</time></trkpt><trkpt lat="40.1562722" lon="18.4764639"><ele>25.0</ele><time>2026-04-04T14:34:22.187Z</time></trkpt><trkpt lat="40.1560985" lon="18.47672"><ele>25.0</ele><time>2026-04-04T14:34:23.186Z</time></trkpt><trkpt lat="40.1559368" lon="18.4769664"><ele>25.0</ele><time>2026-04-04T14:34:24.188Z</time></trkpt><trkpt lat="40.1557726" lon="18.477203"><ele>24.666666666666668</ele><time>2026-04-04T14:34:25.187Z</time></trkpt><trkpt lat="40.1556359" lon="18.4774146"><ele>24.333333333333336</ele><time>2026-04-04T14:34:26.188Z</time></trkpt><trkpt lat="40.155492" lon="18.4776199"><ele>24.0</ele><time>2026-04-04T14:34:27.187Z</time></trkpt><trkpt lat="40.1553274" lon="18.4778012"><ele>24.0</ele><time>2026-04-04T14:34:28.188Z</time></trkpt><trkpt lat="40.1551524" lon="18.477973"><ele>24.0</ele><time>2026-04-04T14:34:29.186Z</time></trkpt><trkpt lat="40.1549809" lon="18.4781395"><ele>24.0</ele><time>2026-04-04T14:34:30.185Z</time></trkpt><trkpt lat="40.1548022" lon="18.4783102"><ele>24.0</ele><time>2026-04-04T14:34:31.186Z</time></trkpt><trkpt lat="40.1546288" lon="18.4784788"><ele>24.0</ele><time>2026-04-04T14:34:32.187Z</time></trkpt><trkpt lat="40.1544601" lon="18.4786488"><ele>24.0</ele><time>2026-04-04T14:34:33.187Z</time></trkpt><trkpt lat="40.1542936" lon="18.478815"><ele>23.333333333333332</ele><time>2026-04-04T14:34:34.186Z</time></trkpt><trkpt lat="40.1541301" lon="18.4789781"><ele>22.666666666666664</ele><time>2026-04-04T14:34:35.188Z</time></trkpt><trkpt lat="40.1539635" lon="18.4791361"><ele>22.0</ele><time>2026-04-04T14:34:36.187Z</time></trkpt><trkpt lat="40.1537994" lon="18.4792989"><ele>22.0</ele><time>2026-04-04T14:34:37.186Z</time></trkpt><trkpt lat="40.1536393" lon="18.4794589"><ele>22.0</ele><time>2026-04-04T14:34:38.188Z</time></trkpt><trkpt lat="40.1534896" lon="18.4796115"><ele>22.0</ele><time>2026-04-04T14:34:39.187Z</time></trkpt><trkpt lat="40.153342" lon="18.4797478"><ele>21.666666666666664</ele><time>2026-04-04T14:34:40.187Z</time></trkpt><trkpt lat="40.1531984" lon="18.4798751"><ele>21.333333333333332</ele><time>2026-04-04T14:34:41.187Z</time></trkpt><trkpt lat="40.1530717" lon="18.4799941"><ele>21.0</ele><time>2026-04-04T14:34:42.186Z</time></trkpt><trkpt lat="40.1529568" lon="18.4801144"><ele>21.0</ele><time>2026-04-04T14:34:43.187Z</time></trkpt><trkpt lat="40.1528487" lon="18.4802207"><ele>21.0</ele><time>2026-04-04T14:34:44.186Z</time></trkpt><trkpt lat="40.1527438" lon="18.4803259"><ele>21.0</ele><time>2026-04-04T14:34:45.187Z</time></trkpt><trkpt lat="40.1526335" lon="18.4804457"><ele>21.0</ele><time>2026-04-04T14:34:46.187Z</time></trkpt><trkpt lat="40.1525153" lon="18.4805662"><ele>20.666666666666668</ele><time>2026-04-04T14:34:47.188Z</time></trkpt><trkpt lat="40.1523769" lon="18.4806778"><ele>20.333333333333336</ele><time>2026-04-04T14:34:48.187Z</time></trkpt><trkpt lat="40.1522297" lon="18.4807986"><ele>20.0</ele><time>2026-04-04T14:34:49.188Z</time></trkpt><trkpt lat="40.1520938" lon="18.4809281"><ele>20.0</ele><time>2026-04-04T14:34:50.187Z</time></trkpt><trkpt lat="40.1519553" lon="18.4810561"><ele>20.0</ele><time>2026-04-04T14:34:51.186Z</time></trkpt><trkpt lat="40.1518145" lon="18.4811937"><ele>20.0</ele><time>2026-04-04T14:34:52.185Z</time></trkpt><trkpt lat="40.1516827" lon="18.4813265"><ele>19.666666666666668</ele><time>2026-04-04T14:34:53.187Z</time></trkpt><trkpt lat="40.1515555" lon="18.4814538"><ele>19.333333333333332</ele><time>2026-04-04T14:34:54.186Z</time></trkpt><trkpt lat="40.1514308" lon="18.4815741"><ele>19.0</ele><time>2026-04-04T14:34:55.187Z</time></trkpt><trkpt lat="40.1513124" lon="18.4816881"><ele>19.75</ele><time>2026-04-04T14:34:56.187Z</time></trkpt><trkpt lat="40.1511986" lon="18.4817889"><ele>20.5</ele><time>2026-04-04T14:34:57.186Z</time></trkpt><trkpt lat="40.1510896" lon="18.4818763"><ele>21.25</ele><time>2026-04-04T14:34:58.187Z</time></trkpt><trkpt lat="40.1509889" lon="18.481939"><ele>22.0</ele><time>2026-04-04T14:34:59.186Z</time></trkpt><trkpt lat="40.1508939" lon="18.4819994"><ele>22.0</ele><time>2026-04-04T14:35:00.186Z</time></trkpt><trkpt lat="40.1508123" lon="18.4820717"><ele>22.0</ele><time>2026-04-04T14:35:01.187Z</time></trkpt><trkpt lat="40.1507338" lon="18.4821516"><ele>22.0</ele><time>2026-04-04T14:35:02.186Z</time></trkpt><trkpt lat="40.1506657" lon="18.4822381"><ele>22.0</ele><time>2026-04-04T14:35:03.186Z</time></trkpt><trkpt lat="40.1506023" lon="18.4823441"><ele>22.0</ele><time>2026-04-04T14:35:04.186Z</time></trkpt><trkpt lat="40.1505226" lon="18.4824501"><ele>22.0</ele><time>2026-04-04T14:35:05.186Z</time></trkpt><trkpt lat="40.1504248" lon="18.482573"><ele>22.0</ele><time>2026-04-04T14:35:06.187Z</time></trkpt><trkpt lat="40.15032" lon="18.4826944"><ele>22.0</ele><time>2026-04-04T14:35:07.187Z</time></trkpt><trkpt lat="40.1502088" lon="18.4828128"><ele>22.0</ele><time>2026-04-04T14:35:08.188Z</time></trkpt><trkpt lat="40.1500987" lon="18.4829243"><ele>21.6</ele><time>2026-04-04T14:35:09.187Z</time></trkpt><trkpt lat="40.1500011" lon="18.4830125"><ele>21.200000000000003</ele><time>2026-04-04T14:35:10.187Z</time></trkpt><trkpt lat="40.149897" lon="18.4830913"><ele>20.8</ele><time>2026-04-04T14:35:11.187Z</time></trkpt><trkpt lat="40.1497999" lon="18.4831683"><ele>20.4</ele><time>2026-04-04T14:35:12.186Z</time></trkpt><trkpt lat="40.1497177" lon="18.4832258"><ele>20.0</ele><time>2026-04-04T14:35:13.187Z</time></trkpt><trkpt lat="40.1496337" lon="18.4832631"><ele>20.0</ele><time>2026-04-04T14:35:14.186Z</time></trkpt><trkpt lat="40.1495497" lon="18.483287"><ele>20.0</ele><time>2026-04-04T14:35:16.186Z</time></trkpt><trkpt lat="40.1494785" lon="18.4832726"><ele>20.0</ele><time>2026-04-04T14:35:21.187Z</time></trkpt><trkpt lat="40.1494081" lon="18.4833097"><ele>20.0</ele><time>2026-04-04T14:35:25.186Z</time></trkpt><trkpt lat="40.1493341" lon="18.4833328"><ele>20.0</ele><time>2026-04-04T14:35:27.188Z</time></trkpt><trkpt lat="40.1492627" lon="18.4833247"><ele>20.0</ele><time>2026-04-04T14:35:29.188Z</time></trkpt><trkpt lat="40.1491983" lon="18.4832414"><ele>20.0</ele><time>2026-04-04T14:35:32.186Z</time></trkpt><trkpt lat="40.1491566" lon="18.4831657"><ele>20.0</ele><time>2026-04-04T14:35:34.187Z</time></trkpt><trkpt lat="40.1490758" lon="18.4831354"><ele>20.0</ele><time>2026-04-04T14:35:36.187Z</time></trkpt><trkpt lat="40.1490165" lon="18.4831642"><ele>20.0</ele><time>2026-04-04T14:35:37.185Z</time></trkpt><trkpt lat="40.1488966" lon="18.4832199"><ele>20.0</ele><time>2026-04-04T14:35:39.187Z</time></trkpt><trkpt lat="40.1488275" lon="18.483222"><ele>20.0</ele><time>2026-04-04T14:35:40.187Z</time></trkpt><trkpt lat="40.1487084" lon="18.4831976"><ele>19.6</ele><time>2026-04-04T14:35:42.188Z</time></trkpt><trkpt lat="40.1486107" lon="18.4832556"><ele>19.2</ele><time>2026-04-04T14:35:44.186Z</time></trkpt><trkpt lat="40.148539" lon="18.4833843"><ele>18.8</ele><time>2026-04-04T14:35:46.186Z</time></trkpt><trkpt lat="40.1484944" lon="18.4834446"><ele>18.4</ele><time>2026-04-04T14:35:47.187Z</time></trkpt><trkpt lat="40.1484235" lon="18.4835103"><ele>18.0</ele><time>2026-04-04T14:35:48.188Z</time></trkpt><trkpt lat="40.1483342" lon="18.483589"><ele>18.0</ele><time>2026-04-04T14:35:49.188Z</time></trkpt><trkpt lat="40.1482337" lon="18.483679"><ele>18.0</ele><time>2026-04-04T14:35:50.186Z</time></trkpt><trkpt lat="40.1480973" lon="18.4837609"><ele>18.0</ele><time>2026-04-04T14:35:51.186Z</time></trkpt><trkpt lat="40.1479665" lon="18.4838446"><ele>18.0</ele><time>2026-04-04T14:35:52.186Z</time></trkpt><trkpt lat="40.1478398" lon="18.4839112"><ele>15.75</ele><time>2026-04-04T14:35:53.186Z</time></trkpt><trkpt lat="40.1477225" lon="18.4840014"><ele>13.5</ele><time>2026-04-04T14:35:54.187Z</time></trkpt><trkpt lat="40.1476224" lon="18.484104"><ele>11.25</ele><time>2026-04-04T14:35:55.186Z</time></trkpt><trkpt lat="40.1475941" lon="18.4842596"><ele>9.0</ele><time>2026-04-04T14:35:56.187Z</time></trkpt><trkpt lat="40.1475843" lon="18.4844188"><ele>9.0</ele><time>2026-04-04T14:35:57.186Z</time></trkpt><trkpt lat="40.147616" lon="18.4845703"><ele>9.0</ele><time>2026-04-04T14:35:58.187Z</time></trkpt><trkpt lat="40.14769" lon="18.4846914"><ele>9.0</ele><time>2026-04-04T14:35:59.187Z</time></trkpt><trkpt lat="40.1477664" lon="18.4847781"><ele>9.0</ele><time>2026-04-04T14:36:00.186Z</time></trkpt><trkpt lat="40.147872" lon="18.4847761"><ele>9.0</ele><time>2026-04-04T14:36:01.186Z</time></trkpt><trkpt lat="40.1479657" lon="18.4847847"><ele>8.5</ele><time>2026-04-04T14:36:02.188Z</time></trkpt><trkpt lat="40.1480449" lon="18.4848096"><ele>8.0</ele><time>2026-04-04T14:36:03.185Z</time></trkpt><trkpt lat="40.148109" lon="18.4848712"><ele>7.5</ele><time>2026-04-04T14:36:04.187Z</time></trkpt><trkpt lat="40.1481464" lon="18.4849523"><ele>7.0</ele><time>2026-04-04T14:36:05.187Z</time></trkpt><trkpt lat="40.1481476" lon="18.4850437"><ele>6.5</ele><time>2026-04-04T14:36:06.186Z</time></trkpt><trkpt lat="40.1481307" lon="18.4851339"><ele>6.0</ele><time>2026-04-04T14:36:07.186Z</time></trkpt><trkpt lat="40.1481019" lon="18.485227"><ele>6.0</ele><time>2026-04-04T14:36:08.187Z</time></trkpt><trkpt lat="40.1480707" lon="18.4853166"><ele>6.0</ele><time>2026-04-04T14:36:09.188Z</time></trkpt><trkpt lat="40.1480456" lon="18.4854"><ele>6.0</ele><time>2026-04-04T14:36:10.187Z</time></trkpt><trkpt lat="40.1480223" lon="18.4854871"><ele>6.0</ele><time>2026-04-04T14:36:11.187Z</time></trkpt><trkpt lat="40.1479976" lon="18.4856191"><ele>6.0</ele><time>2026-04-04T14:36:13.188Z</time></trkpt><trkpt lat="40.148" lon="18.4857305"><ele>6.0</ele><time>2026-04-04T14:36:19.187Z</time></trkpt><trkpt lat="40.1480083" lon="18.4858216"><ele>5.833333333333333</ele><time>2026-04-04T14:36:22.187Z</time></trkpt><trkpt lat="40.1480022" lon="18.4859145"><ele>5.666666666666667</ele><time>2026-04-04T14:36:24.187Z</time></trkpt><trkpt lat="40.147951" lon="18.4859984"><ele>5.5</ele><time>2026-04-04T14:36:26.186Z</time></trkpt><trkpt lat="40.1478937" lon="18.4860591"><ele>5.333333333333334</ele><time>2026-04-04T14:36:28.187Z</time></trkpt><trkpt lat="40.1478392" lon="18.4861326"><ele>5.166666666666667</ele><time>2026-04-04T14:36:31.186Z</time></trkpt><trkpt lat="40.1477775" lon="18.4862054"><ele>5.0</ele><time>2026-04-04T14:36:34.187Z</time></trkpt><trkpt lat="40.1477242" lon="18.4862648"><ele>5.0</ele><time>2026-04-04T14:36:36.187Z</time></trkpt><trkpt lat="40.1476326" lon="18.4863446"><ele>5.0</ele><time>2026-04-04T14:36:38.187Z</time></trkpt><trkpt lat="40.147583" lon="18.4863988"><ele>5.0</ele><time>2026-04-04T14:36:39.185Z</time></trkpt><trkpt lat="40.1474878" lon="18.486518"><ele>5.0</ele><time>2026-04-04T14:36:41.186Z</time></trkpt><trkpt lat="40.1474403" lon="18.4865843"><ele>5.0</ele><time>2026-04-04T14:36:42.187Z</time></trkpt><trkpt lat="40.1473869" lon="18.4866303"><ele>5.0</ele><time>2026-04-04T14:36:43.187Z</time></trkpt><trkpt lat="40.1473282" lon="18.4866887"><ele>4.5</ele><time>2026-04-04T14:36:45.187Z</time></trkpt><trkpt lat="40.147263" lon="18.4867399"><ele>4.0</ele><time>2026-04-04T14:36:48.186Z</time></trkpt><trkpt lat="40.1471995" lon="18.4868144"><ele>3.5</ele><time>2026-04-04T14:36:51.187Z</time></trkpt><trkpt lat="40.1471009" lon="18.486908"><ele>3.0</ele><time>2026-04-04T14:36:54.186Z</time></trkpt><trkpt lat="40.1470329" lon="18.4869599"><ele>2.5</ele><time>2026-04-04T14:36:55.187Z</time></trkpt><trkpt lat="40.1469691" lon="18.4870208"><ele>2.0</ele><time>2026-04-04T14:36:56.186Z</time></trkpt><trkpt lat="40.1468925" lon="18.4870816"><ele>2.4000000000000004</ele><time>2026-04-04T14:36:57.186Z</time></trkpt><trkpt lat="40.1468096" lon="18.4871488"><ele>2.8000000000000003</ele><time>2026-04-04T14:36:58.186Z</time></trkpt><trkpt lat="40.1467217" lon="18.4872317"><ele>3.2</ele><time>2026-04-04T14:36:59.186Z</time></trkpt><trkpt lat="40.146637" lon="18.4873234"><ele>3.6</ele><time>2026-04-04T14:37:00.188Z</time></trkpt><trkpt lat="40.1465399" lon="18.4874192"><ele>4.0</ele><time>2026-04-04T14:37:01.187Z</time></trkpt><trkpt lat="40.1464496" lon="18.4875214"><ele>5.0</ele><time>2026-04-04T14:37:02.187Z</time></trkpt><trkpt lat="40.1463468" lon="18.4876085"><ele>6.0</ele><time>2026-04-04T14:37:03.187Z</time></trkpt><trkpt lat="40.1462369" lon="18.4876859"><ele>7.0</ele><time>2026-04-04T14:37:04.187Z</time></trkpt><trkpt lat="40.1461212" lon="18.4877603"><ele>8.0</ele><time>2026-04-04T14:37:05.187Z</time></trkpt><trkpt lat="40.1460143" lon="18.4878367"><ele>8.0</ele><time>2026-04-04T14:37:06.185Z</time></trkpt><trkpt lat="40.1459085" lon="18.4879038"><ele>8.0</ele><time>2026-04-04T14:37:07.186Z</time></trkpt><trkpt lat="40.1458154" lon="18.4879697"><ele>8.0</ele><time>2026-04-04T14:37:08.186Z</time></trkpt><trkpt lat="40.1457353" lon="18.4880338"><ele>8.0</ele><time>2026-04-04T14:37:09.187Z</time></trkpt><trkpt lat="40.1456755" lon="18.4880728"><ele>8.0</ele><time>2026-04-04T14:37:10.187Z</time></trkpt><trkpt lat="40.1455684" lon="18.4880664"><ele>8.0</ele><time>2026-04-04T14:37:12.186Z</time></trkpt><trkpt lat="40.1454952" lon="18.4880109"><ele>8.0</ele><time>2026-04-04T14:37:13.185Z</time></trkpt><trkpt lat="40.1454154" lon="18.4879434"><ele>8.0</ele><time>2026-04-04T14:37:14.186Z</time></trkpt><trkpt lat="40.1453258" lon="18.4878738"><ele>8.0</ele><time>2026-04-04T14:37:15.186Z</time></trkpt><trkpt lat="40.1452234" lon="18.4878042"><ele>8.0</ele><time>2026-04-04T14:37:16.186Z</time></trkpt><trkpt lat="40.1451139" lon="18.4877316"><ele>8.0</ele><time>2026-04-04T14:37:17.187Z</time></trkpt><trkpt lat="40.1449999" lon="18.4876471"><ele>8.0</ele><time>2026-04-04T14:37:18.187Z</time></trkpt><trkpt lat="40.1448879" lon="18.4875623"><ele>8.0</ele><time>2026-04-04T14:37:19.186Z</time></trkpt><trkpt lat="40.1447681" lon="18.4874752"><ele>8.0</ele><time>2026-04-04T14:37:20.186Z</time></trkpt><trkpt lat="40.1446413" lon="18.4873837"><ele>9.0</ele><time>2026-04-04T14:37:21.188Z</time></trkpt><trkpt lat="40.1445148" lon="18.4872992"><ele>10.0</ele><time>2026-04-04T14:37:22.187Z</time></trkpt><trkpt lat="40.1443843" lon="18.4872117"><ele>11.0</ele><time>2026-04-04T14:37:23.186Z</time></trkpt><trkpt lat="40.144254" lon="18.4871265"><ele>12.0</ele><time>2026-04-04T14:37:24.187Z</time></trkpt><trkpt lat="40.1441239" lon="18.4870421"><ele>13.75</ele><time>2026-04-04T14:37:25.186Z</time></trkpt><trkpt lat="40.1439907" lon="18.4869633"><ele>15.5</ele><time>2026-04-04T14:37:26.186Z</time></trkpt><trkpt lat="40.1438563" lon="18.4868887"><ele>17.25</ele><time>2026-04-04T14:37:27.186Z</time></trkpt><trkpt lat="40.1437251" lon="18.4867973"><ele>19.0</ele><time>2026-04-04T14:37:28.187Z</time></trkpt><trkpt lat="40.1435925" lon="18.4867014"><ele>19.0</ele><time>2026-04-04T14:37:29.188Z</time></trkpt><trkpt lat="40.1434522" lon="18.4866063"><ele>19.0</ele><time>2026-04-04T14:37:30.188Z</time></trkpt><trkpt lat="40.1433248" lon="18.4865189"><ele>19.0</ele><time>2026-04-04T14:37:31.185Z</time></trkpt><trkpt lat="40.1431901" lon="18.4864374"><ele>20.0</ele><time>2026-04-04T14:37:32.186Z</time></trkpt><trkpt lat="40.1430618" lon="18.4863544"><ele>21.0</ele><time>2026-04-04T14:37:33.187Z</time></trkpt><trkpt lat="40.1429293" lon="18.4862635"><ele>22.0</ele><time>2026-04-04T14:37:34.186Z</time></trkpt><trkpt lat="40.1427963" lon="18.4861708"><ele>23.0</ele><time>2026-04-04T14:37:35.186Z</time></trkpt><trkpt lat="40.1426599" lon="18.4860761"><ele>23.0</ele><time>2026-04-04T14:37:36.185Z</time></trkpt><trkpt lat="40.1425178" lon="18.4859778"><ele>23.0</ele><time>2026-04-04T14:37:37.188Z</time></trkpt><trkpt lat="40.1423684" lon="18.4858916"><ele>23.0</ele><time>2026-04-04T14:37:38.186Z</time></trkpt><trkpt lat="40.1422086" lon="18.4858148"><ele>24.666666666666668</ele><time>2026-04-04T14:37:39.187Z</time></trkpt><trkpt lat="40.1420447" lon="18.485748"><ele>26.333333333333336</ele><time>2026-04-04T14:37:40.187Z</time></trkpt><trkpt lat="40.1418742" lon="18.4856938"><ele>28.0</ele><time>2026-04-04T14:37:41.186Z</time></trkpt><trkpt lat="40.1416942" lon="18.48565"><ele>28.666666666666668</ele><time>2026-04-04T14:37:42.186Z</time></trkpt><trkpt lat="40.141512" lon="18.4856097"><ele>29.333333333333336</ele><time>2026-04-04T14:37:43.186Z</time></trkpt><trkpt lat="40.1413339" lon="18.4855991"><ele>30.0</ele><time>2026-04-04T14:37:44.187Z</time></trkpt><trkpt lat="40.1411572" lon="18.4855955"><ele>30.0</ele><time>2026-04-04T14:37:45.186Z</time></trkpt><trkpt lat="40.1409905" lon="18.4856029"><ele>30.0</ele><time>2026-04-04T14:37:46.186Z</time></trkpt><trkpt lat="40.1408332" lon="18.4856153"><ele>30.0</ele><time>2026-04-04T14:37:47.187Z</time></trkpt><trkpt lat="40.1406904" lon="18.4856271"><ele>30.5</ele><time>2026-04-04T14:37:48.185Z</time></trkpt><trkpt lat="40.1405593" lon="18.4856269"><ele>31.0</ele><time>2026-04-04T14:37:49.185Z</time></trkpt><trkpt lat="40.1404363" lon="18.4856023"><ele>31.5</ele><time>2026-04-04T14:37:50.188Z</time></trkpt><trkpt lat="40.1403259" lon="18.4855571"><ele>32.0</ele><time>2026-04-04T14:37:51.185Z</time></trkpt><trkpt lat="40.1402363" lon="18.4855096"><ele>32.0</ele><time>2026-04-04T14:37:52.187Z</time></trkpt><trkpt lat="40.1401443" lon="18.4854752"><ele>32.0</ele><time>2026-04-04T14:37:53.187Z</time></trkpt><trkpt lat="40.140049" lon="18.4854887"><ele>32.0</ele><time>2026-04-04T14:37:54.187Z</time></trkpt><trkpt lat="40.139957" lon="18.4855263"><ele>32.0</ele><time>2026-04-04T14:37:55.187Z</time></trkpt><trkpt lat="40.1398607" lon="18.4855923"><ele>32.0</ele><time>2026-04-04T14:37:56.187Z</time></trkpt><trkpt lat="40.139745" lon="18.4856321"><ele>32.5</ele><time>2026-04-04T14:37:57.186Z</time></trkpt><trkpt lat="40.1396191" lon="18.4856453"><ele>33.0</ele><time>2026-04-04T14:37:58.186Z</time></trkpt><trkpt lat="40.1394945" lon="18.4856323"><ele>33.5</ele><time>2026-04-04T14:37:59.187Z</time></trkpt><trkpt lat="40.1393677" lon="18.4856149"><ele>34.0</ele><time>2026-04-04T14:38:00.187Z</time></trkpt><trkpt lat="40.1392235" lon="18.4855877"><ele>34.0</ele><time>2026-04-04T14:38:01.186Z</time></trkpt><trkpt lat="40.1390726" lon="18.4855424"><ele>34.0</ele><time>2026-04-04T14:38:02.187Z</time></trkpt><trkpt lat="40.1389108" lon="18.4854943"><ele>34.0</ele><time>2026-04-04T14:38:03.186Z</time></trkpt><trkpt lat="40.1387569" lon="18.4854475"><ele>34.66666666666667</ele><time>2026-04-04T14:38:04.186Z</time></trkpt><trkpt lat="40.1385906" lon="18.485395"><ele>35.333333333333336</ele><time>2026-04-04T14:38:05.188Z</time></trkpt><trkpt lat="40.1384232" lon="18.4853466"><ele>36.0</ele><time>2026-04-04T14:38:06.187Z</time></trkpt><trkpt lat="40.13825" lon="18.4852902"><ele>37.0</ele><time>2026-04-04T14:38:07.186Z</time></trkpt><trkpt lat="40.1380717" lon="18.4852404"><ele>38.0</ele><time>2026-04-04T14:38:08.187Z</time></trkpt><trkpt lat="40.1378983" lon="18.4851964"><ele>39.0</ele><time>2026-04-04T14:38:09.187Z</time></trkpt><trkpt lat="40.1377239" lon="18.4851462"><ele>39.0</ele><time>2026-04-04T14:38:10.186Z</time></trkpt><trkpt lat="40.1375557" lon="18.4851025"><ele>39.0</ele><time>2026-04-04T14:38:11.186Z</time></trkpt><trkpt lat="40.1374296" lon="18.4850692"><ele>39.0</ele><time>2026-04-04T14:38:12.187Z</time></trkpt><trkpt lat="40.1373484" lon="18.485054"><ele>39.0</ele><time>2026-04-04T14:38:13.185Z</time></trkpt><trkpt lat="40.1372838" lon="18.485047"><ele>39.0</ele><time>2026-04-04T14:38:14.187Z</time></trkpt><trkpt lat="40.1372394" lon="18.4851488"><ele>39.0</ele><time>2026-04-04T14:38:16.186Z</time></trkpt><trkpt lat="40.1372213" lon="18.4853084"><ele>39.0</ele><time>2026-04-04T14:38:18.186Z</time></trkpt><trkpt lat="40.1372392" lon="18.4854085"><ele>39.0</ele><time>2026-04-04T14:38:19.187Z</time></trkpt><trkpt lat="40.1372779" lon="18.4854966"><ele>39.0</ele><time>2026-04-04T14:38:20.186Z</time></trkpt><trkpt lat="40.1373374" lon="18.4855888"><ele>39.0</ele><time>2026-04-04T14:38:21.187Z</time></trkpt><trkpt lat="40.1374017" lon="18.4856867"><ele>38.6</ele><time>2026-04-04T14:38:22.187Z</time></trkpt><trkpt lat="40.1374732" lon="18.4857845"><ele>38.2</ele><time>2026-04-04T14:38:23.187Z</time></trkpt><trkpt lat="40.1375468" lon="18.4858843"><ele>37.800000000000004</ele><time>2026-04-04T14:38:24.187Z</time></trkpt><trkpt lat="40.1376216" lon="18.4859887"><ele>37.4</ele><time>2026-04-04T14:38:25.187Z</time></trkpt><trkpt lat="40.1376953" lon="18.4861107"><ele>37.0</ele><time>2026-04-04T14:38:26.186Z</time></trkpt><trkpt lat="40.137758" lon="18.4862531"><ele>37.25</ele><time>2026-04-04T14:38:27.187Z</time></trkpt><trkpt lat="40.1377984" lon="18.486417"><ele>37.5</ele><time>2026-04-04T14:38:28.187Z</time></trkpt><trkpt lat="40.1378156" lon="18.4866094"><ele>37.75</ele><time>2026-04-04T14:38:29.186Z</time></trkpt><trkpt lat="40.1377997" lon="18.4868086"><ele>38.0</ele><time>2026-04-04T14:38:30.186Z</time></trkpt><trkpt lat="40.1377598" lon="18.4870153"><ele>37.666666666666664</ele><time>2026-04-04T14:38:31.187Z</time></trkpt><trkpt lat="40.1376927" lon="18.4872284"><ele>37.333333333333336</ele><time>2026-04-04T14:38:32.186Z</time></trkpt><trkpt lat="40.1376301" lon="18.487445"><ele>37.0</ele><time>2026-04-04T14:38:33.188Z</time></trkpt><trkpt lat="40.1375657" lon="18.4876709"><ele>37.0</ele><time>2026-04-04T14:38:34.187Z</time></trkpt><trkpt lat="40.1375045" lon="18.4879093"><ele>37.0</ele><time>2026-04-04T14:38:35.188Z</time></trkpt><trkpt lat="40.1374332" lon="18.4881553"><ele>37.0</ele><time>2026-04-04T14:38:36.186Z</time></trkpt><trkpt lat="40.137366" lon="18.4884012"><ele>36.66666666666667</ele><time>2026-04-04T14:38:37.186Z</time></trkpt><trkpt lat="40.1372959" lon="18.4886549"><ele>36.333333333333336</ele><time>2026-04-04T14:38:38.186Z</time></trkpt><trkpt lat="40.1372202" lon="18.488913"><ele>36.0</ele><time>2026-04-04T14:38:39.186Z</time></trkpt><trkpt lat="40.1371429" lon="18.4891826"><ele>35.333333333333336</ele><time>2026-04-04T14:38:40.186Z</time></trkpt><trkpt lat="40.137061" lon="18.4894549"><ele>34.66666666666667</ele><time>2026-04-04T14:38:41.186Z</time></trkpt><trkpt lat="40.136981" lon="18.4897304"><ele>34.0</ele><time>2026-04-04T14:38:42.188Z</time></trkpt><trkpt lat="40.1368974" lon="18.4900052"><ele>31.5</ele><time>2026-04-04T14:38:43.186Z</time></trkpt><trkpt lat="40.1368105" lon="18.4902843"><ele>29.0</ele><time>2026-04-04T14:38:44.188Z</time></trkpt><trkpt lat="40.136728" lon="18.490569"><ele>27.5</ele><time>2026-04-04T14:38:45.187Z</time></trkpt><trkpt lat="40.1366436" lon="18.4908535"><ele>26.0</ele><time>2026-04-04T14:38:46.185Z</time></trkpt><trkpt lat="40.1365579" lon="18.4911459"><ele>24.5</ele><time>2026-04-04T14:38:47.186Z</time></trkpt><trkpt lat="40.1364739" lon="18.4914366"><ele>23.0</ele><time>2026-04-04T14:38:48.187Z</time></trkpt><trkpt lat="40.1363838" lon="18.4917268"><ele>23.0</ele><time>2026-04-04T14:38:49.187Z</time></trkpt><trkpt lat="40.1362968" lon="18.4920191"><ele>23.0</ele><time>2026-04-04T14:38:50.186Z</time></trkpt><trkpt lat="40.1362114" lon="18.4923123"><ele>28.5</ele><time>2026-04-04T14:38:51.187Z</time></trkpt><trkpt lat="40.1361228" lon="18.4926092"><ele>34.0</ele><time>2026-04-04T14:38:52.187Z</time></trkpt><trkpt lat="40.1360342" lon="18.4929057"><ele>39.0</ele><time>2026-04-04T14:38:53.186Z</time></trkpt><trkpt lat="40.1359503" lon="18.4932079"><ele>44.0</ele><time>2026-04-04T14:38:54.186Z</time></trkpt><trkpt lat="40.135859" lon="18.4935059"><ele>45.0</ele><time>2026-04-04T14:38:55.186Z</time></trkpt><trkpt lat="40.135755" lon="18.4937974"><ele>46.0</ele><time>2026-04-04T14:38:56.187Z</time></trkpt><trkpt lat="40.1356422" lon="18.4940851"><ele>47.5</ele><time>2026-04-04T14:38:57.185Z</time></trkpt><trkpt lat="40.135519" lon="18.4943713"><ele>49.0</ele><time>2026-04-04T14:38:58.187Z</time></trkpt><trkpt lat="40.1353733" lon="18.4946449"><ele>49.0</ele><time>2026-04-04T14:38:59.187Z</time></trkpt><trkpt lat="40.13521" lon="18.4948989"><ele>49.0</ele><time>2026-04-04T14:39:00.187Z</time></trkpt><trkpt lat="40.1350339" lon="18.4951438"><ele>49.5</ele><time>2026-04-04T14:39:01.186Z</time></trkpt><trkpt lat="40.1348409" lon="18.4953713"><ele>50.0</ele><time>2026-04-04T14:39:02.186Z</time></trkpt><trkpt lat="40.1346343" lon="18.4955947"><ele>50.0</ele><time>2026-04-04T14:39:03.187Z</time></trkpt><trkpt lat="40.1344146" lon="18.4957994"><ele>50.0</ele><time>2026-04-04T14:39:04.187Z</time></trkpt><trkpt lat="40.1341809" lon="18.4959818"><ele>52.0</ele><time>2026-04-04T14:39:05.186Z</time></trkpt><trkpt lat="40.1339301" lon="18.4961382"><ele>54.0</ele><time>2026-04-04T14:39:06.185Z</time></trkpt><trkpt lat="40.1336673" lon="18.4962692"><ele>54.0</ele><time>2026-04-04T14:39:07.187Z</time></trkpt><trkpt lat="40.1333986" lon="18.4963914"><ele>54.0</ele><time>2026-04-04T14:39:08.187Z</time></trkpt><trkpt lat="40.133121" lon="18.496504"><ele>56.5</ele><time>2026-04-04T14:39:09.186Z</time></trkpt><trkpt lat="40.1328368" lon="18.4966216"><ele>59.0</ele><time>2026-04-04T14:39:10.187Z</time></trkpt><trkpt lat="40.13256" lon="18.4967346"><ele>61.5</ele><time>2026-04-04T14:39:11.186Z</time></trkpt><trkpt lat="40.1322801" lon="18.4968405"><ele>64.0</ele><time>2026-04-04T14:39:12.187Z</time></trkpt><trkpt lat="40.1320106" lon="18.4969445"><ele>64.0</ele><time>2026-04-04T14:39:13.187Z</time></trkpt><trkpt lat="40.1317521" lon="18.4970429"><ele>64.0</ele><time>2026-04-04T14:39:14.187Z</time></trkpt><trkpt lat="40.1314984" lon="18.4971367"><ele>66.0</ele><time>2026-04-04T14:39:15.187Z</time></trkpt><trkpt lat="40.1312446" lon="18.4972193"><ele>68.0</ele><time>2026-04-04T14:39:16.186Z</time></trkpt><trkpt lat="40.1309892" lon="18.4972778"><ele>68.0</ele><time>2026-04-04T14:39:17.186Z</time></trkpt><trkpt lat="40.1307283" lon="18.4973197"><ele>68.0</ele><time>2026-04-04T14:39:18.186Z</time></trkpt><trkpt lat="40.1304552" lon="18.4973462"><ele>68.0</ele><time>2026-04-04T14:39:19.186Z</time></trkpt><trkpt lat="40.130185" lon="18.4973755"><ele>68.0</ele><time>2026-04-04T14:39:20.186Z</time></trkpt><trkpt lat="40.1299293" lon="18.4973963"><ele>71.0</ele><time>2026-04-04T14:39:21.186Z</time></trkpt><trkpt lat="40.1296853" lon="18.4974153"><ele>74.0</ele><time>2026-04-04T14:39:22.187Z</time></trkpt><trkpt lat="40.1294509" lon="18.4974369"><ele>74.0</ele><time>2026-04-04T14:39:23.188Z</time></trkpt><trkpt lat="40.1292048" lon="18.4974502"><ele>74.0</ele><time>2026-04-04T14:39:24.186Z</time></trkpt><trkpt lat="40.128959" lon="18.4974698"><ele>74.5</ele><time>2026-04-04T14:39:25.187Z</time></trkpt><trkpt lat="40.1287095" lon="18.4975152"><ele>75.0</ele><time>2026-04-04T14:39:26.185Z</time></trkpt><trkpt lat="40.1284558" lon="18.4975738"><ele>75.5</ele><time>2026-04-04T14:39:27.186Z</time></trkpt><trkpt lat="40.1282094" lon="18.4976912"><ele>76.0</ele><time>2026-04-04T14:39:28.187Z</time></trkpt><trkpt lat="40.1279667" lon="18.4978235"><ele>75.5</ele><time>2026-04-04T14:39:29.186Z</time></trkpt><trkpt lat="40.1277209" lon="18.4979672"><ele>75.0</ele><time>2026-04-04T14:39:30.186Z</time></trkpt><trkpt lat="40.1274698" lon="18.498111"><ele>75.5</ele><time>2026-04-04T14:39:31.186Z</time></trkpt><trkpt lat="40.127226" lon="18.4982734"><ele>76.0</ele><time>2026-04-04T14:39:32.188Z</time></trkpt><trkpt lat="40.1269647" lon="18.4984334"><ele>76.0</ele><time>2026-04-04T14:39:33.185Z</time></trkpt><trkpt lat="40.1267026" lon="18.4985914"><ele>76.0</ele><time>2026-04-04T14:39:34.186Z</time></trkpt><trkpt lat="40.126429" lon="18.498747"><ele>77.0</ele><time>2026-04-04T14:39:35.187Z</time></trkpt><trkpt lat="40.1261536" lon="18.4989052"><ele>78.0</ele><time>2026-04-04T14:39:36.187Z</time></trkpt><trkpt lat="40.1258738" lon="18.4990688"><ele>77.5</ele><time>2026-04-04T14:39:37.186Z</time></trkpt><trkpt lat="40.125591" lon="18.4992403"><ele>77.0</ele><time>2026-04-04T14:39:38.187Z</time></trkpt><trkpt lat="40.1253085" lon="18.4994075"><ele>77.0</ele><time>2026-04-04T14:39:39.188Z</time></trkpt><trkpt lat="40.1250422" lon="18.4995717"><ele>77.0</ele><time>2026-04-04T14:39:40.186Z</time></trkpt><trkpt lat="40.1247868" lon="18.4997219"><ele>77.0</ele><time>2026-04-04T14:39:41.186Z</time></trkpt><trkpt lat="40.1245228" lon="18.4998467"><ele>77.0</ele><time>2026-04-04T14:39:42.187Z</time></trkpt><trkpt lat="40.1242515" lon="18.4999389"><ele>77.5</ele><time>2026-04-04T14:39:43.186Z</time></trkpt><trkpt lat="40.1239803" lon="18.5000047"><ele>78.0</ele><time>2026-04-04T14:39:44.186Z</time></trkpt><trkpt lat="40.1236944" lon="18.5000405"><ele>78.0</ele><time>2026-04-04T14:39:45.187Z</time></trkpt><trkpt lat="40.1234039" lon="18.5000646"><ele>78.0</ele><time>2026-04-04T14:39:46.188Z</time></trkpt><trkpt lat="40.1231031" lon="18.5000672"><ele>78.5</ele><time>2026-04-04T14:39:47.187Z</time></trkpt><trkpt lat="40.1228051" lon="18.500076"><ele>79.0</ele><time>2026-04-04T14:39:48.186Z</time></trkpt><trkpt lat="40.1225127" lon="18.5000908"><ele>79.0</ele><time>2026-04-04T14:39:49.187Z</time></trkpt><trkpt lat="40.1222151" lon="18.5001135"><ele>79.0</ele><time>2026-04-04T14:39:50.187Z</time></trkpt><trkpt lat="40.1219219" lon="18.5001631"><ele>79.0</ele><time>2026-04-04T14:39:51.187Z</time></trkpt><trkpt lat="40.1216289" lon="18.5002492"><ele>79.0</ele><time>2026-04-04T14:39:52.188Z</time></trkpt><trkpt lat="40.1213351" lon="18.5003572"><ele>81.0</ele><time>2026-04-04T14:39:53.186Z</time></trkpt><trkpt lat="40.1210436" lon="18.5004724"><ele>83.0</ele><time>2026-04-04T14:39:54.185Z</time></trkpt><trkpt lat="40.1207477" lon="18.5005811"><ele>84.0</ele><time>2026-04-04T14:39:55.188Z</time></trkpt><trkpt lat="40.1204534" lon="18.5007014"><ele>85.0</ele><time>2026-04-04T14:39:56.186Z</time></trkpt><trkpt lat="40.1201656" lon="18.5008094"><ele>85.0</ele><time>2026-04-04T14:39:57.187Z</time></trkpt><trkpt lat="40.1198841" lon="18.5009166"><ele>85.0</ele><time>2026-04-04T14:39:58.186Z</time></trkpt><trkpt lat="40.1196138" lon="18.5010216"><ele>85.0</ele><time>2026-04-04T14:39:59.186Z</time></trkpt><trkpt lat="40.1193445" lon="18.5011377"><ele>85.0</ele><time>2026-04-04T14:40:00.186Z</time></trkpt><trkpt lat="40.1190892" lon="18.5012858"><ele>85.0</ele><time>2026-04-04T14:40:01.187Z</time></trkpt><trkpt lat="40.1188505" lon="18.5014677"><ele>85.0</ele><time>2026-04-04T14:40:02.186Z</time></trkpt><trkpt lat="40.1186311" lon="18.5016909"><ele>85.0</ele><time>2026-04-04T14:40:03.187Z</time></trkpt><trkpt lat="40.1184392" lon="18.5019445"><ele>85.0</ele><time>2026-04-04T14:40:04.188Z</time></trkpt><trkpt lat="40.118269" lon="18.502227"><ele>84.0</ele><time>2026-04-04T14:40:05.186Z</time></trkpt><trkpt lat="40.1181307" lon="18.5025392"><ele>83.0</ele><time>2026-04-04T14:40:06.188Z</time></trkpt><trkpt lat="40.1180189" lon="18.5028718"><ele>82.0</ele><time>2026-04-04T14:40:07.185Z</time></trkpt><trkpt lat="40.1179317" lon="18.5032172"><ele>81.0</ele><time>2026-04-04T14:40:08.187Z</time></trkpt><trkpt lat="40.1178662" lon="18.5035749"><ele>80.0</ele><time>2026-04-04T14:40:09.187Z</time></trkpt><trkpt lat="40.1178079" lon="18.5039408"><ele>79.0</ele><time>2026-04-04T14:40:10.186Z</time></trkpt><trkpt lat="40.1177557" lon="18.5043057"><ele>79.0</ele><time>2026-04-04T14:40:11.188Z</time></trkpt><trkpt lat="40.1177043" lon="18.5046655"><ele>79.0</ele><time>2026-04-04T14:40:12.186Z</time></trkpt><trkpt lat="40.1176536" lon="18.5050185"><ele>79.0</ele><time>2026-04-04T14:40:13.187Z</time></trkpt><trkpt lat="40.1176083" lon="18.505346"><ele>79.0</ele><time>2026-04-04T14:40:14.187Z</time></trkpt><trkpt lat="40.1175615" lon="18.5056529"><ele>78.66666666666666</ele><time>2026-04-04T14:40:15.185Z</time></trkpt><trkpt lat="40.1175289" lon="18.5059102"><ele>78.33333333333333</ele><time>2026-04-04T14:40:16.186Z</time></trkpt><trkpt lat="40.1174995" lon="18.5061506"><ele>78.0</ele><time>2026-04-04T14:40:17.187Z</time></trkpt><trkpt lat="40.1174633" lon="18.5063707"><ele>78.0</ele><time>2026-04-04T14:40:18.186Z</time></trkpt><trkpt lat="40.1174124" lon="18.5065709"><ele>78.0</ele><time>2026-04-04T14:40:19.187Z</time></trkpt><trkpt lat="40.1173459" lon="18.5067522"><ele>78.0</ele><time>2026-04-04T14:40:20.188Z</time></trkpt><trkpt lat="40.1172597" lon="18.50693"><ele>77.0</ele><time>2026-04-04T14:40:21.186Z</time></trkpt><trkpt lat="40.117171" lon="18.5071097"><ele>76.0</ele><time>2026-04-04T14:40:22.188Z</time></trkpt><trkpt lat="40.1170863" lon="18.5073156"><ele>75.0</ele><time>2026-04-04T14:40:23.187Z</time></trkpt><trkpt lat="40.1170232" lon="18.5075336"><ele>75.0</ele><time>2026-04-04T14:40:24.187Z</time></trkpt><trkpt lat="40.1169726" lon="18.5077631"><ele>75.0</ele><time>2026-04-04T14:40:25.186Z</time></trkpt><trkpt lat="40.1169304" lon="18.5080012"><ele>75.0</ele><time>2026-04-04T14:40:26.186Z</time></trkpt><trkpt lat="40.1168862" lon="18.5082371"><ele>75.0</ele><time>2026-04-04T14:40:27.188Z</time></trkpt><trkpt lat="40.1168394" lon="18.5084752"><ele>75.0</ele><time>2026-04-04T14:40:28.187Z</time></trkpt><trkpt lat="40.116794" lon="18.5087091"><ele>75.0</ele><time>2026-04-04T14:40:29.186Z</time></trkpt><trkpt lat="40.1167476" lon="18.5089502"><ele>75.0</ele><time>2026-04-04T14:40:30.188Z</time></trkpt><trkpt lat="40.1167023" lon="18.5091919"><ele>75.0</ele><time>2026-04-04T14:40:31.187Z</time></trkpt><trkpt lat="40.1166537" lon="18.5094364"><ele>75.0</ele><time>2026-04-04T14:40:32.187Z</time></trkpt><trkpt lat="40.1165923" lon="18.5096716"><ele>75.33333333333333</ele><time>2026-04-04T14:40:33.187Z</time></trkpt><trkpt lat="40.1165178" lon="18.5099094"><ele>75.66666666666666</ele><time>2026-04-04T14:40:34.185Z</time></trkpt><trkpt lat="40.1164321" lon="18.5101461"><ele>76.0</ele><time>2026-04-04T14:40:35.185Z</time></trkpt><trkpt lat="40.1163368" lon="18.5103869"><ele>75.33333333333333</ele><time>2026-04-04T14:40:36.186Z</time></trkpt><trkpt lat="40.116232" lon="18.5106295"><ele>74.66666666666667</ele><time>2026-04-04T14:40:37.185Z</time></trkpt><trkpt lat="40.1161269" lon="18.5108731"><ele>74.0</ele><time>2026-04-04T14:40:38.186Z</time></trkpt><trkpt lat="40.1160213" lon="18.51111"><ele>74.33333333333334</ele><time>2026-04-04T14:40:39.186Z</time></trkpt><trkpt lat="40.1159049" lon="18.5113251"><ele>74.66666666666667</ele><time>2026-04-04T14:40:40.186Z</time></trkpt><trkpt lat="40.1157634" lon="18.5115113"><ele>75.0</ele><time>2026-04-04T14:40:41.187Z</time></trkpt><trkpt lat="40.1156057" lon="18.5116855"><ele>75.0</ele><time>2026-04-04T14:40:42.186Z</time></trkpt><trkpt lat="40.1154373" lon="18.5118456"><ele>75.0</ele><time>2026-04-04T14:40:43.187Z</time></trkpt><trkpt lat="40.1152606" lon="18.5120031"><ele>75.0</ele><time>2026-04-04T14:40:44.186Z</time></trkpt><trkpt lat="40.1150738" lon="18.512165"><ele>75.0</ele><time>2026-04-04T14:40:45.186Z</time></trkpt><trkpt lat="40.1148838" lon="18.5123327"><ele>75.0</ele><time>2026-04-04T14:40:46.186Z</time></trkpt><trkpt lat="40.1146852" lon="18.5124939"><ele>75.0</ele><time>2026-04-04T14:40:47.186Z</time></trkpt><trkpt lat="40.1144776" lon="18.5126368"><ele>75.0</ele><time>2026-04-04T14:40:48.187Z</time></trkpt><trkpt lat="40.1142557" lon="18.5127728"><ele>74.5</ele><time>2026-04-04T14:40:49.186Z</time></trkpt><trkpt lat="40.1140178" lon="18.5129044"><ele>74.0</ele><time>2026-04-04T14:40:50.186Z</time></trkpt><trkpt lat="40.1137717" lon="18.5130393"><ele>74.0</ele><time>2026-04-04T14:40:51.188Z</time></trkpt><trkpt lat="40.1135074" lon="18.5131784"><ele>74.0</ele><time>2026-04-04T14:40:52.186Z</time></trkpt><trkpt lat="40.1132449" lon="18.5133235"><ele>75.0</ele><time>2026-04-04T14:40:53.185Z</time></trkpt><trkpt lat="40.1129768" lon="18.5134686"><ele>76.0</ele><time>2026-04-04T14:40:54.187Z</time></trkpt><trkpt lat="40.1127019" lon="18.5136156"><ele>76.0</ele><time>2026-04-04T14:40:55.187Z</time></trkpt><trkpt lat="40.1124503" lon="18.5137644"><ele>76.0</ele><time>2026-04-04T14:40:56.186Z</time></trkpt><trkpt lat="40.1122017" lon="18.5139143"><ele>76.0</ele><time>2026-04-04T14:40:57.187Z</time></trkpt><trkpt lat="40.1119687" lon="18.5140568"><ele>76.0</ele><time>2026-04-04T14:40:58.185Z</time></trkpt><trkpt lat="40.1117381" lon="18.5141948"><ele>76.5</ele><time>2026-04-04T14:40:59.187Z</time></trkpt><trkpt lat="40.1115332" lon="18.514327"><ele>77.0</ele><time>2026-04-04T14:41:00.187Z</time></trkpt><trkpt lat="40.1113241" lon="18.5144638"><ele>76.0</ele><time>2026-04-04T14:41:01.188Z</time></trkpt><trkpt lat="40.1111263" lon="18.5146031"><ele>75.0</ele><time>2026-04-04T14:41:02.186Z</time></trkpt><trkpt lat="40.1109241" lon="18.5147474"><ele>75.5</ele><time>2026-04-04T14:41:03.187Z</time></trkpt><trkpt lat="40.1107225" lon="18.5149085"><ele>76.0</ele><time>2026-04-04T14:41:04.185Z</time></trkpt><trkpt lat="40.1105179" lon="18.5150817"><ele>76.0</ele><time>2026-04-04T14:41:05.185Z</time></trkpt><trkpt lat="40.110308" lon="18.5152519"><ele>76.0</ele><time>2026-04-04T14:41:06.187Z</time></trkpt><trkpt lat="40.1101053" lon="18.5154313"><ele>76.5</ele><time>2026-04-04T14:41:07.186Z</time></trkpt><trkpt lat="40.1098913" lon="18.5156077"><ele>77.0</ele><time>2026-04-04T14:41:08.187Z</time></trkpt><trkpt lat="40.1096832" lon="18.5157817"><ele>77.0</ele><time>2026-04-04T14:41:09.186Z</time></trkpt><trkpt lat="40.1094828" lon="18.5159533"><ele>77.0</ele><time>2026-04-04T14:41:10.186Z</time></trkpt><trkpt lat="40.1092781" lon="18.5161078"><ele>76.5</ele><time>2026-04-04T14:41:11.187Z</time></trkpt><trkpt lat="40.1090689" lon="18.516239"><ele>76.0</ele><time>2026-04-04T14:41:12.186Z</time></trkpt><trkpt lat="40.1088669" lon="18.5163647"><ele>76.0</ele><time>2026-04-04T14:41:13.187Z</time></trkpt><trkpt lat="40.1086644" lon="18.5164565"><ele>76.0</ele><time>2026-04-04T14:41:14.187Z</time></trkpt><trkpt lat="40.1084643" lon="18.5165126"><ele>76.0</ele><time>2026-04-04T14:41:15.187Z</time></trkpt><trkpt lat="40.1082584" lon="18.5165291"><ele>77.33333333333333</ele><time>2026-04-04T14:41:16.186Z</time></trkpt><trkpt lat="40.1080515" lon="18.516513"><ele>78.66666666666667</ele><time>2026-04-04T14:41:17.187Z</time></trkpt><trkpt lat="40.1078362" lon="18.5164717"><ele>80.0</ele><time>2026-04-04T14:41:18.187Z</time></trkpt><trkpt lat="40.1076268" lon="18.5163974"><ele>80.0</ele><time>2026-04-04T14:41:19.187Z</time></trkpt><trkpt lat="40.1074182" lon="18.5162878"><ele>80.0</ele><time>2026-04-04T14:41:20.186Z</time></trkpt><trkpt lat="40.1072212" lon="18.5161511"><ele>80.0</ele><time>2026-04-04T14:41:21.186Z</time></trkpt><trkpt lat="40.1070383" lon="18.5159816"><ele>80.0</ele><time>2026-04-04T14:41:22.185Z</time></trkpt><trkpt lat="40.106871" lon="18.5157913"><ele>80.0</ele><time>2026-04-04T14:41:23.185Z</time></trkpt><trkpt lat="40.1067184" lon="18.5155782"><ele>80.0</ele><time>2026-04-04T14:41:24.187Z</time></trkpt><trkpt lat="40.1065803" lon="18.5153553"><ele>80.0</ele><time>2026-04-04T14:41:25.186Z</time></trkpt><trkpt lat="40.1064421" lon="18.5151251"><ele>80.0</ele><time>2026-04-04T14:41:26.187Z</time></trkpt><trkpt lat="40.1063146" lon="18.5148956"><ele>80.0</ele><time>2026-04-04T14:41:27.186Z</time></trkpt><trkpt lat="40.1061842" lon="18.5146723"><ele>80.0</ele><time>2026-04-04T14:41:28.185Z</time></trkpt><trkpt lat="40.1060632" lon="18.5144508"><ele>80.0</ele><time>2026-04-04T14:41:29.186Z</time></trkpt><trkpt lat="40.1059387" lon="18.5142192"><ele>80.0</ele><time>2026-04-04T14:41:30.187Z</time></trkpt><trkpt lat="40.1058109" lon="18.5139843"><ele>79.5</ele><time>2026-04-04T14:41:31.187Z</time></trkpt><trkpt lat="40.1056791" lon="18.5137416"><ele>79.0</ele><time>2026-04-04T14:41:32.186Z</time></trkpt><trkpt lat="40.1055454" lon="18.5134937"><ele>78.5</ele><time>2026-04-04T14:41:33.187Z</time></trkpt><trkpt lat="40.1054036" lon="18.513243"><ele>78.0</ele><time>2026-04-04T14:41:34.185Z</time></trkpt><trkpt lat="40.1052537" lon="18.5129979"><ele>78.5</ele><time>2026-04-04T14:41:35.186Z</time></trkpt><trkpt lat="40.1050989" lon="18.5127425"><ele>79.0</ele><time>2026-04-04T14:41:36.185Z</time></trkpt><trkpt lat="40.1049461" lon="18.5124662"><ele>79.0</ele><time>2026-04-04T14:41:37.188Z</time></trkpt><trkpt lat="40.1047941" lon="18.5121796"><ele>79.0</ele><time>2026-04-04T14:41:38.186Z</time></trkpt><trkpt lat="40.1046389" lon="18.5118848"><ele>79.0</ele><time>2026-04-04T14:41:39.188Z</time></trkpt><trkpt lat="40.1044791" lon="18.5115916"><ele>79.0</ele><time>2026-04-04T14:41:40.187Z</time></trkpt><trkpt lat="40.104315" lon="18.5112933"><ele>79.0</ele><time>2026-04-04T14:41:41.187Z</time></trkpt><trkpt lat="40.1041552" lon="18.5109984"><ele>79.0</ele><time>2026-04-04T14:41:42.186Z</time></trkpt><trkpt lat="40.103994" lon="18.5107004"><ele>79.5</ele><time>2026-04-04T14:41:43.185Z</time></trkpt><trkpt lat="40.1038322" lon="18.5104058"><ele>80.0</ele><time>2026-04-04T14:41:44.186Z</time></trkpt><trkpt lat="40.1036733" lon="18.5101251"><ele>80.0</ele><time>2026-04-04T14:41:45.186Z</time></trkpt><trkpt lat="40.1035251" lon="18.5098576"><ele>80.0</ele><time>2026-04-04T14:41:46.187Z</time></trkpt><trkpt lat="40.1033829" lon="18.5096016"><ele>79.5</ele><time>2026-04-04T14:41:47.186Z</time></trkpt><trkpt lat="40.1032452" lon="18.5093563"><ele>79.0</ele><time>2026-04-04T14:41:48.186Z</time></trkpt><trkpt lat="40.1031151" lon="18.5091065"><ele>79.0</ele><time>2026-04-04T14:41:49.187Z</time></trkpt><trkpt lat="40.1029859" lon="18.5088692"><ele>79.0</ele><time>2026-04-04T14:41:50.187Z</time></trkpt><trkpt lat="40.1028574" lon="18.5086355"><ele>79.0</ele><time>2026-04-04T14:41:51.187Z</time></trkpt><trkpt lat="40.102732" lon="18.508409"><ele>79.66666666666666</ele><time>2026-04-04T14:41:52.188Z</time></trkpt><trkpt lat="40.1026014" lon="18.5081842"><ele>80.33333333333333</ele><time>2026-04-04T14:41:53.187Z</time></trkpt><trkpt lat="40.1024824" lon="18.5079586"><ele>81.0</ele><time>2026-04-04T14:41:54.188Z</time></trkpt><trkpt lat="40.1023702" lon="18.5077435"><ele>81.0</ele><time>2026-04-04T14:41:55.186Z</time></trkpt><trkpt lat="40.1022569" lon="18.5075404"><ele>81.0</ele><time>2026-04-04T14:41:56.185Z</time></trkpt><trkpt lat="40.1021669" lon="18.5073651"><ele>81.0</ele><time>2026-04-04T14:41:57.187Z</time></trkpt><trkpt lat="40.1020988" lon="18.5071878"><ele>81.0</ele><time>2026-04-04T14:41:58.185Z</time></trkpt><trkpt lat="40.1020538" lon="18.507002"><ele>81.0</ele><time>2026-04-04T14:41:59.187Z</time></trkpt><trkpt lat="40.1020461" lon="18.5068089"><ele>81.0</ele><time>2026-04-04T14:42:00.187Z</time></trkpt><trkpt lat="40.1020536" lon="18.5066138"><ele>81.0</ele><time>2026-04-04T14:42:01.188Z</time></trkpt><trkpt lat="40.1020959" lon="18.5064148"><ele>78.66666666666667</ele><time>2026-04-04T14:42:02.186Z</time></trkpt><trkpt lat="40.1021396" lon="18.5062149"><ele>76.33333333333334</ele><time>2026-04-04T14:42:03.187Z</time></trkpt><trkpt lat="40.1021827" lon="18.5060196"><ele>74.0</ele><time>2026-04-04T14:42:04.187Z</time></trkpt><trkpt lat="40.1022325" lon="18.5058189"><ele>74.0</ele><time>2026-04-04T14:42:05.188Z</time></trkpt><trkpt lat="40.1022785" lon="18.5056186"><ele>74.0</ele><time>2026-04-04T14:42:06.186Z</time></trkpt><trkpt lat="40.1023235" lon="18.5054279"><ele>74.0</ele><time>2026-04-04T14:42:07.187Z</time></trkpt><trkpt lat="40.1023636" lon="18.5052491"><ele>72.5</ele><time>2026-04-04T14:42:08.185Z</time></trkpt><trkpt lat="40.102395" lon="18.5050814"><ele>71.0</ele><time>2026-04-04T14:42:09.185Z</time></trkpt><trkpt lat="40.1024059" lon="18.5049175"><ele>69.5</ele><time>2026-04-04T14:42:10.185Z</time></trkpt><trkpt lat="40.1023804" lon="18.5047502"><ele>68.0</ele><time>2026-04-04T14:42:11.186Z</time></trkpt><trkpt lat="40.1023288" lon="18.504597"><ele>67.5</ele><time>2026-04-04T14:42:12.186Z</time></trkpt><trkpt lat="40.1022419" lon="18.5044627"><ele>67.0</ele><time>2026-04-04T14:42:13.188Z</time></trkpt><trkpt lat="40.1021386" lon="18.5043477"><ele>66.5</ele><time>2026-04-04T14:42:14.186Z</time></trkpt><trkpt lat="40.1020168" lon="18.5042225"><ele>66.0</ele><time>2026-04-04T14:42:15.187Z</time></trkpt><trkpt lat="40.1019191" lon="18.5040681"><ele>66.0</ele><time>2026-04-04T14:42:16.186Z</time></trkpt><trkpt lat="40.1018539" lon="18.5038917"><ele>66.0</ele><time>2026-04-04T14:42:17.188Z</time></trkpt><trkpt lat="40.1018067" lon="18.5036999"><ele>66.0</ele><time>2026-04-04T14:42:18.187Z</time></trkpt><trkpt lat="40.1018402" lon="18.5034877"><ele>65.33333333333333</ele><time>2026-04-04T14:42:19.187Z</time></trkpt><trkpt lat="40.1018875" lon="18.5032789"><ele>64.66666666666666</ele><time>2026-04-04T14:42:20.187Z</time></trkpt><trkpt lat="40.1019674" lon="18.5030668"><ele>64.0</ele><time>2026-04-04T14:42:21.187Z</time></trkpt><trkpt lat="40.1020534" lon="18.5028539"><ele>61.666666666666664</ele><time>2026-04-04T14:42:22.187Z</time></trkpt><trkpt lat="40.1021507" lon="18.5026257"><ele>59.33333333333333</ele><time>2026-04-04T14:42:23.187Z</time></trkpt><trkpt lat="40.1022476" lon="18.5023977"><ele>57.0</ele><time>2026-04-04T14:42:24.187Z</time></trkpt><trkpt lat="40.1023399" lon="18.5021789"><ele>57.33333333333333</ele><time>2026-04-04T14:42:25.186Z</time></trkpt><trkpt lat="40.1024373" lon="18.501973"><ele>57.666666666666664</ele><time>2026-04-04T14:42:26.187Z</time></trkpt><trkpt lat="40.102572" lon="18.5018016"><ele>58.0</ele><time>2026-04-04T14:42:27.187Z</time></trkpt><trkpt lat="40.1027318" lon="18.5016638"><ele>58.0</ele><time>2026-04-04T14:42:28.186Z</time></trkpt><trkpt lat="40.1029056" lon="18.5015749"><ele>58.0</ele><time>2026-04-04T14:42:29.187Z</time></trkpt><trkpt lat="40.1030841" lon="18.5015118"><ele>58.0</ele><time>2026-04-04T14:42:30.186Z</time></trkpt><trkpt lat="40.1032538" lon="18.5014279"><ele>59.666666666666664</ele><time>2026-04-04T14:42:31.186Z</time></trkpt><trkpt lat="40.1033962" lon="18.501293"><ele>61.33333333333333</ele><time>2026-04-04T14:42:32.187Z</time></trkpt><trkpt lat="40.1035024" lon="18.5011075"><ele>63.0</ele><time>2026-04-04T14:42:33.186Z</time></trkpt><trkpt lat="40.1035815" lon="18.5008852"><ele>59.66666666666667</ele><time>2026-04-04T14:42:34.186Z</time></trkpt><trkpt lat="40.1035807" lon="18.5006226"><ele>56.333333333333336</ele><time>2026-04-04T14:42:35.185Z</time></trkpt><trkpt lat="40.1035751" lon="18.5003428"><ele>53.0</ele><time>2026-04-04T14:42:36.186Z</time></trkpt><trkpt lat="40.1035565" lon="18.5000577"><ele>51.0</ele><time>2026-04-04T14:42:37.186Z</time></trkpt><trkpt lat="40.1035372" lon="18.4997662"><ele>49.0</ele><time>2026-04-04T14:42:38.187Z</time></trkpt><trkpt lat="40.1035202" lon="18.4994673"><ele>48.666666666666664</ele><time>2026-04-04T14:42:39.186Z</time></trkpt><trkpt lat="40.1035022" lon="18.4991777"><ele>48.33333333333333</ele><time>2026-04-04T14:42:40.185Z</time></trkpt><trkpt lat="40.10348" lon="18.4988888"><ele>48.0</ele><time>2026-04-04T14:42:41.187Z</time></trkpt><trkpt lat="40.1034627" lon="18.4986067"><ele>48.0</ele><time>2026-04-04T14:42:42.186Z</time></trkpt><trkpt lat="40.103446" lon="18.4983297"><ele>48.0</ele><time>2026-04-04T14:42:43.186Z</time></trkpt><trkpt lat="40.1034304" lon="18.4980561"><ele>48.0</ele><time>2026-04-04T14:42:44.185Z</time></trkpt><trkpt lat="40.1034147" lon="18.497782"><ele>48.0</ele><time>2026-04-04T14:42:45.186Z</time></trkpt><trkpt lat="40.1033994" lon="18.4975171"><ele>48.0</ele><time>2026-04-04T14:42:46.187Z</time></trkpt><trkpt lat="40.1033859" lon="18.4972687"><ele>48.0</ele><time>2026-04-04T14:42:47.186Z</time></trkpt><trkpt lat="40.1033658" lon="18.4970333"><ele>48.0</ele><time>2026-04-04T14:42:48.187Z</time></trkpt><trkpt lat="40.1033349" lon="18.4968164"><ele>48.0</ele><time>2026-04-04T14:42:49.187Z</time></trkpt><trkpt lat="40.10327" lon="18.4966135"><ele>48.0</ele><time>2026-04-04T14:42:50.188Z</time></trkpt><trkpt lat="40.1031832" lon="18.496422"><ele>48.0</ele><time>2026-04-04T14:42:51.186Z</time></trkpt><trkpt lat="40.1030577" lon="18.4962532"><ele>48.0</ele><time>2026-04-04T14:42:52.187Z</time></trkpt><trkpt lat="40.1028853" lon="18.4961308"><ele>48.0</ele><time>2026-04-04T14:42:53.187Z</time></trkpt><trkpt lat="40.102712" lon="18.4960245"><ele>48.33333333333333</ele><time>2026-04-04T14:42:54.187Z</time></trkpt><trkpt lat="40.1025357" lon="18.4959212"><ele>48.666666666666664</ele><time>2026-04-04T14:42:55.187Z</time></trkpt><trkpt lat="40.1023703" lon="18.4958104"><ele>49.0</ele><time>2026-04-04T14:42:56.186Z</time></trkpt><trkpt lat="40.1022243" lon="18.4956594"><ele>48.33333333333333</ele><time>2026-04-04T14:42:57.187Z</time></trkpt><trkpt lat="40.102095" lon="18.4954743"><ele>47.666666666666664</ele><time>2026-04-04T14:42:58.186Z</time></trkpt><trkpt lat="40.1019739" lon="18.4952621"><ele>47.0</ele><time>2026-04-04T14:42:59.187Z</time></trkpt><trkpt lat="40.1018559" lon="18.4950426"><ele>46.0</ele><time>2026-04-04T14:43:00.187Z</time></trkpt><trkpt lat="40.1017364" lon="18.4948183"><ele>45.0</ele><time>2026-04-04T14:43:01.186Z</time></trkpt><trkpt lat="40.1016193" lon="18.4945884"><ele>44.0</ele><time>2026-04-04T14:43:02.185Z</time></trkpt><trkpt lat="40.1014997" lon="18.494359"><ele>43.0</ele><time>2026-04-04T14:43:03.186Z</time></trkpt><trkpt lat="40.1013815" lon="18.4941255"><ele>42.0</ele><time>2026-04-04T14:43:04.188Z</time></trkpt><trkpt lat="40.1012621" lon="18.4938916"><ele>41.0</ele><time>2026-04-04T14:43:05.186Z</time></trkpt><trkpt lat="40.1011429" lon="18.4936528"><ele>41.0</ele><time>2026-04-04T14:43:06.187Z</time></trkpt><trkpt lat="40.1010226" lon="18.4934173"><ele>41.0</ele><time>2026-04-04T14:43:07.186Z</time></trkpt><trkpt lat="40.1009046" lon="18.4931778"><ele>41.0</ele><time>2026-04-04T14:43:08.185Z</time></trkpt><trkpt lat="40.1007893" lon="18.4929359"><ele>41.0</ele><time>2026-04-04T14:43:09.185Z</time></trkpt><trkpt lat="40.1006639" lon="18.4927098"><ele>41.0</ele><time>2026-04-04T14:43:10.187Z</time></trkpt><trkpt lat="40.1005297" lon="18.4924905"><ele>41.0</ele><time>2026-04-04T14:43:11.186Z</time></trkpt><trkpt lat="40.1003856" lon="18.4922772"><ele>41.33333333333333</ele><time>2026-04-04T14:43:12.186Z</time></trkpt><trkpt lat="40.1002359" lon="18.4920629"><ele>41.666666666666664</ele><time>2026-04-04T14:43:13.186Z</time></trkpt><trkpt lat="40.1000836" lon="18.4918501"><ele>42.0</ele><time>2026-04-04T14:43:14.186Z</time></trkpt><trkpt lat="40.0999288" lon="18.4916363"><ele>41.0</ele><time>2026-04-04T14:43:15.186Z</time></trkpt><trkpt lat="40.0997754" lon="18.4914203"><ele>40.0</ele><time>2026-04-04T14:43:16.186Z</time></trkpt><trkpt lat="40.0996227" lon="18.4912085"><ele>39.0</ele><time>2026-04-04T14:43:17.186Z</time></trkpt><trkpt lat="40.0994677" lon="18.4909957"><ele>39.0</ele><time>2026-04-04T14:43:18.188Z</time></trkpt><trkpt lat="40.099294" lon="18.4908062"><ele>39.0</ele><time>2026-04-04T14:43:19.188Z</time></trkpt><trkpt lat="40.0991052" lon="18.4906354"><ele>37.0</ele><time>2026-04-04T14:43:20.185Z</time></trkpt><trkpt lat="40.0989015" lon="18.4904744"><ele>35.0</ele><time>2026-04-04T14:43:21.188Z</time></trkpt><trkpt lat="40.0986826" lon="18.4903428"><ele>35.0</ele><time>2026-04-04T14:43:22.187Z</time></trkpt><trkpt lat="40.0984445" lon="18.4902343"><ele>35.0</ele><time>2026-04-04T14:43:23.186Z</time></trkpt><trkpt lat="40.0981949" lon="18.4901551"><ele>34.0</ele><time>2026-04-04T14:43:24.186Z</time></trkpt><trkpt lat="40.0979429" lon="18.4901072"><ele>33.0</ele><time>2026-04-04T14:43:25.185Z</time></trkpt><trkpt lat="40.0976896" lon="18.4900934"><ele>33.0</ele><time>2026-04-04T14:43:26.186Z</time></trkpt><trkpt lat="40.0974302" lon="18.4901147"><ele>33.0</ele><time>2026-04-04T14:43:27.187Z</time></trkpt><trkpt lat="40.097166" lon="18.4901498"><ele>32.5</ele><time>2026-04-04T14:43:28.187Z</time></trkpt><trkpt lat="40.0968989" lon="18.4901911"><ele>32.0</ele><time>2026-04-04T14:43:29.186Z</time></trkpt><trkpt lat="40.0966274" lon="18.4902259"><ele>32.0</ele><time>2026-04-04T14:43:30.187Z</time></trkpt><trkpt lat="40.0963557" lon="18.4902653"><ele>32.0</ele><time>2026-04-04T14:43:31.187Z</time></trkpt><trkpt lat="40.096091" lon="18.4903063"><ele>32.0</ele><time>2026-04-04T14:43:32.188Z</time></trkpt><trkpt lat="40.0958302" lon="18.4903493"><ele>32.0</ele><time>2026-04-04T14:43:33.188Z</time></trkpt><trkpt lat="40.0955807" lon="18.4903884"><ele>28.5</ele><time>2026-04-04T14:43:34.186Z</time></trkpt><trkpt lat="40.0953444" lon="18.4904331"><ele>25.0</ele><time>2026-04-04T14:43:35.187Z</time></trkpt><trkpt lat="40.0951113" lon="18.4904615"><ele>24.5</ele><time>2026-04-04T14:43:36.186Z</time></trkpt><trkpt lat="40.0948764" lon="18.4904572"><ele>24.0</ele><time>2026-04-04T14:43:37.186Z</time></trkpt><trkpt lat="40.0946402" lon="18.4904207"><ele>26.5</ele><time>2026-04-04T14:43:38.185Z</time></trkpt><trkpt lat="40.0943982" lon="18.4903614"><ele>29.0</ele><time>2026-04-04T14:43:39.186Z</time></trkpt><trkpt lat="40.0941354" lon="18.4902761"><ele>28.0</ele><time>2026-04-04T14:43:40.186Z</time></trkpt><trkpt lat="40.0938619" lon="18.4901895"><ele>27.0</ele><time>2026-04-04T14:43:41.187Z</time></trkpt><trkpt lat="40.0935813" lon="18.4900987"><ele>27.0</ele><time>2026-04-04T14:43:42.185Z</time></trkpt><trkpt lat="40.0932914" lon="18.490003"><ele>27.0</ele><time>2026-04-04T14:43:43.187Z</time></trkpt><trkpt lat="40.092994" lon="18.4899151"><ele>26.0</ele><time>2026-04-04T14:43:44.186Z</time></trkpt><trkpt lat="40.0926878" lon="18.4898187"><ele>25.0</ele><time>2026-04-04T14:43:45.187Z</time></trkpt><trkpt lat="40.0923822" lon="18.4897211"><ele>24.5</ele><time>2026-04-04T14:43:46.187Z</time></trkpt><trkpt lat="40.0920812" lon="18.4896202"><ele>24.0</ele><time>2026-04-04T14:43:47.188Z</time></trkpt><trkpt lat="40.0917805" lon="18.4895255"><ele>23.5</ele><time>2026-04-04T14:43:48.187Z</time></trkpt><trkpt lat="40.0914897" lon="18.4894336"><ele>23.0</ele><time>2026-04-04T14:43:49.187Z</time></trkpt><trkpt lat="40.0912091" lon="18.489342"><ele>23.0</ele><time>2026-04-04T14:43:50.186Z</time></trkpt><trkpt lat="40.09093" lon="18.4892377"><ele>23.0</ele><time>2026-04-04T14:43:51.188Z</time></trkpt><trkpt lat="40.0906576" lon="18.4891062"><ele>22.5</ele><time>2026-04-04T14:43:52.185Z</time></trkpt><trkpt lat="40.0903968" lon="18.48895"><ele>22.0</ele><time>2026-04-04T14:43:53.187Z</time></trkpt><trkpt lat="40.0901475" lon="18.4887733"><ele>22.5</ele><time>2026-04-04T14:43:54.187Z</time></trkpt><trkpt lat="40.0899077" lon="18.48859"><ele>23.0</ele><time>2026-04-04T14:43:55.186Z</time></trkpt><trkpt lat="40.0896609" lon="18.4884044"><ele>23.0</ele><time>2026-04-04T14:43:56.186Z</time></trkpt><trkpt lat="40.089421" lon="18.4882166"><ele>23.0</ele><time>2026-04-04T14:43:57.186Z</time></trkpt><trkpt lat="40.0891839" lon="18.4880274"><ele>23.0</ele><time>2026-04-04T14:43:58.186Z</time></trkpt><trkpt lat="40.0889493" lon="18.4878415"><ele>23.0</ele><time>2026-04-04T14:43:59.186Z</time></trkpt><trkpt lat="40.0887139" lon="18.4876573"><ele>23.0</ele><time>2026-04-04T14:44:00.185Z</time></trkpt><trkpt lat="40.0884816" lon="18.4874737"><ele>23.0</ele><time>2026-04-04T14:44:01.185Z</time></trkpt><trkpt lat="40.088249" lon="18.4872876"><ele>22.5</ele><time>2026-04-04T14:44:02.185Z</time></trkpt><trkpt lat="40.0880141" lon="18.4871047"><ele>22.0</ele><time>2026-04-04T14:44:03.187Z</time></trkpt><trkpt lat="40.0877817" lon="18.4869245"><ele>23.0</ele><time>2026-04-04T14:44:04.187Z</time></trkpt><trkpt lat="40.087546" lon="18.4867411"><ele>24.0</ele><time>2026-04-04T14:44:05.186Z</time></trkpt><trkpt lat="40.0873144" lon="18.4865668"><ele>24.0</ele><time>2026-04-04T14:44:06.186Z</time></trkpt><trkpt lat="40.0870957" lon="18.4863904"><ele>24.0</ele><time>2026-04-04T14:44:07.187Z</time></trkpt><trkpt lat="40.0868867" lon="18.4862275"><ele>24.5</ele><time>2026-04-04T14:44:08.186Z</time></trkpt><trkpt lat="40.0866888" lon="18.4860696"><ele>25.0</ele><time>2026-04-04T14:44:09.186Z</time></trkpt><trkpt lat="40.0864926" lon="18.4859208"><ele>25.0</ele><time>2026-04-04T14:44:10.187Z</time></trkpt><trkpt lat="40.0863033" lon="18.4857683"><ele>25.0</ele><time>2026-04-04T14:44:11.187Z</time></trkpt><trkpt lat="40.0861115" lon="18.4856138"><ele>25.0</ele><time>2026-04-04T14:44:12.187Z</time></trkpt><trkpt lat="40.0859304" lon="18.485449"><ele>25.0</ele><time>2026-04-04T14:44:13.188Z</time></trkpt><trkpt lat="40.0857608" lon="18.4852507"><ele>25.0</ele><time>2026-04-04T14:44:14.185Z</time></trkpt><trkpt lat="40.0855989" lon="18.4850368"><ele>25.0</ele><time>2026-04-04T14:44:15.187Z</time></trkpt><trkpt lat="40.0854331" lon="18.4848173"><ele>25.0</ele><time>2026-04-04T14:44:16.186Z</time></trkpt><trkpt lat="40.0852682" lon="18.4845927"><ele>25.0</ele><time>2026-04-04T14:44:17.187Z</time></trkpt><trkpt lat="40.0851107" lon="18.4843709"><ele>25.0</ele><time>2026-04-04T14:44:18.185Z</time></trkpt><trkpt lat="40.0849495" lon="18.4841513"><ele>24.333333333333336</ele><time>2026-04-04T14:44:19.188Z</time></trkpt><trkpt lat="40.0847911" lon="18.4839497"><ele>23.666666666666668</ele><time>2026-04-04T14:44:20.186Z</time></trkpt><trkpt lat="40.0846373" lon="18.4837579"><ele>23.0</ele><time>2026-04-04T14:44:21.187Z</time></trkpt><trkpt lat="40.0844967" lon="18.4835683"><ele>22.333333333333336</ele><time>2026-04-04T14:44:22.187Z</time></trkpt><trkpt lat="40.0843645" lon="18.4833872"><ele>21.666666666666668</ele><time>2026-04-04T14:44:23.185Z</time></trkpt><trkpt lat="40.0842365" lon="18.4832098"><ele>21.0</ele><time>2026-04-04T14:44:24.185Z</time></trkpt><trkpt lat="40.0841215" lon="18.4830357"><ele>20.25</ele><time>2026-04-04T14:44:25.186Z</time></trkpt><trkpt lat="40.0840173" lon="18.482881"><ele>19.5</ele><time>2026-04-04T14:44:26.187Z</time></trkpt><trkpt lat="40.0839267" lon="18.482737"><ele>18.75</ele><time>2026-04-04T14:44:27.186Z</time></trkpt><trkpt lat="40.0838536" lon="18.4826077"><ele>18.0</ele><time>2026-04-04T14:44:28.187Z</time></trkpt><trkpt lat="40.0837962" lon="18.4824777"><ele>18.0</ele><time>2026-04-04T14:44:29.185Z</time></trkpt><trkpt lat="40.0837543" lon="18.4823541"><ele>18.0</ele><time>2026-04-04T14:44:30.188Z</time></trkpt><trkpt lat="40.0837258" lon="18.4822371"><ele>18.0</ele><time>2026-04-04T14:44:31.186Z</time></trkpt><trkpt lat="40.0837013" lon="18.4821224"><ele>18.0</ele><time>2026-04-04T14:44:32.187Z</time></trkpt><trkpt lat="40.0836826" lon="18.4820123"><ele>18.0</ele><time>2026-04-04T14:44:33.186Z</time></trkpt><trkpt lat="40.0836751" lon="18.4819073"><ele>17.857142857142858</ele><time>2026-04-04T14:44:34.186Z</time></trkpt><trkpt lat="40.0836762" lon="18.4818027"><ele>17.714285714285715</ele><time>2026-04-04T14:44:35.187Z</time></trkpt><trkpt lat="40.0836817" lon="18.4816963"><ele>17.57142857142857</ele><time>2026-04-04T14:44:36.188Z</time></trkpt><trkpt lat="40.0836939" lon="18.4816009"><ele>17.42857142857143</ele><time>2026-04-04T14:44:37.186Z</time></trkpt><trkpt lat="40.083683" lon="18.4815049"><ele>17.285714285714285</ele><time>2026-04-04T14:44:38.187Z</time></trkpt><trkpt lat="40.0836694" lon="18.4814151"><ele>17.142857142857142</ele><time>2026-04-04T14:44:39.187Z</time></trkpt><trkpt lat="40.083644" lon="18.4813362"><ele>17.0</ele><time>2026-04-04T14:44:40.186Z</time></trkpt><trkpt lat="40.0835979" lon="18.4811895"><ele>17.0</ele><time>2026-04-04T14:44:42.185Z</time></trkpt><trkpt lat="40.0835212" lon="18.4811201"><ele>17.0</ele><time>2026-04-04T14:44:44.186Z</time></trkpt><trkpt lat="40.0834347" lon="18.4811067"><ele>17.0</ele><time>2026-04-04T14:44:46.185Z</time></trkpt><trkpt lat="40.0833089" lon="18.4811405"><ele>17.0</ele><time>2026-04-04T14:44:48.188Z</time></trkpt><trkpt lat="40.0832201" lon="18.4811385"><ele>17.0</ele><time>2026-04-04T14:44:49.186Z</time></trkpt><trkpt lat="40.0831322" lon="18.4811334"><ele>16.75</ele><time>2026-04-04T14:44:50.187Z</time></trkpt><trkpt lat="40.0830292" lon="18.4811155"><ele>16.5</ele><time>2026-04-04T14:44:51.186Z</time></trkpt><trkpt lat="40.0829091" lon="18.4810836"><ele>16.25</ele><time>2026-04-04T14:44:52.188Z</time></trkpt><trkpt lat="40.0827694" lon="18.4810272"><ele>16.0</ele><time>2026-04-04T14:44:53.187Z</time></trkpt><trkpt lat="40.0826141" lon="18.4809593"><ele>16.0</ele><time>2026-04-04T14:44:54.186Z</time></trkpt><trkpt lat="40.0824391" lon="18.4808725"><ele>16.0</ele><time>2026-04-04T14:44:55.187Z</time></trkpt><trkpt lat="40.0822557" lon="18.480775"><ele>16.0</ele><time>2026-04-04T14:44:56.187Z</time></trkpt><trkpt lat="40.0820964" lon="18.4806851"><ele>16.6</ele><time>2026-04-04T14:44:57.186Z</time></trkpt><trkpt lat="40.0819603" lon="18.4806068"><ele>17.200000000000003</ele><time>2026-04-04T14:44:58.186Z</time></trkpt><trkpt lat="40.0818593" lon="18.4805493"><ele>17.799999999999997</ele><time>2026-04-04T14:44:59.187Z</time></trkpt><trkpt lat="40.0817806" lon="18.4805317"><ele>18.4</ele><time>2026-04-04T14:45:00.186Z</time></trkpt><trkpt lat="40.0817121" lon="18.4805617"><ele>19.0</ele><time>2026-04-04T14:45:01.185Z</time></trkpt><trkpt lat="40.0816676" lon="18.4806379"><ele>19.0</ele><time>2026-04-04T14:45:02.187Z</time></trkpt><trkpt lat="40.081647" lon="18.4807478"><ele>19.0</ele><time>2026-04-04T14:45:03.186Z</time></trkpt><trkpt lat="40.0816584" lon="18.4808925"><ele>19.0</ele><time>2026-04-04T14:45:04.187Z</time></trkpt><trkpt lat="40.0816698" lon="18.4810439"><ele>19.0</ele><time>2026-04-04T14:45:05.188Z</time></trkpt><trkpt lat="40.0816478" lon="18.4811983"><ele>19.0</ele><time>2026-04-04T14:45:06.187Z</time></trkpt><trkpt lat="40.0816111" lon="18.4813527"><ele>18.75</ele><time>2026-04-04T14:45:07.186Z</time></trkpt><trkpt lat="40.0815137" lon="18.4814829"><ele>18.5</ele><time>2026-04-04T14:45:08.187Z</time></trkpt><trkpt lat="40.0814269" lon="18.4816068"><ele>18.25</ele><time>2026-04-04T14:45:09.186Z</time></trkpt><trkpt lat="40.0813196" lon="18.4817303"><ele>18.0</ele><time>2026-04-04T14:45:10.187Z</time></trkpt><trkpt lat="40.0811957" lon="18.4818697"><ele>18.0</ele><time>2026-04-04T14:45:11.186Z</time></trkpt><trkpt lat="40.0810983" lon="18.4820301"><ele>18.0</ele><time>2026-04-04T14:45:12.186Z</time></trkpt><trkpt lat="40.0810394" lon="18.4822131"><ele>18.0</ele><time>2026-04-04T14:45:13.186Z</time></trkpt><trkpt lat="40.0809918" lon="18.4824079"><ele>16.25</ele><time>2026-04-04T14:45:14.186Z</time></trkpt><trkpt lat="40.0809509" lon="18.4826014"><ele>14.5</ele><time>2026-04-04T14:45:15.186Z</time></trkpt><trkpt lat="40.0809129" lon="18.4827919"><ele>12.75</ele><time>2026-04-04T14:45:16.186Z</time></trkpt><trkpt lat="40.0808705" lon="18.4829698"><ele>11.0</ele><time>2026-04-04T14:45:17.186Z</time></trkpt><trkpt lat="40.0808136" lon="18.483118"><ele>10.8</ele><time>2026-04-04T14:45:18.185Z</time></trkpt><trkpt lat="40.0807115" lon="18.4832036"><ele>10.600000000000001</ele><time>2026-04-04T14:45:19.186Z</time></trkpt><trkpt lat="40.0806093" lon="18.4832575"><ele>10.4</ele><time>2026-04-04T14:45:20.187Z</time></trkpt><trkpt lat="40.0805077" lon="18.4832715"><ele>10.2</ele><time>2026-04-04T14:45:21.186Z</time></trkpt><trkpt lat="40.0804044" lon="18.4832729"><ele>10.0</ele><time>2026-04-04T14:45:22.187Z</time></trkpt><trkpt lat="40.0803078" lon="18.4832623"><ele>10.0</ele><time>2026-04-04T14:45:23.186Z</time></trkpt><trkpt lat="40.0802304" lon="18.4832516"><ele>10.0</ele><time>2026-04-04T14:45:24.187Z</time></trkpt><trkpt lat="40.0801524" lon="18.4832169"><ele>10.0</ele><time>2026-04-04T14:45:26.185Z</time></trkpt><trkpt lat="40.0801538" lon="18.4830971"><ele>10.0</ele><time>2026-04-04T14:45:29.186Z</time></trkpt><trkpt lat="40.0802039" lon="18.4829684"><ele>10.0</ele><time>2026-04-04T14:45:31.187Z</time></trkpt><trkpt lat="40.0802402" lon="18.4828156"><ele>10.5</ele><time>2026-04-04T14:45:33.186Z</time></trkpt><trkpt lat="40.0802464" lon="18.4826719"><ele>11.0</ele><time>2026-04-04T14:45:35.188Z</time></trkpt><trkpt lat="40.0801869" lon="18.4825944"><ele>11.5</ele><time>2026-04-04T14:45:37.186Z</time></trkpt><trkpt lat="40.0801202" lon="18.4825507"><ele>12.0</ele><time>2026-04-04T14:45:40.188Z</time></trkpt><trkpt lat="40.0800448" lon="18.4825099"><ele>12.499999999999998</ele><time>2026-04-04T14:45:44.186Z</time></trkpt><trkpt lat="40.0799782" lon="18.4824795"><ele>13.0</ele><time>2026-04-04T14:45:47.186Z</time></trkpt><trkpt lat="40.0798969" lon="18.4824334"><ele>12.999999999999998</ele><time>2026-04-04T14:45:50.186Z</time></trkpt><trkpt lat="40.079829" lon="18.4823808"><ele>13.0</ele><time>2026-04-04T14:45:53.187Z</time></trkpt><trkpt lat="40.0797669" lon="18.482331"><ele>13.0</ele><time>2026-04-04T14:45:56.187Z</time></trkpt><trkpt lat="40.0796969" lon="18.4822795"><ele>13.0</ele><time>2026-04-04T14:45:59.188Z</time></trkpt><trkpt lat="40.0796378" lon="18.482248"><ele>12.999999999999998</ele><time>2026-04-04T14:46:01.187Z</time></trkpt><trkpt lat="40.0795754" lon="18.482202"><ele>13.0</ele><time>2026-04-04T14:46:03.185Z</time></trkpt><trkpt lat="40.0794991" lon="18.482162"><ele>13.0</ele><time>2026-04-04T14:46:05.186Z</time></trkpt><trkpt lat="40.0794314" lon="18.4821216"><ele>13.0</ele><time>2026-04-04T14:46:07.185Z</time></trkpt><trkpt lat="40.0793707" lon="18.4820862"><ele>13.0</ele><time>2026-04-04T14:46:09.187Z</time></trkpt><trkpt lat="40.0793069" lon="18.4821986"><ele>13.0</ele><time>2026-04-04T14:46:11.187Z</time></trkpt><trkpt lat="40.079257" lon="18.4823382"><ele>13.0</ele><time>2026-04-04T14:46:13.185Z</time></trkpt><trkpt lat="40.0792239" lon="18.4824513"><ele>13.0</ele><time>2026-04-04T14:46:15.187Z</time></trkpt><trkpt lat="40.0791838" lon="18.482539"><ele>13.0</ele><time>2026-04-04T14:46:20.186Z</time></trkpt><trkpt lat="40.0791501" lon="18.4826235"><ele>13.0</ele><time>2026-04-04T14:46:23.187Z</time></trkpt><trkpt lat="40.0791034" lon="18.482693"><ele>13.0</ele><time>2026-04-04T14:46:27.186Z</time></trkpt><trkpt lat="40.0790226" lon="18.4826526"><ele>13.0</ele><time>2026-04-04T14:46:29.186Z</time></trkpt><trkpt lat="40.0789668" lon="18.4826104"><ele>13.0</ele><time>2026-04-04T14:46:32.185Z</time></trkpt><trkpt lat="40.0788996" lon="18.4825877"><ele>13.0</ele><time>2026-04-04T14:46:37.187Z</time></trkpt><trkpt lat="40.0788321" lon="18.4825479"><ele>13.166666666666666</ele><time>2026-04-04T14:46:45.186Z</time></trkpt><trkpt lat="40.0787643" lon="18.4825"><ele>13.333333333333332</ele><time>2026-04-04T14:46:49.185Z</time></trkpt><trkpt lat="40.0786878" lon="18.4824468"><ele>13.5</ele><time>2026-04-04T14:46:53.186Z</time></trkpt><trkpt lat="40.0786235" lon="18.4824086"><ele>13.666666666666668</ele><time>2026-04-04T14:46:55.187Z</time></trkpt><trkpt lat="40.0785531" lon="18.482357"><ele>13.833333333333334</ele><time>2026-04-04T14:46:57.186Z</time></trkpt><trkpt lat="40.0784919" lon="18.4823149"><ele>14.0</ele><time>2026-04-04T14:47:00.187Z</time></trkpt><trkpt lat="40.0784391" lon="18.4822618"><ele>14.000000000000002</ele><time>2026-04-04T14:47:08.187Z</time></trkpt><trkpt lat="40.078385" lon="18.4822056"><ele>14.0</ele><time>2026-04-04T14:47:12.186Z</time></trkpt><trkpt lat="40.0783323" lon="18.4821312"><ele>14.0</ele><time>2026-04-04T14:47:16.187Z</time></trkpt><trkpt lat="40.0782899" lon="18.4820674"><ele>14.0</ele><time>2026-04-04T14:47:31.185Z</time></trkpt><trkpt lat="40.0782495" lon="18.4819987"><ele>14.000000000000002</ele><time>2026-04-04T14:47:34.185Z</time></trkpt><trkpt lat="40.0781914" lon="18.4818895"><ele>14.0</ele><time>2026-04-04T14:47:36.186Z</time></trkpt><trkpt lat="40.0781307" lon="18.4818137"><ele>14.399999999999999</ele><time>2026-04-04T14:47:38.186Z</time></trkpt><trkpt lat="40.0780464" lon="18.4818239"><ele>14.799999999999999</ele><time>2026-04-04T14:47:40.187Z</time></trkpt><trkpt lat="40.077954" lon="18.4818971"><ele>15.200000000000001</ele><time>2026-04-04T14:47:42.185Z</time></trkpt><trkpt lat="40.0778856" lon="18.4819043"><ele>15.600000000000001</ele><time>2026-04-04T14:47:45.185Z</time></trkpt><trkpt lat="40.0777665" lon="18.4818427"><ele>16.0</ele><time>2026-04-04T14:47:47.186Z</time></trkpt><trkpt lat="40.0776827" lon="18.4818059"><ele>16.0</ele><time>2026-04-04T14:47:48.187Z</time></trkpt><trkpt lat="40.0775772" lon="18.4817457"><ele>16.0</ele><time>2026-04-04T14:47:49.187Z</time></trkpt><trkpt lat="40.0774703" lon="18.4816753"><ele>16.0</ele><time>2026-04-04T14:47:50.186Z</time></trkpt><trkpt lat="40.0773575" lon="18.4816022"><ele>16.0</ele><time>2026-04-04T14:47:51.187Z</time></trkpt><trkpt lat="40.0772266" lon="18.4815492"><ele>16.75</ele><time>2026-04-04T14:47:52.187Z</time></trkpt><trkpt lat="40.0770886" lon="18.4815297"><ele>17.5</ele><time>2026-04-04T14:47:53.187Z</time></trkpt><trkpt lat="40.0769471" lon="18.4815583"><ele>18.25</ele><time>2026-04-04T14:47:54.186Z</time></trkpt><trkpt lat="40.0768036" lon="18.4816362"><ele>19.0</ele><time>2026-04-04T14:47:55.187Z</time></trkpt><trkpt lat="40.0766729" lon="18.4817504"><ele>19.666666666666664</ele><time>2026-04-04T14:47:56.188Z</time></trkpt><trkpt lat="40.0765534" lon="18.4818978"><ele>20.333333333333332</ele><time>2026-04-04T14:47:57.186Z</time></trkpt><trkpt lat="40.0764414" lon="18.4820526"><ele>21.0</ele><time>2026-04-04T14:47:58.187Z</time></trkpt><trkpt lat="40.0763231" lon="18.4821757"><ele>19.25</ele><time>2026-04-04T14:47:59.185Z</time></trkpt><trkpt lat="40.0761933" lon="18.482257"><ele>17.5</ele><time>2026-04-04T14:48:00.186Z</time></trkpt><trkpt lat="40.0760677" lon="18.4822926"><ele>15.75</ele><time>2026-04-04T14:48:01.186Z</time></trkpt><trkpt lat="40.0759353" lon="18.4822761"><ele>14.0</ele><time>2026-04-04T14:48:02.187Z</time></trkpt><trkpt lat="40.0757982" lon="18.4822074"><ele>13.666666666666668</ele><time>2026-04-04T14:48:03.185Z</time></trkpt><trkpt lat="40.0756372" lon="18.4821031"><ele>13.333333333333332</ele><time>2026-04-04T14:48:04.186Z</time></trkpt><trkpt lat="40.0754605" lon="18.4819731"><ele>13.0</ele><time>2026-04-04T14:48:05.186Z</time></trkpt><trkpt lat="40.0752593" lon="18.4818349"><ele>16.0</ele><time>2026-04-04T14:48:06.186Z</time></trkpt><trkpt lat="40.0750278" lon="18.4816752"><ele>19.0</ele><time>2026-04-04T14:48:07.187Z</time></trkpt><trkpt lat="40.0748012" lon="18.4815159"><ele>19.0</ele><time>2026-04-04T14:48:08.186Z</time></trkpt><trkpt lat="40.0745721" lon="18.4813558"><ele>19.0</ele><time>2026-04-04T14:48:09.186Z</time></trkpt><trkpt lat="40.0743504" lon="18.4812005"><ele>21.333333333333332</ele><time>2026-04-04T14:48:10.187Z</time></trkpt><trkpt lat="40.0741461" lon="18.4810544"><ele>23.666666666666664</ele><time>2026-04-04T14:48:11.187Z</time></trkpt><trkpt lat="40.0739694" lon="18.4809222"><ele>26.0</ele><time>2026-04-04T14:48:12.185Z</time></trkpt><trkpt lat="40.0738201" lon="18.4808208"><ele>26.0</ele><time>2026-04-04T14:48:13.186Z</time></trkpt><trkpt lat="40.0736946" lon="18.4807763"><ele>26.0</ele><time>2026-04-04T14:48:14.187Z</time></trkpt><trkpt lat="40.0735694" lon="18.4807918"><ele>26.0</ele><time>2026-04-04T14:48:15.186Z</time></trkpt><trkpt lat="40.0734468" lon="18.4808537"><ele>26.0</ele><time>2026-04-04T14:48:16.186Z</time></trkpt><trkpt lat="40.0733151" lon="18.4808958"><ele>27.25</ele><time>2026-04-04T14:48:17.187Z</time></trkpt><trkpt lat="40.0731851" lon="18.4808904"><ele>28.5</ele><time>2026-04-04T14:48:18.186Z</time></trkpt><trkpt lat="40.0730673" lon="18.4808383"><ele>29.75</ele><time>2026-04-04T14:48:19.185Z</time></trkpt><trkpt lat="40.0729534" lon="18.4807496"><ele>31.0</ele><time>2026-04-04T14:48:20.186Z</time></trkpt><trkpt lat="40.0728513" lon="18.4806542"><ele>31.0</ele><time>2026-04-04T14:48:21.186Z</time></trkpt><trkpt lat="40.0727402" lon="18.4805806"><ele>31.0</ele><time>2026-04-04T14:48:22.187Z</time></trkpt><trkpt lat="40.0726175" lon="18.4805315"><ele>31.0</ele><time>2026-04-04T14:48:23.187Z</time></trkpt><trkpt lat="40.072481" lon="18.4805255"><ele>31.0</ele><time>2026-04-04T14:48:24.186Z</time></trkpt><trkpt lat="40.0723379" lon="18.480564"><ele>33.333333333333336</ele><time>2026-04-04T14:48:25.186Z</time></trkpt><trkpt lat="40.0721888" lon="18.4807097"><ele>35.666666666666664</ele><time>2026-04-04T14:48:26.188Z</time></trkpt><trkpt lat="40.0720484" lon="18.4808166"><ele>38.0</ele><time>2026-04-04T14:48:27.187Z</time></trkpt><trkpt lat="40.0719065" lon="18.4808841"><ele>38.0</ele><time>2026-04-04T14:48:28.186Z</time></trkpt><trkpt lat="40.071767" lon="18.4809057"><ele>38.0</ele><time>2026-04-04T14:48:29.187Z</time></trkpt><trkpt lat="40.0716261" lon="18.4808653"><ele>38.0</ele><time>2026-04-04T14:48:30.187Z</time></trkpt><trkpt lat="40.0714936" lon="18.4807696"><ele>38.0</ele><time>2026-04-04T14:48:31.186Z</time></trkpt><trkpt lat="40.071351" lon="18.4806458"><ele>38.33333333333333</ele><time>2026-04-04T14:48:32.187Z</time></trkpt><trkpt lat="40.0712" lon="18.4805191"><ele>38.666666666666664</ele><time>2026-04-04T14:48:33.185Z</time></trkpt><trkpt lat="40.0710365" lon="18.4803922"><ele>39.0</ele><time>2026-04-04T14:48:34.188Z</time></trkpt><trkpt lat="40.07087" lon="18.4802832"><ele>44.66666666666667</ele><time>2026-04-04T14:48:35.186Z</time></trkpt><trkpt lat="40.0707054" lon="18.4802289"><ele>50.333333333333336</ele><time>2026-04-04T14:48:36.186Z</time></trkpt><trkpt lat="40.0705456" lon="18.4802385"><ele>56.0</ele><time>2026-04-04T14:48:37.188Z</time></trkpt><trkpt lat="40.0704054" lon="18.4803175"><ele>51.5</ele><time>2026-04-04T14:48:38.186Z</time></trkpt><trkpt lat="40.0702886" lon="18.480437"><ele>47.0</ele><time>2026-04-04T14:48:39.187Z</time></trkpt><trkpt lat="40.0701769" lon="18.4805337"><ele>42.5</ele><time>2026-04-04T14:48:40.185Z</time></trkpt><trkpt lat="40.0700663" lon="18.480584"><ele>38.0</ele><time>2026-04-04T14:48:41.187Z</time></trkpt><trkpt lat="40.0699513" lon="18.4805994"><ele>37.0</ele><time>2026-04-04T14:48:42.186Z</time></trkpt><trkpt lat="40.0698373" lon="18.4805337"><ele>36.0</ele><time>2026-04-04T14:48:43.186Z</time></trkpt><trkpt lat="40.0697371" lon="18.4804414"><ele>35.0</ele><time>2026-04-04T14:48:44.185Z</time></trkpt><trkpt lat="40.0696696" lon="18.4803096"><ele>34.0</ele><time>2026-04-04T14:48:45.186Z</time></trkpt><trkpt lat="40.0696385" lon="18.4801456"><ele>40.66666666666667</ele><time>2026-04-04T14:48:46.187Z</time></trkpt><trkpt lat="40.0696217" lon="18.4799458"><ele>47.333333333333336</ele><time>2026-04-04T14:48:47.186Z</time></trkpt><trkpt lat="40.0696079" lon="18.4797236"><ele>54.0</ele><time>2026-04-04T14:48:48.187Z</time></trkpt><trkpt lat="40.0695814" lon="18.4794931"><ele>57.33333333333333</ele><time>2026-04-04T14:48:49.186Z</time></trkpt><trkpt lat="40.0695498" lon="18.4792712"><ele>60.666666666666664</ele><time>2026-04-04T14:48:50.186Z</time></trkpt><trkpt lat="40.0695116" lon="18.4790733"><ele>64.0</ele><time>2026-04-04T14:48:51.187Z</time></trkpt><trkpt lat="40.0694368" lon="18.4789021"><ele>64.0</ele><time>2026-04-04T14:48:52.187Z</time></trkpt><trkpt lat="40.0693215" lon="18.4787818"><ele>64.0</ele><time>2026-04-04T14:48:53.187Z</time></trkpt><trkpt lat="40.069184" lon="18.4787306"><ele>64.0</ele><time>2026-04-04T14:48:54.185Z</time></trkpt><trkpt lat="40.0690512" lon="18.4787634"><ele>64.0</ele><time>2026-04-04T14:48:55.186Z</time></trkpt><trkpt lat="40.0689191" lon="18.4788418"><ele>65.0</ele><time>2026-04-04T14:48:56.186Z</time></trkpt><trkpt lat="40.0687808" lon="18.4789473"><ele>66.0</ele><time>2026-04-04T14:48:57.185Z</time></trkpt><trkpt lat="40.0686324" lon="18.4790571"><ele>67.0</ele><time>2026-04-04T14:48:58.186Z</time></trkpt><trkpt lat="40.0684712" lon="18.4791723"><ele>67.0</ele><time>2026-04-04T14:48:59.186Z</time></trkpt><trkpt lat="40.0683028" lon="18.4792936"><ele>67.0</ele><time>2026-04-04T14:49:00.187Z</time></trkpt><trkpt lat="40.0681243" lon="18.4794206"><ele>67.0</ele><time>2026-04-04T14:49:01.185Z</time></trkpt><trkpt lat="40.0679455" lon="18.4795556"><ele>63.33333333333333</ele><time>2026-04-04T14:49:02.187Z</time></trkpt><trkpt lat="40.0677665" lon="18.4796886"><ele>59.66666666666667</ele><time>2026-04-04T14:49:03.186Z</time></trkpt><trkpt lat="40.0675882" lon="18.47981"><ele>56.0</ele><time>2026-04-04T14:49:04.186Z</time></trkpt><trkpt lat="40.0674129" lon="18.479909"><ele>55.0</ele><time>2026-04-04T14:49:05.186Z</time></trkpt><trkpt lat="40.0672305" lon="18.4799503"><ele>54.0</ele><time>2026-04-04T14:49:06.186Z</time></trkpt><trkpt lat="40.0670426" lon="18.4799528"><ele>53.0</ele><time>2026-04-04T14:49:07.185Z</time></trkpt><trkpt lat="40.0668545" lon="18.4799162"><ele>53.0</ele><time>2026-04-04T14:49:08.187Z</time></trkpt><trkpt lat="40.0666775" lon="18.4798363"><ele>53.0</ele><time>2026-04-04T14:49:09.185Z</time></trkpt><trkpt lat="40.0665069" lon="18.4797222"><ele>53.0</ele><time>2026-04-04T14:49:10.186Z</time></trkpt><trkpt lat="40.0663523" lon="18.4795432"><ele>55.0</ele><time>2026-04-04T14:49:11.185Z</time></trkpt><trkpt lat="40.0662044" lon="18.4793435"><ele>57.0</ele><time>2026-04-04T14:49:12.186Z</time></trkpt><trkpt lat="40.0660611" lon="18.4791066"><ele>59.0</ele><time>2026-04-04T14:49:13.186Z</time></trkpt><trkpt lat="40.0659195" lon="18.4788523"><ele>64.5</ele><time>2026-04-04T14:49:14.186Z</time></trkpt><trkpt lat="40.0657802" lon="18.4785896"><ele>70.0</ele><time>2026-04-04T14:49:15.186Z</time></trkpt><trkpt lat="40.0656424" lon="18.4783223"><ele>70.0</ele><time>2026-04-04T14:49:16.186Z</time></trkpt><trkpt lat="40.0654997" lon="18.4780564"><ele>70.0</ele><time>2026-04-04T14:49:17.186Z</time></trkpt><trkpt lat="40.0653562" lon="18.4777899"><ele>73.0</ele><time>2026-04-04T14:49:18.186Z</time></trkpt><trkpt lat="40.0652145" lon="18.4775193"><ele>76.0</ele><time>2026-04-04T14:49:19.186Z</time></trkpt><trkpt lat="40.0650718" lon="18.4772456"><ele>74.5</ele><time>2026-04-04T14:49:20.187Z</time></trkpt><trkpt lat="40.0649247" lon="18.4769743"><ele>73.0</ele><time>2026-04-04T14:49:21.186Z</time></trkpt><trkpt lat="40.0647761" lon="18.4766992"><ele>73.0</ele><time>2026-04-04T14:49:22.186Z</time></trkpt><trkpt lat="40.0646312" lon="18.4764243"><ele>73.0</ele><time>2026-04-04T14:49:23.186Z</time></trkpt><trkpt lat="40.0644858" lon="18.4761492"><ele>75.0</ele><time>2026-04-04T14:49:24.185Z</time></trkpt><trkpt lat="40.0643425" lon="18.4758781"><ele>77.0</ele><time>2026-04-04T14:49:25.185Z</time></trkpt><trkpt lat="40.0642025" lon="18.4756134"><ele>79.0</ele><time>2026-04-04T14:49:26.187Z</time></trkpt><trkpt lat="40.0640806" lon="18.4753788"><ele>81.0</ele><time>2026-04-04T14:49:27.185Z</time></trkpt><trkpt lat="40.0639491" lon="18.4751608"><ele>83.0</ele><time>2026-04-04T14:49:28.187Z</time></trkpt><trkpt lat="40.0637902" lon="18.4749948"><ele>83.0</ele><time>2026-04-04T14:49:29.185Z</time></trkpt><trkpt lat="40.0636119" lon="18.4748536"><ele>83.0</ele><time>2026-04-04T14:49:30.188Z</time></trkpt><trkpt lat="40.0634056" lon="18.474752"><ele>83.0</ele><time>2026-04-04T14:49:31.187Z</time></trkpt><trkpt lat="40.0631885" lon="18.4746789"><ele>88.0</ele><time>2026-04-04T14:49:32.186Z</time></trkpt><trkpt lat="40.0629645" lon="18.4745946"><ele>93.0</ele><time>2026-04-04T14:49:33.187Z</time></trkpt><trkpt lat="40.0627276" lon="18.4745161"><ele>93.0</ele><time>2026-04-04T14:49:34.188Z</time></trkpt><trkpt lat="40.0624878" lon="18.4744298"><ele>93.0</ele><time>2026-04-04T14:49:35.185Z</time></trkpt><trkpt lat="40.0622452" lon="18.4743443"><ele>92.5</ele><time>2026-04-04T14:49:36.186Z</time></trkpt><trkpt lat="40.0619998" lon="18.4742603"><ele>92.0</ele><time>2026-04-04T14:49:37.187Z</time></trkpt><trkpt lat="40.0617562" lon="18.4741846"><ele>92.5</ele><time>2026-04-04T14:49:38.187Z</time></trkpt><trkpt lat="40.0615037" lon="18.4741556"><ele>93.0</ele><time>2026-04-04T14:49:39.186Z</time></trkpt><trkpt lat="40.0612451" lon="18.4741594"><ele>93.0</ele><time>2026-04-04T14:49:40.187Z</time></trkpt><trkpt lat="40.0609911" lon="18.4741758"><ele>93.0</ele><time>2026-04-04T14:49:41.188Z</time></trkpt><trkpt lat="40.0607495" lon="18.4742035"><ele>96.5</ele><time>2026-04-04T14:49:42.185Z</time></trkpt><trkpt lat="40.060517" lon="18.4742707"><ele>100.0</ele><time>2026-04-04T14:49:43.187Z</time></trkpt><trkpt lat="40.0602833" lon="18.4743846"><ele>100.0</ele><time>2026-04-04T14:49:44.187Z</time></trkpt><trkpt lat="40.0600664" lon="18.4745395"><ele>100.0</ele><time>2026-04-04T14:49:45.186Z</time></trkpt><trkpt lat="40.059867" lon="18.4747032"><ele>98.0</ele><time>2026-04-04T14:49:46.185Z</time></trkpt><trkpt lat="40.059687" lon="18.4748638"><ele>96.0</ele><time>2026-04-04T14:49:47.186Z</time></trkpt><trkpt lat="40.0595352" lon="18.4749727"><ele>94.0</ele><time>2026-04-04T14:49:48.186Z</time></trkpt><trkpt lat="40.0593872" lon="18.4750304"><ele>94.0</ele><time>2026-04-04T14:49:49.186Z</time></trkpt><trkpt lat="40.0592383" lon="18.4750563"><ele>94.0</ele><time>2026-04-04T14:49:50.186Z</time></trkpt><trkpt lat="40.0590706" lon="18.4750295"><ele>94.0</ele><time>2026-04-04T14:49:51.186Z</time></trkpt><trkpt lat="40.0588975" lon="18.4750572"><ele>97.0</ele><time>2026-04-04T14:49:52.187Z</time></trkpt><trkpt lat="40.0587238" lon="18.4751426"><ele>100.0</ele><time>2026-04-04T14:49:53.186Z</time></trkpt><trkpt lat="40.0585483" lon="18.4752408"><ele>103.0</ele><time>2026-04-04T14:49:54.188Z</time></trkpt><trkpt lat="40.0583941" lon="18.4753219"><ele>103.25</ele><time>2026-04-04T14:49:55.185Z</time></trkpt><trkpt lat="40.0582399" lon="18.4753814"><ele>103.5</ele><time>2026-04-04T14:49:56.185Z</time></trkpt><trkpt lat="40.0581044" lon="18.4753312"><ele>103.75</ele><time>2026-04-04T14:49:57.186Z</time></trkpt><trkpt lat="40.0579758" lon="18.4752434"><ele>104.0</ele><time>2026-04-04T14:49:58.186Z</time></trkpt><trkpt lat="40.0578385" lon="18.4751418"><ele>104.0</ele><time>2026-04-04T14:49:59.188Z</time></trkpt><trkpt lat="40.0576855" lon="18.4750783"><ele>104.0</ele><time>2026-04-04T14:50:00.185Z</time></trkpt><trkpt lat="40.0575207" lon="18.4750447"><ele>104.0</ele><time>2026-04-04T14:50:01.187Z</time></trkpt><trkpt lat="40.0573255" lon="18.4750722"><ele>104.33333333333333</ele><time>2026-04-04T14:50:02.186Z</time></trkpt><trkpt lat="40.0571242" lon="18.4751748"><ele>104.66666666666666</ele><time>2026-04-04T14:50:03.185Z</time></trkpt><trkpt lat="40.0569388" lon="18.4752693"><ele>105.0</ele><time>2026-04-04T14:50:04.186Z</time></trkpt><trkpt lat="40.0567725" lon="18.4753805"><ele>99.33333333333333</ele><time>2026-04-04T14:50:05.185Z</time></trkpt><trkpt lat="40.0566206" lon="18.4754689"><ele>93.66666666666666</ele><time>2026-04-04T14:50:06.185Z</time></trkpt><trkpt lat="40.0564706" lon="18.475525"><ele>88.0</ele><time>2026-04-04T14:50:07.186Z</time></trkpt><trkpt lat="40.056318" lon="18.4755342"><ele>87.66666666666666</ele><time>2026-04-04T14:50:08.186Z</time></trkpt><trkpt lat="40.0561379" lon="18.4754871"><ele>87.33333333333333</ele><time>2026-04-04T14:50:09.188Z</time></trkpt><trkpt lat="40.0559159" lon="18.4754137"><ele>87.0</ele><time>2026-04-04T14:50:10.187Z</time></trkpt><trkpt lat="40.0556865" lon="18.4753259"><ele>95.5</ele><time>2026-04-04T14:50:11.186Z</time></trkpt><trkpt lat="40.0554476" lon="18.4752237"><ele>104.0</ele><time>2026-04-04T14:50:12.186Z</time></trkpt><trkpt lat="40.0552184" lon="18.4750978"><ele>104.0</ele><time>2026-04-04T14:50:13.186Z</time></trkpt><trkpt lat="40.0550052" lon="18.4749684"><ele>104.0</ele><time>2026-04-04T14:50:14.186Z</time></trkpt><trkpt lat="40.0548105" lon="18.4748428"><ele>104.33333333333333</ele><time>2026-04-04T14:50:15.185Z</time></trkpt><trkpt lat="40.054629" lon="18.4747262"><ele>104.66666666666666</ele><time>2026-04-04T14:50:16.186Z</time></trkpt><trkpt lat="40.0544618" lon="18.4746166"><ele>105.0</ele><time>2026-04-04T14:50:17.186Z</time></trkpt><trkpt lat="40.0543015" lon="18.4745142"><ele>105.0</ele><time>2026-04-04T14:50:18.186Z</time></trkpt><trkpt lat="40.0541506" lon="18.4744155"><ele>105.0</ele><time>2026-04-04T14:50:19.186Z</time></trkpt><trkpt lat="40.0540045" lon="18.4743272"><ele>105.0</ele><time>2026-04-04T14:50:20.185Z</time></trkpt><trkpt lat="40.0538615" lon="18.4742589"><ele>105.66666666666666</ele><time>2026-04-04T14:50:21.187Z</time></trkpt><trkpt lat="40.0537192" lon="18.4742165"><ele>106.33333333333333</ele><time>2026-04-04T14:50:22.186Z</time></trkpt><trkpt lat="40.0535502" lon="18.4742345"><ele>107.0</ele><time>2026-04-04T14:50:23.186Z</time></trkpt><trkpt lat="40.0533656" lon="18.4742609"><ele>107.33333333333333</ele><time>2026-04-04T14:50:24.186Z</time></trkpt><trkpt lat="40.0531664" lon="18.4743048"><ele>107.66666666666666</ele><time>2026-04-04T14:50:25.187Z</time></trkpt><trkpt lat="40.0529544" lon="18.4743504"><ele>108.0</ele><time>2026-04-04T14:50:26.187Z</time></trkpt><trkpt lat="40.0527168" lon="18.4744014"><ele>108.0</ele><time>2026-04-04T14:50:27.188Z</time></trkpt><trkpt lat="40.0524894" lon="18.4744479"><ele>108.0</ele><time>2026-04-04T14:50:28.186Z</time></trkpt><trkpt lat="40.0522624" lon="18.4744816"><ele>108.0</ele><time>2026-04-04T14:50:29.186Z</time></trkpt><trkpt lat="40.05204" lon="18.474506"><ele>108.0</ele><time>2026-04-04T14:50:30.186Z</time></trkpt><trkpt lat="40.0518283" lon="18.4745335"><ele>108.0</ele><time>2026-04-04T14:50:31.188Z</time></trkpt><trkpt lat="40.0516239" lon="18.4745619"><ele>107.66666666666666</ele><time>2026-04-04T14:50:32.185Z</time></trkpt><trkpt lat="40.0514226" lon="18.4745947"><ele>107.33333333333333</ele><time>2026-04-04T14:50:33.186Z</time></trkpt><trkpt lat="40.0512405" lon="18.4746321"><ele>107.0</ele><time>2026-04-04T14:50:34.186Z</time></trkpt><trkpt lat="40.0510731" lon="18.4746785"><ele>104.75</ele><time>2026-04-04T14:50:35.185Z</time></trkpt><trkpt lat="40.0509372" lon="18.4747271"><ele>102.5</ele><time>2026-04-04T14:50:36.186Z</time></trkpt><trkpt lat="40.0508025" lon="18.4747806"><ele>100.25</ele><time>2026-04-04T14:50:37.187Z</time></trkpt><trkpt lat="40.0506756" lon="18.4748002"><ele>98.0</ele><time>2026-04-04T14:50:38.186Z</time></trkpt><trkpt lat="40.0505493" lon="18.4748089"><ele>95.75</ele><time>2026-04-04T14:50:39.187Z</time></trkpt><trkpt lat="40.0504194" lon="18.4747391"><ele>93.5</ele><time>2026-04-04T14:50:40.187Z</time></trkpt><trkpt lat="40.0502788" lon="18.4746752"><ele>91.25</ele><time>2026-04-04T14:50:41.188Z</time></trkpt><trkpt lat="40.0501315" lon="18.4746057"><ele>89.0</ele><time>2026-04-04T14:50:42.185Z</time></trkpt><trkpt lat="40.0499848" lon="18.4745526"><ele>92.5</ele><time>2026-04-04T14:50:43.185Z</time></trkpt><trkpt lat="40.0498417" lon="18.4745157"><ele>96.0</ele><time>2026-04-04T14:50:44.185Z</time></trkpt><trkpt lat="40.0497022" lon="18.4744718"><ele>99.5</ele><time>2026-04-04T14:50:45.187Z</time></trkpt><trkpt lat="40.0495732" lon="18.4744031"><ele>103.0</ele><time>2026-04-04T14:50:46.186Z</time></trkpt><trkpt lat="40.0494485" lon="18.4743372"><ele>103.0</ele><time>2026-04-04T14:50:47.186Z</time></trkpt><trkpt lat="40.0493252" lon="18.4743108"><ele>103.0</ele><time>2026-04-04T14:50:48.186Z</time></trkpt><trkpt lat="40.0492093" lon="18.474314"><ele>103.0</ele><time>2026-04-04T14:50:49.187Z</time></trkpt><trkpt lat="40.0490928" lon="18.4743394"><ele>103.0</ele><time>2026-04-04T14:50:50.188Z</time></trkpt><trkpt lat="40.0489725" lon="18.4743581"><ele>101.75</ele><time>2026-04-04T14:50:51.186Z</time></trkpt><trkpt lat="40.0488479" lon="18.4743575"><ele>100.5</ele><time>2026-04-04T14:50:52.186Z</time></trkpt><trkpt lat="40.0487245" lon="18.4743349"><ele>99.25</ele><time>2026-04-04T14:50:53.188Z</time></trkpt><trkpt lat="40.0485963" lon="18.4742899"><ele>98.0</ele><time>2026-04-04T14:50:54.186Z</time></trkpt><trkpt lat="40.048463" lon="18.4742318"><ele>98.0</ele><time>2026-04-04T14:50:55.186Z</time></trkpt><trkpt lat="40.0483277" lon="18.4741716"><ele>98.0</ele><time>2026-04-04T14:50:56.185Z</time></trkpt><trkpt lat="40.0481936" lon="18.4741067"><ele>98.0</ele><time>2026-04-04T14:50:57.186Z</time></trkpt><trkpt lat="40.048055" lon="18.4740626"><ele>98.0</ele><time>2026-04-04T14:50:58.186Z</time></trkpt><trkpt lat="40.0479204" lon="18.4740402"><ele>95.75</ele><time>2026-04-04T14:50:59.186Z</time></trkpt><trkpt lat="40.0477895" lon="18.4740405"><ele>93.5</ele><time>2026-04-04T14:51:00.186Z</time></trkpt><trkpt lat="40.0476655" lon="18.474039"><ele>91.25</ele><time>2026-04-04T14:51:01.186Z</time></trkpt><trkpt lat="40.0475419" lon="18.4740146"><ele>89.0</ele><time>2026-04-04T14:51:02.188Z</time></trkpt><trkpt lat="40.0474014" lon="18.4739595"><ele>92.33333333333334</ele><time>2026-04-04T14:51:03.186Z</time></trkpt><trkpt lat="40.0472537" lon="18.4738865"><ele>95.66666666666667</ele><time>2026-04-04T14:51:04.185Z</time></trkpt><trkpt lat="40.0471017" lon="18.473818"><ele>99.0</ele><time>2026-04-04T14:51:05.185Z</time></trkpt><trkpt lat="40.0469504" lon="18.4737675"><ele>99.0</ele><time>2026-04-04T14:51:06.186Z</time></trkpt><trkpt lat="40.0468115" lon="18.4737165"><ele>99.0</ele><time>2026-04-04T14:51:07.185Z</time></trkpt><trkpt lat="40.0466696" lon="18.4736633"><ele>99.0</ele><time>2026-04-04T14:51:08.186Z</time></trkpt><trkpt lat="40.046537" lon="18.4736058"><ele>99.0</ele><time>2026-04-04T14:51:09.187Z</time></trkpt><trkpt lat="40.0464099" lon="18.4735398"><ele>94.5</ele><time>2026-04-04T14:51:10.185Z</time></trkpt><trkpt lat="40.0462839" lon="18.4734672"><ele>90.0</ele><time>2026-04-04T14:51:11.186Z</time></trkpt><trkpt lat="40.0461552" lon="18.4733897"><ele>85.5</ele><time>2026-04-04T14:51:12.187Z</time></trkpt><trkpt lat="40.0460218" lon="18.4733246"><ele>81.0</ele><time>2026-04-04T14:51:13.186Z</time></trkpt><trkpt lat="40.0458882" lon="18.4732845"><ele>76.0</ele><time>2026-04-04T14:51:14.188Z</time></trkpt><trkpt lat="40.0457571" lon="18.4732712"><ele>71.0</ele><time>2026-04-04T14:51:15.187Z</time></trkpt><trkpt lat="40.0456263" lon="18.4732761"><ele>66.0</ele><time>2026-04-04T14:51:16.185Z</time></trkpt><trkpt lat="40.0455013" lon="18.4732671"><ele>61.0</ele><time>2026-04-04T14:51:17.187Z</time></trkpt><trkpt lat="40.0453826" lon="18.4732346"><ele>61.0</ele><time>2026-04-04T14:51:18.187Z</time></trkpt><trkpt lat="40.0452796" lon="18.4731485"><ele>61.0</ele><time>2026-04-04T14:51:19.187Z</time></trkpt><trkpt lat="40.0451915" lon="18.4730369"><ele>61.0</ele><time>2026-04-04T14:51:20.186Z</time></trkpt><trkpt lat="40.0451603" lon="18.4728739"><ele>61.0</ele><time>2026-04-04T14:51:21.187Z</time></trkpt><trkpt lat="40.0451357" lon="18.472733"><ele>59.0</ele><time>2026-04-04T14:51:22.185Z</time></trkpt><trkpt lat="40.0450904" lon="18.4725907"><ele>57.0</ele><time>2026-04-04T14:51:23.187Z</time></trkpt><trkpt lat="40.0450147" lon="18.4724745"><ele>55.0</ele><time>2026-04-04T14:51:24.186Z</time></trkpt><trkpt lat="40.0449023" lon="18.4724016"><ele>53.0</ele><time>2026-04-04T14:51:25.188Z</time></trkpt><trkpt lat="40.0447792" lon="18.472349"><ele>53.0</ele><time>2026-04-04T14:51:26.187Z</time></trkpt><trkpt lat="40.0446502" lon="18.4723087"><ele>53.0</ele><time>2026-04-04T14:51:27.186Z</time></trkpt><trkpt lat="40.0445239" lon="18.4722581"><ele>53.0</ele><time>2026-04-04T14:51:28.186Z</time></trkpt><trkpt lat="40.044404" lon="18.4721623"><ele>53.0</ele><time>2026-04-04T14:51:29.188Z</time></trkpt><trkpt lat="40.0442948" lon="18.4720396"><ele>54.0</ele><time>2026-04-04T14:51:30.186Z</time></trkpt><trkpt lat="40.0441615" lon="18.4719445"><ele>55.0</ele><time>2026-04-04T14:51:31.185Z</time></trkpt><trkpt lat="40.0440303" lon="18.4718522"><ele>56.0</ele><time>2026-04-04T14:51:32.188Z</time></trkpt><trkpt lat="40.0438886" lon="18.4717863"><ele>56.0</ele><time>2026-04-04T14:51:33.188Z</time></trkpt><trkpt lat="40.0437435" lon="18.471742"><ele>56.0</ele><time>2026-04-04T14:51:34.187Z</time></trkpt><trkpt lat="40.0436015" lon="18.4716923"><ele>56.0</ele><time>2026-04-04T14:51:35.185Z</time></trkpt><trkpt lat="40.0434614" lon="18.4716244"><ele>56.0</ele><time>2026-04-04T14:51:36.188Z</time></trkpt><trkpt lat="40.0433298" lon="18.4715415"><ele>55.0</ele><time>2026-04-04T14:51:37.187Z</time></trkpt><trkpt lat="40.043201" lon="18.4714483"><ele>54.0</ele><time>2026-04-04T14:51:38.186Z</time></trkpt><trkpt lat="40.0430828" lon="18.4713519"><ele>53.0</ele><time>2026-04-04T14:51:39.188Z</time></trkpt><trkpt lat="40.0429786" lon="18.4712447"><ele>52.0</ele><time>2026-04-04T14:51:40.186Z</time></trkpt><trkpt lat="40.0428916" lon="18.4711336"><ele>52.0</ele><time>2026-04-04T14:51:41.185Z</time></trkpt><trkpt lat="40.0427981" lon="18.4710391"><ele>52.0</ele><time>2026-04-04T14:51:42.185Z</time></trkpt><trkpt lat="40.0426967" lon="18.4709626"><ele>52.0</ele><time>2026-04-04T14:51:43.188Z</time></trkpt><trkpt lat="40.0425996" lon="18.470875"><ele>52.0</ele><time>2026-04-04T14:51:44.186Z</time></trkpt><trkpt lat="40.0425204" lon="18.4707612"><ele>50.5</ele><time>2026-04-04T14:51:45.185Z</time></trkpt><trkpt lat="40.0424635" lon="18.4706289"><ele>49.0</ele><time>2026-04-04T14:51:46.187Z</time></trkpt><trkpt lat="40.0424142" lon="18.4704955"><ele>47.5</ele><time>2026-04-04T14:51:47.187Z</time></trkpt><trkpt lat="40.0423387" lon="18.4703811"><ele>46.0</ele><time>2026-04-04T14:51:48.187Z</time></trkpt><trkpt lat="40.0422428" lon="18.4702889"><ele>46.0</ele><time>2026-04-04T14:51:49.186Z</time></trkpt><trkpt lat="40.0421334" lon="18.4701986"><ele>46.0</ele><time>2026-04-04T14:51:50.186Z</time></trkpt><trkpt lat="40.0420247" lon="18.4701092"><ele>46.0</ele><time>2026-04-04T14:51:51.187Z</time></trkpt><trkpt lat="40.0419074" lon="18.4700114"><ele>46.0</ele><time>2026-04-04T14:51:52.187Z</time></trkpt><trkpt lat="40.041792" lon="18.4699092"><ele>46.0</ele><time>2026-04-04T14:51:53.187Z</time></trkpt><trkpt lat="40.0416859" lon="18.469806"><ele>46.0</ele><time>2026-04-04T14:51:54.187Z</time></trkpt><trkpt lat="40.0415898" lon="18.4697029"><ele>46.0</ele><time>2026-04-04T14:51:55.186Z</time></trkpt><trkpt lat="40.0415096" lon="18.4695987"><ele>46.0</ele><time>2026-04-04T14:51:56.185Z</time></trkpt><trkpt lat="40.0414438" lon="18.4694804"><ele>41.75</ele><time>2026-04-04T14:51:57.186Z</time></trkpt><trkpt lat="40.0414017" lon="18.4693377"><ele>37.5</ele><time>2026-04-04T14:51:58.187Z</time></trkpt><trkpt lat="40.0413739" lon="18.4691957"><ele>33.25</ele><time>2026-04-04T14:51:59.185Z</time></trkpt><trkpt lat="40.0413439" lon="18.4690535"><ele>29.0</ele><time>2026-04-04T14:52:00.185Z</time></trkpt><trkpt lat="40.0412891" lon="18.4689244"><ele>29.0</ele><time>2026-04-04T14:52:01.186Z</time></trkpt><trkpt lat="40.0412283" lon="18.4687926"><ele>29.0</ele><time>2026-04-04T14:52:02.187Z</time></trkpt><trkpt lat="40.0411724" lon="18.4686535"><ele>29.0</ele><time>2026-04-04T14:52:03.186Z</time></trkpt><trkpt lat="40.041133" lon="18.4685015"><ele>29.0</ele><time>2026-04-04T14:52:04.187Z</time></trkpt><trkpt lat="40.0410835" lon="18.4683596"><ele>27.25</ele><time>2026-04-04T14:52:05.185Z</time></trkpt><trkpt lat="40.0410095" lon="18.4682436"><ele>25.5</ele><time>2026-04-04T14:52:06.185Z</time></trkpt><trkpt lat="40.0409097" lon="18.4681532"><ele>23.75</ele><time>2026-04-04T14:52:07.186Z</time></trkpt><trkpt lat="40.0408016" lon="18.4680885"><ele>22.0</ele><time>2026-04-04T14:52:08.188Z</time></trkpt><trkpt lat="40.0406854" lon="18.4680353"><ele>22.0</ele><time>2026-04-04T14:52:09.186Z</time></trkpt><trkpt lat="40.0405583" lon="18.4680239"><ele>22.0</ele><time>2026-04-04T14:52:10.185Z</time></trkpt><trkpt lat="40.0404302" lon="18.4680121"><ele>22.0</ele><time>2026-04-04T14:52:11.185Z</time></trkpt><trkpt lat="40.0402984" lon="18.4680082"><ele>22.0</ele><time>2026-04-04T14:52:12.187Z</time></trkpt><trkpt lat="40.0401717" lon="18.4679965"><ele>22.0</ele><time>2026-04-04T14:52:13.186Z</time></trkpt><trkpt lat="40.040066" lon="18.4679685"><ele>22.0</ele><time>2026-04-04T14:52:14.185Z</time></trkpt><trkpt lat="40.0399617" lon="18.4679206"><ele>22.0</ele><time>2026-04-04T14:52:15.186Z</time></trkpt><trkpt lat="40.0398669" lon="18.4678499"><ele>22.0</ele><time>2026-04-04T14:52:16.186Z</time></trkpt><trkpt lat="40.0397787" lon="18.467776"><ele>22.0</ele><time>2026-04-04T14:52:17.187Z</time></trkpt><trkpt lat="40.0396883" lon="18.4676963"><ele>23.0</ele><time>2026-04-04T14:52:18.186Z</time></trkpt><trkpt lat="40.0396009" lon="18.4675922"><ele>24.0</ele><time>2026-04-04T14:52:19.187Z</time></trkpt><trkpt lat="40.039512" lon="18.4674786"><ele>25.0</ele><time>2026-04-04T14:52:20.186Z</time></trkpt><trkpt lat="40.0394196" lon="18.4673559"><ele>26.0</ele><time>2026-04-04T14:52:21.187Z</time></trkpt><trkpt lat="40.0393292" lon="18.4672272"><ele>23.75</ele><time>2026-04-04T14:52:22.187Z</time></trkpt><trkpt lat="40.0392397" lon="18.4671049"><ele>21.5</ele><time>2026-04-04T14:52:23.187Z</time></trkpt><trkpt lat="40.0391553" lon="18.4669947"><ele>19.25</ele><time>2026-04-04T14:52:24.186Z</time></trkpt><trkpt lat="40.0390688" lon="18.4668641"><ele>17.0</ele><time>2026-04-04T14:52:25.188Z</time></trkpt><trkpt lat="40.0389846" lon="18.4667423"><ele>17.0</ele><time>2026-04-04T14:52:26.186Z</time></trkpt><trkpt lat="40.0388981" lon="18.4666185"><ele>17.0</ele><time>2026-04-04T14:52:27.187Z</time></trkpt><trkpt lat="40.0388094" lon="18.4665001"><ele>17.0</ele><time>2026-04-04T14:52:28.188Z</time></trkpt><trkpt lat="40.038715" lon="18.4663742"><ele>17.0</ele><time>2026-04-04T14:52:29.186Z</time></trkpt><trkpt lat="40.0386099" lon="18.4662415"><ele>19.666666666666668</ele><time>2026-04-04T14:52:30.187Z</time></trkpt><trkpt lat="40.0385035" lon="18.4660941"><ele>22.333333333333336</ele><time>2026-04-04T14:52:31.187Z</time></trkpt><trkpt lat="40.038401" lon="18.4659411"><ele>25.0</ele><time>2026-04-04T14:52:32.186Z</time></trkpt><trkpt lat="40.0383046" lon="18.4657852"><ele>21.5</ele><time>2026-04-04T14:52:33.185Z</time></trkpt><trkpt lat="40.0382167" lon="18.4656341"><ele>18.0</ele><time>2026-04-04T14:52:34.185Z</time></trkpt><trkpt lat="40.0381444" lon="18.4654753"><ele>14.5</ele><time>2026-04-04T14:52:35.187Z</time></trkpt><trkpt lat="40.0380844" lon="18.4653076"><ele>11.0</ele><time>2026-04-04T14:52:36.187Z</time></trkpt><trkpt lat="40.0380392" lon="18.4651313"><ele>11.0</ele><time>2026-04-04T14:52:37.185Z</time></trkpt><trkpt lat="40.0380198" lon="18.4649434"><ele>11.0</ele><time>2026-04-04T14:52:38.186Z</time></trkpt><trkpt lat="40.0379999" lon="18.464758"><ele>11.0</ele><time>2026-04-04T14:52:39.186Z</time></trkpt><trkpt lat="40.0379853" lon="18.4645831"><ele>11.0</ele><time>2026-04-04T14:52:40.186Z</time></trkpt><trkpt lat="40.0379761" lon="18.4644187"><ele>11.833333333333332</ele><time>2026-04-04T14:52:41.186Z</time></trkpt><trkpt lat="40.0379634" lon="18.4642679"><ele>12.666666666666666</ele><time>2026-04-04T14:52:42.187Z</time></trkpt><trkpt lat="40.0379598" lon="18.4641575"><ele>13.5</ele><time>2026-04-04T14:52:43.187Z</time></trkpt><trkpt lat="40.0379527" lon="18.4640756"><ele>14.333333333333332</ele><time>2026-04-04T14:52:44.188Z</time></trkpt><trkpt lat="40.0379325" lon="18.4639626"><ele>15.166666666666666</ele><time>2026-04-04T14:52:46.187Z</time></trkpt><trkpt lat="40.0379198" lon="18.4638642"><ele>16.0</ele><time>2026-04-04T14:52:48.186Z</time></trkpt><trkpt lat="40.0378944" lon="18.4637018"><ele>16.6</ele><time>2026-04-04T14:52:50.185Z</time></trkpt><trkpt lat="40.0378889" lon="18.4636017"><ele>17.200000000000003</ele><time>2026-04-04T14:52:51.186Z</time></trkpt><trkpt lat="40.0378906" lon="18.4634907"><ele>17.799999999999997</ele><time>2026-04-04T14:52:52.185Z</time></trkpt><trkpt lat="40.0378778" lon="18.4633705"><ele>18.4</ele><time>2026-04-04T14:52:53.186Z</time></trkpt><trkpt lat="40.0378597" lon="18.4632443"><ele>19.0</ele><time>2026-04-04T14:52:54.187Z</time></trkpt><trkpt lat="40.0378284" lon="18.4631189"><ele>19.0</ele><time>2026-04-04T14:52:55.185Z</time></trkpt><trkpt lat="40.0377876" lon="18.4629874"><ele>19.0</ele><time>2026-04-04T14:52:56.188Z</time></trkpt><trkpt lat="40.0377416" lon="18.4628541"><ele>19.0</ele><time>2026-04-04T14:52:57.187Z</time></trkpt><trkpt lat="40.0376929" lon="18.4627115"><ele>19.0</ele><time>2026-04-04T14:52:58.186Z</time></trkpt><trkpt lat="40.037642" lon="18.4625653"><ele>20.0</ele><time>2026-04-04T14:52:59.186Z</time></trkpt><trkpt lat="40.0375922" lon="18.4624182"><ele>21.0</ele><time>2026-04-04T14:53:00.187Z</time></trkpt><trkpt lat="40.0375435" lon="18.4622702"><ele>22.0</ele><time>2026-04-04T14:53:01.187Z</time></trkpt><trkpt lat="40.0375097" lon="18.4621296"><ele>23.0</ele><time>2026-04-04T14:53:02.186Z</time></trkpt><trkpt lat="40.0374759" lon="18.4619955"><ele>23.4</ele><time>2026-04-04T14:53:03.187Z</time></trkpt><trkpt lat="40.0374318" lon="18.4618637"><ele>23.799999999999997</ele><time>2026-04-04T14:53:04.186Z</time></trkpt><trkpt lat="40.0373892" lon="18.4617304"><ele>24.2</ele><time>2026-04-04T14:53:05.187Z</time></trkpt><trkpt lat="40.037341" lon="18.4616118"><ele>24.6</ele><time>2026-04-04T14:53:06.186Z</time></trkpt><trkpt lat="40.0372873" lon="18.4614968"><ele>25.0</ele><time>2026-04-04T14:53:07.185Z</time></trkpt><trkpt lat="40.0372213" lon="18.4614063"><ele>25.000000000000004</ele><time>2026-04-04T14:53:08.186Z</time></trkpt><trkpt lat="40.0371628" lon="18.4613002"><ele>25.0</ele><time>2026-04-04T14:53:09.188Z</time></trkpt><trkpt lat="40.0371173" lon="18.4612051"><ele>25.0</ele><time>2026-04-04T14:53:10.187Z</time></trkpt><trkpt lat="40.0370879" lon="18.461126"><ele>25.0</ele><time>2026-04-04T14:53:11.186Z</time></trkpt><trkpt lat="40.037052" lon="18.4610427"><ele>25.000000000000004</ele><time>2026-04-04T14:53:12.186Z</time></trkpt><trkpt lat="40.0370201" lon="18.4609495"><ele>25.0</ele><time>2026-04-04T14:53:13.187Z</time></trkpt><trkpt lat="40.0370167" lon="18.4608483"><ele>27.0</ele><time>2026-04-04T14:53:14.187Z</time></trkpt><trkpt lat="40.037004" lon="18.460754"><ele>29.0</ele><time>2026-04-04T14:53:15.185Z</time></trkpt><trkpt lat="40.0369825" lon="18.4606428"><ele>31.0</ele><time>2026-04-04T14:53:16.186Z</time></trkpt><trkpt lat="40.0369655" lon="18.460514"><ele>33.0</ele><time>2026-04-04T14:53:17.187Z</time></trkpt><trkpt lat="40.0369506" lon="18.4603631"><ele>35.0</ele><time>2026-04-04T14:53:18.186Z</time></trkpt><trkpt lat="40.0369319" lon="18.4602108"><ele>35.75</ele><time>2026-04-04T14:53:19.186Z</time></trkpt><trkpt lat="40.0369125" lon="18.4600555"><ele>36.5</ele><time>2026-04-04T14:53:20.186Z</time></trkpt><trkpt lat="40.0368954" lon="18.4598946"><ele>37.25</ele><time>2026-04-04T14:53:21.188Z</time></trkpt><trkpt lat="40.0369015" lon="18.4597221"><ele>38.0</ele><time>2026-04-04T14:53:22.186Z</time></trkpt><trkpt lat="40.0369297" lon="18.4595501"><ele>39.0</ele><time>2026-04-04T14:53:23.185Z</time></trkpt><trkpt lat="40.0369621" lon="18.4593813"><ele>40.0</ele><time>2026-04-04T14:53:24.187Z</time></trkpt><trkpt lat="40.0369988" lon="18.4592147"><ele>41.0</ele><time>2026-04-04T14:53:25.186Z</time></trkpt><trkpt lat="40.0370326" lon="18.4590572"><ele>42.0</ele><time>2026-04-04T14:53:26.186Z</time></trkpt><trkpt lat="40.0370452" lon="18.4589119"><ele>44.0</ele><time>2026-04-04T14:53:27.186Z</time></trkpt><trkpt lat="40.0370199" lon="18.4587751"><ele>46.0</ele><time>2026-04-04T14:53:28.186Z</time></trkpt><trkpt lat="40.036966" lon="18.4586503"><ele>48.0</ele><time>2026-04-04T14:53:29.185Z</time></trkpt><trkpt lat="40.0368744" lon="18.458549"><ele>50.0</ele><time>2026-04-04T14:53:30.185Z</time></trkpt><trkpt lat="40.0367607" lon="18.4584886"><ele>46.0</ele><time>2026-04-04T14:53:31.187Z</time></trkpt><trkpt lat="40.036631" lon="18.4584416"><ele>42.0</ele><time>2026-04-04T14:53:32.186Z</time></trkpt><trkpt lat="40.0365118" lon="18.458393"><ele>38.0</ele><time>2026-04-04T14:53:33.188Z</time></trkpt><trkpt lat="40.0364109" lon="18.4583052"><ele>34.0</ele><time>2026-04-04T14:53:34.185Z</time></trkpt><trkpt lat="40.0363458" lon="18.4581532"><ele>34.0</ele><time>2026-04-04T14:53:35.185Z</time></trkpt><trkpt lat="40.0362814" lon="18.4580308"><ele>34.0</ele><time>2026-04-04T14:53:36.187Z</time></trkpt><trkpt lat="40.0362857" lon="18.4578767"><ele>34.0</ele><time>2026-04-04T14:53:37.187Z</time></trkpt><trkpt lat="40.0363184" lon="18.4577213"><ele>34.0</ele><time>2026-04-04T14:53:38.185Z</time></trkpt><trkpt lat="40.0363917" lon="18.4575702"><ele>34.25</ele><time>2026-04-04T14:53:39.187Z</time></trkpt><trkpt lat="40.0364904" lon="18.4574316"><ele>34.5</ele><time>2026-04-04T14:53:40.186Z</time></trkpt><trkpt lat="40.0365941" lon="18.4572957"><ele>34.75</ele><time>2026-04-04T14:53:41.186Z</time></trkpt><trkpt lat="40.0367022" lon="18.4571586"><ele>35.0</ele><time>2026-04-04T14:53:42.186Z</time></trkpt><trkpt lat="40.0368078" lon="18.4570154"><ele>40.33333333333333</ele><time>2026-04-04T14:53:43.187Z</time></trkpt><trkpt lat="40.0369054" lon="18.4568643"><ele>45.666666666666664</ele><time>2026-04-04T14:53:44.186Z</time></trkpt><trkpt lat="40.0369949" lon="18.4567045"><ele>51.0</ele><time>2026-04-04T14:53:45.187Z</time></trkpt><trkpt lat="40.0370737" lon="18.4565309"><ele>51.0</ele><time>2026-04-04T14:53:46.187Z</time></trkpt><trkpt lat="40.0371349" lon="18.4563448"><ele>51.0</ele><time>2026-04-04T14:53:47.186Z</time></trkpt><trkpt lat="40.0371785" lon="18.4561465"><ele>51.0</ele><time>2026-04-04T14:53:48.188Z</time></trkpt><trkpt lat="40.0372123" lon="18.4559445"><ele>51.0</ele><time>2026-04-04T14:53:49.186Z</time></trkpt><trkpt lat="40.0372213" lon="18.4557328"><ele>51.0</ele><time>2026-04-04T14:53:50.187Z</time></trkpt><trkpt lat="40.0372375" lon="18.4555193"><ele>51.0</ele><time>2026-04-04T14:53:51.187Z</time></trkpt><trkpt lat="40.0372559" lon="18.4552991"><ele>51.66666666666667</ele><time>2026-04-04T14:53:52.187Z</time></trkpt><trkpt lat="40.0372816" lon="18.4550863"><ele>52.333333333333336</ele><time>2026-04-04T14:53:53.187Z</time></trkpt><trkpt lat="40.0372969" lon="18.4548694"><ele>53.0</ele><time>2026-04-04T14:53:54.187Z</time></trkpt><trkpt lat="40.0373086" lon="18.4546604"><ele>52.0</ele><time>2026-04-04T14:53:55.187Z</time></trkpt><trkpt lat="40.0373364" lon="18.4544716"><ele>51.0</ele><time>2026-04-04T14:53:56.186Z</time></trkpt><trkpt lat="40.0374026" lon="18.454298"><ele>50.0</ele><time>2026-04-04T14:53:57.185Z</time></trkpt><trkpt lat="40.0375466" lon="18.4541933"><ele>56.333333333333336</ele><time>2026-04-04T14:53:58.186Z</time></trkpt><trkpt lat="40.0376784" lon="18.4540857"><ele>62.66666666666667</ele><time>2026-04-04T14:53:59.186Z</time></trkpt><trkpt lat="40.0378288" lon="18.4539922"><ele>69.0</ele><time>2026-04-04T14:54:00.187Z</time></trkpt><trkpt lat="40.0379826" lon="18.4538944"><ele>71.66666666666667</ele><time>2026-04-04T14:54:01.186Z</time></trkpt><trkpt lat="40.0381296" lon="18.4537767"><ele>74.33333333333334</ele><time>2026-04-04T14:54:02.186Z</time></trkpt><trkpt lat="40.0382667" lon="18.453628"><ele>77.0</ele><time>2026-04-04T14:54:03.187Z</time></trkpt><trkpt lat="40.0383639" lon="18.4534369"><ele>77.0</ele><time>2026-04-04T14:54:04.187Z</time></trkpt><trkpt lat="40.0384551" lon="18.4532389"><ele>77.0</ele><time>2026-04-04T14:54:05.185Z</time></trkpt><trkpt lat="40.0385138" lon="18.4530069"><ele>77.0</ele><time>2026-04-04T14:54:06.186Z</time></trkpt><trkpt lat="40.0386092" lon="18.4527905"><ele>75.33333333333334</ele><time>2026-04-04T14:54:07.187Z</time></trkpt><trkpt lat="40.0387087" lon="18.4525873"><ele>73.66666666666667</ele><time>2026-04-04T14:54:08.185Z</time></trkpt><trkpt lat="40.0388076" lon="18.4523724"><ele>72.0</ele><time>2026-04-04T14:54:09.187Z</time></trkpt><trkpt lat="40.0388946" lon="18.4521405"><ele>72.0</ele><time>2026-04-04T14:54:10.187Z</time></trkpt><trkpt lat="40.0389749" lon="18.4519021"><ele>72.0</ele><time>2026-04-04T14:54:11.185Z</time></trkpt><trkpt lat="40.0390475" lon="18.4516645"><ele>72.0</ele><time>2026-04-04T14:54:12.187Z</time></trkpt><trkpt lat="40.0391241" lon="18.4514404"><ele>76.25</ele><time>2026-04-04T14:54:13.186Z</time></trkpt><trkpt lat="40.0391841" lon="18.4512363"><ele>80.5</ele><time>2026-04-04T14:54:14.187Z</time></trkpt><trkpt lat="40.0392375" lon="18.4510532"><ele>84.75</ele><time>2026-04-04T14:54:15.186Z</time></trkpt><trkpt lat="40.0392866" lon="18.4508939"><ele>89.0</ele><time>2026-04-04T14:54:16.187Z</time></trkpt><trkpt lat="40.0393361" lon="18.4507628"><ele>89.0</ele><time>2026-04-04T14:54:17.187Z</time></trkpt><trkpt lat="40.0393711" lon="18.4506494"><ele>89.0</ele><time>2026-04-04T14:54:18.186Z</time></trkpt><trkpt lat="40.0394042" lon="18.4505503"><ele>89.0</ele><time>2026-04-04T14:54:19.185Z</time></trkpt><trkpt lat="40.0393543" lon="18.4504609"><ele>89.0</ele><time>2026-04-04T14:54:20.187Z</time></trkpt><trkpt lat="40.0392936" lon="18.4504019"><ele>89.0</ele><time>2026-04-04T14:54:21.187Z</time></trkpt><trkpt lat="40.039198" lon="18.4503622"><ele>89.0</ele><time>2026-04-04T14:54:22.187Z</time></trkpt><trkpt lat="40.0390803" lon="18.4503084"><ele>85.33333333333334</ele><time>2026-04-04T14:54:23.187Z</time></trkpt><trkpt lat="40.0389617" lon="18.4502155"><ele>81.66666666666667</ele><time>2026-04-04T14:54:24.187Z</time></trkpt><trkpt lat="40.0388348" lon="18.4500993"><ele>78.0</ele><time>2026-04-04T14:54:25.188Z</time></trkpt><trkpt lat="40.0387041" lon="18.4499625"><ele>78.0</ele><time>2026-04-04T14:54:26.186Z</time></trkpt><trkpt lat="40.03857" lon="18.4498148"><ele>78.0</ele><time>2026-04-04T14:54:27.185Z</time></trkpt><trkpt lat="40.0384287" lon="18.4496626"><ele>78.0</ele><time>2026-04-04T14:54:28.187Z</time></trkpt><trkpt lat="40.0382728" lon="18.4495046"><ele>75.66666666666667</ele><time>2026-04-04T14:54:29.186Z</time></trkpt><trkpt lat="40.0381134" lon="18.4493376"><ele>73.33333333333334</ele><time>2026-04-04T14:54:30.187Z</time></trkpt><trkpt lat="40.0379457" lon="18.4491703"><ele>71.0</ele><time>2026-04-04T14:54:31.187Z</time></trkpt><trkpt lat="40.037767" lon="18.4490035"><ele>71.0</ele><time>2026-04-04T14:54:32.186Z</time></trkpt><trkpt lat="40.037578" lon="18.4488459"><ele>71.0</ele><time>2026-04-04T14:54:33.187Z</time></trkpt><trkpt lat="40.0373797" lon="18.4487105"><ele>71.0</ele><time>2026-04-04T14:54:34.188Z</time></trkpt><trkpt lat="40.0371709" lon="18.4485902"><ele>69.5</ele><time>2026-04-04T14:54:35.186Z</time></trkpt><trkpt lat="40.0369607" lon="18.4484668"><ele>68.0</ele><time>2026-04-04T14:54:36.185Z</time></trkpt><trkpt lat="40.0367524" lon="18.4483309"><ele>63.5</ele><time>2026-04-04T14:54:37.185Z</time></trkpt><trkpt lat="40.0365529" lon="18.448175"><ele>59.0</ele><time>2026-04-04T14:54:38.186Z</time></trkpt><trkpt lat="40.036381" lon="18.4479784"><ele>58.5</ele><time>2026-04-04T14:54:39.186Z</time></trkpt><trkpt lat="40.0362098" lon="18.4477749"><ele>58.0</ele><time>2026-04-04T14:54:40.185Z</time></trkpt><trkpt lat="40.0360468" lon="18.4475575"><ele>58.0</ele><time>2026-04-04T14:54:41.185Z</time></trkpt><trkpt lat="40.0358843" lon="18.4473381"><ele>58.0</ele><time>2026-04-04T14:54:42.186Z</time></trkpt><trkpt lat="40.0357249" lon="18.4471244"><ele>54.0</ele><time>2026-04-04T14:54:43.186Z</time></trkpt><trkpt lat="40.0355625" lon="18.4469021"><ele>50.0</ele><time>2026-04-04T14:54:44.187Z</time></trkpt><trkpt lat="40.0354006" lon="18.4466846"><ele>50.0</ele><time>2026-04-04T14:54:45.186Z</time></trkpt><trkpt lat="40.0352356" lon="18.4464615"><ele>50.0</ele><time>2026-04-04T14:54:46.185Z</time></trkpt><trkpt lat="40.035067" lon="18.446234"><ele>48.5</ele><time>2026-04-04T14:54:47.187Z</time></trkpt><trkpt lat="40.0348988" lon="18.4460064"><ele>47.0</ele><time>2026-04-04T14:54:48.186Z</time></trkpt><trkpt lat="40.0347342" lon="18.4457802"><ele>47.0</ele><time>2026-04-04T14:54:49.186Z</time></trkpt><trkpt lat="40.034565" lon="18.4455454"><ele>47.0</ele><time>2026-04-04T14:54:50.187Z</time></trkpt><trkpt lat="40.0343891" lon="18.445317"><ele>49.0</ele><time>2026-04-04T14:54:51.186Z</time></trkpt><trkpt lat="40.0342179" lon="18.4450901"><ele>51.0</ele><time>2026-04-04T14:54:52.188Z</time></trkpt><trkpt lat="40.0340535" lon="18.4448747"><ele>50.0</ele><time>2026-04-04T14:54:53.187Z</time></trkpt><trkpt lat="40.0338914" lon="18.4446673"><ele>49.0</ele><time>2026-04-04T14:54:54.185Z</time></trkpt><trkpt lat="40.0337358" lon="18.4444887"><ele>48.0</ele><time>2026-04-04T14:54:55.186Z</time></trkpt><trkpt lat="40.0335749" lon="18.4443283"><ele>48.0</ele><time>2026-04-04T14:54:56.185Z</time></trkpt><trkpt lat="40.0334014" lon="18.4441921"><ele>48.0</ele><time>2026-04-04T14:54:57.186Z</time></trkpt><trkpt lat="40.0332121" lon="18.4440843"><ele>48.0</ele><time>2026-04-04T14:54:58.185Z</time></trkpt><trkpt lat="40.0330091" lon="18.4439856"><ele>47.5</ele><time>2026-04-04T14:54:59.186Z</time></trkpt><trkpt lat="40.032789" lon="18.4438906"><ele>47.0</ele><time>2026-04-04T14:55:00.187Z</time></trkpt><trkpt lat="40.0325694" lon="18.443789"><ele>40.5</ele><time>2026-04-04T14:55:01.187Z</time></trkpt><trkpt lat="40.0323438" lon="18.4436782"><ele>34.0</ele><time>2026-04-04T14:55:02.187Z</time></trkpt><trkpt lat="40.0321141" lon="18.4435543"><ele>34.0</ele><time>2026-04-04T14:55:03.188Z</time></trkpt><trkpt lat="40.0318862" lon="18.4434126"><ele>34.0</ele><time>2026-04-04T14:55:04.186Z</time></trkpt><trkpt lat="40.0316631" lon="18.4432522"><ele>37.0</ele><time>2026-04-04T14:55:05.188Z</time></trkpt><trkpt lat="40.0314427" lon="18.4430811"><ele>40.0</ele><time>2026-04-04T14:55:06.185Z</time></trkpt><trkpt lat="40.0312247" lon="18.4428962"><ele>40.0</ele><time>2026-04-04T14:55:07.187Z</time></trkpt><trkpt lat="40.0310108" lon="18.4427158"><ele>40.0</ele><time>2026-04-04T14:55:08.187Z</time></trkpt><trkpt lat="40.0307991" lon="18.4425287"><ele>35.5</ele><time>2026-04-04T14:55:09.186Z</time></trkpt><trkpt lat="40.0305888" lon="18.442362"><ele>31.0</ele><time>2026-04-04T14:55:10.187Z</time></trkpt><trkpt lat="40.0303791" lon="18.4422225"><ele>32.333333333333336</ele><time>2026-04-04T14:55:11.186Z</time></trkpt><trkpt lat="40.030173" lon="18.4421028"><ele>33.666666666666664</ele><time>2026-04-04T14:55:12.186Z</time></trkpt><trkpt lat="40.0299789" lon="18.4419974"><ele>35.0</ele><time>2026-04-04T14:55:13.187Z</time></trkpt><trkpt lat="40.0297943" lon="18.4418882"><ele>35.0</ele><time>2026-04-04T14:55:14.185Z</time></trkpt><trkpt lat="40.0296272" lon="18.4417316"><ele>35.0</ele><time>2026-04-04T14:55:15.186Z</time></trkpt><trkpt lat="40.0294557" lon="18.441559"><ele>35.0</ele><time>2026-04-04T14:55:16.186Z</time></trkpt><trkpt lat="40.0292797" lon="18.4413726"><ele>35.5</ele><time>2026-04-04T14:55:17.187Z</time></trkpt><trkpt lat="40.0291032" lon="18.4411812"><ele>36.0</ele><time>2026-04-04T14:55:18.188Z</time></trkpt><trkpt lat="40.0289241" lon="18.4409967"><ele>36.0</ele><time>2026-04-04T14:55:19.186Z</time></trkpt><trkpt lat="40.028743" lon="18.4408122"><ele>36.0</ele><time>2026-04-04T14:55:20.187Z</time></trkpt><trkpt lat="40.0285712" lon="18.4406336"><ele>36.0</ele><time>2026-04-04T14:55:21.185Z</time></trkpt><trkpt lat="40.0284039" lon="18.440451"><ele>35.0</ele><time>2026-04-04T14:55:22.187Z</time></trkpt><trkpt lat="40.0282559" lon="18.4402557"><ele>34.0</ele><time>2026-04-04T14:55:23.185Z</time></trkpt><trkpt lat="40.0281288" lon="18.4400466"><ele>33.0</ele><time>2026-04-04T14:55:24.186Z</time></trkpt><trkpt lat="40.0280204" lon="18.4398586"><ele>33.0</ele><time>2026-04-04T14:55:25.187Z</time></trkpt><trkpt lat="40.027924" lon="18.439693"><ele>33.0</ele><time>2026-04-04T14:55:26.185Z</time></trkpt><trkpt lat="40.0278327" lon="18.4395365"><ele>33.0</ele><time>2026-04-04T14:55:27.186Z</time></trkpt><trkpt lat="40.0277476" lon="18.4394047"><ele>33.0</ele><time>2026-04-04T14:55:28.187Z</time></trkpt><trkpt lat="40.0276776" lon="18.4392986"><ele>32.666666666666664</ele><time>2026-04-04T14:55:29.186Z</time></trkpt><trkpt lat="40.0276239" lon="18.4392048"><ele>32.333333333333336</ele><time>2026-04-04T14:55:30.187Z</time></trkpt><trkpt lat="40.0275694" lon="18.4391115"><ele>32.0</ele><time>2026-04-04T14:55:31.187Z</time></trkpt><trkpt lat="40.027523" lon="18.4390311"><ele>31.666666666666668</ele><time>2026-04-04T14:55:32.185Z</time></trkpt><trkpt lat="40.0274726" lon="18.4389432"><ele>31.333333333333336</ele><time>2026-04-04T14:55:33.185Z</time></trkpt><trkpt lat="40.027422" lon="18.4388554"><ele>31.0</ele><time>2026-04-04T14:55:34.187Z</time></trkpt><trkpt lat="40.0273525" lon="18.4387607"><ele>32.0</ele><time>2026-04-04T14:55:35.188Z</time></trkpt><trkpt lat="40.0272725" lon="18.4386342"><ele>33.0</ele><time>2026-04-04T14:55:36.187Z</time></trkpt><trkpt lat="40.0271995" lon="18.4384818"><ele>34.0</ele><time>2026-04-04T14:55:37.187Z</time></trkpt><trkpt lat="40.0271388" lon="18.4383257"><ele>35.0</ele><time>2026-04-04T14:55:38.187Z</time></trkpt><trkpt lat="40.0270831" lon="18.4381855"><ele>35.0</ele><time>2026-04-04T14:55:39.188Z</time></trkpt><trkpt lat="40.0270284" lon="18.4380634"><ele>35.0</ele><time>2026-04-04T14:55:40.186Z</time></trkpt><trkpt lat="40.026976" lon="18.437952"><ele>35.0</ele><time>2026-04-04T14:55:41.186Z</time></trkpt><trkpt lat="40.026896" lon="18.4378252"><ele>35.0</ele><time>2026-04-04T14:55:42.186Z</time></trkpt><trkpt lat="40.026802" lon="18.4376876"><ele>38.0</ele><time>2026-04-04T14:55:43.187Z</time></trkpt><trkpt lat="40.0267008" lon="18.4375534"><ele>41.0</ele><time>2026-04-04T14:55:44.187Z</time></trkpt><trkpt lat="40.0265805" lon="18.4374049"><ele>44.0</ele><time>2026-04-04T14:55:45.187Z</time></trkpt><trkpt lat="40.0264768" lon="18.4372323"><ele>41.33333333333333</ele><time>2026-04-04T14:55:46.186Z</time></trkpt><trkpt lat="40.026386" lon="18.4370378"><ele>38.666666666666664</ele><time>2026-04-04T14:55:47.185Z</time></trkpt><trkpt lat="40.0262902" lon="18.4368449"><ele>36.0</ele><time>2026-04-04T14:55:48.186Z</time></trkpt><trkpt lat="40.0261826" lon="18.436684"><ele>36.0</ele><time>2026-04-04T14:55:49.186Z</time></trkpt><trkpt lat="40.0260629" lon="18.4365575"><ele>36.0</ele><time>2026-04-04T14:55:50.187Z</time></trkpt><trkpt lat="40.0259655" lon="18.4364248"><ele>36.0</ele><time>2026-04-04T14:55:51.186Z</time></trkpt><trkpt lat="40.0258948" lon="18.4362586"><ele>36.0</ele><time>2026-04-04T14:55:52.187Z</time></trkpt><trkpt lat="40.0258162" lon="18.4360774"><ele>30.666666666666668</ele><time>2026-04-04T14:55:53.186Z</time></trkpt><trkpt lat="40.025715" lon="18.435897"><ele>25.333333333333336</ele><time>2026-04-04T14:55:54.187Z</time></trkpt><trkpt lat="40.0255937" lon="18.4357163"><ele>20.0</ele><time>2026-04-04T14:55:55.186Z</time></trkpt><trkpt lat="40.0254687" lon="18.4355371"><ele>28.666666666666668</ele><time>2026-04-04T14:55:56.187Z</time></trkpt><trkpt lat="40.0253486" lon="18.4353595"><ele>37.333333333333336</ele><time>2026-04-04T14:55:57.186Z</time></trkpt><trkpt lat="40.02523" lon="18.4351833"><ele>46.0</ele><time>2026-04-04T14:55:58.186Z</time></trkpt><trkpt lat="40.0251136" lon="18.4350344"><ele>46.0</ele><time>2026-04-04T14:55:59.188Z</time></trkpt><trkpt lat="40.0249918" lon="18.4349114"><ele>46.0</ele><time>2026-04-04T14:56:00.186Z</time></trkpt><trkpt lat="40.0248553" lon="18.4348492"><ele>46.0</ele><time>2026-04-04T14:56:01.187Z</time></trkpt><trkpt lat="40.0247274" lon="18.4347807"><ele>46.0</ele><time>2026-04-04T14:56:02.187Z</time></trkpt><trkpt lat="40.0246044" lon="18.4347236"><ele>49.0</ele><time>2026-04-04T14:56:03.186Z</time></trkpt><trkpt lat="40.0244918" lon="18.4346713"><ele>52.0</ele><time>2026-04-04T14:56:04.185Z</time></trkpt><trkpt lat="40.0243852" lon="18.4346219"><ele>55.0</ele><time>2026-04-04T14:56:05.186Z</time></trkpt><trkpt lat="40.0242823" lon="18.434571"><ele>58.0</ele><time>2026-04-04T14:56:06.186Z</time></trkpt><trkpt lat="40.02418" lon="18.434514"><ele>52.6</ele><time>2026-04-04T14:56:07.186Z</time></trkpt><trkpt lat="40.0240851" lon="18.4344534"><ele>47.199999999999996</ele><time>2026-04-04T14:56:08.186Z</time></trkpt><trkpt lat="40.0240013" lon="18.4343782"><ele>41.8</ele><time>2026-04-04T14:56:09.185Z</time></trkpt><trkpt lat="40.0239312" lon="18.4342785"><ele>36.4</ele><time>2026-04-04T14:56:10.187Z</time></trkpt><trkpt lat="40.0238683" lon="18.4341822"><ele>31.0</ele><time>2026-04-04T14:56:11.185Z</time></trkpt><trkpt lat="40.0237857" lon="18.4340985"><ele>31.0</ele><time>2026-04-04T14:56:12.185Z</time></trkpt><trkpt lat="40.0236694" lon="18.4340252"><ele>31.0</ele><time>2026-04-04T14:56:13.186Z</time></trkpt><trkpt lat="40.0235338" lon="18.4339434"><ele>31.0</ele><time>2026-04-04T14:56:14.186Z</time></trkpt><trkpt lat="40.0233796" lon="18.433854"><ele>31.0</ele><time>2026-04-04T14:56:15.186Z</time></trkpt><trkpt lat="40.0232144" lon="18.4337851"><ele>41.66666666666667</ele><time>2026-04-04T14:56:16.186Z</time></trkpt><trkpt lat="40.0230382" lon="18.433741"><ele>52.333333333333336</ele><time>2026-04-04T14:56:17.186Z</time></trkpt><trkpt lat="40.0228671" lon="18.4337243"><ele>63.0</ele><time>2026-04-04T14:56:18.187Z</time></trkpt><trkpt lat="40.0227076" lon="18.4337667"><ele>58.0</ele><time>2026-04-04T14:56:19.186Z</time></trkpt><trkpt lat="40.0225513" lon="18.4338428"><ele>53.0</ele><time>2026-04-04T14:56:20.186Z</time></trkpt><trkpt lat="40.0223938" lon="18.4339528"><ele>48.0</ele><time>2026-04-04T14:56:21.186Z</time></trkpt><trkpt lat="40.0222438" lon="18.4340385"><ele>48.0</ele><time>2026-04-04T14:56:22.187Z</time></trkpt><trkpt lat="40.0220747" lon="18.434113"><ele>48.0</ele><time>2026-04-04T14:56:23.187Z</time></trkpt><trkpt lat="40.0218904" lon="18.4341686"><ele>48.0</ele><time>2026-04-04T14:56:24.185Z</time></trkpt><trkpt lat="40.021694" lon="18.434213"><ele>48.33333333333333</ele><time>2026-04-04T14:56:25.186Z</time></trkpt><trkpt lat="40.0214971" lon="18.4342505"><ele>48.666666666666664</ele><time>2026-04-04T14:56:26.186Z</time></trkpt><trkpt lat="40.021298" lon="18.4342868"><ele>49.0</ele><time>2026-04-04T14:56:27.186Z</time></trkpt><trkpt lat="40.0210974" lon="18.4342909"><ele>49.0</ele><time>2026-04-04T14:56:28.187Z</time></trkpt><trkpt lat="40.0208986" lon="18.4342734"><ele>49.0</ele><time>2026-04-04T14:56:29.188Z</time></trkpt><trkpt lat="40.0207078" lon="18.4342121"><ele>49.0</ele><time>2026-04-04T14:56:30.186Z</time></trkpt><trkpt lat="40.0205267" lon="18.4341294"><ele>47.33333333333333</ele><time>2026-04-04T14:56:31.185Z</time></trkpt><trkpt lat="40.020363" lon="18.434015"><ele>45.666666666666664</ele><time>2026-04-04T14:56:32.187Z</time></trkpt><trkpt lat="40.0202079" lon="18.4338718"><ele>44.0</ele><time>2026-04-04T14:56:33.185Z</time></trkpt><trkpt lat="40.0200491" lon="18.4337269"><ele>47.33333333333333</ele><time>2026-04-04T14:56:34.187Z</time></trkpt><trkpt lat="40.0198742" lon="18.4335899"><ele>50.666666666666664</ele><time>2026-04-04T14:56:35.187Z</time></trkpt><trkpt lat="40.0196838" lon="18.4334884"><ele>54.0</ele><time>2026-04-04T14:56:36.186Z</time></trkpt><trkpt lat="40.0194806" lon="18.4334165"><ele>54.0</ele><time>2026-04-04T14:56:37.186Z</time></trkpt><trkpt lat="40.01927" lon="18.4333627"><ele>54.0</ele><time>2026-04-04T14:56:38.186Z</time></trkpt><trkpt lat="40.0190508" lon="18.4333127"><ele>54.0</ele><time>2026-04-04T14:56:39.187Z</time></trkpt><trkpt lat="40.0188277" lon="18.4332607"><ele>52.0</ele><time>2026-04-04T14:56:40.187Z</time></trkpt><trkpt lat="40.0185982" lon="18.4332084"><ele>50.0</ele><time>2026-04-04T14:56:41.186Z</time></trkpt><trkpt lat="40.018369" lon="18.4331527"><ele>47.66666666666667</ele><time>2026-04-04T14:56:42.186Z</time></trkpt><trkpt lat="40.0181454" lon="18.4330977"><ele>45.333333333333336</ele><time>2026-04-04T14:56:43.187Z</time></trkpt><trkpt lat="40.017933" lon="18.433023"><ele>43.0</ele><time>2026-04-04T14:56:44.186Z</time></trkpt><trkpt lat="40.0177192" lon="18.4329352"><ele>48.0</ele><time>2026-04-04T14:56:45.186Z</time></trkpt><trkpt lat="40.0175058" lon="18.4328409"><ele>53.0</ele><time>2026-04-04T14:56:46.187Z</time></trkpt><trkpt lat="40.017288" lon="18.4327476"><ele>53.0</ele><time>2026-04-04T14:56:47.186Z</time></trkpt><trkpt lat="40.01707" lon="18.4326541"><ele>53.0</ele><time>2026-04-04T14:56:48.185Z</time></trkpt><trkpt lat="40.0168531" lon="18.4325676"><ele>53.333333333333336</ele><time>2026-04-04T14:56:49.187Z</time></trkpt><trkpt lat="40.0166397" lon="18.4325064"><ele>53.66666666666667</ele><time>2026-04-04T14:56:50.188Z</time></trkpt><trkpt lat="40.0164257" lon="18.4324818"><ele>54.0</ele><time>2026-04-04T14:56:51.187Z</time></trkpt><trkpt lat="40.0162174" lon="18.4324903"><ele>54.0</ele><time>2026-04-04T14:56:52.188Z</time></trkpt><trkpt lat="40.0160312" lon="18.432493"><ele>54.0</ele><time>2026-04-04T14:56:53.186Z</time></trkpt><trkpt lat="40.0158461" lon="18.4324797"><ele>54.0</ele><time>2026-04-04T14:56:54.186Z</time></trkpt><trkpt lat="40.015665" lon="18.4324207"><ele>52.33333333333333</ele><time>2026-04-04T14:56:55.186Z</time></trkpt><trkpt lat="40.0154811" lon="18.4323539"><ele>50.666666666666664</ele><time>2026-04-04T14:56:56.187Z</time></trkpt><trkpt lat="40.0152966" lon="18.4322269"><ele>49.0</ele><time>2026-04-04T14:56:57.187Z</time></trkpt><trkpt lat="40.0151059" lon="18.4321049"><ele>50.666666666666664</ele><time>2026-04-04T14:56:58.186Z</time></trkpt><trkpt lat="40.0149117" lon="18.4319852"><ele>52.33333333333333</ele><time>2026-04-04T14:56:59.186Z</time></trkpt><trkpt lat="40.0147141" lon="18.4318683"><ele>54.0</ele><time>2026-04-04T14:57:00.185Z</time></trkpt><trkpt lat="40.0145256" lon="18.4317494"><ele>54.0</ele><time>2026-04-04T14:57:01.186Z</time></trkpt><trkpt lat="40.014352" lon="18.431608"><ele>54.0</ele><time>2026-04-04T14:57:02.187Z</time></trkpt><trkpt lat="40.0141792" lon="18.4314628"><ele>54.0</ele><time>2026-04-04T14:57:03.187Z</time></trkpt><trkpt lat="40.0140049" lon="18.431352"><ele>55.66666666666667</ele><time>2026-04-04T14:57:04.185Z</time></trkpt><trkpt lat="40.0138162" lon="18.4312673"><ele>57.333333333333336</ele><time>2026-04-04T14:57:05.188Z</time></trkpt><trkpt lat="40.013626" lon="18.4312163"><ele>59.0</ele><time>2026-04-04T14:57:06.185Z</time></trkpt><trkpt lat="40.0134727" lon="18.4311632"><ele>59.0</ele><time>2026-04-04T14:57:07.187Z</time></trkpt><trkpt lat="40.0133438" lon="18.4310831"><ele>59.0</ele><time>2026-04-04T14:57:08.186Z</time></trkpt><trkpt lat="40.013232" lon="18.4309572"><ele>59.0</ele><time>2026-04-04T14:57:09.187Z</time></trkpt><trkpt lat="40.0131141" lon="18.4308464"><ele>59.0</ele><time>2026-04-04T14:57:10.185Z</time></trkpt><trkpt lat="40.0129996" lon="18.4307578"><ele>59.400000000000006</ele><time>2026-04-04T14:57:11.187Z</time></trkpt><trkpt lat="40.0129227" lon="18.4306597"><ele>59.800000000000004</ele><time>2026-04-04T14:57:12.186Z</time></trkpt><trkpt lat="40.0128635" lon="18.4305426"><ele>60.199999999999996</ele><time>2026-04-04T14:57:13.187Z</time></trkpt><trkpt lat="40.0128327" lon="18.4304159"><ele>60.599999999999994</ele><time>2026-04-04T14:57:14.185Z</time></trkpt><trkpt lat="40.0127957" lon="18.4302886"><ele>61.0</ele><time>2026-04-04T14:57:15.186Z</time></trkpt><trkpt lat="40.012732" lon="18.4301849"><ele>61.0</ele><time>2026-04-04T14:57:16.187Z</time></trkpt><trkpt lat="40.0126341" lon="18.4301133"><ele>61.0</ele><time>2026-04-04T14:57:17.187Z</time></trkpt><trkpt lat="40.0125062" lon="18.4300911"><ele>61.0</ele><time>2026-04-04T14:57:18.187Z</time></trkpt><trkpt lat="40.0123752" lon="18.430116"><ele>61.0</ele><time>2026-04-04T14:57:19.186Z</time></trkpt><trkpt lat="40.0122399" lon="18.4301384"><ele>58.0</ele><time>2026-04-04T14:57:20.186Z</time></trkpt><trkpt lat="40.0121123" lon="18.430139"><ele>55.0</ele><time>2026-04-04T14:57:21.187Z</time></trkpt><trkpt lat="40.0119868" lon="18.4301027"><ele>52.0</ele><time>2026-04-04T14:57:22.186Z</time></trkpt><trkpt lat="40.0118569" lon="18.4300254"><ele>49.0</ele><time>2026-04-04T14:57:23.185Z</time></trkpt><trkpt lat="40.0117216" lon="18.4299301"><ele>47.666666666666664</ele><time>2026-04-04T14:57:24.186Z</time></trkpt><trkpt lat="40.0115731" lon="18.4298281"><ele>46.33333333333333</ele><time>2026-04-04T14:57:25.185Z</time></trkpt><trkpt lat="40.011414" lon="18.4297345"><ele>45.0</ele><time>2026-04-04T14:57:26.186Z</time></trkpt><trkpt lat="40.0112421" lon="18.4296507"><ele>52.66666666666667</ele><time>2026-04-04T14:57:27.187Z</time></trkpt><trkpt lat="40.0110656" lon="18.4295761"><ele>60.333333333333336</ele><time>2026-04-04T14:57:28.186Z</time></trkpt><trkpt lat="40.0108775" lon="18.4295075"><ele>68.0</ele><time>2026-04-04T14:57:29.185Z</time></trkpt><trkpt lat="40.0106895" lon="18.4294626"><ele>68.0</ele><time>2026-04-04T14:57:30.185Z</time></trkpt><trkpt lat="40.0104928" lon="18.4294526"><ele>68.0</ele><time>2026-04-04T14:57:31.187Z</time></trkpt><trkpt lat="40.0102967" lon="18.4294724"><ele>68.0</ele><time>2026-04-04T14:57:32.186Z</time></trkpt><trkpt lat="40.0100995" lon="18.4295024"><ele>70.33333333333334</ele><time>2026-04-04T14:57:33.186Z</time></trkpt><trkpt lat="40.009897" lon="18.4295284"><ele>72.66666666666667</ele><time>2026-04-04T14:57:34.187Z</time></trkpt><trkpt lat="40.0096938" lon="18.4295522"><ele>75.0</ele><time>2026-04-04T14:57:35.185Z</time></trkpt><trkpt lat="40.0094996" lon="18.4295741"><ele>75.0</ele><time>2026-04-04T14:57:36.187Z</time></trkpt><trkpt lat="40.0093091" lon="18.4296186"><ele>75.0</ele><time>2026-04-04T14:57:37.186Z</time></trkpt><trkpt lat="40.0091233" lon="18.4296901"><ele>75.0</ele><time>2026-04-04T14:57:38.186Z</time></trkpt><trkpt lat="40.008942" lon="18.4297773"><ele>69.0</ele><time>2026-04-04T14:57:39.186Z</time></trkpt><trkpt lat="40.0087611" lon="18.4298576"><ele>63.0</ele><time>2026-04-04T14:57:40.185Z</time></trkpt><trkpt lat="40.0085764" lon="18.4299205"><ele>57.0</ele><time>2026-04-04T14:57:41.186Z</time></trkpt><trkpt lat="40.0083844" lon="18.4299424"><ele>57.66666666666667</ele><time>2026-04-04T14:57:42.186Z</time></trkpt><trkpt lat="40.0081893" lon="18.4299572"><ele>58.333333333333336</ele><time>2026-04-04T14:57:43.185Z</time></trkpt><trkpt lat="40.0079983" lon="18.429971"><ele>59.0</ele><time>2026-04-04T14:57:44.185Z</time></trkpt><trkpt lat="40.0078114" lon="18.429978"><ele>59.0</ele><time>2026-04-04T14:57:45.185Z</time></trkpt><trkpt lat="40.0076347" lon="18.429984"><ele>59.0</ele><time>2026-04-04T14:57:46.186Z</time></trkpt><trkpt lat="40.0074561" lon="18.4299882"><ele>59.0</ele><time>2026-04-04T14:57:47.188Z</time></trkpt><trkpt lat="40.0072855" lon="18.4299831"><ele>58.0</ele><time>2026-04-04T14:57:48.186Z</time></trkpt><trkpt lat="40.0071234" lon="18.4299629"><ele>57.0</ele><time>2026-04-04T14:57:49.186Z</time></trkpt><trkpt lat="40.006971" lon="18.4299158"><ele>56.0</ele><time>2026-04-04T14:57:50.185Z</time></trkpt><trkpt lat="40.0068279" lon="18.4298496"><ele>56.0</ele><time>2026-04-04T14:57:51.186Z</time></trkpt><trkpt lat="40.006686" lon="18.4297703"><ele>56.0</ele><time>2026-04-04T14:57:52.186Z</time></trkpt><trkpt lat="40.0065495" lon="18.4296863"><ele>56.0</ele><time>2026-04-04T14:57:53.186Z</time></trkpt><trkpt lat="40.0064148" lon="18.4296102"><ele>58.5</ele><time>2026-04-04T14:57:54.185Z</time></trkpt><trkpt lat="40.0062873" lon="18.4295343"><ele>61.0</ele><time>2026-04-04T14:57:55.186Z</time></trkpt><trkpt lat="40.0061683" lon="18.4294708"><ele>63.5</ele><time>2026-04-04T14:57:56.187Z</time></trkpt><trkpt lat="40.0060578" lon="18.4294104"><ele>66.0</ele><time>2026-04-04T14:57:57.187Z</time></trkpt><trkpt lat="40.0059625" lon="18.4293625"><ele>66.0</ele><time>2026-04-04T14:57:58.187Z</time></trkpt><trkpt lat="40.0058655" lon="18.4293256"><ele>66.0</ele><time>2026-04-04T14:57:59.185Z</time></trkpt><trkpt lat="40.0057583" lon="18.4293011"><ele>66.0</ele><time>2026-04-04T14:58:00.187Z</time></trkpt><trkpt lat="40.0056251" lon="18.4293"><ele>66.0</ele><time>2026-04-04T14:58:01.185Z</time></trkpt><trkpt lat="40.005483" lon="18.4293113"><ele>66.25</ele><time>2026-04-04T14:58:02.186Z</time></trkpt><trkpt lat="40.0053394" lon="18.4293235"><ele>66.5</ele><time>2026-04-04T14:58:03.186Z</time></trkpt><trkpt lat="40.0052006" lon="18.4293298"><ele>66.75</ele><time>2026-04-04T14:58:04.187Z</time></trkpt><trkpt lat="40.0050714" lon="18.4293366"><ele>67.0</ele><time>2026-04-04T14:58:05.187Z</time></trkpt><trkpt lat="40.004941" lon="18.4293431"><ele>67.0</ele><time>2026-04-04T14:58:06.186Z</time></trkpt><trkpt lat="40.0047949" lon="18.4293286"><ele>67.0</ele><time>2026-04-04T14:58:07.187Z</time></trkpt><trkpt lat="40.0046404" lon="18.4293071"><ele>67.0</ele><time>2026-04-04T14:58:08.186Z</time></trkpt><trkpt lat="40.0044716" lon="18.4292837"><ele>67.0</ele><time>2026-04-04T14:58:09.186Z</time></trkpt><trkpt lat="40.0042851" lon="18.4292657"><ele>67.0</ele><time>2026-04-04T14:58:10.186Z</time></trkpt><trkpt lat="40.0041075" lon="18.4292474"><ele>67.0</ele><time>2026-04-04T14:58:11.186Z</time></trkpt><trkpt lat="40.0039282" lon="18.4292224"><ele>65.66666666666666</ele><time>2026-04-04T14:58:12.185Z</time></trkpt><trkpt lat="40.0037398" lon="18.4291829"><ele>64.33333333333333</ele><time>2026-04-04T14:58:13.187Z</time></trkpt><trkpt lat="40.0035477" lon="18.4291263"><ele>63.0</ele><time>2026-04-04T14:58:14.187Z</time></trkpt><trkpt lat="40.0033554" lon="18.4290682"><ele>61.0</ele><time>2026-04-04T14:58:15.186Z</time></trkpt><trkpt lat="40.0031582" lon="18.4290137"><ele>59.0</ele><time>2026-04-04T14:58:16.185Z</time></trkpt><trkpt lat="40.0029649" lon="18.4289573"><ele>57.0</ele><time>2026-04-04T14:58:17.186Z</time></trkpt><trkpt lat="40.0027828" lon="18.4289108"><ele>57.0</ele><time>2026-04-04T14:58:18.186Z</time></trkpt><trkpt lat="40.0026275" lon="18.4288667"><ele>57.0</ele><time>2026-04-04T14:58:19.188Z</time></trkpt><trkpt lat="40.0024946" lon="18.4288272"><ele>57.0</ele><time>2026-04-04T14:58:20.187Z</time></trkpt><trkpt lat="40.0023875" lon="18.4287866"><ele>57.0</ele><time>2026-04-04T14:58:21.185Z</time></trkpt><trkpt lat="40.0023059" lon="18.428711"><ele>53.6</ele><time>2026-04-04T14:58:22.186Z</time></trkpt><trkpt lat="40.0022525" lon="18.4286117"><ele>50.2</ele><time>2026-04-04T14:58:23.187Z</time></trkpt><trkpt lat="40.0022339" lon="18.4284849"><ele>46.8</ele><time>2026-04-04T14:58:24.187Z</time></trkpt><trkpt lat="40.0022574" lon="18.4283633"><ele>43.4</ele><time>2026-04-04T14:58:25.186Z</time></trkpt><trkpt lat="40.0023012" lon="18.4282377"><ele>40.0</ele><time>2026-04-04T14:58:26.186Z</time></trkpt><trkpt lat="40.0024083" lon="18.428121"><ele>42.75</ele><time>2026-04-04T14:58:27.185Z</time></trkpt><trkpt lat="40.0025003" lon="18.4280051"><ele>45.5</ele><time>2026-04-04T14:58:28.185Z</time></trkpt><trkpt lat="40.0025952" lon="18.4278763"><ele>48.25</ele><time>2026-04-04T14:58:29.186Z</time></trkpt><trkpt lat="40.0026957" lon="18.4277473"><ele>51.0</ele><time>2026-04-04T14:58:30.186Z</time></trkpt><trkpt lat="40.0027907" lon="18.4276299"><ele>51.0</ele><time>2026-04-04T14:58:31.186Z</time></trkpt><trkpt lat="40.0028718" lon="18.4275317"><ele>51.0</ele><time>2026-04-04T14:58:32.187Z</time></trkpt><trkpt lat="40.0029537" lon="18.4274291"><ele>51.0</ele><time>2026-04-04T14:58:33.188Z</time></trkpt><trkpt lat="40.0030364" lon="18.4273263"><ele>51.0</ele><time>2026-04-04T14:58:34.185Z</time></trkpt><trkpt lat="40.0031298" lon="18.4272135"><ele>51.75</ele><time>2026-04-04T14:58:35.185Z</time></trkpt><trkpt lat="40.003225" lon="18.4270941"><ele>52.5</ele><time>2026-04-04T14:58:36.186Z</time></trkpt><trkpt lat="40.0033208" lon="18.426967"><ele>53.25</ele><time>2026-04-04T14:58:37.187Z</time></trkpt><trkpt lat="40.0034249" lon="18.426845"><ele>54.0</ele><time>2026-04-04T14:58:38.185Z</time></trkpt><trkpt lat="40.0035176" lon="18.4267218"><ele>54.0</ele><time>2026-04-04T14:58:39.186Z</time></trkpt><trkpt lat="40.0036215" lon="18.4266075"><ele>54.0</ele><time>2026-04-04T14:58:40.186Z</time></trkpt><trkpt lat="40.0037138" lon="18.4264878"><ele>54.0</ele><time>2026-04-04T14:58:41.187Z</time></trkpt><trkpt lat="40.0037889" lon="18.4263888"><ele>54.0</ele><time>2026-04-04T14:58:42.186Z</time></trkpt><trkpt lat="40.0038691" lon="18.4262912"><ele>53.400000000000006</ele><time>2026-04-04T14:58:43.187Z</time></trkpt><trkpt lat="40.0039499" lon="18.4262138"><ele>52.800000000000004</ele><time>2026-04-04T14:58:44.187Z</time></trkpt><trkpt lat="40.0040359" lon="18.4261329"><ele>52.2</ele><time>2026-04-04T14:58:45.186Z</time></trkpt><trkpt lat="40.0041194" lon="18.4260606"><ele>51.599999999999994</ele><time>2026-04-04T14:58:46.186Z</time></trkpt><trkpt lat="40.0042054" lon="18.4259956"><ele>51.0</ele><time>2026-04-04T14:58:47.186Z</time></trkpt><trkpt lat="40.0042901" lon="18.4259377"><ele>51.0</ele><time>2026-04-04T14:58:48.188Z</time></trkpt><trkpt lat="40.0043573" lon="18.4258903"><ele>51.0</ele><time>2026-04-04T14:58:49.186Z</time></trkpt><trkpt lat="40.0044208" lon="18.4258433"><ele>51.0</ele><time>2026-04-04T14:58:50.187Z</time></trkpt><trkpt lat="40.004487" lon="18.4257912"><ele>51.0</ele><time>2026-04-04T14:58:51.187Z</time></trkpt><trkpt lat="40.0045685" lon="18.4257172"><ele>51.0</ele><time>2026-04-04T14:58:52.186Z</time></trkpt><trkpt lat="40.0046621" lon="18.4256437"><ele>51.0</ele><time>2026-04-04T14:58:53.185Z</time></trkpt><trkpt lat="40.0047765" lon="18.4255602"><ele>51.0</ele><time>2026-04-04T14:58:54.186Z</time></trkpt><trkpt lat="40.0048959" lon="18.425491"><ele>51.0</ele><time>2026-04-04T14:58:55.188Z</time></trkpt><trkpt lat="40.0050203" lon="18.4254063"><ele>51.0</ele><time>2026-04-04T14:58:56.187Z</time></trkpt><trkpt lat="40.005144" lon="18.4253215"><ele>51.0</ele><time>2026-04-04T14:58:57.187Z</time></trkpt><trkpt lat="40.005272" lon="18.4252326"><ele>50.5</ele><time>2026-04-04T14:58:58.187Z</time></trkpt><trkpt lat="40.0054054" lon="18.4251411"><ele>50.0</ele><time>2026-04-04T14:58:59.186Z</time></trkpt><trkpt lat="40.0055364" lon="18.4250455"><ele>49.5</ele><time>2026-04-04T14:59:00.187Z</time></trkpt><trkpt lat="40.0056599" lon="18.424947"><ele>49.0</ele><time>2026-04-04T14:59:01.186Z</time></trkpt><trkpt lat="40.0057669" lon="18.4248153"><ele>48.5</ele><time>2026-04-04T14:59:02.187Z</time></trkpt><trkpt lat="40.0058614" lon="18.4246638"><ele>48.0</ele><time>2026-04-04T14:59:03.186Z</time></trkpt><trkpt lat="40.0059316" lon="18.4244965"><ele>47.5</ele><time>2026-04-04T14:59:04.186Z</time></trkpt><trkpt lat="40.0059891" lon="18.4243134"><ele>47.0</ele><time>2026-04-04T14:59:05.185Z</time></trkpt><trkpt lat="40.0060436" lon="18.4241275"><ele>47.0</ele><time>2026-04-04T14:59:06.186Z</time></trkpt><trkpt lat="40.0060896" lon="18.4239313"><ele>47.0</ele><time>2026-04-04T14:59:07.187Z</time></trkpt><trkpt lat="40.0061444" lon="18.423734"><ele>47.0</ele><time>2026-04-04T14:59:08.187Z</time></trkpt><trkpt lat="40.0062033" lon="18.4235454"><ele>46.0</ele><time>2026-04-04T14:59:09.186Z</time></trkpt><trkpt lat="40.0062733" lon="18.4233677"><ele>45.0</ele><time>2026-04-04T14:59:10.186Z</time></trkpt><trkpt lat="40.0063558" lon="18.4232084"><ele>44.0</ele><time>2026-04-04T14:59:11.187Z</time></trkpt><trkpt lat="40.0064476" lon="18.4230576"><ele>43.0</ele><time>2026-04-04T14:59:12.188Z</time></trkpt><trkpt lat="40.0065633" lon="18.4229271"><ele>43.5</ele><time>2026-04-04T14:59:13.188Z</time></trkpt><trkpt lat="40.0066613" lon="18.422795"><ele>44.0</ele><time>2026-04-04T14:59:14.187Z</time></trkpt><trkpt lat="40.0067373" lon="18.4226563"><ele>44.5</ele><time>2026-04-04T14:59:15.187Z</time></trkpt><trkpt lat="40.0067898" lon="18.4224977"><ele>45.0</ele><time>2026-04-04T14:59:16.187Z</time></trkpt><trkpt lat="40.0067932" lon="18.4223452"><ele>45.0</ele><time>2026-04-04T14:59:17.186Z</time></trkpt><trkpt lat="40.0067621" lon="18.4222051"><ele>45.0</ele><time>2026-04-04T14:59:18.187Z</time></trkpt><trkpt lat="40.0067045" lon="18.4220904"><ele>45.0</ele><time>2026-04-04T14:59:19.186Z</time></trkpt><trkpt lat="40.0066338" lon="18.4219953"><ele>45.0</ele><time>2026-04-04T14:59:20.187Z</time></trkpt><trkpt lat="40.0065637" lon="18.4219127"><ele>45.0</ele><time>2026-04-04T14:59:21.186Z</time></trkpt><trkpt lat="40.006504" lon="18.4218414"><ele>45.5</ele><time>2026-04-04T14:59:22.186Z</time></trkpt><trkpt lat="40.0064553" lon="18.4217698"><ele>46.0</ele><time>2026-04-04T14:59:23.187Z</time></trkpt><trkpt lat="40.0063981" lon="18.4217133"><ele>46.5</ele><time>2026-04-04T14:59:24.187Z</time></trkpt><trkpt lat="40.0062909" lon="18.4216894"><ele>47.0</ele><time>2026-04-04T14:59:26.187Z</time></trkpt><trkpt lat="40.0062056" lon="18.4217797"><ele>47.5</ele><time>2026-04-04T14:59:28.188Z</time></trkpt><trkpt lat="40.0061599" lon="18.4218583"><ele>48.0</ele><time>2026-04-04T14:59:29.188Z</time></trkpt><trkpt lat="40.0061039" lon="18.4219586"><ele>48.0</ele><time>2026-04-04T14:59:30.186Z</time></trkpt><trkpt lat="40.0060397" lon="18.4220698"><ele>48.0</ele><time>2026-04-04T14:59:31.186Z</time></trkpt><trkpt lat="40.0059662" lon="18.4221835"><ele>48.0</ele><time>2026-04-04T14:59:32.186Z</time></trkpt><trkpt lat="40.0058881" lon="18.4223016"><ele>48.0</ele><time>2026-04-04T14:59:33.185Z</time></trkpt><trkpt lat="40.0057966" lon="18.4224182"><ele>47.75</ele><time>2026-04-04T14:59:34.185Z</time></trkpt><trkpt lat="40.0057058" lon="18.4225368"><ele>47.5</ele><time>2026-04-04T14:59:35.185Z</time></trkpt><trkpt lat="40.0056086" lon="18.4226543"><ele>47.25</ele><time>2026-04-04T14:59:36.187Z</time></trkpt><trkpt lat="40.0055046" lon="18.4227613"><ele>47.0</ele><time>2026-04-04T14:59:37.186Z</time></trkpt><trkpt lat="40.0053906" lon="18.4228692"><ele>46.5</ele><time>2026-04-04T14:59:38.186Z</time></trkpt><trkpt lat="40.0052759" lon="18.4229816"><ele>46.0</ele><time>2026-04-04T14:59:39.187Z</time></trkpt><trkpt lat="40.0051593" lon="18.4230998"><ele>45.5</ele><time>2026-04-04T14:59:40.187Z</time></trkpt><trkpt lat="40.0050417" lon="18.4232185"><ele>45.0</ele><time>2026-04-04T14:59:41.187Z</time></trkpt><trkpt lat="40.0049232" lon="18.4233428"><ele>45.0</ele><time>2026-04-04T14:59:42.186Z</time></trkpt><trkpt lat="40.0048021" lon="18.4234484"><ele>45.0</ele><time>2026-04-04T14:59:43.187Z</time></trkpt><trkpt lat="40.0046686" lon="18.4235325"><ele>45.0</ele><time>2026-04-04T14:59:44.186Z</time></trkpt><trkpt lat="40.0045261" lon="18.4235926"><ele>45.0</ele><time>2026-04-04T14:59:45.187Z</time></trkpt><trkpt lat="40.0043706" lon="18.4235892"><ele>45.0</ele><time>2026-04-04T14:59:46.187Z</time></trkpt><trkpt lat="40.0042267" lon="18.4235835"><ele>45.0</ele><time>2026-04-04T14:59:47.185Z</time></trkpt><trkpt lat="40.0040812" lon="18.4235721"><ele>45.0</ele><time>2026-04-04T14:59:48.185Z</time></trkpt><trkpt lat="40.0039321" lon="18.4235678"><ele>45.0</ele><time>2026-04-04T14:59:49.186Z</time></trkpt><trkpt lat="40.0037806" lon="18.4235664"><ele>44.0</ele><time>2026-04-04T14:59:50.186Z</time></trkpt><trkpt lat="40.0036298" lon="18.4235503"><ele>43.0</ele><time>2026-04-04T14:59:51.188Z</time></trkpt><trkpt lat="40.0034914" lon="18.4234972"><ele>42.0</ele><time>2026-04-04T14:59:52.187Z</time></trkpt><trkpt lat="40.0033685" lon="18.4234121"><ele>41.0</ele><time>2026-04-04T14:59:53.188Z</time></trkpt><trkpt lat="40.003267" lon="18.4232855"><ele>40.75</ele><time>2026-04-04T14:59:54.186Z</time></trkpt><trkpt lat="40.0031917" lon="18.4231405"><ele>40.5</ele><time>2026-04-04T14:59:55.188Z</time></trkpt><trkpt lat="40.0031222" lon="18.4229775"><ele>40.25</ele><time>2026-04-04T14:59:56.186Z</time></trkpt><trkpt lat="40.0030625" lon="18.4228067"><ele>40.0</ele><time>2026-04-04T14:59:57.186Z</time></trkpt><trkpt lat="40.0029961" lon="18.4226351"><ele>40.0</ele><time>2026-04-04T14:59:58.185Z</time></trkpt><trkpt lat="40.0029306" lon="18.4224589"><ele>40.0</ele><time>2026-04-04T14:59:59.186Z</time></trkpt><trkpt lat="40.002859" lon="18.4222842"><ele>40.0</ele><time>2026-04-04T15:00:00.188Z</time></trkpt><trkpt lat="40.0027759" lon="18.4221143"><ele>40.333333333333336</ele><time>2026-04-04T15:00:01.187Z</time></trkpt><trkpt lat="40.0026817" lon="18.4219509"><ele>40.666666666666664</ele><time>2026-04-04T15:00:02.185Z</time></trkpt><trkpt lat="40.0025662" lon="18.4218053"><ele>41.0</ele><time>2026-04-04T15:00:03.186Z</time></trkpt><trkpt lat="40.0024328" lon="18.4216807"><ele>41.0</ele><time>2026-04-04T15:00:04.186Z</time></trkpt><trkpt lat="40.0022833" lon="18.4215801"><ele>41.0</ele><time>2026-04-04T15:00:05.187Z</time></trkpt><trkpt lat="40.0021172" lon="18.4214973"><ele>41.0</ele><time>2026-04-04T15:00:06.187Z</time></trkpt><trkpt lat="40.0019373" lon="18.4214396"><ele>41.0</ele><time>2026-04-04T15:00:07.187Z</time></trkpt><trkpt lat="40.0017499" lon="18.4214154"><ele>41.0</ele><time>2026-04-04T15:00:08.185Z</time></trkpt><trkpt lat="40.0015569" lon="18.4214343"><ele>41.0</ele><time>2026-04-04T15:00:09.187Z</time></trkpt><trkpt lat="40.001364" lon="18.4214875"><ele>40.0</ele><time>2026-04-04T15:00:10.187Z</time></trkpt><trkpt lat="40.0011778" lon="18.4215526"><ele>39.0</ele><time>2026-04-04T15:00:11.187Z</time></trkpt><trkpt lat="40.0009894" lon="18.4216079"><ele>38.0</ele><time>2026-04-04T15:00:12.185Z</time></trkpt><trkpt lat="40.0008048" lon="18.4215856"><ele>37.666666666666664</ele><time>2026-04-04T15:00:13.185Z</time></trkpt><trkpt lat="40.0006273" lon="18.4215391"><ele>37.333333333333336</ele><time>2026-04-04T15:00:14.185Z</time></trkpt><trkpt lat="40.0004516" lon="18.4214539"><ele>37.0</ele><time>2026-04-04T15:00:15.186Z</time></trkpt><trkpt lat="40.0003226" lon="18.4212825"><ele>40.333333333333336</ele><time>2026-04-04T15:00:16.187Z</time></trkpt><trkpt lat="40.0001961" lon="18.4211063"><ele>43.666666666666664</ele><time>2026-04-04T15:00:17.185Z</time></trkpt><trkpt lat="40.0000695" lon="18.4209175"><ele>47.0</ele><time>2026-04-04T15:00:18.185Z</time></trkpt><trkpt lat="39.9999444" lon="18.4207153"><ele>47.0</ele><time>2026-04-04T15:00:19.187Z</time></trkpt><trkpt lat="39.999813" lon="18.4205154"><ele>47.0</ele><time>2026-04-04T15:00:20.186Z</time></trkpt><trkpt lat="39.9996792" lon="18.4203128"><ele>47.0</ele><time>2026-04-04T15:00:21.185Z</time></trkpt><trkpt lat="39.9995553" lon="18.4201146"><ele>45.33333333333333</ele><time>2026-04-04T15:00:22.187Z</time></trkpt><trkpt lat="39.9994201" lon="18.4199126"><ele>43.666666666666664</ele><time>2026-04-04T15:00:23.187Z</time></trkpt><trkpt lat="39.9992852" lon="18.4197145"><ele>42.0</ele><time>2026-04-04T15:00:24.188Z</time></trkpt><trkpt lat="39.9991519" lon="18.4195018"><ele>42.0</ele><time>2026-04-04T15:00:25.187Z</time></trkpt><trkpt lat="39.9990167" lon="18.4192903"><ele>42.0</ele><time>2026-04-04T15:00:26.187Z</time></trkpt><trkpt lat="39.9988847" lon="18.4190799"><ele>42.0</ele><time>2026-04-04T15:00:27.187Z</time></trkpt><trkpt lat="39.9987436" lon="18.4188798"><ele>40.666666666666664</ele><time>2026-04-04T15:00:28.186Z</time></trkpt><trkpt lat="39.998593" lon="18.4186822"><ele>39.33333333333333</ele><time>2026-04-04T15:00:29.185Z</time></trkpt><trkpt lat="39.9984296" lon="18.4185064"><ele>38.0</ele><time>2026-04-04T15:00:30.186Z</time></trkpt><trkpt lat="39.9982622" lon="18.4183322"><ele>38.0</ele><time>2026-04-04T15:00:31.186Z</time></trkpt><trkpt lat="39.9980752" lon="18.418189"><ele>38.0</ele><time>2026-04-04T15:00:32.186Z</time></trkpt><trkpt lat="39.9978945" lon="18.4180406"><ele>38.0</ele><time>2026-04-04T15:00:33.186Z</time></trkpt><trkpt lat="39.9977183" lon="18.4178916"><ele>38.0</ele><time>2026-04-04T15:00:34.185Z</time></trkpt><trkpt lat="39.9975386" lon="18.4177459"><ele>38.0</ele><time>2026-04-04T15:00:35.185Z</time></trkpt><trkpt lat="39.9973595" lon="18.4176029"><ele>38.0</ele><time>2026-04-04T15:00:36.186Z</time></trkpt><trkpt lat="39.9971829" lon="18.4174629"><ele>38.0</ele><time>2026-04-04T15:00:37.187Z</time></trkpt><trkpt lat="39.9970052" lon="18.4173237"><ele>38.0</ele><time>2026-04-04T15:00:38.185Z</time></trkpt><trkpt lat="39.9968296" lon="18.4171759"><ele>38.0</ele><time>2026-04-04T15:00:39.187Z</time></trkpt><trkpt lat="39.9966509" lon="18.4170319"><ele>37.33333333333333</ele><time>2026-04-04T15:00:40.186Z</time></trkpt><trkpt lat="39.9964737" lon="18.4168951"><ele>36.666666666666664</ele><time>2026-04-04T15:00:41.187Z</time></trkpt><trkpt lat="39.9963015" lon="18.416761"><ele>36.0</ele><time>2026-04-04T15:00:42.186Z</time></trkpt><trkpt lat="39.9961343" lon="18.4166465"><ele>36.0</ele><time>2026-04-04T15:00:43.186Z</time></trkpt><trkpt lat="39.9959739" lon="18.4165411"><ele>36.0</ele><time>2026-04-04T15:00:44.186Z</time></trkpt><trkpt lat="39.9958301" lon="18.4164375"><ele>36.0</ele><time>2026-04-04T15:00:45.186Z</time></trkpt><trkpt lat="39.9957082" lon="18.4163107"><ele>35.75</ele><time>2026-04-04T15:00:46.188Z</time></trkpt><trkpt lat="39.9956221" lon="18.416162"><ele>35.5</ele><time>2026-04-04T15:00:47.186Z</time></trkpt><trkpt lat="39.9955657" lon="18.4160023"><ele>35.25</ele><time>2026-04-04T15:00:48.186Z</time></trkpt><trkpt lat="39.9955008" lon="18.4158627"><ele>35.0</ele><time>2026-04-04T15:00:49.185Z</time></trkpt><trkpt lat="39.995419" lon="18.4157451"><ele>35.0</ele><time>2026-04-04T15:00:50.186Z</time></trkpt><trkpt lat="39.9952924" lon="18.415712"><ele>35.0</ele><time>2026-04-04T15:00:51.185Z</time></trkpt><trkpt lat="39.9951625" lon="18.4156816"><ele>35.0</ele><time>2026-04-04T15:00:52.186Z</time></trkpt><trkpt lat="39.9950149" lon="18.4157072"><ele>35.0</ele><time>2026-04-04T15:00:53.185Z</time></trkpt><trkpt lat="39.9948681" lon="18.4156954"><ele>30.0</ele><time>2026-04-04T15:00:54.187Z</time></trkpt><trkpt lat="39.9947228" lon="18.4156592"><ele>25.0</ele><time>2026-04-04T15:00:55.185Z</time></trkpt><trkpt lat="39.9945785" lon="18.4156036"><ele>20.0</ele><time>2026-04-04T15:00:56.187Z</time></trkpt><trkpt lat="39.9944336" lon="18.4155254"><ele>23.0</ele><time>2026-04-04T15:00:57.188Z</time></trkpt><trkpt lat="39.9942892" lon="18.4154411"><ele>26.0</ele><time>2026-04-04T15:00:58.186Z</time></trkpt><trkpt lat="39.9941449" lon="18.4153403"><ele>29.0</ele><time>2026-04-04T15:00:59.186Z</time></trkpt><trkpt lat="39.9939913" lon="18.4152411"><ele>29.0</ele><time>2026-04-04T15:01:00.187Z</time></trkpt><trkpt lat="39.9938414" lon="18.41517"><ele>29.0</ele><time>2026-04-04T15:01:01.186Z</time></trkpt><trkpt lat="39.9936881" lon="18.4150954"><ele>29.0</ele><time>2026-04-04T15:01:02.185Z</time></trkpt><trkpt lat="39.9935317" lon="18.4150311"><ele>29.0</ele><time>2026-04-04T15:01:03.186Z</time></trkpt><trkpt lat="39.9933728" lon="18.414969"><ele>29.0</ele><time>2026-04-04T15:01:04.185Z</time></trkpt><trkpt lat="39.993208" lon="18.4149088"><ele>29.0</ele><time>2026-04-04T15:01:05.186Z</time></trkpt><trkpt lat="39.9930493" lon="18.4148509"><ele>27.333333333333332</ele><time>2026-04-04T15:01:06.187Z</time></trkpt><trkpt lat="39.9928993" lon="18.4147749"><ele>25.666666666666664</ele><time>2026-04-04T15:01:07.185Z</time></trkpt><trkpt lat="39.9927643" lon="18.41467"><ele>24.0</ele><time>2026-04-04T15:01:08.186Z</time></trkpt><trkpt lat="39.992628" lon="18.4145545"><ele>25.0</ele><time>2026-04-04T15:01:09.186Z</time></trkpt><trkpt lat="39.992502" lon="18.4144281"><ele>26.0</ele><time>2026-04-04T15:01:10.187Z</time></trkpt><trkpt lat="39.9924002" lon="18.4142941"><ele>27.0</ele><time>2026-04-04T15:01:11.188Z</time></trkpt><trkpt lat="39.9923212" lon="18.4141397"><ele>28.0</ele><time>2026-04-04T15:01:12.186Z</time></trkpt><trkpt lat="39.9922577" lon="18.4139758"><ele>29.25</ele><time>2026-04-04T15:01:13.185Z</time></trkpt><trkpt lat="39.9922073" lon="18.413805"><ele>30.5</ele><time>2026-04-04T15:01:14.186Z</time></trkpt><trkpt lat="39.9921702" lon="18.4136431"><ele>31.75</ele><time>2026-04-04T15:01:15.187Z</time></trkpt><trkpt lat="39.9921302" lon="18.4135017"><ele>33.0</ele><time>2026-04-04T15:01:16.186Z</time></trkpt><trkpt lat="39.9920793" lon="18.4133602"><ele>33.0</ele><time>2026-04-04T15:01:17.187Z</time></trkpt><trkpt lat="39.9920098" lon="18.4132199"><ele>33.0</ele><time>2026-04-04T15:01:18.186Z</time></trkpt><trkpt lat="39.9919338" lon="18.4130786"><ele>33.0</ele><time>2026-04-04T15:01:19.186Z</time></trkpt><trkpt lat="39.9918691" lon="18.4129305"><ele>33.0</ele><time>2026-04-04T15:01:20.186Z</time></trkpt><trkpt lat="39.9918223" lon="18.4127756"><ele>34.0</ele><time>2026-04-04T15:01:21.185Z</time></trkpt><trkpt lat="39.9917877" lon="18.4126167"><ele>35.0</ele><time>2026-04-04T15:01:22.185Z</time></trkpt><trkpt lat="39.9917795" lon="18.4124419"><ele>36.0</ele><time>2026-04-04T15:01:23.187Z</time></trkpt><trkpt lat="39.9917808" lon="18.4122782"><ele>37.0</ele><time>2026-04-04T15:01:24.186Z</time></trkpt><trkpt lat="39.9918032" lon="18.4121159"><ele>36.0</ele><time>2026-04-04T15:01:25.188Z</time></trkpt><trkpt lat="39.991824" lon="18.4119736"><ele>35.0</ele><time>2026-04-04T15:01:26.187Z</time></trkpt><trkpt lat="39.9918259" lon="18.4118366"><ele>34.0</ele><time>2026-04-04T15:01:27.188Z</time></trkpt><trkpt lat="39.9917981" lon="18.4117073"><ele>33.0</ele><time>2026-04-04T15:01:28.185Z</time></trkpt><trkpt lat="39.9916619" lon="18.411528"><ele>33.0</ele><time>2026-04-04T15:01:30.187Z</time></trkpt><trkpt lat="39.9915626" lon="18.4115004"><ele>33.0</ele><time>2026-04-04T15:01:31.185Z</time></trkpt><trkpt lat="39.9914748" lon="18.4114693"><ele>33.0</ele><time>2026-04-04T15:01:32.187Z</time></trkpt><trkpt lat="39.9913886" lon="18.4114722"><ele>33.0</ele><time>2026-04-04T15:01:33.185Z</time></trkpt><trkpt lat="39.9913031" lon="18.4114929"><ele>33.0</ele><time>2026-04-04T15:01:34.188Z</time></trkpt><trkpt lat="39.9912446" lon="18.4116079"><ele>33.0</ele><time>2026-04-04T15:01:35.186Z</time></trkpt><trkpt lat="39.9911806" lon="18.411717"><ele>33.0</ele><time>2026-04-04T15:01:36.186Z</time></trkpt><trkpt lat="39.9911153" lon="18.4118644"><ele>33.0</ele><time>2026-04-04T15:01:37.186Z</time></trkpt><trkpt lat="39.991037" lon="18.4120103"><ele>33.0</ele><time>2026-04-04T15:01:38.186Z</time></trkpt><trkpt lat="39.9909643" lon="18.4121682"><ele>30.5</ele><time>2026-04-04T15:01:39.187Z</time></trkpt><trkpt lat="39.9909235" lon="18.412341"><ele>28.0</ele><time>2026-04-04T15:01:40.186Z</time></trkpt><trkpt lat="39.9908983" lon="18.4125166"><ele>25.5</ele><time>2026-04-04T15:01:41.186Z</time></trkpt><trkpt lat="39.9908955" lon="18.4126928"><ele>23.0</ele><time>2026-04-04T15:01:42.187Z</time></trkpt><trkpt lat="39.9909161" lon="18.4128689"><ele>21.5</ele><time>2026-04-04T15:01:43.186Z</time></trkpt><trkpt lat="39.9909345" lon="18.4130421"><ele>20.0</ele><time>2026-04-04T15:01:44.186Z</time></trkpt><trkpt lat="39.9909425" lon="18.4132254"><ele>18.5</ele><time>2026-04-04T15:01:45.186Z</time></trkpt><trkpt lat="39.9909417" lon="18.4134096"><ele>17.0</ele><time>2026-04-04T15:01:46.186Z</time></trkpt><trkpt lat="39.9909174" lon="18.4135679"><ele>17.0</ele><time>2026-04-04T15:01:47.186Z</time></trkpt><trkpt lat="39.9908954" lon="18.4137139"><ele>17.0</ele><time>2026-04-04T15:01:48.185Z</time></trkpt><trkpt lat="39.9908013" lon="18.4137645"><ele>17.0</ele><time>2026-04-04T15:01:49.186Z</time></trkpt><trkpt lat="39.9907118" lon="18.413811"><ele>17.0</ele><time>2026-04-04T15:01:50.187Z</time></trkpt><trkpt lat="39.9906069" lon="18.4138183"><ele>17.0</ele><time>2026-04-04T15:01:51.187Z</time></trkpt><trkpt lat="39.9904962" lon="18.4137985"><ele>19.0</ele><time>2026-04-04T15:01:52.186Z</time></trkpt><trkpt lat="39.9903815" lon="18.4137527"><ele>21.0</ele><time>2026-04-04T15:01:53.187Z</time></trkpt><trkpt lat="39.9902598" lon="18.4136986"><ele>23.0</ele><time>2026-04-04T15:01:54.186Z</time></trkpt><trkpt lat="39.9901319" lon="18.4136416"><ele>25.0</ele><time>2026-04-04T15:01:55.186Z</time></trkpt><trkpt lat="39.9899928" lon="18.4135642"><ele>25.333333333333336</ele><time>2026-04-04T15:01:56.186Z</time></trkpt><trkpt lat="39.9898632" lon="18.4134715"><ele>25.666666666666664</ele><time>2026-04-04T15:01:57.185Z</time></trkpt><trkpt lat="39.9897275" lon="18.4133759"><ele>26.0</ele><time>2026-04-04T15:01:58.186Z</time></trkpt><trkpt lat="39.9895883" lon="18.4132839"><ele>26.0</ele><time>2026-04-04T15:01:59.186Z</time></trkpt><trkpt lat="39.9894445" lon="18.4131971"><ele>26.0</ele><time>2026-04-04T15:02:00.188Z</time></trkpt><trkpt lat="39.9892975" lon="18.4130992"><ele>26.0</ele><time>2026-04-04T15:02:01.185Z</time></trkpt><trkpt lat="39.9891478" lon="18.4130107"><ele>28.333333333333332</ele><time>2026-04-04T15:02:02.187Z</time></trkpt><trkpt lat="39.9889924" lon="18.4129227"><ele>30.666666666666664</ele><time>2026-04-04T15:02:03.185Z</time></trkpt><trkpt lat="39.9888309" lon="18.4128484"><ele>33.0</ele><time>2026-04-04T15:02:04.186Z</time></trkpt><trkpt lat="39.9886687" lon="18.4127874"><ele>33.0</ele><time>2026-04-04T15:02:05.187Z</time></trkpt><trkpt lat="39.988518" lon="18.4127054"><ele>33.0</ele><time>2026-04-04T15:02:06.185Z</time></trkpt><trkpt lat="39.9883778" lon="18.4125898"><ele>33.0</ele><time>2026-04-04T15:02:07.188Z</time></trkpt><trkpt lat="39.9882442" lon="18.4124645"><ele>31.0</ele><time>2026-04-04T15:02:08.186Z</time></trkpt><trkpt lat="39.9880901" lon="18.412365"><ele>29.0</ele><time>2026-04-04T15:02:09.187Z</time></trkpt><trkpt lat="39.9879244" lon="18.4123082"><ele>27.0</ele><time>2026-04-04T15:02:10.186Z</time></trkpt><trkpt lat="39.9877489" lon="18.412289"><ele>27.0</ele><time>2026-04-04T15:02:11.185Z</time></trkpt><trkpt lat="39.9875694" lon="18.4122608"><ele>27.0</ele><time>2026-04-04T15:02:12.186Z</time></trkpt><trkpt lat="39.9873853" lon="18.412238"><ele>27.0</ele><time>2026-04-04T15:02:13.186Z</time></trkpt><trkpt lat="39.9871973" lon="18.4121956"><ele>30.666666666666664</ele><time>2026-04-04T15:02:14.187Z</time></trkpt><trkpt lat="39.9870146" lon="18.4121297"><ele>34.33333333333333</ele><time>2026-04-04T15:02:15.187Z</time></trkpt><trkpt lat="39.9868295" lon="18.4120797"><ele>38.0</ele><time>2026-04-04T15:02:16.188Z</time></trkpt><trkpt lat="39.9866431" lon="18.4120752"><ele>38.33333333333333</ele><time>2026-04-04T15:02:17.187Z</time></trkpt><trkpt lat="39.986462" lon="18.4121109"><ele>38.666666666666664</ele><time>2026-04-04T15:02:18.186Z</time></trkpt><trkpt lat="39.9862767" lon="18.4121497"><ele>39.0</ele><time>2026-04-04T15:02:19.187Z</time></trkpt><trkpt lat="39.9860937" lon="18.4121638"><ele>39.0</ele><time>2026-04-04T15:02:20.185Z</time></trkpt><trkpt lat="39.9859096" lon="18.4121451"><ele>39.0</ele><time>2026-04-04T15:02:21.186Z</time></trkpt><trkpt lat="39.9857278" lon="18.4121472"><ele>39.0</ele><time>2026-04-04T15:02:22.187Z</time></trkpt><trkpt lat="39.9855588" lon="18.4121597"><ele>39.666666666666664</ele><time>2026-04-04T15:02:23.185Z</time></trkpt><trkpt lat="39.9853904" lon="18.4121495"><ele>40.33333333333333</ele><time>2026-04-04T15:02:24.187Z</time></trkpt><trkpt lat="39.9852306" lon="18.4121064"><ele>41.0</ele><time>2026-04-04T15:02:25.187Z</time></trkpt><trkpt lat="39.985072" lon="18.4120271"><ele>38.666666666666664</ele><time>2026-04-04T15:02:26.185Z</time></trkpt><trkpt lat="39.9849118" lon="18.411936"><ele>36.333333333333336</ele><time>2026-04-04T15:02:27.186Z</time></trkpt><trkpt lat="39.9847525" lon="18.4118457"><ele>34.0</ele><time>2026-04-04T15:02:28.186Z</time></trkpt><trkpt lat="39.9846007" lon="18.4117738"><ele>34.0</ele><time>2026-04-04T15:02:29.186Z</time></trkpt><trkpt lat="39.9844363" lon="18.4117442"><ele>34.0</ele><time>2026-04-04T15:02:30.185Z</time></trkpt><trkpt lat="39.9842762" lon="18.4117535"><ele>34.0</ele><time>2026-04-04T15:02:31.185Z</time></trkpt><trkpt lat="39.9841178" lon="18.411743"><ele>32.333333333333336</ele><time>2026-04-04T15:02:32.186Z</time></trkpt><trkpt lat="39.9839586" lon="18.4116911"><ele>30.666666666666664</ele><time>2026-04-04T15:02:33.186Z</time></trkpt><trkpt lat="39.9837927" lon="18.4116075"><ele>29.0</ele><time>2026-04-04T15:02:34.188Z</time></trkpt><trkpt lat="39.9836183" lon="18.4115306"><ele>29.0</ele><time>2026-04-04T15:02:35.187Z</time></trkpt><trkpt lat="39.9834317" lon="18.4114724"><ele>29.0</ele><time>2026-04-04T15:02:36.186Z</time></trkpt><trkpt lat="39.9832467" lon="18.4114122"><ele>29.0</ele><time>2026-04-04T15:02:37.186Z</time></trkpt><trkpt lat="39.983062" lon="18.4113428"><ele>33.33333333333333</ele><time>2026-04-04T15:02:38.187Z</time></trkpt><trkpt lat="39.9828772" lon="18.4112547"><ele>37.666666666666664</ele><time>2026-04-04T15:02:39.186Z</time></trkpt><trkpt lat="39.9826945" lon="18.4111427"><ele>42.0</ele><time>2026-04-04T15:02:40.187Z</time></trkpt><trkpt lat="39.9825165" lon="18.4110277"><ele>38.666666666666664</ele><time>2026-04-04T15:02:41.187Z</time></trkpt><trkpt lat="39.9823521" lon="18.4108876"><ele>35.33333333333333</ele><time>2026-04-04T15:02:42.186Z</time></trkpt><trkpt lat="39.9822032" lon="18.4107187"><ele>32.0</ele><time>2026-04-04T15:02:43.185Z</time></trkpt><trkpt lat="39.9820599" lon="18.4105397"><ele>31.666666666666664</ele><time>2026-04-04T15:02:44.185Z</time></trkpt><trkpt lat="39.9819129" lon="18.410353"><ele>31.333333333333336</ele><time>2026-04-04T15:02:45.185Z</time></trkpt><trkpt lat="39.9817612" lon="18.4101701"><ele>31.0</ele><time>2026-04-04T15:02:46.188Z</time></trkpt><trkpt lat="39.9815948" lon="18.4100001"><ele>31.0</ele><time>2026-04-04T15:02:47.186Z</time></trkpt><trkpt lat="39.9814182" lon="18.4098437"><ele>31.0</ele><time>2026-04-04T15:02:48.187Z</time></trkpt><trkpt lat="39.9812397" lon="18.409688"><ele>31.0</ele><time>2026-04-04T15:02:49.186Z</time></trkpt><trkpt lat="39.9810667" lon="18.40953"><ele>31.333333333333336</ele><time>2026-04-04T15:02:50.187Z</time></trkpt><trkpt lat="39.980899" lon="18.4093502"><ele>31.666666666666664</ele><time>2026-04-04T15:02:51.187Z</time></trkpt><trkpt lat="39.9807426" lon="18.4091541"><ele>32.0</ele><time>2026-04-04T15:02:52.185Z</time></trkpt><trkpt lat="39.9805867" lon="18.4089586"><ele>36.33333333333333</ele><time>2026-04-04T15:02:53.186Z</time></trkpt><trkpt lat="39.9804182" lon="18.4087676"><ele>40.666666666666664</ele><time>2026-04-04T15:02:54.185Z</time></trkpt><trkpt lat="39.9802499" lon="18.408581"><ele>45.0</ele><time>2026-04-04T15:02:55.186Z</time></trkpt><trkpt lat="39.9800894" lon="18.4083924"><ele>44.333333333333336</ele><time>2026-04-04T15:02:56.185Z</time></trkpt><trkpt lat="39.9799261" lon="18.4082124"><ele>43.66666666666667</ele><time>2026-04-04T15:02:57.186Z</time></trkpt><trkpt lat="39.9797575" lon="18.4080583"><ele>43.0</ele><time>2026-04-04T15:02:58.186Z</time></trkpt><trkpt lat="39.9795875" lon="18.4079146"><ele>43.0</ele><time>2026-04-04T15:02:59.186Z</time></trkpt><trkpt lat="39.9794294" lon="18.4077494"><ele>43.0</ele><time>2026-04-04T15:03:00.185Z</time></trkpt><trkpt lat="39.9792776" lon="18.4075738"><ele>43.0</ele><time>2026-04-04T15:03:01.187Z</time></trkpt><trkpt lat="39.979115" lon="18.4074133"><ele>44.0</ele><time>2026-04-04T15:03:02.186Z</time></trkpt><trkpt lat="39.9789411" lon="18.4072936"><ele>45.0</ele><time>2026-04-04T15:03:03.186Z</time></trkpt><trkpt lat="39.9787585" lon="18.4071989"><ele>46.0</ele><time>2026-04-04T15:03:04.186Z</time></trkpt><trkpt lat="39.9785691" lon="18.4071122"><ele>46.0</ele><time>2026-04-04T15:03:05.187Z</time></trkpt><trkpt lat="39.9783804" lon="18.4070293"><ele>46.0</ele><time>2026-04-04T15:03:06.186Z</time></trkpt><trkpt lat="39.9781943" lon="18.4069339"><ele>46.0</ele><time>2026-04-04T15:03:07.186Z</time></trkpt><trkpt lat="39.9780099" lon="18.4068267"><ele>43.0</ele><time>2026-04-04T15:03:08.185Z</time></trkpt><trkpt lat="39.9778261" lon="18.4067069"><ele>40.0</ele><time>2026-04-04T15:03:09.187Z</time></trkpt><trkpt lat="39.9776357" lon="18.4065969"><ele>37.0</ele><time>2026-04-04T15:03:10.186Z</time></trkpt><trkpt lat="39.9774378" lon="18.4065173"><ele>35.0</ele><time>2026-04-04T15:03:11.187Z</time></trkpt><trkpt lat="39.9772339" lon="18.4064569"><ele>33.0</ele><time>2026-04-04T15:03:12.187Z</time></trkpt><trkpt lat="39.9770375" lon="18.4064133"><ele>31.0</ele><time>2026-04-04T15:03:13.186Z</time></trkpt><trkpt lat="39.97685" lon="18.4063921"><ele>29.0</ele><time>2026-04-04T15:03:14.186Z</time></trkpt><trkpt lat="39.9766733" lon="18.4063758"><ele>27.0</ele><time>2026-04-04T15:03:15.187Z</time></trkpt><trkpt lat="39.976497" lon="18.4063288"><ele>25.0</ele><time>2026-04-04T15:03:16.185Z</time></trkpt><trkpt lat="39.976322" lon="18.406281"><ele>29.333333333333336</ele><time>2026-04-04T15:03:17.187Z</time></trkpt><trkpt lat="39.9761425" lon="18.4062349"><ele>33.666666666666664</ele><time>2026-04-04T15:03:18.186Z</time></trkpt><trkpt lat="39.9759595" lon="18.4061959"><ele>38.0</ele><time>2026-04-04T15:03:19.186Z</time></trkpt><trkpt lat="39.9757866" lon="18.4061416"><ele>38.0</ele><time>2026-04-04T15:03:20.187Z</time></trkpt><trkpt lat="39.975632" lon="18.4060687"><ele>38.0</ele><time>2026-04-04T15:03:21.185Z</time></trkpt><trkpt lat="39.9754928" lon="18.4059792"><ele>38.0</ele><time>2026-04-04T15:03:22.188Z</time></trkpt><trkpt lat="39.9753542" lon="18.4059032"><ele>38.0</ele><time>2026-04-04T15:03:23.186Z</time></trkpt><trkpt lat="39.9752113" lon="18.4058456"><ele>38.0</ele><time>2026-04-04T15:03:24.187Z</time></trkpt><trkpt lat="39.9750474" lon="18.4058428"><ele>38.0</ele><time>2026-04-04T15:03:25.187Z</time></trkpt><trkpt lat="39.9748915" lon="18.4058233"><ele>35.33333333333333</ele><time>2026-04-04T15:03:26.187Z</time></trkpt><trkpt lat="39.974729" lon="18.4057928"><ele>32.666666666666664</ele><time>2026-04-04T15:03:27.185Z</time></trkpt><trkpt lat="39.974567" lon="18.4057652"><ele>30.0</ele><time>2026-04-04T15:03:28.188Z</time></trkpt><trkpt lat="39.9744027" lon="18.4057385"><ele>30.0</ele><time>2026-04-04T15:03:29.188Z</time></trkpt><trkpt lat="39.974234" lon="18.4057204"><ele>30.0</ele><time>2026-04-04T15:03:30.186Z</time></trkpt><trkpt lat="39.9740684" lon="18.4057202"><ele>30.0</ele><time>2026-04-04T15:03:31.185Z</time></trkpt><trkpt lat="39.9739016" lon="18.4057182"><ele>28.666666666666664</ele><time>2026-04-04T15:03:32.185Z</time></trkpt><trkpt lat="39.9737359" lon="18.4057271"><ele>27.333333333333332</ele><time>2026-04-04T15:03:33.187Z</time></trkpt><trkpt lat="39.9735743" lon="18.4057402"><ele>26.0</ele><time>2026-04-04T15:03:34.186Z</time></trkpt><trkpt lat="39.9734264" lon="18.4057594"><ele>25.999999999999996</ele><time>2026-04-04T15:03:35.185Z</time></trkpt><trkpt lat="39.9733016" lon="18.4057656"><ele>26.0</ele><time>2026-04-04T15:03:36.186Z</time></trkpt><trkpt lat="39.9732072" lon="18.405771"><ele>26.0</ele><time>2026-04-04T15:03:37.187Z</time></trkpt><trkpt lat="39.9731338" lon="18.4057748"><ele>26.0</ele><time>2026-04-04T15:03:38.187Z</time></trkpt><trkpt lat="39.9730684" lon="18.4057822"><ele>25.999999999999996</ele><time>2026-04-04T15:03:39.185Z</time></trkpt><trkpt lat="39.9730056" lon="18.405791"><ele>26.0</ele><time>2026-04-04T15:03:40.185Z</time></trkpt><trkpt lat="39.9729378" lon="18.4057983"><ele>26.0</ele><time>2026-04-04T15:03:41.185Z</time></trkpt><trkpt lat="39.9728643" lon="18.4058058"><ele>26.0</ele><time>2026-04-04T15:03:42.186Z</time></trkpt><trkpt lat="39.9727802" lon="18.4058102"><ele>26.0</ele><time>2026-04-04T15:03:43.187Z</time></trkpt><trkpt lat="39.9726867" lon="18.4058126"><ele>26.0</ele><time>2026-04-04T15:03:44.187Z</time></trkpt><trkpt lat="39.9725823" lon="18.4058"><ele>26.0</ele><time>2026-04-04T15:03:45.186Z</time></trkpt><trkpt lat="39.9724746" lon="18.4057741"><ele>25.75</ele><time>2026-04-04T15:03:46.186Z</time></trkpt><trkpt lat="39.9723647" lon="18.4057006"><ele>25.5</ele><time>2026-04-04T15:03:47.187Z</time></trkpt><trkpt lat="39.9722551" lon="18.4056125"><ele>25.25</ele><time>2026-04-04T15:03:48.186Z</time></trkpt><trkpt lat="39.9721465" lon="18.4055217"><ele>25.0</ele><time>2026-04-04T15:03:49.186Z</time></trkpt><trkpt lat="39.9720355" lon="18.4054023"><ele>25.75</ele><time>2026-04-04T15:03:50.187Z</time></trkpt><trkpt lat="39.9719138" lon="18.4053126"><ele>26.5</ele><time>2026-04-04T15:03:51.185Z</time></trkpt><trkpt lat="39.971778" lon="18.4052231"><ele>27.25</ele><time>2026-04-04T15:03:52.186Z</time></trkpt><trkpt lat="39.9716357" lon="18.4051508"><ele>28.0</ele><time>2026-04-04T15:03:53.187Z</time></trkpt><trkpt lat="39.9714832" lon="18.405083"><ele>28.0</ele><time>2026-04-04T15:03:54.187Z</time></trkpt><trkpt lat="39.9713155" lon="18.4050466"><ele>28.0</ele><time>2026-04-04T15:03:55.186Z</time></trkpt><trkpt lat="39.9711501" lon="18.4050266"><ele>28.0</ele><time>2026-04-04T15:03:56.186Z</time></trkpt><trkpt lat="39.970996" lon="18.4050207"><ele>27.2</ele><time>2026-04-04T15:03:57.188Z</time></trkpt><trkpt lat="39.9708555" lon="18.4050133"><ele>26.4</ele><time>2026-04-04T15:03:58.186Z</time></trkpt><trkpt lat="39.9707373" lon="18.4050003"><ele>25.599999999999998</ele><time>2026-04-04T15:03:59.188Z</time></trkpt><trkpt lat="39.9706435" lon="18.40499"><ele>24.799999999999997</ele><time>2026-04-04T15:04:00.186Z</time></trkpt><trkpt lat="39.970573" lon="18.4049885"><ele>24.0</ele><time>2026-04-04T15:04:01.185Z</time></trkpt><trkpt lat="39.9705047" lon="18.4049821"><ele>24.0</ele><time>2026-04-04T15:04:02.187Z</time></trkpt><trkpt lat="39.9704323" lon="18.4049805"><ele>24.0</ele><time>2026-04-04T15:04:03.186Z</time></trkpt><trkpt lat="39.9703451" lon="18.4049735"><ele>24.0</ele><time>2026-04-04T15:04:04.187Z</time></trkpt><trkpt lat="39.9702444" lon="18.4049545"><ele>24.0</ele><time>2026-04-04T15:04:05.186Z</time></trkpt><trkpt lat="39.9701296" lon="18.4049362"><ele>24.0</ele><time>2026-04-04T15:04:06.186Z</time></trkpt><trkpt lat="39.9700031" lon="18.4049189"><ele>23.25</ele><time>2026-04-04T15:04:07.188Z</time></trkpt><trkpt lat="39.9698709" lon="18.4048962"><ele>22.5</ele><time>2026-04-04T15:04:08.186Z</time></trkpt><trkpt lat="39.9697291" lon="18.4048756"><ele>21.75</ele><time>2026-04-04T15:04:09.186Z</time></trkpt><trkpt lat="39.9695818" lon="18.404848"><ele>21.0</ele><time>2026-04-04T15:04:10.186Z</time></trkpt><trkpt lat="39.9694302" lon="18.4048124"><ele>21.0</ele><time>2026-04-04T15:04:11.186Z</time></trkpt><trkpt lat="39.9692724" lon="18.404778"><ele>21.0</ele><time>2026-04-04T15:04:12.186Z</time></trkpt><trkpt lat="39.9691154" lon="18.4047365"><ele>21.0</ele><time>2026-04-04T15:04:13.187Z</time></trkpt><trkpt lat="39.9689585" lon="18.4046996"><ele>24.5</ele><time>2026-04-04T15:04:14.185Z</time></trkpt><trkpt lat="39.9688055" lon="18.4046537"><ele>28.0</ele><time>2026-04-04T15:04:15.187Z</time></trkpt><trkpt lat="39.9686631" lon="18.4046132"><ele>31.5</ele><time>2026-04-04T15:04:16.186Z</time></trkpt><trkpt lat="39.9685391" lon="18.404581"><ele>35.0</ele><time>2026-04-04T15:04:17.187Z</time></trkpt><trkpt lat="39.968437" lon="18.4045522"><ele>33.8</ele><time>2026-04-04T15:04:18.186Z</time></trkpt><trkpt lat="39.9683481" lon="18.4045335"><ele>32.6</ele><time>2026-04-04T15:04:19.186Z</time></trkpt><trkpt lat="39.9682266" lon="18.4045166"><ele>31.4</ele><time>2026-04-04T15:04:21.186Z</time></trkpt><trkpt lat="39.968141" lon="18.4044991"><ele>30.2</ele><time>2026-04-04T15:04:22.186Z</time></trkpt><trkpt lat="39.9680536" lon="18.4044848"><ele>29.0</ele><time>2026-04-04T15:04:23.185Z</time></trkpt><trkpt lat="39.9679598" lon="18.4044697"><ele>29.0</ele><time>2026-04-04T15:04:24.187Z</time></trkpt><trkpt lat="39.9678449" lon="18.4044683"><ele>29.0</ele><time>2026-04-04T15:04:25.187Z</time></trkpt><trkpt lat="39.9677246" lon="18.4044422"><ele>29.0</ele><time>2026-04-04T15:04:26.187Z</time></trkpt><trkpt lat="39.9676009" lon="18.4044144"><ele>29.0</ele><time>2026-04-04T15:04:27.187Z</time></trkpt><trkpt lat="39.9674794" lon="18.4043869"><ele>27.75</ele><time>2026-04-04T15:04:28.187Z</time></trkpt><trkpt lat="39.9673489" lon="18.4043619"><ele>26.5</ele><time>2026-04-04T15:04:29.186Z</time></trkpt><trkpt lat="39.96721" lon="18.4043468"><ele>25.25</ele><time>2026-04-04T15:04:30.188Z</time></trkpt><trkpt lat="39.9670528" lon="18.4043371"><ele>24.0</ele><time>2026-04-04T15:04:31.185Z</time></trkpt><trkpt lat="39.9668851" lon="18.4043326"><ele>24.0</ele><time>2026-04-04T15:04:32.185Z</time></trkpt><trkpt lat="39.9667163" lon="18.4043301"><ele>24.0</ele><time>2026-04-04T15:04:33.187Z</time></trkpt><trkpt lat="39.9665428" lon="18.4043217"><ele>24.0</ele><time>2026-04-04T15:04:34.186Z</time></trkpt><trkpt lat="39.9663745" lon="18.4043209"><ele>22.75</ele><time>2026-04-04T15:04:35.186Z</time></trkpt><trkpt lat="39.9662264" lon="18.4043205"><ele>21.5</ele><time>2026-04-04T15:04:36.186Z</time></trkpt><trkpt lat="39.9660901" lon="18.4043111"><ele>20.25</ele><time>2026-04-04T15:04:37.187Z</time></trkpt><trkpt lat="39.9659609" lon="18.4043175"><ele>19.0</ele><time>2026-04-04T15:04:38.186Z</time></trkpt><trkpt lat="39.9658341" lon="18.4043243"><ele>18.4</ele><time>2026-04-04T15:04:39.186Z</time></trkpt><trkpt lat="39.9657134" lon="18.4043275"><ele>17.799999999999997</ele><time>2026-04-04T15:04:40.186Z</time></trkpt><trkpt lat="39.9656044" lon="18.4043269"><ele>17.200000000000003</ele><time>2026-04-04T15:04:41.186Z</time></trkpt><trkpt lat="39.9655004" lon="18.404307"><ele>16.6</ele><time>2026-04-04T15:04:42.187Z</time></trkpt><trkpt lat="39.9653976" lon="18.4042835"><ele>16.0</ele><time>2026-04-04T15:04:43.186Z</time></trkpt><trkpt lat="39.9652908" lon="18.4042569"><ele>16.0</ele><time>2026-04-04T15:04:44.186Z</time></trkpt><trkpt lat="39.9651815" lon="18.4042291"><ele>16.0</ele><time>2026-04-04T15:04:45.187Z</time></trkpt><trkpt lat="39.9650609" lon="18.4042032"><ele>16.0</ele><time>2026-04-04T15:04:46.187Z</time></trkpt><trkpt lat="39.964936" lon="18.4041712"><ele>16.0</ele><time>2026-04-04T15:04:47.187Z</time></trkpt><trkpt lat="39.9648079" lon="18.4041395"><ele>15.75</ele><time>2026-04-04T15:04:48.187Z</time></trkpt><trkpt lat="39.9646805" lon="18.4041151"><ele>15.5</ele><time>2026-04-04T15:04:49.186Z</time></trkpt><trkpt lat="39.9645519" lon="18.4040949"><ele>15.25</ele><time>2026-04-04T15:04:50.186Z</time></trkpt><trkpt lat="39.9644227" lon="18.4040703"><ele>15.0</ele><time>2026-04-04T15:04:51.186Z</time></trkpt><trkpt lat="39.9642931" lon="18.4040357"><ele>14.25</ele><time>2026-04-04T15:04:52.186Z</time></trkpt><trkpt lat="39.9641624" lon="18.4039901"><ele>13.5</ele><time>2026-04-04T15:04:53.188Z</time></trkpt><trkpt lat="39.9640326" lon="18.4039191"><ele>12.75</ele><time>2026-04-04T15:04:54.186Z</time></trkpt><trkpt lat="39.9639117" lon="18.4038435"><ele>12.0</ele><time>2026-04-04T15:04:55.187Z</time></trkpt><trkpt lat="39.9637956" lon="18.4037678"><ele>12.75</ele><time>2026-04-04T15:04:56.186Z</time></trkpt><trkpt lat="39.9636831" lon="18.403694"><ele>13.5</ele><time>2026-04-04T15:04:57.188Z</time></trkpt><trkpt lat="39.9635626" lon="18.4036219"><ele>14.25</ele><time>2026-04-04T15:04:58.187Z</time></trkpt><trkpt lat="39.9634403" lon="18.403544"><ele>15.0</ele><time>2026-04-04T15:04:59.186Z</time></trkpt><trkpt lat="39.9633102" lon="18.4034581"><ele>15.0</ele><time>2026-04-04T15:05:00.185Z</time></trkpt><trkpt lat="39.9631686" lon="18.4033775"><ele>15.0</ele><time>2026-04-04T15:05:01.185Z</time></trkpt><trkpt lat="39.9630165" lon="18.4032987"><ele>15.0</ele><time>2026-04-04T15:05:02.188Z</time></trkpt><trkpt lat="39.9628572" lon="18.4032229"><ele>15.0</ele><time>2026-04-04T15:05:03.188Z</time></trkpt><trkpt lat="39.9626998" lon="18.4031478"><ele>15.0</ele><time>2026-04-04T15:05:04.187Z</time></trkpt><trkpt lat="39.9625465" lon="18.4030658"><ele>15.0</ele><time>2026-04-04T15:05:05.186Z</time></trkpt><trkpt lat="39.9623916" lon="18.402976"><ele>17.666666666666668</ele><time>2026-04-04T15:05:06.187Z</time></trkpt><trkpt lat="39.9622373" lon="18.4028749"><ele>20.333333333333336</ele><time>2026-04-04T15:05:07.187Z</time></trkpt><trkpt lat="39.9620834" lon="18.4027686"><ele>23.0</ele><time>2026-04-04T15:05:08.186Z</time></trkpt><trkpt lat="39.9619291" lon="18.4026541"><ele>23.0</ele><time>2026-04-04T15:05:09.186Z</time></trkpt><trkpt lat="39.9617603" lon="18.4025621"><ele>23.0</ele><time>2026-04-04T15:05:10.187Z</time></trkpt><trkpt lat="39.9615757" lon="18.4025112"><ele>23.0</ele><time>2026-04-04T15:05:11.185Z</time></trkpt><trkpt lat="39.9613816" lon="18.4024977"><ele>21.666666666666668</ele><time>2026-04-04T15:05:12.185Z</time></trkpt><trkpt lat="39.961182" lon="18.4025167"><ele>20.333333333333332</ele><time>2026-04-04T15:05:13.186Z</time></trkpt><trkpt lat="39.9609808" lon="18.4025541"><ele>19.0</ele><time>2026-04-04T15:05:14.186Z</time></trkpt><trkpt lat="39.9607802" lon="18.4025871"><ele>19.0</ele><time>2026-04-04T15:05:15.186Z</time></trkpt><trkpt lat="39.9605742" lon="18.4025713"><ele>19.0</ele><time>2026-04-04T15:05:16.186Z</time></trkpt><trkpt lat="39.9603707" lon="18.4025374"><ele>19.0</ele><time>2026-04-04T15:05:17.186Z</time></trkpt><trkpt lat="39.9601652" lon="18.4025021"><ele>19.0</ele><time>2026-04-04T15:05:18.187Z</time></trkpt><trkpt lat="39.9599608" lon="18.402467"><ele>19.0</ele><time>2026-04-04T15:05:19.186Z</time></trkpt><trkpt lat="39.9597534" lon="18.4024274"><ele>19.0</ele><time>2026-04-04T15:05:20.187Z</time></trkpt><trkpt lat="39.9595451" lon="18.4023934"><ele>19.0</ele><time>2026-04-04T15:05:21.185Z</time></trkpt><trkpt lat="39.9593406" lon="18.4023608"><ele>19.0</ele><time>2026-04-04T15:05:22.186Z</time></trkpt><trkpt lat="39.9591344" lon="18.402326"><ele>19.0</ele><time>2026-04-04T15:05:23.186Z</time></trkpt><trkpt lat="39.9589315" lon="18.4022796"><ele>18.666666666666664</ele><time>2026-04-04T15:05:24.188Z</time></trkpt><trkpt lat="39.9587326" lon="18.4022451"><ele>18.333333333333332</ele><time>2026-04-04T15:05:25.188Z</time></trkpt><trkpt lat="39.9585384" lon="18.4022485"><ele>18.0</ele><time>2026-04-04T15:05:26.186Z</time></trkpt><trkpt lat="39.9583431" lon="18.4022935"><ele>18.0</ele><time>2026-04-04T15:05:27.186Z</time></trkpt><trkpt lat="39.9581467" lon="18.4023645"><ele>18.0</ele><time>2026-04-04T15:05:28.186Z</time></trkpt><trkpt lat="39.9579437" lon="18.4024293"><ele>18.0</ele><time>2026-04-04T15:05:29.187Z</time></trkpt><trkpt lat="39.9577426" lon="18.4025022"><ele>18.0</ele><time>2026-04-04T15:05:30.186Z</time></trkpt><trkpt lat="39.9575416" lon="18.4025603"><ele>18.0</ele><time>2026-04-04T15:05:31.186Z</time></trkpt><trkpt lat="39.9573333" lon="18.402611"><ele>18.0</ele><time>2026-04-04T15:05:32.187Z</time></trkpt><trkpt lat="39.957121" lon="18.4026378"><ele>18.333333333333332</ele><time>2026-04-04T15:05:33.186Z</time></trkpt><trkpt lat="39.9569067" lon="18.4026479"><ele>18.666666666666664</ele><time>2026-04-04T15:05:34.186Z</time></trkpt><trkpt lat="39.9566961" lon="18.4026554"><ele>19.0</ele><time>2026-04-04T15:05:35.188Z</time></trkpt><trkpt lat="39.9564916" lon="18.4026565"><ele>19.666666666666664</ele><time>2026-04-04T15:05:36.187Z</time></trkpt><trkpt lat="39.9562949" lon="18.4026387"><ele>20.333333333333332</ele><time>2026-04-04T15:05:37.185Z</time></trkpt><trkpt lat="39.9561195" lon="18.4025495"><ele>21.0</ele><time>2026-04-04T15:05:38.185Z</time></trkpt><trkpt lat="39.9559508" lon="18.4024476"><ele>19.666666666666668</ele><time>2026-04-04T15:05:39.186Z</time></trkpt><trkpt lat="39.9557807" lon="18.4023526"><ele>18.333333333333336</ele><time>2026-04-04T15:05:40.186Z</time></trkpt><trkpt lat="39.9555917" lon="18.4022869"><ele>17.0</ele><time>2026-04-04T15:05:41.186Z</time></trkpt><trkpt lat="39.9553961" lon="18.4022459"><ele>17.0</ele><time>2026-04-04T15:05:42.186Z</time></trkpt><trkpt lat="39.9551983" lon="18.402244"><ele>17.0</ele><time>2026-04-04T15:05:43.187Z</time></trkpt><trkpt lat="39.9550025" lon="18.4022689"><ele>17.0</ele><time>2026-04-04T15:05:44.187Z</time></trkpt><trkpt lat="39.954815" lon="18.4022853"><ele>15.0</ele><time>2026-04-04T15:05:45.187Z</time></trkpt><trkpt lat="39.9546211" lon="18.4022752"><ele>13.0</ele><time>2026-04-04T15:05:46.185Z</time></trkpt><trkpt lat="39.9544261" lon="18.4022295"><ele>11.0</ele><time>2026-04-04T15:05:47.188Z</time></trkpt><trkpt lat="39.9542319" lon="18.4021783"><ele>15.333333333333332</ele><time>2026-04-04T15:05:48.186Z</time></trkpt><trkpt lat="39.954032" lon="18.4021283"><ele>19.666666666666668</ele><time>2026-04-04T15:05:49.186Z</time></trkpt><trkpt lat="39.9538242" lon="18.4020938"><ele>24.0</ele><time>2026-04-04T15:05:50.186Z</time></trkpt><trkpt lat="39.9536159" lon="18.4020863"><ele>24.0</ele><time>2026-04-04T15:05:51.185Z</time></trkpt><trkpt lat="39.953406" lon="18.4020867"><ele>24.0</ele><time>2026-04-04T15:05:52.187Z</time></trkpt><trkpt lat="39.9531935" lon="18.4020718"><ele>24.0</ele><time>2026-04-04T15:05:53.186Z</time></trkpt><trkpt lat="39.9529805" lon="18.4020443"><ele>23.0</ele><time>2026-04-04T15:05:54.186Z</time></trkpt><trkpt lat="39.9527677" lon="18.4020009"><ele>22.0</ele><time>2026-04-04T15:05:55.186Z</time></trkpt><trkpt lat="39.9525506" lon="18.4019458"><ele>21.0</ele><time>2026-04-04T15:05:56.186Z</time></trkpt><trkpt lat="39.9523315" lon="18.4018921"><ele>20.333333333333332</ele><time>2026-04-04T15:05:57.188Z</time></trkpt><trkpt lat="39.9521127" lon="18.4018374"><ele>19.666666666666664</ele><time>2026-04-04T15:05:58.186Z</time></trkpt><trkpt lat="39.9518938" lon="18.4017814"><ele>19.0</ele><time>2026-04-04T15:05:59.186Z</time></trkpt><trkpt lat="39.9516745" lon="18.4017309"><ele>16.0</ele><time>2026-04-04T15:06:00.186Z</time></trkpt><trkpt lat="39.9514528" lon="18.4016767"><ele>13.0</ele><time>2026-04-04T15:06:01.185Z</time></trkpt><trkpt lat="39.9512322" lon="18.4016178"><ele>13.0</ele><time>2026-04-04T15:06:02.188Z</time></trkpt><trkpt lat="39.9510086" lon="18.4015646"><ele>13.0</ele><time>2026-04-04T15:06:03.187Z</time></trkpt><trkpt lat="39.9507865" lon="18.4015128"><ele>12.5</ele><time>2026-04-04T15:06:04.185Z</time></trkpt><trkpt lat="39.9505643" lon="18.4014607"><ele>12.0</ele><time>2026-04-04T15:06:05.185Z</time></trkpt><trkpt lat="39.950341" lon="18.4014102"><ele>12.0</ele><time>2026-04-04T15:06:06.188Z</time></trkpt><trkpt lat="39.9501201" lon="18.401362"><ele>12.0</ele><time>2026-04-04T15:06:07.188Z</time></trkpt><trkpt lat="39.9498966" lon="18.4013163"><ele>18.5</ele><time>2026-04-04T15:06:08.188Z</time></trkpt><trkpt lat="39.9496738" lon="18.4012694"><ele>25.0</ele><time>2026-04-04T15:06:09.186Z</time></trkpt><trkpt lat="39.9494529" lon="18.4012101"><ele>25.0</ele><time>2026-04-04T15:06:10.188Z</time></trkpt><trkpt lat="39.9492372" lon="18.4011368"><ele>25.0</ele><time>2026-04-04T15:06:11.186Z</time></trkpt><trkpt lat="39.9490347" lon="18.4010633"><ele>25.0</ele><time>2026-04-04T15:06:12.187Z</time></trkpt><trkpt lat="39.948837" lon="18.4009807"><ele>23.666666666666668</ele><time>2026-04-04T15:06:13.187Z</time></trkpt><trkpt lat="39.94865" lon="18.4009037"><ele>22.333333333333336</ele><time>2026-04-04T15:06:14.186Z</time></trkpt><trkpt lat="39.9484623" lon="18.4008286"><ele>21.0</ele><time>2026-04-04T15:06:15.188Z</time></trkpt><trkpt lat="39.9482623" lon="18.4007875"><ele>19.0</ele><time>2026-04-04T15:06:16.186Z</time></trkpt><trkpt lat="39.9480498" lon="18.4007681"><ele>17.0</ele><time>2026-04-04T15:06:17.185Z</time></trkpt><trkpt lat="39.9478321" lon="18.4007468"><ele>15.0</ele><time>2026-04-04T15:06:18.188Z</time></trkpt><trkpt lat="39.9476084" lon="18.4007255"><ele>12.5</ele><time>2026-04-04T15:06:19.187Z</time></trkpt><trkpt lat="39.9473832" lon="18.4007081"><ele>10.0</ele><time>2026-04-04T15:06:20.186Z</time></trkpt><trkpt lat="39.9471535" lon="18.4006872"><ele>10.0</ele><time>2026-04-04T15:06:21.188Z</time></trkpt><trkpt lat="39.9469262" lon="18.4006731"><ele>10.0</ele><time>2026-04-04T15:06:22.186Z</time></trkpt><trkpt lat="39.9466967" lon="18.4006662"><ele>8.0</ele><time>2026-04-04T15:06:23.186Z</time></trkpt><trkpt lat="39.9464682" lon="18.4006882"><ele>6.0</ele><time>2026-04-04T15:06:24.187Z</time></trkpt><trkpt lat="39.9462474" lon="18.4007204"><ele>6.0</ele><time>2026-04-04T15:06:25.186Z</time></trkpt><trkpt lat="39.9460311" lon="18.4007516"><ele>6.0</ele><time>2026-04-04T15:06:26.187Z</time></trkpt><trkpt lat="39.9458131" lon="18.4007729"><ele>6.0</ele><time>2026-04-04T15:06:27.188Z</time></trkpt><trkpt lat="39.9455919" lon="18.4007601"><ele>6.0</ele><time>2026-04-04T15:06:28.186Z</time></trkpt><trkpt lat="39.9453671" lon="18.4007546"><ele>6.0</ele><time>2026-04-04T15:06:29.187Z</time></trkpt><trkpt lat="39.9451461" lon="18.4007311"><ele>6.0</ele><time>2026-04-04T15:06:30.186Z</time></trkpt><trkpt lat="39.9449399" lon="18.4006723"><ele>6.0</ele><time>2026-04-04T15:06:31.186Z</time></trkpt><trkpt lat="39.9447312" lon="18.4005921"><ele>6.0</ele><time>2026-04-04T15:06:32.188Z</time></trkpt><trkpt lat="39.9445308" lon="18.4005121"><ele>6.0</ele><time>2026-04-04T15:06:33.185Z</time></trkpt><trkpt lat="39.944336" lon="18.4004265"><ele>9.666666666666668</ele><time>2026-04-04T15:06:34.186Z</time></trkpt><trkpt lat="39.9441455" lon="18.4003265"><ele>13.333333333333334</ele><time>2026-04-04T15:06:35.188Z</time></trkpt><trkpt lat="39.9439614" lon="18.4001998"><ele>17.0</ele><time>2026-04-04T15:06:36.187Z</time></trkpt><trkpt lat="39.9437784" lon="18.4000667"><ele>17.0</ele><time>2026-04-04T15:06:37.186Z</time></trkpt><trkpt lat="39.9435913" lon="18.399936"><ele>17.0</ele><time>2026-04-04T15:06:38.185Z</time></trkpt><trkpt lat="39.9433966" lon="18.3998119"><ele>17.0</ele><time>2026-04-04T15:06:39.187Z</time></trkpt><trkpt lat="39.9431929" lon="18.3997037"><ele>20.333333333333336</ele><time>2026-04-04T15:06:40.186Z</time></trkpt><trkpt lat="39.9429837" lon="18.3996077"><ele>23.666666666666668</ele><time>2026-04-04T15:06:41.185Z</time></trkpt><trkpt lat="39.9427713" lon="18.3995101"><ele>27.0</ele><time>2026-04-04T15:06:42.186Z</time></trkpt><trkpt lat="39.9425599" lon="18.3994092"><ele>23.0</ele><time>2026-04-04T15:06:43.187Z</time></trkpt><trkpt lat="39.9423439" lon="18.3993007"><ele>19.0</ele><time>2026-04-04T15:06:44.185Z</time></trkpt><trkpt lat="39.9421307" lon="18.399189"><ele>19.0</ele><time>2026-04-04T15:06:45.186Z</time></trkpt><trkpt lat="39.94192" lon="18.3990676"><ele>19.0</ele><time>2026-04-04T15:06:46.187Z</time></trkpt><trkpt lat="39.9417244" lon="18.3989552"><ele>19.0</ele><time>2026-04-04T15:06:47.186Z</time></trkpt><trkpt lat="39.941536" lon="18.3988498"><ele>21.0</ele><time>2026-04-04T15:06:48.186Z</time></trkpt><trkpt lat="39.9413458" lon="18.3987588"><ele>23.0</ele><time>2026-04-04T15:06:49.186Z</time></trkpt><trkpt lat="39.9411427" lon="18.3986952"><ele>25.0</ele><time>2026-04-04T15:06:50.187Z</time></trkpt><trkpt lat="39.9409341" lon="18.3986653"><ele>24.0</ele><time>2026-04-04T15:06:51.186Z</time></trkpt><trkpt lat="39.9407256" lon="18.3986394"><ele>23.0</ele><time>2026-04-04T15:06:52.188Z</time></trkpt><trkpt lat="39.9405165" lon="18.3986025"><ele>22.0</ele><time>2026-04-04T15:06:53.188Z</time></trkpt><trkpt lat="39.9403062" lon="18.3985533"><ele>22.0</ele><time>2026-04-04T15:06:54.187Z</time></trkpt><trkpt lat="39.9400922" lon="18.3984947"><ele>22.0</ele><time>2026-04-04T15:06:55.186Z</time></trkpt><trkpt lat="39.9398826" lon="18.3984236"><ele>22.0</ele><time>2026-04-04T15:06:56.188Z</time></trkpt><trkpt lat="39.9396733" lon="18.3983644"><ele>20.0</ele><time>2026-04-04T15:06:57.186Z</time></trkpt><trkpt lat="39.9394621" lon="18.3983122"><ele>18.0</ele><time>2026-04-04T15:06:58.187Z</time></trkpt><trkpt lat="39.9392487" lon="18.398264"><ele>16.0</ele><time>2026-04-04T15:06:59.187Z</time></trkpt><trkpt lat="39.9390311" lon="18.3982166"><ele>15.333333333333332</ele><time>2026-04-04T15:07:00.186Z</time></trkpt><trkpt lat="39.9388201" lon="18.3981742"><ele>14.666666666666668</ele><time>2026-04-04T15:07:01.185Z</time></trkpt><trkpt lat="39.9386105" lon="18.3981352"><ele>14.0</ele><time>2026-04-04T15:07:02.185Z</time></trkpt><trkpt lat="39.938395" lon="18.3981334"><ele>13.0</ele><time>2026-04-04T15:07:03.186Z</time></trkpt><trkpt lat="39.9381775" lon="18.3981431"><ele>12.0</ele><time>2026-04-04T15:07:04.186Z</time></trkpt><trkpt lat="39.937958" lon="18.3981669"><ele>11.0</ele><time>2026-04-04T15:07:05.185Z</time></trkpt><trkpt lat="39.9377399" lon="18.3981794"><ele>11.0</ele><time>2026-04-04T15:07:06.187Z</time></trkpt><trkpt lat="39.9375214" lon="18.3981724"><ele>11.0</ele><time>2026-04-04T15:07:07.188Z</time></trkpt><trkpt lat="39.937301" lon="18.3981468"><ele>11.0</ele><time>2026-04-04T15:07:08.188Z</time></trkpt><trkpt lat="39.9370765" lon="18.398116"><ele>11.0</ele><time>2026-04-04T15:07:09.187Z</time></trkpt><trkpt lat="39.9368467" lon="18.3980776"><ele>11.0</ele><time>2026-04-04T15:07:10.185Z</time></trkpt><trkpt lat="39.9366168" lon="18.3980419"><ele>10.0</ele><time>2026-04-04T15:07:11.186Z</time></trkpt><trkpt lat="39.9363887" lon="18.3980062"><ele>9.0</ele><time>2026-04-04T15:07:12.186Z</time></trkpt><trkpt lat="39.9361608" lon="18.3979732"><ele>13.333333333333332</ele><time>2026-04-04T15:07:13.187Z</time></trkpt><trkpt lat="39.9359381" lon="18.3979392"><ele>17.666666666666664</ele><time>2026-04-04T15:07:14.187Z</time></trkpt><trkpt lat="39.9357371" lon="18.3979076"><ele>22.0</ele><time>2026-04-04T15:07:15.186Z</time></trkpt><trkpt lat="39.9355575" lon="18.3978871"><ele>22.0</ele><time>2026-04-04T15:07:16.186Z</time></trkpt><trkpt lat="39.9353802" lon="18.3978705"><ele>22.0</ele><time>2026-04-04T15:07:17.186Z</time></trkpt><trkpt lat="39.9352018" lon="18.3978434"><ele>22.0</ele><time>2026-04-04T15:07:18.188Z</time></trkpt><trkpt lat="39.935029" lon="18.3978192"><ele>20.666666666666664</ele><time>2026-04-04T15:07:19.185Z</time></trkpt><trkpt lat="39.9348588" lon="18.3978004"><ele>19.333333333333332</ele><time>2026-04-04T15:07:20.186Z</time></trkpt><trkpt lat="39.9347216" lon="18.3977916"><ele>18.0</ele><time>2026-04-04T15:07:21.185Z</time></trkpt><trkpt lat="39.9345818" lon="18.3977604"><ele>18.0</ele><time>2026-04-04T15:07:22.187Z</time></trkpt><trkpt lat="39.9344729" lon="18.3977261"><ele>18.0</ele><time>2026-04-04T15:07:23.187Z</time></trkpt><trkpt lat="39.9343704" lon="18.3976506"><ele>18.0</ele><time>2026-04-04T15:07:24.186Z</time></trkpt><trkpt lat="39.9342845" lon="18.3975431"><ele>18.0</ele><time>2026-04-04T15:07:25.187Z</time></trkpt><trkpt lat="39.9342042" lon="18.3974127"><ele>16.75</ele><time>2026-04-04T15:07:26.187Z</time></trkpt><trkpt lat="39.9341233" lon="18.3972771"><ele>15.5</ele><time>2026-04-04T15:07:27.186Z</time></trkpt><trkpt lat="39.9340517" lon="18.3971433"><ele>14.25</ele><time>2026-04-04T15:07:28.186Z</time></trkpt><trkpt lat="39.9340052" lon="18.3970121"><ele>13.0</ele><time>2026-04-04T15:07:29.186Z</time></trkpt><trkpt lat="39.9339884" lon="18.3968912"><ele>13.0</ele><time>2026-04-04T15:07:30.187Z</time></trkpt><trkpt lat="39.9340187" lon="18.3967882"><ele>13.0</ele><time>2026-04-04T15:07:31.186Z</time></trkpt><trkpt lat="39.9340635" lon="18.3966945"><ele>13.0</ele><time>2026-04-04T15:07:32.186Z</time></trkpt><trkpt lat="39.9341693" lon="18.3966437"><ele>13.0</ele><time>2026-04-04T15:07:33.186Z</time></trkpt><trkpt lat="39.9342644" lon="18.3965802"><ele>13.0</ele><time>2026-04-04T15:07:34.187Z</time></trkpt><trkpt lat="39.9343699" lon="18.3965178"><ele>14.600000000000001</ele><time>2026-04-04T15:07:35.185Z</time></trkpt><trkpt lat="39.9344571" lon="18.3964361"><ele>16.200000000000003</ele><time>2026-04-04T15:07:36.186Z</time></trkpt><trkpt lat="39.9345071" lon="18.3963105"><ele>17.8</ele><time>2026-04-04T15:07:37.185Z</time></trkpt><trkpt lat="39.9345421" lon="18.3961846"><ele>19.400000000000002</ele><time>2026-04-04T15:07:38.187Z</time></trkpt><trkpt lat="39.9345408" lon="18.3960634"><ele>21.0</ele><time>2026-04-04T15:07:39.186Z</time></trkpt><trkpt lat="39.9345045" lon="18.3959558"><ele>21.0</ele><time>2026-04-04T15:07:40.187Z</time></trkpt><trkpt lat="39.9344494" lon="18.3958497"><ele>21.0</ele><time>2026-04-04T15:07:41.188Z</time></trkpt><trkpt lat="39.9343732" lon="18.3957717"><ele>21.0</ele><time>2026-04-04T15:07:42.187Z</time></trkpt><trkpt lat="39.9342875" lon="18.3957096"><ele>21.0</ele><time>2026-04-04T15:07:43.186Z</time></trkpt><trkpt lat="39.9341821" lon="18.3957026"><ele>21.0</ele><time>2026-04-04T15:07:44.187Z</time></trkpt><trkpt lat="39.9340865" lon="18.3956891"><ele>19.0</ele><time>2026-04-04T15:07:45.187Z</time></trkpt><trkpt lat="39.9339984" lon="18.3956675"><ele>17.0</ele><time>2026-04-04T15:07:46.186Z</time></trkpt><trkpt lat="39.9339206" lon="18.3956479"><ele>15.0</ele><time>2026-04-04T15:07:47.185Z</time></trkpt><trkpt lat="39.9338549" lon="18.3956276"><ele>13.0</ele><time>2026-04-04T15:07:48.187Z</time></trkpt><trkpt lat="39.9337511" lon="18.3956014"><ele>11.0</ele><time>2026-04-04T15:07:50.187Z</time></trkpt><trkpt lat="39.9336601" lon="18.3955828"><ele>9.0</ele><time>2026-04-04T15:07:52.185Z</time></trkpt><trkpt lat="39.9335615" lon="18.3955687"><ele>9.0</ele><time>2026-04-04T15:07:54.187Z</time></trkpt><trkpt lat="39.9334687" lon="18.3955586"><ele>9.0</ele><time>2026-04-04T15:07:56.187Z</time></trkpt><trkpt lat="39.9333715" lon="18.3955391"><ele>9.0</ele><time>2026-04-04T15:07:58.187Z</time></trkpt><trkpt lat="39.933285" lon="18.3955236"><ele>9.0</ele><time>2026-04-04T15:08:00.188Z</time></trkpt><trkpt lat="39.9332045" lon="18.3955143"><ele>9.0</ele><time>2026-04-04T15:08:02.186Z</time></trkpt><trkpt lat="39.9331336" lon="18.3955005"><ele>9.0</ele><time>2026-04-04T15:08:04.185Z</time></trkpt><trkpt lat="39.9330578" lon="18.3954829"><ele>9.5</ele><time>2026-04-04T15:08:07.187Z</time></trkpt><trkpt lat="39.9329918" lon="18.3954721"><ele>10.0</ele><time>2026-04-04T15:08:09.187Z</time></trkpt><trkpt lat="39.9329196" lon="18.3954179"><ele>10.5</ele><time>2026-04-04T15:08:12.186Z</time></trkpt><trkpt lat="39.9328796" lon="18.3953142"><ele>11.0</ele><time>2026-04-04T15:08:14.186Z</time></trkpt><trkpt lat="39.9328401" lon="18.3952472"><ele>11.5</ele><time>2026-04-04T15:08:15.186Z</time></trkpt><trkpt lat="39.93278" lon="18.3951201"><ele>12.0</ele><time>2026-04-04T15:08:17.186Z</time></trkpt><trkpt lat="39.9327306" lon="18.3950193"><ele>12.0</ele><time>2026-04-04T15:08:19.187Z</time></trkpt><trkpt lat="39.9326909" lon="18.3949073"><ele>12.0</ele><time>2026-04-04T15:08:21.185Z</time></trkpt><trkpt lat="39.9326366" lon="18.3947984"><ele>12.0</ele><time>2026-04-04T15:08:23.186Z</time></trkpt><trkpt lat="39.9325628" lon="18.3946667"><ele>12.0</ele><time>2026-04-04T15:08:25.186Z</time></trkpt><trkpt lat="39.9325149" lon="18.3945688"><ele>12.0</ele><time>2026-04-04T15:08:26.186Z</time></trkpt><trkpt lat="39.9324632" lon="18.394466"><ele>14.0</ele><time>2026-04-04T15:08:27.186Z</time></trkpt><trkpt lat="39.9323965" lon="18.3943567"><ele>16.0</ele><time>2026-04-04T15:08:28.186Z</time></trkpt><trkpt lat="39.9323213" lon="18.3942532"><ele>18.0</ele><time>2026-04-04T15:08:29.185Z</time></trkpt><trkpt lat="39.9322465" lon="18.3941485"><ele>20.0</ele><time>2026-04-04T15:08:30.188Z</time></trkpt><trkpt lat="39.9321728" lon="18.3940366"><ele>22.0</ele><time>2026-04-04T15:08:31.186Z</time></trkpt><trkpt lat="39.9321029" lon="18.3939308"><ele>23.6</ele><time>2026-04-04T15:08:32.186Z</time></trkpt><trkpt lat="39.9320436" lon="18.3938266"><ele>25.200000000000003</ele><time>2026-04-04T15:08:33.185Z</time></trkpt><trkpt lat="39.9319872" lon="18.3937154"><ele>26.8</ele><time>2026-04-04T15:08:34.187Z</time></trkpt><trkpt lat="39.9319538" lon="18.3935843"><ele>28.4</ele><time>2026-04-04T15:08:35.188Z</time></trkpt><trkpt lat="39.9319268" lon="18.393461"><ele>30.0</ele><time>2026-04-04T15:08:36.187Z</time></trkpt><trkpt lat="39.9319149" lon="18.3933418"><ele>30.0</ele><time>2026-04-04T15:08:37.185Z</time></trkpt><trkpt lat="39.9318943" lon="18.3932286"><ele>30.0</ele><time>2026-04-04T15:08:38.186Z</time></trkpt><trkpt lat="39.9318681" lon="18.3931181"><ele>30.0</ele><time>2026-04-04T15:08:39.187Z</time></trkpt><trkpt lat="39.9318376" lon="18.3930015"><ele>30.0</ele><time>2026-04-04T15:08:40.186Z</time></trkpt><trkpt lat="39.9317906" lon="18.3928909"><ele>30.0</ele><time>2026-04-04T15:08:41.186Z</time></trkpt><trkpt lat="39.9317365" lon="18.3927946"><ele>31.8</ele><time>2026-04-04T15:08:42.186Z</time></trkpt><trkpt lat="39.9316762" lon="18.3926998"><ele>33.6</ele><time>2026-04-04T15:08:43.185Z</time></trkpt><trkpt lat="39.9315858" lon="18.3926277"><ele>35.4</ele><time>2026-04-04T15:08:44.186Z</time></trkpt><trkpt lat="39.9314996" lon="18.3925654"><ele>37.2</ele><time>2026-04-04T15:08:45.186Z</time></trkpt><trkpt lat="39.931413" lon="18.3925126"><ele>39.0</ele><time>2026-04-04T15:08:46.187Z</time></trkpt><trkpt lat="39.9313326" lon="18.3924697"><ele>39.0</ele><time>2026-04-04T15:08:47.185Z</time></trkpt><trkpt lat="39.9312498" lon="18.3924146"><ele>39.0</ele><time>2026-04-04T15:08:48.185Z</time></trkpt><trkpt lat="39.9311643" lon="18.3923542"><ele>39.0</ele><time>2026-04-04T15:08:49.188Z</time></trkpt><trkpt lat="39.9310775" lon="18.3922966"><ele>39.0</ele><time>2026-04-04T15:08:50.186Z</time></trkpt><trkpt lat="39.9309869" lon="18.3922299"><ele>39.0</ele><time>2026-04-04T15:08:51.188Z</time></trkpt><trkpt lat="39.9309023" lon="18.3921655"><ele>41.5</ele><time>2026-04-04T15:08:52.185Z</time></trkpt><trkpt lat="39.9308208" lon="18.3921061"><ele>44.0</ele><time>2026-04-04T15:08:53.187Z</time></trkpt><trkpt lat="39.9307423" lon="18.3920537"><ele>46.5</ele><time>2026-04-04T15:08:54.185Z</time></trkpt><trkpt lat="39.9306676" lon="18.3920009"><ele>49.0</ele><time>2026-04-04T15:08:55.187Z</time></trkpt><trkpt lat="39.9305992" lon="18.391956"><ele>51.5</ele><time>2026-04-04T15:08:56.187Z</time></trkpt><trkpt lat="39.9305345" lon="18.3919156"><ele>54.0</ele><time>2026-04-04T15:08:57.188Z</time></trkpt><trkpt lat="39.9304728" lon="18.391878"><ele>54.0</ele><time>2026-04-04T15:08:58.186Z</time></trkpt><trkpt lat="39.9304083" lon="18.3918463"><ele>54.0</ele><time>2026-04-04T15:08:59.188Z</time></trkpt><trkpt lat="39.9303431" lon="18.3918229"><ele>54.0</ele><time>2026-04-04T15:09:00.186Z</time></trkpt><trkpt lat="39.9302683" lon="18.3918033"><ele>54.0</ele><time>2026-04-04T15:09:01.186Z</time></trkpt><trkpt lat="39.9301781" lon="18.3917869"><ele>54.0</ele><time>2026-04-04T15:09:02.186Z</time></trkpt><trkpt lat="39.9300815" lon="18.3917702"><ele>54.0</ele><time>2026-04-04T15:09:03.185Z</time></trkpt><trkpt lat="39.9299811" lon="18.3917463"><ele>54.6</ele><time>2026-04-04T15:09:04.188Z</time></trkpt><trkpt lat="39.929879" lon="18.3917263"><ele>55.2</ele><time>2026-04-04T15:09:05.188Z</time></trkpt><trkpt lat="39.9297715" lon="18.3917092"><ele>55.800000000000004</ele><time>2026-04-04T15:09:06.187Z</time></trkpt><trkpt lat="39.9296648" lon="18.3917147"><ele>56.400000000000006</ele><time>2026-04-04T15:09:07.187Z</time></trkpt><trkpt lat="39.9295536" lon="18.3917246"><ele>57.0</ele><time>2026-04-04T15:09:08.187Z</time></trkpt><trkpt lat="39.9294572" lon="18.3917312"><ele>57.0</ele><time>2026-04-04T15:09:09.187Z</time></trkpt><trkpt lat="39.9293682" lon="18.3917182"><ele>57.0</ele><time>2026-04-04T15:09:10.187Z</time></trkpt><trkpt lat="39.9292937" lon="18.3916511"><ele>57.0</ele><time>2026-04-04T15:09:11.186Z</time></trkpt><trkpt lat="39.9292146" lon="18.3915756"><ele>57.0</ele><time>2026-04-04T15:09:12.186Z</time></trkpt><trkpt lat="39.9291345" lon="18.391495"><ele>57.0</ele><time>2026-04-04T15:09:13.187Z</time></trkpt><trkpt lat="39.9290611" lon="18.391417"><ele>59.666666666666664</ele><time>2026-04-04T15:09:14.186Z</time></trkpt><trkpt lat="39.9289925" lon="18.3913343"><ele>62.33333333333333</ele><time>2026-04-04T15:09:15.187Z</time></trkpt><trkpt lat="39.9289283" lon="18.3912588"><ele>65.0</ele><time>2026-04-04T15:09:16.187Z</time></trkpt><trkpt lat="39.9288634" lon="18.3911931"><ele>67.66666666666666</ele><time>2026-04-04T15:09:17.186Z</time></trkpt><trkpt lat="39.9287963" lon="18.3911369"><ele>70.33333333333333</ele><time>2026-04-04T15:09:18.185Z</time></trkpt><trkpt lat="39.9287324" lon="18.3911011"><ele>73.0</ele><time>2026-04-04T15:09:19.187Z</time></trkpt><trkpt lat="39.9286481" lon="18.3911118"><ele>73.0</ele><time>2026-04-04T15:09:20.187Z</time></trkpt><trkpt lat="39.9285594" lon="18.3911249"><ele>73.0</ele><time>2026-04-04T15:09:21.187Z</time></trkpt><trkpt lat="39.928465" lon="18.3911333"><ele>73.0</ele><time>2026-04-04T15:09:22.186Z</time></trkpt><trkpt lat="39.9283739" lon="18.3911414"><ele>73.0</ele><time>2026-04-04T15:09:23.186Z</time></trkpt><trkpt lat="39.9282743" lon="18.3911418"><ele>73.0</ele><time>2026-04-04T15:09:24.188Z</time></trkpt><trkpt lat="39.9281684" lon="18.3911444"><ele>72.6</ele><time>2026-04-04T15:09:25.186Z</time></trkpt><trkpt lat="39.9280677" lon="18.39114"><ele>72.19999999999999</ele><time>2026-04-04T15:09:26.186Z</time></trkpt><trkpt lat="39.9279652" lon="18.3911382"><ele>71.8</ele><time>2026-04-04T15:09:27.187Z</time></trkpt><trkpt lat="39.9278581" lon="18.3911287"><ele>71.39999999999999</ele><time>2026-04-04T15:09:28.187Z</time></trkpt><trkpt lat="39.9277519" lon="18.3911"><ele>71.0</ele><time>2026-04-04T15:09:29.186Z</time></trkpt><trkpt lat="39.9276477" lon="18.3910831"><ele>71.6</ele><time>2026-04-04T15:09:30.185Z</time></trkpt><trkpt lat="39.9275454" lon="18.3910617"><ele>72.19999999999999</ele><time>2026-04-04T15:09:31.186Z</time></trkpt><trkpt lat="39.9274409" lon="18.3910334"><ele>72.80000000000001</ele><time>2026-04-04T15:09:32.188Z</time></trkpt><trkpt lat="39.9273386" lon="18.3910084"><ele>73.4</ele><time>2026-04-04T15:09:33.186Z</time></trkpt><trkpt lat="39.9272402" lon="18.3909807"><ele>74.0</ele><time>2026-04-04T15:09:34.187Z</time></trkpt><trkpt lat="39.9271352" lon="18.3909473"><ele>74.0</ele><time>2026-04-04T15:09:35.186Z</time></trkpt><trkpt lat="39.9270278" lon="18.3909236"><ele>74.0</ele><time>2026-04-04T15:09:36.187Z</time></trkpt><trkpt lat="39.9269159" lon="18.3909027"><ele>74.0</ele><time>2026-04-04T15:09:37.187Z</time></trkpt><trkpt lat="39.9268075" lon="18.3908927"><ele>74.0</ele><time>2026-04-04T15:09:38.186Z</time></trkpt><trkpt lat="39.9266938" lon="18.3908758"><ele>74.0</ele><time>2026-04-04T15:09:39.186Z</time></trkpt><trkpt lat="39.9265794" lon="18.3908542"><ele>74.2</ele><time>2026-04-04T15:09:40.185Z</time></trkpt><trkpt lat="39.9264695" lon="18.3908342"><ele>74.4</ele><time>2026-04-04T15:09:41.188Z</time></trkpt><trkpt lat="39.9263622" lon="18.390806"><ele>74.6</ele><time>2026-04-04T15:09:42.187Z</time></trkpt><trkpt lat="39.9262586" lon="18.3907553"><ele>74.8</ele><time>2026-04-04T15:09:43.187Z</time></trkpt><trkpt lat="39.926161" lon="18.3907154"><ele>75.0</ele><time>2026-04-04T15:09:44.186Z</time></trkpt><trkpt lat="39.9260558" lon="18.3906608"><ele>75.0</ele><time>2026-04-04T15:09:45.186Z</time></trkpt><trkpt lat="39.9259479" lon="18.3906113"><ele>75.0</ele><time>2026-04-04T15:09:46.188Z</time></trkpt><trkpt lat="39.9258484" lon="18.3905551"><ele>75.0</ele><time>2026-04-04T15:09:47.185Z</time></trkpt><trkpt lat="39.9257561" lon="18.3904825"><ele>75.0</ele><time>2026-04-04T15:09:48.186Z</time></trkpt><trkpt lat="39.9256719" lon="18.3904091"><ele>75.0</ele><time>2026-04-04T15:09:49.186Z</time></trkpt><trkpt lat="39.9255991" lon="18.3903408"><ele>75.85714285714285</ele><time>2026-04-04T15:09:50.186Z</time></trkpt><trkpt lat="39.9255349" lon="18.3902665"><ele>76.71428571428571</ele><time>2026-04-04T15:09:51.186Z</time></trkpt><trkpt lat="39.9254839" lon="18.3902105"><ele>77.57142857142857</ele><time>2026-04-04T15:09:52.186Z</time></trkpt><trkpt lat="39.9254286" lon="18.3901448"><ele>78.42857142857142</ele><time>2026-04-04T15:09:53.188Z</time></trkpt><trkpt lat="39.9253909" lon="18.3900722"><ele>79.28571428571428</ele><time>2026-04-04T15:09:54.187Z</time></trkpt><trkpt lat="39.9253574" lon="18.3899945"><ele>80.14285714285714</ele><time>2026-04-04T15:09:55.186Z</time></trkpt><trkpt lat="39.9253347" lon="18.389913"><ele>81.0</ele><time>2026-04-04T15:09:56.186Z</time></trkpt><trkpt lat="39.9253301" lon="18.3898296"><ele>81.0</ele><time>2026-04-04T15:09:57.186Z</time></trkpt><trkpt lat="39.9253443" lon="18.3897399"><ele>81.0</ele><time>2026-04-04T15:09:58.186Z</time></trkpt><trkpt lat="39.925361" lon="18.3896501"><ele>81.0</ele><time>2026-04-04T15:09:59.187Z</time></trkpt><trkpt lat="39.9253861" lon="18.3895573"><ele>81.0</ele><time>2026-04-04T15:10:00.187Z</time></trkpt><trkpt lat="39.9254193" lon="18.3894465"><ele>81.0</ele><time>2026-04-04T15:10:01.185Z</time></trkpt><trkpt lat="39.9254545" lon="18.3893403"><ele>81.0</ele><time>2026-04-04T15:10:02.187Z</time></trkpt><trkpt lat="39.9254987" lon="18.3892304"><ele>80.39999999999999</ele><time>2026-04-04T15:10:03.187Z</time></trkpt><trkpt lat="39.9255613" lon="18.3891329"><ele>79.8</ele><time>2026-04-04T15:10:04.186Z</time></trkpt><trkpt lat="39.9256349" lon="18.3890369"><ele>79.19999999999999</ele><time>2026-04-04T15:10:05.187Z</time></trkpt><trkpt lat="39.9257108" lon="18.3889364"><ele>78.6</ele><time>2026-04-04T15:10:06.188Z</time></trkpt><trkpt lat="39.9257873" lon="18.3888278"><ele>78.0</ele><time>2026-04-04T15:10:07.185Z</time></trkpt><trkpt lat="39.9258537" lon="18.3887119"><ele>79.0</ele><time>2026-04-04T15:10:08.186Z</time></trkpt><trkpt lat="39.9259108" lon="18.3885797"><ele>80.0</ele><time>2026-04-04T15:10:09.187Z</time></trkpt><trkpt lat="39.9259679" lon="18.3884425"><ele>81.0</ele><time>2026-04-04T15:10:10.188Z</time></trkpt><trkpt lat="39.926024" lon="18.3883044"><ele>82.0</ele><time>2026-04-04T15:10:11.187Z</time></trkpt><trkpt lat="39.9260741" lon="18.3881577"><ele>79.25</ele><time>2026-04-04T15:10:12.185Z</time></trkpt><trkpt lat="39.9261254" lon="18.3880088"><ele>76.5</ele><time>2026-04-04T15:10:13.185Z</time></trkpt><trkpt lat="39.9261783" lon="18.3878639"><ele>73.75</ele><time>2026-04-04T15:10:14.187Z</time></trkpt><trkpt lat="39.9262269" lon="18.3877137"><ele>71.0</ele><time>2026-04-04T15:10:15.186Z</time></trkpt><trkpt lat="39.9262747" lon="18.3875648"><ele>71.0</ele><time>2026-04-04T15:10:16.186Z</time></trkpt><trkpt lat="39.9263188" lon="18.3874102"><ele>71.0</ele><time>2026-04-04T15:10:17.186Z</time></trkpt><trkpt lat="39.9263446" lon="18.3872518"><ele>71.0</ele><time>2026-04-04T15:10:18.186Z</time></trkpt><trkpt lat="39.9263772" lon="18.3871014"><ele>71.0</ele><time>2026-04-04T15:10:19.186Z</time></trkpt><trkpt lat="39.9264056" lon="18.3869512"><ele>69.8</ele><time>2026-04-04T15:10:20.187Z</time></trkpt><trkpt lat="39.9264343" lon="18.3868108"><ele>68.6</ele><time>2026-04-04T15:10:21.186Z</time></trkpt><trkpt lat="39.9264619" lon="18.3866733"><ele>67.4</ele><time>2026-04-04T15:10:22.186Z</time></trkpt><trkpt lat="39.9264811" lon="18.3865407"><ele>66.2</ele><time>2026-04-04T15:10:23.187Z</time></trkpt><trkpt lat="39.9265008" lon="18.3864264"><ele>65.0</ele><time>2026-04-04T15:10:24.186Z</time></trkpt><trkpt lat="39.9265139" lon="18.3863396"><ele>65.0</ele><time>2026-04-04T15:10:25.187Z</time></trkpt><trkpt lat="39.9264843" lon="18.386234"><ele>65.0</ele><time>2026-04-04T15:10:27.187Z</time></trkpt><trkpt lat="39.9264159" lon="18.3862179"><ele>65.0</ele><time>2026-04-04T15:10:34.187Z</time></trkpt><trkpt lat="39.9263149" lon="18.38633"><ele>65.0</ele><time>2026-04-04T15:10:36.186Z</time></trkpt><trkpt lat="39.9262642" lon="18.3864224"><ele>65.0</ele><time>2026-04-04T15:10:37.185Z</time></trkpt><trkpt lat="39.9262052" lon="18.3865496"><ele>65.0</ele><time>2026-04-04T15:10:38.186Z</time></trkpt><trkpt lat="39.9261304" lon="18.3867104"><ele>65.0</ele><time>2026-04-04T15:10:39.186Z</time></trkpt><trkpt lat="39.9260343" lon="18.386892"><ele>65.0</ele><time>2026-04-04T15:10:40.185Z</time></trkpt><trkpt lat="39.9259143" lon="18.3870983"><ele>66.5</ele><time>2026-04-04T15:10:41.188Z</time></trkpt><trkpt lat="39.9257784" lon="18.3873167"><ele>68.0</ele><time>2026-04-04T15:10:42.186Z</time></trkpt><trkpt lat="39.9256042" lon="18.3875478"><ele>68.0</ele><time>2026-04-04T15:10:43.186Z</time></trkpt><trkpt lat="39.9254362" lon="18.3877706"><ele>68.0</ele><time>2026-04-04T15:10:44.185Z</time></trkpt><trkpt lat="39.9252714" lon="18.3879858"><ele>67.33333333333334</ele><time>2026-04-04T15:10:45.186Z</time></trkpt><trkpt lat="39.9251113" lon="18.3881953"><ele>66.66666666666667</ele><time>2026-04-04T15:10:46.188Z</time></trkpt><trkpt lat="39.924961" lon="18.3883935"><ele>66.0</ele><time>2026-04-04T15:10:47.187Z</time></trkpt><trkpt lat="39.9248138" lon="18.3885882"><ele>66.0</ele><time>2026-04-04T15:10:48.186Z</time></trkpt><trkpt lat="39.9246763" lon="18.3887852"><ele>66.0</ele><time>2026-04-04T15:10:49.186Z</time></trkpt><trkpt lat="39.924545" lon="18.3889643"><ele>66.0</ele><time>2026-04-04T15:10:50.187Z</time></trkpt><trkpt lat="39.9244098" lon="18.3891429"><ele>65.33333333333333</ele><time>2026-04-04T15:10:51.185Z</time></trkpt><trkpt lat="39.9242852" lon="18.3893196"><ele>64.66666666666666</ele><time>2026-04-04T15:10:52.187Z</time></trkpt><trkpt lat="39.9241689" lon="18.3894804"><ele>64.0</ele><time>2026-04-04T15:10:53.185Z</time></trkpt><trkpt lat="39.9240562" lon="18.38962"><ele>64.75</ele><time>2026-04-04T15:10:54.185Z</time></trkpt><trkpt lat="39.9239502" lon="18.3897499"><ele>65.5</ele><time>2026-04-04T15:10:55.185Z</time></trkpt><trkpt lat="39.923864" lon="18.3898688"><ele>66.25</ele><time>2026-04-04T15:10:56.188Z</time></trkpt><trkpt lat="39.9237908" lon="18.3899692"><ele>67.0</ele><time>2026-04-04T15:10:57.187Z</time></trkpt><trkpt lat="39.9237321" lon="18.390051"><ele>67.0</ele><time>2026-04-04T15:10:58.186Z</time></trkpt><trkpt lat="39.9236883" lon="18.390116"><ele>67.0</ele><time>2026-04-04T15:10:59.185Z</time></trkpt><trkpt lat="39.9236199" lon="18.3902185"><ele>67.0</ele><time>2026-04-04T15:11:01.186Z</time></trkpt><trkpt lat="39.923554" lon="18.3903062"><ele>67.0</ele><time>2026-04-04T15:11:03.186Z</time></trkpt><trkpt lat="39.923447" lon="18.3903551"><ele>67.0</ele><time>2026-04-04T15:11:05.185Z</time></trkpt><trkpt lat="39.9233798" lon="18.3903352"><ele>67.0</ele><time>2026-04-04T15:11:06.186Z</time></trkpt><trkpt lat="39.9232957" lon="18.3902788"><ele>66.25</ele><time>2026-04-04T15:11:07.187Z</time></trkpt><trkpt lat="39.9231988" lon="18.3901872"><ele>65.5</ele><time>2026-04-04T15:11:08.186Z</time></trkpt><trkpt lat="39.9230811" lon="18.3900621"><ele>64.75</ele><time>2026-04-04T15:11:09.185Z</time></trkpt><trkpt lat="39.9229461" lon="18.389936"><ele>64.0</ele><time>2026-04-04T15:11:10.187Z</time></trkpt><trkpt lat="39.922806" lon="18.389813"><ele>64.0</ele><time>2026-04-04T15:11:11.186Z</time></trkpt><trkpt lat="39.9226849" lon="18.3896867"><ele>64.0</ele><time>2026-04-04T15:11:12.187Z</time></trkpt><trkpt lat="39.9225847" lon="18.3895878"><ele>64.0</ele><time>2026-04-04T15:11:13.186Z</time></trkpt><trkpt lat="39.9224836" lon="18.3895239"><ele>64.0</ele><time>2026-04-04T15:11:14.186Z</time></trkpt><trkpt lat="39.9223692" lon="18.3895111"><ele>63.33333333333333</ele><time>2026-04-04T15:11:15.186Z</time></trkpt><trkpt lat="39.9222328" lon="18.3895521"><ele>62.66666666666667</ele><time>2026-04-04T15:11:16.186Z</time></trkpt><trkpt lat="39.9220768" lon="18.3896253"><ele>62.0</ele><time>2026-04-04T15:11:17.186Z</time></trkpt><trkpt lat="39.9218989" lon="18.3897128"><ele>61.66666666666667</ele><time>2026-04-04T15:11:18.186Z</time></trkpt><trkpt lat="39.9217068" lon="18.3898158"><ele>61.33333333333333</ele><time>2026-04-04T15:11:19.186Z</time></trkpt><trkpt lat="39.921509" lon="18.3899423"><ele>61.0</ele><time>2026-04-04T15:11:20.186Z</time></trkpt><trkpt lat="39.9213193" lon="18.3901045"><ele>61.0</ele><time>2026-04-04T15:11:21.186Z</time></trkpt><trkpt lat="39.9211338" lon="18.3902721"><ele>61.0</ele><time>2026-04-04T15:11:22.186Z</time></trkpt><trkpt lat="39.9209596" lon="18.3904565"><ele>61.5</ele><time>2026-04-04T15:11:23.186Z</time></trkpt><trkpt lat="39.920799" lon="18.3906675"><ele>62.0</ele><time>2026-04-04T15:11:24.188Z</time></trkpt><trkpt lat="39.920643" lon="18.3908769"><ele>62.0</ele><time>2026-04-04T15:11:25.187Z</time></trkpt><trkpt lat="39.9204992" lon="18.3910754"><ele>62.0</ele><time>2026-04-04T15:11:26.186Z</time></trkpt><trkpt lat="39.9203594" lon="18.3912492"><ele>62.0</ele><time>2026-04-04T15:11:27.186Z</time></trkpt><trkpt lat="39.920218" lon="18.3913722"><ele>61.0</ele><time>2026-04-04T15:11:28.186Z</time></trkpt><trkpt lat="39.9200616" lon="18.3914678"><ele>60.0</ele><time>2026-04-04T15:11:29.186Z</time></trkpt><trkpt lat="39.9198899" lon="18.3915611"><ele>59.0</ele><time>2026-04-04T15:11:30.187Z</time></trkpt><trkpt lat="39.919707" lon="18.3916639"><ele>59.0</ele><time>2026-04-04T15:11:31.186Z</time></trkpt><trkpt lat="39.9195166" lon="18.3917723"><ele>59.0</ele><time>2026-04-04T15:11:32.187Z</time></trkpt><trkpt lat="39.9193229" lon="18.3918857"><ele>59.0</ele><time>2026-04-04T15:11:33.185Z</time></trkpt><trkpt lat="39.9191325" lon="18.3920018"><ele>62.0</ele><time>2026-04-04T15:11:34.186Z</time></trkpt><trkpt lat="39.9189542" lon="18.3921065"><ele>65.0</ele><time>2026-04-04T15:11:35.187Z</time></trkpt><trkpt lat="39.9187759" lon="18.3922062"><ele>68.0</ele><time>2026-04-04T15:11:36.187Z</time></trkpt><trkpt lat="39.9186051" lon="18.3922774"><ele>63.333333333333336</ele><time>2026-04-04T15:11:37.188Z</time></trkpt><trkpt lat="39.9184259" lon="18.3923302"><ele>58.66666666666667</ele><time>2026-04-04T15:11:38.188Z</time></trkpt><trkpt lat="39.9182532" lon="18.3923105"><ele>54.0</ele><time>2026-04-04T15:11:39.185Z</time></trkpt><trkpt lat="39.918072" lon="18.3922856"><ele>54.0</ele><time>2026-04-04T15:11:40.186Z</time></trkpt><trkpt lat="39.9178875" lon="18.3922484"><ele>54.0</ele><time>2026-04-04T15:11:41.186Z</time></trkpt><trkpt lat="39.9176997" lon="18.3922176"><ele>54.0</ele><time>2026-04-04T15:11:42.187Z</time></trkpt><trkpt lat="39.9175126" lon="18.392177"><ele>60.66666666666667</ele><time>2026-04-04T15:11:43.188Z</time></trkpt><trkpt lat="39.9173345" lon="18.3921393"><ele>67.33333333333334</ele><time>2026-04-04T15:11:44.186Z</time></trkpt><trkpt lat="39.9171706" lon="18.3921017"><ele>74.0</ele><time>2026-04-04T15:11:45.187Z</time></trkpt><trkpt lat="39.9170185" lon="18.3920693"><ele>74.0</ele><time>2026-04-04T15:11:46.185Z</time></trkpt><trkpt lat="39.9168817" lon="18.392039"><ele>74.0</ele><time>2026-04-04T15:11:47.186Z</time></trkpt><trkpt lat="39.9167779" lon="18.392013"><ele>74.0</ele><time>2026-04-04T15:11:48.185Z</time></trkpt><trkpt lat="39.9166721" lon="18.3919865"><ele>74.0</ele><time>2026-04-04T15:11:49.186Z</time></trkpt><trkpt lat="39.9165735" lon="18.391955"><ele>74.0</ele><time>2026-04-04T15:11:50.186Z</time></trkpt><trkpt lat="39.916478" lon="18.391909"><ele>74.0</ele><time>2026-04-04T15:11:51.187Z</time></trkpt><trkpt lat="39.9163857" lon="18.3918434"><ele>74.0</ele><time>2026-04-04T15:11:52.186Z</time></trkpt><trkpt lat="39.916283" lon="18.3917619"><ele>74.0</ele><time>2026-04-04T15:11:53.185Z</time></trkpt><trkpt lat="39.9161646" lon="18.3916669"><ele>74.0</ele><time>2026-04-04T15:11:54.185Z</time></trkpt><trkpt lat="39.9160291" lon="18.3915494"><ele>74.0</ele><time>2026-04-04T15:11:55.185Z</time></trkpt><trkpt lat="39.9158921" lon="18.391425"><ele>74.0</ele><time>2026-04-04T15:11:56.187Z</time></trkpt><trkpt lat="39.9157505" lon="18.3912772"><ele>74.0</ele><time>2026-04-04T15:11:57.188Z</time></trkpt><trkpt lat="39.9156074" lon="18.3911331"><ele>74.0</ele><time>2026-04-04T15:11:58.186Z</time></trkpt><trkpt lat="39.9154617" lon="18.3909957"><ele>74.0</ele><time>2026-04-04T15:11:59.186Z</time></trkpt><trkpt lat="39.9153219" lon="18.3908643"><ele>74.0</ele><time>2026-04-04T15:12:00.186Z</time></trkpt><trkpt lat="39.9151953" lon="18.3907357"><ele>74.0</ele><time>2026-04-04T15:12:01.187Z</time></trkpt><trkpt lat="39.9150687" lon="18.3906216"><ele>74.0</ele><time>2026-04-04T15:12:02.187Z</time></trkpt><trkpt lat="39.9149517" lon="18.3905583"><ele>74.0</ele><time>2026-04-04T15:12:03.187Z</time></trkpt><trkpt lat="39.9148197" lon="18.3905287"><ele>71.75</ele><time>2026-04-04T15:12:04.186Z</time></trkpt><trkpt lat="39.9146794" lon="18.3905377"><ele>69.5</ele><time>2026-04-04T15:12:05.187Z</time></trkpt><trkpt lat="39.9145355" lon="18.3905736"><ele>67.25</ele><time>2026-04-04T15:12:06.186Z</time></trkpt><trkpt lat="39.9143989" lon="18.39062"><ele>65.0</ele><time>2026-04-04T15:12:07.187Z</time></trkpt><trkpt lat="39.9142773" lon="18.3906492"><ele>65.75</ele><time>2026-04-04T15:12:08.187Z</time></trkpt><trkpt lat="39.9141567" lon="18.3906436"><ele>66.5</ele><time>2026-04-04T15:12:09.186Z</time></trkpt><trkpt lat="39.9140366" lon="18.3905967"><ele>67.25</ele><time>2026-04-04T15:12:10.186Z</time></trkpt><trkpt lat="39.9139107" lon="18.3905104"><ele>68.0</ele><time>2026-04-04T15:12:11.187Z</time></trkpt><trkpt lat="39.9137789" lon="18.3904038"><ele>68.0</ele><time>2026-04-04T15:12:12.186Z</time></trkpt><trkpt lat="39.9136498" lon="18.3902829"><ele>68.0</ele><time>2026-04-04T15:12:13.188Z</time></trkpt><trkpt lat="39.9135152" lon="18.3901695"><ele>68.0</ele><time>2026-04-04T15:12:14.187Z</time></trkpt><trkpt lat="39.9133701" lon="18.3900708"><ele>65.66666666666667</ele><time>2026-04-04T15:12:15.186Z</time></trkpt><trkpt lat="39.9132216" lon="18.3899962"><ele>63.33333333333333</ele><time>2026-04-04T15:12:16.186Z</time></trkpt><trkpt lat="39.9130671" lon="18.3899422"><ele>61.0</ele><time>2026-04-04T15:12:17.188Z</time></trkpt><trkpt lat="39.9129071" lon="18.3898995"><ele>61.0</ele><time>2026-04-04T15:12:18.186Z</time></trkpt><trkpt lat="39.9127447" lon="18.3898599"><ele>61.0</ele><time>2026-04-04T15:12:19.186Z</time></trkpt><trkpt lat="39.9125866" lon="18.3898124"><ele>61.0</ele><time>2026-04-04T15:12:20.186Z</time></trkpt><trkpt lat="39.9124401" lon="18.3897416"><ele>61.33333333333333</ele><time>2026-04-04T15:12:21.185Z</time></trkpt><trkpt lat="39.9123004" lon="18.3896479"><ele>61.66666666666667</ele><time>2026-04-04T15:12:22.187Z</time></trkpt><trkpt lat="39.9121636" lon="18.3895346"><ele>62.0</ele><time>2026-04-04T15:12:23.188Z</time></trkpt><trkpt lat="39.9120437" lon="18.3893766"><ele>62.0</ele><time>2026-04-04T15:12:24.186Z</time></trkpt><trkpt lat="39.9119317" lon="18.389204"><ele>62.0</ele><time>2026-04-04T15:12:25.186Z</time></trkpt><trkpt lat="39.9118174" lon="18.3890181"><ele>62.0</ele><time>2026-04-04T15:12:26.186Z</time></trkpt><trkpt lat="39.9117113" lon="18.3888222"><ele>62.0</ele><time>2026-04-04T15:12:27.188Z</time></trkpt><trkpt lat="39.9115976" lon="18.3886266"><ele>62.0</ele><time>2026-04-04T15:12:28.188Z</time></trkpt><trkpt lat="39.9114841" lon="18.3884207"><ele>62.0</ele><time>2026-04-04T15:12:29.185Z</time></trkpt><trkpt lat="39.9113635" lon="18.3882138"><ele>62.0</ele><time>2026-04-04T15:12:30.187Z</time></trkpt><trkpt lat="39.9112437" lon="18.3879975"><ele>62.0</ele><time>2026-04-04T15:12:31.186Z</time></trkpt><trkpt lat="39.9111163" lon="18.3877847"><ele>62.0</ele><time>2026-04-04T15:12:32.185Z</time></trkpt><trkpt lat="39.9109928" lon="18.387571"><ele>61.66666666666667</ele><time>2026-04-04T15:12:33.186Z</time></trkpt><trkpt lat="39.9108746" lon="18.3873507"><ele>61.33333333333333</ele><time>2026-04-04T15:12:34.185Z</time></trkpt><trkpt lat="39.9107521" lon="18.3871319"><ele>61.0</ele><time>2026-04-04T15:12:35.186Z</time></trkpt><trkpt lat="39.9106277" lon="18.3869137"><ele>61.0</ele><time>2026-04-04T15:12:36.187Z</time></trkpt><trkpt lat="39.9105108" lon="18.3867002"><ele>61.0</ele><time>2026-04-04T15:12:37.186Z</time></trkpt><trkpt lat="39.9104033" lon="18.386502"><ele>61.0</ele><time>2026-04-04T15:12:38.188Z</time></trkpt><trkpt lat="39.9102946" lon="18.3863106"><ele>62.33333333333333</ele><time>2026-04-04T15:12:39.186Z</time></trkpt><trkpt lat="39.91018" lon="18.3861359"><ele>63.66666666666667</ele><time>2026-04-04T15:12:40.187Z</time></trkpt><trkpt lat="39.9100543" lon="18.3859911"><ele>65.0</ele><time>2026-04-04T15:12:41.187Z</time></trkpt><trkpt lat="39.909915" lon="18.3858769"><ele>66.0</ele><time>2026-04-04T15:12:42.185Z</time></trkpt><trkpt lat="39.9097646" lon="18.3857892"><ele>67.0</ele><time>2026-04-04T15:12:43.187Z</time></trkpt><trkpt lat="39.909588" lon="18.3857754"><ele>68.0</ele><time>2026-04-04T15:12:44.186Z</time></trkpt><trkpt lat="39.9094097" lon="18.385792"><ele>71.33333333333334</ele><time>2026-04-04T15:12:45.187Z</time></trkpt><trkpt lat="39.9092282" lon="18.385864"><ele>74.66666666666667</ele><time>2026-04-04T15:12:46.186Z</time></trkpt><trkpt lat="39.9090487" lon="18.3859733"><ele>78.0</ele><time>2026-04-04T15:12:47.188Z</time></trkpt><trkpt lat="39.9088711" lon="18.3861097"><ele>78.0</ele><time>2026-04-04T15:12:48.187Z</time></trkpt><trkpt lat="39.9086888" lon="18.3862468"><ele>78.0</ele><time>2026-04-04T15:12:49.185Z</time></trkpt><trkpt lat="39.9085067" lon="18.3863869"><ele>78.0</ele><time>2026-04-04T15:12:50.185Z</time></trkpt><trkpt lat="39.9083297" lon="18.3865121"><ele>80.33333333333333</ele><time>2026-04-04T15:12:51.186Z</time></trkpt><trkpt lat="39.9081484" lon="18.3866439"><ele>82.66666666666666</ele><time>2026-04-04T15:12:52.187Z</time></trkpt><trkpt lat="39.9079685" lon="18.3867666"><ele>85.0</ele><time>2026-04-04T15:12:53.188Z</time></trkpt><trkpt lat="39.9077848" lon="18.3868757"><ele>85.0</ele><time>2026-04-04T15:12:54.187Z</time></trkpt><trkpt lat="39.9076033" lon="18.3869761"><ele>85.0</ele><time>2026-04-04T15:12:55.186Z</time></trkpt><trkpt lat="39.9074055" lon="18.387044"><ele>85.0</ele><time>2026-04-04T15:12:56.185Z</time></trkpt><trkpt lat="39.9072119" lon="18.3870893"><ele>87.33333333333333</ele><time>2026-04-04T15:12:57.187Z</time></trkpt><trkpt lat="39.907022" lon="18.3871117"><ele>89.66666666666667</ele><time>2026-04-04T15:12:58.186Z</time></trkpt><trkpt lat="39.9068325" lon="18.3871141"><ele>92.0</ele><time>2026-04-04T15:12:59.186Z</time></trkpt><trkpt lat="39.9066446" lon="18.3870967"><ele>95.66666666666667</ele><time>2026-04-04T15:13:00.186Z</time></trkpt><trkpt lat="39.9064604" lon="18.3870724"><ele>99.33333333333334</ele><time>2026-04-04T15:13:01.186Z</time></trkpt><trkpt lat="39.9062684" lon="18.3870782"><ele>103.0</ele><time>2026-04-04T15:13:02.185Z</time></trkpt><trkpt lat="39.9060727" lon="18.3871214"><ele>104.66666666666667</ele><time>2026-04-04T15:13:03.187Z</time></trkpt><trkpt lat="39.9058841" lon="18.3872003"><ele>106.33333333333334</ele><time>2026-04-04T15:13:04.185Z</time></trkpt><trkpt lat="39.905705" lon="18.3873227"><ele>108.0</ele><time>2026-04-04T15:13:05.186Z</time></trkpt><trkpt lat="39.9055446" lon="18.387482"><ele>108.0</ele><time>2026-04-04T15:13:06.187Z</time></trkpt><trkpt lat="39.9054018" lon="18.3876886"><ele>108.0</ele><time>2026-04-04T15:13:07.187Z</time></trkpt><trkpt lat="39.9052641" lon="18.3879176"><ele>108.0</ele><time>2026-04-04T15:13:08.185Z</time></trkpt><trkpt lat="39.9051274" lon="18.3881525"><ele>112.5</ele><time>2026-04-04T15:13:09.185Z</time></trkpt><trkpt lat="39.9049892" lon="18.388388"><ele>117.0</ele><time>2026-04-04T15:13:10.186Z</time></trkpt><trkpt lat="39.9048428" lon="18.3886247"><ele>102.5</ele><time>2026-04-04T15:13:11.185Z</time></trkpt><trkpt lat="39.9046964" lon="18.3888574"><ele>88.0</ele><time>2026-04-04T15:13:12.186Z</time></trkpt><trkpt lat="39.9045437" lon="18.3890669"><ele>88.0</ele><time>2026-04-04T15:13:13.185Z</time></trkpt><trkpt lat="39.9044039" lon="18.3892716"><ele>88.0</ele><time>2026-04-04T15:13:14.186Z</time></trkpt><trkpt lat="39.9042673" lon="18.3894561"><ele>88.0</ele><time>2026-04-04T15:13:15.186Z</time></trkpt><trkpt lat="39.9041236" lon="18.3896369"><ele>94.0</ele><time>2026-04-04T15:13:16.188Z</time></trkpt><trkpt lat="39.9039646" lon="18.3898014"><ele>100.0</ele><time>2026-04-04T15:13:17.187Z</time></trkpt><trkpt lat="39.9037847" lon="18.3899371"><ele>106.0</ele><time>2026-04-04T15:13:18.185Z</time></trkpt><trkpt lat="39.9035827" lon="18.3900458"><ele>115.5</ele><time>2026-04-04T15:13:19.186Z</time></trkpt><trkpt lat="39.9033481" lon="18.3901347"><ele>125.0</ele><time>2026-04-04T15:13:20.188Z</time></trkpt><trkpt lat="39.9030911" lon="18.390217"><ele>125.0</ele><time>2026-04-04T15:13:21.185Z</time></trkpt><trkpt lat="39.9028266" lon="18.3902928"><ele>125.0</ele><time>2026-04-04T15:13:22.186Z</time></trkpt><trkpt lat="39.9025712" lon="18.3903624"><ele>126.5</ele><time>2026-04-04T15:13:23.185Z</time></trkpt><trkpt lat="39.902322" lon="18.3904278"><ele>128.0</ele><time>2026-04-04T15:13:24.185Z</time></trkpt><trkpt lat="39.9020847" lon="18.3904919"><ele>126.0</ele><time>2026-04-04T15:13:25.186Z</time></trkpt><trkpt lat="39.9018573" lon="18.3905557"><ele>124.0</ele><time>2026-04-04T15:13:26.186Z</time></trkpt><trkpt lat="39.9016334" lon="18.3906285"><ele>124.0</ele><time>2026-04-04T15:13:27.187Z</time></trkpt><trkpt lat="39.9014149" lon="18.3907283"><ele>124.0</ele><time>2026-04-04T15:13:28.187Z</time></trkpt><trkpt lat="39.9011958" lon="18.3908437"><ele>124.0</ele><time>2026-04-04T15:13:29.185Z</time></trkpt><trkpt lat="39.9009743" lon="18.3909604"><ele>124.0</ele><time>2026-04-04T15:13:30.188Z</time></trkpt><trkpt lat="39.9007507" lon="18.3910803"><ele>126.5</ele><time>2026-04-04T15:13:31.185Z</time></trkpt><trkpt lat="39.9005251" lon="18.3912011"><ele>129.0</ele><time>2026-04-04T15:13:32.185Z</time></trkpt><trkpt lat="39.9002941" lon="18.3913289"><ele>126.0</ele><time>2026-04-04T15:13:33.185Z</time></trkpt><trkpt lat="39.9000646" lon="18.3914496"><ele>123.0</ele><time>2026-04-04T15:13:34.187Z</time></trkpt><trkpt lat="39.8998312" lon="18.3915743"><ele>123.0</ele><time>2026-04-04T15:13:35.187Z</time></trkpt><trkpt lat="39.8995972" lon="18.3917042"><ele>123.0</ele><time>2026-04-04T15:13:36.187Z</time></trkpt><trkpt lat="39.8993582" lon="18.3918302"><ele>125.0</ele><time>2026-04-04T15:13:37.186Z</time></trkpt><trkpt lat="39.8991131" lon="18.3919417"><ele>127.0</ele><time>2026-04-04T15:13:38.186Z</time></trkpt><trkpt lat="39.8988638" lon="18.3920454"><ele>127.0</ele><time>2026-04-04T15:13:39.187Z</time></trkpt><trkpt lat="39.8986128" lon="18.3921554"><ele>127.0</ele><time>2026-04-04T15:13:40.186Z</time></trkpt><trkpt lat="39.8983661" lon="18.3922548"><ele>122.0</ele><time>2026-04-04T15:13:41.188Z</time></trkpt><trkpt lat="39.8981214" lon="18.3923606"><ele>117.0</ele><time>2026-04-04T15:13:42.185Z</time></trkpt><trkpt lat="39.8978796" lon="18.392495"><ele>117.0</ele><time>2026-04-04T15:13:43.188Z</time></trkpt><trkpt lat="39.8976445" lon="18.392653"><ele>117.0</ele><time>2026-04-04T15:13:44.187Z</time></trkpt><trkpt lat="39.8974215" lon="18.3928056"><ele>114.0</ele><time>2026-04-04T15:13:45.187Z</time></trkpt><trkpt lat="39.8972117" lon="18.392958"><ele>111.0</ele><time>2026-04-04T15:13:46.187Z</time></trkpt><trkpt lat="39.8970128" lon="18.3931023"><ele>111.0</ele><time>2026-04-04T15:13:47.186Z</time></trkpt><trkpt lat="39.8968158" lon="18.3932356"><ele>111.0</ele><time>2026-04-04T15:13:48.186Z</time></trkpt><trkpt lat="39.8966164" lon="18.3933422"><ele>111.0</ele><time>2026-04-04T15:13:49.186Z</time></trkpt><trkpt lat="39.8964047" lon="18.3934301"><ele>116.0</ele><time>2026-04-04T15:13:50.186Z</time></trkpt><trkpt lat="39.8961795" lon="18.3934985"><ele>121.0</ele><time>2026-04-04T15:13:51.186Z</time></trkpt><trkpt lat="39.8959327" lon="18.3935548"><ele>121.0</ele><time>2026-04-04T15:13:52.187Z</time></trkpt><trkpt lat="39.8956681" lon="18.3936041"><ele>121.0</ele><time>2026-04-04T15:13:53.186Z</time></trkpt><trkpt lat="39.8953933" lon="18.3936596"><ele>121.0</ele><time>2026-04-04T15:13:54.185Z</time></trkpt><trkpt lat="39.8951072" lon="18.3937116"><ele>121.0</ele><time>2026-04-04T15:13:55.187Z</time></trkpt><trkpt lat="39.8948165" lon="18.3937689"><ele>120.5</ele><time>2026-04-04T15:13:56.188Z</time></trkpt><trkpt lat="39.8945242" lon="18.3938252"><ele>120.0</ele><time>2026-04-04T15:13:57.186Z</time></trkpt><trkpt lat="39.8942291" lon="18.3938778"><ele>111.5</ele><time>2026-04-04T15:13:58.185Z</time></trkpt><trkpt lat="39.893932" lon="18.3939372"><ele>103.0</ele><time>2026-04-04T15:13:59.186Z</time></trkpt><trkpt lat="39.8936343" lon="18.3939964"><ele>102.5</ele><time>2026-04-04T15:14:00.186Z</time></trkpt><trkpt lat="39.8933363" lon="18.3940539"><ele>102.0</ele><time>2026-04-04T15:14:01.186Z</time></trkpt><trkpt lat="39.8930412" lon="18.3941098"><ele>102.0</ele><time>2026-04-04T15:14:02.186Z</time></trkpt><trkpt lat="39.8927485" lon="18.394168"><ele>102.0</ele><time>2026-04-04T15:14:03.187Z</time></trkpt><trkpt lat="39.8924555" lon="18.3942192"><ele>103.0</ele><time>2026-04-04T15:14:04.188Z</time></trkpt><trkpt lat="39.8921682" lon="18.3942744"><ele>104.0</ele><time>2026-04-04T15:14:05.186Z</time></trkpt><trkpt lat="39.8918817" lon="18.3943306"><ele>104.0</ele><time>2026-04-04T15:14:06.186Z</time></trkpt><trkpt lat="39.8915975" lon="18.3943847"><ele>104.0</ele><time>2026-04-04T15:14:07.186Z</time></trkpt><trkpt lat="39.8913222" lon="18.3944345"><ele>104.0</ele><time>2026-04-04T15:14:08.186Z</time></trkpt><trkpt lat="39.8910559" lon="18.3944829"><ele>104.0</ele><time>2026-04-04T15:14:09.186Z</time></trkpt><trkpt lat="39.8907946" lon="18.394529"><ele>104.5</ele><time>2026-04-04T15:14:10.186Z</time></trkpt><trkpt lat="39.8905395" lon="18.3945717"><ele>105.0</ele><time>2026-04-04T15:14:11.186Z</time></trkpt><trkpt lat="39.8902879" lon="18.3946193"><ele>105.0</ele><time>2026-04-04T15:14:12.187Z</time></trkpt><trkpt lat="39.8900367" lon="18.3946598"><ele>105.0</ele><time>2026-04-04T15:14:13.187Z</time></trkpt><trkpt lat="39.8897881" lon="18.3946904"><ele>97.0</ele><time>2026-04-04T15:14:14.187Z</time></trkpt><trkpt lat="39.8895448" lon="18.3947003"><ele>89.0</ele><time>2026-04-04T15:14:15.186Z</time></trkpt><trkpt lat="39.8893042" lon="18.3946833"><ele>97.5</ele><time>2026-04-04T15:14:16.187Z</time></trkpt><trkpt lat="39.8890679" lon="18.394658"><ele>106.0</ele><time>2026-04-04T15:14:17.186Z</time></trkpt><trkpt lat="39.8888504" lon="18.3945824"><ele>106.0</ele><time>2026-04-04T15:14:18.187Z</time></trkpt><trkpt lat="39.8886433" lon="18.3945041"><ele>106.0</ele><time>2026-04-04T15:14:19.186Z</time></trkpt><trkpt lat="39.8884512" lon="18.3944283"><ele>106.0</ele><time>2026-04-04T15:14:20.187Z</time></trkpt><trkpt lat="39.8882762" lon="18.3943596"><ele>105.0</ele><time>2026-04-04T15:14:21.186Z</time></trkpt><trkpt lat="39.8881122" lon="18.3943004"><ele>104.0</ele><time>2026-04-04T15:14:22.187Z</time></trkpt><trkpt lat="39.8879524" lon="18.3942432"><ele>103.0</ele><time>2026-04-04T15:14:23.187Z</time></trkpt><trkpt lat="39.8877852" lon="18.3941773"><ele>103.0</ele><time>2026-04-04T15:14:24.186Z</time></trkpt><trkpt lat="39.8875993" lon="18.3941007"><ele>103.0</ele><time>2026-04-04T15:14:25.186Z</time></trkpt><trkpt lat="39.8874128" lon="18.3940183"><ele>103.0</ele><time>2026-04-04T15:14:26.186Z</time></trkpt><trkpt lat="39.8872302" lon="18.3939243"><ele>105.33333333333334</ele><time>2026-04-04T15:14:27.187Z</time></trkpt><trkpt lat="39.8870363" lon="18.3938565"><ele>107.66666666666666</ele><time>2026-04-04T15:14:28.186Z</time></trkpt><trkpt lat="39.8868306" lon="18.3938082"><ele>110.0</ele><time>2026-04-04T15:14:29.185Z</time></trkpt><trkpt lat="39.886611" lon="18.3937766"><ele>110.0</ele><time>2026-04-04T15:14:30.187Z</time></trkpt><trkpt lat="39.8863851" lon="18.3937642"><ele>110.0</ele><time>2026-04-04T15:14:31.185Z</time></trkpt><trkpt lat="39.8861598" lon="18.3937755"><ele>110.0</ele><time>2026-04-04T15:14:32.187Z</time></trkpt><trkpt lat="39.8859329" lon="18.393807"><ele>110.0</ele><time>2026-04-04T15:14:33.186Z</time></trkpt><trkpt lat="39.885703" lon="18.3938733"><ele>95.5</ele><time>2026-04-04T15:14:34.187Z</time></trkpt><trkpt lat="39.8854696" lon="18.3939587"><ele>81.0</ele><time>2026-04-04T15:14:35.187Z</time></trkpt><trkpt lat="39.8852324" lon="18.3940486"><ele>84.5</ele><time>2026-04-04T15:14:36.186Z</time></trkpt><trkpt lat="39.8849819" lon="18.3941497"><ele>88.0</ele><time>2026-04-04T15:14:37.187Z</time></trkpt><trkpt lat="39.8847304" lon="18.394254"><ele>88.0</ele><time>2026-04-04T15:14:38.186Z</time></trkpt><trkpt lat="39.8844792" lon="18.3943725"><ele>88.0</ele><time>2026-04-04T15:14:39.185Z</time></trkpt><trkpt lat="39.8842386" lon="18.3945217"><ele>82.0</ele><time>2026-04-04T15:14:40.187Z</time></trkpt><trkpt lat="39.8839966" lon="18.394666"><ele>76.0</ele><time>2026-04-04T15:14:41.187Z</time></trkpt><trkpt lat="39.8837592" lon="18.3948155"><ele>76.0</ele><time>2026-04-04T15:14:42.185Z</time></trkpt><trkpt lat="39.8835232" lon="18.3949538"><ele>76.0</ele><time>2026-04-04T15:14:43.186Z</time></trkpt><trkpt lat="39.8832877" lon="18.3950903"><ele>82.5</ele><time>2026-04-04T15:14:44.185Z</time></trkpt><trkpt lat="39.8830513" lon="18.3952212"><ele>89.0</ele><time>2026-04-04T15:14:45.187Z</time></trkpt><trkpt lat="39.882815" lon="18.395349"><ele>85.5</ele><time>2026-04-04T15:14:46.188Z</time></trkpt><trkpt lat="39.8825784" lon="18.3954681"><ele>82.0</ele><time>2026-04-04T15:14:47.188Z</time></trkpt><trkpt lat="39.8823465" lon="18.3955928"><ele>82.0</ele><time>2026-04-04T15:14:48.186Z</time></trkpt><trkpt lat="39.8821222" lon="18.3957118"><ele>82.0</ele><time>2026-04-04T15:14:49.186Z</time></trkpt><trkpt lat="39.8819096" lon="18.3958197"><ele>84.5</ele><time>2026-04-04T15:14:50.186Z</time></trkpt><trkpt lat="39.8817012" lon="18.3959252"><ele>87.0</ele><time>2026-04-04T15:14:51.186Z</time></trkpt><trkpt lat="39.8814828" lon="18.3960027"><ele>87.0</ele><time>2026-04-04T15:14:52.187Z</time></trkpt><trkpt lat="39.8812546" lon="18.3960639"><ele>87.0</ele><time>2026-04-04T15:14:53.186Z</time></trkpt><trkpt lat="39.8810171" lon="18.3961033"><ele>88.5</ele><time>2026-04-04T15:14:54.185Z</time></trkpt><trkpt lat="39.8807757" lon="18.3961404"><ele>90.0</ele><time>2026-04-04T15:14:55.186Z</time></trkpt><trkpt lat="39.8805293" lon="18.3961701"><ele>90.0</ele><time>2026-04-04T15:14:56.186Z</time></trkpt><trkpt lat="39.8802833" lon="18.3962066"><ele>90.0</ele><time>2026-04-04T15:14:57.186Z</time></trkpt><trkpt lat="39.880025" lon="18.3962259"><ele>91.5</ele><time>2026-04-04T15:14:58.186Z</time></trkpt><trkpt lat="39.879763" lon="18.3962302"><ele>93.0</ele><time>2026-04-04T15:14:59.187Z</time></trkpt><trkpt lat="39.8794971" lon="18.3962238"><ele>91.5</ele><time>2026-04-04T15:15:00.186Z</time></trkpt><trkpt lat="39.8792267" lon="18.396206"><ele>90.0</ele><time>2026-04-04T15:15:01.186Z</time></trkpt><trkpt lat="39.8789545" lon="18.3961911"><ele>90.0</ele><time>2026-04-04T15:15:02.187Z</time></trkpt><trkpt lat="39.8786785" lon="18.3961695"><ele>90.0</ele><time>2026-04-04T15:15:03.187Z</time></trkpt><trkpt lat="39.8784007" lon="18.3961456"><ele>85.5</ele><time>2026-04-04T15:15:04.187Z</time></trkpt><trkpt lat="39.8781209" lon="18.3961277"><ele>81.0</ele><time>2026-04-04T15:15:05.187Z</time></trkpt><trkpt lat="39.877841" lon="18.396106"><ele>78.0</ele><time>2026-04-04T15:15:06.186Z</time></trkpt><trkpt lat="39.8775694" lon="18.3960798"><ele>75.0</ele><time>2026-04-04T15:15:07.187Z</time></trkpt><trkpt lat="39.8772957" lon="18.3960666"><ele>75.0</ele><time>2026-04-04T15:15:08.186Z</time></trkpt><trkpt lat="39.8770183" lon="18.3960526"><ele>75.0</ele><time>2026-04-04T15:15:09.186Z</time></trkpt><trkpt lat="39.8767428" lon="18.3960586"><ele>71.5</ele><time>2026-04-04T15:15:10.186Z</time></trkpt><trkpt lat="39.8764685" lon="18.3960564"><ele>68.0</ele><time>2026-04-04T15:15:11.188Z</time></trkpt><trkpt lat="39.8761928" lon="18.3960514"><ele>67.0</ele><time>2026-04-04T15:15:12.186Z</time></trkpt><trkpt lat="39.8759187" lon="18.3960498"><ele>66.0</ele><time>2026-04-04T15:15:13.186Z</time></trkpt><trkpt lat="39.8756423" lon="18.396046"><ele>66.0</ele><time>2026-04-04T15:15:14.188Z</time></trkpt><trkpt lat="39.8753731" lon="18.3960473"><ele>66.0</ele><time>2026-04-04T15:15:15.186Z</time></trkpt><trkpt lat="39.8751088" lon="18.3960451"><ele>66.0</ele><time>2026-04-04T15:15:16.187Z</time></trkpt><trkpt lat="39.8748492" lon="18.3960461"><ele>66.0</ele><time>2026-04-04T15:15:17.186Z</time></trkpt><trkpt lat="39.8745922" lon="18.3960463"><ele>66.0</ele><time>2026-04-04T15:15:18.186Z</time></trkpt><trkpt lat="39.8743321" lon="18.3960313"><ele>66.0</ele><time>2026-04-04T15:15:19.187Z</time></trkpt><trkpt lat="39.8740701" lon="18.3960091"><ele>64.5</ele><time>2026-04-04T15:15:20.187Z</time></trkpt><trkpt lat="39.8738104" lon="18.3959903"><ele>63.0</ele><time>2026-04-04T15:15:21.186Z</time></trkpt><trkpt lat="39.8735514" lon="18.3959651"><ele>62.0</ele><time>2026-04-04T15:15:22.186Z</time></trkpt><trkpt lat="39.8732931" lon="18.3959425"><ele>61.0</ele><time>2026-04-04T15:15:23.187Z</time></trkpt><trkpt lat="39.8730433" lon="18.3959153"><ele>61.0</ele><time>2026-04-04T15:15:24.186Z</time></trkpt><trkpt lat="39.8728017" lon="18.3958837"><ele>61.0</ele><time>2026-04-04T15:15:25.187Z</time></trkpt><trkpt lat="39.8725674" lon="18.3958413"><ele>60.0</ele><time>2026-04-04T15:15:26.185Z</time></trkpt><trkpt lat="39.8723362" lon="18.3957906"><ele>59.0</ele><time>2026-04-04T15:15:27.185Z</time></trkpt><trkpt lat="39.8721084" lon="18.3957143"><ele>59.0</ele><time>2026-04-04T15:15:28.188Z</time></trkpt><trkpt lat="39.8718978" lon="18.3956262"><ele>59.0</ele><time>2026-04-04T15:15:29.187Z</time></trkpt><trkpt lat="39.8717037" lon="18.3955363"><ele>59.0</ele><time>2026-04-04T15:15:30.186Z</time></trkpt><trkpt lat="39.8715174" lon="18.3954203"><ele>62.0</ele><time>2026-04-04T15:15:31.187Z</time></trkpt><trkpt lat="39.8713428" lon="18.3952815"><ele>65.0</ele><time>2026-04-04T15:15:32.188Z</time></trkpt><trkpt lat="39.8711851" lon="18.3951318"><ele>68.0</ele><time>2026-04-04T15:15:33.187Z</time></trkpt><trkpt lat="39.8710369" lon="18.3949536"><ele>68.0</ele><time>2026-04-04T15:15:34.186Z</time></trkpt><trkpt lat="39.8709019" lon="18.3947457"><ele>68.0</ele><time>2026-04-04T15:15:35.187Z</time></trkpt><trkpt lat="39.8707853" lon="18.3945165"><ele>68.0</ele><time>2026-04-04T15:15:36.186Z</time></trkpt><trkpt lat="39.8706923" lon="18.3942694"><ele>68.0</ele><time>2026-04-04T15:15:37.187Z</time></trkpt><trkpt lat="39.8706103" lon="18.3940034"><ele>68.0</ele><time>2026-04-04T15:15:38.187Z</time></trkpt><trkpt lat="39.8705411" lon="18.3937261"><ele>68.0</ele><time>2026-04-04T15:15:39.186Z</time></trkpt><trkpt lat="39.8704706" lon="18.3934431"><ele>72.0</ele><time>2026-04-04T15:15:40.186Z</time></trkpt><trkpt lat="39.8704126" lon="18.3931516"><ele>76.0</ele><time>2026-04-04T15:15:41.186Z</time></trkpt><trkpt lat="39.8703659" lon="18.3928546"><ele>77.33333333333333</ele><time>2026-04-04T15:15:42.187Z</time></trkpt><trkpt lat="39.8703209" lon="18.3925681"><ele>78.66666666666667</ele><time>2026-04-04T15:15:43.186Z</time></trkpt><trkpt lat="39.8702803" lon="18.3922941"><ele>80.0</ele><time>2026-04-04T15:15:44.186Z</time></trkpt><trkpt lat="39.8702409" lon="18.3920401"><ele>80.0</ele><time>2026-04-04T15:15:45.186Z</time></trkpt><trkpt lat="39.8702052" lon="18.3918242"><ele>80.0</ele><time>2026-04-04T15:15:46.186Z</time></trkpt><trkpt lat="39.8701499" lon="18.3916265"><ele>80.0</ele><time>2026-04-04T15:15:47.187Z</time></trkpt><trkpt lat="39.8700797" lon="18.391452"><ele>78.0</ele><time>2026-04-04T15:15:48.186Z</time></trkpt><trkpt lat="39.8700013" lon="18.3913147"><ele>76.0</ele><time>2026-04-04T15:15:49.186Z</time></trkpt><trkpt lat="39.8699206" lon="18.3911904"><ele>74.0</ele><time>2026-04-04T15:15:50.187Z</time></trkpt><trkpt lat="39.8698145" lon="18.3911097"><ele>72.0</ele><time>2026-04-04T15:15:51.186Z</time></trkpt><trkpt lat="39.8696971" lon="18.3910682"><ele>72.0</ele><time>2026-04-04T15:15:52.186Z</time></trkpt><trkpt lat="39.8695613" lon="18.3910596"><ele>72.0</ele><time>2026-04-04T15:15:53.186Z</time></trkpt><trkpt lat="39.8693937" lon="18.3910848"><ele>72.0</ele><time>2026-04-04T15:15:54.187Z</time></trkpt><trkpt lat="39.8691939" lon="18.391131"><ele>74.0</ele><time>2026-04-04T15:15:55.187Z</time></trkpt><trkpt lat="39.8689776" lon="18.3912121"><ele>76.0</ele><time>2026-04-04T15:15:56.188Z</time></trkpt><trkpt lat="39.868758" lon="18.3913417"><ele>74.5</ele><time>2026-04-04T15:15:57.185Z</time></trkpt><trkpt lat="39.8685531" lon="18.3915013"><ele>73.0</ele><time>2026-04-04T15:15:58.188Z</time></trkpt><trkpt lat="39.8683717" lon="18.3916605"><ele>73.0</ele><time>2026-04-04T15:15:59.187Z</time></trkpt><trkpt lat="39.8682122" lon="18.3918114"><ele>73.0</ele><time>2026-04-04T15:16:00.187Z</time></trkpt><trkpt lat="39.8681018" lon="18.391971"><ele>73.0</ele><time>2026-04-04T15:16:01.187Z</time></trkpt><trkpt lat="39.8680331" lon="18.3921518"><ele>65.0</ele><time>2026-04-04T15:16:02.187Z</time></trkpt><trkpt lat="39.8679856" lon="18.3923411"><ele>57.0</ele><time>2026-04-04T15:16:03.186Z</time></trkpt><trkpt lat="39.8679387" lon="18.3925324"><ele>49.0</ele><time>2026-04-04T15:16:04.187Z</time></trkpt><trkpt lat="39.8678764" lon="18.3927085"><ele>49.0</ele><time>2026-04-04T15:16:05.187Z</time></trkpt><trkpt lat="39.867787" lon="18.3928523"><ele>49.0</ele><time>2026-04-04T15:16:06.185Z</time></trkpt><trkpt lat="39.8676696" lon="18.392951"><ele>49.0</ele><time>2026-04-04T15:16:07.186Z</time></trkpt><trkpt lat="39.8675282" lon="18.3929935"><ele>49.0</ele><time>2026-04-04T15:16:08.187Z</time></trkpt><trkpt lat="39.8673758" lon="18.3929983"><ele>58.0</ele><time>2026-04-04T15:16:09.185Z</time></trkpt><trkpt lat="39.867216" lon="18.3929683"><ele>67.0</ele><time>2026-04-04T15:16:10.188Z</time></trkpt><trkpt lat="39.8670577" lon="18.3929013"><ele>76.0</ele><time>2026-04-04T15:16:11.187Z</time></trkpt><trkpt lat="39.8669051" lon="18.3927989"><ele>75.0</ele><time>2026-04-04T15:16:12.187Z</time></trkpt><trkpt lat="39.866751" lon="18.3926601"><ele>74.0</ele><time>2026-04-04T15:16:13.186Z</time></trkpt><trkpt lat="39.8665979" lon="18.3924992"><ele>73.0</ele><time>2026-04-04T15:16:14.186Z</time></trkpt><trkpt lat="39.8664575" lon="18.3923424"><ele>73.0</ele><time>2026-04-04T15:16:15.187Z</time></trkpt><trkpt lat="39.8663227" lon="18.3921864"><ele>73.0</ele><time>2026-04-04T15:16:16.185Z</time></trkpt><trkpt lat="39.8661896" lon="18.3920441"><ele>73.0</ele><time>2026-04-04T15:16:17.187Z</time></trkpt><trkpt lat="39.866077" lon="18.3919171"><ele>74.0</ele><time>2026-04-04T15:16:18.187Z</time></trkpt><trkpt lat="39.8659842" lon="18.3917629"><ele>75.0</ele><time>2026-04-04T15:16:19.186Z</time></trkpt><trkpt lat="39.8659151" lon="18.3915797"><ele>76.0</ele><time>2026-04-04T15:16:20.186Z</time></trkpt><trkpt lat="39.8658654" lon="18.3913895"><ele>73.66666666666666</ele><time>2026-04-04T15:16:21.185Z</time></trkpt><trkpt lat="39.8658035" lon="18.3912018"><ele>71.33333333333333</ele><time>2026-04-04T15:16:22.185Z</time></trkpt><trkpt lat="39.8657257" lon="18.3910256"><ele>69.0</ele><time>2026-04-04T15:16:23.186Z</time></trkpt><trkpt lat="39.8656207" lon="18.3908772"><ele>69.0</ele><time>2026-04-04T15:16:24.186Z</time></trkpt><trkpt lat="39.8654948" lon="18.3907549"><ele>69.0</ele><time>2026-04-04T15:16:25.186Z</time></trkpt><trkpt lat="39.8653513" lon="18.3906792"><ele>69.0</ele><time>2026-04-04T15:16:26.185Z</time></trkpt><trkpt lat="39.865188" lon="18.3906393"><ele>66.33333333333333</ele><time>2026-04-04T15:16:27.186Z</time></trkpt><trkpt lat="39.8650126" lon="18.3906096"><ele>63.666666666666664</ele><time>2026-04-04T15:16:28.187Z</time></trkpt><trkpt lat="39.8648258" lon="18.3905925"><ele>61.0</ele><time>2026-04-04T15:16:29.186Z</time></trkpt><trkpt lat="39.8646305" lon="18.3905763"><ele>61.0</ele><time>2026-04-04T15:16:30.186Z</time></trkpt><trkpt lat="39.8644257" lon="18.3905544"><ele>61.0</ele><time>2026-04-04T15:16:31.187Z</time></trkpt><trkpt lat="39.86421" lon="18.3905312"><ele>61.0</ele><time>2026-04-04T15:16:32.185Z</time></trkpt><trkpt lat="39.8639918" lon="18.3905089"><ele>60.666666666666664</ele><time>2026-04-04T15:16:33.187Z</time></trkpt><trkpt lat="39.8637754" lon="18.3904885"><ele>60.33333333333333</ele><time>2026-04-04T15:16:34.187Z</time></trkpt><trkpt lat="39.8635584" lon="18.3904644"><ele>60.0</ele><time>2026-04-04T15:16:35.187Z</time></trkpt><trkpt lat="39.8633423" lon="18.3904371"><ele>60.0</ele><time>2026-04-04T15:16:36.186Z</time></trkpt><trkpt lat="39.8631347" lon="18.3903968"><ele>60.0</ele><time>2026-04-04T15:16:37.187Z</time></trkpt><trkpt lat="39.8629386" lon="18.3903373"><ele>60.0</ele><time>2026-04-04T15:16:38.185Z</time></trkpt><trkpt lat="39.8627584" lon="18.3902562"><ele>57.66666666666667</ele><time>2026-04-04T15:16:39.187Z</time></trkpt><trkpt lat="39.8625868" lon="18.3901641"><ele>55.333333333333336</ele><time>2026-04-04T15:16:40.186Z</time></trkpt><trkpt lat="39.8624188" lon="18.3900552"><ele>53.0</ele><time>2026-04-04T15:16:41.186Z</time></trkpt><trkpt lat="39.8622545" lon="18.3899396"><ele>53.0</ele><time>2026-04-04T15:16:42.187Z</time></trkpt><trkpt lat="39.8620903" lon="18.3898079"><ele>53.0</ele><time>2026-04-04T15:16:43.186Z</time></trkpt><trkpt lat="39.8619232" lon="18.3896819"><ele>53.0</ele><time>2026-04-04T15:16:44.187Z</time></trkpt><trkpt lat="39.8617505" lon="18.3895513"><ele>55.333333333333336</ele><time>2026-04-04T15:16:45.187Z</time></trkpt><trkpt lat="39.8615753" lon="18.3894149"><ele>57.66666666666667</ele><time>2026-04-04T15:16:46.186Z</time></trkpt><trkpt lat="39.8614019" lon="18.3892775"><ele>60.0</ele><time>2026-04-04T15:16:47.187Z</time></trkpt><trkpt lat="39.8612206" lon="18.3891367"><ele>60.0</ele><time>2026-04-04T15:16:48.187Z</time></trkpt><trkpt lat="39.861043" lon="18.3889904"><ele>60.0</ele><time>2026-04-04T15:16:49.187Z</time></trkpt><trkpt lat="39.8608561" lon="18.3888408"><ele>60.0</ele><time>2026-04-04T15:16:50.187Z</time></trkpt><trkpt lat="39.8606721" lon="18.3886925"><ele>59.0</ele><time>2026-04-04T15:16:51.185Z</time></trkpt><trkpt lat="39.8604893" lon="18.3885395"><ele>58.0</ele><time>2026-04-04T15:16:52.187Z</time></trkpt><trkpt lat="39.8603013" lon="18.3883925"><ele>57.0</ele><time>2026-04-04T15:16:53.186Z</time></trkpt><trkpt lat="39.8601095" lon="18.388248"><ele>57.0</ele><time>2026-04-04T15:16:54.185Z</time></trkpt><trkpt lat="39.8599207" lon="18.3880883"><ele>57.0</ele><time>2026-04-04T15:16:55.186Z</time></trkpt><trkpt lat="39.8597295" lon="18.3879322"><ele>59.0</ele><time>2026-04-04T15:16:56.186Z</time></trkpt><trkpt lat="39.8595403" lon="18.3877776"><ele>61.0</ele><time>2026-04-04T15:16:57.188Z</time></trkpt><trkpt lat="39.8593517" lon="18.3876194"><ele>63.0</ele><time>2026-04-04T15:16:58.185Z</time></trkpt><trkpt lat="39.8591669" lon="18.3874674"><ele>63.0</ele><time>2026-04-04T15:16:59.187Z</time></trkpt><trkpt lat="39.8589894" lon="18.3873266"><ele>63.0</ele><time>2026-04-04T15:17:00.187Z</time></trkpt><trkpt lat="39.8587985" lon="18.3872041"><ele>63.0</ele><time>2026-04-04T15:17:01.186Z</time></trkpt><trkpt lat="39.8585835" lon="18.3871043"><ele>69.5</ele><time>2026-04-04T15:17:02.187Z</time></trkpt><trkpt lat="39.8583427" lon="18.3870289"><ele>76.0</ele><time>2026-04-04T15:17:03.187Z</time></trkpt><trkpt lat="39.8580995" lon="18.3869728"><ele>76.0</ele><time>2026-04-04T15:17:04.187Z</time></trkpt><trkpt lat="39.8578572" lon="18.3870037"><ele>76.0</ele><time>2026-04-04T15:17:05.187Z</time></trkpt><trkpt lat="39.8576141" lon="18.3870531"><ele>77.0</ele><time>2026-04-04T15:17:06.188Z</time></trkpt><trkpt lat="39.8573784" lon="18.3871146"><ele>78.0</ele><time>2026-04-04T15:17:07.187Z</time></trkpt><trkpt lat="39.8571686" lon="18.387235"><ele>74.0</ele><time>2026-04-04T15:17:08.186Z</time></trkpt><trkpt lat="39.8569642" lon="18.3873777"><ele>70.0</ele><time>2026-04-04T15:17:09.188Z</time></trkpt><trkpt lat="39.8567682" lon="18.3875503"><ele>70.0</ele><time>2026-04-04T15:17:10.185Z</time></trkpt><trkpt lat="39.856574" lon="18.3877405"><ele>70.0</ele><time>2026-04-04T15:17:11.186Z</time></trkpt><trkpt lat="39.8563817" lon="18.3879354"><ele>64.0</ele><time>2026-04-04T15:17:12.186Z</time></trkpt><trkpt lat="39.856186" lon="18.3881307"><ele>58.0</ele><time>2026-04-04T15:17:13.188Z</time></trkpt><trkpt lat="39.8559959" lon="18.3883222"><ele>61.5</ele><time>2026-04-04T15:17:14.186Z</time></trkpt><trkpt lat="39.8558077" lon="18.3885118"><ele>65.0</ele><time>2026-04-04T15:17:15.188Z</time></trkpt><trkpt lat="39.8556276" lon="18.3886972"><ele>63.0</ele><time>2026-04-04T15:17:16.185Z</time></trkpt><trkpt lat="39.8554541" lon="18.3888743"><ele>61.0</ele><time>2026-04-04T15:17:17.186Z</time></trkpt><trkpt lat="39.8552875" lon="18.3890432"><ele>59.0</ele><time>2026-04-04T15:17:18.185Z</time></trkpt><trkpt lat="39.8551185" lon="18.3892063"><ele>57.0</ele><time>2026-04-04T15:17:19.186Z</time></trkpt><trkpt lat="39.8549162" lon="18.38933"><ele>55.0</ele><time>2026-04-04T15:17:20.188Z</time></trkpt><trkpt lat="39.8547015" lon="18.3894341"><ele>55.0</ele><time>2026-04-04T15:17:21.185Z</time></trkpt><trkpt lat="39.8544745" lon="18.3895259"><ele>55.0</ele><time>2026-04-04T15:17:22.185Z</time></trkpt><trkpt lat="39.854226" lon="18.3895809"><ele>53.0</ele><time>2026-04-04T15:17:23.186Z</time></trkpt><trkpt lat="39.8539804" lon="18.3896423"><ele>51.0</ele><time>2026-04-04T15:17:24.187Z</time></trkpt><trkpt lat="39.8537359" lon="18.3896939"><ele>45.5</ele><time>2026-04-04T15:17:25.186Z</time></trkpt><trkpt lat="39.8534938" lon="18.3897325"><ele>40.0</ele><time>2026-04-04T15:17:26.187Z</time></trkpt><trkpt lat="39.8532531" lon="18.3897583"><ele>39.0</ele><time>2026-04-04T15:17:27.186Z</time></trkpt><trkpt lat="39.8530202" lon="18.3897559"><ele>38.0</ele><time>2026-04-04T15:17:28.187Z</time></trkpt><trkpt lat="39.8528006" lon="18.3897199"><ele>43.0</ele><time>2026-04-04T15:17:29.187Z</time></trkpt><trkpt lat="39.8525892" lon="18.3896686"><ele>48.0</ele><time>2026-04-04T15:17:30.186Z</time></trkpt><trkpt lat="39.8523858" lon="18.3895814"><ele>53.0</ele><time>2026-04-04T15:17:31.185Z</time></trkpt><trkpt lat="39.8521849" lon="18.3894895"><ele>53.0</ele><time>2026-04-04T15:17:32.186Z</time></trkpt><trkpt lat="39.8519787" lon="18.3894137"><ele>53.0</ele><time>2026-04-04T15:17:33.188Z</time></trkpt><trkpt lat="39.8517634" lon="18.3893608"><ele>53.0</ele><time>2026-04-04T15:17:34.187Z</time></trkpt><trkpt lat="39.8515403" lon="18.3893129"><ele>49.5</ele><time>2026-04-04T15:17:35.186Z</time></trkpt><trkpt lat="39.8513087" lon="18.3892799"><ele>46.0</ele><time>2026-04-04T15:17:36.186Z</time></trkpt><trkpt lat="39.8510831" lon="18.3892538"><ele>43.5</ele><time>2026-04-04T15:17:37.185Z</time></trkpt><trkpt lat="39.8508526" lon="18.3892269"><ele>41.0</ele><time>2026-04-04T15:17:38.187Z</time></trkpt><trkpt lat="39.8506255" lon="18.389199"><ele>41.0</ele><time>2026-04-04T15:17:39.186Z</time></trkpt><trkpt lat="39.8504025" lon="18.3891673"><ele>41.0</ele><time>2026-04-04T15:17:40.187Z</time></trkpt><trkpt lat="39.8501713" lon="18.3891264"><ele>38.5</ele><time>2026-04-04T15:17:41.186Z</time></trkpt><trkpt lat="39.8499363" lon="18.3890728"><ele>36.0</ele><time>2026-04-04T15:17:42.186Z</time></trkpt><trkpt lat="39.8497061" lon="18.3890204"><ele>36.0</ele><time>2026-04-04T15:17:43.187Z</time></trkpt><trkpt lat="39.8494728" lon="18.3889626"><ele>36.0</ele><time>2026-04-04T15:17:44.187Z</time></trkpt><trkpt lat="39.8492465" lon="18.3889002"><ele>41.0</ele><time>2026-04-04T15:17:45.185Z</time></trkpt><trkpt lat="39.8490262" lon="18.3888349"><ele>46.0</ele><time>2026-04-04T15:17:46.185Z</time></trkpt><trkpt lat="39.8488272" lon="18.3887691"><ele>51.0</ele><time>2026-04-04T15:17:47.187Z</time></trkpt><trkpt lat="39.8486556" lon="18.3887032"><ele>51.0</ele><time>2026-04-04T15:17:48.187Z</time></trkpt><trkpt lat="39.8484977" lon="18.388649"><ele>51.0</ele><time>2026-04-04T15:17:49.186Z</time></trkpt><trkpt lat="39.8483656" lon="18.3885958"><ele>51.0</ele><time>2026-04-04T15:17:50.187Z</time></trkpt><trkpt lat="39.8482363" lon="18.3885483"><ele>51.0</ele><time>2026-04-04T15:17:51.187Z</time></trkpt><trkpt lat="39.8481223" lon="18.388501"><ele>50.75</ele><time>2026-04-04T15:17:52.187Z</time></trkpt><trkpt lat="39.8480129" lon="18.3884659"><ele>50.5</ele><time>2026-04-04T15:17:53.186Z</time></trkpt><trkpt lat="39.8479019" lon="18.3884322"><ele>50.25</ele><time>2026-04-04T15:17:54.187Z</time></trkpt><trkpt lat="39.8477899" lon="18.3884208"><ele>50.0</ele><time>2026-04-04T15:17:55.187Z</time></trkpt><trkpt lat="39.847675" lon="18.3884147"><ele>49.25</ele><time>2026-04-04T15:17:56.187Z</time></trkpt><trkpt lat="39.8475563" lon="18.3884124"><ele>48.5</ele><time>2026-04-04T15:17:57.186Z</time></trkpt><trkpt lat="39.847433" lon="18.3884262"><ele>47.75</ele><time>2026-04-04T15:17:58.186Z</time></trkpt><trkpt lat="39.8473035" lon="18.3884346"><ele>47.0</ele><time>2026-04-04T15:17:59.185Z</time></trkpt><trkpt lat="39.8471429" lon="18.3884466"><ele>47.0</ele><time>2026-04-04T15:18:00.187Z</time></trkpt><trkpt lat="39.8469807" lon="18.3884399"><ele>47.0</ele><time>2026-04-04T15:18:01.187Z</time></trkpt><trkpt lat="39.8468" lon="18.388433"><ele>47.0</ele><time>2026-04-04T15:18:02.187Z</time></trkpt><trkpt lat="39.8466114" lon="18.3884068"><ele>46.33333333333333</ele><time>2026-04-04T15:18:03.187Z</time></trkpt><trkpt lat="39.8464154" lon="18.3883726"><ele>45.666666666666664</ele><time>2026-04-04T15:18:04.187Z</time></trkpt><trkpt lat="39.8462212" lon="18.3882615"><ele>45.0</ele><time>2026-04-04T15:18:05.187Z</time></trkpt><trkpt lat="39.8460398" lon="18.3881653"><ele>45.666666666666664</ele><time>2026-04-04T15:18:06.187Z</time></trkpt><trkpt lat="39.8458594" lon="18.3880495"><ele>46.33333333333333</ele><time>2026-04-04T15:18:07.186Z</time></trkpt><trkpt lat="39.84569" lon="18.3879128"><ele>47.0</ele><time>2026-04-04T15:18:08.187Z</time></trkpt><trkpt lat="39.8455341" lon="18.3877465"><ele>47.0</ele><time>2026-04-04T15:18:09.187Z</time></trkpt><trkpt lat="39.8453862" lon="18.3875651"><ele>47.0</ele><time>2026-04-04T15:18:10.186Z</time></trkpt><trkpt lat="39.8452544" lon="18.3873674"><ele>47.0</ele><time>2026-04-04T15:18:11.187Z</time></trkpt><trkpt lat="39.8451362" lon="18.3871646"><ele>41.33333333333333</ele><time>2026-04-04T15:18:12.186Z</time></trkpt><trkpt lat="39.845049" lon="18.3869589"><ele>35.666666666666664</ele><time>2026-04-04T15:18:13.187Z</time></trkpt><trkpt lat="39.8449816" lon="18.3867772"><ele>30.0</ele><time>2026-04-04T15:18:14.187Z</time></trkpt><trkpt lat="39.8449264" lon="18.3866042"><ele>30.0</ele><time>2026-04-04T15:18:15.187Z</time></trkpt><trkpt lat="39.8448824" lon="18.3864523"><ele>30.0</ele><time>2026-04-04T15:18:16.185Z</time></trkpt><trkpt lat="39.8448441" lon="18.3863145"><ele>30.0</ele><time>2026-04-04T15:18:17.186Z</time></trkpt><trkpt lat="39.8447965" lon="18.3861871"><ele>30.0</ele><time>2026-04-04T15:18:18.185Z</time></trkpt><trkpt lat="39.8447414" lon="18.3860723"><ele>32.4</ele><time>2026-04-04T15:18:19.187Z</time></trkpt><trkpt lat="39.8446676" lon="18.3859779"><ele>34.8</ele><time>2026-04-04T15:18:20.186Z</time></trkpt><trkpt lat="39.8445915" lon="18.3859039"><ele>37.2</ele><time>2026-04-04T15:18:21.188Z</time></trkpt><trkpt lat="39.8444944" lon="18.3858863"><ele>39.6</ele><time>2026-04-04T15:18:22.186Z</time></trkpt><trkpt lat="39.8444015" lon="18.3858594"><ele>42.0</ele><time>2026-04-04T15:18:23.188Z</time></trkpt><trkpt lat="39.8443178" lon="18.3858804"><ele>39.0</ele><time>2026-04-04T15:18:24.186Z</time></trkpt><trkpt lat="39.8442491" lon="18.3858909"><ele>36.0</ele><time>2026-04-04T15:18:25.186Z</time></trkpt><trkpt lat="39.8441822" lon="18.3859003"><ele>33.0</ele><time>2026-04-04T15:18:26.186Z</time></trkpt><trkpt lat="39.8441159" lon="18.3859196"><ele>30.0</ele><time>2026-04-04T15:18:27.187Z</time></trkpt><trkpt lat="39.8440435" lon="18.385938"><ele>27.0</ele><time>2026-04-04T15:18:28.188Z</time></trkpt><trkpt lat="39.8439657" lon="18.3859582"><ele>24.0</ele><time>2026-04-04T15:18:29.185Z</time></trkpt><trkpt lat="39.8438936" lon="18.3859837"><ele>21.0</ele><time>2026-04-04T15:18:30.186Z</time></trkpt><trkpt lat="39.843832" lon="18.3860145"><ele>21.0</ele><time>2026-04-04T15:18:31.186Z</time></trkpt><trkpt lat="39.8437623" lon="18.3860527"><ele>21.0</ele><time>2026-04-04T15:18:33.187Z</time></trkpt><trkpt lat="39.8437039" lon="18.3860888"><ele>21.0</ele><time>2026-04-04T15:18:37.187Z</time></trkpt><trkpt lat="39.8436063" lon="18.3860337"><ele>21.0</ele><time>2026-04-04T15:19:55.187Z</time></trkpt><trkpt lat="39.8435331" lon="18.3860168"><ele>21.0</ele><time>2026-04-04T15:19:56.186Z</time></trkpt><trkpt lat="39.8434343" lon="18.3859986"><ele>21.0</ele><time>2026-04-04T15:19:57.186Z</time></trkpt><trkpt lat="39.8433221" lon="18.3859718"><ele>22.25</ele><time>2026-04-04T15:19:58.187Z</time></trkpt><trkpt lat="39.8431879" lon="18.3859275"><ele>23.5</ele><time>2026-04-04T15:19:59.187Z</time></trkpt><trkpt lat="39.8430538" lon="18.3858729"><ele>24.75</ele><time>2026-04-04T15:20:00.188Z</time></trkpt><trkpt lat="39.8429067" lon="18.3857946"><ele>26.0</ele><time>2026-04-04T15:20:01.187Z</time></trkpt><trkpt lat="39.8427667" lon="18.3856943"><ele>26.0</ele><time>2026-04-04T15:20:02.186Z</time></trkpt><trkpt lat="39.8426387" lon="18.3855774"><ele>26.0</ele><time>2026-04-04T15:20:03.187Z</time></trkpt><trkpt lat="39.8425201" lon="18.3854396"><ele>26.0</ele><time>2026-04-04T15:20:04.188Z</time></trkpt><trkpt lat="39.842418" lon="18.3852808"><ele>31.0</ele><time>2026-04-04T15:20:05.187Z</time></trkpt><trkpt lat="39.8423281" lon="18.3851074"><ele>36.0</ele><time>2026-04-04T15:20:06.188Z</time></trkpt><trkpt lat="39.84224" lon="18.3849274"><ele>41.0</ele><time>2026-04-04T15:20:07.187Z</time></trkpt><trkpt lat="39.842151" lon="18.3847544"><ele>40.33333333333333</ele><time>2026-04-04T15:20:08.187Z</time></trkpt><trkpt lat="39.8420591" lon="18.384599"><ele>39.666666666666664</ele><time>2026-04-04T15:20:09.187Z</time></trkpt><trkpt lat="39.8419682" lon="18.3844593"><ele>39.0</ele><time>2026-04-04T15:20:10.187Z</time></trkpt><trkpt lat="39.8417635" lon="18.384248"><ele>39.0</ele><time>2026-04-04T15:20:12.187Z</time></trkpt><trkpt lat="39.8416346" lon="18.3841891"><ele>39.0</ele><time>2026-04-04T15:20:13.187Z</time></trkpt><trkpt lat="39.8414856" lon="18.3841638"><ele>39.0</ele><time>2026-04-04T15:20:14.187Z</time></trkpt><trkpt lat="39.8413139" lon="18.3841576"><ele>39.0</ele><time>2026-04-04T15:20:15.186Z</time></trkpt><trkpt lat="39.8411164" lon="18.3841856"><ele>39.0</ele><time>2026-04-04T15:20:16.186Z</time></trkpt><trkpt lat="39.8408995" lon="18.3842532"><ele>39.0</ele><time>2026-04-04T15:20:17.188Z</time></trkpt><trkpt lat="39.8406918" lon="18.3843329"><ele>44.33333333333333</ele><time>2026-04-04T15:20:18.187Z</time></trkpt><trkpt lat="39.8404881" lon="18.3844176"><ele>49.666666666666664</ele><time>2026-04-04T15:20:19.188Z</time></trkpt><trkpt lat="39.8403093" lon="18.3844922"><ele>55.0</ele><time>2026-04-04T15:20:20.187Z</time></trkpt><trkpt lat="39.8401539" lon="18.3845406"><ele>61.666666666666664</ele><time>2026-04-04T15:20:21.188Z</time></trkpt><trkpt lat="39.8399899" lon="18.384558"><ele>68.33333333333333</ele><time>2026-04-04T15:20:22.187Z</time></trkpt><trkpt lat="39.8398134" lon="18.3845554"><ele>75.0</ele><time>2026-04-04T15:20:23.187Z</time></trkpt><trkpt lat="39.8396364" lon="18.3845079"><ele>75.0</ele><time>2026-04-04T15:20:24.187Z</time></trkpt><trkpt lat="39.8394461" lon="18.3844187"><ele>75.0</ele><time>2026-04-04T15:20:25.187Z</time></trkpt><trkpt lat="39.8392507" lon="18.3843064"><ele>75.0</ele><time>2026-04-04T15:20:26.186Z</time></trkpt><trkpt lat="39.8390605" lon="18.3842096"><ele>72.66666666666667</ele><time>2026-04-04T15:20:27.187Z</time></trkpt><trkpt lat="39.8388495" lon="18.3841605"><ele>70.33333333333334</ele><time>2026-04-04T15:20:28.186Z</time></trkpt><trkpt lat="39.8386165" lon="18.3841525"><ele>68.0</ele><time>2026-04-04T15:20:29.188Z</time></trkpt><trkpt lat="39.8383576" lon="18.3841634"><ele>68.0</ele><time>2026-04-04T15:20:30.186Z</time></trkpt><trkpt lat="39.8380694" lon="18.3841806"><ele>68.0</ele><time>2026-04-04T15:20:31.187Z</time></trkpt><trkpt lat="39.8377853" lon="18.3841977"><ele>71.5</ele><time>2026-04-04T15:20:32.187Z</time></trkpt><trkpt lat="39.8375089" lon="18.3842124"><ele>75.0</ele><time>2026-04-04T15:20:33.187Z</time></trkpt><trkpt lat="39.837246" lon="18.3842302"><ele>75.0</ele><time>2026-04-04T15:20:34.187Z</time></trkpt><trkpt lat="39.8369965" lon="18.384246"><ele>75.0</ele><time>2026-04-04T15:20:35.186Z</time></trkpt><trkpt lat="39.8367481" lon="18.3842559"><ele>76.5</ele><time>2026-04-04T15:20:36.186Z</time></trkpt><trkpt lat="39.8364982" lon="18.3842536"><ele>78.0</ele><time>2026-04-04T15:20:37.186Z</time></trkpt><trkpt lat="39.8362462" lon="18.3842192"><ele>78.0</ele><time>2026-04-04T15:20:38.186Z</time></trkpt><trkpt lat="39.8359871" lon="18.384189"><ele>78.0</ele><time>2026-04-04T15:20:39.187Z</time></trkpt><trkpt lat="39.8357181" lon="18.384195"><ele>79.5</ele><time>2026-04-04T15:20:40.187Z</time></trkpt><trkpt lat="39.8354382" lon="18.3842352"><ele>81.0</ele><time>2026-04-04T15:20:41.187Z</time></trkpt><trkpt lat="39.8351588" lon="18.3842851"><ele>84.0</ele><time>2026-04-04T15:20:42.188Z</time></trkpt><trkpt lat="39.8348892" lon="18.3843344"><ele>87.0</ele><time>2026-04-04T15:20:43.187Z</time></trkpt><trkpt lat="39.8346237" lon="18.3843776"><ele>87.0</ele><time>2026-04-04T15:20:44.187Z</time></trkpt><trkpt lat="39.8343581" lon="18.3844082"><ele>87.0</ele><time>2026-04-04T15:20:45.187Z</time></trkpt><trkpt lat="39.8340881" lon="18.3844304"><ele>90.0</ele><time>2026-04-04T15:20:46.187Z</time></trkpt><trkpt lat="39.8338114" lon="18.3844504"><ele>93.0</ele><time>2026-04-04T15:20:47.187Z</time></trkpt><trkpt lat="39.8335294" lon="18.3844699"><ele>93.5</ele><time>2026-04-04T15:20:48.188Z</time></trkpt><trkpt lat="39.8332413" lon="18.3844908"><ele>94.0</ele><time>2026-04-04T15:20:49.187Z</time></trkpt><trkpt lat="39.8329548" lon="18.3845104"><ele>94.0</ele><time>2026-04-04T15:20:50.186Z</time></trkpt><trkpt lat="39.8326737" lon="18.3845305"><ele>94.0</ele><time>2026-04-04T15:20:51.187Z</time></trkpt><trkpt lat="39.8323977" lon="18.3845477"><ele>96.5</ele><time>2026-04-04T15:20:52.186Z</time></trkpt><trkpt lat="39.8321249" lon="18.384561"><ele>99.0</ele><time>2026-04-04T15:20:53.187Z</time></trkpt><trkpt lat="39.8318516" lon="18.3845775"><ele>101.0</ele><time>2026-04-04T15:20:54.187Z</time></trkpt><trkpt lat="39.8315746" lon="18.3846148"><ele>103.0</ele><time>2026-04-04T15:20:55.187Z</time></trkpt><trkpt lat="39.8312932" lon="18.3846809"><ele>96.0</ele><time>2026-04-04T15:20:56.188Z</time></trkpt><trkpt lat="39.8310086" lon="18.3847789"><ele>89.0</ele><time>2026-04-04T15:20:57.186Z</time></trkpt><trkpt lat="39.8307216" lon="18.3849106"><ele>89.0</ele><time>2026-04-04T15:20:58.187Z</time></trkpt><trkpt lat="39.8304356" lon="18.3850696"><ele>89.0</ele><time>2026-04-04T15:20:59.186Z</time></trkpt><trkpt lat="39.8301493" lon="18.3852454"><ele>96.0</ele><time>2026-04-04T15:21:00.187Z</time></trkpt><trkpt lat="39.829861" lon="18.3854225"><ele>103.0</ele><time>2026-04-04T15:21:01.187Z</time></trkpt><trkpt lat="39.8295676" lon="18.385601"><ele>94.5</ele><time>2026-04-04T15:21:02.187Z</time></trkpt><trkpt lat="39.829269" lon="18.3857826"><ele>86.0</ele><time>2026-04-04T15:21:03.187Z</time></trkpt><trkpt lat="39.8289655" lon="18.3859687"><ele>86.0</ele><time>2026-04-04T15:21:04.188Z</time></trkpt><trkpt lat="39.8286547" lon="18.3861565"><ele>86.0</ele><time>2026-04-04T15:21:05.186Z</time></trkpt><trkpt lat="39.828336" lon="18.3863495"><ele>80.5</ele><time>2026-04-04T15:21:06.186Z</time></trkpt><trkpt lat="39.8280103" lon="18.3865439"><ele>75.0</ele><time>2026-04-04T15:21:07.187Z</time></trkpt><trkpt lat="39.8276789" lon="18.3867455"><ele>86.5</ele><time>2026-04-04T15:21:08.186Z</time></trkpt><trkpt lat="39.827344" lon="18.386952"><ele>98.0</ele><time>2026-04-04T15:21:09.187Z</time></trkpt><trkpt lat="39.8270076" lon="18.3871592"><ele>88.5</ele><time>2026-04-04T15:21:10.187Z</time></trkpt><trkpt lat="39.8266786" lon="18.3873601"><ele>79.0</ele><time>2026-04-04T15:21:11.186Z</time></trkpt><trkpt lat="39.8263636" lon="18.3875532"><ele>79.0</ele><time>2026-04-04T15:21:12.186Z</time></trkpt><trkpt lat="39.8260627" lon="18.3877357"><ele>79.0</ele><time>2026-04-04T15:21:13.187Z</time></trkpt><trkpt lat="39.8257796" lon="18.3879077"><ele>76.5</ele><time>2026-04-04T15:21:14.187Z</time></trkpt><trkpt lat="39.8255182" lon="18.3880666"><ele>74.0</ele><time>2026-04-04T15:21:15.187Z</time></trkpt><trkpt lat="39.8252708" lon="18.3882133"><ele>84.5</ele><time>2026-04-04T15:21:16.188Z</time></trkpt><trkpt lat="39.8250245" lon="18.3883427"><ele>95.0</ele><time>2026-04-04T15:21:17.186Z</time></trkpt><trkpt lat="39.8247734" lon="18.3884584"><ele>95.0</ele><time>2026-04-04T15:21:18.187Z</time></trkpt><trkpt lat="39.8245176" lon="18.3885587"><ele>95.0</ele><time>2026-04-04T15:21:19.187Z</time></trkpt><trkpt lat="39.8242513" lon="18.3886363"><ele>98.0</ele><time>2026-04-04T15:21:20.186Z</time></trkpt><trkpt lat="39.8239717" lon="18.3886958"><ele>101.0</ele><time>2026-04-04T15:21:21.186Z</time></trkpt><trkpt lat="39.8236776" lon="18.3887461"><ele>102.0</ele><time>2026-04-04T15:21:22.187Z</time></trkpt><trkpt lat="39.8233729" lon="18.3887963"><ele>103.0</ele><time>2026-04-04T15:21:23.188Z</time></trkpt><trkpt lat="39.8230609" lon="18.3888442"><ele>97.0</ele><time>2026-04-04T15:21:24.187Z</time></trkpt><trkpt lat="39.8227444" lon="18.3888922"><ele>91.0</ele><time>2026-04-04T15:21:25.188Z</time></trkpt><trkpt lat="39.8224276" lon="18.3889389"><ele>90.0</ele><time>2026-04-04T15:21:26.188Z</time></trkpt><trkpt lat="39.8221154" lon="18.388984"><ele>89.0</ele><time>2026-04-04T15:21:27.187Z</time></trkpt><trkpt lat="39.8218159" lon="18.3890272"><ele>92.0</ele><time>2026-04-04T15:21:28.186Z</time></trkpt><trkpt lat="39.8215175" lon="18.3890633"><ele>95.0</ele><time>2026-04-04T15:21:29.186Z</time></trkpt><trkpt lat="39.8212152" lon="18.3890914"><ele>99.0</ele><time>2026-04-04T15:21:30.187Z</time></trkpt><trkpt lat="39.8209158" lon="18.3891115"><ele>103.0</ele><time>2026-04-04T15:21:31.187Z</time></trkpt><trkpt lat="39.8206285" lon="18.3891252"><ele>103.0</ele><time>2026-04-04T15:21:32.186Z</time></trkpt><trkpt lat="39.8203565" lon="18.3891349"><ele>103.0</ele><time>2026-04-04T15:21:33.186Z</time></trkpt><trkpt lat="39.8201044" lon="18.3891379"><ele>104.0</ele><time>2026-04-04T15:21:34.188Z</time></trkpt><trkpt lat="39.8198693" lon="18.3891326"><ele>105.0</ele><time>2026-04-04T15:21:35.188Z</time></trkpt><trkpt lat="39.8196507" lon="18.3891175"><ele>105.0</ele><time>2026-04-04T15:21:36.186Z</time></trkpt><trkpt lat="39.8194517" lon="18.3890754"><ele>105.0</ele><time>2026-04-04T15:21:37.188Z</time></trkpt><trkpt lat="39.8192507" lon="18.3889964"><ele>105.0</ele><time>2026-04-04T15:21:38.186Z</time></trkpt><trkpt lat="39.8190603" lon="18.3888884"><ele>110.0</ele><time>2026-04-04T15:21:39.186Z</time></trkpt><trkpt lat="39.8188831" lon="18.3887559"><ele>115.0</ele><time>2026-04-04T15:21:40.186Z</time></trkpt><trkpt lat="39.8187198" lon="18.3885989"><ele>120.0</ele><time>2026-04-04T15:21:41.186Z</time></trkpt><trkpt lat="39.8185685" lon="18.3884053"><ele>120.5</ele><time>2026-04-04T15:21:42.187Z</time></trkpt><trkpt lat="39.8184076" lon="18.3881743"><ele>121.0</ele><time>2026-04-04T15:21:43.186Z</time></trkpt><trkpt lat="39.8182358" lon="18.3879155"><ele>121.0</ele><time>2026-04-04T15:21:44.186Z</time></trkpt><trkpt lat="39.8180524" lon="18.3876335"><ele>121.0</ele><time>2026-04-04T15:21:45.186Z</time></trkpt><trkpt lat="39.8178598" lon="18.3873369"><ele>121.0</ele><time>2026-04-04T15:21:46.186Z</time></trkpt><trkpt lat="39.8176679" lon="18.3870435"><ele>121.0</ele><time>2026-04-04T15:21:47.186Z</time></trkpt><trkpt lat="39.8174773" lon="18.3867493"><ele>121.0</ele><time>2026-04-04T15:21:48.187Z</time></trkpt><trkpt lat="39.8172911" lon="18.3864631"><ele>121.0</ele><time>2026-04-04T15:21:49.187Z</time></trkpt><trkpt lat="39.8171095" lon="18.3861885"><ele>120.5</ele><time>2026-04-04T15:21:50.188Z</time></trkpt><trkpt lat="39.8169365" lon="18.3859247"><ele>120.0</ele><time>2026-04-04T15:21:51.187Z</time></trkpt><trkpt lat="39.816767" lon="18.3856655"><ele>122.5</ele><time>2026-04-04T15:21:52.187Z</time></trkpt><trkpt lat="39.8165969" lon="18.385409"><ele>125.0</ele><time>2026-04-04T15:21:53.186Z</time></trkpt><trkpt lat="39.8164242" lon="18.3851644"><ele>125.0</ele><time>2026-04-04T15:21:54.186Z</time></trkpt><trkpt lat="39.8162453" lon="18.3849349"><ele>125.0</ele><time>2026-04-04T15:21:55.187Z</time></trkpt><trkpt lat="39.8160576" lon="18.3847156"><ele>125.0</ele><time>2026-04-04T15:21:56.187Z</time></trkpt><trkpt lat="39.8158635" lon="18.3845128"><ele>125.0</ele><time>2026-04-04T15:21:57.187Z</time></trkpt><trkpt lat="39.8156551" lon="18.3843229"><ele>125.0</ele><time>2026-04-04T15:21:58.187Z</time></trkpt><trkpt lat="39.8154135" lon="18.384135"><ele>125.0</ele><time>2026-04-04T15:21:59.186Z</time></trkpt><trkpt lat="39.8151633" lon="18.3839378"><ele>124.0</ele><time>2026-04-04T15:22:00.187Z</time></trkpt><trkpt lat="39.8149436" lon="18.3837419"><ele>123.0</ele><time>2026-04-04T15:22:01.186Z</time></trkpt><trkpt lat="39.8147303" lon="18.3835463"><ele>123.0</ele><time>2026-04-04T15:22:02.187Z</time></trkpt><trkpt lat="39.8145077" lon="18.3833657"><ele>123.0</ele><time>2026-04-04T15:22:03.187Z</time></trkpt><trkpt lat="39.8142711" lon="18.3831972"><ele>121.5</ele><time>2026-04-04T15:22:04.187Z</time></trkpt><trkpt lat="39.8140236" lon="18.3830327"><ele>120.0</ele><time>2026-04-04T15:22:05.188Z</time></trkpt><trkpt lat="39.8137696" lon="18.3828743"><ele>120.0</ele><time>2026-04-04T15:22:06.188Z</time></trkpt><trkpt lat="39.813515" lon="18.3827193"><ele>120.0</ele><time>2026-04-04T15:22:07.188Z</time></trkpt><trkpt lat="39.813265" lon="18.3825628"><ele>118.0</ele><time>2026-04-04T15:22:08.187Z</time></trkpt><trkpt lat="39.8130179" lon="18.3824089"><ele>116.0</ele><time>2026-04-04T15:22:09.188Z</time></trkpt><trkpt lat="39.8127711" lon="18.3822608"><ele>120.0</ele><time>2026-04-04T15:22:10.187Z</time></trkpt><trkpt lat="39.8125281" lon="18.3821159"><ele>124.0</ele><time>2026-04-04T15:22:11.188Z</time></trkpt><trkpt lat="39.8122883" lon="18.3819717"><ele>124.0</ele><time>2026-04-04T15:22:12.187Z</time></trkpt><trkpt lat="39.8120506" lon="18.3818265"><ele>124.0</ele><time>2026-04-04T15:22:13.187Z</time></trkpt><trkpt lat="39.8118184" lon="18.3816832"><ele>122.0</ele><time>2026-04-04T15:22:14.187Z</time></trkpt><trkpt lat="39.8115849" lon="18.3815326"><ele>120.0</ele><time>2026-04-04T15:22:15.186Z</time></trkpt><trkpt lat="39.8113514" lon="18.3813656"><ele>120.0</ele><time>2026-04-04T15:22:16.187Z</time></trkpt><trkpt lat="39.811115" lon="18.3811799"><ele>120.0</ele><time>2026-04-04T15:22:17.187Z</time></trkpt><trkpt lat="39.8108758" lon="18.3809842"><ele>120.0</ele><time>2026-04-04T15:22:18.187Z</time></trkpt><trkpt lat="39.8106481" lon="18.3807904"><ele>120.0</ele><time>2026-04-04T15:22:19.187Z</time></trkpt><trkpt lat="39.8104296" lon="18.3806002"><ele>121.0</ele><time>2026-04-04T15:22:20.188Z</time></trkpt><trkpt lat="39.8102199" lon="18.3804178"><ele>122.0</ele><time>2026-04-04T15:22:21.187Z</time></trkpt><trkpt lat="39.810023" lon="18.3802486"><ele>122.0</ele><time>2026-04-04T15:22:22.188Z</time></trkpt><trkpt lat="39.8098369" lon="18.3800892"><ele>122.0</ele><time>2026-04-04T15:22:23.187Z</time></trkpt><trkpt lat="39.8096646" lon="18.3799344"><ele>122.0</ele><time>2026-04-04T15:22:24.186Z</time></trkpt><trkpt lat="39.809517" lon="18.3797775"><ele>122.33333333333333</ele><time>2026-04-04T15:22:25.186Z</time></trkpt><trkpt lat="39.8093999" lon="18.3795972"><ele>122.66666666666666</ele><time>2026-04-04T15:22:26.187Z</time></trkpt><trkpt lat="39.8093069" lon="18.379392"><ele>123.0</ele><time>2026-04-04T15:22:27.187Z</time></trkpt><trkpt lat="39.8092458" lon="18.3791697"><ele>120.0</ele><time>2026-04-04T15:22:28.186Z</time></trkpt><trkpt lat="39.8092108" lon="18.3789309"><ele>117.0</ele><time>2026-04-04T15:22:29.186Z</time></trkpt><trkpt lat="39.8091989" lon="18.3786771"><ele>114.0</ele><time>2026-04-04T15:22:30.186Z</time></trkpt><trkpt lat="39.8091939" lon="18.3784222"><ele>114.0</ele><time>2026-04-04T15:22:31.186Z</time></trkpt><trkpt lat="39.8091852" lon="18.3781838"><ele>114.0</ele><time>2026-04-04T15:22:32.186Z</time></trkpt><trkpt lat="39.8091495" lon="18.377961"><ele>114.0</ele><time>2026-04-04T15:22:33.186Z</time></trkpt><trkpt lat="39.8090785" lon="18.3777454"><ele>115.0</ele><time>2026-04-04T15:22:34.187Z</time></trkpt><trkpt lat="39.8089747" lon="18.3775485"><ele>116.0</ele><time>2026-04-04T15:22:35.188Z</time></trkpt><trkpt lat="39.80884" lon="18.3773828"><ele>117.0</ele><time>2026-04-04T15:22:36.188Z</time></trkpt><trkpt lat="39.8086856" lon="18.3772408"><ele>117.33333333333334</ele><time>2026-04-04T15:22:37.187Z</time></trkpt><trkpt lat="39.8085231" lon="18.3771048"><ele>117.66666666666667</ele><time>2026-04-04T15:22:38.187Z</time></trkpt><trkpt lat="39.8083576" lon="18.3769645"><ele>118.0</ele><time>2026-04-04T15:22:39.188Z</time></trkpt><trkpt lat="39.8081873" lon="18.3768264"><ele>118.0</ele><time>2026-04-04T15:22:40.186Z</time></trkpt><trkpt lat="39.8079977" lon="18.3766874"><ele>118.0</ele><time>2026-04-04T15:22:41.186Z</time></trkpt><trkpt lat="39.8077768" lon="18.3765505"><ele>118.5</ele><time>2026-04-04T15:22:42.187Z</time></trkpt><trkpt lat="39.80752" lon="18.3764119"><ele>119.0</ele><time>2026-04-04T15:22:43.187Z</time></trkpt><trkpt lat="39.8072366" lon="18.3762657"><ele>119.0</ele><time>2026-04-04T15:22:44.187Z</time></trkpt><trkpt lat="39.8069688" lon="18.3761301"><ele>119.0</ele><time>2026-04-04T15:22:45.186Z</time></trkpt><trkpt lat="39.806699" lon="18.3759982"><ele>115.5</ele><time>2026-04-04T15:22:46.186Z</time></trkpt><trkpt lat="39.8064343" lon="18.3758667"><ele>112.0</ele><time>2026-04-04T15:22:47.186Z</time></trkpt><trkpt lat="39.8061765" lon="18.3757374"><ele>110.5</ele><time>2026-04-04T15:22:48.188Z</time></trkpt><trkpt lat="39.8059257" lon="18.3756123"><ele>109.0</ele><time>2026-04-04T15:22:49.188Z</time></trkpt><trkpt lat="39.8056826" lon="18.375493"><ele>112.0</ele><time>2026-04-04T15:22:50.186Z</time></trkpt><trkpt lat="39.8054504" lon="18.375377"><ele>115.0</ele><time>2026-04-04T15:22:51.188Z</time></trkpt><trkpt lat="39.8052315" lon="18.375268"><ele>114.0</ele><time>2026-04-04T15:22:52.186Z</time></trkpt><trkpt lat="39.8050218" lon="18.3751726"><ele>113.0</ele><time>2026-04-04T15:22:53.186Z</time></trkpt><trkpt lat="39.8048101" lon="18.3751016"><ele>112.0</ele><time>2026-04-04T15:22:54.188Z</time></trkpt><trkpt lat="39.8045939" lon="18.3750693"><ele>112.0</ele><time>2026-04-04T15:22:55.187Z</time></trkpt><trkpt lat="39.80437" lon="18.3750831"><ele>112.0</ele><time>2026-04-04T15:22:56.186Z</time></trkpt><trkpt lat="39.8041314" lon="18.3751344"><ele>112.5</ele><time>2026-04-04T15:22:57.186Z</time></trkpt><trkpt lat="39.8038816" lon="18.375212"><ele>113.0</ele><time>2026-04-04T15:22:58.188Z</time></trkpt><trkpt lat="39.8036476" lon="18.3752987"><ele>113.5</ele><time>2026-04-04T15:22:59.186Z</time></trkpt><trkpt lat="39.8034211" lon="18.3753839"><ele>114.0</ele><time>2026-04-04T15:23:00.186Z</time></trkpt><trkpt lat="39.8032055" lon="18.375465"><ele>105.66666666666667</ele><time>2026-04-04T15:23:01.188Z</time></trkpt><trkpt lat="39.8030124" lon="18.3755364"><ele>97.33333333333334</ele><time>2026-04-04T15:23:02.187Z</time></trkpt><trkpt lat="39.8028178" lon="18.3755932"><ele>89.0</ele><time>2026-04-04T15:23:03.186Z</time></trkpt><trkpt lat="39.8026166" lon="18.3756111"><ele>89.0</ele><time>2026-04-04T15:23:04.186Z</time></trkpt><trkpt lat="39.8024179" lon="18.3755898"><ele>89.0</ele><time>2026-04-04T15:23:05.188Z</time></trkpt><trkpt lat="39.8022168" lon="18.3755277"><ele>89.0</ele><time>2026-04-04T15:23:06.187Z</time></trkpt><trkpt lat="39.8020192" lon="18.3754306"><ele>90.0</ele><time>2026-04-04T15:23:07.187Z</time></trkpt><trkpt lat="39.8018222" lon="18.3752877"><ele>91.0</ele><time>2026-04-04T15:23:08.186Z</time></trkpt><trkpt lat="39.8016115" lon="18.3751077"><ele>91.0</ele><time>2026-04-04T15:23:09.186Z</time></trkpt><trkpt lat="39.8013824" lon="18.3749032"><ele>91.0</ele><time>2026-04-04T15:23:10.186Z</time></trkpt><trkpt lat="39.8011491" lon="18.3746982"><ele>87.5</ele><time>2026-04-04T15:23:11.186Z</time></trkpt><trkpt lat="39.8009203" lon="18.3744971"><ele>84.0</ele><time>2026-04-04T15:23:12.187Z</time></trkpt><trkpt lat="39.8006946" lon="18.3742995"><ele>84.0</ele><time>2026-04-04T15:23:13.186Z</time></trkpt><trkpt lat="39.8004721" lon="18.3741031"><ele>84.0</ele><time>2026-04-04T15:23:14.186Z</time></trkpt><trkpt lat="39.8002515" lon="18.3739129"><ele>80.5</ele><time>2026-04-04T15:23:15.187Z</time></trkpt><trkpt lat="39.800039" lon="18.3737275"><ele>77.0</ele><time>2026-04-04T15:23:16.186Z</time></trkpt><trkpt lat="39.7998356" lon="18.3735366"><ele>77.0</ele><time>2026-04-04T15:23:17.186Z</time></trkpt><trkpt lat="39.799649" lon="18.3733415"><ele>77.0</ele><time>2026-04-04T15:23:18.186Z</time></trkpt><trkpt lat="39.7994718" lon="18.3731414"><ele>74.5</ele><time>2026-04-04T15:23:19.188Z</time></trkpt><trkpt lat="39.7993003" lon="18.3729392"><ele>72.0</ele><time>2026-04-04T15:23:20.187Z</time></trkpt><trkpt lat="39.7991337" lon="18.3727327"><ele>72.0</ele><time>2026-04-04T15:23:21.188Z</time></trkpt><trkpt lat="39.7989688" lon="18.3725194"><ele>72.0</ele><time>2026-04-04T15:23:22.186Z</time></trkpt><trkpt lat="39.7988049" lon="18.3723027"><ele>75.5</ele><time>2026-04-04T15:23:23.186Z</time></trkpt><trkpt lat="39.7986416" lon="18.372088"><ele>79.0</ele><time>2026-04-04T15:23:24.188Z</time></trkpt><trkpt lat="39.7984775" lon="18.3718746"><ele>70.0</ele><time>2026-04-04T15:23:25.186Z</time></trkpt><trkpt lat="39.7983126" lon="18.3716593"><ele>61.0</ele><time>2026-04-04T15:23:26.186Z</time></trkpt><trkpt lat="39.7981495" lon="18.3714427"><ele>64.5</ele><time>2026-04-04T15:23:27.186Z</time></trkpt><trkpt lat="39.7979897" lon="18.371222"><ele>68.0</ele><time>2026-04-04T15:23:28.187Z</time></trkpt><trkpt lat="39.79785" lon="18.3710044"><ele>68.0</ele><time>2026-04-04T15:23:29.187Z</time></trkpt><trkpt lat="39.7977399" lon="18.3707798"><ele>68.0</ele><time>2026-04-04T15:23:30.186Z</time></trkpt><trkpt lat="39.7976547" lon="18.3705396"><ele>68.0</ele><time>2026-04-04T15:23:31.188Z</time></trkpt><trkpt lat="39.7976061" lon="18.3702905"><ele>66.33333333333334</ele><time>2026-04-04T15:23:32.187Z</time></trkpt><trkpt lat="39.7975888" lon="18.3700333"><ele>64.66666666666667</ele><time>2026-04-04T15:23:33.188Z</time></trkpt><trkpt lat="39.7976065" lon="18.3697842"><ele>63.0</ele><time>2026-04-04T15:23:34.186Z</time></trkpt><trkpt lat="39.7976574" lon="18.3695454"><ele>64.0</ele><time>2026-04-04T15:23:35.187Z</time></trkpt><trkpt lat="39.7977373" lon="18.3693115"><ele>65.0</ele><time>2026-04-04T15:23:36.186Z</time></trkpt><trkpt lat="39.7978433" lon="18.3690934"><ele>66.0</ele><time>2026-04-04T15:23:37.187Z</time></trkpt><trkpt lat="39.7979718" lon="18.3689004"><ele>64.33333333333333</ele><time>2026-04-04T15:23:38.186Z</time></trkpt><trkpt lat="39.7981208" lon="18.3687385"><ele>62.666666666666664</ele><time>2026-04-04T15:23:39.187Z</time></trkpt><trkpt lat="39.798268" lon="18.3686082"><ele>61.0</ele><time>2026-04-04T15:23:40.187Z</time></trkpt><trkpt lat="39.7983857" lon="18.3685055"><ele>60.99999999999999</ele><time>2026-04-04T15:23:41.186Z</time></trkpt><trkpt lat="39.7984837" lon="18.368432"><ele>61.0</ele><time>2026-04-04T15:23:42.186Z</time></trkpt><trkpt lat="39.7985618" lon="18.3683867"><ele>61.0</ele><time>2026-04-04T15:23:43.188Z</time></trkpt><trkpt lat="39.7986407" lon="18.3683561"><ele>61.0</ele><time>2026-04-04T15:23:51.186Z</time></trkpt><trkpt lat="39.7987113" lon="18.3683497"><ele>60.99999999999999</ele><time>2026-04-04T15:23:53.186Z</time></trkpt><trkpt lat="39.7987865" lon="18.3682925"><ele>61.0</ele><time>2026-04-04T15:23:55.187Z</time></trkpt><trkpt lat="39.7987685" lon="18.3681634"><ele>61.0</ele><time>2026-04-04T15:23:57.186Z</time></trkpt><trkpt lat="39.7986847" lon="18.3681191"><ele>60.99999999999999</ele><time>2026-04-04T15:23:59.186Z</time></trkpt><trkpt lat="39.7985488" lon="18.3681482"><ele>60.99999999999999</ele><time>2026-04-04T15:24:01.188Z</time></trkpt><trkpt lat="39.7984585" lon="18.3681395"><ele>61.0</ele><time>2026-04-04T15:24:02.187Z</time></trkpt><trkpt lat="39.7983503" lon="18.3681009"><ele>61.0</ele><time>2026-04-04T15:24:03.188Z</time></trkpt><trkpt lat="39.7982318" lon="18.3680394"><ele>57.33333333333333</ele><time>2026-04-04T15:24:04.187Z</time></trkpt><trkpt lat="39.7980983" lon="18.3679701"><ele>53.66666666666667</ele><time>2026-04-04T15:24:05.187Z</time></trkpt><trkpt lat="39.7979516" lon="18.3679011"><ele>50.0</ele><time>2026-04-04T15:24:06.187Z</time></trkpt><trkpt lat="39.7977945" lon="18.3678442"><ele>50.5</ele><time>2026-04-04T15:24:07.187Z</time></trkpt><trkpt lat="39.7976379" lon="18.3678123"><ele>51.0</ele><time>2026-04-04T15:24:08.186Z</time></trkpt><trkpt lat="39.7974949" lon="18.3678043"><ele>51.5</ele><time>2026-04-04T15:24:09.187Z</time></trkpt><trkpt lat="39.7973643" lon="18.3678078"><ele>52.0</ele><time>2026-04-04T15:24:10.187Z</time></trkpt><trkpt lat="39.7972467" lon="18.3678221"><ele>52.0</ele><time>2026-04-04T15:24:11.187Z</time></trkpt><trkpt lat="39.797142" lon="18.3678472"><ele>52.0</ele><time>2026-04-04T15:24:12.187Z</time></trkpt><trkpt lat="39.7970471" lon="18.3678806"><ele>52.0</ele><time>2026-04-04T15:24:13.186Z</time></trkpt><trkpt lat="39.7969624" lon="18.3679119"><ele>52.0</ele><time>2026-04-04T15:24:14.188Z</time></trkpt><trkpt lat="39.7968617" lon="18.3679276"><ele>52.0</ele><time>2026-04-04T15:24:16.186Z</time></trkpt><trkpt lat="39.7967995" lon="18.3678443"><ele>51.49999999999999</ele><time>2026-04-04T15:24:19.187Z</time></trkpt><trkpt lat="39.7967373" lon="18.3677686"><ele>51.0</ele><time>2026-04-04T15:24:22.187Z</time></trkpt><trkpt lat="39.7966695" lon="18.3677688"><ele>50.5</ele><time>2026-04-04T15:24:24.188Z</time></trkpt><trkpt lat="39.7965646" lon="18.3677616"><ele>50.0</ele><time>2026-04-04T15:24:26.186Z</time></trkpt><trkpt lat="39.7964728" lon="18.3677697"><ele>49.49999999999999</ele><time>2026-04-04T15:24:28.187Z</time></trkpt><trkpt lat="39.7964059" lon="18.3677829"><ele>49.0</ele><time>2026-04-04T15:24:30.187Z</time></trkpt><trkpt lat="39.7963289" lon="18.3677892"><ele>48.99999999999999</ele><time>2026-04-04T15:24:34.186Z</time></trkpt><trkpt lat="39.7962457" lon="18.367788"><ele>49.0</ele><time>2026-04-04T15:24:37.188Z</time></trkpt><trkpt lat="39.796188" lon="18.367747"><ele>49.0</ele><time>2026-04-04T15:24:40.187Z</time></trkpt><trkpt lat="39.7961248" lon="18.3677439"><ele>49.0</ele><time>2026-04-04T15:29:37.185Z</time></trkpt><trkpt lat="39.7962137" lon="18.3677429"><ele>48.99999999999999</ele><time>2026-04-04T15:31:36.187Z</time></trkpt><trkpt lat="39.7963105" lon="18.3677531"><ele>49.0</ele><time>2026-04-04T15:31:38.187Z</time></trkpt><trkpt lat="39.7964229" lon="18.3677644"><ele>49.0</ele><time>2026-04-04T15:31:40.186Z</time></trkpt><trkpt lat="39.7965191" lon="18.3677731"><ele>49.0</ele><time>2026-04-04T15:31:42.186Z</time></trkpt><trkpt lat="39.7966104" lon="18.3677739"><ele>49.0</ele><time>2026-04-04T15:31:44.185Z</time></trkpt><trkpt lat="39.7967015" lon="18.3677608"><ele>49.0</ele><time>2026-04-04T15:31:46.185Z</time></trkpt><trkpt lat="39.7967729" lon="18.3678177"><ele>49.0</ele><time>2026-04-04T15:31:48.186Z</time></trkpt><trkpt lat="39.796813" lon="18.3679256"><ele>49.6</ele><time>2026-04-04T15:31:50.186Z</time></trkpt><trkpt lat="39.7969137" lon="18.3679426"><ele>50.2</ele><time>2026-04-04T15:31:52.185Z</time></trkpt><trkpt lat="39.7969882" lon="18.3679127"><ele>50.800000000000004</ele><time>2026-04-04T15:31:53.186Z</time></trkpt><trkpt lat="39.7970702" lon="18.367877"><ele>51.400000000000006</ele><time>2026-04-04T15:31:54.187Z</time></trkpt><trkpt lat="39.7971616" lon="18.3678475"><ele>52.0</ele><time>2026-04-04T15:31:55.186Z</time></trkpt><trkpt lat="39.7972603" lon="18.3678358"><ele>52.0</ele><time>2026-04-04T15:31:56.186Z</time></trkpt><trkpt lat="39.7973819" lon="18.3678376"><ele>52.0</ele><time>2026-04-04T15:31:57.187Z</time></trkpt><trkpt lat="39.7975181" lon="18.3678367"><ele>52.0</ele><time>2026-04-04T15:31:58.186Z</time></trkpt><trkpt lat="39.7976609" lon="18.36784"><ele>52.0</ele><time>2026-04-04T15:31:59.187Z</time></trkpt><trkpt lat="39.797799" lon="18.3678756"><ele>51.5</ele><time>2026-04-04T15:32:00.187Z</time></trkpt><trkpt lat="39.7979427" lon="18.3679344"><ele>51.0</ele><time>2026-04-04T15:32:01.187Z</time></trkpt><trkpt lat="39.7980852" lon="18.3680033"><ele>50.5</ele><time>2026-04-04T15:32:02.187Z</time></trkpt><trkpt lat="39.7982137" lon="18.3680688"><ele>50.0</ele><time>2026-04-04T15:32:03.186Z</time></trkpt><trkpt lat="39.7983213" lon="18.3681222"><ele>51.8</ele><time>2026-04-04T15:32:04.187Z</time></trkpt><trkpt lat="39.79841" lon="18.3681571"><ele>53.6</ele><time>2026-04-04T15:32:05.186Z</time></trkpt><trkpt lat="39.7984814" lon="18.3681708"><ele>55.400000000000006</ele><time>2026-04-04T15:32:06.186Z</time></trkpt><trkpt lat="39.7985866" lon="18.3682067"><ele>57.2</ele><time>2026-04-04T15:32:08.186Z</time></trkpt><trkpt lat="39.7986562" lon="18.3683067"><ele>59.0</ele><time>2026-04-04T15:32:10.187Z</time></trkpt><trkpt lat="39.798762" lon="18.3683136"><ele>59.0</ele><time>2026-04-04T15:32:12.185Z</time></trkpt><trkpt lat="39.7988275" lon="18.3682744"><ele>59.00000000000001</ele><time>2026-04-04T15:32:13.186Z</time></trkpt><trkpt lat="39.7989083" lon="18.3682382"><ele>59.00000000000001</ele><time>2026-04-04T15:32:14.186Z</time></trkpt><trkpt lat="39.7990069" lon="18.3682131"><ele>59.0</ele><time>2026-04-04T15:32:15.187Z</time></trkpt><trkpt lat="39.7991167" lon="18.3681843"><ele>59.0</ele><time>2026-04-04T15:32:16.187Z</time></trkpt><trkpt lat="39.7992256" lon="18.3681497"><ele>59.75</ele><time>2026-04-04T15:32:17.186Z</time></trkpt><trkpt lat="39.7993451" lon="18.3681117"><ele>60.5</ele><time>2026-04-04T15:32:18.186Z</time></trkpt><trkpt lat="39.7994675" lon="18.3680764"><ele>61.25</ele><time>2026-04-04T15:32:19.187Z</time></trkpt><trkpt lat="39.7995865" lon="18.3680452"><ele>62.0</ele><time>2026-04-04T15:32:20.186Z</time></trkpt><trkpt lat="39.7997077" lon="18.3680109"><ele>61.400000000000006</ele><time>2026-04-04T15:32:21.186Z</time></trkpt><trkpt lat="39.7998258" lon="18.3679756"><ele>60.800000000000004</ele><time>2026-04-04T15:32:22.186Z</time></trkpt><trkpt lat="39.7999369" lon="18.3679418"><ele>60.2</ele><time>2026-04-04T15:32:23.186Z</time></trkpt><trkpt lat="39.8000326" lon="18.367913"><ele>59.6</ele><time>2026-04-04T15:32:24.185Z</time></trkpt><trkpt lat="39.8001062" lon="18.3678938"><ele>59.0</ele><time>2026-04-04T15:32:25.187Z</time></trkpt><trkpt lat="39.8002002" lon="18.3678805"><ele>59.0</ele><time>2026-04-04T15:32:27.185Z</time></trkpt><trkpt lat="39.8002797" lon="18.3679004"><ele>59.0</ele><time>2026-04-04T15:32:30.186Z</time></trkpt><trkpt lat="39.8003733" lon="18.3679204"><ele>59.0</ele><time>2026-04-04T15:32:33.185Z</time></trkpt><trkpt lat="39.800441" lon="18.3679268"><ele>59.0</ele><time>2026-04-04T15:32:35.185Z</time></trkpt><trkpt lat="39.8005113" lon="18.3679264"><ele>59.0</ele><time>2026-04-04T15:32:38.187Z</time></trkpt><trkpt lat="39.800564" lon="18.3678809"><ele>59.0</ele><time>2026-04-04T15:35:10.186Z</time></trkpt><trkpt lat="39.8006303" lon="18.3678637"><ele>59.0</ele><time>2026-04-04T15:35:51.187Z</time></trkpt><trkpt lat="39.8006754" lon="18.3677976"><ele>59.00000000000001</ele><time>2026-04-04T15:35:54.186Z</time></trkpt><trkpt lat="39.8006731" lon="18.3677117"><ele>59.0</ele><time>2026-04-04T15:36:05.185Z</time></trkpt><trkpt lat="39.8006032" lon="18.3676951"><ele>59.0</ele><time>2026-04-04T15:36:07.186Z</time></trkpt><trkpt lat="39.8004828" lon="18.3677127"><ele>59.0</ele><time>2026-04-04T15:36:09.186Z</time></trkpt><trkpt lat="39.8004166" lon="18.3677357"><ele>59.00000000000001</ele><time>2026-04-04T15:36:10.186Z</time></trkpt><trkpt lat="39.8003332" lon="18.3677661"><ele>59.0</ele><time>2026-04-04T15:36:11.186Z</time></trkpt><trkpt lat="39.8002371" lon="18.3677945"><ele>57.75</ele><time>2026-04-04T15:36:12.186Z</time></trkpt><trkpt lat="39.8001428" lon="18.3678223"><ele>56.5</ele><time>2026-04-04T15:36:13.186Z</time></trkpt><trkpt lat="39.8000356" lon="18.3678524"><ele>55.25</ele><time>2026-04-04T15:36:14.185Z</time></trkpt><trkpt lat="39.7999196" lon="18.3678868"><ele>54.0</ele><time>2026-04-04T15:36:15.185Z</time></trkpt><trkpt lat="39.7997927" lon="18.3679254"><ele>54.0</ele><time>2026-04-04T15:36:16.186Z</time></trkpt><trkpt lat="39.7996688" lon="18.3679611"><ele>54.0</ele><time>2026-04-04T15:36:17.185Z</time></trkpt><trkpt lat="39.7995381" lon="18.368001"><ele>54.0</ele><time>2026-04-04T15:36:18.185Z</time></trkpt><trkpt lat="39.7994025" lon="18.3680415"><ele>54.0</ele><time>2026-04-04T15:36:19.185Z</time></trkpt><trkpt lat="39.7992717" lon="18.3680863"><ele>55.0</ele><time>2026-04-04T15:36:20.186Z</time></trkpt><trkpt lat="39.799153" lon="18.3681253"><ele>56.00000000000001</ele><time>2026-04-04T15:36:21.186Z</time></trkpt><trkpt lat="39.7990457" lon="18.3681606"><ele>57.00000000000001</ele><time>2026-04-04T15:36:22.186Z</time></trkpt><trkpt lat="39.7989614" lon="18.3681876"><ele>58.0</ele><time>2026-04-04T15:36:23.187Z</time></trkpt><trkpt lat="39.7988962" lon="18.3682011"><ele>59.0</ele><time>2026-04-04T15:36:24.186Z</time></trkpt><trkpt lat="39.7988375" lon="18.3681676"><ele>59.0</ele><time>2026-04-04T15:36:26.186Z</time></trkpt><trkpt lat="39.7988365" lon="18.3680678"><ele>59.0</ele><time>2026-04-04T15:36:29.187Z</time></trkpt><trkpt lat="39.7989551" lon="18.3679372"><ele>59.0</ele><time>2026-04-04T15:36:31.185Z</time></trkpt><trkpt lat="39.7990725" lon="18.3678422"><ele>59.0</ele><time>2026-04-04T15:36:32.187Z</time></trkpt><trkpt lat="39.799225" lon="18.367728"><ele>57.333333333333336</ele><time>2026-04-04T15:36:33.185Z</time></trkpt><trkpt lat="39.7993806" lon="18.3676157"><ele>55.66666666666667</ele><time>2026-04-04T15:36:34.185Z</time></trkpt><trkpt lat="39.7995312" lon="18.3675116"><ele>54.0</ele><time>2026-04-04T15:36:35.186Z</time></trkpt><trkpt lat="39.7996777" lon="18.3674067"><ele>54.0</ele><time>2026-04-04T15:36:36.186Z</time></trkpt><trkpt lat="39.799813" lon="18.3672993"><ele>54.0</ele><time>2026-04-04T15:36:37.185Z</time></trkpt><trkpt lat="39.7999385" lon="18.3671959"><ele>54.0</ele><time>2026-04-04T15:36:38.186Z</time></trkpt><trkpt lat="39.8000551" lon="18.3670965"><ele>54.0</ele><time>2026-04-04T15:36:39.185Z</time></trkpt><trkpt lat="39.8001543" lon="18.3670061"><ele>53.25</ele><time>2026-04-04T15:36:40.186Z</time></trkpt><trkpt lat="39.8002366" lon="18.3669108"><ele>52.5</ele><time>2026-04-04T15:36:41.185Z</time></trkpt><trkpt lat="39.8003065" lon="18.3668038"><ele>51.75</ele><time>2026-04-04T15:36:42.186Z</time></trkpt><trkpt lat="39.8003744" lon="18.3666669"><ele>51.0</ele><time>2026-04-04T15:36:43.186Z</time></trkpt><trkpt lat="39.8004378" lon="18.366507"><ele>48.75</ele><time>2026-04-04T15:36:44.186Z</time></trkpt><trkpt lat="39.800486" lon="18.366341"><ele>46.5</ele><time>2026-04-04T15:36:45.187Z</time></trkpt><trkpt lat="39.8005136" lon="18.3661755"><ele>44.25</ele><time>2026-04-04T15:36:46.186Z</time></trkpt><trkpt lat="39.8005243" lon="18.3659819"><ele>42.0</ele><time>2026-04-04T15:36:47.186Z</time></trkpt><trkpt lat="39.8005234" lon="18.3657774"><ele>42.0</ele><time>2026-04-04T15:36:48.186Z</time></trkpt><trkpt lat="39.8005005" lon="18.3655791"><ele>42.0</ele><time>2026-04-04T15:36:49.187Z</time></trkpt><trkpt lat="39.8004509" lon="18.3654037"><ele>42.0</ele><time>2026-04-04T15:36:50.187Z</time></trkpt><trkpt lat="39.8003753" lon="18.3652464"><ele>42.0</ele><time>2026-04-04T15:36:51.186Z</time></trkpt><trkpt lat="39.8002849" lon="18.3651077"><ele>40.0</ele><time>2026-04-04T15:36:52.186Z</time></trkpt><trkpt lat="39.8002025" lon="18.3649937"><ele>38.0</ele><time>2026-04-04T15:36:53.185Z</time></trkpt><trkpt lat="39.8001147" lon="18.3648894"><ele>36.0</ele><time>2026-04-04T15:36:54.185Z</time></trkpt><trkpt lat="39.8000025" lon="18.3647855"><ele>34.0</ele><time>2026-04-04T15:36:55.185Z</time></trkpt><trkpt lat="39.7998814" lon="18.3646631"><ele>30.666666666666668</ele><time>2026-04-04T15:36:56.185Z</time></trkpt><trkpt lat="39.7997626" lon="18.3645264"><ele>27.333333333333336</ele><time>2026-04-04T15:36:57.186Z</time></trkpt><trkpt lat="39.7996547" lon="18.3643935"><ele>24.0</ele><time>2026-04-04T15:36:58.187Z</time></trkpt><trkpt lat="39.7995503" lon="18.3642664"><ele>24.0</ele><time>2026-04-04T15:36:59.186Z</time></trkpt><trkpt lat="39.7994411" lon="18.3641433"><ele>24.0</ele><time>2026-04-04T15:37:00.186Z</time></trkpt><trkpt lat="39.7993261" lon="18.3640142"><ele>24.0</ele><time>2026-04-04T15:37:01.185Z</time></trkpt><trkpt lat="39.7992192" lon="18.363892"><ele>24.0</ele><time>2026-04-04T15:37:02.185Z</time></trkpt><trkpt lat="39.79913" lon="18.3637875"><ele>23.0</ele><time>2026-04-04T15:37:03.185Z</time></trkpt><trkpt lat="39.799056" lon="18.3636984"><ele>22.0</ele><time>2026-04-04T15:37:04.186Z</time></trkpt><trkpt lat="39.7989783" lon="18.3636205"><ele>21.0</ele><time>2026-04-04T15:37:05.187Z</time></trkpt><trkpt lat="39.7988995" lon="18.3635461"><ele>20.0</ele><time>2026-04-04T15:37:06.186Z</time></trkpt><trkpt lat="39.7988196" lon="18.363461"><ele>19.0</ele><time>2026-04-04T15:37:07.185Z</time></trkpt><trkpt lat="39.7987297" lon="18.3633706"><ele>19.0</ele><time>2026-04-04T15:37:08.186Z</time></trkpt><trkpt lat="39.7986377" lon="18.3632759"><ele>19.0</ele><time>2026-04-04T15:37:09.186Z</time></trkpt><trkpt lat="39.7985432" lon="18.3631687"><ele>19.0</ele><time>2026-04-04T15:37:10.186Z</time></trkpt><trkpt lat="39.7984489" lon="18.3630462"><ele>19.0</ele><time>2026-04-04T15:37:11.186Z</time></trkpt><trkpt lat="39.7983655" lon="18.362906"><ele>16.75</ele><time>2026-04-04T15:37:12.187Z</time></trkpt><trkpt lat="39.7983018" lon="18.3627597"><ele>14.5</ele><time>2026-04-04T15:37:13.187Z</time></trkpt><trkpt lat="39.7982647" lon="18.3626065"><ele>12.25</ele><time>2026-04-04T15:37:14.185Z</time></trkpt><trkpt lat="39.7982539" lon="18.36245"><ele>10.0</ele><time>2026-04-04T15:37:15.185Z</time></trkpt><trkpt lat="39.7982587" lon="18.3623019"><ele>9.0</ele><time>2026-04-04T15:37:16.186Z</time></trkpt><trkpt lat="39.7982725" lon="18.3621683"><ele>8.0</ele><time>2026-04-04T15:37:17.187Z</time></trkpt><trkpt lat="39.7982872" lon="18.3620426"><ele>7.0</ele><time>2026-04-04T15:37:18.186Z</time></trkpt><trkpt lat="39.7983001" lon="18.3619252"><ele>6.0</ele><time>2026-04-04T15:37:19.185Z</time></trkpt><trkpt lat="39.7983081" lon="18.3617822"><ele>5.0</ele><time>2026-04-04T15:37:20.186Z</time></trkpt><trkpt lat="39.7983298" lon="18.3616184"><ele>5.0</ele><time>2026-04-04T15:37:21.187Z</time></trkpt><trkpt lat="39.7983634" lon="18.3614683"><ele>5.0</ele><time>2026-04-04T15:37:22.187Z</time></trkpt><trkpt lat="39.7983932" lon="18.3613262"><ele>5.0</ele><time>2026-04-04T15:37:23.186Z</time></trkpt><trkpt lat="39.7984141" lon="18.3611955"><ele>5.0</ele><time>2026-04-04T15:37:24.185Z</time></trkpt><trkpt lat="39.7984307" lon="18.3610842"><ele>5.0</ele><time>2026-04-04T15:37:25.186Z</time></trkpt><trkpt lat="39.798444" lon="18.3609853"><ele>5.833333333333334</ele><time>2026-04-04T15:37:26.185Z</time></trkpt><trkpt lat="39.7984543" lon="18.3608973"><ele>6.666666666666667</ele><time>2026-04-04T15:37:27.186Z</time></trkpt><trkpt lat="39.7984572" lon="18.3608111"><ele>7.5</ele><time>2026-04-04T15:37:28.185Z</time></trkpt><trkpt lat="39.7984394" lon="18.3606508"><ele>8.333333333333334</ele><time>2026-04-04T15:37:30.185Z</time></trkpt><trkpt lat="39.7984136" lon="18.3605759"><ele>9.166666666666668</ele><time>2026-04-04T15:37:31.186Z</time></trkpt><trkpt lat="39.7983566" lon="18.3604326"><ele>10.0</ele><time>2026-04-04T15:37:33.186Z</time></trkpt><trkpt lat="39.7982943" lon="18.3602971"><ele>10.333333333333334</ele><time>2026-04-04T15:37:35.186Z</time></trkpt><trkpt lat="39.7982316" lon="18.3601567"><ele>10.666666666666668</ele><time>2026-04-04T15:37:37.186Z</time></trkpt><trkpt lat="39.7982033" lon="18.3600804"><ele>11.0</ele><time>2026-04-04T15:37:38.185Z</time></trkpt><trkpt lat="39.7981707" lon="18.3600063"><ele>11.333333333333334</ele><time>2026-04-04T15:37:39.185Z</time></trkpt><trkpt lat="39.7981338" lon="18.3599321"><ele>11.666666666666666</ele><time>2026-04-04T15:37:40.185Z</time></trkpt><trkpt lat="39.7980964" lon="18.3598593"><ele>12.0</ele><time>2026-04-04T15:37:41.186Z</time></trkpt><trkpt lat="39.7980237" lon="18.3597557"><ele>12.0</ele><time>2026-04-04T15:37:43.185Z</time></trkpt><trkpt lat="39.7979465" lon="18.3597109"><ele>12.0</ele><time>2026-04-04T15:37:45.186Z</time></trkpt><trkpt lat="39.7978849" lon="18.3597523"><ele>12.0</ele><time>2026-04-04T15:37:47.186Z</time></trkpt><trkpt lat="39.7978319" lon="18.3598202"><ele>12.0</ele><time>2026-04-04T15:37:49.186Z</time></trkpt><trkpt lat="39.7977763" lon="18.3598824"><ele>12.0</ele><time>2026-04-04T15:37:51.185Z</time></trkpt><trkpt lat="39.7977169" lon="18.3599539"><ele>12.0</ele><time>2026-04-04T15:37:53.186Z</time></trkpt><trkpt lat="39.79764" lon="18.3600254"><ele>12.0</ele><time>2026-04-04T15:37:55.186Z</time></trkpt><trkpt lat="39.7975462" lon="18.3600302"><ele>12.0</ele><time>2026-04-04T15:37:57.187Z</time></trkpt><trkpt lat="39.7974747" lon="18.3599579"><ele>12.0</ele><time>2026-04-04T15:37:59.186Z</time></trkpt><trkpt lat="39.797412" lon="18.3598598"><ele>12.0</ele><time>2026-04-04T15:38:01.186Z</time></trkpt><trkpt lat="39.7973522" lon="18.3597466"><ele>12.0</ele><time>2026-04-04T15:38:03.187Z</time></trkpt><trkpt lat="39.7972908" lon="18.3596049"><ele>12.0</ele><time>2026-04-04T15:38:05.185Z</time></trkpt><trkpt lat="39.797261" lon="18.3595306"><ele>12.0</ele><time>2026-04-04T15:38:06.186Z</time></trkpt><trkpt lat="39.7972309" lon="18.3594531"><ele>12.0</ele><time>2026-04-04T15:38:07.186Z</time></trkpt><trkpt lat="39.7972036" lon="18.3593701"><ele>12.0</ele><time>2026-04-04T15:38:08.186Z</time></trkpt><trkpt lat="39.797162" lon="18.3592251"><ele>12.0</ele><time>2026-04-04T15:38:10.186Z</time></trkpt><trkpt lat="39.7971222" lon="18.3590741"><ele>12.0</ele><time>2026-04-04T15:38:12.185Z</time></trkpt><trkpt lat="39.7970974" lon="18.3589841"><ele>12.0</ele><time>2026-04-04T15:38:13.185Z</time></trkpt><trkpt lat="39.7970706" lon="18.3588835"><ele>12.0</ele><time>2026-04-04T15:38:14.186Z</time></trkpt><trkpt lat="39.7970397" lon="18.3587685"><ele>12.0</ele><time>2026-04-04T15:38:15.186Z</time></trkpt><trkpt lat="39.7970092" lon="18.3586523"><ele>12.0</ele><time>2026-04-04T15:38:16.185Z</time></trkpt><trkpt lat="39.7969792" lon="18.3585255"><ele>12.0</ele><time>2026-04-04T15:38:17.185Z</time></trkpt><trkpt lat="39.796948" lon="18.3583899"><ele>12.0</ele><time>2026-04-04T15:38:18.186Z</time></trkpt><trkpt lat="39.7969138" lon="18.3582477"><ele>12.0</ele><time>2026-04-04T15:38:19.185Z</time></trkpt><trkpt lat="39.796877" lon="18.3580999"><ele>12.0</ele><time>2026-04-04T15:38:20.186Z</time></trkpt><trkpt lat="39.7968379" lon="18.3579443"><ele>12.0</ele><time>2026-04-04T15:38:21.186Z</time></trkpt><trkpt lat="39.7967963" lon="18.3577855"><ele>10.5</ele><time>2026-04-04T15:38:22.186Z</time></trkpt><trkpt lat="39.7967521" lon="18.357621"><ele>9.0</ele><time>2026-04-04T15:38:23.185Z</time></trkpt><trkpt lat="39.7967076" lon="18.3574521"><ele>7.5</ele><time>2026-04-04T15:38:24.187Z</time></trkpt><trkpt lat="39.7966625" lon="18.3572804"><ele>6.0</ele><time>2026-04-04T15:38:25.186Z</time></trkpt><trkpt lat="39.7966164" lon="18.3571098"><ele>6.0</ele><time>2026-04-04T15:38:26.186Z</time></trkpt><trkpt lat="39.7965713" lon="18.3569409"><ele>6.0</ele><time>2026-04-04T15:38:27.187Z</time></trkpt><trkpt lat="39.7965263" lon="18.3567772"><ele>6.0</ele><time>2026-04-04T15:38:28.186Z</time></trkpt><trkpt lat="39.796484" lon="18.3566194"><ele>6.0</ele><time>2026-04-04T15:38:29.186Z</time></trkpt><trkpt lat="39.796446" lon="18.3564773"><ele>6.199999999999999</ele><time>2026-04-04T15:38:30.187Z</time></trkpt><trkpt lat="39.796411" lon="18.3563448"><ele>6.3999999999999995</ele><time>2026-04-04T15:38:31.186Z</time></trkpt><trkpt lat="39.7963772" lon="18.3562246"><ele>6.6</ele><time>2026-04-04T15:38:32.185Z</time></trkpt><trkpt lat="39.796348" lon="18.356135"><ele>6.8</ele><time>2026-04-04T15:38:33.186Z</time></trkpt><trkpt lat="39.7963058" lon="18.3560014"><ele>7.0</ele><time>2026-04-04T15:38:35.185Z</time></trkpt><trkpt lat="39.7962746" lon="18.3558854"><ele>7.000000000000001</ele><time>2026-04-04T15:38:37.185Z</time></trkpt><trkpt lat="39.7962348" lon="18.3557406"><ele>7.0</ele><time>2026-04-04T15:38:39.186Z</time></trkpt><trkpt lat="39.7962077" lon="18.3556396"><ele>7.0</ele><time>2026-04-04T15:38:40.186Z</time></trkpt><trkpt lat="39.7961843" lon="18.3555394"><ele>7.0</ele><time>2026-04-04T15:38:41.186Z</time></trkpt><trkpt lat="39.7961612" lon="18.3554383"><ele>7.000000000000001</ele><time>2026-04-04T15:38:42.185Z</time></trkpt><trkpt lat="39.7961362" lon="18.3553476"><ele>7.0</ele><time>2026-04-04T15:38:43.186Z</time></trkpt><trkpt lat="39.7961148" lon="18.3552691"><ele>7.000000000000001</ele><time>2026-04-04T15:38:44.186Z</time></trkpt><trkpt lat="39.7960768" lon="18.3551367"><ele>7.0</ele><time>2026-04-04T15:38:46.186Z</time></trkpt><trkpt lat="39.7960455" lon="18.3550344"><ele>7.0</ele><time>2026-04-04T15:38:48.186Z</time></trkpt><trkpt lat="39.7960218" lon="18.3549366"><ele>7.0</ele><time>2026-04-04T15:38:50.185Z</time></trkpt><trkpt lat="39.7960149" lon="18.3548228"><ele>7.000000000000001</ele><time>2026-04-04T15:38:52.186Z</time></trkpt><trkpt lat="39.7960412" lon="18.3547336"><ele>7.0</ele><time>2026-04-04T15:38:54.185Z</time></trkpt><trkpt lat="39.7960968" lon="18.3546719"><ele>7.000000000000001</ele><time>2026-04-04T15:38:56.187Z</time></trkpt><trkpt lat="39.7961185" lon="18.3545493"><ele>7.0</ele><time>2026-04-04T15:38:58.186Z</time></trkpt><trkpt lat="39.796115" lon="18.354394"><ele>7.0</ele><time>2026-04-04T15:39:00.185Z</time></trkpt><trkpt lat="39.7961355" lon="18.3543119"><ele>7.0</ele><time>2026-04-04T15:39:01.185Z</time></trkpt><trkpt lat="39.7961617" lon="18.3542277"><ele>7.000000000000001</ele><time>2026-04-04T15:39:02.186Z</time></trkpt><trkpt lat="39.7961942" lon="18.35414"><ele>7.0</ele><time>2026-04-04T15:39:03.185Z</time></trkpt><trkpt lat="39.7962311" lon="18.3540534"><ele>7.000000000000001</ele><time>2026-04-04T15:39:04.186Z</time></trkpt><trkpt lat="39.7962649" lon="18.3539743"><ele>7.0</ele><time>2026-04-04T15:39:05.186Z</time></trkpt><trkpt lat="39.7962976" lon="18.3538489"><ele>7.0</ele><time>2026-04-04T15:39:07.186Z</time></trkpt><trkpt lat="39.796305" lon="18.3537381"><ele>7.0</ele><time>2026-04-04T15:39:10.187Z</time></trkpt><trkpt lat="39.7962917" lon="18.3536269"><ele>7.000000000000001</ele><time>2026-04-04T15:39:13.185Z</time></trkpt><trkpt lat="39.7962848" lon="18.3535278"><ele>7.0</ele><time>2026-04-04T15:39:15.185Z</time></trkpt><trkpt lat="39.7962814" lon="18.3534361"><ele>6.833333333333334</ele><time>2026-04-04T15:39:17.185Z</time></trkpt><trkpt lat="39.7962636" lon="18.3533335"><ele>6.666666666666667</ele><time>2026-04-04T15:39:19.186Z</time></trkpt><trkpt lat="39.7962425" lon="18.3531949"><ele>6.5</ele><time>2026-04-04T15:39:21.186Z</time></trkpt><trkpt lat="39.7962302" lon="18.3531132"><ele>6.333333333333334</ele><time>2026-04-04T15:39:22.186Z</time></trkpt><trkpt lat="39.796213" lon="18.3530299"><ele>6.166666666666667</ele><time>2026-04-04T15:39:23.185Z</time></trkpt><trkpt lat="39.7961909" lon="18.3529457"><ele>6.0</ele><time>2026-04-04T15:39:24.186Z</time></trkpt><trkpt lat="39.796159" lon="18.3528571"><ele>6.0</ele><time>2026-04-04T15:39:25.185Z</time></trkpt><trkpt lat="39.7961152" lon="18.3527703"><ele>6.0</ele><time>2026-04-04T15:39:26.186Z</time></trkpt><trkpt lat="39.7960662" lon="18.3526795"><ele>6.0</ele><time>2026-04-04T15:39:27.186Z</time></trkpt><trkpt lat="39.7960121" lon="18.3525858"><ele>6.0</ele><time>2026-04-04T15:39:28.186Z</time></trkpt><trkpt lat="39.795953" lon="18.3524956"><ele>6.0</ele><time>2026-04-04T15:39:29.187Z</time></trkpt><trkpt lat="39.7958904" lon="18.3524139"><ele>6.0</ele><time>2026-04-04T15:39:30.187Z</time></trkpt><trkpt lat="39.7958221" lon="18.3523324"><ele>6.0</ele><time>2026-04-04T15:39:31.186Z</time></trkpt><trkpt lat="39.795748" lon="18.3522601"><ele>6.0</ele><time>2026-04-04T15:39:32.186Z</time></trkpt><trkpt lat="39.7956692" lon="18.3521933"><ele>6.0</ele><time>2026-04-04T15:39:33.187Z</time></trkpt><trkpt lat="39.7955939" lon="18.3521349"><ele>6.0</ele><time>2026-04-04T15:39:34.187Z</time></trkpt><trkpt lat="39.7955261" lon="18.3520825"><ele>6.0</ele><time>2026-04-04T15:39:35.185Z</time></trkpt><trkpt lat="39.7954682" lon="18.3520257"><ele>6.0</ele><time>2026-04-04T15:39:36.185Z</time></trkpt><trkpt lat="39.7954095" lon="18.3519617"><ele>7.0</ele><time>2026-04-04T15:39:37.185Z</time></trkpt><trkpt lat="39.7953341" lon="18.3518935"><ele>8.0</ele><time>2026-04-04T15:39:38.186Z</time></trkpt><trkpt lat="39.7952318" lon="18.3518218"><ele>9.0</ele><time>2026-04-04T15:39:39.185Z</time></trkpt><trkpt lat="39.7951285" lon="18.3517633"><ele>10.0</ele><time>2026-04-04T15:39:40.185Z</time></trkpt><trkpt lat="39.7950205" lon="18.3517176"><ele>11.0</ele><time>2026-04-04T15:39:41.185Z</time></trkpt><trkpt lat="39.7949182" lon="18.3516841"><ele>11.0</ele><time>2026-04-04T15:39:42.185Z</time></trkpt><trkpt lat="39.7948265" lon="18.3516537"><ele>11.0</ele><time>2026-04-04T15:39:43.185Z</time></trkpt><trkpt lat="39.7947426" lon="18.3516233"><ele>11.0</ele><time>2026-04-04T15:39:44.185Z</time></trkpt><trkpt lat="39.7946699" lon="18.3515953"><ele>11.0</ele><time>2026-04-04T15:39:45.185Z</time></trkpt><trkpt lat="39.7946089" lon="18.3515684"><ele>11.0</ele><time>2026-04-04T15:39:46.185Z</time></trkpt><trkpt lat="39.7945052" lon="18.3515051"><ele>11.0</ele><time>2026-04-04T15:39:48.185Z</time></trkpt><trkpt lat="39.7943974" lon="18.351421"><ele>11.142857142857142</ele><time>2026-04-04T15:39:50.186Z</time></trkpt><trkpt lat="39.7943396" lon="18.3513686"><ele>11.285714285714285</ele><time>2026-04-04T15:39:51.186Z</time></trkpt><trkpt lat="39.7942814" lon="18.3513088"><ele>11.428571428571427</ele><time>2026-04-04T15:39:52.185Z</time></trkpt><trkpt lat="39.7942236" lon="18.3512448"><ele>11.571428571428571</ele><time>2026-04-04T15:39:53.185Z</time></trkpt><trkpt lat="39.7941684" lon="18.3511793"><ele>11.714285714285714</ele><time>2026-04-04T15:39:54.186Z</time></trkpt><trkpt lat="39.7941133" lon="18.3511189"><ele>11.857142857142856</ele><time>2026-04-04T15:39:55.186Z</time></trkpt><trkpt lat="39.7940546" lon="18.3510686"><ele>12.0</ele><time>2026-04-04T15:39:56.185Z</time></trkpt><trkpt lat="39.7939919" lon="18.351034"><ele>11.999999999999998</ele><time>2026-04-04T15:39:57.186Z</time></trkpt><trkpt lat="39.7939253" lon="18.3510092"><ele>12.0</ele><time>2026-04-04T15:39:58.185Z</time></trkpt><trkpt lat="39.7938548" lon="18.3510003"><ele>12.0</ele><time>2026-04-04T15:39:59.186Z</time></trkpt><trkpt lat="39.793784" lon="18.3510092"><ele>12.0</ele><time>2026-04-04T15:40:00.185Z</time></trkpt><trkpt lat="39.7937204" lon="18.3510355"><ele>12.0</ele><time>2026-04-04T15:40:01.186Z</time></trkpt><trkpt lat="39.7936229" lon="18.3510666"><ele>11.999999999999998</ele><time>2026-04-04T15:40:03.185Z</time></trkpt><trkpt lat="39.7935628" lon="18.3510332"><ele>12.0</ele><time>2026-04-04T15:40:05.186Z</time></trkpt><trkpt lat="39.7935321" lon="18.3509504"><ele>12.0</ele><time>2026-04-04T15:40:07.186Z</time></trkpt><trkpt lat="39.7935262" lon="18.3508298"><ele>12.0</ele><time>2026-04-04T15:40:09.185Z</time></trkpt><trkpt lat="39.7935297" lon="18.3506873"><ele>12.0</ele><time>2026-04-04T15:40:11.185Z</time></trkpt><trkpt lat="39.7935322" lon="18.3506021"><ele>12.0</ele><time>2026-04-04T15:40:12.185Z</time></trkpt><trkpt lat="39.793533" lon="18.3505111"><ele>12.0</ele><time>2026-04-04T15:40:13.185Z</time></trkpt><trkpt lat="39.7935347" lon="18.3504132"><ele>12.0</ele><time>2026-04-04T15:40:14.185Z</time></trkpt><trkpt lat="39.793534" lon="18.3502933"><ele>11.75</ele><time>2026-04-04T15:40:15.186Z</time></trkpt><trkpt lat="39.7935265" lon="18.3501302"><ele>11.5</ele><time>2026-04-04T15:40:16.185Z</time></trkpt><trkpt lat="39.7935244" lon="18.349945"><ele>11.25</ele><time>2026-04-04T15:40:17.187Z</time></trkpt><trkpt lat="39.7935372" lon="18.3497511"><ele>11.0</ele><time>2026-04-04T15:40:18.186Z</time></trkpt><trkpt lat="39.7935528" lon="18.3495577"><ele>12.333333333333332</ele><time>2026-04-04T15:40:19.186Z</time></trkpt><trkpt lat="39.7935654" lon="18.3493622"><ele>13.666666666666666</ele><time>2026-04-04T15:40:20.186Z</time></trkpt><trkpt lat="39.7935685" lon="18.3491623"><ele>15.0</ele><time>2026-04-04T15:40:21.186Z</time></trkpt><trkpt lat="39.7935535" lon="18.3489646"><ele>14.666666666666668</ele><time>2026-04-04T15:40:22.185Z</time></trkpt><trkpt lat="39.7935183" lon="18.3487715"><ele>14.333333333333334</ele><time>2026-04-04T15:40:23.185Z</time></trkpt><trkpt lat="39.7934642" lon="18.348585"><ele>14.0</ele><time>2026-04-04T15:40:24.185Z</time></trkpt><trkpt lat="39.7933943" lon="18.3484082"><ele>14.0</ele><time>2026-04-04T15:40:25.185Z</time></trkpt><trkpt lat="39.7933145" lon="18.348238"><ele>14.0</ele><time>2026-04-04T15:40:26.186Z</time></trkpt><trkpt lat="39.7932314" lon="18.3480733"><ele>14.0</ele><time>2026-04-04T15:40:27.186Z</time></trkpt><trkpt lat="39.7931463" lon="18.3479108"><ele>15.5</ele><time>2026-04-04T15:40:28.186Z</time></trkpt><trkpt lat="39.7930652" lon="18.3477509"><ele>17.0</ele><time>2026-04-04T15:40:29.187Z</time></trkpt><trkpt lat="39.7929901" lon="18.3475939"><ele>18.5</ele><time>2026-04-04T15:40:30.186Z</time></trkpt><trkpt lat="39.7929172" lon="18.3474421"><ele>20.0</ele><time>2026-04-04T15:40:31.186Z</time></trkpt><trkpt lat="39.7928473" lon="18.3472897"><ele>21.0</ele><time>2026-04-04T15:40:32.185Z</time></trkpt><trkpt lat="39.7927809" lon="18.3471351"><ele>22.0</ele><time>2026-04-04T15:40:33.186Z</time></trkpt><trkpt lat="39.7927191" lon="18.3469764"><ele>23.0</ele><time>2026-04-04T15:40:34.185Z</time></trkpt><trkpt lat="39.7926636" lon="18.3468108"><ele>24.0</ele><time>2026-04-04T15:40:35.185Z</time></trkpt><trkpt lat="39.7926152" lon="18.3466389"><ele>23.25</ele><time>2026-04-04T15:40:36.186Z</time></trkpt><trkpt lat="39.7925736" lon="18.3464641"><ele>22.5</ele><time>2026-04-04T15:40:37.185Z</time></trkpt><trkpt lat="39.7925408" lon="18.3462869"><ele>21.75</ele><time>2026-04-04T15:40:38.185Z</time></trkpt><trkpt lat="39.7925153" lon="18.346107"><ele>21.0</ele><time>2026-04-04T15:40:39.187Z</time></trkpt><trkpt lat="39.7925004" lon="18.3459242"><ele>21.0</ele><time>2026-04-04T15:40:40.186Z</time></trkpt><trkpt lat="39.7924942" lon="18.3457394"><ele>21.0</ele><time>2026-04-04T15:40:41.186Z</time></trkpt><trkpt lat="39.7924975" lon="18.3455462"><ele>21.0</ele><time>2026-04-04T15:40:42.185Z</time></trkpt><trkpt lat="39.7925112" lon="18.3453428"><ele>21.0</ele><time>2026-04-04T15:40:43.185Z</time></trkpt><trkpt lat="39.7925373" lon="18.3451323"><ele>22.0</ele><time>2026-04-04T15:40:44.185Z</time></trkpt><trkpt lat="39.7925738" lon="18.3449171"><ele>23.0</ele><time>2026-04-04T15:40:45.185Z</time></trkpt><trkpt lat="39.7926207" lon="18.3446993"><ele>24.0</ele><time>2026-04-04T15:40:46.185Z</time></trkpt><trkpt lat="39.7926791" lon="18.3444817"><ele>24.0</ele><time>2026-04-04T15:40:47.186Z</time></trkpt><trkpt lat="39.7927522" lon="18.3442687"><ele>24.0</ele><time>2026-04-04T15:40:48.186Z</time></trkpt><trkpt lat="39.7928383" lon="18.3440594"><ele>24.0</ele><time>2026-04-04T15:40:49.185Z</time></trkpt><trkpt lat="39.7929373" lon="18.3438538"><ele>22.333333333333332</ele><time>2026-04-04T15:40:50.185Z</time></trkpt><trkpt lat="39.7930499" lon="18.3436533"><ele>20.666666666666664</ele><time>2026-04-04T15:40:51.186Z</time></trkpt><trkpt lat="39.793174" lon="18.3434596"><ele>19.0</ele><time>2026-04-04T15:40:52.187Z</time></trkpt><trkpt lat="39.7933124" lon="18.3432767"><ele>19.0</ele><time>2026-04-04T15:40:53.187Z</time></trkpt><trkpt lat="39.7934651" lon="18.3431078"><ele>19.0</ele><time>2026-04-04T15:40:54.185Z</time></trkpt><trkpt lat="39.7936309" lon="18.3429568"><ele>19.0</ele><time>2026-04-04T15:40:55.185Z</time></trkpt><trkpt lat="39.7938025" lon="18.3428137"><ele>17.666666666666664</ele><time>2026-04-04T15:40:56.186Z</time></trkpt><trkpt lat="39.7939759" lon="18.3426716"><ele>16.333333333333332</ele><time>2026-04-04T15:40:57.186Z</time></trkpt><trkpt lat="39.7941514" lon="18.3425301"><ele>15.0</ele><time>2026-04-04T15:40:58.187Z</time></trkpt><trkpt lat="39.7943277" lon="18.342389"><ele>16.333333333333332</ele><time>2026-04-04T15:40:59.187Z</time></trkpt><trkpt lat="39.7945036" lon="18.3422464"><ele>17.666666666666664</ele><time>2026-04-04T15:41:00.185Z</time></trkpt><trkpt lat="39.7946794" lon="18.3421038"><ele>19.0</ele><time>2026-04-04T15:41:01.185Z</time></trkpt><trkpt lat="39.7948562" lon="18.3419618"><ele>19.0</ele><time>2026-04-04T15:41:02.185Z</time></trkpt><trkpt lat="39.7950337" lon="18.3418198"><ele>19.0</ele><time>2026-04-04T15:41:03.185Z</time></trkpt><trkpt lat="39.7952132" lon="18.3416799"><ele>19.0</ele><time>2026-04-04T15:41:04.186Z</time></trkpt><trkpt lat="39.7953949" lon="18.3415405"><ele>18.666666666666664</ele><time>2026-04-04T15:41:05.185Z</time></trkpt><trkpt lat="39.7955741" lon="18.3413966"><ele>18.333333333333332</ele><time>2026-04-04T15:41:06.187Z</time></trkpt><trkpt lat="39.7957402" lon="18.3412355"><ele>18.0</ele><time>2026-04-04T15:41:07.186Z</time></trkpt><trkpt lat="39.7958882" lon="18.341049"><ele>19.0</ele><time>2026-04-04T15:41:08.186Z</time></trkpt><trkpt lat="39.7960154" lon="18.3408433"><ele>20.0</ele><time>2026-04-04T15:41:09.185Z</time></trkpt><trkpt lat="39.7961169" lon="18.3406132"><ele>21.0</ele><time>2026-04-04T15:41:10.186Z</time></trkpt><trkpt lat="39.7961843" lon="18.3403693"><ele>21.0</ele><time>2026-04-04T15:41:11.186Z</time></trkpt><trkpt lat="39.7962228" lon="18.3401118"><ele>21.0</ele><time>2026-04-04T15:41:12.185Z</time></trkpt><trkpt lat="39.7962351" lon="18.3398459"><ele>21.0</ele><time>2026-04-04T15:41:13.186Z</time></trkpt><trkpt lat="39.796236" lon="18.339572"><ele>21.0</ele><time>2026-04-04T15:41:14.186Z</time></trkpt><trkpt lat="39.7962368" lon="18.3392935"><ele>21.0</ele><time>2026-04-04T15:41:15.185Z</time></trkpt><trkpt lat="39.7962397" lon="18.3390102"><ele>21.0</ele><time>2026-04-04T15:41:16.186Z</time></trkpt><trkpt lat="39.7962436" lon="18.3387229"><ele>20.5</ele><time>2026-04-04T15:41:17.187Z</time></trkpt><trkpt lat="39.7962474" lon="18.3384316"><ele>20.0</ele><time>2026-04-04T15:41:18.186Z</time></trkpt><trkpt lat="39.7962486" lon="18.3381366"><ele>19.666666666666668</ele><time>2026-04-04T15:41:19.186Z</time></trkpt><trkpt lat="39.79625" lon="18.3378428"><ele>19.333333333333332</ele><time>2026-04-04T15:41:20.185Z</time></trkpt><trkpt lat="39.7962515" lon="18.3375522"><ele>19.0</ele><time>2026-04-04T15:41:21.187Z</time></trkpt><trkpt lat="39.7962543" lon="18.3372629"><ele>17.666666666666664</ele><time>2026-04-04T15:41:22.186Z</time></trkpt><trkpt lat="39.7962567" lon="18.3369754"><ele>16.333333333333332</ele><time>2026-04-04T15:41:23.186Z</time></trkpt><trkpt lat="39.7962588" lon="18.3366908"><ele>15.0</ele><time>2026-04-04T15:41:24.187Z</time></trkpt><trkpt lat="39.7962623" lon="18.3364112"><ele>14.333333333333332</ele><time>2026-04-04T15:41:25.185Z</time></trkpt><trkpt lat="39.7962708" lon="18.3361375"><ele>13.666666666666666</ele><time>2026-04-04T15:41:26.186Z</time></trkpt><trkpt lat="39.7962896" lon="18.3358685"><ele>13.0</ele><time>2026-04-04T15:41:27.187Z</time></trkpt><trkpt lat="39.7963219" lon="18.3356037"><ele>13.0</ele><time>2026-04-04T15:41:28.185Z</time></trkpt><trkpt lat="39.7963714" lon="18.3353459"><ele>13.0</ele><time>2026-04-04T15:41:29.186Z</time></trkpt><trkpt lat="39.7964401" lon="18.3350968"><ele>13.0</ele><time>2026-04-04T15:41:30.185Z</time></trkpt><trkpt lat="39.7965286" lon="18.3348579"><ele>13.666666666666666</ele><time>2026-04-04T15:41:31.186Z</time></trkpt><trkpt lat="39.7966335" lon="18.3346303"><ele>14.333333333333332</ele><time>2026-04-04T15:41:32.187Z</time></trkpt><trkpt lat="39.7967515" lon="18.3344133"><ele>15.0</ele><time>2026-04-04T15:41:33.186Z</time></trkpt><trkpt lat="39.7968843" lon="18.3342102"><ele>15.0</ele><time>2026-04-04T15:41:34.187Z</time></trkpt><trkpt lat="39.79703" lon="18.3340243"><ele>15.0</ele><time>2026-04-04T15:41:35.187Z</time></trkpt><trkpt lat="39.7971844" lon="18.3338608"><ele>15.0</ele><time>2026-04-04T15:41:36.187Z</time></trkpt><trkpt lat="39.7973509" lon="18.33372"><ele>15.0</ele><time>2026-04-04T15:41:37.186Z</time></trkpt><trkpt lat="39.7975261" lon="18.3335996"><ele>15.0</ele><time>2026-04-04T15:41:38.186Z</time></trkpt><trkpt lat="39.7977084" lon="18.3334906"><ele>15.0</ele><time>2026-04-04T15:41:39.186Z</time></trkpt><trkpt lat="39.7978971" lon="18.3333817"><ele>15.0</ele><time>2026-04-04T15:41:40.187Z</time></trkpt><trkpt lat="39.7980913" lon="18.3332715"><ele>15.0</ele><time>2026-04-04T15:41:41.186Z</time></trkpt><trkpt lat="39.7982911" lon="18.3331663"><ele>15.0</ele><time>2026-04-04T15:41:42.186Z</time></trkpt><trkpt lat="39.798497" lon="18.3330676"><ele>15.0</ele><time>2026-04-04T15:41:43.187Z</time></trkpt><trkpt lat="39.7987067" lon="18.332969"><ele>15.0</ele><time>2026-04-04T15:41:44.186Z</time></trkpt><trkpt lat="39.7989169" lon="18.3328603"><ele>15.0</ele><time>2026-04-04T15:41:45.187Z</time></trkpt><trkpt lat="39.7991227" lon="18.3327523"><ele>15.0</ele><time>2026-04-04T15:41:46.187Z</time></trkpt><trkpt lat="39.7993218" lon="18.3326589"><ele>15.0</ele><time>2026-04-04T15:41:47.187Z</time></trkpt><trkpt lat="39.7995121" lon="18.3325753"><ele>15.0</ele><time>2026-04-04T15:41:48.186Z</time></trkpt><trkpt lat="39.7996886" lon="18.3324953"><ele>16.666666666666668</ele><time>2026-04-04T15:41:49.187Z</time></trkpt><trkpt lat="39.799851" lon="18.3324184"><ele>18.333333333333336</ele><time>2026-04-04T15:41:50.186Z</time></trkpt><trkpt lat="39.8000012" lon="18.332345"><ele>20.0</ele><time>2026-04-04T15:41:51.186Z</time></trkpt><trkpt lat="39.8001398" lon="18.3322719"><ele>19.0</ele><time>2026-04-04T15:41:52.186Z</time></trkpt><trkpt lat="39.8002769" lon="18.3321921"><ele>18.0</ele><time>2026-04-04T15:41:53.186Z</time></trkpt><trkpt lat="39.8004144" lon="18.3321051"><ele>17.0</ele><time>2026-04-04T15:41:54.185Z</time></trkpt><trkpt lat="39.8005502" lon="18.3320148"><ele>17.0</ele><time>2026-04-04T15:41:55.186Z</time></trkpt><trkpt lat="39.8006943" lon="18.3319066"><ele>17.0</ele><time>2026-04-04T15:41:56.186Z</time></trkpt><trkpt lat="39.8008435" lon="18.3317801"><ele>17.0</ele><time>2026-04-04T15:41:57.185Z</time></trkpt><trkpt lat="39.8010023" lon="18.3316502"><ele>18.333333333333336</ele><time>2026-04-04T15:41:58.186Z</time></trkpt><trkpt lat="39.8011714" lon="18.3315227"><ele>19.666666666666668</ele><time>2026-04-04T15:41:59.186Z</time></trkpt><trkpt lat="39.8013391" lon="18.3314035"><ele>21.0</ele><time>2026-04-04T15:42:00.185Z</time></trkpt><trkpt lat="39.8015073" lon="18.3312801"><ele>21.0</ele><time>2026-04-04T15:42:01.186Z</time></trkpt><trkpt lat="39.8016736" lon="18.3311522"><ele>21.0</ele><time>2026-04-04T15:42:02.186Z</time></trkpt><trkpt lat="39.8018392" lon="18.3310196"><ele>21.0</ele><time>2026-04-04T15:42:03.185Z</time></trkpt><trkpt lat="39.8020049" lon="18.3308845"><ele>20.0</ele><time>2026-04-04T15:42:04.185Z</time></trkpt><trkpt lat="39.8021714" lon="18.3307478"><ele>19.0</ele><time>2026-04-04T15:42:05.186Z</time></trkpt><trkpt lat="39.8023369" lon="18.3306127"><ele>18.0</ele><time>2026-04-04T15:42:06.186Z</time></trkpt><trkpt lat="39.8025025" lon="18.3304791"><ele>20.333333333333336</ele><time>2026-04-04T15:42:07.185Z</time></trkpt><trkpt lat="39.8026684" lon="18.3303484"><ele>22.666666666666668</ele><time>2026-04-04T15:42:08.185Z</time></trkpt><trkpt lat="39.802834" lon="18.3302169"><ele>25.0</ele><time>2026-04-04T15:42:09.185Z</time></trkpt><trkpt lat="39.8029991" lon="18.3300834"><ele>25.0</ele><time>2026-04-04T15:42:10.185Z</time></trkpt><trkpt lat="39.8031638" lon="18.3299513"><ele>25.0</ele><time>2026-04-04T15:42:11.186Z</time></trkpt><trkpt lat="39.8033281" lon="18.3298192"><ele>25.0</ele><time>2026-04-04T15:42:12.185Z</time></trkpt><trkpt lat="39.8034915" lon="18.3296867"><ele>24.0</ele><time>2026-04-04T15:42:13.185Z</time></trkpt><trkpt lat="39.8036549" lon="18.3295536"><ele>23.0</ele><time>2026-04-04T15:42:14.186Z</time></trkpt><trkpt lat="39.8038145" lon="18.32942"><ele>22.0</ele><time>2026-04-04T15:42:15.186Z</time></trkpt><trkpt lat="39.8039716" lon="18.3292863"><ele>22.0</ele><time>2026-04-04T15:42:16.185Z</time></trkpt><trkpt lat="39.8041281" lon="18.3291562"><ele>22.0</ele><time>2026-04-04T15:42:17.185Z</time></trkpt><trkpt lat="39.8042882" lon="18.3290339"><ele>22.0</ele><time>2026-04-04T15:42:18.185Z</time></trkpt><trkpt lat="39.8044546" lon="18.3289266"><ele>18.0</ele><time>2026-04-04T15:42:19.185Z</time></trkpt><trkpt lat="39.8046282" lon="18.3288369"><ele>14.0</ele><time>2026-04-04T15:42:20.185Z</time></trkpt><trkpt lat="39.8048069" lon="18.3287626"><ele>10.0</ele><time>2026-04-04T15:42:21.186Z</time></trkpt><trkpt lat="39.8049905" lon="18.3287038"><ele>10.0</ele><time>2026-04-04T15:42:22.186Z</time></trkpt><trkpt lat="39.805178" lon="18.3286614"><ele>10.0</ele><time>2026-04-04T15:42:23.186Z</time></trkpt><trkpt lat="39.8053689" lon="18.3286284"><ele>10.0</ele><time>2026-04-04T15:42:24.187Z</time></trkpt><trkpt lat="39.8055604" lon="18.3286022"><ele>10.0</ele><time>2026-04-04T15:42:25.186Z</time></trkpt><trkpt lat="39.805753" lon="18.3285801"><ele>10.0</ele><time>2026-04-04T15:42:26.186Z</time></trkpt><trkpt lat="39.8059468" lon="18.3285552"><ele>10.0</ele><time>2026-04-04T15:42:27.187Z</time></trkpt><trkpt lat="39.806139" lon="18.3285126"><ele>11.666666666666668</ele><time>2026-04-04T15:42:28.185Z</time></trkpt><trkpt lat="39.8063263" lon="18.3284432"><ele>13.333333333333334</ele><time>2026-04-04T15:42:29.186Z</time></trkpt><trkpt lat="39.8065072" lon="18.3283513"><ele>15.0</ele><time>2026-04-04T15:42:30.186Z</time></trkpt><trkpt lat="39.8066843" lon="18.3282485"><ele>13.333333333333334</ele><time>2026-04-04T15:42:31.186Z</time></trkpt><trkpt lat="39.8068598" lon="18.328142"><ele>11.666666666666668</ele><time>2026-04-04T15:42:32.185Z</time></trkpt><trkpt lat="39.8070356" lon="18.3280334"><ele>10.0</ele><time>2026-04-04T15:42:33.185Z</time></trkpt><trkpt lat="39.8072127" lon="18.3279265"><ele>10.0</ele><time>2026-04-04T15:42:34.186Z</time></trkpt><trkpt lat="39.80739" lon="18.3278189"><ele>10.0</ele><time>2026-04-04T15:42:35.187Z</time></trkpt><trkpt lat="39.8075637" lon="18.3277018"><ele>10.0</ele><time>2026-04-04T15:42:36.187Z</time></trkpt><trkpt lat="39.8077282" lon="18.3275629"><ele>10.666666666666668</ele><time>2026-04-04T15:42:37.187Z</time></trkpt><trkpt lat="39.8078796" lon="18.3273977"><ele>11.333333333333334</ele><time>2026-04-04T15:42:38.185Z</time></trkpt><trkpt lat="39.808017" lon="18.3272078"><ele>12.0</ele><time>2026-04-04T15:42:39.185Z</time></trkpt><trkpt lat="39.8081466" lon="18.3270043"><ele>12.0</ele><time>2026-04-04T15:42:40.187Z</time></trkpt><trkpt lat="39.8082751" lon="18.3267969"><ele>12.0</ele><time>2026-04-04T15:42:41.187Z</time></trkpt><trkpt lat="39.808406" lon="18.3265903"><ele>12.0</ele><time>2026-04-04T15:42:42.186Z</time></trkpt><trkpt lat="39.8085391" lon="18.3263818"><ele>11.666666666666666</ele><time>2026-04-04T15:42:43.187Z</time></trkpt><trkpt lat="39.8086696" lon="18.3261703"><ele>11.333333333333332</ele><time>2026-04-04T15:42:44.186Z</time></trkpt><trkpt lat="39.8088034" lon="18.3259588"><ele>11.0</ele><time>2026-04-04T15:42:45.186Z</time></trkpt><trkpt lat="39.8089383" lon="18.3257457"><ele>10.0</ele><time>2026-04-04T15:42:46.186Z</time></trkpt><trkpt lat="39.80907" lon="18.3255332"><ele>9.0</ele><time>2026-04-04T15:42:47.187Z</time></trkpt><trkpt lat="39.809185" lon="18.3253165"><ele>8.0</ele><time>2026-04-04T15:42:48.186Z</time></trkpt><trkpt lat="39.8092719" lon="18.3250947"><ele>9.333333333333332</ele><time>2026-04-04T15:42:49.187Z</time></trkpt><trkpt lat="39.8093263" lon="18.3248601"><ele>10.666666666666666</ele><time>2026-04-04T15:42:50.187Z</time></trkpt><trkpt lat="39.8093447" lon="18.3246193"><ele>12.0</ele><time>2026-04-04T15:42:51.187Z</time></trkpt><trkpt lat="39.8093409" lon="18.3243774"><ele>12.0</ele><time>2026-04-04T15:42:52.186Z</time></trkpt><trkpt lat="39.8093324" lon="18.3241388"><ele>12.0</ele><time>2026-04-04T15:42:53.187Z</time></trkpt><trkpt lat="39.8093432" lon="18.3239009"><ele>12.0</ele><time>2026-04-04T15:42:54.186Z</time></trkpt><trkpt lat="39.8093807" lon="18.3236633"><ele>12.0</ele><time>2026-04-04T15:42:55.186Z</time></trkpt><trkpt lat="39.809441" lon="18.3234285"><ele>12.0</ele><time>2026-04-04T15:42:56.186Z</time></trkpt><trkpt lat="39.8095269" lon="18.3232"><ele>12.0</ele><time>2026-04-04T15:42:57.186Z</time></trkpt><trkpt lat="39.8096405" lon="18.3229853"><ele>10.666666666666666</ele><time>2026-04-04T15:42:58.186Z</time></trkpt><trkpt lat="39.809775" lon="18.3227843"><ele>9.333333333333332</ele><time>2026-04-04T15:42:59.186Z</time></trkpt><trkpt lat="39.8099205" lon="18.3225959"><ele>8.0</ele><time>2026-04-04T15:43:00.186Z</time></trkpt><trkpt lat="39.8100651" lon="18.3224142"><ele>8.333333333333332</ele><time>2026-04-04T15:43:01.186Z</time></trkpt><trkpt lat="39.8102085" lon="18.3222337"><ele>8.666666666666666</ele><time>2026-04-04T15:43:02.187Z</time></trkpt><trkpt lat="39.8103435" lon="18.3220463"><ele>9.0</ele><time>2026-04-04T15:43:03.186Z</time></trkpt><trkpt lat="39.8104605" lon="18.3218433"><ele>9.0</ele><time>2026-04-04T15:43:04.185Z</time></trkpt><trkpt lat="39.8105512" lon="18.3216315"><ele>9.0</ele><time>2026-04-04T15:43:05.186Z</time></trkpt><trkpt lat="39.8106183" lon="18.3214091"><ele>9.0</ele><time>2026-04-04T15:43:06.186Z</time></trkpt><trkpt lat="39.8106693" lon="18.3211732"><ele>9.0</ele><time>2026-04-04T15:43:07.186Z</time></trkpt><trkpt lat="39.810711" lon="18.3209279"><ele>9.0</ele><time>2026-04-04T15:43:08.186Z</time></trkpt><trkpt lat="39.8107523" lon="18.3206763"><ele>9.0</ele><time>2026-04-04T15:43:09.186Z</time></trkpt><trkpt lat="39.8107936" lon="18.3204209"><ele>7.666666666666667</ele><time>2026-04-04T15:43:10.186Z</time></trkpt><trkpt lat="39.8108393" lon="18.3201641"><ele>6.333333333333334</ele><time>2026-04-04T15:43:11.186Z</time></trkpt><trkpt lat="39.8108858" lon="18.3199069"><ele>5.0</ele><time>2026-04-04T15:43:12.186Z</time></trkpt><trkpt lat="39.8109306" lon="18.3196538"><ele>5.0</ele><time>2026-04-04T15:43:13.186Z</time></trkpt><trkpt lat="39.8109726" lon="18.3194116"><ele>5.0</ele><time>2026-04-04T15:43:14.185Z</time></trkpt><trkpt lat="39.8110125" lon="18.3191868"><ele>5.0</ele><time>2026-04-04T15:43:15.186Z</time></trkpt><trkpt lat="39.8110513" lon="18.3189851"><ele>7.25</ele><time>2026-04-04T15:43:16.185Z</time></trkpt><trkpt lat="39.8110882" lon="18.318805"><ele>9.5</ele><time>2026-04-04T15:43:17.185Z</time></trkpt><trkpt lat="39.8111236" lon="18.3186467"><ele>11.75</ele><time>2026-04-04T15:43:18.186Z</time></trkpt><trkpt lat="39.8111566" lon="18.3184927"><ele>14.0</ele><time>2026-04-04T15:43:19.187Z</time></trkpt><trkpt lat="39.8111803" lon="18.3183294"><ele>14.0</ele><time>2026-04-04T15:43:20.187Z</time></trkpt><trkpt lat="39.8112046" lon="18.3181617"><ele>14.0</ele><time>2026-04-04T15:43:21.185Z</time></trkpt><trkpt lat="39.811232" lon="18.3179912"><ele>14.0</ele><time>2026-04-04T15:43:22.185Z</time></trkpt><trkpt lat="39.811265" lon="18.3178179"><ele>14.0</ele><time>2026-04-04T15:43:23.185Z</time></trkpt><trkpt lat="39.8113093" lon="18.3176417"><ele>14.666666666666668</ele><time>2026-04-04T15:43:24.186Z</time></trkpt><trkpt lat="39.8113703" lon="18.3174642"><ele>15.333333333333332</ele><time>2026-04-04T15:43:25.186Z</time></trkpt><trkpt lat="39.8114468" lon="18.3172874"><ele>16.0</ele><time>2026-04-04T15:43:26.186Z</time></trkpt><trkpt lat="39.8115362" lon="18.3171111"><ele>16.0</ele><time>2026-04-04T15:43:27.186Z</time></trkpt><trkpt lat="39.8116379" lon="18.3169353"><ele>16.0</ele><time>2026-04-04T15:43:28.185Z</time></trkpt><trkpt lat="39.8117559" lon="18.3167651"><ele>16.0</ele><time>2026-04-04T15:43:29.187Z</time></trkpt><trkpt lat="39.8118871" lon="18.3166015"><ele>17.0</ele><time>2026-04-04T15:43:30.187Z</time></trkpt><trkpt lat="39.8120229" lon="18.3164396"><ele>18.0</ele><time>2026-04-04T15:43:31.186Z</time></trkpt><trkpt lat="39.8121606" lon="18.3162751"><ele>19.0</ele><time>2026-04-04T15:43:32.186Z</time></trkpt><trkpt lat="39.8122995" lon="18.3161114"><ele>19.0</ele><time>2026-04-04T15:43:33.186Z</time></trkpt><trkpt lat="39.8124384" lon="18.3159482"><ele>19.0</ele><time>2026-04-04T15:43:34.185Z</time></trkpt><trkpt lat="39.8125765" lon="18.315786"><ele>19.0</ele><time>2026-04-04T15:43:35.185Z</time></trkpt><trkpt lat="39.8127146" lon="18.3156233"><ele>20.333333333333332</ele><time>2026-04-04T15:43:36.186Z</time></trkpt><trkpt lat="39.8128527" lon="18.3154615"><ele>21.666666666666668</ele><time>2026-04-04T15:43:37.185Z</time></trkpt><trkpt lat="39.8129799" lon="18.3153137"><ele>23.0</ele><time>2026-04-04T15:43:38.185Z</time></trkpt><trkpt lat="39.8131077" lon="18.3151653"><ele>23.0</ele><time>2026-04-04T15:43:39.185Z</time></trkpt><trkpt lat="39.8132361" lon="18.3150141"><ele>23.0</ele><time>2026-04-04T15:43:40.185Z</time></trkpt><trkpt lat="39.8133652" lon="18.3148643"><ele>23.0</ele><time>2026-04-04T15:43:41.186Z</time></trkpt><trkpt lat="39.813488" lon="18.31472"><ele>23.75</ele><time>2026-04-04T15:43:42.186Z</time></trkpt><trkpt lat="39.8136016" lon="18.3145848"><ele>24.5</ele><time>2026-04-04T15:43:43.186Z</time></trkpt><trkpt lat="39.813706" lon="18.3144621"><ele>25.25</ele><time>2026-04-04T15:43:44.186Z</time></trkpt><trkpt lat="39.8137989" lon="18.3143553"><ele>26.0</ele><time>2026-04-04T15:43:45.185Z</time></trkpt><trkpt lat="39.813881" lon="18.3142582"><ele>26.0</ele><time>2026-04-04T15:43:46.186Z</time></trkpt><trkpt lat="39.8139641" lon="18.314158"><ele>26.0</ele><time>2026-04-04T15:43:47.185Z</time></trkpt><trkpt lat="39.8140521" lon="18.3140563"><ele>26.0</ele><time>2026-04-04T15:43:48.186Z</time></trkpt><trkpt lat="39.8141404" lon="18.3139518"><ele>26.0</ele><time>2026-04-04T15:43:49.186Z</time></trkpt><trkpt lat="39.8142178" lon="18.3138571"><ele>25.8</ele><time>2026-04-04T15:43:50.185Z</time></trkpt><trkpt lat="39.8142883" lon="18.313771"><ele>25.6</ele><time>2026-04-04T15:43:51.187Z</time></trkpt><trkpt lat="39.8143624" lon="18.313685"><ele>25.4</ele><time>2026-04-04T15:43:52.187Z</time></trkpt><trkpt lat="39.8144469" lon="18.3135909"><ele>25.2</ele><time>2026-04-04T15:43:53.187Z</time></trkpt><trkpt lat="39.814539" lon="18.3134933"><ele>25.0</ele><time>2026-04-04T15:43:54.186Z</time></trkpt><trkpt lat="39.814643" lon="18.3134014"><ele>26.25</ele><time>2026-04-04T15:43:55.185Z</time></trkpt><trkpt lat="39.8147576" lon="18.3133168"><ele>27.5</ele><time>2026-04-04T15:43:56.185Z</time></trkpt><trkpt lat="39.8148696" lon="18.3132452"><ele>28.75</ele><time>2026-04-04T15:43:57.185Z</time></trkpt><trkpt lat="39.8149607" lon="18.3131823"><ele>30.0</ele><time>2026-04-04T15:43:58.185Z</time></trkpt><trkpt lat="39.8150252" lon="18.3130987"><ele>29.2</ele><time>2026-04-04T15:43:59.187Z</time></trkpt><trkpt lat="39.8150665" lon="18.3129981"><ele>28.4</ele><time>2026-04-04T15:44:00.185Z</time></trkpt><trkpt lat="39.8151022" lon="18.312876"><ele>27.6</ele><time>2026-04-04T15:44:01.186Z</time></trkpt><trkpt lat="39.8151556" lon="18.3127462"><ele>26.8</ele><time>2026-04-04T15:44:02.186Z</time></trkpt><trkpt lat="39.815227" lon="18.3126166"><ele>26.0</ele><time>2026-04-04T15:44:03.185Z</time></trkpt><trkpt lat="39.8153056" lon="18.3124778"><ele>26.25</ele><time>2026-04-04T15:44:04.186Z</time></trkpt><trkpt lat="39.8153844" lon="18.3123272"><ele>26.5</ele><time>2026-04-04T15:44:05.185Z</time></trkpt><trkpt lat="39.815467" lon="18.3121665"><ele>26.75</ele><time>2026-04-04T15:44:06.186Z</time></trkpt><trkpt lat="39.8155562" lon="18.3119953"><ele>27.0</ele><time>2026-04-04T15:44:07.185Z</time></trkpt><trkpt lat="39.8156502" lon="18.3118155"><ele>27.0</ele><time>2026-04-04T15:44:08.186Z</time></trkpt><trkpt lat="39.815748" lon="18.3116251"><ele>27.0</ele><time>2026-04-04T15:44:09.186Z</time></trkpt><trkpt lat="39.8158492" lon="18.3114256"><ele>27.0</ele><time>2026-04-04T15:44:10.186Z</time></trkpt><trkpt lat="39.8159524" lon="18.3112195"><ele>26.666666666666664</ele><time>2026-04-04T15:44:11.187Z</time></trkpt><trkpt lat="39.8160585" lon="18.311006"><ele>26.333333333333332</ele><time>2026-04-04T15:44:12.187Z</time></trkpt><trkpt lat="39.8161671" lon="18.3107853"><ele>26.0</ele><time>2026-04-04T15:44:13.187Z</time></trkpt><trkpt lat="39.8162784" lon="18.3105606"><ele>26.0</ele><time>2026-04-04T15:44:14.187Z</time></trkpt><trkpt lat="39.8163922" lon="18.3103321"><ele>26.0</ele><time>2026-04-04T15:44:15.186Z</time></trkpt><trkpt lat="39.8165102" lon="18.3101006"><ele>26.0</ele><time>2026-04-04T15:44:16.186Z</time></trkpt><trkpt lat="39.816631" lon="18.309867"><ele>28.333333333333332</ele><time>2026-04-04T15:44:17.186Z</time></trkpt><trkpt lat="39.8167526" lon="18.3096304"><ele>30.666666666666664</ele><time>2026-04-04T15:44:18.185Z</time></trkpt><trkpt lat="39.8168755" lon="18.30939"><ele>33.0</ele><time>2026-04-04T15:44:19.185Z</time></trkpt><trkpt lat="39.8169986" lon="18.3091483"><ele>27.0</ele><time>2026-04-04T15:44:20.187Z</time></trkpt><trkpt lat="39.8171219" lon="18.3089013"><ele>21.0</ele><time>2026-04-04T15:44:21.186Z</time></trkpt><trkpt lat="39.8172446" lon="18.3086513"><ele>21.0</ele><time>2026-04-04T15:44:22.185Z</time></trkpt><trkpt lat="39.81737" lon="18.3083987"><ele>21.0</ele><time>2026-04-04T15:44:23.186Z</time></trkpt><trkpt lat="39.8174959" lon="18.3081448"><ele>23.0</ele><time>2026-04-04T15:44:24.186Z</time></trkpt><trkpt lat="39.8176235" lon="18.3078906"><ele>25.0</ele><time>2026-04-04T15:44:25.187Z</time></trkpt><trkpt lat="39.8177518" lon="18.3076363"><ele>25.0</ele><time>2026-04-04T15:44:26.187Z</time></trkpt><trkpt lat="39.8178822" lon="18.3073832"><ele>25.0</ele><time>2026-04-04T15:44:27.187Z</time></trkpt><trkpt lat="39.8180123" lon="18.3071294"><ele>23.0</ele><time>2026-04-04T15:44:28.186Z</time></trkpt><trkpt lat="39.818134" lon="18.3068674"><ele>21.0</ele><time>2026-04-04T15:44:29.185Z</time></trkpt><trkpt lat="39.8182445" lon="18.3065986"><ele>15.5</ele><time>2026-04-04T15:44:30.187Z</time></trkpt><trkpt lat="39.8183472" lon="18.306323"><ele>10.0</ele><time>2026-04-04T15:44:31.186Z</time></trkpt><trkpt lat="39.8184473" lon="18.3060465"><ele>16.0</ele><time>2026-04-04T15:44:32.185Z</time></trkpt><trkpt lat="39.8185472" lon="18.3057697"><ele>22.0</ele><time>2026-04-04T15:44:33.186Z</time></trkpt><trkpt lat="39.8186477" lon="18.3054942"><ele>22.0</ele><time>2026-04-04T15:44:34.186Z</time></trkpt><trkpt lat="39.8187478" lon="18.305218"><ele>22.0</ele><time>2026-04-04T15:44:35.186Z</time></trkpt><trkpt lat="39.8188496" lon="18.3049445"><ele>18.5</ele><time>2026-04-04T15:44:36.185Z</time></trkpt><trkpt lat="39.8189573" lon="18.3046754"><ele>15.0</ele><time>2026-04-04T15:44:37.185Z</time></trkpt><trkpt lat="39.819072" lon="18.30441"><ele>15.0</ele><time>2026-04-04T15:44:38.185Z</time></trkpt><trkpt lat="39.8191905" lon="18.3041454"><ele>15.0</ele><time>2026-04-04T15:44:39.186Z</time></trkpt><trkpt lat="39.8193111" lon="18.3038828"><ele>19.5</ele><time>2026-04-04T15:44:40.186Z</time></trkpt><trkpt lat="39.8194342" lon="18.3036198"><ele>24.0</ele><time>2026-04-04T15:44:41.187Z</time></trkpt><trkpt lat="39.8195572" lon="18.3033567"><ele>24.0</ele><time>2026-04-04T15:44:42.186Z</time></trkpt><trkpt lat="39.8196787" lon="18.3030901"><ele>24.0</ele><time>2026-04-04T15:44:43.186Z</time></trkpt><trkpt lat="39.819801" lon="18.3028238"><ele>19.5</ele><time>2026-04-04T15:44:44.186Z</time></trkpt><trkpt lat="39.8199235" lon="18.3025568"><ele>15.0</ele><time>2026-04-04T15:44:45.185Z</time></trkpt><trkpt lat="39.8200464" lon="18.3022907"><ele>18.5</ele><time>2026-04-04T15:44:46.187Z</time></trkpt><trkpt lat="39.8201687" lon="18.3020239"><ele>22.0</ele><time>2026-04-04T15:44:47.186Z</time></trkpt><trkpt lat="39.8202937" lon="18.3017621"><ele>22.0</ele><time>2026-04-04T15:44:48.185Z</time></trkpt><trkpt lat="39.820416" lon="18.3014995"><ele>22.0</ele><time>2026-04-04T15:44:49.185Z</time></trkpt><trkpt lat="39.8205358" lon="18.3012335"><ele>19.0</ele><time>2026-04-04T15:44:50.186Z</time></trkpt><trkpt lat="39.8206558" lon="18.3009684"><ele>16.0</ele><time>2026-04-04T15:44:51.186Z</time></trkpt><trkpt lat="39.8207766" lon="18.3007052"><ele>12.5</ele><time>2026-04-04T15:44:52.186Z</time></trkpt><trkpt lat="39.8208979" lon="18.3004434"><ele>9.0</ele><time>2026-04-04T15:44:53.185Z</time></trkpt><trkpt lat="39.8210179" lon="18.300181"><ele>14.5</ele><time>2026-04-04T15:44:54.186Z</time></trkpt><trkpt lat="39.8211349" lon="18.2999145"><ele>20.0</ele><time>2026-04-04T15:44:55.186Z</time></trkpt><trkpt lat="39.8212402" lon="18.2996404"><ele>20.0</ele><time>2026-04-04T15:44:56.186Z</time></trkpt><trkpt lat="39.8213404" lon="18.2993608"><ele>20.0</ele><time>2026-04-04T15:44:57.186Z</time></trkpt><trkpt lat="39.8214363" lon="18.2990758"><ele>17.0</ele><time>2026-04-04T15:44:58.186Z</time></trkpt><trkpt lat="39.8215326" lon="18.2987886"><ele>14.0</ele><time>2026-04-04T15:44:59.185Z</time></trkpt><trkpt lat="39.8216273" lon="18.2984988"><ele>14.0</ele><time>2026-04-04T15:45:00.186Z</time></trkpt><trkpt lat="39.8217222" lon="18.2982079"><ele>14.0</ele><time>2026-04-04T15:45:01.187Z</time></trkpt><trkpt lat="39.8218197" lon="18.2979166"><ele>20.0</ele><time>2026-04-04T15:45:02.186Z</time></trkpt><trkpt lat="39.8219133" lon="18.2976251"><ele>26.0</ele><time>2026-04-04T15:45:03.187Z</time></trkpt><trkpt lat="39.8220065" lon="18.297334"><ele>20.5</ele><time>2026-04-04T15:45:04.186Z</time></trkpt><trkpt lat="39.8220998" lon="18.2970425"><ele>15.0</ele><time>2026-04-04T15:45:05.187Z</time></trkpt><trkpt lat="39.8221936" lon="18.2967528"><ele>15.0</ele><time>2026-04-04T15:45:06.186Z</time></trkpt><trkpt lat="39.8222886" lon="18.2964688"><ele>15.0</ele><time>2026-04-04T15:45:07.186Z</time></trkpt><trkpt lat="39.8223812" lon="18.2961865"><ele>11.0</ele><time>2026-04-04T15:45:08.186Z</time></trkpt><trkpt lat="39.8224711" lon="18.2959099"><ele>7.0</ele><time>2026-04-04T15:45:09.187Z</time></trkpt><trkpt lat="39.822555" lon="18.2956464"><ele>6.333333333333334</ele><time>2026-04-04T15:45:10.186Z</time></trkpt><trkpt lat="39.822636" lon="18.2953877"><ele>5.666666666666667</ele><time>2026-04-04T15:45:11.185Z</time></trkpt><trkpt lat="39.822722" lon="18.2951349"><ele>5.0</ele><time>2026-04-04T15:45:12.185Z</time></trkpt><trkpt lat="39.8228154" lon="18.2948878"><ele>6.0</ele><time>2026-04-04T15:45:13.186Z</time></trkpt><trkpt lat="39.8229176" lon="18.2946444"><ele>7.0</ele><time>2026-04-04T15:45:14.186Z</time></trkpt><trkpt lat="39.8230228" lon="18.2943997"><ele>8.0</ele><time>2026-04-04T15:45:15.185Z</time></trkpt><trkpt lat="39.8231285" lon="18.2941541"><ele>7.0</ele><time>2026-04-04T15:45:16.185Z</time></trkpt><trkpt lat="39.8232357" lon="18.2939059"><ele>6.0</ele><time>2026-04-04T15:45:17.185Z</time></trkpt><trkpt lat="39.8233442" lon="18.2936547"><ele>5.0</ele><time>2026-04-04T15:45:18.185Z</time></trkpt><trkpt lat="39.8234506" lon="18.2934001"><ele>7.0</ele><time>2026-04-04T15:45:19.185Z</time></trkpt><trkpt lat="39.8235606" lon="18.2931462"><ele>9.0</ele><time>2026-04-04T15:45:20.186Z</time></trkpt><trkpt lat="39.8236739" lon="18.2928945"><ele>11.0</ele><time>2026-04-04T15:45:21.185Z</time></trkpt><trkpt lat="39.8237851" lon="18.2926392"><ele>11.0</ele><time>2026-04-04T15:45:22.185Z</time></trkpt><trkpt lat="39.823894" lon="18.2923853"><ele>11.0</ele><time>2026-04-04T15:45:23.186Z</time></trkpt><trkpt lat="39.8240016" lon="18.292133"><ele>11.0</ele><time>2026-04-04T15:45:24.186Z</time></trkpt><trkpt lat="39.8241101" lon="18.2918815"><ele>11.333333333333332</ele><time>2026-04-04T15:45:25.186Z</time></trkpt><trkpt lat="39.8242159" lon="18.2916304"><ele>11.666666666666666</ele><time>2026-04-04T15:45:26.186Z</time></trkpt><trkpt lat="39.8243221" lon="18.2913794"><ele>12.0</ele><time>2026-04-04T15:45:27.186Z</time></trkpt><trkpt lat="39.8244313" lon="18.2911287"><ele>12.0</ele><time>2026-04-04T15:45:28.186Z</time></trkpt><trkpt lat="39.8245414" lon="18.290877"><ele>12.0</ele><time>2026-04-04T15:45:29.185Z</time></trkpt><trkpt lat="39.8246492" lon="18.2906244"><ele>12.0</ele><time>2026-04-04T15:45:30.186Z</time></trkpt><trkpt lat="39.8247562" lon="18.2903751"><ele>10.0</ele><time>2026-04-04T15:45:31.185Z</time></trkpt><trkpt lat="39.8248619" lon="18.2901284"><ele>8.0</ele><time>2026-04-04T15:45:32.185Z</time></trkpt><trkpt lat="39.8249673" lon="18.289886"><ele>6.0</ele><time>2026-04-04T15:45:33.186Z</time></trkpt><trkpt lat="39.825071" lon="18.289646"><ele>7.0</ele><time>2026-04-04T15:45:34.185Z</time></trkpt><trkpt lat="39.8251727" lon="18.2894064"><ele>8.0</ele><time>2026-04-04T15:45:35.185Z</time></trkpt><trkpt lat="39.8252721" lon="18.2891678"><ele>9.0</ele><time>2026-04-04T15:45:36.185Z</time></trkpt><trkpt lat="39.8253701" lon="18.2889322"><ele>7.666666666666667</ele><time>2026-04-04T15:45:37.186Z</time></trkpt><trkpt lat="39.8254653" lon="18.2887055"><ele>6.333333333333334</ele><time>2026-04-04T15:45:38.186Z</time></trkpt><trkpt lat="39.8255567" lon="18.2884922"><ele>5.0</ele><time>2026-04-04T15:45:39.186Z</time></trkpt><trkpt lat="39.825645" lon="18.28829"><ele>5.0</ele><time>2026-04-04T15:45:40.185Z</time></trkpt><trkpt lat="39.8257256" lon="18.2881046"><ele>5.0</ele><time>2026-04-04T15:45:41.185Z</time></trkpt><trkpt lat="39.8257967" lon="18.2879415"><ele>5.0</ele><time>2026-04-04T15:45:42.185Z</time></trkpt><trkpt lat="39.8258544" lon="18.2878101"><ele>5.0</ele><time>2026-04-04T15:45:43.185Z</time></trkpt><trkpt lat="39.8259015" lon="18.2877029"><ele>5.0</ele><time>2026-04-04T15:45:44.185Z</time></trkpt><trkpt lat="39.8259392" lon="18.2876151"><ele>5.0</ele><time>2026-04-04T15:45:45.186Z</time></trkpt><trkpt lat="39.8259719" lon="18.2875367"><ele>5.0</ele><time>2026-04-04T15:45:46.186Z</time></trkpt><trkpt lat="39.8260067" lon="18.2874436"><ele>5.0</ele><time>2026-04-04T15:45:47.186Z</time></trkpt><trkpt lat="39.8260436" lon="18.2873245"><ele>5.0</ele><time>2026-04-04T15:45:48.187Z</time></trkpt><trkpt lat="39.8260978" lon="18.287187"><ele>5.0</ele><time>2026-04-04T15:45:49.186Z</time></trkpt><trkpt lat="39.8261665" lon="18.2870365"><ele>5.0</ele><time>2026-04-04T15:45:50.186Z</time></trkpt><trkpt lat="39.8262366" lon="18.2868672"><ele>5.0</ele><time>2026-04-04T15:45:51.187Z</time></trkpt><trkpt lat="39.8263027" lon="18.2866753"><ele>5.0</ele><time>2026-04-04T15:45:52.186Z</time></trkpt><trkpt lat="39.8263639" lon="18.2864646"><ele>4.666666666666667</ele><time>2026-04-04T15:45:53.185Z</time></trkpt><trkpt lat="39.8264196" lon="18.2862407"><ele>4.333333333333333</ele><time>2026-04-04T15:45:54.186Z</time></trkpt><trkpt lat="39.8264772" lon="18.2860078"><ele>4.0</ele><time>2026-04-04T15:45:55.186Z</time></trkpt><trkpt lat="39.8265361" lon="18.2857692"><ele>3.6666666666666665</ele><time>2026-04-04T15:45:56.185Z</time></trkpt><trkpt lat="39.8265958" lon="18.2855293"><ele>3.333333333333333</ele><time>2026-04-04T15:45:57.186Z</time></trkpt><trkpt lat="39.8266547" lon="18.285287"><ele>3.0</ele><time>2026-04-04T15:45:58.186Z</time></trkpt><trkpt lat="39.8267134" lon="18.2850464"><ele>3.0</ele><time>2026-04-04T15:45:59.187Z</time></trkpt><trkpt lat="39.8267678" lon="18.2848215"><ele>3.0</ele><time>2026-04-04T15:46:00.187Z</time></trkpt><trkpt lat="39.8268185" lon="18.2846146"><ele>3.0</ele><time>2026-04-04T15:46:01.186Z</time></trkpt><trkpt lat="39.8268661" lon="18.2844304"><ele>3.0</ele><time>2026-04-04T15:46:02.186Z</time></trkpt><trkpt lat="39.8269113" lon="18.2842696"><ele>3.0</ele><time>2026-04-04T15:46:03.186Z</time></trkpt><trkpt lat="39.8269513" lon="18.2841223"><ele>3.0</ele><time>2026-04-04T15:46:04.185Z</time></trkpt><trkpt lat="39.8269931" lon="18.2839709"><ele>3.0</ele><time>2026-04-04T15:46:05.185Z</time></trkpt><trkpt lat="39.8270413" lon="18.2838135"><ele>3.0</ele><time>2026-04-04T15:46:06.185Z</time></trkpt><trkpt lat="39.8271007" lon="18.28365"><ele>3.0</ele><time>2026-04-04T15:46:07.186Z</time></trkpt><trkpt lat="39.8271699" lon="18.2834801"><ele>3.0</ele><time>2026-04-04T15:46:08.186Z</time></trkpt><trkpt lat="39.8272484" lon="18.2833047"><ele>3.0</ele><time>2026-04-04T15:46:09.186Z</time></trkpt><trkpt lat="39.8273364" lon="18.2831276"><ele>2.6666666666666665</ele><time>2026-04-04T15:46:10.185Z</time></trkpt><trkpt lat="39.8274306" lon="18.2829464"><ele>2.333333333333333</ele><time>2026-04-04T15:46:11.186Z</time></trkpt><trkpt lat="39.8275292" lon="18.2827583"><ele>2.0</ele><time>2026-04-04T15:46:12.185Z</time></trkpt><trkpt lat="39.8276296" lon="18.2825621"><ele>2.6666666666666665</ele><time>2026-04-04T15:46:13.186Z</time></trkpt><trkpt lat="39.8277328" lon="18.2823607"><ele>3.333333333333333</ele><time>2026-04-04T15:46:14.185Z</time></trkpt><trkpt lat="39.8278402" lon="18.2821567"><ele>4.0</ele><time>2026-04-04T15:46:15.186Z</time></trkpt><trkpt lat="39.8279509" lon="18.2819501"><ele>4.0</ele><time>2026-04-04T15:46:16.186Z</time></trkpt><trkpt lat="39.828062" lon="18.2817446"><ele>4.0</ele><time>2026-04-04T15:46:17.186Z</time></trkpt><trkpt lat="39.8281648" lon="18.28155"><ele>4.0</ele><time>2026-04-04T15:46:18.186Z</time></trkpt><trkpt lat="39.8282597" lon="18.2813721"><ele>4.5</ele><time>2026-04-04T15:46:19.186Z</time></trkpt><trkpt lat="39.8283443" lon="18.2812189"><ele>5.0</ele><time>2026-04-04T15:46:20.185Z</time></trkpt><trkpt lat="39.828417" lon="18.2810966"><ele>5.5</ele><time>2026-04-04T15:46:21.186Z</time></trkpt><trkpt lat="39.828478" lon="18.2809905"><ele>6.0</ele><time>2026-04-04T15:46:22.185Z</time></trkpt><trkpt lat="39.8285317" lon="18.2808843"><ele>6.0</ele><time>2026-04-04T15:46:23.186Z</time></trkpt><trkpt lat="39.8285887" lon="18.2807642"><ele>6.0</ele><time>2026-04-04T15:46:24.185Z</time></trkpt><trkpt lat="39.8286521" lon="18.280638"><ele>6.0</ele><time>2026-04-04T15:46:25.185Z</time></trkpt><trkpt lat="39.8287219" lon="18.2805035"><ele>6.0</ele><time>2026-04-04T15:46:26.187Z</time></trkpt><trkpt lat="39.8287973" lon="18.2803623"><ele>5.75</ele><time>2026-04-04T15:46:27.186Z</time></trkpt><trkpt lat="39.8288758" lon="18.2802133"><ele>5.5</ele><time>2026-04-04T15:46:28.185Z</time></trkpt><trkpt lat="39.8289583" lon="18.2800575"><ele>5.25</ele><time>2026-04-04T15:46:29.186Z</time></trkpt><trkpt lat="39.8290443" lon="18.2798948"><ele>5.0</ele><time>2026-04-04T15:46:30.186Z</time></trkpt><trkpt lat="39.8291336" lon="18.279727"><ele>4.333333333333334</ele><time>2026-04-04T15:46:31.185Z</time></trkpt><trkpt lat="39.8292264" lon="18.2795537"><ele>3.666666666666667</ele><time>2026-04-04T15:46:32.186Z</time></trkpt><trkpt lat="39.8293209" lon="18.2793743"><ele>3.0</ele><time>2026-04-04T15:46:33.185Z</time></trkpt><trkpt lat="39.8294164" lon="18.2791908"><ele>4.333333333333334</ele><time>2026-04-04T15:46:34.185Z</time></trkpt><trkpt lat="39.8295115" lon="18.2790093"><ele>5.666666666666667</ele><time>2026-04-04T15:46:35.185Z</time></trkpt><trkpt lat="39.8296039" lon="18.2788346"><ele>7.0</ele><time>2026-04-04T15:46:36.186Z</time></trkpt><trkpt lat="39.829693" lon="18.2786681"><ele>7.0</ele><time>2026-04-04T15:46:37.186Z</time></trkpt><trkpt lat="39.829779" lon="18.2785174"><ele>7.0</ele><time>2026-04-04T15:46:38.187Z</time></trkpt><trkpt lat="39.8298639" lon="18.2783848"><ele>7.0</ele><time>2026-04-04T15:46:39.186Z</time></trkpt><trkpt lat="39.8299458" lon="18.2782669"><ele>7.0</ele><time>2026-04-04T15:46:40.186Z</time></trkpt><trkpt lat="39.8300257" lon="18.2781498"><ele>6.75</ele><time>2026-04-04T15:46:41.186Z</time></trkpt><trkpt lat="39.8301079" lon="18.2780284"><ele>6.5</ele><time>2026-04-04T15:46:42.186Z</time></trkpt><trkpt lat="39.8302012" lon="18.2779152"><ele>6.25</ele><time>2026-04-04T15:46:43.186Z</time></trkpt><trkpt lat="39.8303087" lon="18.2778146"><ele>6.0</ele><time>2026-04-04T15:46:44.186Z</time></trkpt><trkpt lat="39.8304229" lon="18.2777218"><ele>6.0</ele><time>2026-04-04T15:46:45.185Z</time></trkpt><trkpt lat="39.8305414" lon="18.2776385"><ele>6.0</ele><time>2026-04-04T15:46:46.186Z</time></trkpt><trkpt lat="39.8306562" lon="18.2775605"><ele>6.0</ele><time>2026-04-04T15:46:47.185Z</time></trkpt><trkpt lat="39.830768" lon="18.2774846"><ele>6.0</ele><time>2026-04-04T15:46:48.187Z</time></trkpt><trkpt lat="39.8308688" lon="18.2774134"><ele>6.0</ele><time>2026-04-04T15:46:49.185Z</time></trkpt><trkpt lat="39.8309476" lon="18.2773565"><ele>6.0</ele><time>2026-04-04T15:46:50.186Z</time></trkpt><trkpt lat="39.8310155" lon="18.2773068"><ele>6.0</ele><time>2026-04-04T15:46:51.187Z</time></trkpt><trkpt lat="39.8310765" lon="18.2772531"><ele>6.0</ele><time>2026-04-04T15:46:52.185Z</time></trkpt><trkpt lat="39.8311424" lon="18.2772168"><ele>6.0</ele><time>2026-04-04T15:46:53.185Z</time></trkpt><trkpt lat="39.8312165" lon="18.277214"><ele>6.0</ele><time>2026-04-04T15:46:54.186Z</time></trkpt><trkpt lat="39.831295" lon="18.2772424"><ele>6.666666666666667</ele><time>2026-04-04T15:46:55.187Z</time></trkpt><trkpt lat="39.8313693" lon="18.2772923"><ele>7.333333333333334</ele><time>2026-04-04T15:46:56.185Z</time></trkpt><trkpt lat="39.8314388" lon="18.2773578"><ele>8.0</ele><time>2026-04-04T15:46:57.186Z</time></trkpt><trkpt lat="39.8315104" lon="18.2774237"><ele>8.666666666666668</ele><time>2026-04-04T15:46:58.185Z</time></trkpt><trkpt lat="39.8315878" lon="18.2774818"><ele>9.333333333333334</ele><time>2026-04-04T15:46:59.186Z</time></trkpt><trkpt lat="39.8316697" lon="18.2775343"><ele>10.0</ele><time>2026-04-04T15:47:00.186Z</time></trkpt><trkpt lat="39.8317509" lon="18.2775807"><ele>11.166666666666668</ele><time>2026-04-04T15:47:01.185Z</time></trkpt><trkpt lat="39.8318293" lon="18.2776299"><ele>12.333333333333334</ele><time>2026-04-04T15:47:02.185Z</time></trkpt><trkpt lat="39.8319047" lon="18.2776834"><ele>13.5</ele><time>2026-04-04T15:47:03.186Z</time></trkpt><trkpt lat="39.8319748" lon="18.2777443"><ele>14.666666666666668</ele><time>2026-04-04T15:47:04.186Z</time></trkpt><trkpt lat="39.8320421" lon="18.2777963"><ele>15.833333333333334</ele><time>2026-04-04T15:47:05.186Z</time></trkpt><trkpt lat="39.8321121" lon="18.2778142"><ele>17.0</ele><time>2026-04-04T15:47:06.185Z</time></trkpt><trkpt lat="39.8321749" lon="18.2777989"><ele>17.0</ele><time>2026-04-04T15:47:07.185Z</time></trkpt><trkpt lat="39.8322421" lon="18.2776649"><ele>17.0</ele><time>2026-04-04T15:47:09.187Z</time></trkpt><trkpt lat="39.8322404" lon="18.2775513"><ele>17.0</ele><time>2026-04-04T15:47:10.185Z</time></trkpt><trkpt lat="39.8322314" lon="18.2774206"><ele>17.0</ele><time>2026-04-04T15:47:11.186Z</time></trkpt><trkpt lat="39.8322386" lon="18.2772671"><ele>17.0</ele><time>2026-04-04T15:47:12.186Z</time></trkpt><trkpt lat="39.832262" lon="18.2771013"><ele>15.75</ele><time>2026-04-04T15:47:13.186Z</time></trkpt><trkpt lat="39.8322963" lon="18.2769253"><ele>14.5</ele><time>2026-04-04T15:47:14.185Z</time></trkpt><trkpt lat="39.8323363" lon="18.2767437"><ele>13.25</ele><time>2026-04-04T15:47:15.185Z</time></trkpt><trkpt lat="39.8323799" lon="18.2765595"><ele>12.0</ele><time>2026-04-04T15:47:16.185Z</time></trkpt><trkpt lat="39.8324241" lon="18.2763767"><ele>10.75</ele><time>2026-04-04T15:47:17.187Z</time></trkpt><trkpt lat="39.832464" lon="18.2762057"><ele>9.5</ele><time>2026-04-04T15:47:18.186Z</time></trkpt><trkpt lat="39.8325013" lon="18.2760442"><ele>8.25</ele><time>2026-04-04T15:47:19.186Z</time></trkpt><trkpt lat="39.8325355" lon="18.2758941"><ele>7.0</ele><time>2026-04-04T15:47:20.185Z</time></trkpt><trkpt lat="39.8325671" lon="18.2757659"><ele>7.0</ele><time>2026-04-04T15:47:21.186Z</time></trkpt><trkpt lat="39.8325973" lon="18.2756474"><ele>6.999999999999999</ele><time>2026-04-04T15:47:22.187Z</time></trkpt><trkpt lat="39.8326146" lon="18.2755237"><ele>6.999999999999999</ele><time>2026-04-04T15:47:23.186Z</time></trkpt><trkpt lat="39.832631" lon="18.2753955"><ele>7.0</ele><time>2026-04-04T15:47:24.186Z</time></trkpt><trkpt lat="39.832655" lon="18.275256"><ele>7.0</ele><time>2026-04-04T15:47:25.185Z</time></trkpt><trkpt lat="39.8326857" lon="18.2751108"><ele>7.0</ele><time>2026-04-04T15:47:26.186Z</time></trkpt><trkpt lat="39.8327182" lon="18.2749589"><ele>7.0</ele><time>2026-04-04T15:47:27.186Z</time></trkpt><trkpt lat="39.8327527" lon="18.274808"><ele>7.0</ele><time>2026-04-04T15:47:28.186Z</time></trkpt><trkpt lat="39.8327945" lon="18.2746583"><ele>7.0</ele><time>2026-04-04T15:47:29.185Z</time></trkpt><trkpt lat="39.8328476" lon="18.2745142"><ele>6.0</ele><time>2026-04-04T15:47:30.186Z</time></trkpt><trkpt lat="39.8329185" lon="18.2743728"><ele>5.0</ele><time>2026-04-04T15:47:31.187Z</time></trkpt><trkpt lat="39.8330012" lon="18.2742373"><ele>4.0</ele><time>2026-04-04T15:47:32.186Z</time></trkpt><trkpt lat="39.8330902" lon="18.2741001"><ele>3.0</ele><time>2026-04-04T15:47:33.186Z</time></trkpt><trkpt lat="39.8331815" lon="18.2739564"><ele>2.3333333333333335</ele><time>2026-04-04T15:47:34.187Z</time></trkpt><trkpt lat="39.8332754" lon="18.2738086"><ele>1.6666666666666665</ele><time>2026-04-04T15:47:35.186Z</time></trkpt><trkpt lat="39.8333735" lon="18.2736581"><ele>1.0</ele><time>2026-04-04T15:47:36.185Z</time></trkpt><trkpt lat="39.8334725" lon="18.2735039"><ele>2.3333333333333335</ele><time>2026-04-04T15:47:37.187Z</time></trkpt><trkpt lat="39.8335688" lon="18.2733435"><ele>3.666666666666667</ele><time>2026-04-04T15:47:38.187Z</time></trkpt><trkpt lat="39.8336642" lon="18.2731804"><ele>5.0</ele><time>2026-04-04T15:47:39.187Z</time></trkpt><trkpt lat="39.8337607" lon="18.2730168"><ele>5.333333333333334</ele><time>2026-04-04T15:47:40.186Z</time></trkpt><trkpt lat="39.8338589" lon="18.272853"><ele>5.666666666666667</ele><time>2026-04-04T15:47:41.186Z</time></trkpt><trkpt lat="39.83396" lon="18.2726881"><ele>6.0</ele><time>2026-04-04T15:47:42.187Z</time></trkpt><trkpt lat="39.8340614" lon="18.2725212"><ele>6.0</ele><time>2026-04-04T15:47:43.187Z</time></trkpt><trkpt lat="39.8341602" lon="18.2723516"><ele>6.0</ele><time>2026-04-04T15:47:44.186Z</time></trkpt><trkpt lat="39.8342517" lon="18.2721748"><ele>6.0</ele><time>2026-04-04T15:47:45.187Z</time></trkpt><trkpt lat="39.8343269" lon="18.2720059"><ele>5.8</ele><time>2026-04-04T15:47:46.187Z</time></trkpt><trkpt lat="39.834388" lon="18.2718568"><ele>5.6</ele><time>2026-04-04T15:47:47.186Z</time></trkpt><trkpt lat="39.8344296" lon="18.2717307"><ele>5.4</ele><time>2026-04-04T15:47:48.186Z</time></trkpt><trkpt lat="39.8344587" lon="18.2716302"><ele>5.2</ele><time>2026-04-04T15:47:49.185Z</time></trkpt><trkpt lat="39.8344759" lon="18.2715432"><ele>5.0</ele><time>2026-04-04T15:47:50.186Z</time></trkpt><trkpt lat="39.8344908" lon="18.271453"><ele>4.6</ele><time>2026-04-04T15:47:51.186Z</time></trkpt><trkpt lat="39.8345072" lon="18.2713464"><ele>4.2</ele><time>2026-04-04T15:47:52.186Z</time></trkpt><trkpt lat="39.8345294" lon="18.2712265"><ele>3.8</ele><time>2026-04-04T15:47:53.185Z</time></trkpt><trkpt lat="39.8345542" lon="18.2710933"><ele>3.4</ele><time>2026-04-04T15:47:54.185Z</time></trkpt><trkpt lat="39.8345809" lon="18.270948"><ele>3.0</ele><time>2026-04-04T15:47:55.186Z</time></trkpt><trkpt lat="39.8346101" lon="18.2707925"><ele>3.0</ele><time>2026-04-04T15:47:56.186Z</time></trkpt><trkpt lat="39.8346407" lon="18.2706268"><ele>3.0</ele><time>2026-04-04T15:47:57.186Z</time></trkpt><trkpt lat="39.8346745" lon="18.270455"><ele>3.0</ele><time>2026-04-04T15:47:58.186Z</time></trkpt><trkpt lat="39.8347119" lon="18.2702758"><ele>3.0</ele><time>2026-04-04T15:47:59.186Z</time></trkpt><trkpt lat="39.8347494" lon="18.270089"><ele>2.0</ele><time>2026-04-04T15:48:00.185Z</time></trkpt><trkpt lat="39.8347862" lon="18.2698963"><ele>1.0</ele><time>2026-04-04T15:48:01.186Z</time></trkpt><trkpt lat="39.8348232" lon="18.2696981"><ele>0.0</ele><time>2026-04-04T15:48:02.187Z</time></trkpt><trkpt lat="39.8348615" lon="18.2694955"><ele>0.0</ele><time>2026-04-04T15:48:03.186Z</time></trkpt><trkpt lat="39.8349003" lon="18.2692908"><ele>0.0</ele><time>2026-04-04T15:48:04.186Z</time></trkpt><trkpt lat="39.8349372" lon="18.2690838"><ele>0.0</ele><time>2026-04-04T15:48:05.186Z</time></trkpt><trkpt lat="39.8349703" lon="18.2689016"><ele>0.5</ele><time>2026-04-04T15:48:06.185Z</time></trkpt><trkpt lat="39.8349932" lon="18.2687478"><ele>1.0</ele><time>2026-04-04T15:48:07.185Z</time></trkpt><trkpt lat="39.835007" lon="18.2685985"><ele>1.5</ele><time>2026-04-04T15:48:08.185Z</time></trkpt><trkpt lat="39.8350306" lon="18.2684476"><ele>2.0</ele><time>2026-04-04T15:48:09.185Z</time></trkpt><trkpt lat="39.8350698" lon="18.2682925"><ele>2.0</ele><time>2026-04-04T15:48:10.186Z</time></trkpt><trkpt lat="39.8351145" lon="18.2681315"><ele>2.0</ele><time>2026-04-04T15:48:11.186Z</time></trkpt><trkpt lat="39.8351541" lon="18.2679587"><ele>2.0</ele><time>2026-04-04T15:48:12.186Z</time></trkpt><trkpt lat="39.8351919" lon="18.2677772"><ele>2.0</ele><time>2026-04-04T15:48:13.187Z</time></trkpt><trkpt lat="39.8352277" lon="18.267587"><ele>2.0</ele><time>2026-04-04T15:48:14.186Z</time></trkpt><trkpt lat="39.8352669" lon="18.2673916"><ele>2.0</ele><time>2026-04-04T15:48:15.186Z</time></trkpt><trkpt lat="39.8353144" lon="18.2671935"><ele>2.0</ele><time>2026-04-04T15:48:16.186Z</time></trkpt><trkpt lat="39.8353718" lon="18.2669942"><ele>2.0</ele><time>2026-04-04T15:48:17.186Z</time></trkpt><trkpt lat="39.8354393" lon="18.2667948"><ele>2.0</ele><time>2026-04-04T15:48:18.186Z</time></trkpt><trkpt lat="39.8355191" lon="18.2665981"><ele>2.0</ele><time>2026-04-04T15:48:19.186Z</time></trkpt><trkpt lat="39.8356101" lon="18.266408"><ele>1.0</ele><time>2026-04-04T15:48:20.187Z</time></trkpt><trkpt lat="39.8357096" lon="18.2662233"><ele>0.0</ele><time>2026-04-04T15:48:21.187Z</time></trkpt><trkpt lat="39.8358138" lon="18.2660426"><ele>-1.0</ele><time>2026-04-04T15:48:22.186Z</time></trkpt><trkpt lat="39.8359201" lon="18.265865"><ele>-0.3333333333333333</ele><time>2026-04-04T15:48:23.185Z</time></trkpt><trkpt lat="39.8360266" lon="18.2656894"><ele>0.3333333333333333</ele><time>2026-04-04T15:48:24.186Z</time></trkpt><trkpt lat="39.8361293" lon="18.265511"><ele>1.0</ele><time>2026-04-04T15:48:25.185Z</time></trkpt><trkpt lat="39.8362281" lon="18.2653292"><ele>1.0</ele><time>2026-04-04T15:48:26.186Z</time></trkpt><trkpt lat="39.8363201" lon="18.2651412"><ele>1.0</ele><time>2026-04-04T15:48:27.185Z</time></trkpt><trkpt lat="39.8364016" lon="18.2649471"><ele>1.0</ele><time>2026-04-04T15:48:28.185Z</time></trkpt><trkpt lat="39.836473" lon="18.2647459"><ele>1.0</ele><time>2026-04-04T15:48:29.187Z</time></trkpt><trkpt lat="39.8365355" lon="18.264538"><ele>1.0</ele><time>2026-04-04T15:48:30.186Z</time></trkpt><trkpt lat="39.8365914" lon="18.2643243"><ele>1.0</ele><time>2026-04-04T15:48:31.186Z</time></trkpt><trkpt lat="39.8366451" lon="18.2641069"><ele>1.0</ele><time>2026-04-04T15:48:32.185Z</time></trkpt><trkpt lat="39.8366981" lon="18.2638899"><ele>1.0</ele><time>2026-04-04T15:48:33.185Z</time></trkpt><trkpt lat="39.8367492" lon="18.2636741"><ele>1.0</ele><time>2026-04-04T15:48:34.187Z</time></trkpt><trkpt lat="39.8367957" lon="18.263468"><ele>1.25</ele><time>2026-04-04T15:48:35.187Z</time></trkpt><trkpt lat="39.8368378" lon="18.2632863"><ele>1.5</ele><time>2026-04-04T15:48:36.185Z</time></trkpt><trkpt lat="39.8368762" lon="18.2631362"><ele>1.75</ele><time>2026-04-04T15:48:37.186Z</time></trkpt><trkpt lat="39.8369063" lon="18.262995"><ele>2.0</ele><time>2026-04-04T15:48:38.186Z</time></trkpt><trkpt lat="39.8369237" lon="18.2628492"><ele>2.25</ele><time>2026-04-04T15:48:39.186Z</time></trkpt><trkpt lat="39.8369279" lon="18.2626957"><ele>2.5</ele><time>2026-04-04T15:48:40.185Z</time></trkpt><trkpt lat="39.8369217" lon="18.2625266"><ele>2.75</ele><time>2026-04-04T15:48:41.186Z</time></trkpt><trkpt lat="39.8369078" lon="18.2623483"><ele>3.0</ele><time>2026-04-04T15:48:42.186Z</time></trkpt><trkpt lat="39.8368909" lon="18.2621616"><ele>3.0</ele><time>2026-04-04T15:48:43.185Z</time></trkpt><trkpt lat="39.8368714" lon="18.2619687"><ele>3.0</ele><time>2026-04-04T15:48:44.186Z</time></trkpt><trkpt lat="39.8368498" lon="18.2617706"><ele>3.0</ele><time>2026-04-04T15:48:45.186Z</time></trkpt><trkpt lat="39.8368265" lon="18.2615676"><ele>2.6666666666666665</ele><time>2026-04-04T15:48:46.185Z</time></trkpt><trkpt lat="39.8368019" lon="18.2613597"><ele>2.333333333333333</ele><time>2026-04-04T15:48:47.185Z</time></trkpt><trkpt lat="39.8367769" lon="18.261149"><ele>2.0</ele><time>2026-04-04T15:48:48.185Z</time></trkpt><trkpt lat="39.8367515" lon="18.260936"><ele>2.0</ele><time>2026-04-04T15:48:49.187Z</time></trkpt><trkpt lat="39.8367269" lon="18.2607204"><ele>2.0</ele><time>2026-04-04T15:48:50.187Z</time></trkpt><trkpt lat="39.8367018" lon="18.2605031"><ele>2.0</ele><time>2026-04-04T15:48:51.187Z</time></trkpt><trkpt lat="39.8366782" lon="18.2602865"><ele>1.6666666666666665</ele><time>2026-04-04T15:48:52.185Z</time></trkpt><trkpt lat="39.8366554" lon="18.2600682"><ele>1.3333333333333333</ele><time>2026-04-04T15:48:53.186Z</time></trkpt><trkpt lat="39.8366345" lon="18.2598485"><ele>1.0</ele><time>2026-04-04T15:48:54.186Z</time></trkpt><trkpt lat="39.8366206" lon="18.2596267"><ele>0.6666666666666666</ele><time>2026-04-04T15:48:55.186Z</time></trkpt><trkpt lat="39.8366223" lon="18.2594026"><ele>0.3333333333333333</ele><time>2026-04-04T15:48:56.185Z</time></trkpt><trkpt lat="39.8366452" lon="18.2591852"><ele>0.0</ele><time>2026-04-04T15:48:57.186Z</time></trkpt><trkpt lat="39.836687" lon="18.2589768"><ele>0.0</ele><time>2026-04-04T15:48:58.187Z</time></trkpt><trkpt lat="39.8367409" lon="18.2587784"><ele>0.0</ele><time>2026-04-04T15:48:59.186Z</time></trkpt><trkpt lat="39.8368083" lon="18.2585934"><ele>0.0</ele><time>2026-04-04T15:49:00.186Z</time></trkpt><trkpt lat="39.8368801" lon="18.25843"><ele>0.25</ele><time>2026-04-04T15:49:01.186Z</time></trkpt><trkpt lat="39.836954" lon="18.2582855"><ele>0.5</ele><time>2026-04-04T15:49:02.187Z</time></trkpt><trkpt lat="39.8370312" lon="18.2581595"><ele>0.75</ele><time>2026-04-04T15:49:03.185Z</time></trkpt><trkpt lat="39.8371112" lon="18.2580517"><ele>1.0</ele><time>2026-04-04T15:49:04.185Z</time></trkpt><trkpt lat="39.8371938" lon="18.2579561"><ele>1.2000000000000002</ele><time>2026-04-04T15:49:05.187Z</time></trkpt><trkpt lat="39.8372774" lon="18.2578645"><ele>1.4000000000000001</ele><time>2026-04-04T15:49:06.186Z</time></trkpt><trkpt lat="39.8373603" lon="18.2577711"><ele>1.6</ele><time>2026-04-04T15:49:07.185Z</time></trkpt><trkpt lat="39.8374418" lon="18.2576739"><ele>1.8</ele><time>2026-04-04T15:49:08.185Z</time></trkpt><trkpt lat="39.8375212" lon="18.2575736"><ele>2.0</ele><time>2026-04-04T15:49:09.185Z</time></trkpt><trkpt lat="39.837597" lon="18.2574709"><ele>2.5</ele><time>2026-04-04T15:49:10.187Z</time></trkpt><trkpt lat="39.8376782" lon="18.2573517"><ele>3.0</ele><time>2026-04-04T15:49:11.186Z</time></trkpt><trkpt lat="39.8377708" lon="18.257213"><ele>3.5</ele><time>2026-04-04T15:49:12.187Z</time></trkpt><trkpt lat="39.8378754" lon="18.2570689"><ele>4.0</ele><time>2026-04-04T15:49:13.186Z</time></trkpt><trkpt lat="39.8379787" lon="18.2569236"><ele>4.0</ele><time>2026-04-04T15:49:14.187Z</time></trkpt><trkpt lat="39.8380739" lon="18.2567608"><ele>4.0</ele><time>2026-04-04T15:49:15.187Z</time></trkpt><trkpt lat="39.8381553" lon="18.2565799"><ele>4.0</ele><time>2026-04-04T15:49:16.186Z</time></trkpt><trkpt lat="39.8382249" lon="18.2563846"><ele>3.6666666666666665</ele><time>2026-04-04T15:49:17.185Z</time></trkpt><trkpt lat="39.8382825" lon="18.2561783"><ele>3.333333333333333</ele><time>2026-04-04T15:49:18.186Z</time></trkpt><trkpt lat="39.8383266" lon="18.2559646"><ele>3.0</ele><time>2026-04-04T15:49:19.186Z</time></trkpt><trkpt lat="39.8383598" lon="18.2557457"><ele>3.75</ele><time>2026-04-04T15:49:20.185Z</time></trkpt><trkpt lat="39.8383815" lon="18.2555297"><ele>4.5</ele><time>2026-04-04T15:49:21.186Z</time></trkpt><trkpt lat="39.8383975" lon="18.2553371"><ele>5.25</ele><time>2026-04-04T15:49:22.185Z</time></trkpt><trkpt lat="39.8384086" lon="18.2551716"><ele>6.0</ele><time>2026-04-04T15:49:23.187Z</time></trkpt><trkpt lat="39.838416" lon="18.2550459"><ele>6.0</ele><time>2026-04-04T15:49:24.186Z</time></trkpt><trkpt lat="39.8384185" lon="18.25495"><ele>6.0</ele><time>2026-04-04T15:49:25.186Z</time></trkpt><trkpt lat="39.8384177" lon="18.2548492"><ele>6.0</ele><time>2026-04-04T15:49:26.186Z</time></trkpt><trkpt lat="39.8384168" lon="18.2547452"><ele>6.0</ele><time>2026-04-04T15:49:27.186Z</time></trkpt><trkpt lat="39.8384197" lon="18.2546072"><ele>6.0</ele><time>2026-04-04T15:49:28.186Z</time></trkpt><trkpt lat="39.8384229" lon="18.254463"><ele>6.0</ele><time>2026-04-04T15:49:29.185Z</time></trkpt><trkpt lat="39.8384247" lon="18.2542922"><ele>6.0</ele><time>2026-04-04T15:49:30.185Z</time></trkpt><trkpt lat="39.8384243" lon="18.2541036"><ele>6.0</ele><time>2026-04-04T15:49:31.186Z</time></trkpt><trkpt lat="39.8384268" lon="18.2539137"><ele>6.0</ele><time>2026-04-04T15:49:32.186Z</time></trkpt><trkpt lat="39.8384317" lon="18.2537057"><ele>6.0</ele><time>2026-04-04T15:49:33.186Z</time></trkpt><trkpt lat="39.8384368" lon="18.2535016"><ele>6.0</ele><time>2026-04-04T15:49:34.185Z</time></trkpt><trkpt lat="39.8384416" lon="18.2532902"><ele>6.0</ele><time>2026-04-04T15:49:35.186Z</time></trkpt><trkpt lat="39.8384463" lon="18.2530716"><ele>6.0</ele><time>2026-04-04T15:49:36.186Z</time></trkpt><trkpt lat="39.8384502" lon="18.252847"><ele>6.0</ele><time>2026-04-04T15:49:37.187Z</time></trkpt><trkpt lat="39.8384526" lon="18.2526295"><ele>6.0</ele><time>2026-04-04T15:49:38.185Z</time></trkpt><trkpt lat="39.8384535" lon="18.2524187"><ele>6.0</ele><time>2026-04-04T15:49:39.186Z</time></trkpt><trkpt lat="39.838454" lon="18.2522228"><ele>6.0</ele><time>2026-04-04T15:49:40.187Z</time></trkpt><trkpt lat="39.8384548" lon="18.2520491"><ele>6.0</ele><time>2026-04-04T15:49:41.187Z</time></trkpt><trkpt lat="39.8384639" lon="18.2519046"><ele>6.0</ele><time>2026-04-04T15:49:42.186Z</time></trkpt><trkpt lat="39.8384907" lon="18.2517834"><ele>6.199999999999999</ele><time>2026-04-04T15:49:43.186Z</time></trkpt><trkpt lat="39.8385333" lon="18.2516862"><ele>6.3999999999999995</ele><time>2026-04-04T15:49:44.186Z</time></trkpt><trkpt lat="39.8385651" lon="18.2515903"><ele>6.6</ele><time>2026-04-04T15:49:45.186Z</time></trkpt><trkpt lat="39.8385687" lon="18.2514768"><ele>6.8</ele><time>2026-04-04T15:49:46.185Z</time></trkpt><trkpt lat="39.8385446" lon="18.2513537"><ele>7.0</ele><time>2026-04-04T15:49:47.185Z</time></trkpt><trkpt lat="39.8385133" lon="18.2512125"><ele>7.0</ele><time>2026-04-04T15:49:48.185Z</time></trkpt><trkpt lat="39.8384988" lon="18.251048"><ele>7.0</ele><time>2026-04-04T15:49:49.185Z</time></trkpt><trkpt lat="39.838498" lon="18.2508718"><ele>7.0</ele><time>2026-04-04T15:49:50.186Z</time></trkpt><trkpt lat="39.8385017" lon="18.250693"><ele>7.0</ele><time>2026-04-04T15:49:51.187Z</time></trkpt><trkpt lat="39.8385078" lon="18.2504999"><ele>7.333333333333334</ele><time>2026-04-04T15:49:52.186Z</time></trkpt><trkpt lat="39.8385138" lon="18.2502976"><ele>7.666666666666666</ele><time>2026-04-04T15:49:53.186Z</time></trkpt><trkpt lat="39.8385188" lon="18.2500886"><ele>8.0</ele><time>2026-04-04T15:49:54.186Z</time></trkpt><trkpt lat="39.838524" lon="18.2498818"><ele>7.666666666666666</ele><time>2026-04-04T15:49:55.185Z</time></trkpt><trkpt lat="39.8385298" lon="18.2496674"><ele>7.333333333333334</ele><time>2026-04-04T15:49:56.185Z</time></trkpt><trkpt lat="39.838535" lon="18.2494488"><ele>7.0</ele><time>2026-04-04T15:49:57.186Z</time></trkpt><trkpt lat="39.83854" lon="18.2492267"><ele>7.0</ele><time>2026-04-04T15:49:58.185Z</time></trkpt><trkpt lat="39.8385426" lon="18.2489965"><ele>7.0</ele><time>2026-04-04T15:49:59.185Z</time></trkpt><trkpt lat="39.8385433" lon="18.2487603"><ele>7.0</ele><time>2026-04-04T15:50:00.185Z</time></trkpt><trkpt lat="39.8385398" lon="18.2485276"><ele>7.0</ele><time>2026-04-04T15:50:01.185Z</time></trkpt><trkpt lat="39.83853" lon="18.2482913"><ele>7.0</ele><time>2026-04-04T15:50:02.187Z</time></trkpt><trkpt lat="39.8385104" lon="18.2480524"><ele>7.0</ele><time>2026-04-04T15:50:03.186Z</time></trkpt><trkpt lat="39.8384852" lon="18.2478125"><ele>6.666666666666667</ele><time>2026-04-04T15:50:04.187Z</time></trkpt><trkpt lat="39.838457" lon="18.247571"><ele>6.333333333333334</ele><time>2026-04-04T15:50:05.186Z</time></trkpt><trkpt lat="39.8384251" lon="18.2473284"><ele>6.0</ele><time>2026-04-04T15:50:06.187Z</time></trkpt><trkpt lat="39.8383949" lon="18.2470847"><ele>6.0</ele><time>2026-04-04T15:50:07.187Z</time></trkpt><trkpt lat="39.8383701" lon="18.2468403"><ele>6.0</ele><time>2026-04-04T15:50:08.186Z</time></trkpt><trkpt lat="39.8383494" lon="18.246597"><ele>6.0</ele><time>2026-04-04T15:50:09.185Z</time></trkpt><trkpt lat="39.8383241" lon="18.2463407"><ele>6.0</ele><time>2026-04-04T15:50:10.185Z</time></trkpt><trkpt lat="39.8382932" lon="18.2460689"><ele>6.0</ele><time>2026-04-04T15:50:11.185Z</time></trkpt><trkpt lat="39.8382664" lon="18.2457955"><ele>6.0</ele><time>2026-04-04T15:50:12.185Z</time></trkpt><trkpt lat="39.8382472" lon="18.2455198"><ele>6.0</ele><time>2026-04-04T15:50:13.185Z</time></trkpt><trkpt lat="39.8382301" lon="18.2452441"><ele>6.0</ele><time>2026-04-04T15:50:14.186Z</time></trkpt><trkpt lat="39.8382086" lon="18.2449708"><ele>6.0</ele><time>2026-04-04T15:50:15.185Z</time></trkpt><trkpt lat="39.8381823" lon="18.2446946"><ele>6.0</ele><time>2026-04-04T15:50:16.186Z</time></trkpt><trkpt lat="39.8381545" lon="18.2444174"><ele>6.0</ele><time>2026-04-04T15:50:17.186Z</time></trkpt><trkpt lat="39.838126" lon="18.2441388"><ele>6.0</ele><time>2026-04-04T15:50:18.186Z</time></trkpt><trkpt lat="39.8380974" lon="18.2438597"><ele>5.666666666666667</ele><time>2026-04-04T15:50:19.186Z</time></trkpt><trkpt lat="39.8380691" lon="18.2435809"><ele>5.333333333333334</ele><time>2026-04-04T15:50:20.186Z</time></trkpt><trkpt lat="39.838041" lon="18.2433018"><ele>5.0</ele><time>2026-04-04T15:50:21.186Z</time></trkpt><trkpt lat="39.8380137" lon="18.2430233"><ele>5.666666666666667</ele><time>2026-04-04T15:50:22.185Z</time></trkpt><trkpt lat="39.8379865" lon="18.2427458"><ele>6.333333333333334</ele><time>2026-04-04T15:50:23.185Z</time></trkpt><trkpt lat="39.837959" lon="18.2424695"><ele>7.0</ele><time>2026-04-04T15:50:24.185Z</time></trkpt><trkpt lat="39.8379335" lon="18.2421954"><ele>7.0</ele><time>2026-04-04T15:50:25.186Z</time></trkpt><trkpt lat="39.8379079" lon="18.2419232"><ele>7.0</ele><time>2026-04-04T15:50:26.185Z</time></trkpt><trkpt lat="39.8378801" lon="18.2416539"><ele>7.0</ele><time>2026-04-04T15:50:27.185Z</time></trkpt><trkpt lat="39.8378527" lon="18.2413866"><ele>7.0</ele><time>2026-04-04T15:50:28.187Z</time></trkpt><trkpt lat="39.8378274" lon="18.2411212"><ele>7.0</ele><time>2026-04-04T15:50:29.186Z</time></trkpt><trkpt lat="39.837802" lon="18.2408592"><ele>7.0</ele><time>2026-04-04T15:50:30.185Z</time></trkpt><trkpt lat="39.8377754" lon="18.2405998"><ele>6.666666666666667</ele><time>2026-04-04T15:50:31.186Z</time></trkpt><trkpt lat="39.837748" lon="18.2403447"><ele>6.333333333333334</ele><time>2026-04-04T15:50:32.186Z</time></trkpt><trkpt lat="39.8377214" lon="18.2400926"><ele>6.0</ele><time>2026-04-04T15:50:33.186Z</time></trkpt><trkpt lat="39.8376992" lon="18.2398419"><ele>6.0</ele><time>2026-04-04T15:50:34.186Z</time></trkpt><trkpt lat="39.8376866" lon="18.2395897"><ele>6.0</ele><time>2026-04-04T15:50:35.185Z</time></trkpt><trkpt lat="39.837683" lon="18.2393346"><ele>6.0</ele><time>2026-04-04T15:50:36.186Z</time></trkpt><trkpt lat="39.8376939" lon="18.2390793"><ele>6.0</ele><time>2026-04-04T15:50:37.186Z</time></trkpt><trkpt lat="39.8377192" lon="18.2388249"><ele>6.0</ele><time>2026-04-04T15:50:38.186Z</time></trkpt><trkpt lat="39.8377559" lon="18.2385742"><ele>6.0</ele><time>2026-04-04T15:50:39.186Z</time></trkpt><trkpt lat="39.8377967" lon="18.2383243"><ele>6.666666666666666</ele><time>2026-04-04T15:50:40.186Z</time></trkpt><trkpt lat="39.83784" lon="18.2380751"><ele>7.333333333333333</ele><time>2026-04-04T15:50:41.187Z</time></trkpt><trkpt lat="39.8378829" lon="18.2378259"><ele>8.0</ele><time>2026-04-04T15:50:42.187Z</time></trkpt><trkpt lat="39.8379243" lon="18.2375735"><ele>8.0</ele><time>2026-04-04T15:50:43.186Z</time></trkpt><trkpt lat="39.8379655" lon="18.2373199"><ele>8.0</ele><time>2026-04-04T15:50:44.185Z</time></trkpt><trkpt lat="39.8380059" lon="18.237064"><ele>8.0</ele><time>2026-04-04T15:50:45.186Z</time></trkpt><trkpt lat="39.838048" lon="18.236806"><ele>8.333333333333332</ele><time>2026-04-04T15:50:46.185Z</time></trkpt><trkpt lat="39.8380902" lon="18.2365453"><ele>8.666666666666666</ele><time>2026-04-04T15:50:47.185Z</time></trkpt><trkpt lat="39.8381329" lon="18.2362828"><ele>9.0</ele><time>2026-04-04T15:50:48.185Z</time></trkpt><trkpt lat="39.8381753" lon="18.2360206"><ele>8.333333333333334</ele><time>2026-04-04T15:50:49.186Z</time></trkpt><trkpt lat="39.8382175" lon="18.2357577"><ele>7.666666666666667</ele><time>2026-04-04T15:50:50.185Z</time></trkpt><trkpt lat="39.8382574" lon="18.2354957"><ele>7.0</ele><time>2026-04-04T15:50:51.185Z</time></trkpt><trkpt lat="39.8382975" lon="18.2352401"><ele>6.333333333333334</ele><time>2026-04-04T15:50:52.185Z</time></trkpt><trkpt lat="39.838337" lon="18.2349974"><ele>5.666666666666667</ele><time>2026-04-04T15:50:53.186Z</time></trkpt><trkpt lat="39.8383704" lon="18.2347561"><ele>5.0</ele><time>2026-04-04T15:50:54.186Z</time></trkpt><trkpt lat="39.8384022" lon="18.2345076"><ele>5.0</ele><time>2026-04-04T15:50:55.185Z</time></trkpt><trkpt lat="39.8384443" lon="18.2342572"><ele>5.0</ele><time>2026-04-04T15:50:56.185Z</time></trkpt><trkpt lat="39.8384934" lon="18.2340055"><ele>5.0</ele><time>2026-04-04T15:50:57.186Z</time></trkpt><trkpt lat="39.8385435" lon="18.2337512"><ele>7.0</ele><time>2026-04-04T15:50:58.187Z</time></trkpt><trkpt lat="39.8385879" lon="18.2334951"><ele>9.0</ele><time>2026-04-04T15:50:59.185Z</time></trkpt><trkpt lat="39.8386284" lon="18.2332366"><ele>11.0</ele><time>2026-04-04T15:51:00.186Z</time></trkpt><trkpt lat="39.8386701" lon="18.2329747"><ele>11.0</ele><time>2026-04-04T15:51:01.185Z</time></trkpt><trkpt lat="39.8387132" lon="18.2327108"><ele>11.0</ele><time>2026-04-04T15:51:02.185Z</time></trkpt><trkpt lat="39.8387575" lon="18.2324463"><ele>11.0</ele><time>2026-04-04T15:51:03.186Z</time></trkpt><trkpt lat="39.8388026" lon="18.2321811"><ele>10.666666666666666</ele><time>2026-04-04T15:51:04.186Z</time></trkpt><trkpt lat="39.8388467" lon="18.2319146"><ele>10.333333333333334</ele><time>2026-04-04T15:51:05.187Z</time></trkpt><trkpt lat="39.8388904" lon="18.2316479"><ele>10.0</ele><time>2026-04-04T15:51:06.186Z</time></trkpt><trkpt lat="39.8389333" lon="18.231382"><ele>9.333333333333334</ele><time>2026-04-04T15:51:07.185Z</time></trkpt><trkpt lat="39.8389774" lon="18.2311176"><ele>8.666666666666666</ele><time>2026-04-04T15:51:08.184Z</time></trkpt><trkpt lat="39.8390206" lon="18.2308546"><ele>8.0</ele><time>2026-04-04T15:51:09.185Z</time></trkpt><trkpt lat="39.8390642" lon="18.230592"><ele>8.0</ele><time>2026-04-04T15:51:10.184Z</time></trkpt><trkpt lat="39.8391124" lon="18.230331"><ele>8.0</ele><time>2026-04-04T15:51:11.185Z</time></trkpt><trkpt lat="39.8391687" lon="18.2300745"><ele>8.0</ele><time>2026-04-04T15:51:12.185Z</time></trkpt><trkpt lat="39.8392319" lon="18.2298227"><ele>7.333333333333333</ele><time>2026-04-04T15:51:13.186Z</time></trkpt><trkpt lat="39.8392997" lon="18.2295728"><ele>6.666666666666666</ele><time>2026-04-04T15:51:14.184Z</time></trkpt><trkpt lat="39.839368" lon="18.2293222"><ele>6.0</ele><time>2026-04-04T15:51:15.185Z</time></trkpt><trkpt lat="39.8394363" lon="18.2290705"><ele>7.0</ele><time>2026-04-04T15:51:16.184Z</time></trkpt><trkpt lat="39.8395044" lon="18.2288188"><ele>8.0</ele><time>2026-04-04T15:51:17.184Z</time></trkpt><trkpt lat="39.8395728" lon="18.2285672"><ele>9.0</ele><time>2026-04-04T15:51:18.185Z</time></trkpt><trkpt lat="39.8396406" lon="18.2283159"><ele>8.666666666666666</ele><time>2026-04-04T15:51:19.185Z</time></trkpt><trkpt lat="39.8397089" lon="18.2280654"><ele>8.333333333333332</ele><time>2026-04-04T15:51:20.184Z</time></trkpt><trkpt lat="39.839777" lon="18.2278137"><ele>8.0</ele><time>2026-04-04T15:51:21.184Z</time></trkpt><trkpt lat="39.8398449" lon="18.2275608"><ele>7.333333333333333</ele><time>2026-04-04T15:51:22.184Z</time></trkpt><trkpt lat="39.839914" lon="18.2273072"><ele>6.666666666666666</ele><time>2026-04-04T15:51:23.184Z</time></trkpt><trkpt lat="39.839984" lon="18.2270531"><ele>6.0</ele><time>2026-04-04T15:51:24.185Z</time></trkpt><trkpt lat="39.8400527" lon="18.2267979"><ele>6.0</ele><time>2026-04-04T15:51:25.185Z</time></trkpt><trkpt lat="39.8401215" lon="18.2265413"><ele>6.0</ele><time>2026-04-04T15:51:26.184Z</time></trkpt><trkpt lat="39.8401911" lon="18.2262847"><ele>6.0</ele><time>2026-04-04T15:51:27.184Z</time></trkpt><trkpt lat="39.8402605" lon="18.2260272"><ele>7.0</ele><time>2026-04-04T15:51:28.185Z</time></trkpt><trkpt lat="39.8403319" lon="18.2257691"><ele>8.0</ele><time>2026-04-04T15:51:29.184Z</time></trkpt><trkpt lat="39.8404043" lon="18.2255113"><ele>9.0</ele><time>2026-04-04T15:51:30.186Z</time></trkpt><trkpt lat="39.840476" lon="18.2252515"><ele>9.0</ele><time>2026-04-04T15:51:31.185Z</time></trkpt><trkpt lat="39.8405452" lon="18.2249912"><ele>9.0</ele><time>2026-04-04T15:51:32.185Z</time></trkpt><trkpt lat="39.8406142" lon="18.2247306"><ele>9.0</ele><time>2026-04-04T15:51:33.186Z</time></trkpt><trkpt lat="39.8406838" lon="18.2244692"><ele>8.666666666666666</ele><time>2026-04-04T15:51:34.185Z</time></trkpt><trkpt lat="39.8407539" lon="18.2242096"><ele>8.333333333333332</ele><time>2026-04-04T15:51:35.185Z</time></trkpt><trkpt lat="39.8408245" lon="18.2239508"><ele>8.0</ele><time>2026-04-04T15:51:36.185Z</time></trkpt><trkpt lat="39.8408949" lon="18.2236932"><ele>8.333333333333332</ele><time>2026-04-04T15:51:37.186Z</time></trkpt><trkpt lat="39.8409669" lon="18.223437"><ele>8.666666666666666</ele><time>2026-04-04T15:51:38.186Z</time></trkpt><trkpt lat="39.8410382" lon="18.2231793"><ele>9.0</ele><time>2026-04-04T15:51:39.185Z</time></trkpt><trkpt lat="39.8411088" lon="18.2229222"><ele>9.0</ele><time>2026-04-04T15:51:40.185Z</time></trkpt><trkpt lat="39.8411784" lon="18.2226645"><ele>9.0</ele><time>2026-04-04T15:51:41.185Z</time></trkpt><trkpt lat="39.841248" lon="18.222408"><ele>9.0</ele><time>2026-04-04T15:51:42.185Z</time></trkpt><trkpt lat="39.8413175" lon="18.2221505"><ele>8.666666666666666</ele><time>2026-04-04T15:51:43.185Z</time></trkpt><trkpt lat="39.8413848" lon="18.2218933"><ele>8.333333333333332</ele><time>2026-04-04T15:51:44.184Z</time></trkpt><trkpt lat="39.8414528" lon="18.2216375"><ele>8.0</ele><time>2026-04-04T15:51:45.184Z</time></trkpt><trkpt lat="39.8415203" lon="18.2213824"><ele>8.0</ele><time>2026-04-04T15:51:46.185Z</time></trkpt><trkpt lat="39.8415898" lon="18.221129"><ele>8.0</ele><time>2026-04-04T15:51:47.184Z</time></trkpt><trkpt lat="39.8416594" lon="18.2208763"><ele>8.0</ele><time>2026-04-04T15:51:48.184Z</time></trkpt><trkpt lat="39.8417291" lon="18.2206241"><ele>8.0</ele><time>2026-04-04T15:51:49.185Z</time></trkpt><trkpt lat="39.8417978" lon="18.220371"><ele>8.0</ele><time>2026-04-04T15:51:50.185Z</time></trkpt><trkpt lat="39.8418657" lon="18.220121"><ele>8.0</ele><time>2026-04-04T15:51:51.185Z</time></trkpt><trkpt lat="39.8419311" lon="18.2198751"><ele>8.666666666666666</ele><time>2026-04-04T15:51:52.184Z</time></trkpt><trkpt lat="39.8419958" lon="18.219633"><ele>9.333333333333334</ele><time>2026-04-04T15:51:53.185Z</time></trkpt><trkpt lat="39.8420588" lon="18.2193934"><ele>10.0</ele><time>2026-04-04T15:51:54.184Z</time></trkpt><trkpt lat="39.8421185" lon="18.2191579"><ele>9.666666666666668</ele><time>2026-04-04T15:51:55.185Z</time></trkpt><trkpt lat="39.8421746" lon="18.2189276"><ele>9.333333333333334</ele><time>2026-04-04T15:51:56.184Z</time></trkpt><trkpt lat="39.8422292" lon="18.2186988"><ele>9.0</ele><time>2026-04-04T15:51:57.186Z</time></trkpt><trkpt lat="39.8422842" lon="18.2184665"><ele>9.0</ele><time>2026-04-04T15:51:58.186Z</time></trkpt><trkpt lat="39.8423437" lon="18.2182366"><ele>9.0</ele><time>2026-04-04T15:51:59.184Z</time></trkpt><trkpt lat="39.8424058" lon="18.2180172"><ele>9.0</ele><time>2026-04-04T15:52:00.185Z</time></trkpt><trkpt lat="39.8424627" lon="18.2178023"><ele>9.0</ele><time>2026-04-04T15:52:01.186Z</time></trkpt><trkpt lat="39.8425188" lon="18.2175832"><ele>9.0</ele><time>2026-04-04T15:52:02.186Z</time></trkpt><trkpt lat="39.8425796" lon="18.2173681"><ele>9.0</ele><time>2026-04-04T15:52:03.185Z</time></trkpt><trkpt lat="39.8426449" lon="18.217153"><ele>10.333333333333332</ele><time>2026-04-04T15:52:04.185Z</time></trkpt><trkpt lat="39.8427105" lon="18.2169347"><ele>11.666666666666666</ele><time>2026-04-04T15:52:05.184Z</time></trkpt><trkpt lat="39.8427735" lon="18.2167117"><ele>13.0</ele><time>2026-04-04T15:52:06.185Z</time></trkpt><trkpt lat="39.8428382" lon="18.2164866"><ele>12.333333333333332</ele><time>2026-04-04T15:52:07.185Z</time></trkpt><trkpt lat="39.8429039" lon="18.2162584"><ele>11.666666666666666</ele><time>2026-04-04T15:52:08.186Z</time></trkpt><trkpt lat="39.8429672" lon="18.2160257"><ele>11.0</ele><time>2026-04-04T15:52:09.185Z</time></trkpt><trkpt lat="39.8430305" lon="18.2157896"><ele>10.333333333333332</ele><time>2026-04-04T15:52:10.184Z</time></trkpt><trkpt lat="39.8430939" lon="18.2155513"><ele>9.666666666666666</ele><time>2026-04-04T15:52:11.186Z</time></trkpt><trkpt lat="39.8431568" lon="18.2153124"><ele>9.0</ele><time>2026-04-04T15:52:12.185Z</time></trkpt><trkpt lat="39.8432202" lon="18.2150715"><ele>9.0</ele><time>2026-04-04T15:52:13.185Z</time></trkpt><trkpt lat="39.8432834" lon="18.2148306"><ele>9.0</ele><time>2026-04-04T15:52:14.185Z</time></trkpt><trkpt lat="39.8433475" lon="18.2145885"><ele>9.0</ele><time>2026-04-04T15:52:15.186Z</time></trkpt><trkpt lat="39.8434138" lon="18.2143469"><ele>9.666666666666666</ele><time>2026-04-04T15:52:16.185Z</time></trkpt><trkpt lat="39.8434817" lon="18.2141068"><ele>10.333333333333332</ele><time>2026-04-04T15:52:17.184Z</time></trkpt><trkpt lat="39.843546" lon="18.2138676"><ele>11.0</ele><time>2026-04-04T15:52:18.184Z</time></trkpt><trkpt lat="39.8436085" lon="18.2136311"><ele>11.0</ele><time>2026-04-04T15:52:19.184Z</time></trkpt><trkpt lat="39.8436685" lon="18.2133983"><ele>11.0</ele><time>2026-04-04T15:52:20.185Z</time></trkpt><trkpt lat="39.8437265" lon="18.2131717"><ele>11.0</ele><time>2026-04-04T15:52:21.184Z</time></trkpt><trkpt lat="39.8437855" lon="18.2129487"><ele>11.0</ele><time>2026-04-04T15:52:22.184Z</time></trkpt><trkpt lat="39.8438401" lon="18.212727"><ele>11.0</ele><time>2026-04-04T15:52:23.184Z</time></trkpt><trkpt lat="39.8438905" lon="18.2125057"><ele>11.0</ele><time>2026-04-04T15:52:24.184Z</time></trkpt><trkpt lat="39.8439345" lon="18.2122855"><ele>10.666666666666666</ele><time>2026-04-04T15:52:25.185Z</time></trkpt><trkpt lat="39.8439722" lon="18.2120654"><ele>10.333333333333334</ele><time>2026-04-04T15:52:26.185Z</time></trkpt><trkpt lat="39.844006" lon="18.211848"><ele>10.0</ele><time>2026-04-04T15:52:27.185Z</time></trkpt><trkpt lat="39.8440367" lon="18.2116347"><ele>10.25</ele><time>2026-04-04T15:52:28.184Z</time></trkpt><trkpt lat="39.8440663" lon="18.2114332"><ele>10.5</ele><time>2026-04-04T15:52:29.186Z</time></trkpt><trkpt lat="39.8440939" lon="18.2112411"><ele>10.75</ele><time>2026-04-04T15:52:30.186Z</time></trkpt><trkpt lat="39.8441191" lon="18.2110599"><ele>11.0</ele><time>2026-04-04T15:52:31.185Z</time></trkpt><trkpt lat="39.844142" lon="18.2108884"><ele>11.0</ele><time>2026-04-04T15:52:32.185Z</time></trkpt><trkpt lat="39.8441656" lon="18.210724"><ele>11.0</ele><time>2026-04-04T15:52:33.184Z</time></trkpt><trkpt lat="39.8441887" lon="18.2105727"><ele>11.0</ele><time>2026-04-04T15:52:34.185Z</time></trkpt><trkpt lat="39.8442158" lon="18.2104329"><ele>11.0</ele><time>2026-04-04T15:52:35.184Z</time></trkpt><trkpt lat="39.8442445" lon="18.2102872"><ele>10.75</ele><time>2026-04-04T15:52:36.184Z</time></trkpt><trkpt lat="39.8442687" lon="18.2101305"><ele>10.5</ele><time>2026-04-04T15:52:37.185Z</time></trkpt><trkpt lat="39.8442861" lon="18.2099618"><ele>10.25</ele><time>2026-04-04T15:52:38.184Z</time></trkpt><trkpt lat="39.8443097" lon="18.2097835"><ele>10.0</ele><time>2026-04-04T15:52:39.184Z</time></trkpt><trkpt lat="39.8443366" lon="18.2095975"><ele>10.25</ele><time>2026-04-04T15:52:40.184Z</time></trkpt><trkpt lat="39.8443645" lon="18.2094052"><ele>10.5</ele><time>2026-04-04T15:52:41.184Z</time></trkpt><trkpt lat="39.844391" lon="18.2092198"><ele>10.75</ele><time>2026-04-04T15:52:42.186Z</time></trkpt><trkpt lat="39.8444171" lon="18.2090496"><ele>11.0</ele><time>2026-04-04T15:52:43.184Z</time></trkpt><trkpt lat="39.8444408" lon="18.2088962"><ele>11.0</ele><time>2026-04-04T15:52:44.184Z</time></trkpt><trkpt lat="39.844457" lon="18.2087769"><ele>11.0</ele><time>2026-04-04T15:52:45.185Z</time></trkpt><trkpt lat="39.8444619" lon="18.208686"><ele>11.0</ele><time>2026-04-04T15:52:46.185Z</time></trkpt><trkpt lat="39.8444598" lon="18.2086025"><ele>11.0</ele><time>2026-04-04T15:52:47.185Z</time></trkpt><trkpt lat="39.8444693" lon="18.2084988"><ele>11.0</ele><time>2026-04-04T15:52:48.185Z</time></trkpt><trkpt lat="39.844495" lon="18.2083788"><ele>11.0</ele><time>2026-04-04T15:52:49.186Z</time></trkpt><trkpt lat="39.8445279" lon="18.2082395"><ele>11.25</ele><time>2026-04-04T15:52:50.186Z</time></trkpt><trkpt lat="39.8445562" lon="18.2080807"><ele>11.5</ele><time>2026-04-04T15:52:51.184Z</time></trkpt><trkpt lat="39.8445836" lon="18.2079049"><ele>11.75</ele><time>2026-04-04T15:52:52.184Z</time></trkpt><trkpt lat="39.8446105" lon="18.2077149"><ele>12.0</ele><time>2026-04-04T15:52:53.185Z</time></trkpt><trkpt lat="39.8446374" lon="18.2075127"><ele>11.666666666666666</ele><time>2026-04-04T15:52:54.186Z</time></trkpt><trkpt lat="39.8446664" lon="18.2073026"><ele>11.333333333333332</ele><time>2026-04-04T15:52:55.185Z</time></trkpt><trkpt lat="39.8446981" lon="18.2070844"><ele>11.0</ele><time>2026-04-04T15:52:56.185Z</time></trkpt><trkpt lat="39.8447311" lon="18.2068574"><ele>11.0</ele><time>2026-04-04T15:52:57.185Z</time></trkpt><trkpt lat="39.8447651" lon="18.2066231"><ele>11.0</ele><time>2026-04-04T15:52:58.186Z</time></trkpt><trkpt lat="39.8447995" lon="18.2063825"><ele>11.0</ele><time>2026-04-04T15:52:59.186Z</time></trkpt><trkpt lat="39.8448332" lon="18.2061364"><ele>10.666666666666666</ele><time>2026-04-04T15:53:00.184Z</time></trkpt><trkpt lat="39.8448686" lon="18.205885"><ele>10.333333333333334</ele><time>2026-04-04T15:53:01.184Z</time></trkpt><trkpt lat="39.844906" lon="18.2056283"><ele>10.0</ele><time>2026-04-04T15:53:02.184Z</time></trkpt><trkpt lat="39.8449461" lon="18.2053662"><ele>10.0</ele><time>2026-04-04T15:53:03.184Z</time></trkpt><trkpt lat="39.844985" lon="18.2051001"><ele>10.0</ele><time>2026-04-04T15:53:04.184Z</time></trkpt><trkpt lat="39.8450226" lon="18.2048308"><ele>10.0</ele><time>2026-04-04T15:53:05.184Z</time></trkpt><trkpt lat="39.8450607" lon="18.2045596"><ele>10.0</ele><time>2026-04-04T15:53:06.185Z</time></trkpt><trkpt lat="39.8450991" lon="18.2042873"><ele>10.0</ele><time>2026-04-04T15:53:07.184Z</time></trkpt><trkpt lat="39.8451393" lon="18.2040128"><ele>10.0</ele><time>2026-04-04T15:53:08.185Z</time></trkpt><trkpt lat="39.8451796" lon="18.203738"><ele>10.666666666666668</ele><time>2026-04-04T15:53:09.185Z</time></trkpt><trkpt lat="39.8452217" lon="18.2034636"><ele>11.333333333333334</ele><time>2026-04-04T15:53:10.186Z</time></trkpt><trkpt lat="39.8452686" lon="18.2031899"><ele>12.0</ele><time>2026-04-04T15:53:11.185Z</time></trkpt><trkpt lat="39.8453305" lon="18.2029211"><ele>12.0</ele><time>2026-04-04T15:53:12.186Z</time></trkpt><trkpt lat="39.8454129" lon="18.2026636"><ele>12.0</ele><time>2026-04-04T15:53:13.185Z</time></trkpt><trkpt lat="39.8455074" lon="18.202413"><ele>12.0</ele><time>2026-04-04T15:53:14.184Z</time></trkpt><trkpt lat="39.8456113" lon="18.2021669"><ele>11.333333333333334</ele><time>2026-04-04T15:53:15.185Z</time></trkpt><trkpt lat="39.84572" lon="18.2019254"><ele>10.666666666666668</ele><time>2026-04-04T15:53:16.184Z</time></trkpt><trkpt lat="39.8458301" lon="18.2016827"><ele>10.0</ele><time>2026-04-04T15:53:17.184Z</time></trkpt><trkpt lat="39.845939" lon="18.2014395"><ele>10.666666666666668</ele><time>2026-04-04T15:53:18.184Z</time></trkpt><trkpt lat="39.8460484" lon="18.2011964"><ele>11.333333333333334</ele><time>2026-04-04T15:53:19.184Z</time></trkpt><trkpt lat="39.8461583" lon="18.2009546"><ele>12.0</ele><time>2026-04-04T15:53:20.185Z</time></trkpt><trkpt lat="39.846267" lon="18.2007123"><ele>11.0</ele><time>2026-04-04T15:53:21.184Z</time></trkpt><trkpt lat="39.8463761" lon="18.2004713"><ele>10.0</ele><time>2026-04-04T15:53:22.185Z</time></trkpt><trkpt lat="39.8464855" lon="18.2002297"><ele>9.0</ele><time>2026-04-04T15:53:23.185Z</time></trkpt><trkpt lat="39.8465948" lon="18.1999879"><ele>9.333333333333334</ele><time>2026-04-04T15:53:24.184Z</time></trkpt><trkpt lat="39.8467046" lon="18.1997452"><ele>9.666666666666668</ele><time>2026-04-04T15:53:25.185Z</time></trkpt><trkpt lat="39.8468148" lon="18.1995027"><ele>10.0</ele><time>2026-04-04T15:53:26.184Z</time></trkpt><trkpt lat="39.8469253" lon="18.1992605"><ele>10.0</ele><time>2026-04-04T15:53:27.186Z</time></trkpt><trkpt lat="39.8470337" lon="18.199017"><ele>10.0</ele><time>2026-04-04T15:53:28.185Z</time></trkpt><trkpt lat="39.8471415" lon="18.1987739"><ele>10.0</ele><time>2026-04-04T15:53:29.185Z</time></trkpt><trkpt lat="39.8472514" lon="18.1985332"><ele>9.666666666666668</ele><time>2026-04-04T15:53:30.184Z</time></trkpt><trkpt lat="39.8473625" lon="18.198292"><ele>9.333333333333334</ele><time>2026-04-04T15:53:31.184Z</time></trkpt><trkpt lat="39.847473" lon="18.1980503"><ele>9.0</ele><time>2026-04-04T15:53:32.185Z</time></trkpt><trkpt lat="39.8475827" lon="18.1978076"><ele>9.0</ele><time>2026-04-04T15:53:33.185Z</time></trkpt><trkpt lat="39.8476924" lon="18.1975654"><ele>9.0</ele><time>2026-04-04T15:53:34.184Z</time></trkpt><trkpt lat="39.8478028" lon="18.1973228"><ele>9.0</ele><time>2026-04-04T15:53:35.185Z</time></trkpt><trkpt lat="39.8479121" lon="18.1970793"><ele>8.666666666666666</ele><time>2026-04-04T15:53:36.185Z</time></trkpt><trkpt lat="39.8480188" lon="18.1968364"><ele>8.333333333333332</ele><time>2026-04-04T15:53:37.185Z</time></trkpt><trkpt lat="39.8481279" lon="18.196594"><ele>8.0</ele><time>2026-04-04T15:53:38.184Z</time></trkpt><trkpt lat="39.8482378" lon="18.196352"><ele>8.0</ele><time>2026-04-04T15:53:39.184Z</time></trkpt><trkpt lat="39.848348" lon="18.1961098"><ele>8.0</ele><time>2026-04-04T15:53:40.186Z</time></trkpt><trkpt lat="39.8484572" lon="18.1958671"><ele>8.0</ele><time>2026-04-04T15:53:41.185Z</time></trkpt><trkpt lat="39.8485666" lon="18.195625"><ele>9.333333333333332</ele><time>2026-04-04T15:53:42.185Z</time></trkpt><trkpt lat="39.8486767" lon="18.1953828"><ele>10.666666666666666</ele><time>2026-04-04T15:53:43.186Z</time></trkpt><trkpt lat="39.8487869" lon="18.1951402"><ele>12.0</ele><time>2026-04-04T15:53:44.184Z</time></trkpt><trkpt lat="39.8488959" lon="18.1948991"><ele>11.666666666666666</ele><time>2026-04-04T15:53:45.186Z</time></trkpt><trkpt lat="39.8490039" lon="18.1946563"><ele>11.333333333333332</ele><time>2026-04-04T15:53:46.185Z</time></trkpt><trkpt lat="39.8491115" lon="18.1944131"><ele>11.0</ele><time>2026-04-04T15:53:47.185Z</time></trkpt><trkpt lat="39.8492188" lon="18.1941714"><ele>12.0</ele><time>2026-04-04T15:53:48.185Z</time></trkpt><trkpt lat="39.8493293" lon="18.1939318"><ele>13.0</ele><time>2026-04-04T15:53:49.184Z</time></trkpt><trkpt lat="39.8494475" lon="18.1936992"><ele>14.0</ele><time>2026-04-04T15:53:50.184Z</time></trkpt><trkpt lat="39.8495742" lon="18.1934746"><ele>14.0</ele><time>2026-04-04T15:53:51.185Z</time></trkpt><trkpt lat="39.8497084" lon="18.1932597"><ele>14.0</ele><time>2026-04-04T15:53:52.185Z</time></trkpt><trkpt lat="39.8498448" lon="18.1930515"><ele>14.0</ele><time>2026-04-04T15:53:53.184Z</time></trkpt><trkpt lat="39.8499816" lon="18.1928445"><ele>14.333333333333334</ele><time>2026-04-04T15:53:54.185Z</time></trkpt><trkpt lat="39.8501178" lon="18.1926407"><ele>14.666666666666668</ele><time>2026-04-04T15:53:55.185Z</time></trkpt><trkpt lat="39.8502541" lon="18.1924397"><ele>15.0</ele><time>2026-04-04T15:53:56.185Z</time></trkpt><trkpt lat="39.850391" lon="18.1922405"><ele>14.0</ele><time>2026-04-04T15:53:57.185Z</time></trkpt><trkpt lat="39.8505273" lon="18.1920416"><ele>13.0</ele><time>2026-04-04T15:53:58.184Z</time></trkpt><trkpt lat="39.85066" lon="18.1918451"><ele>12.0</ele><time>2026-04-04T15:53:59.184Z</time></trkpt><trkpt lat="39.8507897" lon="18.1916521"><ele>11.666666666666666</ele><time>2026-04-04T15:54:00.184Z</time></trkpt><trkpt lat="39.8509134" lon="18.1914703"><ele>11.333333333333332</ele><time>2026-04-04T15:54:01.185Z</time></trkpt><trkpt lat="39.8510281" lon="18.1913001"><ele>11.0</ele><time>2026-04-04T15:54:02.185Z</time></trkpt><trkpt lat="39.8511362" lon="18.1911412"><ele>11.0</ele><time>2026-04-04T15:54:03.186Z</time></trkpt><trkpt lat="39.851239" lon="18.1909893"><ele>11.0</ele><time>2026-04-04T15:54:04.185Z</time></trkpt><trkpt lat="39.851337" lon="18.1908424"><ele>11.0</ele><time>2026-04-04T15:54:05.185Z</time></trkpt><trkpt lat="39.8514329" lon="18.1906991"><ele>10.75</ele><time>2026-04-04T15:54:06.185Z</time></trkpt><trkpt lat="39.8515271" lon="18.1905614"><ele>10.5</ele><time>2026-04-04T15:54:07.185Z</time></trkpt><trkpt lat="39.8516187" lon="18.1904274"><ele>10.25</ele><time>2026-04-04T15:54:08.184Z</time></trkpt><trkpt lat="39.8517063" lon="18.1903003"><ele>10.0</ele><time>2026-04-04T15:54:09.185Z</time></trkpt><trkpt lat="39.8517854" lon="18.190182"><ele>10.0</ele><time>2026-04-04T15:54:10.184Z</time></trkpt><trkpt lat="39.8518591" lon="18.1900685"><ele>10.0</ele><time>2026-04-04T15:54:11.185Z</time></trkpt><trkpt lat="39.8519296" lon="18.1899624"><ele>10.0</ele><time>2026-04-04T15:54:12.185Z</time></trkpt><trkpt lat="39.8519975" lon="18.1898643"><ele>10.0</ele><time>2026-04-04T15:54:13.185Z</time></trkpt><trkpt lat="39.8520629" lon="18.1897735"><ele>10.0</ele><time>2026-04-04T15:54:14.186Z</time></trkpt><trkpt lat="39.8521254" lon="18.1896874"><ele>10.0</ele><time>2026-04-04T15:54:15.185Z</time></trkpt><trkpt lat="39.8521797" lon="18.1896132"><ele>10.0</ele><time>2026-04-04T15:54:16.184Z</time></trkpt><trkpt lat="39.8522378" lon="18.189559"><ele>10.0</ele><time>2026-04-04T15:54:18.185Z</time></trkpt><trkpt lat="39.8523083" lon="18.1895685"><ele>10.0</ele><time>2026-04-04T15:55:21.186Z</time></trkpt><trkpt lat="39.8523722" lon="18.1895653"><ele>10.0</ele><time>2026-04-04T15:55:49.184Z</time></trkpt><trkpt lat="39.8524322" lon="18.1895177"><ele>10.0</ele><time>2026-04-04T15:57:14.131Z</time></trkpt></trkseg><trkseg><trkpt lat="39.8522511" lon="18.1895688"><ele>10.0</ele><time>2026-04-04T16:11:00.108Z</time></trkpt><trkpt lat="39.8522857" lon="18.1894631"><ele>10.0</ele><time>2026-04-04T16:11:07.184Z</time></trkpt><trkpt lat="39.8523657" lon="18.1893325"><ele>10.0</ele><time>2026-04-04T16:11:09.185Z</time></trkpt><trkpt lat="39.8524014" lon="18.1892623"><ele>10.0</ele><time>2026-04-04T16:11:10.183Z</time></trkpt><trkpt lat="39.8524445" lon="18.189199"><ele>10.0</ele><time>2026-04-04T16:11:11.185Z</time></trkpt><trkpt lat="39.8524953" lon="18.189141"><ele>10.0</ele><time>2026-04-04T16:11:12.184Z</time></trkpt><trkpt lat="39.8525665" lon="18.1891083"><ele>10.0</ele><time>2026-04-04T16:11:13.184Z</time></trkpt><trkpt lat="39.8526397" lon="18.1890775"><ele>10.0</ele><time>2026-04-04T16:11:14.185Z</time></trkpt><trkpt lat="39.8527057" lon="18.1890233"><ele>10.0</ele><time>2026-04-04T16:11:15.183Z</time></trkpt><trkpt lat="39.852762" lon="18.1889503"><ele>10.0</ele><time>2026-04-04T16:11:16.184Z</time></trkpt><trkpt lat="39.8527989" lon="18.1888421"><ele>10.0</ele><time>2026-04-04T16:11:17.184Z</time></trkpt><trkpt lat="39.8528366" lon="18.1887147"><ele>10.0</ele><time>2026-04-04T16:11:18.185Z</time></trkpt><trkpt lat="39.8528877" lon="18.1885864"><ele>10.0</ele><time>2026-04-04T16:11:19.184Z</time></trkpt><trkpt lat="39.8529483" lon="18.1884547"><ele>10.0</ele><time>2026-04-04T16:11:20.183Z</time></trkpt><trkpt lat="39.8530401" lon="18.1883194"><ele>10.0</ele><time>2026-04-04T16:11:21.183Z</time></trkpt><trkpt lat="39.8531374" lon="18.1881853"><ele>10.0</ele><time>2026-04-04T16:11:22.183Z</time></trkpt><trkpt lat="39.8532344" lon="18.1880467"><ele>10.0</ele><time>2026-04-04T16:11:23.183Z</time></trkpt><trkpt lat="39.8533299" lon="18.1878996"><ele>10.0</ele><time>2026-04-04T16:11:24.185Z</time></trkpt><trkpt lat="39.8534262" lon="18.1877609"><ele>10.0</ele><time>2026-04-04T16:11:25.185Z</time></trkpt><trkpt lat="39.8535293" lon="18.1876079"><ele>10.0</ele><time>2026-04-04T16:11:26.184Z</time></trkpt><trkpt lat="39.8536343" lon="18.1874477"><ele>10.0</ele><time>2026-04-04T16:11:27.185Z</time></trkpt><trkpt lat="39.8537402" lon="18.1872849"><ele>10.0</ele><time>2026-04-04T16:11:28.184Z</time></trkpt><trkpt lat="39.853852" lon="18.1871109"><ele>10.0</ele><time>2026-04-04T16:11:29.183Z</time></trkpt><trkpt lat="39.8539623" lon="18.1869355"><ele>10.0</ele><time>2026-04-04T16:11:30.185Z</time></trkpt><trkpt lat="39.8540818" lon="18.1867631"><ele>10.0</ele><time>2026-04-04T16:11:31.184Z</time></trkpt><trkpt lat="39.8542038" lon="18.1865887"><ele>10.0</ele><time>2026-04-04T16:11:32.185Z</time></trkpt><trkpt lat="39.8543273" lon="18.1864071"><ele>10.333333333333334</ele><time>2026-04-04T16:11:33.184Z</time></trkpt><trkpt lat="39.8544495" lon="18.1862202"><ele>10.666666666666666</ele><time>2026-04-04T16:11:34.184Z</time></trkpt><trkpt lat="39.8545708" lon="18.1860221"><ele>11.0</ele><time>2026-04-04T16:11:35.184Z</time></trkpt><trkpt lat="39.8546913" lon="18.185819"><ele>10.666666666666666</ele><time>2026-04-04T16:11:36.184Z</time></trkpt><trkpt lat="39.8548097" lon="18.1856083"><ele>10.333333333333334</ele><time>2026-04-04T16:11:37.185Z</time></trkpt><trkpt lat="39.854926" lon="18.1853948"><ele>10.0</ele><time>2026-04-04T16:11:38.185Z</time></trkpt><trkpt lat="39.8550471" lon="18.1851726"><ele>10.666666666666668</ele><time>2026-04-04T16:11:39.184Z</time></trkpt><trkpt lat="39.8551646" lon="18.18495"><ele>11.333333333333334</ele><time>2026-04-04T16:11:40.184Z</time></trkpt><trkpt lat="39.8552935" lon="18.1847242"><ele>12.0</ele><time>2026-04-04T16:11:41.183Z</time></trkpt><trkpt lat="39.85542" lon="18.184498"><ele>12.0</ele><time>2026-04-04T16:11:42.184Z</time></trkpt><trkpt lat="39.8555506" lon="18.184265"><ele>12.0</ele><time>2026-04-04T16:11:43.183Z</time></trkpt><trkpt lat="39.8556806" lon="18.184032"><ele>12.0</ele><time>2026-04-04T16:11:44.183Z</time></trkpt><trkpt lat="39.8558118" lon="18.1837947"><ele>12.0</ele><time>2026-04-04T16:11:45.185Z</time></trkpt><trkpt lat="39.8559367" lon="18.183572"><ele>12.0</ele><time>2026-04-04T16:11:46.184Z</time></trkpt><trkpt lat="39.8560694" lon="18.1833347"><ele>12.0</ele><time>2026-04-04T16:11:47.185Z</time></trkpt><trkpt lat="39.8561975" lon="18.1830949"><ele>11.0</ele><time>2026-04-04T16:11:48.185Z</time></trkpt><trkpt lat="39.8563306" lon="18.1828539"><ele>10.0</ele><time>2026-04-04T16:11:49.184Z</time></trkpt><trkpt lat="39.8564647" lon="18.1826092"><ele>10.0</ele><time>2026-04-04T16:11:50.183Z</time></trkpt><trkpt lat="39.8565988" lon="18.1823646"><ele>10.0</ele><time>2026-04-04T16:11:51.185Z</time></trkpt><trkpt lat="39.856725" lon="18.1821111"><ele>11.0</ele><time>2026-04-04T16:11:52.185Z</time></trkpt><trkpt lat="39.8568625" lon="18.181862"><ele>12.0</ele><time>2026-04-04T16:11:53.183Z</time></trkpt><trkpt lat="39.856999" lon="18.1816098"><ele>10.5</ele><time>2026-04-04T16:11:54.184Z</time></trkpt><trkpt lat="39.8571365" lon="18.1813623"><ele>9.0</ele><time>2026-04-04T16:11:55.183Z</time></trkpt><trkpt lat="39.8572729" lon="18.1810992"><ele>9.0</ele><time>2026-04-04T16:11:56.184Z</time></trkpt><trkpt lat="39.8574177" lon="18.1808361"><ele>9.0</ele><time>2026-04-04T16:11:57.185Z</time></trkpt><trkpt lat="39.8575661" lon="18.1805732"><ele>8.5</ele><time>2026-04-04T16:11:58.184Z</time></trkpt><trkpt lat="39.857707" lon="18.1803057"><ele>8.0</ele><time>2026-04-04T16:11:59.184Z</time></trkpt><trkpt lat="39.8578489" lon="18.1800378"><ele>6.5</ele><time>2026-04-04T16:12:00.183Z</time></trkpt><trkpt lat="39.8579937" lon="18.1797728"><ele>5.0</ele><time>2026-04-04T16:12:01.185Z</time></trkpt><trkpt lat="39.8581427" lon="18.1795116"><ele>5.0</ele><time>2026-04-04T16:12:02.185Z</time></trkpt><trkpt lat="39.858286" lon="18.1792477"><ele>5.0</ele><time>2026-04-04T16:12:03.185Z</time></trkpt><trkpt lat="39.8584337" lon="18.1789827"><ele>3.5</ele><time>2026-04-04T16:12:04.184Z</time></trkpt><trkpt lat="39.8585809" lon="18.1787129"><ele>2.0</ele><time>2026-04-04T16:12:05.183Z</time></trkpt><trkpt lat="39.8587278" lon="18.1784411"><ele>2.0</ele><time>2026-04-04T16:12:06.185Z</time></trkpt><trkpt lat="39.8588789" lon="18.1781683"><ele>2.0</ele><time>2026-04-04T16:12:07.184Z</time></trkpt><trkpt lat="39.85903" lon="18.1778908"><ele>2.0</ele><time>2026-04-04T16:12:08.183Z</time></trkpt><trkpt lat="39.8591837" lon="18.1776156"><ele>2.0</ele><time>2026-04-04T16:12:09.183Z</time></trkpt><trkpt lat="39.8593355" lon="18.1773353"><ele>3.0</ele><time>2026-04-04T16:12:10.185Z</time></trkpt><trkpt lat="39.8594875" lon="18.1770545"><ele>4.0</ele><time>2026-04-04T16:12:11.184Z</time></trkpt><trkpt lat="39.859641" lon="18.1767783"><ele>2.0</ele><time>2026-04-04T16:12:12.184Z</time></trkpt><trkpt lat="39.8597979" lon="18.1764976"><ele>0.0</ele><time>2026-04-04T16:12:13.184Z</time></trkpt><trkpt lat="39.8599531" lon="18.1762104"><ele>0.0</ele><time>2026-04-04T16:12:14.184Z</time></trkpt><trkpt lat="39.8600982" lon="18.1759128"><ele>0.0</ele><time>2026-04-04T16:12:15.184Z</time></trkpt><trkpt lat="39.8602494" lon="18.1756207"><ele>0.5</ele><time>2026-04-04T16:12:16.184Z</time></trkpt><trkpt lat="39.860407" lon="18.1753318"><ele>1.0</ele><time>2026-04-04T16:12:17.184Z</time></trkpt><trkpt lat="39.8605665" lon="18.1750469"><ele>0.0</ele><time>2026-04-04T16:12:18.184Z</time></trkpt><trkpt lat="39.8607233" lon="18.1747598"><ele>-1.0</ele><time>2026-04-04T16:12:19.184Z</time></trkpt><trkpt lat="39.8608784" lon="18.1744681"><ele>0.5</ele><time>2026-04-04T16:12:20.185Z</time></trkpt><trkpt lat="39.8610366" lon="18.1741735"><ele>2.0</ele><time>2026-04-04T16:12:21.183Z</time></trkpt><trkpt lat="39.8611954" lon="18.1738795"><ele>2.0</ele><time>2026-04-04T16:12:22.184Z</time></trkpt><trkpt lat="39.8613514" lon="18.1735821"><ele>2.0</ele><time>2026-04-04T16:12:23.186Z</time></trkpt><trkpt lat="39.8615124" lon="18.1732883"><ele>2.0</ele><time>2026-04-04T16:12:24.183Z</time></trkpt><trkpt lat="39.8616752" lon="18.1729922"><ele>2.0</ele><time>2026-04-04T16:12:25.184Z</time></trkpt><trkpt lat="39.8618407" lon="18.1726928"><ele>2.5</ele><time>2026-04-04T16:12:26.184Z</time></trkpt><trkpt lat="39.862005" lon="18.1723925"><ele>3.0</ele><time>2026-04-04T16:12:27.186Z</time></trkpt><trkpt lat="39.8621696" lon="18.1720925"><ele>2.0</ele><time>2026-04-04T16:12:28.183Z</time></trkpt><trkpt lat="39.862332" lon="18.171791"><ele>1.0</ele><time>2026-04-04T16:12:29.184Z</time></trkpt><trkpt lat="39.8624931" lon="18.1714877"><ele>1.0</ele><time>2026-04-04T16:12:30.184Z</time></trkpt><trkpt lat="39.862645" lon="18.1711814"><ele>1.0</ele><time>2026-04-04T16:12:31.183Z</time></trkpt><trkpt lat="39.8628073" lon="18.170887"><ele>1.0</ele><time>2026-04-04T16:12:32.184Z</time></trkpt><trkpt lat="39.8629649" lon="18.1705939"><ele>1.0</ele><time>2026-04-04T16:12:33.184Z</time></trkpt><trkpt lat="39.863122" lon="18.1703025"><ele>1.0</ele><time>2026-04-04T16:12:34.184Z</time></trkpt><trkpt lat="39.8632775" lon="18.1700179"><ele>1.0</ele><time>2026-04-04T16:12:35.184Z</time></trkpt><trkpt lat="39.8634341" lon="18.1697468"><ele>3.0</ele><time>2026-04-04T16:12:36.183Z</time></trkpt><trkpt lat="39.8635845" lon="18.1694818"><ele>5.0</ele><time>2026-04-04T16:12:37.184Z</time></trkpt><trkpt lat="39.8637246" lon="18.1692263"><ele>4.333333333333334</ele><time>2026-04-04T16:12:38.185Z</time></trkpt><trkpt lat="39.8638505" lon="18.1689928"><ele>3.666666666666667</ele><time>2026-04-04T16:12:39.185Z</time></trkpt><trkpt lat="39.8639575" lon="18.1687933"><ele>3.0</ele><time>2026-04-04T16:12:40.184Z</time></trkpt><trkpt lat="39.8640457" lon="18.1686362"><ele>3.0</ele><time>2026-04-04T16:12:41.184Z</time></trkpt><trkpt lat="39.8641191" lon="18.1685218"><ele>3.0</ele><time>2026-04-04T16:12:42.184Z</time></trkpt><trkpt lat="39.8641794" lon="18.1684477"><ele>3.0</ele><time>2026-04-04T16:12:43.183Z</time></trkpt><trkpt lat="39.8642442" lon="18.1683972"><ele>3.0</ele><time>2026-04-04T16:12:44.184Z</time></trkpt><trkpt lat="39.8643026" lon="18.1683523"><ele>3.0</ele><time>2026-04-04T16:12:45.184Z</time></trkpt><trkpt lat="39.8643557" lon="18.168296"><ele>3.0</ele><time>2026-04-04T16:12:46.185Z</time></trkpt><trkpt lat="39.8643947" lon="18.1682141"><ele>4.75</ele><time>2026-04-04T16:12:47.184Z</time></trkpt><trkpt lat="39.8644179" lon="18.1680971"><ele>6.5</ele><time>2026-04-04T16:12:48.183Z</time></trkpt><trkpt lat="39.8644428" lon="18.1679642"><ele>8.25</ele><time>2026-04-04T16:12:49.184Z</time></trkpt><trkpt lat="39.8645087" lon="18.167797"><ele>10.0</ele><time>2026-04-04T16:12:50.186Z</time></trkpt><trkpt lat="39.8645806" lon="18.1676331"><ele>10.0</ele><time>2026-04-04T16:12:51.183Z</time></trkpt><trkpt lat="39.864676" lon="18.1674508"><ele>10.0</ele><time>2026-04-04T16:12:52.183Z</time></trkpt><trkpt lat="39.8647827" lon="18.1672379"><ele>10.0</ele><time>2026-04-04T16:12:53.183Z</time></trkpt><trkpt lat="39.8649009" lon="18.1670084"><ele>9.0</ele><time>2026-04-04T16:12:54.184Z</time></trkpt><trkpt lat="39.8650419" lon="18.1667667"><ele>8.0</ele><time>2026-04-04T16:12:55.183Z</time></trkpt><trkpt lat="39.865198" lon="18.1665215"><ele>8.0</ele><time>2026-04-04T16:12:56.184Z</time></trkpt><trkpt lat="39.8653655" lon="18.1662644"><ele>8.0</ele><time>2026-04-04T16:12:57.185Z</time></trkpt><trkpt lat="39.8655395" lon="18.1660049"><ele>8.0</ele><time>2026-04-04T16:12:58.185Z</time></trkpt><trkpt lat="39.86572" lon="18.1657432"><ele>8.0</ele><time>2026-04-04T16:12:59.184Z</time></trkpt><trkpt lat="39.8659092" lon="18.1654874"><ele>7.0</ele><time>2026-04-04T16:13:00.184Z</time></trkpt><trkpt lat="39.8661055" lon="18.1652366"><ele>6.0</ele><time>2026-04-04T16:13:01.183Z</time></trkpt><trkpt lat="39.8663016" lon="18.1649846"><ele>5.0</ele><time>2026-04-04T16:13:02.183Z</time></trkpt><trkpt lat="39.8664951" lon="18.1647301"><ele>4.0</ele><time>2026-04-04T16:13:03.183Z</time></trkpt><trkpt lat="39.8666962" lon="18.1644706"><ele>4.5</ele><time>2026-04-04T16:13:04.185Z</time></trkpt><trkpt lat="39.8669044" lon="18.164211"><ele>5.0</ele><time>2026-04-04T16:13:05.184Z</time></trkpt><trkpt lat="39.8671105" lon="18.163944"><ele>4.0</ele><time>2026-04-04T16:13:06.184Z</time></trkpt><trkpt lat="39.8673237" lon="18.1636784"><ele>3.0</ele><time>2026-04-04T16:13:07.184Z</time></trkpt><trkpt lat="39.867539" lon="18.1634163"><ele>3.0</ele><time>2026-04-04T16:13:08.185Z</time></trkpt><trkpt lat="39.8677523" lon="18.1631525"><ele>3.0</ele><time>2026-04-04T16:13:09.184Z</time></trkpt><trkpt lat="39.8679665" lon="18.1628868"><ele>3.0</ele><time>2026-04-04T16:13:10.184Z</time></trkpt><trkpt lat="39.8681765" lon="18.1626201"><ele>3.0</ele><time>2026-04-04T16:13:11.184Z</time></trkpt><trkpt lat="39.8683849" lon="18.1623558"><ele>4.0</ele><time>2026-04-04T16:13:12.184Z</time></trkpt><trkpt lat="39.8685853" lon="18.1620917"><ele>5.0</ele><time>2026-04-04T16:13:13.183Z</time></trkpt><trkpt lat="39.8687892" lon="18.1618307"><ele>5.0</ele><time>2026-04-04T16:13:14.185Z</time></trkpt><trkpt lat="39.8689868" lon="18.1615758"><ele>5.0</ele><time>2026-04-04T16:13:15.184Z</time></trkpt><trkpt lat="39.869174" lon="18.1613405"><ele>5.0</ele><time>2026-04-04T16:13:16.184Z</time></trkpt><trkpt lat="39.8693623" lon="18.1610878"><ele>5.0</ele><time>2026-04-04T16:13:17.184Z</time></trkpt><trkpt lat="39.8695533" lon="18.1608309"><ele>4.0</ele><time>2026-04-04T16:13:18.185Z</time></trkpt><trkpt lat="39.8697593" lon="18.1605722"><ele>3.0</ele><time>2026-04-04T16:13:19.185Z</time></trkpt><trkpt lat="39.8699756" lon="18.1603045"><ele>3.0</ele><time>2026-04-04T16:13:20.184Z</time></trkpt><trkpt lat="39.8701924" lon="18.1600448"><ele>3.0</ele><time>2026-04-04T16:13:21.184Z</time></trkpt><trkpt lat="39.8704081" lon="18.1597773"><ele>3.0</ele><time>2026-04-04T16:13:22.186Z</time></trkpt><trkpt lat="39.8706217" lon="18.1595102"><ele>3.0</ele><time>2026-04-04T16:13:23.184Z</time></trkpt><trkpt lat="39.8708321" lon="18.1592454"><ele>3.0</ele><time>2026-04-04T16:13:24.184Z</time></trkpt><trkpt lat="39.871038" lon="18.1589888"><ele>3.0</ele><time>2026-04-04T16:13:25.184Z</time></trkpt><trkpt lat="39.8712437" lon="18.1587299"><ele>3.0</ele><time>2026-04-04T16:13:26.184Z</time></trkpt><trkpt lat="39.8714496" lon="18.1584661"><ele>3.0</ele><time>2026-04-04T16:13:27.185Z</time></trkpt><trkpt lat="39.8716475" lon="18.1581982"><ele>4.0</ele><time>2026-04-04T16:13:28.183Z</time></trkpt><trkpt lat="39.8718421" lon="18.1579166"><ele>5.0</ele><time>2026-04-04T16:13:29.184Z</time></trkpt><trkpt lat="39.8720326" lon="18.1576245"><ele>4.5</ele><time>2026-04-04T16:13:30.183Z</time></trkpt><trkpt lat="39.8722156" lon="18.1573261"><ele>4.0</ele><time>2026-04-04T16:13:31.184Z</time></trkpt><trkpt lat="39.8723899" lon="18.1570323"><ele>4.0</ele><time>2026-04-04T16:13:32.185Z</time></trkpt><trkpt lat="39.8725624" lon="18.1567309"><ele>4.0</ele><time>2026-04-04T16:13:33.186Z</time></trkpt><trkpt lat="39.8727318" lon="18.156431"><ele>5.5</ele><time>2026-04-04T16:13:34.183Z</time></trkpt><trkpt lat="39.8729003" lon="18.156126"><ele>7.0</ele><time>2026-04-04T16:13:35.183Z</time></trkpt><trkpt lat="39.8730658" lon="18.155823"><ele>5.0</ele><time>2026-04-04T16:13:36.184Z</time></trkpt><trkpt lat="39.8732293" lon="18.15552"><ele>3.0</ele><time>2026-04-04T16:13:37.184Z</time></trkpt><trkpt lat="39.8733948" lon="18.1552169"><ele>4.5</ele><time>2026-04-04T16:13:38.184Z</time></trkpt><trkpt lat="39.87356" lon="18.1549178"><ele>6.0</ele><time>2026-04-04T16:13:39.184Z</time></trkpt><trkpt lat="39.8737302" lon="18.1546189"><ele>6.0</ele><time>2026-04-04T16:13:40.183Z</time></trkpt><trkpt lat="39.8739023" lon="18.1543219"><ele>6.0</ele><time>2026-04-04T16:13:41.184Z</time></trkpt><trkpt lat="39.8740698" lon="18.1540216"><ele>5.0</ele><time>2026-04-04T16:13:42.183Z</time></trkpt><trkpt lat="39.8742426" lon="18.1537182"><ele>4.0</ele><time>2026-04-04T16:13:43.185Z</time></trkpt><trkpt lat="39.8744146" lon="18.1534106"><ele>5.5</ele><time>2026-04-04T16:13:44.185Z</time></trkpt><trkpt lat="39.8745916" lon="18.1531008"><ele>7.0</ele><time>2026-04-04T16:13:45.183Z</time></trkpt><trkpt lat="39.8747654" lon="18.1527883"><ele>7.0</ele><time>2026-04-04T16:13:46.183Z</time></trkpt><trkpt lat="39.8749437" lon="18.1524736"><ele>7.0</ele><time>2026-04-04T16:13:47.185Z</time></trkpt><trkpt lat="39.8751197" lon="18.1521607"><ele>7.5</ele><time>2026-04-04T16:13:48.184Z</time></trkpt><trkpt lat="39.8752932" lon="18.1518458"><ele>8.0</ele><time>2026-04-04T16:13:49.184Z</time></trkpt><trkpt lat="39.8754673" lon="18.1515316"><ele>8.0</ele><time>2026-04-04T16:13:50.185Z</time></trkpt><trkpt lat="39.8756401" lon="18.1512186"><ele>8.0</ele><time>2026-04-04T16:13:51.183Z</time></trkpt><trkpt lat="39.8758128" lon="18.1509042"><ele>7.5</ele><time>2026-04-04T16:13:52.185Z</time></trkpt><trkpt lat="39.8759871" lon="18.150592"><ele>7.0</ele><time>2026-04-04T16:13:53.183Z</time></trkpt><trkpt lat="39.8761625" lon="18.1502783"><ele>7.0</ele><time>2026-04-04T16:13:54.185Z</time></trkpt><trkpt lat="39.8763349" lon="18.1499646"><ele>7.0</ele><time>2026-04-04T16:13:55.185Z</time></trkpt><trkpt lat="39.8765068" lon="18.1496514"><ele>6.0</ele><time>2026-04-04T16:13:56.184Z</time></trkpt><trkpt lat="39.8766794" lon="18.1493393"><ele>5.0</ele><time>2026-04-04T16:13:57.184Z</time></trkpt><trkpt lat="39.8768531" lon="18.1490328"><ele>5.0</ele><time>2026-04-04T16:13:58.184Z</time></trkpt><trkpt lat="39.8770329" lon="18.1487263"><ele>5.0</ele><time>2026-04-04T16:13:59.183Z</time></trkpt><trkpt lat="39.8772154" lon="18.1484269"><ele>6.0</ele><time>2026-04-04T16:14:00.185Z</time></trkpt><trkpt lat="39.8774088" lon="18.1481354"><ele>7.0</ele><time>2026-04-04T16:14:01.184Z</time></trkpt><trkpt lat="39.8776034" lon="18.1478517"><ele>7.0</ele><time>2026-04-04T16:14:02.184Z</time></trkpt><trkpt lat="39.8777948" lon="18.1475711"><ele>7.0</ele><time>2026-04-04T16:14:03.184Z</time></trkpt><trkpt lat="39.8779771" lon="18.147318"><ele>4.5</ele><time>2026-04-04T16:14:04.184Z</time></trkpt><trkpt lat="39.8781524" lon="18.1470717"><ele>2.0</ele><time>2026-04-04T16:14:05.185Z</time></trkpt><trkpt lat="39.8783156" lon="18.146838"><ele>2.0</ele><time>2026-04-04T16:14:06.185Z</time></trkpt><trkpt lat="39.8784659" lon="18.1466202"><ele>2.0</ele><time>2026-04-04T16:14:07.183Z</time></trkpt><trkpt lat="39.8786081" lon="18.1464177"><ele>2.0</ele><time>2026-04-04T16:14:08.184Z</time></trkpt><trkpt lat="39.8787326" lon="18.1462217"><ele>2.0</ele><time>2026-04-04T16:14:09.183Z</time></trkpt><trkpt lat="39.8788443" lon="18.1460479"><ele>2.0</ele><time>2026-04-04T16:14:10.183Z</time></trkpt><trkpt lat="39.8789468" lon="18.1458907"><ele>2.0</ele><time>2026-04-04T16:14:11.184Z</time></trkpt><trkpt lat="39.8790595" lon="18.1457324"><ele>1.3333333333333333</ele><time>2026-04-04T16:14:12.184Z</time></trkpt><trkpt lat="39.8791921" lon="18.1455599"><ele>0.6666666666666666</ele><time>2026-04-04T16:14:13.183Z</time></trkpt><trkpt lat="39.8793404" lon="18.1453554"><ele>0.0</ele><time>2026-04-04T16:14:14.184Z</time></trkpt><trkpt lat="39.8795064" lon="18.1451257"><ele>0.0</ele><time>2026-04-04T16:14:15.184Z</time></trkpt><trkpt lat="39.8796756" lon="18.1448809"><ele>0.0</ele><time>2026-04-04T16:14:16.185Z</time></trkpt><trkpt lat="39.8798581" lon="18.1446268"><ele>0.0</ele><time>2026-04-04T16:14:17.184Z</time></trkpt><trkpt lat="39.8800478" lon="18.1443628"><ele>0.0</ele><time>2026-04-04T16:14:18.184Z</time></trkpt><trkpt lat="39.8802398" lon="18.1440949"><ele>0.5</ele><time>2026-04-04T16:14:19.184Z</time></trkpt><trkpt lat="39.8804326" lon="18.1438247"><ele>1.0</ele><time>2026-04-04T16:14:20.184Z</time></trkpt><trkpt lat="39.8806267" lon="18.1435578"><ele>1.0</ele><time>2026-04-04T16:14:21.183Z</time></trkpt><trkpt lat="39.8808213" lon="18.143289"><ele>1.0</ele><time>2026-04-04T16:14:22.183Z</time></trkpt><trkpt lat="39.8810113" lon="18.1430204"><ele>0.5</ele><time>2026-04-04T16:14:23.183Z</time></trkpt><trkpt lat="39.8812047" lon="18.1427503"><ele>0.0</ele><time>2026-04-04T16:14:24.184Z</time></trkpt><trkpt lat="39.8813911" lon="18.142476"><ele>-0.5</ele><time>2026-04-04T16:14:25.184Z</time></trkpt><trkpt lat="39.8815849" lon="18.142208"><ele>-1.0</ele><time>2026-04-04T16:14:26.185Z</time></trkpt><trkpt lat="39.8817767" lon="18.1419381"><ele>0.0</ele><time>2026-04-04T16:14:27.184Z</time></trkpt><trkpt lat="39.8819681" lon="18.1416666"><ele>1.0</ele><time>2026-04-04T16:14:28.184Z</time></trkpt><trkpt lat="39.8821603" lon="18.1413972"><ele>1.0</ele><time>2026-04-04T16:14:29.183Z</time></trkpt><trkpt lat="39.8823559" lon="18.1411238"><ele>1.0</ele><time>2026-04-04T16:14:30.183Z</time></trkpt><trkpt lat="39.8825519" lon="18.1408517"><ele>1.0</ele><time>2026-04-04T16:14:31.184Z</time></trkpt><trkpt lat="39.8827478" lon="18.1405794"><ele>1.0</ele><time>2026-04-04T16:14:32.185Z</time></trkpt><trkpt lat="39.8829447" lon="18.1403076"><ele>1.0</ele><time>2026-04-04T16:14:33.183Z</time></trkpt><trkpt lat="39.8831379" lon="18.1400395"><ele>1.0</ele><time>2026-04-04T16:14:34.184Z</time></trkpt><trkpt lat="39.8833299" lon="18.1397574"><ele>1.5</ele><time>2026-04-04T16:14:35.185Z</time></trkpt><trkpt lat="39.8835259" lon="18.1394843"><ele>2.0</ele><time>2026-04-04T16:14:36.185Z</time></trkpt><trkpt lat="39.8837215" lon="18.1392149"><ele>1.5</ele><time>2026-04-04T16:14:37.183Z</time></trkpt><trkpt lat="39.883916" lon="18.1389474"><ele>1.0</ele><time>2026-04-04T16:14:38.184Z</time></trkpt><trkpt lat="39.8841103" lon="18.1386801"><ele>1.0</ele><time>2026-04-04T16:14:39.184Z</time></trkpt><trkpt lat="39.884312" lon="18.1384023"><ele>1.0</ele><time>2026-04-04T16:14:40.184Z</time></trkpt><trkpt lat="39.8845018" lon="18.138113"><ele>1.0</ele><time>2026-04-04T16:14:41.184Z</time></trkpt><trkpt lat="39.8847022" lon="18.1378303"><ele>1.0</ele><time>2026-04-04T16:14:42.183Z</time></trkpt><trkpt lat="39.8849087" lon="18.1375464"><ele>1.0</ele><time>2026-04-04T16:14:43.184Z</time></trkpt><trkpt lat="39.8851129" lon="18.1372613"><ele>1.0</ele><time>2026-04-04T16:14:44.184Z</time></trkpt><trkpt lat="39.885316" lon="18.1369764"><ele>1.0</ele><time>2026-04-04T16:14:45.183Z</time></trkpt><trkpt lat="39.8855214" lon="18.1366924"><ele>1.0</ele><time>2026-04-04T16:14:46.184Z</time></trkpt><trkpt lat="39.8857273" lon="18.1364078"><ele>1.0</ele><time>2026-04-04T16:14:47.183Z</time></trkpt><trkpt lat="39.8859313" lon="18.1361198"><ele>1.0</ele><time>2026-04-04T16:14:48.184Z</time></trkpt><trkpt lat="39.8861373" lon="18.1358408"><ele>1.5</ele><time>2026-04-04T16:14:49.184Z</time></trkpt><trkpt lat="39.886342" lon="18.1355607"><ele>2.0</ele><time>2026-04-04T16:14:50.184Z</time></trkpt><trkpt lat="39.8865435" lon="18.1352771"><ele>2.0</ele><time>2026-04-04T16:14:51.184Z</time></trkpt><trkpt lat="39.8867416" lon="18.1349914"><ele>2.0</ele><time>2026-04-04T16:14:52.183Z</time></trkpt><trkpt lat="39.886945" lon="18.1347115"><ele>3.0</ele><time>2026-04-04T16:14:53.183Z</time></trkpt><trkpt lat="39.8871473" lon="18.1344344"><ele>4.0</ele><time>2026-04-04T16:14:54.185Z</time></trkpt><trkpt lat="39.8873473" lon="18.134158"><ele>4.0</ele><time>2026-04-04T16:14:55.183Z</time></trkpt><trkpt lat="39.8875512" lon="18.1338813"><ele>4.0</ele><time>2026-04-04T16:14:56.183Z</time></trkpt><trkpt lat="39.8877486" lon="18.1335986"><ele>4.0</ele><time>2026-04-04T16:14:57.185Z</time></trkpt><trkpt lat="39.8879507" lon="18.133322"><ele>4.0</ele><time>2026-04-04T16:14:58.184Z</time></trkpt><trkpt lat="39.8881539" lon="18.1330503"><ele>3.5</ele><time>2026-04-04T16:14:59.184Z</time></trkpt><trkpt lat="39.8883508" lon="18.1327766"><ele>3.0</ele><time>2026-04-04T16:15:00.184Z</time></trkpt><trkpt lat="39.8885509" lon="18.1325057"><ele>3.5</ele><time>2026-04-04T16:15:01.184Z</time></trkpt><trkpt lat="39.8887546" lon="18.1322385"><ele>4.0</ele><time>2026-04-04T16:15:02.184Z</time></trkpt><trkpt lat="39.8889565" lon="18.131964"><ele>4.0</ele><time>2026-04-04T16:15:03.186Z</time></trkpt><trkpt lat="39.8891517" lon="18.1316916"><ele>4.0</ele><time>2026-04-04T16:15:04.184Z</time></trkpt><trkpt lat="39.8893519" lon="18.131417"><ele>4.5</ele><time>2026-04-04T16:15:05.183Z</time></trkpt><trkpt lat="39.8895551" lon="18.1311464"><ele>5.0</ele><time>2026-04-04T16:15:06.185Z</time></trkpt><trkpt lat="39.8897602" lon="18.1308748"><ele>4.5</ele><time>2026-04-04T16:15:07.184Z</time></trkpt><trkpt lat="39.8899629" lon="18.1306003"><ele>4.0</ele><time>2026-04-04T16:15:08.183Z</time></trkpt><trkpt lat="39.890168" lon="18.1303286"><ele>5.0</ele><time>2026-04-04T16:15:09.183Z</time></trkpt><trkpt lat="39.8903667" lon="18.1300573"><ele>6.0</ele><time>2026-04-04T16:15:10.183Z</time></trkpt><trkpt lat="39.8905627" lon="18.12979"><ele>6.0</ele><time>2026-04-04T16:15:11.185Z</time></trkpt><trkpt lat="39.8907617" lon="18.129526"><ele>6.0</ele><time>2026-04-04T16:15:12.184Z</time></trkpt><trkpt lat="39.8909546" lon="18.1292699"><ele>7.5</ele><time>2026-04-04T16:15:13.184Z</time></trkpt><trkpt lat="39.8911484" lon="18.1290132"><ele>9.0</ele><time>2026-04-04T16:15:14.185Z</time></trkpt><trkpt lat="39.8913425" lon="18.1287551"><ele>9.0</ele><time>2026-04-04T16:15:15.184Z</time></trkpt><trkpt lat="39.8915363" lon="18.1284989"><ele>9.0</ele><time>2026-04-04T16:15:16.185Z</time></trkpt><trkpt lat="39.8917256" lon="18.1282454"><ele>8.5</ele><time>2026-04-04T16:15:17.185Z</time></trkpt><trkpt lat="39.8919183" lon="18.1279912"><ele>8.0</ele><time>2026-04-04T16:15:18.184Z</time></trkpt><trkpt lat="39.8921091" lon="18.1277324"><ele>8.0</ele><time>2026-04-04T16:15:19.184Z</time></trkpt><trkpt lat="39.8923017" lon="18.1274696"><ele>8.0</ele><time>2026-04-04T16:15:20.183Z</time></trkpt><trkpt lat="39.8924936" lon="18.1272125"><ele>9.0</ele><time>2026-04-04T16:15:21.183Z</time></trkpt><trkpt lat="39.8926851" lon="18.1269569"><ele>10.0</ele><time>2026-04-04T16:15:22.183Z</time></trkpt><trkpt lat="39.8928696" lon="18.1267046"><ele>10.0</ele><time>2026-04-04T16:15:23.184Z</time></trkpt><trkpt lat="39.8930477" lon="18.1264714"><ele>10.0</ele><time>2026-04-04T16:15:24.183Z</time></trkpt><trkpt lat="39.8932144" lon="18.1262516"><ele>10.0</ele><time>2026-04-04T16:15:25.185Z</time></trkpt><trkpt lat="39.8933678" lon="18.1260438"><ele>10.0</ele><time>2026-04-04T16:15:26.185Z</time></trkpt><trkpt lat="39.8935023" lon="18.1258597"><ele>10.0</ele><time>2026-04-04T16:15:27.184Z</time></trkpt><trkpt lat="39.8936288" lon="18.1256883"><ele>10.0</ele><time>2026-04-04T16:15:28.184Z</time></trkpt><trkpt lat="39.8937389" lon="18.1255438"><ele>10.0</ele><time>2026-04-04T16:15:29.184Z</time></trkpt><trkpt lat="39.8938471" lon="18.1254231"><ele>10.0</ele><time>2026-04-04T16:15:30.184Z</time></trkpt><trkpt lat="39.8939492" lon="18.1253433"><ele>10.0</ele><time>2026-04-04T16:15:31.185Z</time></trkpt><trkpt lat="39.8940473" lon="18.1252986"><ele>10.0</ele><time>2026-04-04T16:15:32.185Z</time></trkpt><trkpt lat="39.8941436" lon="18.1252734"><ele>10.0</ele><time>2026-04-04T16:15:33.185Z</time></trkpt><trkpt lat="39.8942281" lon="18.1252344"><ele>10.0</ele><time>2026-04-04T16:15:34.183Z</time></trkpt><trkpt lat="39.8942925" lon="18.1251666"><ele>10.0</ele><time>2026-04-04T16:15:35.184Z</time></trkpt><trkpt lat="39.8943238" lon="18.1250837"><ele>10.0</ele><time>2026-04-04T16:15:36.183Z</time></trkpt><trkpt lat="39.8943156" lon="18.1249949"><ele>10.0</ele><time>2026-04-04T16:15:37.184Z</time></trkpt><trkpt lat="39.8942666" lon="18.1249173"><ele>10.2</ele><time>2026-04-04T16:15:38.186Z</time></trkpt><trkpt lat="39.8941887" lon="18.1248582"><ele>10.4</ele><time>2026-04-04T16:15:39.184Z</time></trkpt><trkpt lat="39.8940928" lon="18.1248006"><ele>10.600000000000001</ele><time>2026-04-04T16:15:40.184Z</time></trkpt><trkpt lat="39.8939999" lon="18.1247335"><ele>10.8</ele><time>2026-04-04T16:15:41.183Z</time></trkpt><trkpt lat="39.8939339" lon="18.1246387"><ele>11.0</ele><time>2026-04-04T16:15:42.185Z</time></trkpt><trkpt lat="39.893876" lon="18.1245265"><ele>11.0</ele><time>2026-04-04T16:15:43.185Z</time></trkpt><trkpt lat="39.8938248" lon="18.1244014"><ele>11.0</ele><time>2026-04-04T16:15:44.183Z</time></trkpt><trkpt lat="39.8937775" lon="18.1242685"><ele>11.0</ele><time>2026-04-04T16:15:45.184Z</time></trkpt><trkpt lat="39.8937231" lon="18.1241352"><ele>11.0</ele><time>2026-04-04T16:15:46.183Z</time></trkpt><trkpt lat="39.8936662" lon="18.1239917"><ele>10.5</ele><time>2026-04-04T16:15:47.183Z</time></trkpt><trkpt lat="39.8936064" lon="18.1238546"><ele>10.0</ele><time>2026-04-04T16:15:48.184Z</time></trkpt><trkpt lat="39.8935437" lon="18.1237123"><ele>9.5</ele><time>2026-04-04T16:15:49.185Z</time></trkpt><trkpt lat="39.8934809" lon="18.1235647"><ele>9.0</ele><time>2026-04-04T16:15:50.183Z</time></trkpt><trkpt lat="39.8934143" lon="18.1234117"><ele>8.5</ele><time>2026-04-04T16:15:51.183Z</time></trkpt><trkpt lat="39.893338" lon="18.1232562"><ele>8.0</ele><time>2026-04-04T16:15:52.184Z</time></trkpt><trkpt lat="39.8932603" lon="18.1230922"><ele>7.5</ele><time>2026-04-04T16:15:53.185Z</time></trkpt><trkpt lat="39.8931985" lon="18.1229085"><ele>7.0</ele><time>2026-04-04T16:15:54.183Z</time></trkpt><trkpt lat="39.8931328" lon="18.1227346"><ele>6.666666666666667</ele><time>2026-04-04T16:15:55.183Z</time></trkpt><trkpt lat="39.8930661" lon="18.1225431"><ele>6.333333333333334</ele><time>2026-04-04T16:15:56.183Z</time></trkpt><trkpt lat="39.8929954" lon="18.1223722"><ele>6.0</ele><time>2026-04-04T16:15:57.183Z</time></trkpt><trkpt lat="39.8929181" lon="18.122188"><ele>5.666666666666667</ele><time>2026-04-04T16:15:58.186Z</time></trkpt><trkpt lat="39.8928417" lon="18.1220033"><ele>5.333333333333334</ele><time>2026-04-04T16:15:59.184Z</time></trkpt><trkpt lat="39.8927662" lon="18.121818"><ele>5.0</ele><time>2026-04-04T16:16:00.184Z</time></trkpt><trkpt lat="39.8926879" lon="18.1216271"><ele>4.333333333333334</ele><time>2026-04-04T16:16:01.184Z</time></trkpt><trkpt lat="39.8926112" lon="18.1214365"><ele>3.666666666666667</ele><time>2026-04-04T16:16:02.184Z</time></trkpt><trkpt lat="39.8925371" lon="18.1212526"><ele>3.0</ele><time>2026-04-04T16:16:03.186Z</time></trkpt><trkpt lat="39.8924587" lon="18.1210715"><ele>3.0</ele><time>2026-04-04T16:16:04.183Z</time></trkpt><trkpt lat="39.892386" lon="18.1208857"><ele>3.0</ele><time>2026-04-04T16:16:05.184Z</time></trkpt><trkpt lat="39.8923183" lon="18.1206999"><ele>3.0</ele><time>2026-04-04T16:16:06.184Z</time></trkpt><trkpt lat="39.8922503" lon="18.1205178"><ele>3.0</ele><time>2026-04-04T16:16:07.185Z</time></trkpt><trkpt lat="39.8921859" lon="18.1203401"><ele>3.0</ele><time>2026-04-04T16:16:08.184Z</time></trkpt><trkpt lat="39.8921186" lon="18.1201734"><ele>3.0</ele><time>2026-04-04T16:16:09.184Z</time></trkpt><trkpt lat="39.8920491" lon="18.1200143"><ele>3.0</ele><time>2026-04-04T16:16:10.183Z</time></trkpt><trkpt lat="39.8919904" lon="18.1198663"><ele>3.0</ele><time>2026-04-04T16:16:11.184Z</time></trkpt><trkpt lat="39.8919416" lon="18.1197249"><ele>3.0</ele><time>2026-04-04T16:16:12.185Z</time></trkpt><trkpt lat="39.891897" lon="18.1195887"><ele>3.0</ele><time>2026-04-04T16:16:13.184Z</time></trkpt><trkpt lat="39.8918662" lon="18.1194611"><ele>3.0</ele><time>2026-04-04T16:16:14.183Z</time></trkpt><trkpt lat="39.891888" lon="18.1193719"><ele>3.0</ele><time>2026-04-04T16:16:15.183Z</time></trkpt><trkpt lat="39.891908" lon="18.1192763"><ele>3.0</ele><time>2026-04-04T16:16:16.183Z</time></trkpt><trkpt lat="39.8918915" lon="18.11913"><ele>3.0</ele><time>2026-04-04T16:16:18.184Z</time></trkpt><trkpt lat="39.8918323" lon="18.1190755"><ele>3.0</ele><time>2026-04-04T16:16:20.184Z</time></trkpt><trkpt lat="39.8917531" lon="18.1190877"><ele>3.0</ele><time>2026-04-04T16:16:23.185Z</time></trkpt><trkpt lat="39.891727" lon="18.1191991"><ele>3.0</ele><time>2026-04-04T16:16:25.184Z</time></trkpt><trkpt lat="39.8917863" lon="18.1192996"><ele>3.0</ele><time>2026-04-04T16:16:27.185Z</time></trkpt><trkpt lat="39.8918823" lon="18.1192762"><ele>3.0</ele><time>2026-04-04T16:16:29.184Z</time></trkpt><trkpt lat="39.8919341" lon="18.1192157"><ele>3.0</ele><time>2026-04-04T16:16:30.184Z</time></trkpt><trkpt lat="39.8919937" lon="18.1191465"><ele>3.0</ele><time>2026-04-04T16:16:31.184Z</time></trkpt><trkpt lat="39.89208" lon="18.1190552"><ele>3.0</ele><time>2026-04-04T16:16:32.184Z</time></trkpt><trkpt lat="39.8921581" lon="18.11895"><ele>3.25</ele><time>2026-04-04T16:16:33.185Z</time></trkpt><trkpt lat="39.89223" lon="18.1188181"><ele>3.5</ele><time>2026-04-04T16:16:34.184Z</time></trkpt><trkpt lat="39.8922889" lon="18.1186525"><ele>3.75</ele><time>2026-04-04T16:16:35.183Z</time></trkpt><trkpt lat="39.8923228" lon="18.1184604"><ele>4.0</ele><time>2026-04-04T16:16:36.186Z</time></trkpt><trkpt lat="39.8923519" lon="18.118269"><ele>3.333333333333333</ele><time>2026-04-04T16:16:37.184Z</time></trkpt><trkpt lat="39.8923726" lon="18.1180678"><ele>2.6666666666666665</ele><time>2026-04-04T16:16:38.184Z</time></trkpt><trkpt lat="39.8923911" lon="18.1178609"><ele>2.0</ele><time>2026-04-04T16:16:39.185Z</time></trkpt><trkpt lat="39.8924037" lon="18.1176603"><ele>2.0</ele><time>2026-04-04T16:16:40.184Z</time></trkpt><trkpt lat="39.8924164" lon="18.1174669"><ele>2.0</ele><time>2026-04-04T16:16:41.184Z</time></trkpt><trkpt lat="39.8924301" lon="18.1173076"><ele>2.0</ele><time>2026-04-04T16:16:42.185Z</time></trkpt><trkpt lat="39.8924405" lon="18.1171649"><ele>2.0</ele><time>2026-04-04T16:16:43.184Z</time></trkpt><trkpt lat="39.8924491" lon="18.1170205"><ele>2.0</ele><time>2026-04-04T16:16:44.184Z</time></trkpt><trkpt lat="39.8924587" lon="18.1168494"><ele>2.0</ele><time>2026-04-04T16:16:45.184Z</time></trkpt><trkpt lat="39.8924765" lon="18.1166633"><ele>2.0</ele><time>2026-04-04T16:16:46.183Z</time></trkpt><trkpt lat="39.8925041" lon="18.1164596"><ele>2.0</ele><time>2026-04-04T16:16:47.184Z</time></trkpt><trkpt lat="39.892551" lon="18.1162448"><ele>3.0</ele><time>2026-04-04T16:16:48.184Z</time></trkpt><trkpt lat="39.8926074" lon="18.1160294"><ele>4.0</ele><time>2026-04-04T16:16:49.184Z</time></trkpt><trkpt lat="39.8926664" lon="18.115806"><ele>5.0</ele><time>2026-04-04T16:16:50.184Z</time></trkpt><trkpt lat="39.8927427" lon="18.1155822"><ele>5.0</ele><time>2026-04-04T16:16:51.184Z</time></trkpt><trkpt lat="39.8928184" lon="18.1153485"><ele>5.0</ele><time>2026-04-04T16:16:52.184Z</time></trkpt><trkpt lat="39.8928974" lon="18.115117"><ele>5.0</ele><time>2026-04-04T16:16:53.183Z</time></trkpt><trkpt lat="39.8929719" lon="18.1148828"><ele>4.333333333333334</ele><time>2026-04-04T16:16:54.185Z</time></trkpt><trkpt lat="39.8930489" lon="18.1146434"><ele>3.666666666666667</ele><time>2026-04-04T16:16:55.185Z</time></trkpt><trkpt lat="39.8931194" lon="18.114404"><ele>3.0</ele><time>2026-04-04T16:16:56.185Z</time></trkpt><trkpt lat="39.8931814" lon="18.1141608"><ele>3.0</ele><time>2026-04-04T16:16:57.184Z</time></trkpt><trkpt lat="39.8932288" lon="18.1139258"><ele>3.0</ele><time>2026-04-04T16:16:58.184Z</time></trkpt><trkpt lat="39.8932745" lon="18.1137096"><ele>3.0</ele><time>2026-04-04T16:16:59.184Z</time></trkpt><trkpt lat="39.8933169" lon="18.1135286"><ele>3.0</ele><time>2026-04-04T16:17:00.183Z</time></trkpt><trkpt lat="39.8933647" lon="18.1133823"><ele>3.0</ele><time>2026-04-04T16:17:01.183Z</time></trkpt><trkpt lat="39.8934017" lon="18.1132529"><ele>3.0</ele><time>2026-04-04T16:17:02.183Z</time></trkpt><trkpt lat="39.8934243" lon="18.1131373"><ele>3.0</ele><time>2026-04-04T16:17:03.183Z</time></trkpt><trkpt lat="39.8934289" lon="18.1130409"><ele>3.0</ele><time>2026-04-04T16:17:04.184Z</time></trkpt><trkpt lat="39.8934371" lon="18.112957"><ele>3.2</ele><time>2026-04-04T16:17:05.183Z</time></trkpt><trkpt lat="39.8934653" lon="18.1128684"><ele>3.4</ele><time>2026-04-04T16:17:06.185Z</time></trkpt><trkpt lat="39.8935166" lon="18.1127746"><ele>3.6000000000000005</ele><time>2026-04-04T16:17:07.185Z</time></trkpt><trkpt lat="39.8935828" lon="18.1126785"><ele>3.8000000000000003</ele><time>2026-04-04T16:17:08.184Z</time></trkpt><trkpt lat="39.8936693" lon="18.112566"><ele>4.0</ele><time>2026-04-04T16:17:09.185Z</time></trkpt><trkpt lat="39.8937601" lon="18.1124548"><ele>4.0</ele><time>2026-04-04T16:17:10.185Z</time></trkpt><trkpt lat="39.8938683" lon="18.1123391"><ele>4.0</ele><time>2026-04-04T16:17:11.184Z</time></trkpt><trkpt lat="39.8939849" lon="18.1122198"><ele>4.0</ele><time>2026-04-04T16:17:12.184Z</time></trkpt><trkpt lat="39.8941007" lon="18.1120953"><ele>4.0</ele><time>2026-04-04T16:17:13.183Z</time></trkpt><trkpt lat="39.8942288" lon="18.111964"><ele>4.333333333333333</ele><time>2026-04-04T16:17:14.184Z</time></trkpt><trkpt lat="39.8943591" lon="18.1118346"><ele>4.666666666666667</ele><time>2026-04-04T16:17:15.184Z</time></trkpt><trkpt lat="39.8944805" lon="18.1117102"><ele>5.0</ele><time>2026-04-04T16:17:16.184Z</time></trkpt><trkpt lat="39.894611" lon="18.1115801"><ele>5.0</ele><time>2026-04-04T16:17:17.185Z</time></trkpt><trkpt lat="39.8947452" lon="18.1114443"><ele>5.0</ele><time>2026-04-04T16:17:18.184Z</time></trkpt><trkpt lat="39.8948727" lon="18.1112955"><ele>5.0</ele><time>2026-04-04T16:17:19.183Z</time></trkpt><trkpt lat="39.8950035" lon="18.1111594"><ele>5.666666666666667</ele><time>2026-04-04T16:17:20.184Z</time></trkpt><trkpt lat="39.8951241" lon="18.1110262"><ele>6.333333333333334</ele><time>2026-04-04T16:17:21.184Z</time></trkpt><trkpt lat="39.8952447" lon="18.1108903"><ele>7.0</ele><time>2026-04-04T16:17:22.185Z</time></trkpt><trkpt lat="39.8953577" lon="18.1107612"><ele>6.75</ele><time>2026-04-04T16:17:23.183Z</time></trkpt><trkpt lat="39.8954667" lon="18.1106331"><ele>6.5</ele><time>2026-04-04T16:17:24.183Z</time></trkpt><trkpt lat="39.8955594" lon="18.1104942"><ele>6.25</ele><time>2026-04-04T16:17:25.184Z</time></trkpt><trkpt lat="39.8956294" lon="18.1103458"><ele>6.0</ele><time>2026-04-04T16:17:26.183Z</time></trkpt><trkpt lat="39.8956866" lon="18.1102032"><ele>6.0</ele><time>2026-04-04T16:17:27.184Z</time></trkpt><trkpt lat="39.8957373" lon="18.1100473"><ele>6.0</ele><time>2026-04-04T16:17:28.183Z</time></trkpt><trkpt lat="39.8957695" lon="18.1098863"><ele>6.0</ele><time>2026-04-04T16:17:29.183Z</time></trkpt><trkpt lat="39.8957956" lon="18.10971"><ele>6.0</ele><time>2026-04-04T16:17:30.184Z</time></trkpt><trkpt lat="39.8958256" lon="18.1095289"><ele>6.0</ele><time>2026-04-04T16:17:31.185Z</time></trkpt><trkpt lat="39.8958665" lon="18.1093468"><ele>6.0</ele><time>2026-04-04T16:17:32.184Z</time></trkpt><trkpt lat="39.8959058" lon="18.1091585"><ele>6.0</ele><time>2026-04-04T16:17:33.184Z</time></trkpt><trkpt lat="39.8959426" lon="18.1089719"><ele>6.0</ele><time>2026-04-04T16:17:34.183Z</time></trkpt><trkpt lat="39.895979" lon="18.1087983"><ele>6.0</ele><time>2026-04-04T16:17:35.183Z</time></trkpt><trkpt lat="39.896012" lon="18.1086401"><ele>6.0</ele><time>2026-04-04T16:17:36.183Z</time></trkpt><trkpt lat="39.8960292" lon="18.1085314"><ele>6.0</ele><time>2026-04-04T16:17:37.184Z</time></trkpt><trkpt lat="39.8960364" lon="18.1084415"><ele>6.0</ele><time>2026-04-04T16:17:38.185Z</time></trkpt><trkpt lat="39.896" lon="18.1083174"><ele>6.0</ele><time>2026-04-04T16:17:40.184Z</time></trkpt><trkpt lat="39.895897" lon="18.1082565"><ele>5.833333333333333</ele><time>2026-04-04T16:17:42.184Z</time></trkpt><trkpt lat="39.8958263" lon="18.1082281"><ele>5.666666666666667</ele><time>2026-04-04T16:17:43.184Z</time></trkpt><trkpt lat="39.895743" lon="18.1082083"><ele>5.5</ele><time>2026-04-04T16:17:44.184Z</time></trkpt><trkpt lat="39.8956569" lon="18.1081885"><ele>5.333333333333334</ele><time>2026-04-04T16:17:45.184Z</time></trkpt><trkpt lat="39.8955686" lon="18.1081623"><ele>5.166666666666667</ele><time>2026-04-04T16:17:46.184Z</time></trkpt><trkpt lat="39.8954769" lon="18.1081341"><ele>5.0</ele><time>2026-04-04T16:17:47.186Z</time></trkpt><trkpt lat="39.8953869" lon="18.1081059"><ele>5.0</ele><time>2026-04-04T16:17:48.183Z</time></trkpt><trkpt lat="39.8952967" lon="18.1080727"><ele>5.0</ele><time>2026-04-04T16:17:49.183Z</time></trkpt><trkpt lat="39.8952025" lon="18.1080336"><ele>5.0</ele><time>2026-04-04T16:17:50.184Z</time></trkpt><trkpt lat="39.8951332" lon="18.1079669"><ele>5.0</ele><time>2026-04-04T16:17:51.183Z</time></trkpt><trkpt lat="39.8950637" lon="18.1078945"><ele>5.0</ele><time>2026-04-04T16:17:52.184Z</time></trkpt><trkpt lat="39.8950219" lon="18.1078119"><ele>5.0</ele><time>2026-04-04T16:17:53.185Z</time></trkpt><trkpt lat="39.8949691" lon="18.1077193"><ele>5.0</ele><time>2026-04-04T16:17:54.184Z</time></trkpt><trkpt lat="39.894914" lon="18.1076309"><ele>5.0</ele><time>2026-04-04T16:17:55.184Z</time></trkpt><trkpt lat="39.8948489" lon="18.1075263"><ele>5.0</ele><time>2026-04-04T16:17:56.184Z</time></trkpt><trkpt lat="39.8947882" lon="18.1074185"><ele>5.0</ele><time>2026-04-04T16:17:57.183Z</time></trkpt><trkpt lat="39.8947097" lon="18.1073096"><ele>5.0</ele><time>2026-04-04T16:17:58.186Z</time></trkpt><trkpt lat="39.894653" lon="18.1072005"><ele>5.0</ele><time>2026-04-04T16:17:59.184Z</time></trkpt><trkpt lat="39.8945909" lon="18.1070984"><ele>5.0</ele><time>2026-04-04T16:18:00.184Z</time></trkpt><trkpt lat="39.8945297" lon="18.1070025"><ele>5.0</ele><time>2026-04-04T16:18:01.185Z</time></trkpt><trkpt lat="39.8944793" lon="18.1069209"><ele>5.0</ele><time>2026-04-04T16:18:02.183Z</time></trkpt><trkpt lat="39.8944398" lon="18.1068567"><ele>5.0</ele><time>2026-04-04T16:18:03.186Z</time></trkpt><trkpt lat="39.8944567" lon="18.1067773"><ele>5.0</ele><time>2026-04-04T16:18:05.185Z</time></trkpt><trkpt lat="39.8945369" lon="18.1066605"><ele>5.0</ele><time>2026-04-04T16:18:07.183Z</time></trkpt><trkpt lat="39.8945998" lon="18.1066075"><ele>5.0</ele><time>2026-04-04T16:18:08.184Z</time></trkpt><trkpt lat="39.8946685" lon="18.1065435"><ele>5.0</ele><time>2026-04-04T16:18:09.185Z</time></trkpt><trkpt lat="39.894748" lon="18.1064801"><ele>5.0</ele><time>2026-04-04T16:18:10.183Z</time></trkpt><trkpt lat="39.8948352" lon="18.1063967"><ele>5.0</ele><time>2026-04-04T16:18:11.184Z</time></trkpt><trkpt lat="39.8949213" lon="18.1063207"><ele>5.0</ele><time>2026-04-04T16:18:12.184Z</time></trkpt><trkpt lat="39.8950052" lon="18.1062411"><ele>5.0</ele><time>2026-04-04T16:18:13.183Z</time></trkpt><trkpt lat="39.8950839" lon="18.1061675"><ele>5.0</ele><time>2026-04-04T16:18:14.185Z</time></trkpt><trkpt lat="39.8951627" lon="18.1060906"><ele>5.0</ele><time>2026-04-04T16:18:15.185Z</time></trkpt><trkpt lat="39.8952437" lon="18.1060081"><ele>5.0</ele><time>2026-04-04T16:18:16.184Z</time></trkpt><trkpt lat="39.8953224" lon="18.1059329"><ele>5.2</ele><time>2026-04-04T16:18:17.183Z</time></trkpt><trkpt lat="39.8953995" lon="18.1058578"><ele>5.4</ele><time>2026-04-04T16:18:18.184Z</time></trkpt><trkpt lat="39.8954808" lon="18.1057743"><ele>5.6</ele><time>2026-04-04T16:18:19.183Z</time></trkpt><trkpt lat="39.8955673" lon="18.1056817"><ele>5.8</ele><time>2026-04-04T16:18:20.183Z</time></trkpt><trkpt lat="39.895667" lon="18.1055892"><ele>6.0</ele><time>2026-04-04T16:18:21.183Z</time></trkpt><trkpt lat="39.8957691" lon="18.1054913"><ele>6.0</ele><time>2026-04-04T16:18:22.186Z</time></trkpt><trkpt lat="39.8958698" lon="18.1053944"><ele>6.0</ele><time>2026-04-04T16:18:23.183Z</time></trkpt><trkpt lat="39.8959656" lon="18.1053072"><ele>6.0</ele><time>2026-04-04T16:18:24.184Z</time></trkpt><trkpt lat="39.8960408" lon="18.1052336"><ele>6.0</ele><time>2026-04-04T16:18:25.186Z</time></trkpt><trkpt lat="39.8961065" lon="18.1051354"><ele>6.0</ele><time>2026-04-04T16:18:27.183Z</time></trkpt><trkpt lat="39.8961011" lon="18.1050398"><ele>5.833333333333333</ele><time>2026-04-04T16:18:29.184Z</time></trkpt><trkpt lat="39.8960566" lon="18.1049581"><ele>5.666666666666667</ele><time>2026-04-04T16:18:30.183Z</time></trkpt><trkpt lat="39.896" lon="18.1048808"><ele>5.5</ele><time>2026-04-04T16:18:31.183Z</time></trkpt><trkpt lat="39.8959272" lon="18.1047445"><ele>5.333333333333334</ele><time>2026-04-04T16:18:33.185Z</time></trkpt><trkpt lat="39.8958772" lon="18.1046864"><ele>5.166666666666667</ele><time>2026-04-04T16:18:34.185Z</time></trkpt><trkpt lat="39.8958316" lon="18.1046071"><ele>5.0</ele><time>2026-04-04T16:18:35.185Z</time></trkpt><trkpt lat="39.8957835" lon="18.1045143"><ele>5.0</ele><time>2026-04-04T16:18:36.185Z</time></trkpt><trkpt lat="39.8957299" lon="18.1044266"><ele>5.0</ele><time>2026-04-04T16:18:37.183Z</time></trkpt><trkpt lat="39.8956708" lon="18.1043248"><ele>5.0</ele><time>2026-04-04T16:18:38.185Z</time></trkpt><trkpt lat="39.8956073" lon="18.1042322"><ele>5.0</ele><time>2026-04-04T16:18:39.185Z</time></trkpt><trkpt lat="39.8955577" lon="18.1041404"><ele>5.0</ele><time>2026-04-04T16:18:40.186Z</time></trkpt><trkpt lat="39.8955174" lon="18.1040735"><ele>5.0</ele><time>2026-04-04T16:18:41.184Z</time></trkpt><trkpt lat="39.8954467" lon="18.1039531"><ele>5.0</ele><time>2026-04-04T16:18:43.184Z</time></trkpt><trkpt lat="39.8953986" lon="18.1038704"><ele>5.0</ele><time>2026-04-04T16:18:44.183Z</time></trkpt><trkpt lat="39.8953427" lon="18.1037814"><ele>5.0</ele><time>2026-04-04T16:18:45.184Z</time></trkpt><trkpt lat="39.8952734" lon="18.1036788"><ele>5.0</ele><time>2026-04-04T16:18:46.183Z</time></trkpt><trkpt lat="39.8952089" lon="18.1035794"><ele>5.0</ele><time>2026-04-04T16:18:47.183Z</time></trkpt><trkpt lat="39.8951385" lon="18.10347"><ele>4.6</ele><time>2026-04-04T16:18:48.185Z</time></trkpt><trkpt lat="39.895074" lon="18.1033709"><ele>4.2</ele><time>2026-04-04T16:18:49.183Z</time></trkpt><trkpt lat="39.8950106" lon="18.1032618"><ele>3.8</ele><time>2026-04-04T16:18:50.185Z</time></trkpt><trkpt lat="39.8949433" lon="18.1031512"><ele>3.4</ele><time>2026-04-04T16:18:51.184Z</time></trkpt><trkpt lat="39.8948799" lon="18.1030437"><ele>3.0</ele><time>2026-04-04T16:18:52.184Z</time></trkpt><trkpt lat="39.8948189" lon="18.1029397"><ele>3.0</ele><time>2026-04-04T16:18:53.185Z</time></trkpt><trkpt lat="39.8947648" lon="18.1028567"><ele>3.0</ele><time>2026-04-04T16:18:54.185Z</time></trkpt><trkpt lat="39.894728" lon="18.1027896"><ele>3.0</ele><time>2026-04-04T16:18:55.183Z</time></trkpt><trkpt lat="39.8947017" lon="18.1026712"><ele>3.0</ele><time>2026-04-04T16:18:57.184Z</time></trkpt><trkpt lat="39.8947519" lon="18.1025002"><ele>3.0</ele><time>2026-04-04T16:18:59.184Z</time></trkpt><trkpt lat="39.8947928" lon="18.1023986"><ele>2.75</ele><time>2026-04-04T16:19:00.183Z</time></trkpt><trkpt lat="39.8948402" lon="18.1022705"><ele>2.5</ele><time>2026-04-04T16:19:01.184Z</time></trkpt><trkpt lat="39.8948938" lon="18.1021316"><ele>2.25</ele><time>2026-04-04T16:19:02.184Z</time></trkpt><trkpt lat="39.8949524" lon="18.1019878"><ele>2.0</ele><time>2026-04-04T16:19:03.183Z</time></trkpt><trkpt lat="39.895009" lon="18.1018382"><ele>2.0</ele><time>2026-04-04T16:19:04.183Z</time></trkpt><trkpt lat="39.8950713" lon="18.1016791"><ele>2.0</ele><time>2026-04-04T16:19:05.183Z</time></trkpt><trkpt lat="39.8951267" lon="18.1015182"><ele>2.0</ele><time>2026-04-04T16:19:06.183Z</time></trkpt><trkpt lat="39.8951846" lon="18.1013496"><ele>2.0</ele><time>2026-04-04T16:19:07.185Z</time></trkpt><trkpt lat="39.8952498" lon="18.1011805"><ele>2.25</ele><time>2026-04-04T16:19:08.184Z</time></trkpt><trkpt lat="39.8953136" lon="18.1010077"><ele>2.5</ele><time>2026-04-04T16:19:09.185Z</time></trkpt><trkpt lat="39.8953727" lon="18.1008335"><ele>2.75</ele><time>2026-04-04T16:19:10.183Z</time></trkpt><trkpt lat="39.8954393" lon="18.1006582"><ele>3.0</ele><time>2026-04-04T16:19:11.185Z</time></trkpt><trkpt lat="39.8955194" lon="18.1005018"><ele>3.0</ele><time>2026-04-04T16:19:12.184Z</time></trkpt><trkpt lat="39.8956199" lon="18.1003541"><ele>3.0</ele><time>2026-04-04T16:19:13.184Z</time></trkpt><trkpt lat="39.8957534" lon="18.1002437"><ele>3.0</ele><time>2026-04-04T16:19:14.184Z</time></trkpt><trkpt lat="39.8958898" lon="18.1001393"><ele>3.333333333333333</ele><time>2026-04-04T16:19:15.184Z</time></trkpt><trkpt lat="39.8960365" lon="18.1000416"><ele>3.6666666666666665</ele><time>2026-04-04T16:19:16.185Z</time></trkpt><trkpt lat="39.8961795" lon="18.0999346"><ele>4.0</ele><time>2026-04-04T16:19:17.184Z</time></trkpt><trkpt lat="39.8962996" lon="18.0998017"><ele>4.0</ele><time>2026-04-04T16:19:18.184Z</time></trkpt><trkpt lat="39.8964052" lon="18.0996454"><ele>4.0</ele><time>2026-04-04T16:19:19.184Z</time></trkpt><trkpt lat="39.8964937" lon="18.0994676"><ele>4.0</ele><time>2026-04-04T16:19:20.185Z</time></trkpt><trkpt lat="39.8965752" lon="18.0992784"><ele>3.0</ele><time>2026-04-04T16:19:21.183Z</time></trkpt><trkpt lat="39.8966512" lon="18.0990781"><ele>2.0</ele><time>2026-04-04T16:19:22.185Z</time></trkpt><trkpt lat="39.8967247" lon="18.0988728"><ele>1.0</ele><time>2026-04-04T16:19:23.184Z</time></trkpt><trkpt lat="39.8968041" lon="18.0986758"><ele>1.5</ele><time>2026-04-04T16:19:24.185Z</time></trkpt><trkpt lat="39.8968753" lon="18.0984891"><ele>2.0</ele><time>2026-04-04T16:19:25.183Z</time></trkpt><trkpt lat="39.8969442" lon="18.0983161"><ele>2.5</ele><time>2026-04-04T16:19:26.185Z</time></trkpt><trkpt lat="39.8970232" lon="18.0981712"><ele>3.0</ele><time>2026-04-04T16:19:27.183Z</time></trkpt><trkpt lat="39.8971012" lon="18.0980401"><ele>3.0</ele><time>2026-04-04T16:19:28.183Z</time></trkpt><trkpt lat="39.8971646" lon="18.0979287"><ele>3.0</ele><time>2026-04-04T16:19:29.184Z</time></trkpt><trkpt lat="39.8972304" lon="18.0978249"><ele>3.0</ele><time>2026-04-04T16:19:30.183Z</time></trkpt><trkpt lat="39.8972879" lon="18.0977137"><ele>3.0</ele><time>2026-04-04T16:19:31.183Z</time></trkpt><trkpt lat="39.8973492" lon="18.0975868"><ele>3.0</ele><time>2026-04-04T16:19:32.184Z</time></trkpt><trkpt lat="39.8974242" lon="18.0974524"><ele>3.25</ele><time>2026-04-04T16:19:33.184Z</time></trkpt><trkpt lat="39.8975016" lon="18.0973115"><ele>3.5</ele><time>2026-04-04T16:19:34.184Z</time></trkpt><trkpt lat="39.8975864" lon="18.0971714"><ele>3.75</ele><time>2026-04-04T16:19:35.184Z</time></trkpt><trkpt lat="39.8976704" lon="18.0970202"><ele>4.0</ele><time>2026-04-04T16:19:36.184Z</time></trkpt><trkpt lat="39.8977598" lon="18.0968691"><ele>4.0</ele><time>2026-04-04T16:19:37.184Z</time></trkpt><trkpt lat="39.897855" lon="18.0967149"><ele>4.0</ele><time>2026-04-04T16:19:38.184Z</time></trkpt><trkpt lat="39.8979526" lon="18.0965621"><ele>4.0</ele><time>2026-04-04T16:19:39.184Z</time></trkpt><trkpt lat="39.8980513" lon="18.0964084"><ele>4.0</ele><time>2026-04-04T16:19:40.185Z</time></trkpt><trkpt lat="39.8981503" lon="18.0962496"><ele>4.0</ele><time>2026-04-04T16:19:41.184Z</time></trkpt><trkpt lat="39.898249" lon="18.0960815"><ele>4.0</ele><time>2026-04-04T16:19:42.183Z</time></trkpt><trkpt lat="39.8983435" lon="18.0959104"><ele>4.0</ele><time>2026-04-04T16:19:43.185Z</time></trkpt><trkpt lat="39.8984382" lon="18.0957296"><ele>4.0</ele><time>2026-04-04T16:19:44.186Z</time></trkpt><trkpt lat="39.8985316" lon="18.0955491"><ele>4.0</ele><time>2026-04-04T16:19:45.184Z</time></trkpt><trkpt lat="39.8986294" lon="18.0953718"><ele>4.0</ele><time>2026-04-04T16:19:46.185Z</time></trkpt><trkpt lat="39.8987339" lon="18.0951977"><ele>4.0</ele><time>2026-04-04T16:19:47.183Z</time></trkpt><trkpt lat="39.8988416" lon="18.0950235"><ele>4.0</ele><time>2026-04-04T16:19:48.185Z</time></trkpt><trkpt lat="39.898946" lon="18.0948503"><ele>3.6666666666666665</ele><time>2026-04-04T16:19:49.185Z</time></trkpt><trkpt lat="39.8990424" lon="18.094663"><ele>3.333333333333333</ele><time>2026-04-04T16:19:50.184Z</time></trkpt><trkpt lat="39.8991339" lon="18.0944707"><ele>3.0</ele><time>2026-04-04T16:19:51.183Z</time></trkpt><trkpt lat="39.8992101" lon="18.0942556"><ele>3.666666666666667</ele><time>2026-04-04T16:19:52.183Z</time></trkpt><trkpt lat="39.8992779" lon="18.0940422"><ele>4.333333333333334</ele><time>2026-04-04T16:19:53.186Z</time></trkpt><trkpt lat="39.8993409" lon="18.0938332"><ele>5.0</ele><time>2026-04-04T16:19:54.186Z</time></trkpt><trkpt lat="39.8993989" lon="18.0936256"><ele>5.0</ele><time>2026-04-04T16:19:55.184Z</time></trkpt><trkpt lat="39.899468" lon="18.0934169"><ele>5.0</ele><time>2026-04-04T16:19:56.184Z</time></trkpt><trkpt lat="39.8995356" lon="18.0932008"><ele>5.0</ele><time>2026-04-04T16:19:57.185Z</time></trkpt><trkpt lat="39.8996044" lon="18.0930011"><ele>5.0</ele><time>2026-04-04T16:19:58.183Z</time></trkpt><trkpt lat="39.899673" lon="18.0928103"><ele>5.0</ele><time>2026-04-04T16:19:59.185Z</time></trkpt><trkpt lat="39.8997209" lon="18.0926072"><ele>5.0</ele><time>2026-04-04T16:20:00.185Z</time></trkpt><trkpt lat="39.899758" lon="18.0924047"><ele>5.0</ele><time>2026-04-04T16:20:01.184Z</time></trkpt><trkpt lat="39.8997708" lon="18.0921935"><ele>5.0</ele><time>2026-04-04T16:20:02.184Z</time></trkpt><trkpt lat="39.8997562" lon="18.0919742"><ele>5.0</ele><time>2026-04-04T16:20:03.185Z</time></trkpt><trkpt lat="39.8997383" lon="18.0917524"><ele>5.0</ele><time>2026-04-04T16:20:04.184Z</time></trkpt><trkpt lat="39.899727" lon="18.0915314"><ele>5.0</ele><time>2026-04-04T16:20:05.184Z</time></trkpt><trkpt lat="39.8997166" lon="18.0913132"><ele>5.0</ele><time>2026-04-04T16:20:06.184Z</time></trkpt><trkpt lat="39.899707" lon="18.0911118"><ele>5.0</ele><time>2026-04-04T16:20:07.185Z</time></trkpt><trkpt lat="39.8996997" lon="18.0909051"><ele>5.0</ele><time>2026-04-04T16:20:08.183Z</time></trkpt><trkpt lat="39.8996965" lon="18.0907018"><ele>5.0</ele><time>2026-04-04T16:20:09.184Z</time></trkpt><trkpt lat="39.8997108" lon="18.0905013"><ele>4.666666666666667</ele><time>2026-04-04T16:20:10.186Z</time></trkpt><trkpt lat="39.8997538" lon="18.0903061"><ele>4.333333333333333</ele><time>2026-04-04T16:20:11.184Z</time></trkpt><trkpt lat="39.899816" lon="18.0901137"><ele>4.0</ele><time>2026-04-04T16:20:12.184Z</time></trkpt><trkpt lat="39.8998909" lon="18.0899234"><ele>4.333333333333333</ele><time>2026-04-04T16:20:13.184Z</time></trkpt><trkpt lat="39.8999717" lon="18.0897236"><ele>4.666666666666667</ele><time>2026-04-04T16:20:14.184Z</time></trkpt><trkpt lat="39.9000574" lon="18.0895202"><ele>5.0</ele><time>2026-04-04T16:20:15.184Z</time></trkpt><trkpt lat="39.9001372" lon="18.0893076"><ele>5.0</ele><time>2026-04-04T16:20:16.185Z</time></trkpt><trkpt lat="39.9002223" lon="18.0890958"><ele>5.0</ele><time>2026-04-04T16:20:17.185Z</time></trkpt><trkpt lat="39.9003072" lon="18.0888819"><ele>5.0</ele><time>2026-04-04T16:20:18.184Z</time></trkpt><trkpt lat="39.9003911" lon="18.0886655"><ele>4.333333333333334</ele><time>2026-04-04T16:20:19.183Z</time></trkpt><trkpt lat="39.9004793" lon="18.088453"><ele>3.666666666666667</ele><time>2026-04-04T16:20:20.184Z</time></trkpt><trkpt lat="39.9005634" lon="18.0882383"><ele>3.0</ele><time>2026-04-04T16:20:21.184Z</time></trkpt><trkpt lat="39.9006475" lon="18.0880223"><ele>2.6666666666666665</ele><time>2026-04-04T16:20:22.185Z</time></trkpt><trkpt lat="39.9007334" lon="18.0878109"><ele>2.333333333333333</ele><time>2026-04-04T16:20:23.183Z</time></trkpt><trkpt lat="39.9008207" lon="18.0876021"><ele>2.0</ele><time>2026-04-04T16:20:24.184Z</time></trkpt><trkpt lat="39.900906" lon="18.0873904"><ele>2.0</ele><time>2026-04-04T16:20:25.185Z</time></trkpt><trkpt lat="39.9009798" lon="18.0871735"><ele>2.0</ele><time>2026-04-04T16:20:26.184Z</time></trkpt><trkpt lat="39.9010542" lon="18.0869609"><ele>2.0</ele><time>2026-04-04T16:20:27.184Z</time></trkpt><trkpt lat="39.901139" lon="18.0867614"><ele>1.3333333333333333</ele><time>2026-04-04T16:20:28.184Z</time></trkpt><trkpt lat="39.9012337" lon="18.0865852"><ele>0.6666666666666666</ele><time>2026-04-04T16:20:29.184Z</time></trkpt><trkpt lat="39.9013478" lon="18.0864257"><ele>0.0</ele><time>2026-04-04T16:20:30.184Z</time></trkpt><trkpt lat="39.901478" lon="18.0862888"><ele>0.0</ele><time>2026-04-04T16:20:31.185Z</time></trkpt><trkpt lat="39.9016244" lon="18.0861622"><ele>0.0</ele><time>2026-04-04T16:20:32.185Z</time></trkpt><trkpt lat="39.9017749" lon="18.0860468"><ele>0.0</ele><time>2026-04-04T16:20:33.184Z</time></trkpt><trkpt lat="39.9019317" lon="18.0859301"><ele>0.3333333333333333</ele><time>2026-04-04T16:20:34.184Z</time></trkpt><trkpt lat="39.9020911" lon="18.0858117"><ele>0.6666666666666666</ele><time>2026-04-04T16:20:35.185Z</time></trkpt><trkpt lat="39.9022499" lon="18.085688"><ele>1.0</ele><time>2026-04-04T16:20:36.184Z</time></trkpt><trkpt lat="39.9024147" lon="18.0855669"><ele>1.3333333333333333</ele><time>2026-04-04T16:20:37.185Z</time></trkpt><trkpt lat="39.9025806" lon="18.0854437"><ele>1.6666666666666665</ele><time>2026-04-04T16:20:38.183Z</time></trkpt><trkpt lat="39.902747" lon="18.0853223"><ele>2.0</ele><time>2026-04-04T16:20:39.184Z</time></trkpt><trkpt lat="39.9029152" lon="18.085187"><ele>2.0</ele><time>2026-04-04T16:20:40.184Z</time></trkpt><trkpt lat="39.9030828" lon="18.0850645"><ele>2.0</ele><time>2026-04-04T16:20:41.184Z</time></trkpt><trkpt lat="39.9032538" lon="18.0849386"><ele>2.0</ele><time>2026-04-04T16:20:42.184Z</time></trkpt><trkpt lat="39.9034207" lon="18.0848066"><ele>2.333333333333333</ele><time>2026-04-04T16:20:43.184Z</time></trkpt><trkpt lat="39.9035836" lon="18.0846785"><ele>2.6666666666666665</ele><time>2026-04-04T16:20:44.184Z</time></trkpt><trkpt lat="39.9037463" lon="18.0845614"><ele>3.0</ele><time>2026-04-04T16:20:45.186Z</time></trkpt><trkpt lat="39.9038958" lon="18.0844356"><ele>3.0</ele><time>2026-04-04T16:20:46.185Z</time></trkpt><trkpt lat="39.9040378" lon="18.0842976"><ele>3.0</ele><time>2026-04-04T16:20:47.185Z</time></trkpt><trkpt lat="39.9041348" lon="18.0841017"><ele>3.0</ele><time>2026-04-04T16:20:48.183Z</time></trkpt><trkpt lat="39.9042268" lon="18.0839046"><ele>3.666666666666667</ele><time>2026-04-04T16:20:49.183Z</time></trkpt><trkpt lat="39.904305" lon="18.0836964"><ele>4.333333333333334</ele><time>2026-04-04T16:20:50.186Z</time></trkpt><trkpt lat="39.9043809" lon="18.0834918"><ele>5.0</ele><time>2026-04-04T16:20:51.185Z</time></trkpt><trkpt lat="39.904459" lon="18.0833011"><ele>4.5</ele><time>2026-04-04T16:20:52.184Z</time></trkpt><trkpt lat="39.90454" lon="18.0831242"><ele>4.0</ele><time>2026-04-04T16:20:53.184Z</time></trkpt><trkpt lat="39.9046016" lon="18.0829616"><ele>3.5</ele><time>2026-04-04T16:20:54.186Z</time></trkpt><trkpt lat="39.9046539" lon="18.0828121"><ele>3.0</ele><time>2026-04-04T16:20:55.184Z</time></trkpt><trkpt lat="39.904704" lon="18.0826704"><ele>3.0</ele><time>2026-04-04T16:20:56.184Z</time></trkpt><trkpt lat="39.9047526" lon="18.0825313"><ele>3.0</ele><time>2026-04-04T16:20:57.185Z</time></trkpt><trkpt lat="39.9048154" lon="18.0823595"><ele>3.0</ele><time>2026-04-04T16:20:58.185Z</time></trkpt><trkpt lat="39.9048919" lon="18.0821629"><ele>3.0</ele><time>2026-04-04T16:20:59.183Z</time></trkpt><trkpt lat="39.9049866" lon="18.0819555"><ele>2.6666666666666665</ele><time>2026-04-04T16:21:00.184Z</time></trkpt><trkpt lat="39.9050749" lon="18.0817442"><ele>2.333333333333333</ele><time>2026-04-04T16:21:01.184Z</time></trkpt><trkpt lat="39.9051645" lon="18.0815347"><ele>2.0</ele><time>2026-04-04T16:21:02.184Z</time></trkpt><trkpt lat="39.905247" lon="18.08132"><ele>2.0</ele><time>2026-04-04T16:21:03.184Z</time></trkpt><trkpt lat="39.905331" lon="18.081101"><ele>2.0</ele><time>2026-04-04T16:21:04.183Z</time></trkpt><trkpt lat="39.9054246" lon="18.0808926"><ele>2.0</ele><time>2026-04-04T16:21:05.183Z</time></trkpt><trkpt lat="39.9055328" lon="18.0806854"><ele>1.6666666666666665</ele><time>2026-04-04T16:21:06.185Z</time></trkpt><trkpt lat="39.9056557" lon="18.0804832"><ele>1.3333333333333333</ele><time>2026-04-04T16:21:07.184Z</time></trkpt><trkpt lat="39.9057865" lon="18.0802811"><ele>1.0</ele><time>2026-04-04T16:21:08.184Z</time></trkpt><trkpt lat="39.905917" lon="18.0800727"><ele>1.0</ele><time>2026-04-04T16:21:09.184Z</time></trkpt><trkpt lat="39.9060441" lon="18.0798569"><ele>1.0</ele><time>2026-04-04T16:21:10.185Z</time></trkpt><trkpt lat="39.9061757" lon="18.079642"><ele>1.0</ele><time>2026-04-04T16:21:11.184Z</time></trkpt><trkpt lat="39.9063132" lon="18.0794271"><ele>1.0</ele><time>2026-04-04T16:21:12.186Z</time></trkpt><trkpt lat="39.9064531" lon="18.0792087"><ele>1.0</ele><time>2026-04-04T16:21:13.185Z</time></trkpt><trkpt lat="39.9065976" lon="18.0790014"><ele>1.0</ele><time>2026-04-04T16:21:14.185Z</time></trkpt><trkpt lat="39.9067388" lon="18.0787988"><ele>1.3333333333333333</ele><time>2026-04-04T16:21:15.184Z</time></trkpt><trkpt lat="39.9068755" lon="18.0785986"><ele>1.6666666666666665</ele><time>2026-04-04T16:21:16.183Z</time></trkpt><trkpt lat="39.9070016" lon="18.0784014"><ele>2.0</ele><time>2026-04-04T16:21:17.184Z</time></trkpt><trkpt lat="39.9071195" lon="18.0782186"><ele>1.0</ele><time>2026-04-04T16:21:18.185Z</time></trkpt><trkpt lat="39.9072342" lon="18.0780479"><ele>0.0</ele><time>2026-04-04T16:21:19.185Z</time></trkpt><trkpt lat="39.9073537" lon="18.0779046"><ele>-1.0</ele><time>2026-04-04T16:21:20.184Z</time></trkpt><trkpt lat="39.9074727" lon="18.0777716"><ele>-0.3333333333333333</ele><time>2026-04-04T16:21:21.184Z</time></trkpt><trkpt lat="39.9076105" lon="18.0776594"><ele>0.3333333333333333</ele><time>2026-04-04T16:21:22.183Z</time></trkpt><trkpt lat="39.9077569" lon="18.0775574"><ele>1.0</ele><time>2026-04-04T16:21:23.185Z</time></trkpt><trkpt lat="39.9079048" lon="18.0774567"><ele>0.3333333333333333</ele><time>2026-04-04T16:21:24.186Z</time></trkpt><trkpt lat="39.9080608" lon="18.0773606"><ele>-0.3333333333333333</ele><time>2026-04-04T16:21:25.185Z</time></trkpt><trkpt lat="39.9082192" lon="18.077259"><ele>-1.0</ele><time>2026-04-04T16:21:26.184Z</time></trkpt><trkpt lat="39.9083768" lon="18.0771595"><ele>-0.6666666666666666</ele><time>2026-04-04T16:21:27.184Z</time></trkpt><trkpt lat="39.9085343" lon="18.0770567"><ele>-0.3333333333333333</ele><time>2026-04-04T16:21:28.185Z</time></trkpt><trkpt lat="39.9086951" lon="18.0769554"><ele>0.0</ele><time>2026-04-04T16:21:29.184Z</time></trkpt><trkpt lat="39.908854" lon="18.0768506"><ele>0.0</ele><time>2026-04-04T16:21:30.184Z</time></trkpt><trkpt lat="39.9090094" lon="18.0767447"><ele>0.0</ele><time>2026-04-04T16:21:31.184Z</time></trkpt><trkpt lat="39.9091667" lon="18.0766445"><ele>0.0</ele><time>2026-04-04T16:21:32.183Z</time></trkpt><trkpt lat="39.9093238" lon="18.076543"><ele>0.0</ele><time>2026-04-04T16:21:33.184Z</time></trkpt><trkpt lat="39.9094811" lon="18.0764382"><ele>0.0</ele><time>2026-04-04T16:21:34.185Z</time></trkpt><trkpt lat="39.9096421" lon="18.0763367"><ele>0.0</ele><time>2026-04-04T16:21:35.183Z</time></trkpt><trkpt lat="39.9098024" lon="18.0762368"><ele>0.0</ele><time>2026-04-04T16:21:36.183Z</time></trkpt><trkpt lat="39.9099628" lon="18.0761317"><ele>0.0</ele><time>2026-04-04T16:21:37.184Z</time></trkpt><trkpt lat="39.9101274" lon="18.0760326"><ele>0.0</ele><time>2026-04-04T16:21:38.185Z</time></trkpt><trkpt lat="39.9102938" lon="18.0759358"><ele>-0.6666666666666666</ele><time>2026-04-04T16:21:39.183Z</time></trkpt><trkpt lat="39.9104644" lon="18.0758464"><ele>-1.3333333333333333</ele><time>2026-04-04T16:21:40.184Z</time></trkpt><trkpt lat="39.9106318" lon="18.0757681"><ele>-2.0</ele><time>2026-04-04T16:21:41.184Z</time></trkpt><trkpt lat="39.9108045" lon="18.0756944"><ele>0.0</ele><time>2026-04-04T16:21:42.185Z</time></trkpt><trkpt lat="39.9109703" lon="18.0756155"><ele>2.0</ele><time>2026-04-04T16:21:43.185Z</time></trkpt><trkpt lat="39.911142" lon="18.0755447"><ele>4.0</ele><time>2026-04-04T16:21:44.183Z</time></trkpt><trkpt lat="39.9113135" lon="18.0754638"><ele>4.0</ele><time>2026-04-04T16:21:45.185Z</time></trkpt><trkpt lat="39.9114852" lon="18.0753827"><ele>4.0</ele><time>2026-04-04T16:21:46.186Z</time></trkpt><trkpt lat="39.9116512" lon="18.0753117"><ele>4.0</ele><time>2026-04-04T16:21:47.183Z</time></trkpt><trkpt lat="39.9117985" lon="18.0752552"><ele>4.0</ele><time>2026-04-04T16:21:48.184Z</time></trkpt><trkpt lat="39.9119481" lon="18.0752038"><ele>4.0</ele><time>2026-04-04T16:21:49.183Z</time></trkpt><trkpt lat="39.9120783" lon="18.0751538"><ele>4.0</ele><time>2026-04-04T16:21:50.183Z</time></trkpt><trkpt lat="39.9121905" lon="18.075092"><ele>4.0</ele><time>2026-04-04T16:21:51.185Z</time></trkpt><trkpt lat="39.9122886" lon="18.0750111"><ele>3.25</ele><time>2026-04-04T16:21:52.186Z</time></trkpt><trkpt lat="39.9123735" lon="18.0748943"><ele>2.5</ele><time>2026-04-04T16:21:53.184Z</time></trkpt><trkpt lat="39.9124364" lon="18.0747377"><ele>1.75</ele><time>2026-04-04T16:21:54.184Z</time></trkpt><trkpt lat="39.9124841" lon="18.0745383"><ele>1.0</ele><time>2026-04-04T16:21:55.184Z</time></trkpt><trkpt lat="39.9125293" lon="18.0743435"><ele>1.6666666666666665</ele><time>2026-04-04T16:21:56.184Z</time></trkpt><trkpt lat="39.9125755" lon="18.0741545"><ele>2.3333333333333335</ele><time>2026-04-04T16:21:57.184Z</time></trkpt><trkpt lat="39.9126208" lon="18.0739637"><ele>3.0</ele><time>2026-04-04T16:21:58.184Z</time></trkpt><trkpt lat="39.9126755" lon="18.0737757"><ele>3.0</ele><time>2026-04-04T16:21:59.183Z</time></trkpt><trkpt lat="39.9127511" lon="18.0735974"><ele>3.0</ele><time>2026-04-04T16:22:00.185Z</time></trkpt><trkpt lat="39.9128462" lon="18.0734245"><ele>3.0</ele><time>2026-04-04T16:22:01.186Z</time></trkpt><trkpt lat="39.9129609" lon="18.0732535"><ele>2.3333333333333335</ele><time>2026-04-04T16:22:02.183Z</time></trkpt><trkpt lat="39.9130908" lon="18.0730815"><ele>1.6666666666666665</ele><time>2026-04-04T16:22:03.183Z</time></trkpt><trkpt lat="39.9132228" lon="18.0729059"><ele>1.0</ele><time>2026-04-04T16:22:04.183Z</time></trkpt><trkpt lat="39.9133646" lon="18.0727213"><ele>1.6666666666666665</ele><time>2026-04-04T16:22:05.183Z</time></trkpt><trkpt lat="39.9135108" lon="18.0725299"><ele>2.3333333333333335</ele><time>2026-04-04T16:22:06.185Z</time></trkpt><trkpt lat="39.9136625" lon="18.0723379"><ele>3.0</ele><time>2026-04-04T16:22:07.184Z</time></trkpt><trkpt lat="39.9138184" lon="18.0721427"><ele>3.0</ele><time>2026-04-04T16:22:08.184Z</time></trkpt><trkpt lat="39.9139734" lon="18.071948"><ele>3.0</ele><time>2026-04-04T16:22:09.184Z</time></trkpt><trkpt lat="39.9141213" lon="18.0717619"><ele>3.0</ele><time>2026-04-04T16:22:10.183Z</time></trkpt><trkpt lat="39.9142655" lon="18.0715815"><ele>2.6666666666666665</ele><time>2026-04-04T16:22:11.184Z</time></trkpt><trkpt lat="39.914413" lon="18.0713985"><ele>2.333333333333333</ele><time>2026-04-04T16:22:12.185Z</time></trkpt><trkpt lat="39.914554" lon="18.0712225"><ele>2.0</ele><time>2026-04-04T16:22:13.183Z</time></trkpt><trkpt lat="39.9147004" lon="18.0710651"><ele>2.0</ele><time>2026-04-04T16:22:14.184Z</time></trkpt><trkpt lat="39.9148612" lon="18.0709354"><ele>2.0</ele><time>2026-04-04T16:22:15.185Z</time></trkpt><trkpt lat="39.9150297" lon="18.0708348"><ele>2.0</ele><time>2026-04-04T16:22:16.186Z</time></trkpt><trkpt lat="39.9152075" lon="18.0707589"><ele>1.6666666666666665</ele><time>2026-04-04T16:22:17.185Z</time></trkpt><trkpt lat="39.915391" lon="18.0706918"><ele>1.3333333333333333</ele><time>2026-04-04T16:22:18.185Z</time></trkpt><trkpt lat="39.9155767" lon="18.0706293"><ele>1.0</ele><time>2026-04-04T16:22:19.184Z</time></trkpt><trkpt lat="39.9157676" lon="18.0705612"><ele>1.3333333333333333</ele><time>2026-04-04T16:22:20.185Z</time></trkpt><trkpt lat="39.9159607" lon="18.0704896"><ele>1.6666666666666665</ele><time>2026-04-04T16:22:21.185Z</time></trkpt><trkpt lat="39.9161602" lon="18.0704159"><ele>2.0</ele><time>2026-04-04T16:22:22.184Z</time></trkpt><trkpt lat="39.9163617" lon="18.07034"><ele>2.0</ele><time>2026-04-04T16:22:23.183Z</time></trkpt><trkpt lat="39.9165666" lon="18.0702644"><ele>2.0</ele><time>2026-04-04T16:22:24.185Z</time></trkpt><trkpt lat="39.9167758" lon="18.0701912"><ele>2.0</ele><time>2026-04-04T16:22:25.185Z</time></trkpt><trkpt lat="39.916984" lon="18.0701151"><ele>2.6666666666666665</ele><time>2026-04-04T16:22:26.183Z</time></trkpt><trkpt lat="39.9171955" lon="18.0700419"><ele>3.333333333333333</ele><time>2026-04-04T16:22:27.185Z</time></trkpt><trkpt lat="39.917401" lon="18.0699725"><ele>4.0</ele><time>2026-04-04T16:22:28.184Z</time></trkpt><trkpt lat="39.9176135" lon="18.0698977"><ele>2.6666666666666665</ele><time>2026-04-04T16:22:29.185Z</time></trkpt><trkpt lat="39.9178217" lon="18.0698199"><ele>1.3333333333333333</ele><time>2026-04-04T16:22:30.185Z</time></trkpt><trkpt lat="39.9180247" lon="18.069748"><ele>0.0</ele><time>2026-04-04T16:22:31.184Z</time></trkpt><trkpt lat="39.918221" lon="18.0696736"><ele>1.3333333333333333</ele><time>2026-04-04T16:22:32.183Z</time></trkpt><trkpt lat="39.9184108" lon="18.0696086"><ele>2.6666666666666665</ele><time>2026-04-04T16:22:33.183Z</time></trkpt><trkpt lat="39.9185925" lon="18.0695559"><ele>4.0</ele><time>2026-04-04T16:22:34.184Z</time></trkpt><trkpt lat="39.9187665" lon="18.0695185"><ele>4.0</ele><time>2026-04-04T16:22:35.183Z</time></trkpt><trkpt lat="39.9189307" lon="18.0694963"><ele>4.0</ele><time>2026-04-04T16:22:36.184Z</time></trkpt><trkpt lat="39.919087" lon="18.069481"><ele>4.0</ele><time>2026-04-04T16:22:37.186Z</time></trkpt><trkpt lat="39.9192345" lon="18.0694673"><ele>4.6</ele><time>2026-04-04T16:22:38.185Z</time></trkpt><trkpt lat="39.9193643" lon="18.069448"><ele>5.2</ele><time>2026-04-04T16:22:39.183Z</time></trkpt><trkpt lat="39.9194731" lon="18.0694148"><ele>5.799999999999999</ele><time>2026-04-04T16:22:40.185Z</time></trkpt><trkpt lat="39.919556" lon="18.0693654"><ele>6.3999999999999995</ele><time>2026-04-04T16:22:41.183Z</time></trkpt><trkpt lat="39.9196092" lon="18.0693008"><ele>7.0</ele><time>2026-04-04T16:22:42.183Z</time></trkpt><trkpt lat="39.9196209" lon="18.069139"><ele>7.0</ele><time>2026-04-04T16:22:44.185Z</time></trkpt><trkpt lat="39.9195763" lon="18.0690374"><ele>6.999999999999999</ele><time>2026-04-04T16:22:45.184Z</time></trkpt><trkpt lat="39.9195054" lon="18.0689358"><ele>6.999999999999999</ele><time>2026-04-04T16:22:46.183Z</time></trkpt><trkpt lat="39.9194621" lon="18.0688353"><ele>7.0</ele><time>2026-04-04T16:22:47.185Z</time></trkpt><trkpt lat="39.9194676" lon="18.0686659"><ele>7.0</ele><time>2026-04-04T16:22:49.184Z</time></trkpt><trkpt lat="39.9194986" lon="18.0685625"><ele>7.0</ele><time>2026-04-04T16:22:50.185Z</time></trkpt><trkpt lat="39.9195658" lon="18.0684174"><ele>7.0</ele><time>2026-04-04T16:22:51.184Z</time></trkpt><trkpt lat="39.9196283" lon="18.0682569"><ele>7.0</ele><time>2026-04-04T16:22:52.184Z</time></trkpt><trkpt lat="39.9196924" lon="18.068062"><ele>7.0</ele><time>2026-04-04T16:22:53.183Z</time></trkpt><trkpt lat="39.9197417" lon="18.067845"><ele>6.666666666666667</ele><time>2026-04-04T16:22:54.184Z</time></trkpt><trkpt lat="39.9197876" lon="18.0676317"><ele>6.333333333333334</ele><time>2026-04-04T16:22:55.183Z</time></trkpt><trkpt lat="39.9198282" lon="18.0674166"><ele>6.0</ele><time>2026-04-04T16:22:56.185Z</time></trkpt><trkpt lat="39.9198737" lon="18.0671986"><ele>5.333333333333333</ele><time>2026-04-04T16:22:57.183Z</time></trkpt><trkpt lat="39.9199238" lon="18.0669759"><ele>4.666666666666666</ele><time>2026-04-04T16:22:58.184Z</time></trkpt><trkpt lat="39.9199802" lon="18.0667527"><ele>4.0</ele><time>2026-04-04T16:22:59.184Z</time></trkpt><trkpt lat="39.9200475" lon="18.0665267"><ele>4.0</ele><time>2026-04-04T16:23:00.184Z</time></trkpt><trkpt lat="39.9201273" lon="18.0663039"><ele>4.0</ele><time>2026-04-04T16:23:01.185Z</time></trkpt><trkpt lat="39.9202213" lon="18.0660859"><ele>4.0</ele><time>2026-04-04T16:23:02.186Z</time></trkpt><trkpt lat="39.9203288" lon="18.0658733"><ele>3.0</ele><time>2026-04-04T16:23:03.185Z</time></trkpt><trkpt lat="39.920445" lon="18.0656783"><ele>2.0</ele><time>2026-04-04T16:23:04.183Z</time></trkpt><trkpt lat="39.9205522" lon="18.0655039"><ele>1.0</ele><time>2026-04-04T16:23:05.184Z</time></trkpt><trkpt lat="39.9206597" lon="18.065347"><ele>1.0</ele><time>2026-04-04T16:23:06.184Z</time></trkpt><trkpt lat="39.9207572" lon="18.0652007"><ele>1.0</ele><time>2026-04-04T16:23:07.185Z</time></trkpt><trkpt lat="39.9208525" lon="18.0650539"><ele>1.0</ele><time>2026-04-04T16:23:08.184Z</time></trkpt><trkpt lat="39.9209451" lon="18.0649125"><ele>1.0</ele><time>2026-04-04T16:23:09.185Z</time></trkpt><trkpt lat="39.9210362" lon="18.0647691"><ele>1.25</ele><time>2026-04-04T16:23:10.184Z</time></trkpt><trkpt lat="39.9211239" lon="18.064632"><ele>1.5</ele><time>2026-04-04T16:23:11.183Z</time></trkpt><trkpt lat="39.921214" lon="18.0645006"><ele>1.75</ele><time>2026-04-04T16:23:12.185Z</time></trkpt><trkpt lat="39.9213046" lon="18.064378"><ele>2.0</ele><time>2026-04-04T16:23:13.184Z</time></trkpt><trkpt lat="39.9213954" lon="18.0642848"><ele>2.0</ele><time>2026-04-04T16:23:14.184Z</time></trkpt><trkpt lat="39.921488" lon="18.0642035"><ele>2.0</ele><time>2026-04-04T16:23:15.183Z</time></trkpt><trkpt lat="39.9215774" lon="18.0641504"><ele>2.0</ele><time>2026-04-04T16:23:16.184Z</time></trkpt><trkpt lat="39.9216522" lon="18.0641019"><ele>2.0</ele><time>2026-04-04T16:23:17.184Z</time></trkpt><trkpt lat="39.9217157" lon="18.0639611"><ele>2.0</ele><time>2026-04-04T16:23:19.185Z</time></trkpt><trkpt lat="39.9217262" lon="18.0638781"><ele>2.4000000000000004</ele><time>2026-04-04T16:23:20.183Z</time></trkpt><trkpt lat="39.9217428" lon="18.0637829"><ele>2.8000000000000003</ele><time>2026-04-04T16:23:21.185Z</time></trkpt><trkpt lat="39.9217704" lon="18.0636747"><ele>3.2</ele><time>2026-04-04T16:23:22.185Z</time></trkpt><trkpt lat="39.9218151" lon="18.0635602"><ele>3.6</ele><time>2026-04-04T16:23:23.184Z</time></trkpt><trkpt lat="39.9218816" lon="18.063444"><ele>4.0</ele><time>2026-04-04T16:23:24.184Z</time></trkpt><trkpt lat="39.9219605" lon="18.0633185"><ele>3.5</ele><time>2026-04-04T16:23:25.184Z</time></trkpt><trkpt lat="39.9220431" lon="18.0631843"><ele>3.0</ele><time>2026-04-04T16:23:26.183Z</time></trkpt><trkpt lat="39.9221332" lon="18.063042"><ele>2.5</ele><time>2026-04-04T16:23:27.183Z</time></trkpt><trkpt lat="39.9222292" lon="18.062896"><ele>2.0</ele><time>2026-04-04T16:23:28.184Z</time></trkpt><trkpt lat="39.9223339" lon="18.0627431"><ele>2.0</ele><time>2026-04-04T16:23:29.184Z</time></trkpt><trkpt lat="39.9224407" lon="18.0625776"><ele>2.0</ele><time>2026-04-04T16:23:30.184Z</time></trkpt><trkpt lat="39.9225462" lon="18.0624061"><ele>2.0</ele><time>2026-04-04T16:23:31.185Z</time></trkpt><trkpt lat="39.9226495" lon="18.0622244"><ele>3.666666666666667</ele><time>2026-04-04T16:23:32.185Z</time></trkpt><trkpt lat="39.9227395" lon="18.0620228"><ele>5.333333333333334</ele><time>2026-04-04T16:23:33.184Z</time></trkpt><trkpt lat="39.9228304" lon="18.0618227"><ele>7.0</ele><time>2026-04-04T16:23:34.184Z</time></trkpt><trkpt lat="39.9229" lon="18.0616298"><ele>6.0</ele><time>2026-04-04T16:23:35.183Z</time></trkpt><trkpt lat="39.9229525" lon="18.0614392"><ele>5.0</ele><time>2026-04-04T16:23:36.184Z</time></trkpt><trkpt lat="39.9229985" lon="18.061256"><ele>4.0</ele><time>2026-04-04T16:23:37.185Z</time></trkpt><trkpt lat="39.9230322" lon="18.0610953"><ele>3.0</ele><time>2026-04-04T16:23:38.186Z</time></trkpt><trkpt lat="39.9230681" lon="18.0609621"><ele>3.0</ele><time>2026-04-04T16:23:39.183Z</time></trkpt><trkpt lat="39.9230964" lon="18.0608369"><ele>3.0</ele><time>2026-04-04T16:23:40.183Z</time></trkpt><trkpt lat="39.9231328" lon="18.0607266"><ele>3.0</ele><time>2026-04-04T16:23:41.184Z</time></trkpt><trkpt lat="39.9231822" lon="18.0606398"><ele>3.0</ele><time>2026-04-04T16:23:42.184Z</time></trkpt><trkpt lat="39.9232413" lon="18.0605805"><ele>3.0</ele><time>2026-04-04T16:23:43.186Z</time></trkpt><trkpt lat="39.9232908" lon="18.0605204"><ele>3.0</ele><time>2026-04-04T16:23:44.183Z</time></trkpt><trkpt lat="39.92332" lon="18.0603805"><ele>2.6</ele><time>2026-04-04T16:23:46.185Z</time></trkpt><trkpt lat="39.9232856" lon="18.060225"><ele>2.1999999999999997</ele><time>2026-04-04T16:23:48.184Z</time></trkpt><trkpt lat="39.9232789" lon="18.0601279"><ele>1.8</ele><time>2026-04-04T16:23:49.183Z</time></trkpt><trkpt lat="39.9232868" lon="18.0600159"><ele>1.4</ele><time>2026-04-04T16:23:50.184Z</time></trkpt><trkpt lat="39.9233106" lon="18.0598962"><ele>1.0</ele><time>2026-04-04T16:23:51.185Z</time></trkpt><trkpt lat="39.9233463" lon="18.0597683"><ele>1.25</ele><time>2026-04-04T16:23:52.184Z</time></trkpt><trkpt lat="39.9233854" lon="18.0596314"><ele>1.5</ele><time>2026-04-04T16:23:53.183Z</time></trkpt><trkpt lat="39.9234344" lon="18.0594877"><ele>1.75</ele><time>2026-04-04T16:23:54.183Z</time></trkpt><trkpt lat="39.9234919" lon="18.0593469"><ele>2.0</ele><time>2026-04-04T16:23:55.183Z</time></trkpt><trkpt lat="39.9235533" lon="18.0591998"><ele>1.5</ele><time>2026-04-04T16:23:56.184Z</time></trkpt><trkpt lat="39.9236317" lon="18.0590538"><ele>1.0</ele><time>2026-04-04T16:23:57.183Z</time></trkpt><trkpt lat="39.9237133" lon="18.0589058"><ele>0.5</ele><time>2026-04-04T16:23:58.185Z</time></trkpt><trkpt lat="39.9238047" lon="18.0587609"><ele>0.0</ele><time>2026-04-04T16:23:59.184Z</time></trkpt><trkpt lat="39.9239022" lon="18.0586155"><ele>0.0</ele><time>2026-04-04T16:24:00.184Z</time></trkpt><trkpt lat="39.9239995" lon="18.0584682"><ele>0.0</ele><time>2026-04-04T16:24:01.184Z</time></trkpt><trkpt lat="39.9241025" lon="18.0583212"><ele>0.0</ele><time>2026-04-04T16:24:02.184Z</time></trkpt><trkpt lat="39.924206" lon="18.0581724"><ele>0.3333333333333333</ele><time>2026-04-04T16:24:03.185Z</time></trkpt><trkpt lat="39.9243137" lon="18.058025"><ele>0.6666666666666666</ele><time>2026-04-04T16:24:04.184Z</time></trkpt><trkpt lat="39.9244235" lon="18.0578708"><ele>1.0</ele><time>2026-04-04T16:24:05.183Z</time></trkpt><trkpt lat="39.9245323" lon="18.0577183"><ele>1.0</ele><time>2026-04-04T16:24:06.184Z</time></trkpt><trkpt lat="39.9246439" lon="18.0575558"><ele>1.0</ele><time>2026-04-04T16:24:07.184Z</time></trkpt><trkpt lat="39.9247627" lon="18.0573932"><ele>1.0</ele><time>2026-04-04T16:24:08.183Z</time></trkpt><trkpt lat="39.9248796" lon="18.0572298"><ele>0.3333333333333333</ele><time>2026-04-04T16:24:09.183Z</time></trkpt><trkpt lat="39.9250021" lon="18.0570617"><ele>-0.3333333333333333</ele><time>2026-04-04T16:24:10.184Z</time></trkpt><trkpt lat="39.9251267" lon="18.0568935"><ele>-1.0</ele><time>2026-04-04T16:24:11.184Z</time></trkpt><trkpt lat="39.9252501" lon="18.0567209"><ele>0.0</ele><time>2026-04-04T16:24:12.184Z</time></trkpt><trkpt lat="39.9253761" lon="18.0565467"><ele>1.0</ele><time>2026-04-04T16:24:13.184Z</time></trkpt><trkpt lat="39.9254981" lon="18.0563713"><ele>2.0</ele><time>2026-04-04T16:24:14.184Z</time></trkpt><trkpt lat="39.9256218" lon="18.0561929"><ele>2.0</ele><time>2026-04-04T16:24:15.184Z</time></trkpt><trkpt lat="39.9257531" lon="18.0560201"><ele>2.0</ele><time>2026-04-04T16:24:16.184Z</time></trkpt><trkpt lat="39.9258769" lon="18.0558389"><ele>2.0</ele><time>2026-04-04T16:24:17.185Z</time></trkpt><trkpt lat="39.9260064" lon="18.0556623"><ele>2.0</ele><time>2026-04-04T16:24:18.185Z</time></trkpt><trkpt lat="39.9261323" lon="18.0554881"><ele>2.0</ele><time>2026-04-04T16:24:19.184Z</time></trkpt><trkpt lat="39.9262568" lon="18.0553165"><ele>2.0</ele><time>2026-04-04T16:24:20.185Z</time></trkpt><trkpt lat="39.9263796" lon="18.0551418"><ele>2.0</ele><time>2026-04-04T16:24:21.184Z</time></trkpt><trkpt lat="39.9265024" lon="18.0549698"><ele>2.0</ele><time>2026-04-04T16:24:22.183Z</time></trkpt><trkpt lat="39.9266231" lon="18.0547989"><ele>2.0</ele><time>2026-04-04T16:24:23.184Z</time></trkpt><trkpt lat="39.9267428" lon="18.0546335"><ele>2.0</ele><time>2026-04-04T16:24:24.183Z</time></trkpt><trkpt lat="39.9268602" lon="18.0544689"><ele>2.0</ele><time>2026-04-04T16:24:25.184Z</time></trkpt><trkpt lat="39.926973" lon="18.0543134"><ele>2.0</ele><time>2026-04-04T16:24:26.185Z</time></trkpt><trkpt lat="39.92708" lon="18.0541686"><ele>1.25</ele><time>2026-04-04T16:24:27.184Z</time></trkpt><trkpt lat="39.9271826" lon="18.0540276"><ele>0.5</ele><time>2026-04-04T16:24:28.185Z</time></trkpt><trkpt lat="39.9272785" lon="18.0538955"><ele>-0.25</ele><time>2026-04-04T16:24:29.185Z</time></trkpt><trkpt lat="39.9273734" lon="18.0537689"><ele>-1.0</ele><time>2026-04-04T16:24:30.183Z</time></trkpt><trkpt lat="39.9274649" lon="18.0536417"><ele>-1.0</ele><time>2026-04-04T16:24:31.185Z</time></trkpt><trkpt lat="39.9275491" lon="18.0535186"><ele>-1.0</ele><time>2026-04-04T16:24:32.185Z</time></trkpt><trkpt lat="39.927635" lon="18.0533992"><ele>-1.0</ele><time>2026-04-04T16:24:33.185Z</time></trkpt><trkpt lat="39.9277175" lon="18.0532872"><ele>-1.0</ele><time>2026-04-04T16:24:34.184Z</time></trkpt><trkpt lat="39.9277977" lon="18.053177"><ele>0.0</ele><time>2026-04-04T16:24:35.184Z</time></trkpt><trkpt lat="39.9278789" lon="18.0530656"><ele>1.0</ele><time>2026-04-04T16:24:36.185Z</time></trkpt><trkpt lat="39.9279542" lon="18.0529535"><ele>2.0</ele><time>2026-04-04T16:24:37.184Z</time></trkpt><trkpt lat="39.9280246" lon="18.0528389"><ele>3.0</ele><time>2026-04-04T16:24:38.184Z</time></trkpt><trkpt lat="39.9280953" lon="18.0527217"><ele>3.0</ele><time>2026-04-04T16:24:39.186Z</time></trkpt><trkpt lat="39.9281582" lon="18.0526012"><ele>3.0</ele><time>2026-04-04T16:24:40.184Z</time></trkpt><trkpt lat="39.9282197" lon="18.0524779"><ele>3.0</ele><time>2026-04-04T16:24:41.184Z</time></trkpt><trkpt lat="39.9282714" lon="18.0523496"><ele>3.0</ele><time>2026-04-04T16:24:42.184Z</time></trkpt><trkpt lat="39.9283176" lon="18.0522164"><ele>3.0</ele><time>2026-04-04T16:24:43.184Z</time></trkpt><trkpt lat="39.9283552" lon="18.05208"><ele>3.2</ele><time>2026-04-04T16:24:44.185Z</time></trkpt><trkpt lat="39.928388" lon="18.0519454"><ele>3.4</ele><time>2026-04-04T16:24:45.184Z</time></trkpt><trkpt lat="39.9284104" lon="18.0518091"><ele>3.6000000000000005</ele><time>2026-04-04T16:24:46.185Z</time></trkpt><trkpt lat="39.9284353" lon="18.0516735"><ele>3.8000000000000003</ele><time>2026-04-04T16:24:47.184Z</time></trkpt><trkpt lat="39.9284602" lon="18.0515397"><ele>4.0</ele><time>2026-04-04T16:24:48.185Z</time></trkpt><trkpt lat="39.9284849" lon="18.0514069"><ele>4.0</ele><time>2026-04-04T16:24:49.186Z</time></trkpt><trkpt lat="39.9285122" lon="18.0512747"><ele>4.0</ele><time>2026-04-04T16:24:50.185Z</time></trkpt><trkpt lat="39.9285412" lon="18.0511385"><ele>4.0</ele><time>2026-04-04T16:24:51.185Z</time></trkpt><trkpt lat="39.9285709" lon="18.0509937"><ele>4.0</ele><time>2026-04-04T16:24:52.184Z</time></trkpt><trkpt lat="39.9286016" lon="18.0508349"><ele>3.75</ele><time>2026-04-04T16:24:53.184Z</time></trkpt><trkpt lat="39.9286324" lon="18.050672"><ele>3.5</ele><time>2026-04-04T16:24:54.185Z</time></trkpt><trkpt lat="39.9286623" lon="18.0505002"><ele>3.25</ele><time>2026-04-04T16:24:55.184Z</time></trkpt><trkpt lat="39.9286936" lon="18.0503255"><ele>3.0</ele><time>2026-04-04T16:24:56.183Z</time></trkpt><trkpt lat="39.928728" lon="18.0501416"><ele>3.0</ele><time>2026-04-04T16:24:57.183Z</time></trkpt><trkpt lat="39.9287645" lon="18.0499592"><ele>3.0</ele><time>2026-04-04T16:24:58.186Z</time></trkpt><trkpt lat="39.9287945" lon="18.049774"><ele>3.0</ele><time>2026-04-04T16:24:59.185Z</time></trkpt><trkpt lat="39.9288269" lon="18.0495968"><ele>3.0</ele><time>2026-04-04T16:25:00.184Z</time></trkpt><trkpt lat="39.9288598" lon="18.0494204"><ele>2.75</ele><time>2026-04-04T16:25:01.185Z</time></trkpt><trkpt lat="39.9288947" lon="18.0492414"><ele>2.5</ele><time>2026-04-04T16:25:02.183Z</time></trkpt><trkpt lat="39.9289337" lon="18.049057"><ele>2.25</ele><time>2026-04-04T16:25:03.185Z</time></trkpt><trkpt lat="39.9289898" lon="18.0488716"><ele>2.0</ele><time>2026-04-04T16:25:04.184Z</time></trkpt><trkpt lat="39.9290558" lon="18.0486868"><ele>1.3333333333333333</ele><time>2026-04-04T16:25:05.185Z</time></trkpt><trkpt lat="39.9291353" lon="18.0485091"><ele>0.6666666666666666</ele><time>2026-04-04T16:25:06.185Z</time></trkpt><trkpt lat="39.9292212" lon="18.0483286"><ele>0.0</ele><time>2026-04-04T16:25:07.185Z</time></trkpt><trkpt lat="39.9293356" lon="18.0481606"><ele>-0.3333333333333333</ele><time>2026-04-04T16:25:08.184Z</time></trkpt><trkpt lat="39.9294553" lon="18.0480033"><ele>-0.6666666666666666</ele><time>2026-04-04T16:25:09.184Z</time></trkpt><trkpt lat="39.9295895" lon="18.0478594"><ele>-1.0</ele><time>2026-04-04T16:25:10.183Z</time></trkpt><trkpt lat="39.9297335" lon="18.0477311"><ele>-1.0</ele><time>2026-04-04T16:25:11.184Z</time></trkpt><trkpt lat="39.9298892" lon="18.0476191"><ele>-1.0</ele><time>2026-04-04T16:25:12.184Z</time></trkpt><trkpt lat="39.930042" lon="18.0475262"><ele>-1.0</ele><time>2026-04-04T16:25:13.183Z</time></trkpt><trkpt lat="39.9301959" lon="18.047439"><ele>-0.6666666666666666</ele><time>2026-04-04T16:25:14.183Z</time></trkpt><trkpt lat="39.93035" lon="18.0473534"><ele>-0.3333333333333333</ele><time>2026-04-04T16:25:15.185Z</time></trkpt><trkpt lat="39.9305119" lon="18.0472568"><ele>0.0</ele><time>2026-04-04T16:25:16.183Z</time></trkpt><trkpt lat="39.9306573" lon="18.0471721"><ele>0.0</ele><time>2026-04-04T16:25:17.185Z</time></trkpt><trkpt lat="39.930801" lon="18.0471003"><ele>0.0</ele><time>2026-04-04T16:25:18.184Z</time></trkpt><trkpt lat="39.9309381" lon="18.0470285"><ele>0.0</ele><time>2026-04-04T16:25:19.184Z</time></trkpt><trkpt lat="39.9310774" lon="18.0469688"><ele>0.0</ele><time>2026-04-04T16:25:20.185Z</time></trkpt><trkpt lat="39.9312247" lon="18.0469185"><ele>0.3333333333333333</ele><time>2026-04-04T16:25:21.183Z</time></trkpt><trkpt lat="39.9313768" lon="18.0468829"><ele>0.6666666666666666</ele><time>2026-04-04T16:25:22.183Z</time></trkpt><trkpt lat="39.9315323" lon="18.0468652"><ele>1.0</ele><time>2026-04-04T16:25:23.186Z</time></trkpt><trkpt lat="39.931685" lon="18.0468644"><ele>0.3333333333333333</ele><time>2026-04-04T16:25:24.184Z</time></trkpt><trkpt lat="39.9318393" lon="18.0468809"><ele>-0.3333333333333333</ele><time>2026-04-04T16:25:25.184Z</time></trkpt><trkpt lat="39.931995" lon="18.0469065"><ele>-1.0</ele><time>2026-04-04T16:25:26.183Z</time></trkpt><trkpt lat="39.9321531" lon="18.0469356"><ele>-1.0</ele><time>2026-04-04T16:25:27.184Z</time></trkpt><trkpt lat="39.9323096" lon="18.0469713"><ele>-1.0</ele><time>2026-04-04T16:25:28.183Z</time></trkpt><trkpt lat="39.932466" lon="18.0470016"><ele>-1.0</ele><time>2026-04-04T16:25:29.186Z</time></trkpt><trkpt lat="39.9326214" lon="18.04703"><ele>-1.6666666666666665</ele><time>2026-04-04T16:25:30.184Z</time></trkpt><trkpt lat="39.9327757" lon="18.0470529"><ele>-2.3333333333333335</ele><time>2026-04-04T16:25:31.185Z</time></trkpt><trkpt lat="39.9329334" lon="18.0470764"><ele>-3.0</ele><time>2026-04-04T16:25:32.184Z</time></trkpt><trkpt lat="39.9330892" lon="18.0470756"><ele>-3.0</ele><time>2026-04-04T16:25:33.184Z</time></trkpt><trkpt lat="39.9332464" lon="18.0470634"><ele>-3.0</ele><time>2026-04-04T16:25:34.185Z</time></trkpt><trkpt lat="39.9334006" lon="18.0470345"><ele>-3.0</ele><time>2026-04-04T16:25:35.184Z</time></trkpt><trkpt lat="39.9335531" lon="18.0469872"><ele>-3.0</ele><time>2026-04-04T16:25:36.183Z</time></trkpt><trkpt lat="39.9336989" lon="18.0469291"><ele>-3.0</ele><time>2026-04-04T16:25:37.184Z</time></trkpt><trkpt lat="39.933842" lon="18.046858"><ele>-3.0</ele><time>2026-04-04T16:25:38.185Z</time></trkpt><trkpt lat="39.9339699" lon="18.0467764"><ele>-3.0</ele><time>2026-04-04T16:25:39.184Z</time></trkpt><trkpt lat="39.9340907" lon="18.0466944"><ele>-2.5</ele><time>2026-04-04T16:25:40.184Z</time></trkpt><trkpt lat="39.934204" lon="18.0466184"><ele>-2.0</ele><time>2026-04-04T16:25:41.185Z</time></trkpt><trkpt lat="39.9343161" lon="18.0465437"><ele>-1.5</ele><time>2026-04-04T16:25:42.186Z</time></trkpt><trkpt lat="39.9344289" lon="18.0464719"><ele>-1.0</ele><time>2026-04-04T16:25:43.184Z</time></trkpt><trkpt lat="39.9345401" lon="18.0464005"><ele>-1.0</ele><time>2026-04-04T16:25:44.184Z</time></trkpt><trkpt lat="39.9346557" lon="18.0463267"><ele>-1.0</ele><time>2026-04-04T16:25:45.184Z</time></trkpt><trkpt lat="39.934768" lon="18.0462525"><ele>-1.0</ele><time>2026-04-04T16:25:46.185Z</time></trkpt><trkpt lat="39.9348844" lon="18.0461751"><ele>-1.0</ele><time>2026-04-04T16:25:47.185Z</time></trkpt><trkpt lat="39.9349951" lon="18.0460902"><ele>-0.75</ele><time>2026-04-04T16:25:48.185Z</time></trkpt><trkpt lat="39.9351101" lon="18.0460168"><ele>-0.5</ele><time>2026-04-04T16:25:49.185Z</time></trkpt><trkpt lat="39.9352254" lon="18.0459389"><ele>-0.25</ele><time>2026-04-04T16:25:50.185Z</time></trkpt><trkpt lat="39.9353384" lon="18.0458593"><ele>0.0</ele><time>2026-04-04T16:25:51.186Z</time></trkpt><trkpt lat="39.9354552" lon="18.0457823"><ele>0.0</ele><time>2026-04-04T16:25:52.184Z</time></trkpt><trkpt lat="39.9355674" lon="18.0457095"><ele>0.0</ele><time>2026-04-04T16:25:53.184Z</time></trkpt><trkpt lat="39.9356817" lon="18.0456356"><ele>0.0</ele><time>2026-04-04T16:25:54.184Z</time></trkpt><trkpt lat="39.9357889" lon="18.04557"><ele>0.0</ele><time>2026-04-04T16:25:55.183Z</time></trkpt><trkpt lat="39.9358925" lon="18.0455064"><ele>0.0</ele><time>2026-04-04T16:25:56.185Z</time></trkpt><trkpt lat="39.935987" lon="18.0454437"><ele>0.0</ele><time>2026-04-04T16:25:57.184Z</time></trkpt><trkpt lat="39.9360808" lon="18.0453806"><ele>0.0</ele><time>2026-04-04T16:25:58.184Z</time></trkpt><trkpt lat="39.9361823" lon="18.0453176"><ele>0.0</ele><time>2026-04-04T16:25:59.184Z</time></trkpt><trkpt lat="39.9362853" lon="18.0452535"><ele>0.0</ele><time>2026-04-04T16:26:00.184Z</time></trkpt><trkpt lat="39.9363954" lon="18.0451841"><ele>0.0</ele><time>2026-04-04T16:26:01.184Z</time></trkpt><trkpt lat="39.936503" lon="18.0451114"><ele>0.0</ele><time>2026-04-04T16:26:02.185Z</time></trkpt><trkpt lat="39.9366086" lon="18.045038"><ele>0.0</ele><time>2026-04-04T16:26:03.185Z</time></trkpt><trkpt lat="39.9367158" lon="18.044975"><ele>0.0</ele><time>2026-04-04T16:26:04.184Z</time></trkpt><trkpt lat="39.9368208" lon="18.0449134"><ele>0.5</ele><time>2026-04-04T16:26:05.185Z</time></trkpt><trkpt lat="39.9369224" lon="18.0448517"><ele>1.0</ele><time>2026-04-04T16:26:06.186Z</time></trkpt><trkpt lat="39.9370244" lon="18.0447877"><ele>1.5</ele><time>2026-04-04T16:26:07.185Z</time></trkpt><trkpt lat="39.9371264" lon="18.0447113"><ele>2.0</ele><time>2026-04-04T16:26:08.184Z</time></trkpt><trkpt lat="39.937232" lon="18.0446392"><ele>2.0</ele><time>2026-04-04T16:26:09.183Z</time></trkpt><trkpt lat="39.9373534" lon="18.0445575"><ele>2.0</ele><time>2026-04-04T16:26:10.185Z</time></trkpt><trkpt lat="39.9374824" lon="18.044466"><ele>2.0</ele><time>2026-04-04T16:26:11.184Z</time></trkpt><trkpt lat="39.9376273" lon="18.0443692"><ele>2.0</ele><time>2026-04-04T16:26:12.185Z</time></trkpt><trkpt lat="39.937769" lon="18.0442701"><ele>2.6666666666666665</ele><time>2026-04-04T16:26:13.183Z</time></trkpt><trkpt lat="39.9379115" lon="18.0441756"><ele>3.333333333333333</ele><time>2026-04-04T16:26:14.184Z</time></trkpt><trkpt lat="39.9380506" lon="18.0440798"><ele>4.0</ele><time>2026-04-04T16:26:15.184Z</time></trkpt><trkpt lat="39.9381992" lon="18.0439791"><ele>4.0</ele><time>2026-04-04T16:26:16.185Z</time></trkpt><trkpt lat="39.9383543" lon="18.0438755"><ele>4.0</ele><time>2026-04-04T16:26:17.185Z</time></trkpt><trkpt lat="39.9385152" lon="18.0437721"><ele>4.0</ele><time>2026-04-04T16:26:18.185Z</time></trkpt><trkpt lat="39.9386813" lon="18.0436554"><ele>4.666666666666666</ele><time>2026-04-04T16:26:19.185Z</time></trkpt><trkpt lat="39.938841" lon="18.043554"><ele>5.333333333333333</ele><time>2026-04-04T16:26:20.185Z</time></trkpt><trkpt lat="39.9390019" lon="18.0434619"><ele>6.0</ele><time>2026-04-04T16:26:21.184Z</time></trkpt><trkpt lat="39.9391598" lon="18.0433574"><ele>6.0</ele><time>2026-04-04T16:26:22.183Z</time></trkpt><trkpt lat="39.9393126" lon="18.0432404"><ele>6.0</ele><time>2026-04-04T16:26:23.184Z</time></trkpt><trkpt lat="39.9394605" lon="18.0431106"><ele>6.0</ele><time>2026-04-04T16:26:24.185Z</time></trkpt><trkpt lat="39.939607" lon="18.0429721"><ele>6.0</ele><time>2026-04-04T16:26:25.184Z</time></trkpt><trkpt lat="39.9397505" lon="18.0428272"><ele>6.0</ele><time>2026-04-04T16:26:26.183Z</time></trkpt><trkpt lat="39.9398967" lon="18.0426768"><ele>6.0</ele><time>2026-04-04T16:26:27.183Z</time></trkpt><trkpt lat="39.9400321" lon="18.0425313"><ele>6.333333333333334</ele><time>2026-04-04T16:26:28.185Z</time></trkpt><trkpt lat="39.9401696" lon="18.0423908"><ele>6.666666666666667</ele><time>2026-04-04T16:26:29.184Z</time></trkpt><trkpt lat="39.9403026" lon="18.0422378"><ele>7.0</ele><time>2026-04-04T16:26:30.183Z</time></trkpt><trkpt lat="39.9404393" lon="18.0420819"><ele>7.0</ele><time>2026-04-04T16:26:31.185Z</time></trkpt><trkpt lat="39.9405845" lon="18.0419383"><ele>7.0</ele><time>2026-04-04T16:26:32.184Z</time></trkpt><trkpt lat="39.9407339" lon="18.0418001"><ele>7.0</ele><time>2026-04-04T16:26:33.184Z</time></trkpt><trkpt lat="39.9408806" lon="18.0416605"><ele>7.333333333333334</ele><time>2026-04-04T16:26:34.183Z</time></trkpt><trkpt lat="39.9410249" lon="18.0415145"><ele>7.666666666666666</ele><time>2026-04-04T16:26:35.184Z</time></trkpt><trkpt lat="39.9411664" lon="18.0413675"><ele>8.0</ele><time>2026-04-04T16:26:36.185Z</time></trkpt><trkpt lat="39.9413017" lon="18.0412249"><ele>8.0</ele><time>2026-04-04T16:26:37.184Z</time></trkpt><trkpt lat="39.9414356" lon="18.041085"><ele>8.0</ele><time>2026-04-04T16:26:38.185Z</time></trkpt><trkpt lat="39.9415625" lon="18.0409449"><ele>8.0</ele><time>2026-04-04T16:26:39.184Z</time></trkpt><trkpt lat="39.9416914" lon="18.0408124"><ele>8.0</ele><time>2026-04-04T16:26:40.185Z</time></trkpt><trkpt lat="39.9418107" lon="18.0406909"><ele>8.0</ele><time>2026-04-04T16:26:41.185Z</time></trkpt><trkpt lat="39.9419264" lon="18.040571"><ele>8.0</ele><time>2026-04-04T16:26:42.185Z</time></trkpt><trkpt lat="39.9420349" lon="18.0404637"><ele>8.0</ele><time>2026-04-04T16:26:43.185Z</time></trkpt><trkpt lat="39.942124" lon="18.0403706"><ele>8.0</ele><time>2026-04-04T16:26:44.184Z</time></trkpt><trkpt lat="39.9422052" lon="18.0402856"><ele>8.0</ele><time>2026-04-04T16:26:45.185Z</time></trkpt><trkpt lat="39.9422816" lon="18.0402043"><ele>8.0</ele><time>2026-04-04T16:26:46.185Z</time></trkpt><trkpt lat="39.942348" lon="18.0401341"><ele>8.0</ele><time>2026-04-04T16:26:47.183Z</time></trkpt><trkpt lat="39.942403" lon="18.0400804"><ele>8.0</ele><time>2026-04-04T16:26:48.183Z</time></trkpt><trkpt lat="39.9424837" lon="18.0399953"><ele>7.999999999999999</ele><time>2026-04-04T16:26:50.186Z</time></trkpt><trkpt lat="39.9425353" lon="18.0399411"><ele>8.0</ele><time>2026-04-04T16:26:52.185Z</time></trkpt><trkpt lat="39.9426083" lon="18.0398689"><ele>8.0</ele><time>2026-04-04T16:26:54.184Z</time></trkpt><trkpt lat="39.9426591" lon="18.039816"><ele>8.0</ele><time>2026-04-04T16:26:55.183Z</time></trkpt><trkpt lat="39.9427164" lon="18.0397561"><ele>7.999999999999999</ele><time>2026-04-04T16:26:56.184Z</time></trkpt><trkpt lat="39.9427753" lon="18.0396963"><ele>8.0</ele><time>2026-04-04T16:26:57.185Z</time></trkpt><trkpt lat="39.9428373" lon="18.0396285"><ele>8.0</ele><time>2026-04-04T16:26:58.184Z</time></trkpt><trkpt lat="39.9429056" lon="18.0395602"><ele>8.0</ele><time>2026-04-04T16:26:59.184Z</time></trkpt><trkpt lat="39.9429746" lon="18.0394868"><ele>8.0</ele><time>2026-04-04T16:27:00.185Z</time></trkpt><trkpt lat="39.943046" lon="18.0394075"><ele>8.0</ele><time>2026-04-04T16:27:01.184Z</time></trkpt><trkpt lat="39.9431289" lon="18.0393167"><ele>8.0</ele><time>2026-04-04T16:27:02.184Z</time></trkpt><trkpt lat="39.9432214" lon="18.0392065"><ele>7.75</ele><time>2026-04-04T16:27:03.184Z</time></trkpt><trkpt lat="39.9433173" lon="18.0391038"><ele>7.5</ele><time>2026-04-04T16:27:04.184Z</time></trkpt><trkpt lat="39.9434185" lon="18.0390053"><ele>7.25</ele><time>2026-04-04T16:27:05.184Z</time></trkpt><trkpt lat="39.943522" lon="18.0389121"><ele>7.0</ele><time>2026-04-04T16:27:06.184Z</time></trkpt><trkpt lat="39.9436196" lon="18.0388065"><ele>7.5</ele><time>2026-04-04T16:27:07.183Z</time></trkpt><trkpt lat="39.9437219" lon="18.0387095"><ele>8.0</ele><time>2026-04-04T16:27:08.184Z</time></trkpt><trkpt lat="39.9438267" lon="18.0386029"><ele>8.5</ele><time>2026-04-04T16:27:09.184Z</time></trkpt><trkpt lat="39.9439363" lon="18.0384914"><ele>9.0</ele><time>2026-04-04T16:27:10.185Z</time></trkpt><trkpt lat="39.9440521" lon="18.0383726"><ele>9.0</ele><time>2026-04-04T16:27:11.185Z</time></trkpt><trkpt lat="39.9441641" lon="18.038251"><ele>9.0</ele><time>2026-04-04T16:27:12.184Z</time></trkpt><trkpt lat="39.9442782" lon="18.0381279"><ele>9.0</ele><time>2026-04-04T16:27:13.183Z</time></trkpt><trkpt lat="39.9443917" lon="18.0380069"><ele>9.0</ele><time>2026-04-04T16:27:14.184Z</time></trkpt><trkpt lat="39.944507" lon="18.0378909"><ele>9.0</ele><time>2026-04-04T16:27:15.184Z</time></trkpt><trkpt lat="39.9446179" lon="18.0377743"><ele>9.0</ele><time>2026-04-04T16:27:16.186Z</time></trkpt><trkpt lat="39.9447243" lon="18.0376637"><ele>9.0</ele><time>2026-04-04T16:27:17.184Z</time></trkpt><trkpt lat="39.9448294" lon="18.0375546"><ele>9.0</ele><time>2026-04-04T16:27:18.183Z</time></trkpt><trkpt lat="39.9449373" lon="18.0374433"><ele>9.0</ele><time>2026-04-04T16:27:19.184Z</time></trkpt><trkpt lat="39.9450391" lon="18.0373414"><ele>9.0</ele><time>2026-04-04T16:27:20.186Z</time></trkpt><trkpt lat="39.9451312" lon="18.0372445"><ele>9.0</ele><time>2026-04-04T16:27:21.184Z</time></trkpt><trkpt lat="39.9452168" lon="18.0371606"><ele>9.0</ele><time>2026-04-04T16:27:22.185Z</time></trkpt><trkpt lat="39.9452798" lon="18.0370915"><ele>9.0</ele><time>2026-04-04T16:27:23.185Z</time></trkpt><trkpt lat="39.9453404" lon="18.0370257"><ele>9.0</ele><time>2026-04-04T16:27:24.183Z</time></trkpt><trkpt lat="39.9454025" lon="18.0369598"><ele>9.0</ele><time>2026-04-04T16:27:25.185Z</time></trkpt><trkpt lat="39.945468" lon="18.0368948"><ele>9.0</ele><time>2026-04-04T16:27:26.183Z</time></trkpt><trkpt lat="39.9455362" lon="18.0368248"><ele>9.0</ele><time>2026-04-04T16:27:27.185Z</time></trkpt><trkpt lat="39.9456125" lon="18.0367416"><ele>9.0</ele><time>2026-04-04T16:27:28.183Z</time></trkpt><trkpt lat="39.9457001" lon="18.0366526"><ele>8.75</ele><time>2026-04-04T16:27:29.184Z</time></trkpt><trkpt lat="39.9457974" lon="18.0365502"><ele>8.5</ele><time>2026-04-04T16:27:30.186Z</time></trkpt><trkpt lat="39.9458983" lon="18.0364431"><ele>8.25</ele><time>2026-04-04T16:27:31.185Z</time></trkpt><trkpt lat="39.9460091" lon="18.0363306"><ele>8.0</ele><time>2026-04-04T16:27:32.186Z</time></trkpt><trkpt lat="39.9461229" lon="18.0362122"><ele>8.0</ele><time>2026-04-04T16:27:33.184Z</time></trkpt><trkpt lat="39.9462416" lon="18.03609"><ele>8.0</ele><time>2026-04-04T16:27:34.183Z</time></trkpt><trkpt lat="39.9463627" lon="18.0359621"><ele>8.0</ele><time>2026-04-04T16:27:35.184Z</time></trkpt><trkpt lat="39.9464863" lon="18.0358279"><ele>7.333333333333333</ele><time>2026-04-04T16:27:36.184Z</time></trkpt><trkpt lat="39.946607" lon="18.0356972"><ele>6.666666666666666</ele><time>2026-04-04T16:27:37.185Z</time></trkpt><trkpt lat="39.9467421" lon="18.0355588"><ele>6.0</ele><time>2026-04-04T16:27:38.185Z</time></trkpt><trkpt lat="39.9468729" lon="18.0354186"><ele>6.0</ele><time>2026-04-04T16:27:39.185Z</time></trkpt><trkpt lat="39.9470071" lon="18.0352811"><ele>6.0</ele><time>2026-04-04T16:27:40.186Z</time></trkpt><trkpt lat="39.9471388" lon="18.0351512"><ele>6.0</ele><time>2026-04-04T16:27:41.184Z</time></trkpt><trkpt lat="39.9472698" lon="18.0350164"><ele>5.666666666666667</ele><time>2026-04-04T16:27:42.184Z</time></trkpt><trkpt lat="39.9473992" lon="18.0348798"><ele>5.333333333333334</ele><time>2026-04-04T16:27:43.183Z</time></trkpt><trkpt lat="39.9475299" lon="18.0347385"><ele>5.0</ele><time>2026-04-04T16:27:44.184Z</time></trkpt><trkpt lat="39.9476629" lon="18.0346065"><ele>5.0</ele><time>2026-04-04T16:27:45.184Z</time></trkpt><trkpt lat="39.9477935" lon="18.0344751"><ele>5.0</ele><time>2026-04-04T16:27:46.184Z</time></trkpt><trkpt lat="39.9479203" lon="18.0343536"><ele>5.0</ele><time>2026-04-04T16:27:47.183Z</time></trkpt><trkpt lat="39.9480505" lon="18.0342368"><ele>4.0</ele><time>2026-04-04T16:27:48.185Z</time></trkpt><trkpt lat="39.9481824" lon="18.0341343"><ele>3.0</ele><time>2026-04-04T16:27:49.185Z</time></trkpt><trkpt lat="39.9483187" lon="18.0340473"><ele>2.0</ele><time>2026-04-04T16:27:50.184Z</time></trkpt><trkpt lat="39.9484656" lon="18.0339742"><ele>2.0</ele><time>2026-04-04T16:27:51.184Z</time></trkpt><trkpt lat="39.9486182" lon="18.0339159"><ele>2.0</ele><time>2026-04-04T16:27:52.184Z</time></trkpt><trkpt lat="39.9487639" lon="18.0338619"><ele>2.0</ele><time>2026-04-04T16:27:53.184Z</time></trkpt><trkpt lat="39.9489105" lon="18.0338142"><ele>2.0</ele><time>2026-04-04T16:27:54.184Z</time></trkpt><trkpt lat="39.9490532" lon="18.0337707"><ele>2.0</ele><time>2026-04-04T16:27:55.185Z</time></trkpt><trkpt lat="39.9491871" lon="18.0337215"><ele>2.0</ele><time>2026-04-04T16:27:56.186Z</time></trkpt><trkpt lat="39.9493154" lon="18.0336655"><ele>2.0</ele><time>2026-04-04T16:27:57.183Z</time></trkpt><trkpt lat="39.9494354" lon="18.0335978"><ele>3.0</ele><time>2026-04-04T16:27:58.184Z</time></trkpt><trkpt lat="39.9495509" lon="18.0335157"><ele>4.0</ele><time>2026-04-04T16:27:59.184Z</time></trkpt><trkpt lat="39.949661" lon="18.03343"><ele>5.0</ele><time>2026-04-04T16:28:00.185Z</time></trkpt><trkpt lat="39.9497649" lon="18.0333384"><ele>6.0</ele><time>2026-04-04T16:28:01.184Z</time></trkpt><trkpt lat="39.9498586" lon="18.0332387"><ele>6.0</ele><time>2026-04-04T16:28:02.184Z</time></trkpt><trkpt lat="39.9499407" lon="18.0331352"><ele>6.0</ele><time>2026-04-04T16:28:03.184Z</time></trkpt><trkpt lat="39.9500126" lon="18.0330368"><ele>6.0</ele><time>2026-04-04T16:28:04.185Z</time></trkpt><trkpt lat="39.9500695" lon="18.0329447"><ele>6.0</ele><time>2026-04-04T16:28:05.183Z</time></trkpt><trkpt lat="39.9501144" lon="18.0328674"><ele>6.0</ele><time>2026-04-04T16:28:06.185Z</time></trkpt><trkpt lat="39.9501824" lon="18.0327588"><ele>6.0</ele><time>2026-04-04T16:28:08.184Z</time></trkpt><trkpt lat="39.9502614" lon="18.0326915"><ele>6.0</ele><time>2026-04-04T16:28:10.186Z</time></trkpt><trkpt lat="39.9503638" lon="18.032681"><ele>6.0</ele><time>2026-04-04T16:28:12.186Z</time></trkpt><trkpt lat="39.9504574" lon="18.0326214"><ele>6.0</ele><time>2026-04-04T16:28:14.185Z</time></trkpt><trkpt lat="39.9505213" lon="18.0325188"><ele>6.0</ele><time>2026-04-04T16:28:16.183Z</time></trkpt><trkpt lat="39.9505786" lon="18.032466"><ele>6.0</ele><time>2026-04-04T16:28:17.183Z</time></trkpt><trkpt lat="39.9506537" lon="18.0324228"><ele>6.0</ele><time>2026-04-04T16:28:18.185Z</time></trkpt><trkpt lat="39.9507509" lon="18.0323836"><ele>6.0</ele><time>2026-04-04T16:28:19.186Z</time></trkpt><trkpt lat="39.9508536" lon="18.0323558"><ele>6.0</ele><time>2026-04-04T16:28:20.183Z</time></trkpt><trkpt lat="39.9509612" lon="18.0323254"><ele>6.0</ele><time>2026-04-04T16:28:21.183Z</time></trkpt><trkpt lat="39.9510804" lon="18.0322993"><ele>6.0</ele><time>2026-04-04T16:28:22.186Z</time></trkpt><trkpt lat="39.9512023" lon="18.0322656"><ele>6.0</ele><time>2026-04-04T16:28:23.185Z</time></trkpt><trkpt lat="39.9513333" lon="18.0322297"><ele>6.0</ele><time>2026-04-04T16:28:24.186Z</time></trkpt><trkpt lat="39.9514686" lon="18.0321927"><ele>6.0</ele><time>2026-04-04T16:28:25.183Z</time></trkpt><trkpt lat="39.9516104" lon="18.0321502"><ele>6.333333333333334</ele><time>2026-04-04T16:28:26.186Z</time></trkpt><trkpt lat="39.9517583" lon="18.0321113"><ele>6.666666666666667</ele><time>2026-04-04T16:28:27.185Z</time></trkpt><trkpt lat="39.9519089" lon="18.0320711"><ele>7.0</ele><time>2026-04-04T16:28:28.184Z</time></trkpt><trkpt lat="39.952062" lon="18.0320339"><ele>7.0</ele><time>2026-04-04T16:28:29.186Z</time></trkpt><trkpt lat="39.9522212" lon="18.0319867"><ele>7.0</ele><time>2026-04-04T16:28:30.185Z</time></trkpt><trkpt lat="39.9523831" lon="18.0319424"><ele>7.0</ele><time>2026-04-04T16:28:31.183Z</time></trkpt><trkpt lat="39.9525465" lon="18.0319"><ele>7.0</ele><time>2026-04-04T16:28:32.184Z</time></trkpt><trkpt lat="39.9527098" lon="18.0318514"><ele>7.0</ele><time>2026-04-04T16:28:33.184Z</time></trkpt><trkpt lat="39.9528723" lon="18.0317962"><ele>7.0</ele><time>2026-04-04T16:28:34.184Z</time></trkpt><trkpt lat="39.9530332" lon="18.0317517"><ele>7.0</ele><time>2026-04-04T16:28:35.183Z</time></trkpt><trkpt lat="39.9531938" lon="18.0317071"><ele>7.0</ele><time>2026-04-04T16:28:36.185Z</time></trkpt><trkpt lat="39.9533453" lon="18.0316552"><ele>7.0</ele><time>2026-04-04T16:28:37.184Z</time></trkpt><trkpt lat="39.9535047" lon="18.0316163"><ele>6.0</ele><time>2026-04-04T16:28:38.185Z</time></trkpt><trkpt lat="39.9536647" lon="18.0315808"><ele>5.0</ele><time>2026-04-04T16:28:39.185Z</time></trkpt><trkpt lat="39.953818" lon="18.0315472"><ele>4.0</ele><time>2026-04-04T16:28:40.183Z</time></trkpt><trkpt lat="39.9539622" lon="18.0315186"><ele>4.0</ele><time>2026-04-04T16:28:41.185Z</time></trkpt><trkpt lat="39.9541007" lon="18.0314873"><ele>4.0</ele><time>2026-04-04T16:28:42.185Z</time></trkpt><trkpt lat="39.9542219" lon="18.0314591"><ele>4.0</ele><time>2026-04-04T16:28:43.184Z</time></trkpt><trkpt lat="39.9543349" lon="18.0314369"><ele>4.0</ele><time>2026-04-04T16:28:44.185Z</time></trkpt><trkpt lat="39.9544434" lon="18.0314124"><ele>4.2</ele><time>2026-04-04T16:28:45.185Z</time></trkpt><trkpt lat="39.9545369" lon="18.0313933"><ele>4.4</ele><time>2026-04-04T16:28:46.183Z</time></trkpt><trkpt lat="39.9546302" lon="18.0313731"><ele>4.6</ele><time>2026-04-04T16:28:47.184Z</time></trkpt><trkpt lat="39.9547261" lon="18.0313495"><ele>4.8</ele><time>2026-04-04T16:28:48.184Z</time></trkpt><trkpt lat="39.954837" lon="18.0313211"><ele>5.0</ele><time>2026-04-04T16:28:49.183Z</time></trkpt><trkpt lat="39.9549603" lon="18.0312819"><ele>5.5</ele><time>2026-04-04T16:28:50.186Z</time></trkpt><trkpt lat="39.9550826" lon="18.0312514"><ele>6.0</ele><time>2026-04-04T16:28:51.184Z</time></trkpt><trkpt lat="39.9551953" lon="18.0312267"><ele>6.5</ele><time>2026-04-04T16:28:52.184Z</time></trkpt><trkpt lat="39.9553013" lon="18.0312072"><ele>7.0</ele><time>2026-04-04T16:28:53.183Z</time></trkpt><trkpt lat="39.9554048" lon="18.0311884"><ele>7.0</ele><time>2026-04-04T16:28:54.185Z</time></trkpt><trkpt lat="39.9555095" lon="18.0311669"><ele>6.999999999999999</ele><time>2026-04-04T16:28:55.183Z</time></trkpt><trkpt lat="39.9556096" lon="18.031149"><ele>6.999999999999999</ele><time>2026-04-04T16:28:56.185Z</time></trkpt><trkpt lat="39.9557024" lon="18.0311313"><ele>7.0</ele><time>2026-04-04T16:28:57.185Z</time></trkpt><trkpt lat="39.955786" lon="18.0311153"><ele>7.0</ele><time>2026-04-04T16:28:58.186Z</time></trkpt><trkpt lat="39.9558711" lon="18.0310932"><ele>6.833333333333334</ele><time>2026-04-04T16:28:59.183Z</time></trkpt><trkpt lat="39.9559491" lon="18.0310749"><ele>6.666666666666667</ele><time>2026-04-04T16:29:00.183Z</time></trkpt><trkpt lat="39.9560328" lon="18.0310595"><ele>6.5</ele><time>2026-04-04T16:29:01.184Z</time></trkpt><trkpt lat="39.9561181" lon="18.0310232"><ele>6.333333333333334</ele><time>2026-04-04T16:29:02.185Z</time></trkpt><trkpt lat="39.9561957" lon="18.0309989"><ele>6.166666666666667</ele><time>2026-04-04T16:29:03.184Z</time></trkpt><trkpt lat="39.9562651" lon="18.0309837"><ele>6.0</ele><time>2026-04-04T16:29:05.183Z</time></trkpt><trkpt lat="39.9563306" lon="18.0309739"><ele>6.0</ele><time>2026-04-04T16:29:10.185Z</time></trkpt><trkpt lat="39.9564023" lon="18.0309777"><ele>6.0</ele><time>2026-04-04T16:29:12.183Z</time></trkpt><trkpt lat="39.9565196" lon="18.0309527"><ele>6.0</ele><time>2026-04-04T16:29:14.185Z</time></trkpt><trkpt lat="39.9566247" lon="18.030933"><ele>6.0</ele><time>2026-04-04T16:29:16.185Z</time></trkpt><trkpt lat="39.9567525" lon="18.0308798"><ele>6.0</ele><time>2026-04-04T16:29:18.184Z</time></trkpt><trkpt lat="39.9568485" lon="18.0308602"><ele>6.0</ele><time>2026-04-04T16:29:19.183Z</time></trkpt><trkpt lat="39.9569532" lon="18.0308478"><ele>6.0</ele><time>2026-04-04T16:29:20.185Z</time></trkpt><trkpt lat="39.9570681" lon="18.0308333"><ele>6.0</ele><time>2026-04-04T16:29:21.184Z</time></trkpt><trkpt lat="39.9571892" lon="18.0308086"><ele>6.0</ele><time>2026-04-04T16:29:22.184Z</time></trkpt><trkpt lat="39.957296" lon="18.0307858"><ele>6.0</ele><time>2026-04-04T16:29:23.184Z</time></trkpt><trkpt lat="39.9573626" lon="18.0307735"><ele>6.0</ele><time>2026-04-04T16:29:24.186Z</time></trkpt><trkpt lat="39.9574858" lon="18.030737"><ele>6.0</ele><time>2026-04-04T16:29:26.183Z</time></trkpt><trkpt lat="39.9575472" lon="18.0306882"><ele>6.0</ele><time>2026-04-04T16:29:27.186Z</time></trkpt><trkpt lat="39.9576008" lon="18.0306373"><ele>6.0</ele><time>2026-04-04T16:29:28.185Z</time></trkpt><trkpt lat="39.9576395" lon="18.0305055"><ele>6.0</ele><time>2026-04-04T16:29:30.184Z</time></trkpt><trkpt lat="39.957626" lon="18.0304127"><ele>6.0</ele><time>2026-04-04T16:29:31.184Z</time></trkpt><trkpt lat="39.9576049" lon="18.0303079"><ele>6.0</ele><time>2026-04-04T16:29:32.184Z</time></trkpt><trkpt lat="39.9576006" lon="18.0301974"><ele>6.0</ele><time>2026-04-04T16:29:33.185Z</time></trkpt><trkpt lat="39.9576144" lon="18.0300805"><ele>6.0</ele><time>2026-04-04T16:29:34.186Z</time></trkpt><trkpt lat="39.9576663" lon="18.0299772"><ele>6.0</ele><time>2026-04-04T16:29:35.185Z</time></trkpt><trkpt lat="39.9577354" lon="18.0298818"><ele>5.25</ele><time>2026-04-04T16:29:36.184Z</time></trkpt><trkpt lat="39.9578183" lon="18.0297755"><ele>4.5</ele><time>2026-04-04T16:29:37.185Z</time></trkpt><trkpt lat="39.9579097" lon="18.029658"><ele>3.75</ele><time>2026-04-04T16:29:38.185Z</time></trkpt><trkpt lat="39.9580109" lon="18.0295388"><ele>3.0</ele><time>2026-04-04T16:29:39.185Z</time></trkpt><trkpt lat="39.9581247" lon="18.029428"><ele>3.0</ele><time>2026-04-04T16:29:40.184Z</time></trkpt><trkpt lat="39.9582352" lon="18.0293178"><ele>3.0</ele><time>2026-04-04T16:29:41.183Z</time></trkpt><trkpt lat="39.9583497" lon="18.029202"><ele>3.0</ele><time>2026-04-04T16:29:42.184Z</time></trkpt><trkpt lat="39.9584609" lon="18.0290836"><ele>3.0</ele><time>2026-04-04T16:29:43.185Z</time></trkpt><trkpt lat="39.9585735" lon="18.0289701"><ele>2.75</ele><time>2026-04-04T16:29:44.184Z</time></trkpt><trkpt lat="39.9586844" lon="18.0288489"><ele>2.5</ele><time>2026-04-04T16:29:45.183Z</time></trkpt><trkpt lat="39.9587962" lon="18.0287219"><ele>2.25</ele><time>2026-04-04T16:29:46.183Z</time></trkpt><trkpt lat="39.958907" lon="18.0285864"><ele>2.0</ele><time>2026-04-04T16:29:47.184Z</time></trkpt><trkpt lat="39.9590272" lon="18.0284455"><ele>2.0</ele><time>2026-04-04T16:29:48.185Z</time></trkpt><trkpt lat="39.9591586" lon="18.0283038"><ele>2.0</ele><time>2026-04-04T16:29:49.184Z</time></trkpt><trkpt lat="39.9592964" lon="18.0281679"><ele>2.0</ele><time>2026-04-04T16:29:50.185Z</time></trkpt><trkpt lat="39.9594397" lon="18.0280426"><ele>2.0</ele><time>2026-04-04T16:29:51.184Z</time></trkpt><trkpt lat="39.95959" lon="18.0279326"><ele>2.0</ele><time>2026-04-04T16:29:52.184Z</time></trkpt><trkpt lat="39.9597529" lon="18.0278413"><ele>2.0</ele><time>2026-04-04T16:29:53.184Z</time></trkpt><trkpt lat="39.9599235" lon="18.0277778"><ele>1.6666666666666665</ele><time>2026-04-04T16:29:54.185Z</time></trkpt><trkpt lat="39.9600992" lon="18.0277473"><ele>1.3333333333333333</ele><time>2026-04-04T16:29:55.184Z</time></trkpt><trkpt lat="39.9602779" lon="18.0277533"><ele>1.0</ele><time>2026-04-04T16:29:56.184Z</time></trkpt><trkpt lat="39.9604564" lon="18.0277756"><ele>1.0</ele><time>2026-04-04T16:29:57.184Z</time></trkpt><trkpt lat="39.9606387" lon="18.0278064"><ele>1.0</ele><time>2026-04-04T16:29:58.185Z</time></trkpt><trkpt lat="39.9608175" lon="18.0278372"><ele>1.0</ele><time>2026-04-04T16:29:59.186Z</time></trkpt><trkpt lat="39.9609884" lon="18.0278711"><ele>2.0</ele><time>2026-04-04T16:30:00.184Z</time></trkpt><trkpt lat="39.9611501" lon="18.027891"><ele>3.0</ele><time>2026-04-04T16:30:01.184Z</time></trkpt><trkpt lat="39.9613112" lon="18.0278795"><ele>4.0</ele><time>2026-04-04T16:30:02.184Z</time></trkpt><trkpt lat="39.9614662" lon="18.0278209"><ele>4.0</ele><time>2026-04-04T16:30:03.184Z</time></trkpt><trkpt lat="39.961609" lon="18.0277373"><ele>4.0</ele><time>2026-04-04T16:30:04.186Z</time></trkpt><trkpt lat="39.9617175" lon="18.027587"><ele>4.0</ele><time>2026-04-04T16:30:05.184Z</time></trkpt><trkpt lat="39.9618371" lon="18.0274449"><ele>4.0</ele><time>2026-04-04T16:30:06.185Z</time></trkpt><trkpt lat="39.9619637" lon="18.0273046"><ele>4.0</ele><time>2026-04-04T16:30:07.186Z</time></trkpt><trkpt lat="39.9620936" lon="18.027169"><ele>4.0</ele><time>2026-04-04T16:30:08.185Z</time></trkpt><trkpt lat="39.9622504" lon="18.027064"><ele>4.0</ele><time>2026-04-04T16:30:09.184Z</time></trkpt><trkpt lat="39.9623982" lon="18.0269565"><ele>4.0</ele><time>2026-04-04T16:30:10.186Z</time></trkpt><trkpt lat="39.9625615" lon="18.0268477"><ele>4.0</ele><time>2026-04-04T16:30:11.185Z</time></trkpt><trkpt lat="39.9627289" lon="18.026751"><ele>4.666666666666666</ele><time>2026-04-04T16:30:12.184Z</time></trkpt><trkpt lat="39.9628948" lon="18.0266514"><ele>5.333333333333333</ele><time>2026-04-04T16:30:13.185Z</time></trkpt><trkpt lat="39.9630588" lon="18.0265455"><ele>6.0</ele><time>2026-04-04T16:30:14.184Z</time></trkpt><trkpt lat="39.9632243" lon="18.026436"><ele>6.666666666666666</ele><time>2026-04-04T16:30:15.184Z</time></trkpt><trkpt lat="39.9633895" lon="18.0263263"><ele>7.333333333333333</ele><time>2026-04-04T16:30:16.186Z</time></trkpt><trkpt lat="39.9635562" lon="18.026204"><ele>8.0</ele><time>2026-04-04T16:30:17.184Z</time></trkpt><trkpt lat="39.9637185" lon="18.0260719"><ele>8.0</ele><time>2026-04-04T16:30:18.185Z</time></trkpt><trkpt lat="39.9638704" lon="18.0259223"><ele>8.0</ele><time>2026-04-04T16:30:19.185Z</time></trkpt><trkpt lat="39.964017" lon="18.0257703"><ele>8.0</ele><time>2026-04-04T16:30:20.185Z</time></trkpt><trkpt lat="39.9641627" lon="18.0256174"><ele>7.666666666666666</ele><time>2026-04-04T16:30:21.185Z</time></trkpt><trkpt lat="39.9643072" lon="18.0254637"><ele>7.333333333333334</ele><time>2026-04-04T16:30:22.184Z</time></trkpt><trkpt lat="39.964447" lon="18.0253131"><ele>7.0</ele><time>2026-04-04T16:30:23.184Z</time></trkpt><trkpt lat="39.9645886" lon="18.0251652"><ele>7.0</ele><time>2026-04-04T16:30:24.185Z</time></trkpt><trkpt lat="39.9647324" lon="18.0250146"><ele>7.0</ele><time>2026-04-04T16:30:25.183Z</time></trkpt><trkpt lat="39.9648758" lon="18.0248655"><ele>7.0</ele><time>2026-04-04T16:30:26.185Z</time></trkpt><trkpt lat="39.9650255" lon="18.0247293"><ele>8.333333333333334</ele><time>2026-04-04T16:30:27.184Z</time></trkpt><trkpt lat="39.9651845" lon="18.0246088"><ele>9.666666666666666</ele><time>2026-04-04T16:30:28.186Z</time></trkpt><trkpt lat="39.9653539" lon="18.0245104"><ele>11.0</ele><time>2026-04-04T16:30:29.183Z</time></trkpt><trkpt lat="39.9655187" lon="18.0244267"><ele>11.0</ele><time>2026-04-04T16:30:30.183Z</time></trkpt><trkpt lat="39.9656827" lon="18.0243444"><ele>11.0</ele><time>2026-04-04T16:30:31.184Z</time></trkpt><trkpt lat="39.9658394" lon="18.0242491"><ele>11.0</ele><time>2026-04-04T16:30:32.185Z</time></trkpt><trkpt lat="39.965995" lon="18.0241512"><ele>10.666666666666666</ele><time>2026-04-04T16:30:33.184Z</time></trkpt><trkpt lat="39.9661422" lon="18.0240407"><ele>10.333333333333334</ele><time>2026-04-04T16:30:34.183Z</time></trkpt><trkpt lat="39.9662872" lon="18.02392"><ele>10.0</ele><time>2026-04-04T16:30:35.185Z</time></trkpt><trkpt lat="39.9664301" lon="18.0237916"><ele>10.0</ele><time>2026-04-04T16:30:36.184Z</time></trkpt><trkpt lat="39.9665654" lon="18.0236609"><ele>10.0</ele><time>2026-04-04T16:30:37.186Z</time></trkpt><trkpt lat="39.9666981" lon="18.023536"><ele>10.0</ele><time>2026-04-04T16:30:38.183Z</time></trkpt><trkpt lat="39.9668111" lon="18.023421"><ele>9.8</ele><time>2026-04-04T16:30:39.186Z</time></trkpt><trkpt lat="39.9669148" lon="18.0233146"><ele>9.6</ele><time>2026-04-04T16:30:40.184Z</time></trkpt><trkpt lat="39.9670066" lon="18.0232186"><ele>9.4</ele><time>2026-04-04T16:30:41.184Z</time></trkpt><trkpt lat="39.9670851" lon="18.0231387"><ele>9.2</ele><time>2026-04-04T16:30:42.186Z</time></trkpt><trkpt lat="39.9671514" lon="18.0230651"><ele>9.0</ele><time>2026-04-04T16:30:43.185Z</time></trkpt><trkpt lat="39.9672274" lon="18.0229816"><ele>9.0</ele><time>2026-04-04T16:30:44.183Z</time></trkpt><trkpt lat="39.9673071" lon="18.0228977"><ele>9.0</ele><time>2026-04-04T16:30:45.185Z</time></trkpt><trkpt lat="39.9673828" lon="18.0228188"><ele>9.0</ele><time>2026-04-04T16:30:46.186Z</time></trkpt><trkpt lat="39.9674527" lon="18.0227482"><ele>9.0</ele><time>2026-04-04T16:30:47.184Z</time></trkpt><trkpt lat="39.9675156" lon="18.0226811"><ele>9.0</ele><time>2026-04-04T16:30:48.185Z</time></trkpt><trkpt lat="39.9675784" lon="18.0226137"><ele>9.0</ele><time>2026-04-04T16:30:49.184Z</time></trkpt><trkpt lat="39.9676373" lon="18.0225446"><ele>9.0</ele><time>2026-04-04T16:30:50.185Z</time></trkpt><trkpt lat="39.9677031" lon="18.022467"><ele>9.0</ele><time>2026-04-04T16:30:51.184Z</time></trkpt><trkpt lat="39.9677709" lon="18.0223974"><ele>9.0</ele><time>2026-04-04T16:30:52.183Z</time></trkpt><trkpt lat="39.9678435" lon="18.0223223"><ele>9.0</ele><time>2026-04-04T16:30:53.184Z</time></trkpt><trkpt lat="39.9679238" lon="18.0222362"><ele>9.0</ele><time>2026-04-04T16:30:54.184Z</time></trkpt><trkpt lat="39.9680117" lon="18.0221415"><ele>9.0</ele><time>2026-04-04T16:30:55.185Z</time></trkpt><trkpt lat="39.9680986" lon="18.0220466"><ele>9.0</ele><time>2026-04-04T16:30:56.185Z</time></trkpt><trkpt lat="39.9681899" lon="18.0219497"><ele>9.0</ele><time>2026-04-04T16:30:57.184Z</time></trkpt><trkpt lat="39.9682823" lon="18.0218472"><ele>9.2</ele><time>2026-04-04T16:30:58.183Z</time></trkpt><trkpt lat="39.968373" lon="18.0217486"><ele>9.4</ele><time>2026-04-04T16:30:59.185Z</time></trkpt><trkpt lat="39.9684535" lon="18.0216621"><ele>9.6</ele><time>2026-04-04T16:31:00.185Z</time></trkpt><trkpt lat="39.9685206" lon="18.0215788"><ele>9.8</ele><time>2026-04-04T16:31:01.184Z</time></trkpt><trkpt lat="39.9685763" lon="18.0215181"><ele>10.0</ele><time>2026-04-04T16:31:02.184Z</time></trkpt><trkpt lat="39.9686726" lon="18.0214118"><ele>9.6</ele><time>2026-04-04T16:31:04.186Z</time></trkpt><trkpt lat="39.9687366" lon="18.0213525"><ele>9.2</ele><time>2026-04-04T16:31:05.186Z</time></trkpt><trkpt lat="39.9688112" lon="18.0212799"><ele>8.8</ele><time>2026-04-04T16:31:06.186Z</time></trkpt><trkpt lat="39.9688863" lon="18.021203"><ele>8.4</ele><time>2026-04-04T16:31:07.185Z</time></trkpt><trkpt lat="39.9689627" lon="18.0211322"><ele>8.0</ele><time>2026-04-04T16:31:08.184Z</time></trkpt><trkpt lat="39.9690426" lon="18.021054"><ele>8.0</ele><time>2026-04-04T16:31:09.185Z</time></trkpt><trkpt lat="39.9691264" lon="18.0209579"><ele>8.0</ele><time>2026-04-04T16:31:10.185Z</time></trkpt><trkpt lat="39.9692181" lon="18.0208554"><ele>8.0</ele><time>2026-04-04T16:31:11.185Z</time></trkpt><trkpt lat="39.9693083" lon="18.0207472"><ele>8.0</ele><time>2026-04-04T16:31:12.183Z</time></trkpt><trkpt lat="39.9693989" lon="18.0206149"><ele>8.0</ele><time>2026-04-04T16:31:13.185Z</time></trkpt><trkpt lat="39.9694783" lon="18.020462"><ele>8.0</ele><time>2026-04-04T16:31:14.184Z</time></trkpt><trkpt lat="39.9695389" lon="18.0202883"><ele>8.0</ele><time>2026-04-04T16:31:15.185Z</time></trkpt><trkpt lat="39.9695872" lon="18.0200976"><ele>8.0</ele><time>2026-04-04T16:31:16.184Z</time></trkpt><trkpt lat="39.9696339" lon="18.0198927"><ele>8.0</ele><time>2026-04-04T16:31:17.184Z</time></trkpt><trkpt lat="39.9696777" lon="18.0196901"><ele>8.0</ele><time>2026-04-04T16:31:18.186Z</time></trkpt><trkpt lat="39.9697239" lon="18.019497"><ele>8.0</ele><time>2026-04-04T16:31:19.184Z</time></trkpt><trkpt lat="39.9697681" lon="18.0193141"><ele>8.0</ele><time>2026-04-04T16:31:20.183Z</time></trkpt><trkpt lat="39.9698047" lon="18.0191339"><ele>8.0</ele><time>2026-04-04T16:31:21.185Z</time></trkpt><trkpt lat="39.9698406" lon="18.0189505"><ele>8.0</ele><time>2026-04-04T16:31:22.184Z</time></trkpt><trkpt lat="39.9698793" lon="18.0187662"><ele>8.0</ele><time>2026-04-04T16:31:23.186Z</time></trkpt><trkpt lat="39.9699296" lon="18.0185794"><ele>8.0</ele><time>2026-04-04T16:31:24.183Z</time></trkpt><trkpt lat="39.9700386" lon="18.0184072"><ele>8.0</ele><time>2026-04-04T16:31:25.185Z</time></trkpt><trkpt lat="39.9701595" lon="18.0182557"><ele>8.0</ele><time>2026-04-04T16:31:26.184Z</time></trkpt><trkpt lat="39.9702885" lon="18.0181166"><ele>7.75</ele><time>2026-04-04T16:31:27.184Z</time></trkpt><trkpt lat="39.9704215" lon="18.0180177"><ele>7.5</ele><time>2026-04-04T16:31:28.184Z</time></trkpt><trkpt lat="39.9705424" lon="18.01791"><ele>7.25</ele><time>2026-04-04T16:31:29.184Z</time></trkpt><trkpt lat="39.9706626" lon="18.0178091"><ele>7.0</ele><time>2026-04-04T16:31:30.186Z</time></trkpt><trkpt lat="39.9707816" lon="18.0177173"><ele>7.0</ele><time>2026-04-04T16:31:31.183Z</time></trkpt><trkpt lat="39.9709023" lon="18.0176312"><ele>7.0</ele><time>2026-04-04T16:31:32.185Z</time></trkpt><trkpt lat="39.9710204" lon="18.0175506"><ele>7.0</ele><time>2026-04-04T16:31:33.185Z</time></trkpt><trkpt lat="39.9711292" lon="18.0174668"><ele>7.0</ele><time>2026-04-04T16:31:34.183Z</time></trkpt><trkpt lat="39.9712402" lon="18.0174014"><ele>7.0</ele><time>2026-04-04T16:31:35.184Z</time></trkpt><trkpt lat="39.9713459" lon="18.0173639"><ele>6.999999999999999</ele><time>2026-04-04T16:31:36.186Z</time></trkpt><trkpt lat="39.9714446" lon="18.0173418"><ele>6.999999999999999</ele><time>2026-04-04T16:31:37.184Z</time></trkpt><trkpt lat="39.9715351" lon="18.0172918"><ele>7.0</ele><time>2026-04-04T16:31:38.186Z</time></trkpt><trkpt lat="39.9716025" lon="18.0172149"><ele>7.0</ele><time>2026-04-04T16:31:39.186Z</time></trkpt><trkpt lat="39.9716472" lon="18.017116"><ele>7.25</ele><time>2026-04-04T16:31:40.184Z</time></trkpt><trkpt lat="39.9717089" lon="18.0170129"><ele>7.5</ele><time>2026-04-04T16:31:41.184Z</time></trkpt><trkpt lat="39.9717968" lon="18.0169154"><ele>7.75</ele><time>2026-04-04T16:31:42.184Z</time></trkpt><trkpt lat="39.9718988" lon="18.0168173"><ele>8.0</ele><time>2026-04-04T16:31:43.185Z</time></trkpt><trkpt lat="39.9720172" lon="18.0167171"><ele>8.0</ele><time>2026-04-04T16:31:44.185Z</time></trkpt><trkpt lat="39.9721479" lon="18.0166093"><ele>8.0</ele><time>2026-04-04T16:31:45.185Z</time></trkpt><trkpt lat="39.9722824" lon="18.0164935"><ele>8.0</ele><time>2026-04-04T16:31:46.184Z</time></trkpt><trkpt lat="39.9724242" lon="18.0163807"><ele>8.333333333333332</ele><time>2026-04-04T16:31:47.185Z</time></trkpt><trkpt lat="39.9725664" lon="18.016268"><ele>8.666666666666666</ele><time>2026-04-04T16:31:48.185Z</time></trkpt><trkpt lat="39.9726989" lon="18.0161624"><ele>9.0</ele><time>2026-04-04T16:31:49.185Z</time></trkpt><trkpt lat="39.9728197" lon="18.0160617"><ele>9.0</ele><time>2026-04-04T16:31:50.184Z</time></trkpt><trkpt lat="39.9729252" lon="18.0159808"><ele>9.0</ele><time>2026-04-04T16:31:51.185Z</time></trkpt><trkpt lat="39.9730269" lon="18.0159278"><ele>9.0</ele><time>2026-04-04T16:31:52.184Z</time></trkpt><trkpt lat="39.9731203" lon="18.0159079"><ele>9.0</ele><time>2026-04-04T16:31:53.184Z</time></trkpt><trkpt lat="39.9732052" lon="18.0159052"><ele>9.0</ele><time>2026-04-04T16:31:54.183Z</time></trkpt><trkpt lat="39.9732782" lon="18.0158776"><ele>9.0</ele><time>2026-04-04T16:31:55.183Z</time></trkpt><trkpt lat="39.9733719" lon="18.0157698"><ele>9.0</ele><time>2026-04-04T16:31:57.184Z</time></trkpt><trkpt lat="39.9734371" lon="18.0156758"><ele>9.0</ele><time>2026-04-04T16:31:59.184Z</time></trkpt><trkpt lat="39.9735043" lon="18.0155941"><ele>9.0</ele><time>2026-04-04T16:32:01.185Z</time></trkpt><trkpt lat="39.9735919" lon="18.0155004"><ele>9.0</ele><time>2026-04-04T16:32:03.185Z</time></trkpt><trkpt lat="39.9736987" lon="18.015415"><ele>9.0</ele><time>2026-04-04T16:32:05.183Z</time></trkpt><trkpt lat="39.9738178" lon="18.0153481"><ele>9.0</ele><time>2026-04-04T16:32:07.185Z</time></trkpt><trkpt lat="39.9738926" lon="18.0153276"><ele>9.0</ele><time>2026-04-04T16:32:08.184Z</time></trkpt><trkpt lat="39.9739771" lon="18.0153151"><ele>9.0</ele><time>2026-04-04T16:32:09.185Z</time></trkpt><trkpt lat="39.9740657" lon="18.0153076"><ele>9.0</ele><time>2026-04-04T16:32:10.185Z</time></trkpt><trkpt lat="39.9741713" lon="18.015286"><ele>8.75</ele><time>2026-04-04T16:32:11.185Z</time></trkpt><trkpt lat="39.9742812" lon="18.015265"><ele>8.5</ele><time>2026-04-04T16:32:12.185Z</time></trkpt><trkpt lat="39.9744025" lon="18.0152428"><ele>8.25</ele><time>2026-04-04T16:32:13.186Z</time></trkpt><trkpt lat="39.9745351" lon="18.0152476"><ele>8.0</ele><time>2026-04-04T16:32:14.184Z</time></trkpt><trkpt lat="39.9746726" lon="18.0152551"><ele>8.0</ele><time>2026-04-04T16:32:15.185Z</time></trkpt><trkpt lat="39.9748206" lon="18.0152569"><ele>8.0</ele><time>2026-04-04T16:32:16.184Z</time></trkpt><trkpt lat="39.9749738" lon="18.0152469"><ele>8.0</ele><time>2026-04-04T16:32:17.186Z</time></trkpt><trkpt lat="39.9751293" lon="18.0152149"><ele>8.0</ele><time>2026-04-04T16:32:18.184Z</time></trkpt><trkpt lat="39.9752878" lon="18.0151726"><ele>8.0</ele><time>2026-04-04T16:32:19.184Z</time></trkpt><trkpt lat="39.975446" lon="18.0150725"><ele>8.0</ele><time>2026-04-04T16:32:20.185Z</time></trkpt><trkpt lat="39.975606" lon="18.0149779"><ele>8.333333333333332</ele><time>2026-04-04T16:32:21.185Z</time></trkpt><trkpt lat="39.9757722" lon="18.0148679"><ele>8.666666666666666</ele><time>2026-04-04T16:32:22.186Z</time></trkpt><trkpt lat="39.9759429" lon="18.0147536"><ele>9.0</ele><time>2026-04-04T16:32:23.185Z</time></trkpt><trkpt lat="39.9761184" lon="18.0146331"><ele>9.0</ele><time>2026-04-04T16:32:24.185Z</time></trkpt><trkpt lat="39.976301" lon="18.0145122"><ele>9.0</ele><time>2026-04-04T16:32:25.186Z</time></trkpt><trkpt lat="39.976487" lon="18.0143877"><ele>9.0</ele><time>2026-04-04T16:32:26.185Z</time></trkpt><trkpt lat="39.9766775" lon="18.0142657"><ele>9.333333333333334</ele><time>2026-04-04T16:32:27.185Z</time></trkpt><trkpt lat="39.9768688" lon="18.014136"><ele>9.666666666666668</ele><time>2026-04-04T16:32:28.184Z</time></trkpt><trkpt lat="39.9770639" lon="18.0140067"><ele>10.0</ele><time>2026-04-04T16:32:29.185Z</time></trkpt><trkpt lat="39.9772604" lon="18.0138783"><ele>10.0</ele><time>2026-04-04T16:32:30.185Z</time></trkpt><trkpt lat="39.977458" lon="18.0137332"><ele>10.0</ele><time>2026-04-04T16:32:31.185Z</time></trkpt><trkpt lat="39.9776561" lon="18.0135988"><ele>10.0</ele><time>2026-04-04T16:32:32.185Z</time></trkpt><trkpt lat="39.9778532" lon="18.0134615"><ele>10.0</ele><time>2026-04-04T16:32:33.183Z</time></trkpt><trkpt lat="39.9780514" lon="18.0133272"><ele>10.0</ele><time>2026-04-04T16:32:34.183Z</time></trkpt><trkpt lat="39.978254" lon="18.0132011"><ele>10.0</ele><time>2026-04-04T16:32:35.185Z</time></trkpt><trkpt lat="39.9784622" lon="18.0130984"><ele>10.0</ele><time>2026-04-04T16:32:36.186Z</time></trkpt><trkpt lat="39.9786791" lon="18.0130204"><ele>10.0</ele><time>2026-04-04T16:32:37.185Z</time></trkpt><trkpt lat="39.9789003" lon="18.0129691"><ele>10.0</ele><time>2026-04-04T16:32:38.184Z</time></trkpt><trkpt lat="39.9791293" lon="18.0129492"><ele>10.0</ele><time>2026-04-04T16:32:39.185Z</time></trkpt><trkpt lat="39.9793658" lon="18.0129611"><ele>10.0</ele><time>2026-04-04T16:32:40.185Z</time></trkpt><trkpt lat="39.9796013" lon="18.0129994"><ele>10.0</ele><time>2026-04-04T16:32:41.185Z</time></trkpt><trkpt lat="39.9798384" lon="18.013068"><ele>10.0</ele><time>2026-04-04T16:32:42.184Z</time></trkpt><trkpt lat="39.9800731" lon="18.0131704"><ele>10.0</ele><time>2026-04-04T16:32:43.185Z</time></trkpt><trkpt lat="39.9803038" lon="18.0133105"><ele>11.0</ele><time>2026-04-04T16:32:44.184Z</time></trkpt><trkpt lat="39.9805307" lon="18.0134775"><ele>12.0</ele><time>2026-04-04T16:32:45.184Z</time></trkpt><trkpt lat="39.9807528" lon="18.0136702"><ele>12.0</ele><time>2026-04-04T16:32:46.185Z</time></trkpt><trkpt lat="39.9809947" lon="18.0138949"><ele>12.0</ele><time>2026-04-04T16:32:47.185Z</time></trkpt><trkpt lat="39.9812558" lon="18.0141485"><ele>13.5</ele><time>2026-04-04T16:32:48.183Z</time></trkpt><trkpt lat="39.981534" lon="18.0144215"><ele>15.0</ele><time>2026-04-04T16:32:49.184Z</time></trkpt><trkpt lat="39.981814" lon="18.0146837"><ele>15.0</ele><time>2026-04-04T16:32:50.184Z</time></trkpt><trkpt lat="39.9820961" lon="18.0149529"><ele>15.0</ele><time>2026-04-04T16:32:51.183Z</time></trkpt><trkpt lat="39.9823631" lon="18.0152038"><ele>13.5</ele><time>2026-04-04T16:32:52.185Z</time></trkpt><trkpt lat="39.9826264" lon="18.0154545"><ele>12.0</ele><time>2026-04-04T16:32:53.185Z</time></trkpt><trkpt lat="39.9828795" lon="18.0157022"><ele>12.5</ele><time>2026-04-04T16:32:54.185Z</time></trkpt><trkpt lat="39.9831163" lon="18.0159292"><ele>13.0</ele><time>2026-04-04T16:32:55.185Z</time></trkpt><trkpt lat="39.9833532" lon="18.0161546"><ele>14.0</ele><time>2026-04-04T16:32:56.184Z</time></trkpt><trkpt lat="39.9835908" lon="18.0163593"><ele>15.0</ele><time>2026-04-04T16:32:57.184Z</time></trkpt><trkpt lat="39.9838351" lon="18.0165396"><ele>15.5</ele><time>2026-04-04T16:32:58.184Z</time></trkpt><trkpt lat="39.9840891" lon="18.0166976"><ele>16.0</ele><time>2026-04-04T16:32:59.184Z</time></trkpt><trkpt lat="39.9843659" lon="18.0168202"><ele>16.0</ele><time>2026-04-04T16:33:00.184Z</time></trkpt><trkpt lat="39.9846794" lon="18.0168987"><ele>16.0</ele><time>2026-04-04T16:33:01.185Z</time></trkpt><trkpt lat="39.9849811" lon="18.0169827"><ele>15.5</ele><time>2026-04-04T16:33:02.184Z</time></trkpt><trkpt lat="39.9852923" lon="18.0170648"><ele>15.0</ele><time>2026-04-04T16:33:03.184Z</time></trkpt><trkpt lat="39.9855998" lon="18.017141"><ele>14.0</ele><time>2026-04-04T16:33:04.185Z</time></trkpt><trkpt lat="39.9859031" lon="18.0172241"><ele>13.0</ele><time>2026-04-04T16:33:05.185Z</time></trkpt><trkpt lat="39.9862065" lon="18.0173079"><ele>13.0</ele><time>2026-04-04T16:33:06.185Z</time></trkpt><trkpt lat="39.9865155" lon="18.0173905"><ele>13.0</ele><time>2026-04-04T16:33:07.183Z</time></trkpt><trkpt lat="39.9868266" lon="18.0174709"><ele>14.0</ele><time>2026-04-04T16:33:08.185Z</time></trkpt><trkpt lat="39.9871349" lon="18.0175491"><ele>15.0</ele><time>2026-04-04T16:33:09.185Z</time></trkpt><trkpt lat="39.9874411" lon="18.0176232"><ele>15.0</ele><time>2026-04-04T16:33:10.184Z</time></trkpt><trkpt lat="39.9877533" lon="18.017698"><ele>15.0</ele><time>2026-04-04T16:33:11.184Z</time></trkpt><trkpt lat="39.9880734" lon="18.0177817"><ele>15.5</ele><time>2026-04-04T16:33:12.186Z</time></trkpt><trkpt lat="39.9883991" lon="18.0178648"><ele>16.0</ele><time>2026-04-04T16:33:13.185Z</time></trkpt><trkpt lat="39.9887237" lon="18.0179395"><ele>16.0</ele><time>2026-04-04T16:33:14.185Z</time></trkpt><trkpt lat="39.9890364" lon="18.0180223"><ele>16.0</ele><time>2026-04-04T16:33:15.185Z</time></trkpt><trkpt lat="39.9893464" lon="18.0181022"><ele>14.5</ele><time>2026-04-04T16:33:16.186Z</time></trkpt><trkpt lat="39.9896579" lon="18.0181765"><ele>13.0</ele><time>2026-04-04T16:33:17.185Z</time></trkpt><trkpt lat="39.9899534" lon="18.0182583"><ele>13.5</ele><time>2026-04-04T16:33:18.185Z</time></trkpt><trkpt lat="39.9902233" lon="18.0183324"><ele>14.0</ele><time>2026-04-04T16:33:19.184Z</time></trkpt><trkpt lat="39.9904863" lon="18.0184396"><ele>14.0</ele><time>2026-04-04T16:33:20.184Z</time></trkpt><trkpt lat="39.9907492" lon="18.018571"><ele>14.0</ele><time>2026-04-04T16:33:21.186Z</time></trkpt><trkpt lat="39.9910288" lon="18.0187315"><ele>14.0</ele><time>2026-04-04T16:33:22.185Z</time></trkpt><trkpt lat="39.9913326" lon="18.018913"><ele>14.0</ele><time>2026-04-04T16:33:23.184Z</time></trkpt><trkpt lat="39.991653" lon="18.0191039"><ele>13.5</ele><time>2026-04-04T16:33:24.183Z</time></trkpt><trkpt lat="39.9919744" lon="18.0192972"><ele>13.0</ele><time>2026-04-04T16:33:25.184Z</time></trkpt><trkpt lat="39.9922975" lon="18.0194809"><ele>12.0</ele><time>2026-04-04T16:33:26.185Z</time></trkpt><trkpt lat="39.9926295" lon="18.0196723"><ele>11.0</ele><time>2026-04-04T16:33:27.183Z</time></trkpt><trkpt lat="39.9929646" lon="18.0198689"><ele>12.0</ele><time>2026-04-04T16:33:28.185Z</time></trkpt><trkpt lat="39.9932928" lon="18.0200599"><ele>13.0</ele><time>2026-04-04T16:33:29.186Z</time></trkpt><trkpt lat="39.9936206" lon="18.0202594"><ele>13.0</ele><time>2026-04-04T16:33:30.184Z</time></trkpt><trkpt lat="39.9939375" lon="18.0204531"><ele>13.0</ele><time>2026-04-04T16:33:31.185Z</time></trkpt><trkpt lat="39.9942466" lon="18.0206403"><ele>12.0</ele><time>2026-04-04T16:33:32.184Z</time></trkpt><trkpt lat="39.9945464" lon="18.0208206"><ele>11.0</ele><time>2026-04-04T16:33:33.185Z</time></trkpt><trkpt lat="39.9948286" lon="18.0209848"><ele>11.0</ele><time>2026-04-04T16:33:34.184Z</time></trkpt><trkpt lat="39.9950934" lon="18.021143"><ele>11.0</ele><time>2026-04-04T16:33:35.184Z</time></trkpt><trkpt lat="39.9953409" lon="18.0212972"><ele>11.0</ele><time>2026-04-04T16:33:36.184Z</time></trkpt><trkpt lat="39.9955701" lon="18.0214427"><ele>11.0</ele><time>2026-04-04T16:33:37.185Z</time></trkpt><trkpt lat="39.9957865" lon="18.0215679"><ele>11.666666666666666</ele><time>2026-04-04T16:33:38.184Z</time></trkpt><trkpt lat="39.9959942" lon="18.0216869"><ele>12.333333333333332</ele><time>2026-04-04T16:33:39.185Z</time></trkpt><trkpt lat="39.9961928" lon="18.0217788"><ele>13.0</ele><time>2026-04-04T16:33:40.186Z</time></trkpt><trkpt lat="39.9964034" lon="18.021832"><ele>13.0</ele><time>2026-04-04T16:33:41.185Z</time></trkpt><trkpt lat="39.9966191" lon="18.0218522"><ele>13.0</ele><time>2026-04-04T16:33:42.184Z</time></trkpt><trkpt lat="39.9968396" lon="18.0218233"><ele>13.0</ele><time>2026-04-04T16:33:43.186Z</time></trkpt><trkpt lat="39.9970619" lon="18.0217437"><ele>11.0</ele><time>2026-04-04T16:33:44.185Z</time></trkpt><trkpt lat="39.9972857" lon="18.0216329"><ele>9.0</ele><time>2026-04-04T16:33:45.185Z</time></trkpt><trkpt lat="39.9975134" lon="18.0215188"><ele>8.5</ele><time>2026-04-04T16:33:46.186Z</time></trkpt><trkpt lat="39.9977419" lon="18.0214234"><ele>8.0</ele><time>2026-04-04T16:33:47.184Z</time></trkpt><trkpt lat="39.9979685" lon="18.0213699"><ele>8.0</ele><time>2026-04-04T16:33:48.185Z</time></trkpt><trkpt lat="39.9981838" lon="18.0213698"><ele>8.0</ele><time>2026-04-04T16:33:49.185Z</time></trkpt><trkpt lat="39.9983969" lon="18.0214157"><ele>8.0</ele><time>2026-04-04T16:33:50.185Z</time></trkpt><trkpt lat="39.9986242" lon="18.0214905"><ele>8.0</ele><time>2026-04-04T16:33:51.184Z</time></trkpt><trkpt lat="39.99887" lon="18.021569"><ele>8.0</ele><time>2026-04-04T16:33:52.185Z</time></trkpt><trkpt lat="39.9991355" lon="18.0216605"><ele>10.0</ele><time>2026-04-04T16:33:53.184Z</time></trkpt><trkpt lat="39.9994198" lon="18.0217644"><ele>12.0</ele><time>2026-04-04T16:33:54.184Z</time></trkpt><trkpt lat="39.999705" lon="18.021861"><ele>12.0</ele><time>2026-04-04T16:33:55.185Z</time></trkpt><trkpt lat="39.9999875" lon="18.0219535"><ele>12.0</ele><time>2026-04-04T16:33:56.183Z</time></trkpt><trkpt lat="40.0002671" lon="18.0220452"><ele>12.0</ele><time>2026-04-04T16:33:57.184Z</time></trkpt><trkpt lat="40.0005372" lon="18.0221389"><ele>12.0</ele><time>2026-04-04T16:33:58.184Z</time></trkpt><trkpt lat="40.0007963" lon="18.0222327"><ele>11.0</ele><time>2026-04-04T16:33:59.184Z</time></trkpt><trkpt lat="40.0010383" lon="18.0223141"><ele>10.0</ele><time>2026-04-04T16:34:00.184Z</time></trkpt><trkpt lat="40.0012652" lon="18.0223896"><ele>10.0</ele><time>2026-04-04T16:34:01.185Z</time></trkpt><trkpt lat="40.0014833" lon="18.0224625"><ele>10.0</ele><time>2026-04-04T16:34:02.185Z</time></trkpt><trkpt lat="40.0016925" lon="18.0225355"><ele>10.0</ele><time>2026-04-04T16:34:03.185Z</time></trkpt><trkpt lat="40.0019003" lon="18.0226122"><ele>11.0</ele><time>2026-04-04T16:34:04.185Z</time></trkpt><trkpt lat="40.002114" lon="18.0226886"><ele>12.0</ele><time>2026-04-04T16:34:05.184Z</time></trkpt><trkpt lat="40.0023385" lon="18.0227615"><ele>11.0</ele><time>2026-04-04T16:34:06.184Z</time></trkpt><trkpt lat="40.0025683" lon="18.0228359"><ele>10.0</ele><time>2026-04-04T16:34:07.184Z</time></trkpt><trkpt lat="40.0027946" lon="18.022914"><ele>10.0</ele><time>2026-04-04T16:34:08.184Z</time></trkpt><trkpt lat="40.0030242" lon="18.0229852"><ele>10.0</ele><time>2026-04-04T16:34:09.183Z</time></trkpt><trkpt lat="40.0032454" lon="18.023059"><ele>9.666666666666668</ele><time>2026-04-04T16:34:10.185Z</time></trkpt><trkpt lat="40.0034623" lon="18.0231319"><ele>9.333333333333334</ele><time>2026-04-04T16:34:11.183Z</time></trkpt><trkpt lat="40.0036751" lon="18.0231863"><ele>9.0</ele><time>2026-04-04T16:34:12.184Z</time></trkpt><trkpt lat="40.00388" lon="18.0232074"><ele>9.0</ele><time>2026-04-04T16:34:13.184Z</time></trkpt><trkpt lat="40.0040797" lon="18.0232087"><ele>9.0</ele><time>2026-04-04T16:34:14.185Z</time></trkpt><trkpt lat="40.0042907" lon="18.0232017"><ele>9.0</ele><time>2026-04-04T16:34:15.185Z</time></trkpt><trkpt lat="40.004537" lon="18.0231865"><ele>8.0</ele><time>2026-04-04T16:34:16.184Z</time></trkpt><trkpt lat="40.0048085" lon="18.0231677"><ele>7.0</ele><time>2026-04-04T16:34:17.185Z</time></trkpt><trkpt lat="40.0050925" lon="18.0231564"><ele>6.5</ele><time>2026-04-04T16:34:18.186Z</time></trkpt><trkpt lat="40.0054377" lon="18.02313"><ele>6.0</ele><time>2026-04-04T16:34:19.185Z</time></trkpt><trkpt lat="40.0057932" lon="18.0231173"><ele>5.0</ele><time>2026-04-04T16:34:20.186Z</time></trkpt><trkpt lat="40.0061707" lon="18.0230974"><ele>4.0</ele><time>2026-04-04T16:34:21.185Z</time></trkpt><trkpt lat="40.006543" lon="18.0230841"><ele>3.5</ele><time>2026-04-04T16:34:22.184Z</time></trkpt><trkpt lat="40.006921" lon="18.0230587"><ele>3.0</ele><time>2026-04-04T16:34:23.186Z</time></trkpt><trkpt lat="40.007301" lon="18.0230355"><ele>3.0</ele><time>2026-04-04T16:34:24.184Z</time></trkpt><trkpt lat="40.00768" lon="18.0230104"><ele>3.0</ele><time>2026-04-04T16:34:25.185Z</time></trkpt><trkpt lat="40.00806" lon="18.0229885"><ele>2.0</ele><time>2026-04-04T16:34:26.184Z</time></trkpt><trkpt lat="40.0084371" lon="18.0229631"><ele>1.0</ele><time>2026-04-04T16:34:27.184Z</time></trkpt><trkpt lat="40.0088098" lon="18.0229418"><ele>0.5</ele><time>2026-04-04T16:34:28.184Z</time></trkpt><trkpt lat="40.0091747" lon="18.0229207"><ele>0.0</ele><time>2026-04-04T16:34:29.185Z</time></trkpt><trkpt lat="40.0095354" lon="18.0228995"><ele>0.0</ele><time>2026-04-04T16:34:30.184Z</time></trkpt><trkpt lat="40.0098812" lon="18.0228852"><ele>0.0</ele><time>2026-04-04T16:34:31.186Z</time></trkpt><trkpt lat="40.0102332" lon="18.0228591"><ele>0.0</ele><time>2026-04-04T16:34:32.183Z</time></trkpt><trkpt lat="40.0105827" lon="18.0228403"><ele>0.0</ele><time>2026-04-04T16:34:33.184Z</time></trkpt><trkpt lat="40.0109325" lon="18.0228092"><ele>0.0</ele><time>2026-04-04T16:34:34.185Z</time></trkpt><trkpt lat="40.0112841" lon="18.0227836"><ele>0.0</ele><time>2026-04-04T16:34:35.185Z</time></trkpt><trkpt lat="40.0116293" lon="18.022765"><ele>-0.5</ele><time>2026-04-04T16:34:36.184Z</time></trkpt><trkpt lat="40.0119704" lon="18.0227352"><ele>-1.0</ele><time>2026-04-04T16:34:37.184Z</time></trkpt><trkpt lat="40.0123064" lon="18.0227228"><ele>-0.5</ele><time>2026-04-04T16:34:38.184Z</time></trkpt><trkpt lat="40.0126353" lon="18.0226969"><ele>0.0</ele><time>2026-04-04T16:34:39.186Z</time></trkpt><trkpt lat="40.0129652" lon="18.0226705"><ele>0.0</ele><time>2026-04-04T16:34:40.186Z</time></trkpt><trkpt lat="40.0132902" lon="18.0226465"><ele>0.0</ele><time>2026-04-04T16:34:41.185Z</time></trkpt><trkpt lat="40.0136176" lon="18.0226287"><ele>0.0</ele><time>2026-04-04T16:34:42.185Z</time></trkpt><trkpt lat="40.0139421" lon="18.0226211"><ele>0.0</ele><time>2026-04-04T16:34:43.186Z</time></trkpt><trkpt lat="40.0142613" lon="18.0226252"><ele>-0.5</ele><time>2026-04-04T16:34:44.184Z</time></trkpt><trkpt lat="40.0145774" lon="18.0226407"><ele>-1.0</ele><time>2026-04-04T16:34:45.184Z</time></trkpt><trkpt lat="40.0148855" lon="18.0226639"><ele>-0.5</ele><time>2026-04-04T16:34:46.185Z</time></trkpt><trkpt lat="40.0151984" lon="18.0226808"><ele>0.0</ele><time>2026-04-04T16:34:47.185Z</time></trkpt><trkpt lat="40.0155042" lon="18.0227043"><ele>0.0</ele><time>2026-04-04T16:34:48.185Z</time></trkpt><trkpt lat="40.0158122" lon="18.0227261"><ele>0.0</ele><time>2026-04-04T16:34:49.184Z</time></trkpt><trkpt lat="40.0161112" lon="18.0227537"><ele>0.5</ele><time>2026-04-04T16:34:50.183Z</time></trkpt><trkpt lat="40.0163964" lon="18.0227805"><ele>1.0</ele><time>2026-04-04T16:34:51.184Z</time></trkpt><trkpt lat="40.016667" lon="18.0228042"><ele>1.0</ele><time>2026-04-04T16:34:52.183Z</time></trkpt><trkpt lat="40.0169376" lon="18.0228201"><ele>1.0</ele><time>2026-04-04T16:34:53.185Z</time></trkpt><trkpt lat="40.0172122" lon="18.0228094"><ele>2.0</ele><time>2026-04-04T16:34:54.185Z</time></trkpt><trkpt lat="40.0174916" lon="18.0227851"><ele>3.0</ele><time>2026-04-04T16:34:55.184Z</time></trkpt><trkpt lat="40.0177718" lon="18.0227414"><ele>3.0</ele><time>2026-04-04T16:34:56.185Z</time></trkpt><trkpt lat="40.0180416" lon="18.0226902"><ele>3.0</ele><time>2026-04-04T16:34:57.184Z</time></trkpt><trkpt lat="40.0183085" lon="18.0226354"><ele>3.0</ele><time>2026-04-04T16:34:58.185Z</time></trkpt><trkpt lat="40.0185735" lon="18.0225811"><ele>3.0</ele><time>2026-04-04T16:34:59.185Z</time></trkpt><trkpt lat="40.0188372" lon="18.0225249"><ele>3.0</ele><time>2026-04-04T16:35:00.184Z</time></trkpt><trkpt lat="40.0190952" lon="18.0224689"><ele>3.0</ele><time>2026-04-04T16:35:01.185Z</time></trkpt><trkpt lat="40.0193485" lon="18.022418"><ele>3.0</ele><time>2026-04-04T16:35:02.183Z</time></trkpt><trkpt lat="40.0196077" lon="18.0223579"><ele>3.0</ele><time>2026-04-04T16:35:03.185Z</time></trkpt><trkpt lat="40.0198643" lon="18.0223084"><ele>3.5</ele><time>2026-04-04T16:35:04.185Z</time></trkpt><trkpt lat="40.0201196" lon="18.0222558"><ele>4.0</ele><time>2026-04-04T16:35:05.183Z</time></trkpt><trkpt lat="40.0203741" lon="18.0222041"><ele>4.0</ele><time>2026-04-04T16:35:06.185Z</time></trkpt><trkpt lat="40.0206335" lon="18.0221455"><ele>4.0</ele><time>2026-04-04T16:35:07.184Z</time></trkpt><trkpt lat="40.020893" lon="18.0220902"><ele>3.0</ele><time>2026-04-04T16:35:08.185Z</time></trkpt><trkpt lat="40.0211521" lon="18.0220366"><ele>2.0</ele><time>2026-04-04T16:35:09.184Z</time></trkpt><trkpt lat="40.0214121" lon="18.0219839"><ele>1.0</ele><time>2026-04-04T16:35:10.186Z</time></trkpt><trkpt lat="40.0216652" lon="18.0219336"><ele>0.0</ele><time>2026-04-04T16:35:11.184Z</time></trkpt><trkpt lat="40.0219098" lon="18.0218853"><ele>0.0</ele><time>2026-04-04T16:35:12.184Z</time></trkpt><trkpt lat="40.0221519" lon="18.0218325"><ele>0.0</ele><time>2026-04-04T16:35:13.185Z</time></trkpt><trkpt lat="40.0223796" lon="18.0217913"><ele>0.6666666666666666</ele><time>2026-04-04T16:35:14.184Z</time></trkpt><trkpt lat="40.0225956" lon="18.0217489"><ele>1.3333333333333333</ele><time>2026-04-04T16:35:15.184Z</time></trkpt><trkpt lat="40.0228038" lon="18.0217098"><ele>2.0</ele><time>2026-04-04T16:35:16.186Z</time></trkpt><trkpt lat="40.0229963" lon="18.021672"><ele>2.0</ele><time>2026-04-04T16:35:17.184Z</time></trkpt><trkpt lat="40.0231763" lon="18.0216364"><ele>2.0</ele><time>2026-04-04T16:35:18.183Z</time></trkpt><trkpt lat="40.0233459" lon="18.0216063"><ele>2.0</ele><time>2026-04-04T16:35:19.186Z</time></trkpt><trkpt lat="40.0235114" lon="18.0215772"><ele>1.5</ele><time>2026-04-04T16:35:20.184Z</time></trkpt><trkpt lat="40.0236518" lon="18.0215382"><ele>1.0</ele><time>2026-04-04T16:35:21.185Z</time></trkpt><trkpt lat="40.0237773" lon="18.0214992"><ele>0.5</ele><time>2026-04-04T16:35:22.185Z</time></trkpt><trkpt lat="40.0238933" lon="18.0214657"><ele>0.0</ele><time>2026-04-04T16:35:23.186Z</time></trkpt><trkpt lat="40.0240131" lon="18.0214585"><ele>0.0</ele><time>2026-04-04T16:35:24.185Z</time></trkpt><trkpt lat="40.0241329" lon="18.0214766"><ele>0.0</ele><time>2026-04-04T16:35:25.184Z</time></trkpt><trkpt lat="40.0242749" lon="18.0215269"><ele>0.0</ele><time>2026-04-04T16:35:26.184Z</time></trkpt><trkpt lat="40.0244202" lon="18.0216052"><ele>0.0</ele><time>2026-04-04T16:35:27.185Z</time></trkpt><trkpt lat="40.0245691" lon="18.021704"><ele>0.0</ele><time>2026-04-04T16:35:28.184Z</time></trkpt><trkpt lat="40.0247009" lon="18.0218636"><ele>0.0</ele><time>2026-04-04T16:35:29.185Z</time></trkpt><trkpt lat="40.0248282" lon="18.0220263"><ele>0.0</ele><time>2026-04-04T16:35:30.186Z</time></trkpt><trkpt lat="40.0249321" lon="18.0222026"><ele>-0.6666666666666666</ele><time>2026-04-04T16:35:31.186Z</time></trkpt><trkpt lat="40.0250162" lon="18.0223923"><ele>-1.3333333333333333</ele><time>2026-04-04T16:35:32.184Z</time></trkpt><trkpt lat="40.0250718" lon="18.0225909"><ele>-2.0</ele><time>2026-04-04T16:35:33.185Z</time></trkpt><trkpt lat="40.0251209" lon="18.0228002"><ele>-2.0</ele><time>2026-04-04T16:35:34.185Z</time></trkpt><trkpt lat="40.0251642" lon="18.0230065"><ele>-2.0</ele><time>2026-04-04T16:35:35.185Z</time></trkpt><trkpt lat="40.0252067" lon="18.0232102"><ele>-2.0</ele><time>2026-04-04T16:35:36.185Z</time></trkpt><trkpt lat="40.0252597" lon="18.02343"><ele>-2.0</ele><time>2026-04-04T16:35:37.185Z</time></trkpt><trkpt lat="40.0253102" lon="18.0236534"><ele>-2.0</ele><time>2026-04-04T16:35:38.186Z</time></trkpt><trkpt lat="40.0253468" lon="18.0238699"><ele>-2.0</ele><time>2026-04-04T16:35:39.185Z</time></trkpt><trkpt lat="40.025377" lon="18.0240756"><ele>-2.0</ele><time>2026-04-04T16:35:40.184Z</time></trkpt><trkpt lat="40.0254017" lon="18.0242674"><ele>-2.0</ele><time>2026-04-04T16:35:41.184Z</time></trkpt><trkpt lat="40.0254324" lon="18.0244497"><ele>-2.0</ele><time>2026-04-04T16:35:42.184Z</time></trkpt><trkpt lat="40.0254709" lon="18.0246223"><ele>-2.0</ele><time>2026-04-04T16:35:43.186Z</time></trkpt><trkpt lat="40.0255125" lon="18.0247876"><ele>-1.6666666666666665</ele><time>2026-04-04T16:35:44.185Z</time></trkpt><trkpt lat="40.0255637" lon="18.025011"><ele>-1.3333333333333333</ele><time>2026-04-04T16:35:45.183Z</time></trkpt><trkpt lat="40.0256053" lon="18.0252429"><ele>-1.0</ele><time>2026-04-04T16:35:46.185Z</time></trkpt><trkpt lat="40.0256432" lon="18.0254812"><ele>-1.0</ele><time>2026-04-04T16:35:47.186Z</time></trkpt><trkpt lat="40.025688" lon="18.0257297"><ele>-1.0</ele><time>2026-04-04T16:35:48.185Z</time></trkpt><trkpt lat="40.0257476" lon="18.0259961"><ele>-1.0</ele><time>2026-04-04T16:35:49.184Z</time></trkpt><trkpt lat="40.0258062" lon="18.0262823"><ele>-0.5</ele><time>2026-04-04T16:35:50.185Z</time></trkpt><trkpt lat="40.0258635" lon="18.0265934"><ele>0.0</ele><time>2026-04-04T16:35:51.185Z</time></trkpt><trkpt lat="40.0259196" lon="18.0269079"><ele>-1.0</ele><time>2026-04-04T16:35:52.185Z</time></trkpt><trkpt lat="40.0259713" lon="18.0272409"><ele>-2.0</ele><time>2026-04-04T16:35:53.184Z</time></trkpt><trkpt lat="40.0260281" lon="18.027576"><ele>-2.0</ele><time>2026-04-04T16:35:54.185Z</time></trkpt><trkpt lat="40.0260881" lon="18.0279054"><ele>-2.0</ele><time>2026-04-04T16:35:55.185Z</time></trkpt><trkpt lat="40.0261431" lon="18.0282177"><ele>-2.0</ele><time>2026-04-04T16:35:56.183Z</time></trkpt><trkpt lat="40.0261915" lon="18.0284945"><ele>-2.0</ele><time>2026-04-04T16:35:57.184Z</time></trkpt><trkpt lat="40.0262338" lon="18.0287305"><ele>-2.0</ele><time>2026-04-04T16:35:58.184Z</time></trkpt><trkpt lat="40.026274" lon="18.0289346"><ele>-2.0</ele><time>2026-04-04T16:35:59.183Z</time></trkpt><trkpt lat="40.0263266" lon="18.0291047"><ele>-2.0</ele><time>2026-04-04T16:36:00.184Z</time></trkpt><trkpt lat="40.0263941" lon="18.029254"><ele>-2.0</ele><time>2026-04-04T16:36:01.185Z</time></trkpt><trkpt lat="40.0264703" lon="18.0293695"><ele>-2.0</ele><time>2026-04-04T16:36:02.183Z</time></trkpt><trkpt lat="40.0265654" lon="18.0294583"><ele>-1.75</ele><time>2026-04-04T16:36:03.184Z</time></trkpt><trkpt lat="40.0266598" lon="18.0295093"><ele>-1.5</ele><time>2026-04-04T16:36:04.183Z</time></trkpt><trkpt lat="40.0267712" lon="18.0295303"><ele>-1.25</ele><time>2026-04-04T16:36:05.184Z</time></trkpt><trkpt lat="40.0269035" lon="18.0295111"><ele>-1.0</ele><time>2026-04-04T16:36:06.185Z</time></trkpt><trkpt lat="40.0270627" lon="18.0294596"><ele>-1.0</ele><time>2026-04-04T16:36:07.184Z</time></trkpt><trkpt lat="40.0272582" lon="18.0293905"><ele>-1.0</ele><time>2026-04-04T16:36:08.185Z</time></trkpt><trkpt lat="40.0275018" lon="18.0293047"><ele>-0.5</ele><time>2026-04-04T16:36:09.185Z</time></trkpt><trkpt lat="40.0277654" lon="18.0292087"><ele>0.0</ele><time>2026-04-04T16:36:10.185Z</time></trkpt><trkpt lat="40.028029" lon="18.0291117"><ele>0.0</ele><time>2026-04-04T16:36:11.185Z</time></trkpt><trkpt lat="40.0282835" lon="18.0290391"><ele>0.0</ele><time>2026-04-04T16:36:12.185Z</time></trkpt><trkpt lat="40.0285332" lon="18.0290113"><ele>-0.5</ele><time>2026-04-04T16:36:13.185Z</time></trkpt><trkpt lat="40.0287878" lon="18.029"><ele>-1.0</ele><time>2026-04-04T16:36:14.184Z</time></trkpt><trkpt lat="40.0290391" lon="18.0290042"><ele>-0.5</ele><time>2026-04-04T16:36:15.185Z</time></trkpt><trkpt lat="40.0292897" lon="18.028978"><ele>0.0</ele><time>2026-04-04T16:36:16.185Z</time></trkpt><trkpt lat="40.029559" lon="18.0289199"><ele>0.0</ele><time>2026-04-04T16:36:17.184Z</time></trkpt><trkpt lat="40.029831" lon="18.0288478"><ele>0.0</ele><time>2026-04-04T16:36:18.184Z</time></trkpt><trkpt lat="40.0300988" lon="18.0287716"><ele>0.5</ele><time>2026-04-04T16:36:19.185Z</time></trkpt><trkpt lat="40.0303476" lon="18.0286967"><ele>1.0</ele><time>2026-04-04T16:36:20.184Z</time></trkpt><trkpt lat="40.0305771" lon="18.028618"><ele>1.0</ele><time>2026-04-04T16:36:21.186Z</time></trkpt><trkpt lat="40.0307695" lon="18.0285422"><ele>1.0</ele><time>2026-04-04T16:36:22.185Z</time></trkpt><trkpt lat="40.030944" lon="18.0284557"><ele>1.0</ele><time>2026-04-04T16:36:23.185Z</time></trkpt><trkpt lat="40.0310949" lon="18.028372"><ele>1.5</ele><time>2026-04-04T16:36:24.184Z</time></trkpt><trkpt lat="40.0312276" lon="18.0283214"><ele>2.0</ele><time>2026-04-04T16:36:25.185Z</time></trkpt><trkpt lat="40.0313472" lon="18.028314"><ele>2.5</ele><time>2026-04-04T16:36:26.184Z</time></trkpt><trkpt lat="40.0314488" lon="18.0283479"><ele>3.0</ele><time>2026-04-04T16:36:27.186Z</time></trkpt><trkpt lat="40.0315428" lon="18.028422"><ele>3.0</ele><time>2026-04-04T16:36:28.184Z</time></trkpt><trkpt lat="40.031616" lon="18.028513"><ele>3.0</ele><time>2026-04-04T16:36:29.184Z</time></trkpt><trkpt lat="40.0316805" lon="18.0286448"><ele>3.0</ele><time>2026-04-04T16:36:30.184Z</time></trkpt><trkpt lat="40.0317488" lon="18.0288079"><ele>3.0</ele><time>2026-04-04T16:36:31.183Z</time></trkpt><trkpt lat="40.0318266" lon="18.0290048"><ele>3.333333333333333</ele><time>2026-04-04T16:36:32.185Z</time></trkpt><trkpt lat="40.0319035" lon="18.0292441"><ele>3.6666666666666665</ele><time>2026-04-04T16:36:33.185Z</time></trkpt><trkpt lat="40.0319882" lon="18.0295315"><ele>4.0</ele><time>2026-04-04T16:36:34.184Z</time></trkpt><trkpt lat="40.0320636" lon="18.0297986"><ele>4.333333333333333</ele><time>2026-04-04T16:36:35.185Z</time></trkpt><trkpt lat="40.032135" lon="18.0300545"><ele>4.666666666666667</ele><time>2026-04-04T16:36:36.184Z</time></trkpt><trkpt lat="40.0322042" lon="18.0302962"><ele>5.0</ele><time>2026-04-04T16:36:37.186Z</time></trkpt><trkpt lat="40.0322674" lon="18.0305107"><ele>5.0</ele><time>2026-04-04T16:36:38.185Z</time></trkpt><trkpt lat="40.0323136" lon="18.0306926"><ele>5.0</ele><time>2026-04-04T16:36:39.185Z</time></trkpt><trkpt lat="40.0323377" lon="18.0308652"><ele>5.0</ele><time>2026-04-04T16:36:40.185Z</time></trkpt><trkpt lat="40.0323291" lon="18.0310243"><ele>5.0</ele><time>2026-04-04T16:36:41.184Z</time></trkpt><trkpt lat="40.0322867" lon="18.0311801"><ele>5.25</ele><time>2026-04-04T16:36:42.184Z</time></trkpt><trkpt lat="40.0322029" lon="18.031312"><ele>5.5</ele><time>2026-04-04T16:36:43.186Z</time></trkpt><trkpt lat="40.0320809" lon="18.031407"><ele>5.75</ele><time>2026-04-04T16:36:44.184Z</time></trkpt><trkpt lat="40.0319408" lon="18.0314728"><ele>6.0</ele><time>2026-04-04T16:36:45.185Z</time></trkpt><trkpt lat="40.0318036" lon="18.031497"><ele>6.0</ele><time>2026-04-04T16:36:46.185Z</time></trkpt><trkpt lat="40.0316731" lon="18.031475"><ele>6.0</ele><time>2026-04-04T16:36:47.185Z</time></trkpt><trkpt lat="40.0315589" lon="18.0314256"><ele>6.0</ele><time>2026-04-04T16:36:48.185Z</time></trkpt><trkpt lat="40.0314547" lon="18.0313464"><ele>6.0</ele><time>2026-04-04T16:36:49.185Z</time></trkpt><trkpt lat="40.031367" lon="18.0312464"><ele>5.8</ele><time>2026-04-04T16:36:50.186Z</time></trkpt><trkpt lat="40.0313056" lon="18.0311245"><ele>5.6</ele><time>2026-04-04T16:36:51.184Z</time></trkpt><trkpt lat="40.0312725" lon="18.0309945"><ele>5.4</ele><time>2026-04-04T16:36:52.184Z</time></trkpt><trkpt lat="40.031271" lon="18.0308664"><ele>5.2</ele><time>2026-04-04T16:36:53.184Z</time></trkpt><trkpt lat="40.031297" lon="18.0307523"><ele>5.0</ele><time>2026-04-04T16:36:54.185Z</time></trkpt><trkpt lat="40.031331" lon="18.0306419"><ele>5.0</ele><time>2026-04-04T16:36:55.185Z</time></trkpt><trkpt lat="40.0313932" lon="18.030544"><ele>5.0</ele><time>2026-04-04T16:36:56.184Z</time></trkpt><trkpt lat="40.0314713" lon="18.0304465"><ele>5.0</ele><time>2026-04-04T16:36:57.185Z</time></trkpt><trkpt lat="40.0315822" lon="18.0303199"><ele>5.0</ele><time>2026-04-04T16:36:58.184Z</time></trkpt><trkpt lat="40.0316995" lon="18.0301811"><ele>5.0</ele><time>2026-04-04T16:36:59.184Z</time></trkpt><trkpt lat="40.0318382" lon="18.0300151"><ele>5.0</ele><time>2026-04-04T16:37:00.185Z</time></trkpt><trkpt lat="40.0320056" lon="18.0298276"><ele>5.0</ele><time>2026-04-04T16:37:01.186Z</time></trkpt><trkpt lat="40.032192" lon="18.0296105"><ele>4.5</ele><time>2026-04-04T16:37:02.184Z</time></trkpt><trkpt lat="40.0324052" lon="18.0293754"><ele>4.0</ele><time>2026-04-04T16:37:03.186Z</time></trkpt><trkpt lat="40.0326336" lon="18.0291103"><ele>2.5</ele><time>2026-04-04T16:37:04.184Z</time></trkpt><trkpt lat="40.0328865" lon="18.0288299"><ele>1.0</ele><time>2026-04-04T16:37:05.185Z</time></trkpt><trkpt lat="40.0331546" lon="18.0285347"><ele>1.5</ele><time>2026-04-04T16:37:06.185Z</time></trkpt><trkpt lat="40.0334394" lon="18.028215"><ele>2.0</ele><time>2026-04-04T16:37:07.184Z</time></trkpt><trkpt lat="40.0337423" lon="18.0278659"><ele>2.0</ele><time>2026-04-04T16:37:08.185Z</time></trkpt><trkpt lat="40.034063" lon="18.0275151"><ele>2.0</ele><time>2026-04-04T16:37:09.184Z</time></trkpt><trkpt lat="40.0344011" lon="18.0271457"><ele>1.0</ele><time>2026-04-04T16:37:10.185Z</time></trkpt><trkpt lat="40.0347527" lon="18.0267609"><ele>2.0</ele><time>2026-04-04T16:37:11.183Z</time></trkpt><trkpt lat="40.0351173" lon="18.0263595"><ele>2.0</ele><time>2026-04-04T16:37:12.184Z</time></trkpt><trkpt lat="40.0354871" lon="18.0259585"><ele>1.0</ele><time>2026-04-04T16:37:13.184Z</time></trkpt><trkpt lat="40.0358592" lon="18.0255559"><ele>1.0</ele><time>2026-04-04T16:37:14.186Z</time></trkpt><trkpt lat="40.0362285" lon="18.0251571"><ele>1.0</ele><time>2026-04-04T16:37:15.184Z</time></trkpt><trkpt lat="40.0365905" lon="18.0247589"><ele>2.0</ele><time>2026-04-04T16:37:16.185Z</time></trkpt><trkpt lat="40.0369474" lon="18.0243677"><ele>0.0</ele><time>2026-04-04T16:37:17.185Z</time></trkpt><trkpt lat="40.037301" lon="18.0239793"><ele>0.5</ele><time>2026-04-04T16:37:18.185Z</time></trkpt><trkpt lat="40.0376453" lon="18.0236073"><ele>1.0</ele><time>2026-04-04T16:37:19.186Z</time></trkpt><trkpt lat="40.0379724" lon="18.0232542"><ele>1.0</ele><time>2026-04-04T16:37:20.184Z</time></trkpt><trkpt lat="40.0382943" lon="18.02291"><ele>1.0</ele><time>2026-04-04T16:37:21.185Z</time></trkpt><trkpt lat="40.0385947" lon="18.0225748"><ele>1.0</ele><time>2026-04-04T16:37:22.186Z</time></trkpt><trkpt lat="40.0388835" lon="18.0222618"><ele>1.0</ele><time>2026-04-04T16:37:23.185Z</time></trkpt><trkpt lat="40.0391645" lon="18.0219643"><ele>1.0</ele><time>2026-04-04T16:37:24.184Z</time></trkpt><trkpt lat="40.0394382" lon="18.0216827"><ele>1.0</ele><time>2026-04-04T16:37:25.185Z</time></trkpt><trkpt lat="40.0397047" lon="18.0214114"><ele>1.0</ele><time>2026-04-04T16:37:26.185Z</time></trkpt><trkpt lat="40.0399698" lon="18.0211565"><ele>1.0</ele><time>2026-04-04T16:37:27.186Z</time></trkpt><trkpt lat="40.040236" lon="18.0209247"><ele>2.0</ele><time>2026-04-04T16:37:28.184Z</time></trkpt><trkpt lat="40.0405062" lon="18.0207153"><ele>3.0</ele><time>2026-04-04T16:37:29.185Z</time></trkpt><trkpt lat="40.0407801" lon="18.0205277"><ele>2.5</ele><time>2026-04-04T16:37:30.184Z</time></trkpt><trkpt lat="40.0410581" lon="18.0203563"><ele>2.0</ele><time>2026-04-04T16:37:31.185Z</time></trkpt><trkpt lat="40.0413331" lon="18.0201975"><ele>2.0</ele><time>2026-04-04T16:37:32.185Z</time></trkpt><trkpt lat="40.0416144" lon="18.0200503"><ele>2.0</ele><time>2026-04-04T16:37:33.184Z</time></trkpt><trkpt lat="40.0419116" lon="18.0199184"><ele>3.0</ele><time>2026-04-04T16:37:34.183Z</time></trkpt><trkpt lat="40.0422204" lon="18.019808"><ele>4.0</ele><time>2026-04-04T16:37:35.185Z</time></trkpt><trkpt lat="40.0425404" lon="18.0197228"><ele>5.0</ele><time>2026-04-04T16:37:36.184Z</time></trkpt><trkpt lat="40.0428693" lon="18.0196668"><ele>6.0</ele><time>2026-04-04T16:37:37.184Z</time></trkpt><trkpt lat="40.0432083" lon="18.0196344"><ele>7.0</ele><time>2026-04-04T16:37:38.183Z</time></trkpt><trkpt lat="40.0435592" lon="18.0196217"><ele>8.0</ele><time>2026-04-04T16:37:39.184Z</time></trkpt><trkpt lat="40.0439198" lon="18.0196287"><ele>8.5</ele><time>2026-04-04T16:37:40.184Z</time></trkpt><trkpt lat="40.0442887" lon="18.0196617"><ele>9.0</ele><time>2026-04-04T16:37:41.184Z</time></trkpt><trkpt lat="40.044665" lon="18.019712"><ele>9.5</ele><time>2026-04-04T16:37:42.184Z</time></trkpt><trkpt lat="40.0450507" lon="18.0197667"><ele>10.0</ele><time>2026-04-04T16:37:43.185Z</time></trkpt><trkpt lat="40.045446" lon="18.0198194"><ele>11.0</ele><time>2026-04-04T16:37:44.186Z</time></trkpt><trkpt lat="40.0458497" lon="18.019872"><ele>12.0</ele><time>2026-04-04T16:37:45.185Z</time></trkpt><trkpt lat="40.0462595" lon="18.0199272"><ele>15.5</ele><time>2026-04-04T16:37:46.184Z</time></trkpt><trkpt lat="40.0466698" lon="18.019986"><ele>19.0</ele><time>2026-04-04T16:37:47.184Z</time></trkpt><trkpt lat="40.0470814" lon="18.0200496"><ele>20.0</ele><time>2026-04-04T16:37:48.185Z</time></trkpt><trkpt lat="40.0474951" lon="18.020117"><ele>21.0</ele><time>2026-04-04T16:37:49.184Z</time></trkpt><trkpt lat="40.0479115" lon="18.0201856"><ele>20.5</ele><time>2026-04-04T16:37:50.185Z</time></trkpt><trkpt lat="40.0483259" lon="18.020249"><ele>20.0</ele><time>2026-04-04T16:37:51.185Z</time></trkpt><trkpt lat="40.0487412" lon="18.0203113"><ele>19.0</ele><time>2026-04-04T16:37:52.184Z</time></trkpt><trkpt lat="40.0491543" lon="18.0203698"><ele>18.0</ele><time>2026-04-04T16:37:53.184Z</time></trkpt><trkpt lat="40.0495666" lon="18.0204287"><ele>18.0</ele><time>2026-04-04T16:37:54.185Z</time></trkpt><trkpt lat="40.0499844" lon="18.0204803"><ele>18.0</ele><time>2026-04-04T16:37:55.185Z</time></trkpt><trkpt lat="40.0504045" lon="18.0205183"><ele>17.5</ele><time>2026-04-04T16:37:56.185Z</time></trkpt><trkpt lat="40.0508257" lon="18.0205357"><ele>17.0</ele><time>2026-04-04T16:37:57.183Z</time></trkpt><trkpt lat="40.0512415" lon="18.0205357"><ele>17.5</ele><time>2026-04-04T16:37:58.185Z</time></trkpt><trkpt lat="40.0516555" lon="18.0205237"><ele>18.0</ele><time>2026-04-04T16:37:59.185Z</time></trkpt><trkpt lat="40.0520694" lon="18.020491"><ele>20.0</ele><time>2026-04-04T16:38:00.185Z</time></trkpt><trkpt lat="40.0524866" lon="18.0204499"><ele>22.0</ele><time>2026-04-04T16:38:01.185Z</time></trkpt><trkpt lat="40.0529066" lon="18.0203972"><ele>22.5</ele><time>2026-04-04T16:38:02.185Z</time></trkpt><trkpt lat="40.0533227" lon="18.0203291"><ele>23.0</ele><time>2026-04-04T16:38:03.184Z</time></trkpt><trkpt lat="40.0537321" lon="18.0202428"><ele>24.5</ele><time>2026-04-04T16:38:04.185Z</time></trkpt><trkpt lat="40.0541438" lon="18.0201446"><ele>26.0</ele><time>2026-04-04T16:38:05.185Z</time></trkpt><trkpt lat="40.054548" lon="18.02003"><ele>26.5</ele><time>2026-04-04T16:38:06.186Z</time></trkpt><trkpt lat="40.0549518" lon="18.0198989"><ele>27.0</ele><time>2026-04-04T16:38:07.186Z</time></trkpt><trkpt lat="40.0553545" lon="18.0197487"><ele>27.0</ele><time>2026-04-04T16:38:08.184Z</time></trkpt><trkpt lat="40.0557511" lon="18.0195835"><ele>27.0</ele><time>2026-04-04T16:38:09.185Z</time></trkpt><trkpt lat="40.0561496" lon="18.0194009"><ele>30.5</ele><time>2026-04-04T16:38:10.185Z</time></trkpt><trkpt lat="40.0565459" lon="18.0192065"><ele>34.0</ele><time>2026-04-04T16:38:11.184Z</time></trkpt><trkpt lat="40.0569404" lon="18.019006"><ele>37.0</ele><time>2026-04-04T16:38:12.186Z</time></trkpt><trkpt lat="40.057334" lon="18.0188028"><ele>40.0</ele><time>2026-04-04T16:38:13.184Z</time></trkpt><trkpt lat="40.0577334" lon="18.0185978"><ele>41.5</ele><time>2026-04-04T16:38:14.183Z</time></trkpt><trkpt lat="40.0581342" lon="18.0183871"><ele>43.0</ele><time>2026-04-04T16:38:15.184Z</time></trkpt><trkpt lat="40.0585389" lon="18.0181708"><ele>43.0</ele><time>2026-04-04T16:38:16.186Z</time></trkpt><trkpt lat="40.0589604" lon="18.0179476"><ele>44.0</ele><time>2026-04-04T16:38:17.185Z</time></trkpt><trkpt lat="40.0593818" lon="18.017726"><ele>44.0</ele><time>2026-04-04T16:38:18.184Z</time></trkpt><trkpt lat="40.059821" lon="18.0174902"><ele>43.0</ele><time>2026-04-04T16:38:19.186Z</time></trkpt><trkpt lat="40.0602518" lon="18.0172615"><ele>43.0</ele><time>2026-04-04T16:38:20.185Z</time></trkpt><trkpt lat="40.060679" lon="18.0170313"><ele>43.5</ele><time>2026-04-04T16:38:21.184Z</time></trkpt><trkpt lat="40.061085" lon="18.0168208"><ele>44.0</ele><time>2026-04-04T16:38:22.185Z</time></trkpt><trkpt lat="40.061481" lon="18.0166082"><ele>46.0</ele><time>2026-04-04T16:38:23.185Z</time></trkpt><trkpt lat="40.0618672" lon="18.0163939"><ele>48.0</ele><time>2026-04-04T16:38:24.185Z</time></trkpt><trkpt lat="40.0622468" lon="18.0161907"><ele>47.5</ele><time>2026-04-04T16:38:25.185Z</time></trkpt><trkpt lat="40.062623" lon="18.0159934"><ele>47.0</ele><time>2026-04-04T16:38:26.184Z</time></trkpt><trkpt lat="40.0629935" lon="18.0157947"><ele>44.5</ele><time>2026-04-04T16:38:27.184Z</time></trkpt><trkpt lat="40.0633512" lon="18.0156091"><ele>42.0</ele><time>2026-04-04T16:38:28.184Z</time></trkpt><trkpt lat="40.0636851" lon="18.0154368"><ele>42.0</ele><time>2026-04-04T16:38:29.184Z</time></trkpt><trkpt lat="40.0640017" lon="18.0152845"><ele>42.0</ele><time>2026-04-04T16:38:30.184Z</time></trkpt><trkpt lat="40.0643003" lon="18.015147"><ele>36.5</ele><time>2026-04-04T16:38:31.184Z</time></trkpt><trkpt lat="40.064586" lon="18.0150247"><ele>31.0</ele><time>2026-04-04T16:38:32.185Z</time></trkpt><trkpt lat="40.0648649" lon="18.0149069"><ele>26.0</ele><time>2026-04-04T16:38:33.185Z</time></trkpt><trkpt lat="40.065137" lon="18.0147893"><ele>21.0</ele><time>2026-04-04T16:38:34.184Z</time></trkpt><trkpt lat="40.065397" lon="18.0146753"><ele>21.0</ele><time>2026-04-04T16:38:35.184Z</time></trkpt><trkpt lat="40.0656493" lon="18.0145687"><ele>21.0</ele><time>2026-04-04T16:38:36.184Z</time></trkpt><trkpt lat="40.0658827" lon="18.0144682"><ele>21.0</ele><time>2026-04-04T16:38:37.186Z</time></trkpt><trkpt lat="40.0661079" lon="18.0143732"><ele>21.0</ele><time>2026-04-04T16:38:38.184Z</time></trkpt><trkpt lat="40.066325" lon="18.0142818"><ele>21.0</ele><time>2026-04-04T16:38:39.186Z</time></trkpt><trkpt lat="40.066531" lon="18.014201"><ele>21.0</ele><time>2026-04-04T16:38:40.184Z</time></trkpt><trkpt lat="40.0667294" lon="18.0141206"><ele>21.0</ele><time>2026-04-04T16:38:41.184Z</time></trkpt><trkpt lat="40.0669216" lon="18.0140551"><ele>19.0</ele><time>2026-04-04T16:38:42.185Z</time></trkpt><trkpt lat="40.0670935" lon="18.0139833"><ele>17.0</ele><time>2026-04-04T16:38:43.185Z</time></trkpt><trkpt lat="40.0672561" lon="18.0139113"><ele>15.0</ele><time>2026-04-04T16:38:44.185Z</time></trkpt><trkpt lat="40.0674032" lon="18.0138662"><ele>15.25</ele><time>2026-04-04T16:38:45.185Z</time></trkpt><trkpt lat="40.0675423" lon="18.0138504"><ele>15.5</ele><time>2026-04-04T16:38:46.184Z</time></trkpt><trkpt lat="40.067672" lon="18.0138756"><ele>15.75</ele><time>2026-04-04T16:38:47.184Z</time></trkpt><trkpt lat="40.0677864" lon="18.0139429"><ele>16.0</ele><time>2026-04-04T16:38:48.186Z</time></trkpt><trkpt lat="40.0678871" lon="18.0140436"><ele>16.5</ele><time>2026-04-04T16:38:49.184Z</time></trkpt><trkpt lat="40.0679618" lon="18.0141876"><ele>17.0</ele><time>2026-04-04T16:38:50.185Z</time></trkpt><trkpt lat="40.0680238" lon="18.0143484"><ele>17.5</ele><time>2026-04-04T16:38:51.184Z</time></trkpt><trkpt lat="40.0680971" lon="18.0144963"><ele>18.0</ele><time>2026-04-04T16:38:52.185Z</time></trkpt><trkpt lat="40.0681972" lon="18.0146277"><ele>17.0</ele><time>2026-04-04T16:38:53.185Z</time></trkpt><trkpt lat="40.0683209" lon="18.0147244"><ele>16.0</ele><time>2026-04-04T16:38:54.186Z</time></trkpt><trkpt lat="40.0684616" lon="18.014765"><ele>15.0</ele><time>2026-04-04T16:38:55.185Z</time></trkpt><trkpt lat="40.0686091" lon="18.0147681"><ele>14.0</ele><time>2026-04-04T16:38:56.184Z</time></trkpt><trkpt lat="40.0687578" lon="18.0147432"><ele>14.0</ele><time>2026-04-04T16:38:57.184Z</time></trkpt><trkpt lat="40.0689044" lon="18.0147096"><ele>14.0</ele><time>2026-04-04T16:38:58.186Z</time></trkpt><trkpt lat="40.069049" lon="18.0146797"><ele>14.0</ele><time>2026-04-04T16:38:59.186Z</time></trkpt><trkpt lat="40.0691908" lon="18.0146495"><ele>14.0</ele><time>2026-04-04T16:39:00.184Z</time></trkpt><trkpt lat="40.0693268" lon="18.0146162"><ele>13.5</ele><time>2026-04-04T16:39:01.185Z</time></trkpt><trkpt lat="40.0694581" lon="18.0145799"><ele>13.0</ele><time>2026-04-04T16:39:02.185Z</time></trkpt><trkpt lat="40.0695826" lon="18.0145544"><ele>12.5</ele><time>2026-04-04T16:39:03.185Z</time></trkpt><trkpt lat="40.0696985" lon="18.0145391"><ele>12.0</ele><time>2026-04-04T16:39:04.185Z</time></trkpt><trkpt lat="40.0698008" lon="18.0145266"><ele>12.0</ele><time>2026-04-04T16:39:05.184Z</time></trkpt><trkpt lat="40.0698855" lon="18.0145225"><ele>12.0</ele><time>2026-04-04T16:39:06.184Z</time></trkpt><trkpt lat="40.0699532" lon="18.0145121"><ele>12.0</ele><time>2026-04-04T16:39:07.184Z</time></trkpt><trkpt lat="40.0700285" lon="18.0144709"><ele>12.0</ele><time>2026-04-04T16:39:09.186Z</time></trkpt><trkpt lat="40.0700647" lon="18.0143887"><ele>12.0</ele><time>2026-04-04T16:39:12.185Z</time></trkpt><trkpt lat="40.0700696" lon="18.0142288"><ele>12.0</ele><time>2026-04-04T16:39:14.185Z</time></trkpt><trkpt lat="40.0700541" lon="18.0141156"><ele>11.75</ele><time>2026-04-04T16:39:15.185Z</time></trkpt><trkpt lat="40.0700207" lon="18.0139826"><ele>11.5</ele><time>2026-04-04T16:39:16.184Z</time></trkpt><trkpt lat="40.0699832" lon="18.0138248"><ele>11.25</ele><time>2026-04-04T16:39:17.184Z</time></trkpt><trkpt lat="40.0699427" lon="18.0136589"><ele>11.0</ele><time>2026-04-04T16:39:18.184Z</time></trkpt><trkpt lat="40.0698987" lon="18.0134821"><ele>10.666666666666666</ele><time>2026-04-04T16:39:19.185Z</time></trkpt><trkpt lat="40.0698471" lon="18.0132945"><ele>10.333333333333334</ele><time>2026-04-04T16:39:20.186Z</time></trkpt><trkpt lat="40.0697936" lon="18.0130996"><ele>10.0</ele><time>2026-04-04T16:39:21.185Z</time></trkpt><trkpt lat="40.0697451" lon="18.0128976"><ele>10.0</ele><time>2026-04-04T16:39:22.186Z</time></trkpt><trkpt lat="40.06969" lon="18.0126838"><ele>10.0</ele><time>2026-04-04T16:39:23.185Z</time></trkpt><trkpt lat="40.0696303" lon="18.0124614"><ele>10.0</ele><time>2026-04-04T16:39:24.184Z</time></trkpt><trkpt lat="40.0695727" lon="18.0122385"><ele>9.333333333333334</ele><time>2026-04-04T16:39:25.185Z</time></trkpt><trkpt lat="40.0695134" lon="18.0120108"><ele>8.666666666666666</ele><time>2026-04-04T16:39:26.185Z</time></trkpt><trkpt lat="40.06945" lon="18.0117793"><ele>8.0</ele><time>2026-04-04T16:39:27.185Z</time></trkpt><trkpt lat="40.0693875" lon="18.011542"><ele>7.333333333333333</ele><time>2026-04-04T16:39:28.185Z</time></trkpt><trkpt lat="40.0693285" lon="18.0113028"><ele>6.666666666666666</ele><time>2026-04-04T16:39:29.185Z</time></trkpt><trkpt lat="40.069275" lon="18.0110758"><ele>6.0</ele><time>2026-04-04T16:39:30.184Z</time></trkpt><trkpt lat="40.0692242" lon="18.0108657"><ele>6.0</ele><time>2026-04-04T16:39:31.184Z</time></trkpt><trkpt lat="40.0691712" lon="18.0106687"><ele>6.0</ele><time>2026-04-04T16:39:32.186Z</time></trkpt><trkpt lat="40.0691248" lon="18.0104822"><ele>6.0</ele><time>2026-04-04T16:39:33.184Z</time></trkpt><trkpt lat="40.0690795" lon="18.0103049"><ele>6.0</ele><time>2026-04-04T16:39:34.185Z</time></trkpt><trkpt lat="40.0690374" lon="18.0101303"><ele>6.0</ele><time>2026-04-04T16:39:35.186Z</time></trkpt><trkpt lat="40.0689942" lon="18.0099557"><ele>6.0</ele><time>2026-04-04T16:39:36.186Z</time></trkpt><trkpt lat="40.0689413" lon="18.0097707"><ele>6.0</ele><time>2026-04-04T16:39:37.185Z</time></trkpt><trkpt lat="40.0688963" lon="18.0095838"><ele>5.666666666666667</ele><time>2026-04-04T16:39:38.184Z</time></trkpt><trkpt lat="40.0688416" lon="18.009386"><ele>5.333333333333334</ele><time>2026-04-04T16:39:39.186Z</time></trkpt><trkpt lat="40.0687916" lon="18.0091867"><ele>5.0</ele><time>2026-04-04T16:39:40.185Z</time></trkpt><trkpt lat="40.0687393" lon="18.0089775"><ele>5.0</ele><time>2026-04-04T16:39:41.184Z</time></trkpt><trkpt lat="40.0686893" lon="18.0087576"><ele>5.0</ele><time>2026-04-04T16:39:42.185Z</time></trkpt><trkpt lat="40.0686326" lon="18.0085236"><ele>5.0</ele><time>2026-04-04T16:39:43.185Z</time></trkpt><trkpt lat="40.068571" lon="18.0082773"><ele>5.0</ele><time>2026-04-04T16:39:44.186Z</time></trkpt><trkpt lat="40.0685055" lon="18.0080248"><ele>5.0</ele><time>2026-04-04T16:39:45.185Z</time></trkpt><trkpt lat="40.0684403" lon="18.007773"><ele>5.0</ele><time>2026-04-04T16:39:46.184Z</time></trkpt><trkpt lat="40.0683738" lon="18.0075173"><ele>5.0</ele><time>2026-04-04T16:39:47.186Z</time></trkpt><trkpt lat="40.0683078" lon="18.0072553"><ele>5.0</ele><time>2026-04-04T16:39:48.186Z</time></trkpt><trkpt lat="40.0682402" lon="18.0069913"><ele>5.0</ele><time>2026-04-04T16:39:49.184Z</time></trkpt><trkpt lat="40.0681746" lon="18.006719"><ele>5.0</ele><time>2026-04-04T16:39:50.184Z</time></trkpt><trkpt lat="40.0681059" lon="18.0064409"><ele>5.0</ele><time>2026-04-04T16:39:51.185Z</time></trkpt><trkpt lat="40.068034" lon="18.0061593"><ele>5.0</ele><time>2026-04-04T16:39:52.185Z</time></trkpt><trkpt lat="40.0679609" lon="18.0058764"><ele>5.0</ele><time>2026-04-04T16:39:53.184Z</time></trkpt><trkpt lat="40.0678926" lon="18.0055972"><ele>4.333333333333334</ele><time>2026-04-04T16:39:54.186Z</time></trkpt><trkpt lat="40.0678272" lon="18.0053329"><ele>3.666666666666667</ele><time>2026-04-04T16:39:55.186Z</time></trkpt><trkpt lat="40.0677625" lon="18.0050847"><ele>3.0</ele><time>2026-04-04T16:39:56.184Z</time></trkpt><trkpt lat="40.0677071" lon="18.0048629"><ele>2.6</ele><time>2026-04-04T16:39:57.185Z</time></trkpt><trkpt lat="40.0676673" lon="18.0046893"><ele>2.1999999999999997</ele><time>2026-04-04T16:39:58.184Z</time></trkpt><trkpt lat="40.0676462" lon="18.0045405"><ele>1.8</ele><time>2026-04-04T16:39:59.184Z</time></trkpt><trkpt lat="40.0676439" lon="18.0044227"><ele>1.4</ele><time>2026-04-04T16:40:00.184Z</time></trkpt><trkpt lat="40.0676647" lon="18.0043204"><ele>1.0</ele><time>2026-04-04T16:40:01.184Z</time></trkpt><trkpt lat="40.0677091" lon="18.004245"><ele>0.9999999999999999</ele><time>2026-04-04T16:40:02.185Z</time></trkpt><trkpt lat="40.0677698" lon="18.0042018"><ele>1.0</ele><time>2026-04-04T16:40:03.186Z</time></trkpt><trkpt lat="40.0678404" lon="18.0041881"><ele>1.0</ele><time>2026-04-04T16:40:04.185Z</time></trkpt><trkpt lat="40.0679239" lon="18.0042025"><ele>1.0</ele><time>2026-04-04T16:40:05.184Z</time></trkpt><trkpt lat="40.068014" lon="18.0042206"><ele>0.9999999999999999</ele><time>2026-04-04T16:40:06.184Z</time></trkpt><trkpt lat="40.0681065" lon="18.0041962"><ele>1.0</ele><time>2026-04-04T16:40:07.185Z</time></trkpt><trkpt lat="40.068194" lon="18.0041338"><ele>1.2000000000000002</ele><time>2026-04-04T16:40:08.185Z</time></trkpt><trkpt lat="40.0682678" lon="18.004042"><ele>1.4000000000000001</ele><time>2026-04-04T16:40:09.184Z</time></trkpt><trkpt lat="40.0683449" lon="18.0039495"><ele>1.6</ele><time>2026-04-04T16:40:10.184Z</time></trkpt><trkpt lat="40.0684344" lon="18.0038925"><ele>1.8</ele><time>2026-04-04T16:40:11.186Z</time></trkpt><trkpt lat="40.068537" lon="18.003883"><ele>2.0</ele><time>2026-04-04T16:40:12.184Z</time></trkpt><trkpt lat="40.0686616" lon="18.0039213"><ele>2.0</ele><time>2026-04-04T16:40:13.184Z</time></trkpt><trkpt lat="40.0688025" lon="18.0039889"><ele>2.0</ele><time>2026-04-04T16:40:14.185Z</time></trkpt><trkpt lat="40.0689561" lon="18.0040643"><ele>2.0</ele><time>2026-04-04T16:40:15.185Z</time></trkpt><trkpt lat="40.069126" lon="18.0041465"><ele>2.0</ele><time>2026-04-04T16:40:16.186Z</time></trkpt><trkpt lat="40.0693086" lon="18.0042358"><ele>2.0</ele><time>2026-04-04T16:40:17.184Z</time></trkpt><trkpt lat="40.0694981" lon="18.0043274"><ele>2.0</ele><time>2026-04-04T16:40:18.184Z</time></trkpt><trkpt lat="40.069696" lon="18.0044193"><ele>2.0</ele><time>2026-04-04T16:40:19.184Z</time></trkpt><trkpt lat="40.0698975" lon="18.0045178"><ele>2.0</ele><time>2026-04-04T16:40:20.184Z</time></trkpt><trkpt lat="40.0701011" lon="18.004618"><ele>2.0</ele><time>2026-04-04T16:40:21.184Z</time></trkpt><trkpt lat="40.0703087" lon="18.0047176"><ele>1.5</ele><time>2026-04-04T16:40:22.185Z</time></trkpt><trkpt lat="40.0705206" lon="18.0048202"><ele>1.0</ele><time>2026-04-04T16:40:23.185Z</time></trkpt><trkpt lat="40.0707357" lon="18.0049223"><ele>1.5</ele><time>2026-04-04T16:40:24.184Z</time></trkpt><trkpt lat="40.0709553" lon="18.0050251"><ele>2.0</ele><time>2026-04-04T16:40:25.185Z</time></trkpt><trkpt lat="40.0711801" lon="18.0051327"><ele>2.0</ele><time>2026-04-04T16:40:26.184Z</time></trkpt><trkpt lat="40.0714074" lon="18.0052428"><ele>2.0</ele><time>2026-04-04T16:40:27.185Z</time></trkpt><trkpt lat="40.0716387" lon="18.0053514"><ele>0.5</ele><time>2026-04-04T16:40:28.184Z</time></trkpt><trkpt lat="40.0718742" lon="18.0054562"><ele>-1.0</ele><time>2026-04-04T16:40:29.185Z</time></trkpt><trkpt lat="40.0721123" lon="18.0055597"><ele>-1.0</ele><time>2026-04-04T16:40:30.184Z</time></trkpt><trkpt lat="40.0723495" lon="18.0056732"><ele>-1.0</ele><time>2026-04-04T16:40:31.184Z</time></trkpt><trkpt lat="40.0725869" lon="18.0057963"><ele>-0.5</ele><time>2026-04-04T16:40:32.184Z</time></trkpt><trkpt lat="40.0728253" lon="18.005924"><ele>0.0</ele><time>2026-04-04T16:40:33.184Z</time></trkpt><trkpt lat="40.0730672" lon="18.0060448"><ele>0.5</ele><time>2026-04-04T16:40:34.185Z</time></trkpt><trkpt lat="40.0733138" lon="18.00615"><ele>1.0</ele><time>2026-04-04T16:40:35.185Z</time></trkpt><trkpt lat="40.0735652" lon="18.0062403"><ele>1.0</ele><time>2026-04-04T16:40:36.185Z</time></trkpt><trkpt lat="40.0738203" lon="18.0063199"><ele>1.0</ele><time>2026-04-04T16:40:37.185Z</time></trkpt><trkpt lat="40.0740772" lon="18.0063974"><ele>0.0</ele><time>2026-04-04T16:40:38.185Z</time></trkpt><trkpt lat="40.0743354" lon="18.0064766"><ele>-1.0</ele><time>2026-04-04T16:40:39.185Z</time></trkpt><trkpt lat="40.0745953" lon="18.0065559"><ele>-1.0</ele><time>2026-04-04T16:40:40.186Z</time></trkpt><trkpt lat="40.0748585" lon="18.0066358"><ele>-1.0</ele><time>2026-04-04T16:40:41.185Z</time></trkpt><trkpt lat="40.0751245" lon="18.0067171"><ele>0.5</ele><time>2026-04-04T16:40:42.185Z</time></trkpt><trkpt lat="40.0753928" lon="18.006799"><ele>2.0</ele><time>2026-04-04T16:40:43.185Z</time></trkpt><trkpt lat="40.0756637" lon="18.0068811"><ele>0.5</ele><time>2026-04-04T16:40:44.185Z</time></trkpt><trkpt lat="40.0759362" lon="18.0069642"><ele>-1.0</ele><time>2026-04-04T16:40:45.185Z</time></trkpt><trkpt lat="40.0762091" lon="18.0070481"><ele>-1.0</ele><time>2026-04-04T16:40:46.185Z</time></trkpt><trkpt lat="40.0764827" lon="18.0071291"><ele>-1.0</ele><time>2026-04-04T16:40:47.186Z</time></trkpt><trkpt lat="40.0767555" lon="18.0072089"><ele>-0.5</ele><time>2026-04-04T16:40:48.184Z</time></trkpt><trkpt lat="40.0770237" lon="18.0072903"><ele>0.0</ele><time>2026-04-04T16:40:49.185Z</time></trkpt><trkpt lat="40.077289" lon="18.007371"><ele>0.0</ele><time>2026-04-04T16:40:50.185Z</time></trkpt><trkpt lat="40.0775527" lon="18.0074496"><ele>0.0</ele><time>2026-04-04T16:40:51.186Z</time></trkpt><trkpt lat="40.0778126" lon="18.0075325"><ele>0.0</ele><time>2026-04-04T16:40:52.185Z</time></trkpt><trkpt lat="40.0780719" lon="18.0076332"><ele>0.0</ele><time>2026-04-04T16:40:53.185Z</time></trkpt><trkpt lat="40.0783256" lon="18.0077626"><ele>0.0</ele><time>2026-04-04T16:40:54.185Z</time></trkpt><trkpt lat="40.078566" lon="18.0079193"><ele>0.0</ele><time>2026-04-04T16:40:55.185Z</time></trkpt><trkpt lat="40.0787902" lon="18.0080978"><ele>0.0</ele><time>2026-04-04T16:40:56.185Z</time></trkpt><trkpt lat="40.0790002" lon="18.0082796"><ele>0.0</ele><time>2026-04-04T16:40:57.185Z</time></trkpt><trkpt lat="40.0792031" lon="18.0084579"><ele>0.5</ele><time>2026-04-04T16:40:58.186Z</time></trkpt><trkpt lat="40.0794012" lon="18.0086283"><ele>1.0</ele><time>2026-04-04T16:40:59.185Z</time></trkpt><trkpt lat="40.0795989" lon="18.0087844"><ele>1.0</ele><time>2026-04-04T16:41:00.184Z</time></trkpt><trkpt lat="40.0797983" lon="18.0089329"><ele>1.0</ele><time>2026-04-04T16:41:01.185Z</time></trkpt><trkpt lat="40.0799937" lon="18.0090699"><ele>2.0</ele><time>2026-04-04T16:41:02.184Z</time></trkpt><trkpt lat="40.0801823" lon="18.0091999"><ele>3.0</ele><time>2026-04-04T16:41:03.185Z</time></trkpt><trkpt lat="40.0803575" lon="18.0093192"><ele>4.0</ele><time>2026-04-04T16:41:04.184Z</time></trkpt><trkpt lat="40.080515" lon="18.0094251"><ele>4.0</ele><time>2026-04-04T16:41:05.185Z</time></trkpt><trkpt lat="40.0806581" lon="18.0095189"><ele>4.0</ele><time>2026-04-04T16:41:06.184Z</time></trkpt><trkpt lat="40.0807797" lon="18.0095971"><ele>4.0</ele><time>2026-04-04T16:41:07.186Z</time></trkpt><trkpt lat="40.0808812" lon="18.0096632"><ele>4.0</ele><time>2026-04-04T16:41:08.186Z</time></trkpt><trkpt lat="40.0810068" lon="18.0097354"><ele>4.25</ele><time>2026-04-04T16:41:09.186Z</time></trkpt><trkpt lat="40.081133" lon="18.0098215"><ele>4.5</ele><time>2026-04-04T16:41:10.185Z</time></trkpt><trkpt lat="40.0812482" lon="18.009914"><ele>4.75</ele><time>2026-04-04T16:41:11.185Z</time></trkpt><trkpt lat="40.0813594" lon="18.009993"><ele>5.0</ele><time>2026-04-04T16:41:12.186Z</time></trkpt><trkpt lat="40.0814775" lon="18.0100645"><ele>5.333333333333334</ele><time>2026-04-04T16:41:13.184Z</time></trkpt><trkpt lat="40.0816134" lon="18.0101423"><ele>5.666666666666667</ele><time>2026-04-04T16:41:14.184Z</time></trkpt><trkpt lat="40.081757" lon="18.0102453"><ele>6.0</ele><time>2026-04-04T16:41:15.184Z</time></trkpt><trkpt lat="40.0818976" lon="18.0103553"><ele>6.0</ele><time>2026-04-04T16:41:16.184Z</time></trkpt><trkpt lat="40.0820371" lon="18.0104642"><ele>6.0</ele><time>2026-04-04T16:41:17.185Z</time></trkpt><trkpt lat="40.082172" lon="18.0105654"><ele>6.0</ele><time>2026-04-04T16:41:18.184Z</time></trkpt><trkpt lat="40.0822921" lon="18.0106592"><ele>6.0</ele><time>2026-04-04T16:41:19.185Z</time></trkpt><trkpt lat="40.0823885" lon="18.0107306"><ele>6.0</ele><time>2026-04-04T16:41:20.185Z</time></trkpt><trkpt lat="40.0824751" lon="18.010801"><ele>6.0</ele><time>2026-04-04T16:41:21.186Z</time></trkpt><trkpt lat="40.0825928" lon="18.0108996"><ele>6.0</ele><time>2026-04-04T16:41:23.185Z</time></trkpt><trkpt lat="40.0826598" lon="18.0109525"><ele>6.0</ele><time>2026-04-04T16:41:24.184Z</time></trkpt><trkpt lat="40.0828083" lon="18.0110574"><ele>5.5</ele><time>2026-04-04T16:41:25.185Z</time></trkpt><trkpt lat="40.082924" lon="18.0111668"><ele>5.0</ele><time>2026-04-04T16:41:26.185Z</time></trkpt><trkpt lat="40.0830422" lon="18.0112711"><ele>4.5</ele><time>2026-04-04T16:41:27.185Z</time></trkpt><trkpt lat="40.0831654" lon="18.0113826"><ele>4.0</ele><time>2026-04-04T16:41:28.184Z</time></trkpt><trkpt lat="40.0832935" lon="18.0114924"><ele>4.0</ele><time>2026-04-04T16:41:29.185Z</time></trkpt><trkpt lat="40.0834235" lon="18.0116123"><ele>4.0</ele><time>2026-04-04T16:41:30.186Z</time></trkpt><trkpt lat="40.0835505" lon="18.011727"><ele>4.0</ele><time>2026-04-04T16:41:31.184Z</time></trkpt><trkpt lat="40.0836832" lon="18.0118481"><ele>4.0</ele><time>2026-04-04T16:41:32.186Z</time></trkpt><trkpt lat="40.0838186" lon="18.0119698"><ele>4.0</ele><time>2026-04-04T16:41:33.185Z</time></trkpt><trkpt lat="40.0839565" lon="18.0120991"><ele>4.0</ele><time>2026-04-04T16:41:34.186Z</time></trkpt><trkpt lat="40.0840944" lon="18.0122273"><ele>3.75</ele><time>2026-04-04T16:41:35.184Z</time></trkpt><trkpt lat="40.0842245" lon="18.0123486"><ele>3.5</ele><time>2026-04-04T16:41:36.185Z</time></trkpt><trkpt lat="40.0843395" lon="18.0124542"><ele>3.25</ele><time>2026-04-04T16:41:37.186Z</time></trkpt><trkpt lat="40.0844335" lon="18.0125366"><ele>3.0</ele><time>2026-04-04T16:41:38.184Z</time></trkpt><trkpt lat="40.0845094" lon="18.0126065"><ele>3.0</ele><time>2026-04-04T16:41:39.185Z</time></trkpt><trkpt lat="40.0845639" lon="18.0126662"><ele>3.0</ele><time>2026-04-04T16:41:40.185Z</time></trkpt><trkpt lat="40.0846527" lon="18.0127487"><ele>3.0</ele><time>2026-04-04T16:41:42.185Z</time></trkpt><trkpt lat="40.0847486" lon="18.0128251"><ele>3.0</ele><time>2026-04-04T16:41:44.184Z</time></trkpt><trkpt lat="40.0848497" lon="18.0129091"><ele>3.0</ele><time>2026-04-04T16:41:46.184Z</time></trkpt><trkpt lat="40.0849326" lon="18.0129835"><ele>2.8</ele><time>2026-04-04T16:41:48.185Z</time></trkpt><trkpt lat="40.084987" lon="18.0130405"><ele>2.5999999999999996</ele><time>2026-04-04T16:41:50.185Z</time></trkpt><trkpt lat="40.0850326" lon="18.0131027"><ele>2.4000000000000004</ele><time>2026-04-04T16:41:53.184Z</time></trkpt><trkpt lat="40.0851139" lon="18.0131539"><ele>2.2</ele><time>2026-04-04T16:42:14.186Z</time></trkpt><trkpt lat="40.0852387" lon="18.0132562"><ele>2.0</ele><time>2026-04-04T16:42:16.186Z</time></trkpt><trkpt lat="40.0853223" lon="18.0133349"><ele>2.0</ele><time>2026-04-04T16:42:17.186Z</time></trkpt><trkpt lat="40.0854233" lon="18.0134282"><ele>2.0</ele><time>2026-04-04T16:42:18.184Z</time></trkpt><trkpt lat="40.085542" lon="18.013534"><ele>2.0</ele><time>2026-04-04T16:42:19.184Z</time></trkpt><trkpt lat="40.0856688" lon="18.0136462"><ele>2.0</ele><time>2026-04-04T16:42:20.184Z</time></trkpt><trkpt lat="40.0858067" lon="18.0137685"><ele>2.333333333333333</ele><time>2026-04-04T16:42:21.185Z</time></trkpt><trkpt lat="40.0859522" lon="18.0138966"><ele>2.6666666666666665</ele><time>2026-04-04T16:42:22.185Z</time></trkpt><trkpt lat="40.0861099" lon="18.0140383"><ele>3.0</ele><time>2026-04-04T16:42:23.185Z</time></trkpt><trkpt lat="40.0862761" lon="18.0141925"><ele>3.0</ele><time>2026-04-04T16:42:24.185Z</time></trkpt><trkpt lat="40.0864442" lon="18.0143454"><ele>3.0</ele><time>2026-04-04T16:42:25.185Z</time></trkpt><trkpt lat="40.086624" lon="18.0144936"><ele>3.0</ele><time>2026-04-04T16:42:26.186Z</time></trkpt><trkpt lat="40.0868196" lon="18.0146226"><ele>3.0</ele><time>2026-04-04T16:42:27.185Z</time></trkpt><trkpt lat="40.0870311" lon="18.0147305"><ele>3.0</ele><time>2026-04-04T16:42:28.186Z</time></trkpt><trkpt lat="40.0872578" lon="18.0148275"><ele>3.0</ele><time>2026-04-04T16:42:29.184Z</time></trkpt><trkpt lat="40.0874941" lon="18.0149235"><ele>3.0</ele><time>2026-04-04T16:42:30.184Z</time></trkpt><trkpt lat="40.0877381" lon="18.0150233"><ele>2.0</ele><time>2026-04-04T16:42:31.186Z</time></trkpt><trkpt lat="40.0879914" lon="18.0151223"><ele>1.0</ele><time>2026-04-04T16:42:32.185Z</time></trkpt><trkpt lat="40.0882509" lon="18.0152196"><ele>1.0</ele><time>2026-04-04T16:42:33.186Z</time></trkpt><trkpt lat="40.0885155" lon="18.0153167"><ele>1.0</ele><time>2026-04-04T16:42:34.185Z</time></trkpt><trkpt lat="40.0887818" lon="18.0154178"><ele>1.0</ele><time>2026-04-04T16:42:35.184Z</time></trkpt><trkpt lat="40.089046" lon="18.0155198"><ele>1.0</ele><time>2026-04-04T16:42:36.184Z</time></trkpt><trkpt lat="40.0893029" lon="18.0156197"><ele>1.5</ele><time>2026-04-04T16:42:37.185Z</time></trkpt><trkpt lat="40.0895477" lon="18.0157306"><ele>2.0</ele><time>2026-04-04T16:42:38.185Z</time></trkpt><trkpt lat="40.0897808" lon="18.0158649"><ele>2.0</ele><time>2026-04-04T16:42:39.184Z</time></trkpt><trkpt lat="40.0900059" lon="18.016025"><ele>2.0</ele><time>2026-04-04T16:42:40.185Z</time></trkpt><trkpt lat="40.0902142" lon="18.0162005"><ele>2.0</ele><time>2026-04-04T16:42:41.184Z</time></trkpt><trkpt lat="40.090401" lon="18.0163862"><ele>2.0</ele><time>2026-04-04T16:42:42.185Z</time></trkpt><trkpt lat="40.0905578" lon="18.0165696"><ele>2.0</ele><time>2026-04-04T16:42:43.185Z</time></trkpt><trkpt lat="40.0906834" lon="18.0167261"><ele>1.8</ele><time>2026-04-04T16:42:44.184Z</time></trkpt><trkpt lat="40.0907792" lon="18.0168607"><ele>1.6</ele><time>2026-04-04T16:42:45.186Z</time></trkpt><trkpt lat="40.0908356" lon="18.0169728"><ele>1.4000000000000001</ele><time>2026-04-04T16:42:46.184Z</time></trkpt><trkpt lat="40.0908618" lon="18.0170605"><ele>1.2000000000000002</ele><time>2026-04-04T16:42:47.185Z</time></trkpt><trkpt lat="40.0908737" lon="18.0171789"><ele>1.0</ele><time>2026-04-04T16:42:49.185Z</time></trkpt><trkpt lat="40.0908846" lon="18.0173081"><ele>0.9999999999999999</ele><time>2026-04-04T16:42:51.184Z</time></trkpt><trkpt lat="40.0909079" lon="18.0173849"><ele>1.0</ele><time>2026-04-04T16:42:52.185Z</time></trkpt><trkpt lat="40.0909546" lon="18.0174554"><ele>1.0</ele><time>2026-04-04T16:42:53.185Z</time></trkpt><trkpt lat="40.0910198" lon="18.0175027"><ele>1.0</ele><time>2026-04-04T16:42:54.162Z</time></trkpt><trkpt lat="40.0910846" lon="18.0175341"><ele>0.9999999999999999</ele><time>2026-04-04T16:42:55.164Z</time></trkpt><trkpt lat="40.0911708" lon="18.0174974"><ele>1.0</ele><time>2026-04-04T16:42:57.165Z</time></trkpt><trkpt lat="40.0912478" lon="18.0173891"><ele>0.9999999999999999</ele><time>2026-04-04T16:42:59.17Z</time></trkpt><trkpt lat="40.091311" lon="18.0173421"><ele>1.0</ele><time>2026-04-04T16:43:00.17Z</time></trkpt><trkpt lat="40.0913851" lon="18.0173193"><ele>1.0</ele><time>2026-04-04T16:43:01.171Z</time></trkpt><trkpt lat="40.0914676" lon="18.017321"><ele>1.0</ele><time>2026-04-04T16:43:02.17Z</time></trkpt><trkpt lat="40.0915557" lon="18.0173369"><ele>0.9999999999999999</ele><time>2026-04-04T16:43:03.171Z</time></trkpt><trkpt lat="40.0916221" lon="18.0173489"><ele>1.0</ele><time>2026-04-04T16:43:04.171Z</time></trkpt><trkpt lat="40.0917117" lon="18.0173609"><ele>1.4</ele><time>2026-04-04T16:43:06.171Z</time></trkpt><trkpt lat="40.0918001" lon="18.0173793"><ele>1.8</ele><time>2026-04-04T16:43:08.17Z</time></trkpt><trkpt lat="40.091905" lon="18.0173941"><ele>2.1999999999999997</ele><time>2026-04-04T16:43:10.17Z</time></trkpt><trkpt lat="40.0920069" lon="18.0174098"><ele>2.6</ele><time>2026-04-04T16:43:12.17Z</time></trkpt><trkpt lat="40.0920511" lon="18.017344"><ele>3.0</ele><time>2026-04-04T16:43:15.171Z</time></trkpt><trkpt lat="40.0919487" lon="18.0173124"><ele>3.0</ele><time>2026-04-04T16:43:17.17Z</time></trkpt><trkpt lat="40.0918672" lon="18.0173021"><ele>3.0</ele><time>2026-04-04T16:43:18.171Z</time></trkpt><trkpt lat="40.0917635" lon="18.0172896"><ele>3.0</ele><time>2026-04-04T16:43:19.171Z</time></trkpt><trkpt lat="40.0916619" lon="18.0172773"><ele>3.0</ele><time>2026-04-04T16:43:20.17Z</time></trkpt><trkpt lat="40.0915472" lon="18.0172667"><ele>3.0</ele><time>2026-04-04T16:43:21.17Z</time></trkpt><trkpt lat="40.0914294" lon="18.0172521"><ele>2.6</ele><time>2026-04-04T16:43:22.171Z</time></trkpt><trkpt lat="40.0913321" lon="18.0172211"><ele>2.1999999999999997</ele><time>2026-04-04T16:43:23.171Z</time></trkpt><trkpt lat="40.0912313" lon="18.017177"><ele>1.8</ele><time>2026-04-04T16:43:24.184Z</time></trkpt><trkpt lat="40.0911452" lon="18.0171289"><ele>1.4</ele><time>2026-04-04T16:43:25.184Z</time></trkpt><trkpt lat="40.0910558" lon="18.0171155"><ele>1.0</ele><time>2026-04-04T16:43:26.184Z</time></trkpt><trkpt lat="40.0909796" lon="18.0171528"><ele>0.9999999999999999</ele><time>2026-04-04T16:43:27.185Z</time></trkpt><trkpt lat="40.0909289" lon="18.0172285"><ele>1.0</ele><time>2026-04-04T16:43:28.185Z</time></trkpt><trkpt lat="40.0909119" lon="18.0173242"><ele>1.0</ele><time>2026-04-04T16:43:29.185Z</time></trkpt><trkpt lat="40.0909335" lon="18.017423"><ele>1.0</ele><time>2026-04-04T16:43:30.186Z</time></trkpt><trkpt lat="40.0909933" lon="18.0175073"><ele>0.9999999999999999</ele><time>2026-04-04T16:43:31.185Z</time></trkpt><trkpt lat="40.091083" lon="18.0175768"><ele>1.0</ele><time>2026-04-04T16:43:32.185Z</time></trkpt><trkpt lat="40.0911824" lon="18.0176795"><ele>1.3333333333333333</ele><time>2026-04-04T16:43:33.185Z</time></trkpt><trkpt lat="40.0912686" lon="18.0178292"><ele>1.6666666666666665</ele><time>2026-04-04T16:43:34.184Z</time></trkpt><trkpt lat="40.0913397" lon="18.0180201"><ele>2.0</ele><time>2026-04-04T16:43:35.185Z</time></trkpt><trkpt lat="40.0914049" lon="18.0182427"><ele>2.333333333333333</ele><time>2026-04-04T16:43:36.184Z</time></trkpt><trkpt lat="40.0914695" lon="18.0184828"><ele>2.6666666666666665</ele><time>2026-04-04T16:43:37.185Z</time></trkpt><trkpt lat="40.091526" lon="18.0187282"><ele>3.0</ele><time>2026-04-04T16:43:38.184Z</time></trkpt><trkpt lat="40.0915662" lon="18.0189975"><ele>3.5</ele><time>2026-04-04T16:43:39.184Z</time></trkpt><trkpt lat="40.0916224" lon="18.0192776"><ele>4.0</ele><time>2026-04-04T16:43:40.185Z</time></trkpt><trkpt lat="40.0917129" lon="18.019573"><ele>4.0</ele><time>2026-04-04T16:43:41.185Z</time></trkpt><trkpt lat="40.0918348" lon="18.0198738"><ele>4.0</ele><time>2026-04-04T16:43:42.184Z</time></trkpt><trkpt lat="40.0919916" lon="18.0201807"><ele>4.5</ele><time>2026-04-04T16:43:43.185Z</time></trkpt><trkpt lat="40.0921777" lon="18.0204706"><ele>5.0</ele><time>2026-04-04T16:43:44.185Z</time></trkpt><trkpt lat="40.092386" lon="18.0207205"><ele>5.5</ele><time>2026-04-04T16:43:45.185Z</time></trkpt><trkpt lat="40.0926066" lon="18.0209271"><ele>6.0</ele><time>2026-04-04T16:43:46.184Z</time></trkpt><trkpt lat="40.092841" lon="18.0210931"><ele>6.0</ele><time>2026-04-04T16:43:47.184Z</time></trkpt><trkpt lat="40.0930884" lon="18.0212223"><ele>6.0</ele><time>2026-04-04T16:43:48.184Z</time></trkpt><trkpt lat="40.0933445" lon="18.0213197"><ele>6.0</ele><time>2026-04-04T16:43:49.185Z</time></trkpt><trkpt lat="40.0936085" lon="18.0213847"><ele>6.0</ele><time>2026-04-04T16:43:50.184Z</time></trkpt><trkpt lat="40.093879" lon="18.0214066"><ele>7.0</ele><time>2026-04-04T16:43:51.185Z</time></trkpt><trkpt lat="40.0941651" lon="18.021389"><ele>8.0</ele><time>2026-04-04T16:43:52.185Z</time></trkpt><trkpt lat="40.0944626" lon="18.0213517"><ele>8.0</ele><time>2026-04-04T16:43:53.185Z</time></trkpt><trkpt lat="40.0947683" lon="18.02131"><ele>8.0</ele><time>2026-04-04T16:43:54.184Z</time></trkpt><trkpt lat="40.0950762" lon="18.021267"><ele>9.0</ele><time>2026-04-04T16:43:55.184Z</time></trkpt><trkpt lat="40.0953822" lon="18.0212266"><ele>10.0</ele><time>2026-04-04T16:43:56.184Z</time></trkpt><trkpt lat="40.0956904" lon="18.0211842"><ele>9.5</ele><time>2026-04-04T16:43:57.184Z</time></trkpt><trkpt lat="40.0959929" lon="18.0211435"><ele>9.0</ele><time>2026-04-04T16:43:58.184Z</time></trkpt><trkpt lat="40.0962896" lon="18.0211049"><ele>9.0</ele><time>2026-04-04T16:43:59.184Z</time></trkpt><trkpt lat="40.0965742" lon="18.0210713"><ele>9.0</ele><time>2026-04-04T16:44:00.184Z</time></trkpt><trkpt lat="40.0968418" lon="18.0210422"><ele>9.5</ele><time>2026-04-04T16:44:01.184Z</time></trkpt><trkpt lat="40.0970754" lon="18.0210127"><ele>10.0</ele><time>2026-04-04T16:44:02.185Z</time></trkpt><trkpt lat="40.097303" lon="18.020975"><ele>11.0</ele><time>2026-04-04T16:44:03.184Z</time></trkpt><trkpt lat="40.0975322" lon="18.0208909"><ele>12.0</ele><time>2026-04-04T16:44:04.185Z</time></trkpt><trkpt lat="40.0977701" lon="18.0207663"><ele>10.0</ele><time>2026-04-04T16:44:05.184Z</time></trkpt><trkpt lat="40.0980128" lon="18.0206123"><ele>8.0</ele><time>2026-04-04T16:44:06.185Z</time></trkpt><trkpt lat="40.0982486" lon="18.0204522"><ele>8.5</ele><time>2026-04-04T16:44:07.184Z</time></trkpt><trkpt lat="40.0984856" lon="18.0202945"><ele>9.0</ele><time>2026-04-04T16:44:08.185Z</time></trkpt><trkpt lat="40.0987261" lon="18.0201515"><ele>9.0</ele><time>2026-04-04T16:44:09.186Z</time></trkpt><trkpt lat="40.0989744" lon="18.0200419"><ele>9.0</ele><time>2026-04-04T16:44:10.184Z</time></trkpt><trkpt lat="40.0992348" lon="18.0199718"><ele>7.5</ele><time>2026-04-04T16:44:11.185Z</time></trkpt><trkpt lat="40.0995078" lon="18.0199344"><ele>6.0</ele><time>2026-04-04T16:44:12.185Z</time></trkpt><trkpt lat="40.0997966" lon="18.0199184"><ele>7.0</ele><time>2026-04-04T16:44:13.186Z</time></trkpt><trkpt lat="40.100093" lon="18.0199045"><ele>8.0</ele><time>2026-04-04T16:44:14.184Z</time></trkpt><trkpt lat="40.1003883" lon="18.0198887"><ele>8.0</ele><time>2026-04-04T16:44:15.186Z</time></trkpt><trkpt lat="40.1006852" lon="18.0198769"><ele>8.0</ele><time>2026-04-04T16:44:16.184Z</time></trkpt><trkpt lat="40.1009829" lon="18.0198663"><ele>9.0</ele><time>2026-04-04T16:44:17.184Z</time></trkpt><trkpt lat="40.1012807" lon="18.019855"><ele>10.0</ele><time>2026-04-04T16:44:18.185Z</time></trkpt><trkpt lat="40.1015786" lon="18.0198407"><ele>10.5</ele><time>2026-04-04T16:44:19.186Z</time></trkpt><trkpt lat="40.101875" lon="18.0198246"><ele>11.0</ele><time>2026-04-04T16:44:20.185Z</time></trkpt><trkpt lat="40.1021568" lon="18.0198127"><ele>11.0</ele><time>2026-04-04T16:44:21.185Z</time></trkpt><trkpt lat="40.1024034" lon="18.0198033"><ele>11.0</ele><time>2026-04-04T16:44:22.185Z</time></trkpt><trkpt lat="40.1025983" lon="18.0197844"><ele>11.0</ele><time>2026-04-04T16:44:23.185Z</time></trkpt><trkpt lat="40.1027582" lon="18.0197479"><ele>11.5</ele><time>2026-04-04T16:44:24.185Z</time></trkpt><trkpt lat="40.1028775" lon="18.0196943"><ele>12.0</ele><time>2026-04-04T16:44:25.184Z</time></trkpt><trkpt lat="40.1029868" lon="18.0196275"><ele>12.5</ele><time>2026-04-04T16:44:26.185Z</time></trkpt><trkpt lat="40.1031233" lon="18.0195587"><ele>13.0</ele><time>2026-04-04T16:44:27.184Z</time></trkpt><trkpt lat="40.1032955" lon="18.0194802"><ele>13.5</ele><time>2026-04-04T16:44:28.185Z</time></trkpt><trkpt lat="40.1034995" lon="18.0193864"><ele>14.0</ele><time>2026-04-04T16:44:29.184Z</time></trkpt><trkpt lat="40.1037299" lon="18.0192762"><ele>11.5</ele><time>2026-04-04T16:44:30.184Z</time></trkpt><trkpt lat="40.1039788" lon="18.0191458"><ele>9.0</ele><time>2026-04-04T16:44:31.185Z</time></trkpt><trkpt lat="40.1042535" lon="18.0189959"><ele>9.0</ele><time>2026-04-04T16:44:32.186Z</time></trkpt><trkpt lat="40.1045418" lon="18.0188395"><ele>9.0</ele><time>2026-04-04T16:44:33.186Z</time></trkpt><trkpt lat="40.1048172" lon="18.0186915"><ele>11.5</ele><time>2026-04-04T16:44:34.185Z</time></trkpt><trkpt lat="40.1050842" lon="18.0185494"><ele>14.0</ele><time>2026-04-04T16:44:35.185Z</time></trkpt><trkpt lat="40.1053421" lon="18.0184113"><ele>12.0</ele><time>2026-04-04T16:44:36.186Z</time></trkpt><trkpt lat="40.105591" lon="18.0182786"><ele>10.0</ele><time>2026-04-04T16:44:37.186Z</time></trkpt><trkpt lat="40.1058248" lon="18.0181537"><ele>10.0</ele><time>2026-04-04T16:44:38.186Z</time></trkpt><trkpt lat="40.1060392" lon="18.0180399"><ele>10.0</ele><time>2026-04-04T16:44:39.186Z</time></trkpt><trkpt lat="40.1062365" lon="18.0179336"><ele>10.0</ele><time>2026-04-04T16:44:40.185Z</time></trkpt><trkpt lat="40.1064215" lon="18.0178289"><ele>10.0</ele><time>2026-04-04T16:44:41.185Z</time></trkpt><trkpt lat="40.1065899" lon="18.0177157"><ele>10.0</ele><time>2026-04-04T16:44:42.185Z</time></trkpt><trkpt lat="40.1067383" lon="18.0175884"><ele>10.0</ele><time>2026-04-04T16:44:43.186Z</time></trkpt><trkpt lat="40.1068698" lon="18.0174473"><ele>10.0</ele><time>2026-04-04T16:44:44.185Z</time></trkpt><trkpt lat="40.1069948" lon="18.0172918"><ele>10.0</ele><time>2026-04-04T16:44:45.185Z</time></trkpt><trkpt lat="40.1071312" lon="18.017102"><ele>10.0</ele><time>2026-04-04T16:44:46.185Z</time></trkpt><trkpt lat="40.1072894" lon="18.0168895"><ele>10.0</ele><time>2026-04-04T16:44:47.185Z</time></trkpt><trkpt lat="40.1074654" lon="18.0166862"><ele>10.0</ele><time>2026-04-04T16:44:48.184Z</time></trkpt><trkpt lat="40.1076448" lon="18.0164796"><ele>10.0</ele><time>2026-04-04T16:44:49.184Z</time></trkpt><trkpt lat="40.1078166" lon="18.0162611"><ele>10.0</ele><time>2026-04-04T16:44:50.184Z</time></trkpt><trkpt lat="40.1079793" lon="18.0160253"><ele>8.0</ele><time>2026-04-04T16:44:51.185Z</time></trkpt><trkpt lat="40.1081183" lon="18.0157657"><ele>6.0</ele><time>2026-04-04T16:44:52.185Z</time></trkpt><trkpt lat="40.1082281" lon="18.015487"><ele>8.0</ele><time>2026-04-04T16:44:53.185Z</time></trkpt><trkpt lat="40.1083104" lon="18.0151992"><ele>10.0</ele><time>2026-04-04T16:44:54.184Z</time></trkpt><trkpt lat="40.1083764" lon="18.0149143"><ele>10.0</ele><time>2026-04-04T16:44:55.185Z</time></trkpt><trkpt lat="40.108436" lon="18.0146528"><ele>10.0</ele><time>2026-04-04T16:44:56.185Z</time></trkpt><trkpt lat="40.108497" lon="18.0144273"><ele>10.0</ele><time>2026-04-04T16:44:57.185Z</time></trkpt><trkpt lat="40.1085578" lon="18.0141925"><ele>9.666666666666668</ele><time>2026-04-04T16:44:58.186Z</time></trkpt><trkpt lat="40.1086148" lon="18.0139624"><ele>9.333333333333334</ele><time>2026-04-04T16:44:59.185Z</time></trkpt><trkpt lat="40.108667" lon="18.0137362"><ele>9.0</ele><time>2026-04-04T16:45:00.184Z</time></trkpt><trkpt lat="40.108717" lon="18.0135143"><ele>8.0</ele><time>2026-04-04T16:45:01.184Z</time></trkpt><trkpt lat="40.1087661" lon="18.0133002"><ele>7.0</ele><time>2026-04-04T16:45:02.185Z</time></trkpt><trkpt lat="40.1088138" lon="18.0130981"><ele>6.0</ele><time>2026-04-04T16:45:03.185Z</time></trkpt><trkpt lat="40.1088612" lon="18.0129069"><ele>6.0</ele><time>2026-04-04T16:45:04.184Z</time></trkpt><trkpt lat="40.1089033" lon="18.0127343"><ele>6.0</ele><time>2026-04-04T16:45:05.184Z</time></trkpt><trkpt lat="40.1089382" lon="18.0125861"><ele>6.0</ele><time>2026-04-04T16:45:06.184Z</time></trkpt><trkpt lat="40.1089674" lon="18.0124579"><ele>6.0</ele><time>2026-04-04T16:45:07.184Z</time></trkpt><trkpt lat="40.1089945" lon="18.0123413"><ele>5.833333333333333</ele><time>2026-04-04T16:45:08.185Z</time></trkpt><trkpt lat="40.1090205" lon="18.0122293"><ele>5.666666666666667</ele><time>2026-04-04T16:45:09.184Z</time></trkpt><trkpt lat="40.1090457" lon="18.0121217"><ele>5.5</ele><time>2026-04-04T16:45:10.184Z</time></trkpt><trkpt lat="40.1090718" lon="18.0120186"><ele>5.333333333333334</ele><time>2026-04-04T16:45:11.185Z</time></trkpt><trkpt lat="40.1090968" lon="18.0119192"><ele>5.166666666666667</ele><time>2026-04-04T16:45:12.186Z</time></trkpt><trkpt lat="40.1091201" lon="18.0118235"><ele>5.0</ele><time>2026-04-04T16:45:13.185Z</time></trkpt><trkpt lat="40.1091426" lon="18.0117309"><ele>5.166666666666667</ele><time>2026-04-04T16:45:14.184Z</time></trkpt><trkpt lat="40.1091658" lon="18.0116386"><ele>5.333333333333334</ele><time>2026-04-04T16:45:15.185Z</time></trkpt><trkpt lat="40.1091898" lon="18.0115483"><ele>5.5</ele><time>2026-04-04T16:45:16.184Z</time></trkpt><trkpt lat="40.109214" lon="18.0114619"><ele>5.666666666666667</ele><time>2026-04-04T16:45:17.186Z</time></trkpt><trkpt lat="40.1092528" lon="18.0113287"><ele>5.833333333333333</ele><time>2026-04-04T16:45:19.185Z</time></trkpt><trkpt lat="40.1092827" lon="18.0112169"><ele>6.0</ele><time>2026-04-04T16:45:21.185Z</time></trkpt><trkpt lat="40.1093183" lon="18.011113"><ele>6.0</ele><time>2026-04-04T16:45:23.185Z</time></trkpt><trkpt lat="40.1093734" lon="18.0109814"><ele>6.0</ele><time>2026-04-04T16:45:25.184Z</time></trkpt><trkpt lat="40.1094054" lon="18.0109096"><ele>6.0</ele><time>2026-04-04T16:45:26.184Z</time></trkpt><trkpt lat="40.109444" lon="18.0108303"><ele>6.0</ele><time>2026-04-04T16:45:27.184Z</time></trkpt><trkpt lat="40.1094942" lon="18.0107359"><ele>6.0</ele><time>2026-04-04T16:45:28.185Z</time></trkpt><trkpt lat="40.1095571" lon="18.0106353"><ele>6.0</ele><time>2026-04-04T16:45:29.184Z</time></trkpt><trkpt lat="40.1096244" lon="18.0105443"><ele>5.833333333333333</ele><time>2026-04-04T16:45:30.185Z</time></trkpt><trkpt lat="40.1096947" lon="18.0104597"><ele>5.666666666666667</ele><time>2026-04-04T16:45:31.185Z</time></trkpt><trkpt lat="40.1097599" lon="18.0103785"><ele>5.5</ele><time>2026-04-04T16:45:32.184Z</time></trkpt><trkpt lat="40.1098177" lon="18.010303"><ele>5.333333333333334</ele><time>2026-04-04T16:45:33.186Z</time></trkpt><trkpt lat="40.1098712" lon="18.0102337"><ele>5.166666666666667</ele><time>2026-04-04T16:45:34.186Z</time></trkpt><trkpt lat="40.1099228" lon="18.0101706"><ele>5.0</ele><time>2026-04-04T16:45:35.184Z</time></trkpt><trkpt lat="40.1099728" lon="18.0101079"><ele>5.0</ele><time>2026-04-04T16:45:36.184Z</time></trkpt><trkpt lat="40.1100254" lon="18.0100464"><ele>5.0</ele><time>2026-04-04T16:45:37.184Z</time></trkpt><trkpt lat="40.1100747" lon="18.0099874"><ele>5.0</ele><time>2026-04-04T16:45:38.184Z</time></trkpt><trkpt lat="40.1101217" lon="18.009927"><ele>5.0</ele><time>2026-04-04T16:45:39.185Z</time></trkpt><trkpt lat="40.1101699" lon="18.0098607"><ele>5.0</ele><time>2026-04-04T16:45:40.186Z</time></trkpt><trkpt lat="40.1102235" lon="18.0097871"><ele>5.0</ele><time>2026-04-04T16:45:41.184Z</time></trkpt><trkpt lat="40.1102783" lon="18.0097148"><ele>5.0</ele><time>2026-04-04T16:45:42.185Z</time></trkpt><trkpt lat="40.110333" lon="18.0096419"><ele>4.166666666666667</ele><time>2026-04-04T16:45:43.186Z</time></trkpt><trkpt lat="40.1103919" lon="18.009563"><ele>3.3333333333333335</ele><time>2026-04-04T16:45:44.186Z</time></trkpt><trkpt lat="40.110455" lon="18.0094754"><ele>2.5</ele><time>2026-04-04T16:45:45.185Z</time></trkpt><trkpt lat="40.1105159" lon="18.0093892"><ele>1.6666666666666667</ele><time>2026-04-04T16:45:46.185Z</time></trkpt><trkpt lat="40.1105701" lon="18.0093113"><ele>0.8333333333333334</ele><time>2026-04-04T16:45:47.185Z</time></trkpt><trkpt lat="40.1106272" lon="18.0092322"><ele>0.0</ele><time>2026-04-04T16:45:48.185Z</time></trkpt><trkpt lat="40.1106868" lon="18.0091521"><ele>0.0</ele><time>2026-04-04T16:45:49.186Z</time></trkpt><trkpt lat="40.1107476" lon="18.009072"><ele>0.0</ele><time>2026-04-04T16:45:50.185Z</time></trkpt><trkpt lat="40.1108099" lon="18.008987"><ele>0.0</ele><time>2026-04-04T16:45:51.185Z</time></trkpt><trkpt lat="40.1108732" lon="18.0088972"><ele>0.0</ele><time>2026-04-04T16:45:52.185Z</time></trkpt><trkpt lat="40.1109386" lon="18.0088053"><ele>0.0</ele><time>2026-04-04T16:45:53.184Z</time></trkpt><trkpt lat="40.1110065" lon="18.0087137"><ele>0.0</ele><time>2026-04-04T16:45:54.184Z</time></trkpt><trkpt lat="40.1110737" lon="18.0086216"><ele>0.0</ele><time>2026-04-04T16:45:55.184Z</time></trkpt><trkpt lat="40.1111388" lon="18.0085296"><ele>0.0</ele><time>2026-04-04T16:45:56.184Z</time></trkpt><trkpt lat="40.1111995" lon="18.0084451"><ele>0.0</ele><time>2026-04-04T16:45:57.185Z</time></trkpt><trkpt lat="40.1112488" lon="18.0083792"><ele>0.0</ele><time>2026-04-04T16:45:58.185Z</time></trkpt><trkpt lat="40.1113224" lon="18.0082785"><ele>0.0</ele><time>2026-04-04T16:46:00.185Z</time></trkpt><trkpt lat="40.1113839" lon="18.0081886"><ele>0.0</ele><time>2026-04-04T16:46:02.186Z</time></trkpt><trkpt lat="40.1114462" lon="18.0080913"><ele>0.0</ele><time>2026-04-04T16:46:04.184Z</time></trkpt><trkpt lat="40.1114959" lon="18.0080235"><ele>0.0</ele><time>2026-04-04T16:46:06.184Z</time></trkpt><trkpt lat="40.111542" lon="18.0079644"><ele>0.0</ele><time>2026-04-04T16:46:08.184Z</time></trkpt><trkpt lat="40.1115941" lon="18.0078969"><ele>0.0</ele><time>2026-04-04T16:46:10.186Z</time></trkpt><trkpt lat="40.1116542" lon="18.0078098"><ele>0.6</ele><time>2026-04-04T16:46:12.185Z</time></trkpt><trkpt lat="40.1117315" lon="18.0077092"><ele>1.2</ele><time>2026-04-04T16:46:14.185Z</time></trkpt><trkpt lat="40.1118179" lon="18.0075849"><ele>1.7999999999999998</ele><time>2026-04-04T16:46:16.184Z</time></trkpt><trkpt lat="40.1118659" lon="18.0075154"><ele>2.4</ele><time>2026-04-04T16:46:17.184Z</time></trkpt><trkpt lat="40.1119162" lon="18.0074451"><ele>3.0</ele><time>2026-04-04T16:46:18.185Z</time></trkpt><trkpt lat="40.1119764" lon="18.0073618"><ele>3.0</ele><time>2026-04-04T16:46:19.184Z</time></trkpt><trkpt lat="40.1120443" lon="18.0072689"><ele>3.0</ele><time>2026-04-04T16:46:20.185Z</time></trkpt><trkpt lat="40.1121167" lon="18.0071698"><ele>3.0</ele><time>2026-04-04T16:46:21.185Z</time></trkpt><trkpt lat="40.1121916" lon="18.0070698"><ele>3.0</ele><time>2026-04-04T16:46:22.186Z</time></trkpt><trkpt lat="40.1122682" lon="18.0069645"><ele>3.0</ele><time>2026-04-04T16:46:23.186Z</time></trkpt><trkpt lat="40.1123406" lon="18.0068649"><ele>3.0</ele><time>2026-04-04T16:46:24.186Z</time></trkpt><trkpt lat="40.1124137" lon="18.0067627"><ele>3.0</ele><time>2026-04-04T16:46:25.186Z</time></trkpt><trkpt lat="40.1124874" lon="18.0066616"><ele>3.0</ele><time>2026-04-04T16:46:26.185Z</time></trkpt><trkpt lat="40.1125597" lon="18.0065646"><ele>3.0</ele><time>2026-04-04T16:46:27.186Z</time></trkpt><trkpt lat="40.1126296" lon="18.0064698"><ele>3.0</ele><time>2026-04-04T16:46:28.185Z</time></trkpt><trkpt lat="40.1126971" lon="18.0063772"><ele>3.0</ele><time>2026-04-04T16:46:29.186Z</time></trkpt><trkpt lat="40.1127567" lon="18.0062953"><ele>3.0</ele><time>2026-04-04T16:46:30.185Z</time></trkpt><trkpt lat="40.1128104" lon="18.0062209"><ele>3.0</ele><time>2026-04-04T16:46:31.185Z</time></trkpt><trkpt lat="40.1128586" lon="18.0061539"><ele>3.0</ele><time>2026-04-04T16:46:32.184Z</time></trkpt><trkpt lat="40.1129028" lon="18.0060935"><ele>3.0</ele><time>2026-04-04T16:46:33.185Z</time></trkpt><trkpt lat="40.1129772" lon="18.0059912"><ele>3.0</ele><time>2026-04-04T16:46:35.185Z</time></trkpt><trkpt lat="40.1130514" lon="18.0058834"><ele>2.6</ele><time>2026-04-04T16:46:37.184Z</time></trkpt><trkpt lat="40.1130995" lon="18.0058122"><ele>2.1999999999999997</ele><time>2026-04-04T16:46:38.184Z</time></trkpt><trkpt lat="40.1131612" lon="18.0057254"><ele>1.8</ele><time>2026-04-04T16:46:39.185Z</time></trkpt><trkpt lat="40.1132326" lon="18.0056244"><ele>1.4</ele><time>2026-04-04T16:46:40.184Z</time></trkpt><trkpt lat="40.1133012" lon="18.0055248"><ele>1.0</ele><time>2026-04-04T16:46:41.184Z</time></trkpt><trkpt lat="40.1133714" lon="18.0054142"><ele>1.25</ele><time>2026-04-04T16:46:42.185Z</time></trkpt><trkpt lat="40.1134488" lon="18.0052959"><ele>1.5</ele><time>2026-04-04T16:46:43.185Z</time></trkpt><trkpt lat="40.1135314" lon="18.0051915"><ele>1.75</ele><time>2026-04-04T16:46:44.184Z</time></trkpt><trkpt lat="40.1136117" lon="18.0050926"><ele>2.0</ele><time>2026-04-04T16:46:45.185Z</time></trkpt><trkpt lat="40.1136771" lon="18.0049778"><ele>2.0</ele><time>2026-04-04T16:46:46.184Z</time></trkpt><trkpt lat="40.1137047" lon="18.0048234"><ele>2.0</ele><time>2026-04-04T16:46:47.185Z</time></trkpt><trkpt lat="40.1137182" lon="18.004645"><ele>2.0</ele><time>2026-04-04T16:46:48.185Z</time></trkpt><trkpt lat="40.1137448" lon="18.0044559"><ele>2.0</ele><time>2026-04-04T16:46:49.185Z</time></trkpt><trkpt lat="40.1137862" lon="18.0042797"><ele>2.0</ele><time>2026-04-04T16:46:50.185Z</time></trkpt><trkpt lat="40.1138474" lon="18.004125"><ele>2.0</ele><time>2026-04-04T16:46:51.184Z</time></trkpt><trkpt lat="40.1139295" lon="18.0039914"><ele>2.0</ele><time>2026-04-04T16:46:52.184Z</time></trkpt><trkpt lat="40.1140399" lon="18.0038828"><ele>2.0</ele><time>2026-04-04T16:46:53.185Z</time></trkpt><trkpt lat="40.1141767" lon="18.0037976"><ele>2.0</ele><time>2026-04-04T16:46:54.186Z</time></trkpt><trkpt lat="40.114328" lon="18.0037227"><ele>2.0</ele><time>2026-04-04T16:46:55.184Z</time></trkpt><trkpt lat="40.1144825" lon="18.0036439"><ele>2.0</ele><time>2026-04-04T16:46:56.185Z</time></trkpt><trkpt lat="40.1146432" lon="18.0035827"><ele>2.0</ele><time>2026-04-04T16:46:57.186Z</time></trkpt><trkpt lat="40.1148144" lon="18.0035382"><ele>2.0</ele><time>2026-04-04T16:46:58.186Z</time></trkpt><trkpt lat="40.1149902" lon="18.0034968"><ele>2.0</ele><time>2026-04-04T16:46:59.186Z</time></trkpt><trkpt lat="40.1151727" lon="18.0034527"><ele>2.0</ele><time>2026-04-04T16:47:00.186Z</time></trkpt><trkpt lat="40.1153618" lon="18.003411"><ele>2.0</ele><time>2026-04-04T16:47:01.186Z</time></trkpt><trkpt lat="40.1155573" lon="18.0033674"><ele>2.0</ele><time>2026-04-04T16:47:02.186Z</time></trkpt><trkpt lat="40.1157565" lon="18.0033236"><ele>2.0</ele><time>2026-04-04T16:47:03.185Z</time></trkpt><trkpt lat="40.1159534" lon="18.0032776"><ele>2.0</ele><time>2026-04-04T16:47:04.186Z</time></trkpt><trkpt lat="40.1161551" lon="18.0032251"><ele>2.0</ele><time>2026-04-04T16:47:05.185Z</time></trkpt><trkpt lat="40.1163588" lon="18.0031671"><ele>2.0</ele><time>2026-04-04T16:47:06.184Z</time></trkpt><trkpt lat="40.1165625" lon="18.0030983"><ele>2.0</ele><time>2026-04-04T16:47:07.185Z</time></trkpt><trkpt lat="40.1167656" lon="18.0030162"><ele>2.0</ele><time>2026-04-04T16:47:08.185Z</time></trkpt><trkpt lat="40.1169696" lon="18.002928"><ele>2.0</ele><time>2026-04-04T16:47:09.185Z</time></trkpt><trkpt lat="40.1171736" lon="18.0028339"><ele>2.0</ele><time>2026-04-04T16:47:10.185Z</time></trkpt><trkpt lat="40.1173726" lon="18.0027439"><ele>2.0</ele><time>2026-04-04T16:47:11.185Z</time></trkpt><trkpt lat="40.1175669" lon="18.0026547"><ele>2.6666666666666665</ele><time>2026-04-04T16:47:12.185Z</time></trkpt><trkpt lat="40.1177572" lon="18.0025674"><ele>3.333333333333333</ele><time>2026-04-04T16:47:13.184Z</time></trkpt><trkpt lat="40.1179452" lon="18.0024818"><ele>4.0</ele><time>2026-04-04T16:47:14.186Z</time></trkpt><trkpt lat="40.1181329" lon="18.0023957"><ele>3.333333333333333</ele><time>2026-04-04T16:47:15.184Z</time></trkpt><trkpt lat="40.1183184" lon="18.0022936"><ele>2.6666666666666665</ele><time>2026-04-04T16:47:16.184Z</time></trkpt><trkpt lat="40.1185012" lon="18.0021667"><ele>2.0</ele><time>2026-04-04T16:47:17.185Z</time></trkpt><trkpt lat="40.1186814" lon="18.0020153"><ele>2.0</ele><time>2026-04-04T16:47:18.185Z</time></trkpt><trkpt lat="40.1188539" lon="18.0018373"><ele>2.0</ele><time>2026-04-04T16:47:19.184Z</time></trkpt><trkpt lat="40.1190242" lon="18.0016438"><ele>2.0</ele><time>2026-04-04T16:47:20.184Z</time></trkpt><trkpt lat="40.1191968" lon="18.0014421"><ele>1.5</ele><time>2026-04-04T16:47:21.184Z</time></trkpt><trkpt lat="40.1193701" lon="18.0012416"><ele>1.0</ele><time>2026-04-04T16:47:22.184Z</time></trkpt><trkpt lat="40.1195396" lon="18.0010435"><ele>1.0</ele><time>2026-04-04T16:47:23.184Z</time></trkpt><trkpt lat="40.1197061" lon="18.0008456"><ele>1.0</ele><time>2026-04-04T16:47:24.185Z</time></trkpt><trkpt lat="40.1198716" lon="18.0006481"><ele>1.0</ele><time>2026-04-04T16:47:25.184Z</time></trkpt><trkpt lat="40.1200333" lon="18.0004504"><ele>1.3333333333333333</ele><time>2026-04-04T16:47:26.184Z</time></trkpt><trkpt lat="40.120196" lon="18.0002586"><ele>1.6666666666666665</ele><time>2026-04-04T16:47:27.185Z</time></trkpt><trkpt lat="40.1203675" lon="18.0000928"><ele>2.0</ele><time>2026-04-04T16:47:28.185Z</time></trkpt><trkpt lat="40.1205439" lon="17.9999572"><ele>2.0</ele><time>2026-04-04T16:47:29.186Z</time></trkpt><trkpt lat="40.1207181" lon="17.9998473"><ele>2.0</ele><time>2026-04-04T16:47:30.185Z</time></trkpt><trkpt lat="40.120885" lon="17.9997624"><ele>2.0</ele><time>2026-04-04T16:47:31.186Z</time></trkpt><trkpt lat="40.1210349" lon="17.9996943"><ele>2.75</ele><time>2026-04-04T16:47:32.184Z</time></trkpt><trkpt lat="40.1211767" lon="17.9996317"><ele>3.5</ele><time>2026-04-04T16:47:33.185Z</time></trkpt><trkpt lat="40.1213058" lon="17.9995731"><ele>4.25</ele><time>2026-04-04T16:47:34.185Z</time></trkpt><trkpt lat="40.1214058" lon="17.9995283"><ele>5.0</ele><time>2026-04-04T16:47:35.185Z</time></trkpt><trkpt lat="40.1214956" lon="17.9994872"><ele>5.6</ele><time>2026-04-04T16:47:36.185Z</time></trkpt><trkpt lat="40.1215847" lon="17.9994458"><ele>6.2</ele><time>2026-04-04T16:47:37.184Z</time></trkpt><trkpt lat="40.1216761" lon="17.9994027"><ele>6.800000000000001</ele><time>2026-04-04T16:47:38.184Z</time></trkpt><trkpt lat="40.1217665" lon="17.999361"><ele>7.4</ele><time>2026-04-04T16:47:39.184Z</time></trkpt><trkpt lat="40.1218536" lon="17.9993218"><ele>8.0</ele><time>2026-04-04T16:47:40.185Z</time></trkpt><trkpt lat="40.1219337" lon="17.999285"><ele>7.999999999999999</ele><time>2026-04-04T16:47:41.184Z</time></trkpt><trkpt lat="40.1220079" lon="17.9992504"><ele>8.0</ele><time>2026-04-04T16:47:42.185Z</time></trkpt><trkpt lat="40.1220811" lon="17.9992165"><ele>8.0</ele><time>2026-04-04T16:47:43.186Z</time></trkpt><trkpt lat="40.1221534" lon="17.9991831"><ele>8.0</ele><time>2026-04-04T16:47:44.185Z</time></trkpt><trkpt lat="40.1222335" lon="17.9991368"><ele>7.999999999999999</ele><time>2026-04-04T16:47:45.185Z</time></trkpt><trkpt lat="40.1223342" lon="17.9990826"><ele>8.0</ele><time>2026-04-04T16:47:46.186Z</time></trkpt><trkpt lat="40.1224521" lon="17.9990247"><ele>7.0</ele><time>2026-04-04T16:47:47.185Z</time></trkpt><trkpt lat="40.1225802" lon="17.9989663"><ele>6.0</ele><time>2026-04-04T16:47:48.186Z</time></trkpt><trkpt lat="40.122717" lon="17.9989126"><ele>5.0</ele><time>2026-04-04T16:47:49.185Z</time></trkpt><trkpt lat="40.1228704" lon="17.9988627"><ele>4.0</ele><time>2026-04-04T16:47:50.185Z</time></trkpt><trkpt lat="40.1230309" lon="17.9988236"><ele>4.0</ele><time>2026-04-04T16:47:51.186Z</time></trkpt><trkpt lat="40.1231863" lon="17.9987987"><ele>4.0</ele><time>2026-04-04T16:47:52.185Z</time></trkpt><trkpt lat="40.1233304" lon="17.9987748"><ele>4.0</ele><time>2026-04-04T16:47:53.184Z</time></trkpt><trkpt lat="40.1234773" lon="17.9987302"><ele>4.0</ele><time>2026-04-04T16:47:54.184Z</time></trkpt><trkpt lat="40.1236311" lon="17.9987054"><ele>4.0</ele><time>2026-04-04T16:47:55.185Z</time></trkpt><trkpt lat="40.1237782" lon="17.9986886"><ele>4.0</ele><time>2026-04-04T16:47:56.184Z</time></trkpt><trkpt lat="40.1239132" lon="17.998654"><ele>4.0</ele><time>2026-04-04T16:47:57.185Z</time></trkpt><trkpt lat="40.1240383" lon="17.9986073"><ele>4.25</ele><time>2026-04-04T16:47:58.185Z</time></trkpt><trkpt lat="40.1241743" lon="17.9985558"><ele>4.5</ele><time>2026-04-04T16:47:59.186Z</time></trkpt><trkpt lat="40.1243126" lon="17.9985161"><ele>4.75</ele><time>2026-04-04T16:48:00.185Z</time></trkpt><trkpt lat="40.1244393" lon="17.9984728"><ele>5.0</ele><time>2026-04-04T16:48:01.184Z</time></trkpt><trkpt lat="40.1245452" lon="17.9984363"><ele>5.0</ele><time>2026-04-04T16:48:02.185Z</time></trkpt><trkpt lat="40.1246406" lon="17.9984286"><ele>5.0</ele><time>2026-04-04T16:48:03.185Z</time></trkpt><trkpt lat="40.1247246" lon="17.9984568"><ele>5.0</ele><time>2026-04-04T16:48:04.185Z</time></trkpt><trkpt lat="40.1248086" lon="17.9984881"><ele>5.0</ele><time>2026-04-04T16:48:05.185Z</time></trkpt><trkpt lat="40.1248898" lon="17.9984836"><ele>5.0</ele><time>2026-04-04T16:48:06.184Z</time></trkpt><trkpt lat="40.1249467" lon="17.9984256"><ele>5.0</ele><time>2026-04-04T16:48:07.184Z</time></trkpt><trkpt lat="40.124972" lon="17.9983324"><ele>4.8</ele><time>2026-04-04T16:48:08.185Z</time></trkpt><trkpt lat="40.1249642" lon="17.9982166"><ele>4.6</ele><time>2026-04-04T16:48:09.185Z</time></trkpt><trkpt lat="40.1249586" lon="17.9980863"><ele>4.4</ele><time>2026-04-04T16:48:10.186Z</time></trkpt><trkpt lat="40.1249897" lon="17.9979615"><ele>4.2</ele><time>2026-04-04T16:48:11.185Z</time></trkpt><trkpt lat="40.1250476" lon="17.9978496"><ele>4.0</ele><time>2026-04-04T16:48:12.185Z</time></trkpt><trkpt lat="40.1251272" lon="17.9977363"><ele>4.0</ele><time>2026-04-04T16:48:13.185Z</time></trkpt><trkpt lat="40.1252162" lon="17.9976163"><ele>4.0</ele><time>2026-04-04T16:48:14.184Z</time></trkpt><trkpt lat="40.1253064" lon="17.9974979"><ele>4.0</ele><time>2026-04-04T16:48:15.184Z</time></trkpt><trkpt lat="40.1254073" lon="17.9973779"><ele>4.0</ele><time>2026-04-04T16:48:16.184Z</time></trkpt><trkpt lat="40.1255202" lon="17.9972703"><ele>3.75</ele><time>2026-04-04T16:48:17.185Z</time></trkpt><trkpt lat="40.1256478" lon="17.9971799"><ele>3.5</ele><time>2026-04-04T16:48:18.184Z</time></trkpt><trkpt lat="40.1257855" lon="17.9971062"><ele>3.25</ele><time>2026-04-04T16:48:19.185Z</time></trkpt><trkpt lat="40.1259202" lon="17.9970423"><ele>3.0</ele><time>2026-04-04T16:48:20.185Z</time></trkpt><trkpt lat="40.1260576" lon="17.9969793"><ele>3.5</ele><time>2026-04-04T16:48:21.185Z</time></trkpt><trkpt lat="40.1261968" lon="17.9969169"><ele>4.0</ele><time>2026-04-04T16:48:22.185Z</time></trkpt><trkpt lat="40.1263374" lon="17.9968573"><ele>4.5</ele><time>2026-04-04T16:48:23.185Z</time></trkpt><trkpt lat="40.1264794" lon="17.9968023"><ele>5.0</ele><time>2026-04-04T16:48:24.185Z</time></trkpt><trkpt lat="40.1266192" lon="17.9967468"><ele>5.5</ele><time>2026-04-04T16:48:25.185Z</time></trkpt><trkpt lat="40.1267474" lon="17.9966989"><ele>6.0</ele><time>2026-04-04T16:48:26.185Z</time></trkpt><trkpt lat="40.1268679" lon="17.996663"><ele>6.5</ele><time>2026-04-04T16:48:27.185Z</time></trkpt><trkpt lat="40.1269756" lon="17.9966264"><ele>7.0</ele><time>2026-04-04T16:48:28.184Z</time></trkpt><trkpt lat="40.1270659" lon="17.9965886"><ele>7.0</ele><time>2026-04-04T16:48:29.185Z</time></trkpt><trkpt lat="40.1271449" lon="17.9965541"><ele>6.999999999999999</ele><time>2026-04-04T16:48:30.185Z</time></trkpt><trkpt lat="40.1272179" lon="17.9965232"><ele>6.999999999999999</ele><time>2026-04-04T16:48:31.184Z</time></trkpt><trkpt lat="40.127292" lon="17.9964888"><ele>7.0</ele><time>2026-04-04T16:48:32.185Z</time></trkpt><trkpt lat="40.1273894" lon="17.9964437"><ele>7.0</ele><time>2026-04-04T16:48:33.185Z</time></trkpt><trkpt lat="40.1275058" lon="17.9964058"><ele>7.5</ele><time>2026-04-04T16:48:34.186Z</time></trkpt><trkpt lat="40.1276191" lon="17.9963719"><ele>8.0</ele><time>2026-04-04T16:48:35.186Z</time></trkpt><trkpt lat="40.1277307" lon="17.9963239"><ele>8.5</ele><time>2026-04-04T16:48:36.185Z</time></trkpt><trkpt lat="40.1278404" lon="17.9962702"><ele>9.0</ele><time>2026-04-04T16:48:37.184Z</time></trkpt><trkpt lat="40.1279489" lon="17.9962104"><ele>9.0</ele><time>2026-04-04T16:48:38.185Z</time></trkpt><trkpt lat="40.1280557" lon="17.9961492"><ele>9.0</ele><time>2026-04-04T16:48:39.184Z</time></trkpt><trkpt lat="40.1281583" lon="17.9960896"><ele>9.0</ele><time>2026-04-04T16:48:40.185Z</time></trkpt><trkpt lat="40.1282501" lon="17.9960291"><ele>9.0</ele><time>2026-04-04T16:48:41.186Z</time></trkpt><trkpt lat="40.1283334" lon="17.9959566"><ele>9.0</ele><time>2026-04-04T16:48:42.185Z</time></trkpt><trkpt lat="40.12841" lon="17.9958629"><ele>8.75</ele><time>2026-04-04T16:48:43.184Z</time></trkpt><trkpt lat="40.1284937" lon="17.9957551"><ele>8.5</ele><time>2026-04-04T16:48:44.184Z</time></trkpt><trkpt lat="40.128577" lon="17.9956422"><ele>8.25</ele><time>2026-04-04T16:48:45.184Z</time></trkpt><trkpt lat="40.1286438" lon="17.9955021"><ele>8.0</ele><time>2026-04-04T16:48:46.184Z</time></trkpt><trkpt lat="40.1287037" lon="17.9953491"><ele>8.0</ele><time>2026-04-04T16:48:47.185Z</time></trkpt><trkpt lat="40.1287672" lon="17.9951896"><ele>8.0</ele><time>2026-04-04T16:48:48.185Z</time></trkpt><trkpt lat="40.1288346" lon="17.9950261"><ele>8.0</ele><time>2026-04-04T16:48:49.184Z</time></trkpt><trkpt lat="40.1289013" lon="17.9948647"><ele>8.0</ele><time>2026-04-04T16:48:50.185Z</time></trkpt><trkpt lat="40.1289661" lon="17.994707"><ele>8.200000000000001</ele><time>2026-04-04T16:48:51.184Z</time></trkpt><trkpt lat="40.1290263" lon="17.994565"><ele>8.4</ele><time>2026-04-04T16:48:52.185Z</time></trkpt><trkpt lat="40.1290763" lon="17.9944489"><ele>8.600000000000001</ele><time>2026-04-04T16:48:53.185Z</time></trkpt><trkpt lat="40.1291379" lon="17.994357"><ele>8.8</ele><time>2026-04-04T16:48:54.185Z</time></trkpt><trkpt lat="40.1292195" lon="17.9943003"><ele>9.0</ele><time>2026-04-04T16:48:55.186Z</time></trkpt><trkpt lat="40.1293081" lon="17.9942774"><ele>9.0</ele><time>2026-04-04T16:48:56.184Z</time></trkpt><trkpt lat="40.1293961" lon="17.994274"><ele>9.0</ele><time>2026-04-04T16:48:57.185Z</time></trkpt><trkpt lat="40.1294836" lon="17.9942766"><ele>9.0</ele><time>2026-04-04T16:48:58.186Z</time></trkpt><trkpt lat="40.1295705" lon="17.9942782"><ele>9.0</ele><time>2026-04-04T16:48:59.186Z</time></trkpt><trkpt lat="40.1296596" lon="17.9942709"><ele>9.0</ele><time>2026-04-04T16:49:00.186Z</time></trkpt><trkpt lat="40.1297456" lon="17.9942725"><ele>9.0</ele><time>2026-04-04T16:49:01.186Z</time></trkpt><trkpt lat="40.1298322" lon="17.9942882"><ele>9.0</ele><time>2026-04-04T16:49:02.185Z</time></trkpt><trkpt lat="40.1299116" lon="17.9943268"><ele>9.0</ele><time>2026-04-04T16:49:03.184Z</time></trkpt><trkpt lat="40.1299733" lon="17.9943845"><ele>9.0</ele><time>2026-04-04T16:49:04.186Z</time></trkpt><trkpt lat="40.130053" lon="17.9944892"><ele>9.0</ele><time>2026-04-04T16:49:06.184Z</time></trkpt><trkpt lat="40.1301092" lon="17.994568"><ele>9.0</ele><time>2026-04-04T16:49:08.186Z</time></trkpt><trkpt lat="40.1301716" lon="17.994649"><ele>9.0</ele><time>2026-04-04T16:49:11.184Z</time></trkpt><trkpt lat="40.1302305" lon="17.9947488"><ele>9.0</ele><time>2026-04-04T16:49:14.185Z</time></trkpt><trkpt lat="40.1302792" lon="17.9948325"><ele>9.0</ele><time>2026-04-04T16:49:16.186Z</time></trkpt><trkpt lat="40.1303369" lon="17.9949142"><ele>9.0</ele><time>2026-04-04T16:49:18.185Z</time></trkpt><trkpt lat="40.1303969" lon="17.9949886"><ele>9.0</ele><time>2026-04-04T16:49:20.184Z</time></trkpt><trkpt lat="40.1304569" lon="17.9950557"><ele>9.0</ele><time>2026-04-04T16:49:22.185Z</time></trkpt><trkpt lat="40.1305097" lon="17.9951235"><ele>9.0</ele><time>2026-04-04T16:49:24.185Z</time></trkpt><trkpt lat="40.1305602" lon="17.9951834"><ele>9.166666666666666</ele><time>2026-04-04T16:49:26.185Z</time></trkpt><trkpt lat="40.130615" lon="17.9952739"><ele>9.333333333333334</ele><time>2026-04-04T16:49:29.184Z</time></trkpt><trkpt lat="40.1305985" lon="17.9953879"><ele>9.5</ele><time>2026-04-04T16:49:31.184Z</time></trkpt><trkpt lat="40.1305568" lon="17.9954499"><ele>9.666666666666668</ele><time>2026-04-04T16:49:32.184Z</time></trkpt><trkpt lat="40.1304668" lon="17.9955766"><ele>9.833333333333334</ele><time>2026-04-04T16:49:34.184Z</time></trkpt><trkpt lat="40.1304185" lon="17.9956497"><ele>10.0</ele><time>2026-04-04T16:49:35.185Z</time></trkpt><trkpt lat="40.1303709" lon="17.9957179"><ele>10.0</ele><time>2026-04-04T16:49:36.184Z</time></trkpt><trkpt lat="40.1303274" lon="17.9957796"><ele>10.0</ele><time>2026-04-04T16:49:37.184Z</time></trkpt><trkpt lat="40.1302704" lon="17.9958944"><ele>10.0</ele><time>2026-04-04T16:49:39.184Z</time></trkpt><trkpt lat="40.1302733" lon="17.9960228"><ele>10.0</ele><time>2026-04-04T16:49:41.184Z</time></trkpt><trkpt lat="40.1303401" lon="17.9961396"><ele>10.0</ele><time>2026-04-04T16:49:43.185Z</time></trkpt><trkpt lat="40.1303919" lon="17.9961881"><ele>10.0</ele><time>2026-04-04T16:49:44.185Z</time></trkpt><trkpt lat="40.1304444" lon="17.9962366"><ele>10.0</ele><time>2026-04-04T16:49:45.184Z</time></trkpt><trkpt lat="40.1304983" lon="17.9962853"><ele>10.0</ele><time>2026-04-04T16:49:46.185Z</time></trkpt><trkpt lat="40.1305536" lon="17.9963348"><ele>10.0</ele><time>2026-04-04T16:49:47.184Z</time></trkpt><trkpt lat="40.1306086" lon="17.9963842"><ele>10.0</ele><time>2026-04-04T16:49:48.186Z</time></trkpt><trkpt lat="40.1306992" lon="17.9964656"><ele>10.0</ele><time>2026-04-04T16:49:50.185Z</time></trkpt><trkpt lat="40.130754" lon="17.9965145"><ele>10.0</ele><time>2026-04-04T16:49:52.185Z</time></trkpt><trkpt lat="40.1307997" lon="17.9965765"><ele>10.0</ele><time>2026-04-04T16:50:06.185Z</time></trkpt><trkpt lat="40.1308567" lon="17.996619"><ele>10.0</ele><time>2026-04-04T16:50:08.185Z</time></trkpt><trkpt lat="40.1309839" lon="17.9966684"><ele>10.0</ele><time>2026-04-04T16:50:10.184Z</time></trkpt><trkpt lat="40.1310495" lon="17.9967236"><ele>10.0</ele><time>2026-04-04T16:50:11.184Z</time></trkpt><trkpt lat="40.1311048" lon="17.9967841"><ele>10.0</ele><time>2026-04-04T16:50:12.185Z</time></trkpt><trkpt lat="40.1312009" lon="17.9968692"><ele>10.0</ele><time>2026-04-04T16:50:14.184Z</time></trkpt><trkpt lat="40.1312588" lon="17.9969081"><ele>10.0</ele><time>2026-04-04T16:50:15.185Z</time></trkpt><trkpt lat="40.1313258" lon="17.9969728"><ele>10.0</ele><time>2026-04-04T16:50:16.186Z</time></trkpt><trkpt lat="40.131387" lon="17.9970385"><ele>10.0</ele><time>2026-04-04T16:50:17.185Z</time></trkpt><trkpt lat="40.1314829" lon="17.9971115"><ele>10.0</ele><time>2026-04-04T16:50:19.184Z</time></trkpt><trkpt lat="40.1315595" lon="17.9970791"><ele>10.0</ele><time>2026-04-04T16:50:21.186Z</time></trkpt><trkpt lat="40.1316518" lon="17.9969593"><ele>10.6</ele><time>2026-04-04T16:50:23.184Z</time></trkpt><trkpt lat="40.1317149" lon="17.9968744"><ele>11.2</ele><time>2026-04-04T16:50:24.185Z</time></trkpt><trkpt lat="40.1317579" lon="17.9967769"><ele>11.8</ele><time>2026-04-04T16:50:25.184Z</time></trkpt><trkpt lat="40.1317899" lon="17.9966646"><ele>12.4</ele><time>2026-04-04T16:50:26.186Z</time></trkpt><trkpt lat="40.1318232" lon="17.9965434"><ele>13.0</ele><time>2026-04-04T16:50:27.185Z</time></trkpt><trkpt lat="40.1318568" lon="17.9964186"><ele>11.999999999999998</ele><time>2026-04-04T16:50:28.183Z</time></trkpt><trkpt lat="40.1318807" lon="17.9962975"><ele>11.0</ele><time>2026-04-04T16:50:29.183Z</time></trkpt><trkpt lat="40.13191" lon="17.9961835"><ele>10.0</ele><time>2026-04-04T16:50:30.185Z</time></trkpt><trkpt lat="40.1319422" lon="17.9960784"><ele>9.0</ele><time>2026-04-04T16:50:31.185Z</time></trkpt><trkpt lat="40.1319707" lon="17.9959832"><ele>8.0</ele><time>2026-04-04T16:50:32.184Z</time></trkpt><trkpt lat="40.1320001" lon="17.9959066"><ele>7.0</ele><time>2026-04-04T16:50:33.185Z</time></trkpt><trkpt lat="40.1320466" lon="17.9958069"><ele>6.333333333333334</ele><time>2026-04-04T16:50:35.184Z</time></trkpt><trkpt lat="40.1320853" lon="17.9957235"><ele>5.666666666666667</ele><time>2026-04-04T16:50:38.184Z</time></trkpt><trkpt lat="40.1321315" lon="17.9956464"><ele>5.0</ele><time>2026-04-04T16:50:41.184Z</time></trkpt><trkpt lat="40.1321818" lon="17.9955438"><ele>4.333333333333334</ele><time>2026-04-04T16:50:44.183Z</time></trkpt><trkpt lat="40.1322291" lon="17.9954546"><ele>3.666666666666667</ele><time>2026-04-04T16:50:46.184Z</time></trkpt><trkpt lat="40.1322694" lon="17.9953818"><ele>3.0</ele><time>2026-04-04T16:50:47.184Z</time></trkpt><trkpt lat="40.1323153" lon="17.9953022"><ele>3.0</ele><time>2026-04-04T16:50:48.183Z</time></trkpt><trkpt lat="40.1323648" lon="17.9952168"><ele>3.0</ele><time>2026-04-04T16:50:49.184Z</time></trkpt><trkpt lat="40.1324207" lon="17.9951215"><ele>3.0</ele><time>2026-04-04T16:50:50.183Z</time></trkpt><trkpt lat="40.1324772" lon="17.9950266"><ele>3.0</ele><time>2026-04-04T16:50:51.184Z</time></trkpt><trkpt lat="40.1325318" lon="17.9949297"><ele>3.0</ele><time>2026-04-04T16:50:52.184Z</time></trkpt><trkpt lat="40.1325875" lon="17.9948277"><ele>4.2</ele><time>2026-04-04T16:50:53.184Z</time></trkpt><trkpt lat="40.1326461" lon="17.9947322"><ele>5.4</ele><time>2026-04-04T16:50:54.183Z</time></trkpt><trkpt lat="40.1327055" lon="17.9946431"><ele>6.6000000000000005</ele><time>2026-04-04T16:50:55.185Z</time></trkpt><trkpt lat="40.1327713" lon="17.9945471"><ele>7.8</ele><time>2026-04-04T16:50:56.184Z</time></trkpt><trkpt lat="40.1328432" lon="17.9944372"><ele>9.0</ele><time>2026-04-04T16:50:57.185Z</time></trkpt><trkpt lat="40.1329274" lon="17.9943167"><ele>9.0</ele><time>2026-04-04T16:50:58.185Z</time></trkpt><trkpt lat="40.133023" lon="17.9941937"><ele>9.0</ele><time>2026-04-04T16:50:59.185Z</time></trkpt><trkpt lat="40.1331249" lon="17.9940856"><ele>9.0</ele><time>2026-04-04T16:51:00.184Z</time></trkpt><trkpt lat="40.1332305" lon="17.9939717"><ele>9.0</ele><time>2026-04-04T16:51:01.183Z</time></trkpt><trkpt lat="40.1333357" lon="17.9938505"><ele>9.25</ele><time>2026-04-04T16:51:02.183Z</time></trkpt><trkpt lat="40.1334384" lon="17.993732"><ele>9.5</ele><time>2026-04-04T16:51:03.184Z</time></trkpt><trkpt lat="40.1335301" lon="17.9936261"><ele>9.75</ele><time>2026-04-04T16:51:04.184Z</time></trkpt><trkpt lat="40.1336173" lon="17.9935381"><ele>10.0</ele><time>2026-04-04T16:51:05.184Z</time></trkpt><trkpt lat="40.1337137" lon="17.993475"><ele>10.0</ele><time>2026-04-04T16:51:06.184Z</time></trkpt><trkpt lat="40.1338163" lon="17.9934184"><ele>10.0</ele><time>2026-04-04T16:51:07.184Z</time></trkpt><trkpt lat="40.1339251" lon="17.9933621"><ele>10.0</ele><time>2026-04-04T16:51:08.183Z</time></trkpt><trkpt lat="40.1340329" lon="17.9932869"><ele>10.0</ele><time>2026-04-04T16:51:09.183Z</time></trkpt><trkpt lat="40.1341267" lon="17.9931825"><ele>9.75</ele><time>2026-04-04T16:51:10.184Z</time></trkpt><trkpt lat="40.1342021" lon="17.9930535"><ele>9.5</ele><time>2026-04-04T16:51:11.185Z</time></trkpt><trkpt lat="40.1342656" lon="17.992913"><ele>9.25</ele><time>2026-04-04T16:51:12.184Z</time></trkpt><trkpt lat="40.1343299" lon="17.992771"><ele>9.0</ele><time>2026-04-04T16:51:13.185Z</time></trkpt><trkpt lat="40.1343982" lon="17.9926362"><ele>9.0</ele><time>2026-04-04T16:51:14.184Z</time></trkpt><trkpt lat="40.1344716" lon="17.9925073"><ele>9.0</ele><time>2026-04-04T16:51:15.183Z</time></trkpt><trkpt lat="40.1345329" lon="17.9923674"><ele>9.0</ele><time>2026-04-04T16:51:16.184Z</time></trkpt><trkpt lat="40.1345824" lon="17.9922166"><ele>9.0</ele><time>2026-04-04T16:51:17.183Z</time></trkpt><trkpt lat="40.1346365" lon="17.992067"><ele>7.75</ele><time>2026-04-04T16:51:18.183Z</time></trkpt><trkpt lat="40.1346987" lon="17.9919202"><ele>6.5</ele><time>2026-04-04T16:51:19.183Z</time></trkpt><trkpt lat="40.1347499" lon="17.991771"><ele>5.25</ele><time>2026-04-04T16:51:20.183Z</time></trkpt><trkpt lat="40.1347906" lon="17.9916305"><ele>4.0</ele><time>2026-04-04T16:51:21.183Z</time></trkpt><trkpt lat="40.1348192" lon="17.9914949"><ele>4.2</ele><time>2026-04-04T16:51:22.184Z</time></trkpt><trkpt lat="40.1348344" lon="17.9913569"><ele>4.4</ele><time>2026-04-04T16:51:23.185Z</time></trkpt><trkpt lat="40.1348536" lon="17.9912133"><ele>4.6</ele><time>2026-04-04T16:51:24.183Z</time></trkpt><trkpt lat="40.1348807" lon="17.9910723"><ele>4.8</ele><time>2026-04-04T16:51:25.185Z</time></trkpt><trkpt lat="40.1349143" lon="17.9909344"><ele>5.0</ele><time>2026-04-04T16:51:26.183Z</time></trkpt><trkpt lat="40.1349512" lon="17.9908086"><ele>5.0</ele><time>2026-04-04T16:51:27.183Z</time></trkpt><trkpt lat="40.1349795" lon="17.9906883"><ele>5.0</ele><time>2026-04-04T16:51:28.184Z</time></trkpt><trkpt lat="40.1349983" lon="17.9905724"><ele>5.0</ele><time>2026-04-04T16:51:29.183Z</time></trkpt><trkpt lat="40.1350135" lon="17.9904628"><ele>5.0</ele><time>2026-04-04T16:51:30.184Z</time></trkpt><trkpt lat="40.1350283" lon="17.9903601"><ele>5.0</ele><time>2026-04-04T16:51:31.184Z</time></trkpt><trkpt lat="40.1350466" lon="17.990264"><ele>5.0</ele><time>2026-04-04T16:51:32.184Z</time></trkpt><trkpt lat="40.1350662" lon="17.9901726"><ele>5.0</ele><time>2026-04-04T16:51:33.183Z</time></trkpt><trkpt lat="40.1350864" lon="17.9900852"><ele>5.0</ele><time>2026-04-04T16:51:34.184Z</time></trkpt><trkpt lat="40.1351225" lon="17.9899388"><ele>5.0</ele><time>2026-04-04T16:51:36.184Z</time></trkpt><trkpt lat="40.1351638" lon="17.9898347"><ele>5.0</ele><time>2026-04-04T16:51:38.183Z</time></trkpt><trkpt lat="40.1352117" lon="17.9897724"><ele>5.0</ele><time>2026-04-04T16:51:42.184Z</time></trkpt><trkpt lat="40.1352845" lon="17.9896682"><ele>5.166666666666667</ele><time>2026-04-04T16:51:55.183Z</time></trkpt><trkpt lat="40.1353363" lon="17.9896057"><ele>5.333333333333334</ele><time>2026-04-04T16:51:56.183Z</time></trkpt><trkpt lat="40.1353931" lon="17.9895443"><ele>5.5</ele><time>2026-04-04T16:51:57.183Z</time></trkpt><trkpt lat="40.135463" lon="17.9894896"><ele>5.666666666666667</ele><time>2026-04-04T16:51:58.184Z</time></trkpt><trkpt lat="40.1355486" lon="17.9894388"><ele>5.833333333333333</ele><time>2026-04-04T16:51:59.185Z</time></trkpt><trkpt lat="40.1356437" lon="17.9893972"><ele>6.0</ele><time>2026-04-04T16:52:00.184Z</time></trkpt><trkpt lat="40.1357461" lon="17.9893699"><ele>6.0</ele><time>2026-04-04T16:52:01.184Z</time></trkpt><trkpt lat="40.135857" lon="17.9893669"><ele>6.0</ele><time>2026-04-04T16:52:02.185Z</time></trkpt><trkpt lat="40.1359739" lon="17.9893786"><ele>6.0</ele><time>2026-04-04T16:52:03.185Z</time></trkpt><trkpt lat="40.1360997" lon="17.9893926"><ele>6.0</ele><time>2026-04-04T16:52:04.184Z</time></trkpt><trkpt lat="40.1362267" lon="17.9894109"><ele>6.0</ele><time>2026-04-04T16:52:05.184Z</time></trkpt><trkpt lat="40.1363538" lon="17.9894343"><ele>6.0</ele><time>2026-04-04T16:52:06.184Z</time></trkpt><trkpt lat="40.1364857" lon="17.9894575"><ele>6.0</ele><time>2026-04-04T16:52:07.184Z</time></trkpt><trkpt lat="40.1366211" lon="17.9894841"><ele>6.0</ele><time>2026-04-04T16:52:08.183Z</time></trkpt><trkpt lat="40.1367602" lon="17.989511"><ele>6.0</ele><time>2026-04-04T16:52:09.184Z</time></trkpt><trkpt lat="40.1369021" lon="17.9895347"><ele>6.0</ele><time>2026-04-04T16:52:10.184Z</time></trkpt><trkpt lat="40.1370389" lon="17.98956"><ele>6.0</ele><time>2026-04-04T16:52:11.183Z</time></trkpt><trkpt lat="40.1371703" lon="17.9895861"><ele>6.0</ele><time>2026-04-04T16:52:12.183Z</time></trkpt><trkpt lat="40.1372981" lon="17.9896062"><ele>6.5</ele><time>2026-04-04T16:52:13.184Z</time></trkpt><trkpt lat="40.1374243" lon="17.9895983"><ele>7.0</ele><time>2026-04-04T16:52:14.184Z</time></trkpt><trkpt lat="40.1375463" lon="17.9895578"><ele>7.5</ele><time>2026-04-04T16:52:15.183Z</time></trkpt><trkpt lat="40.1376649" lon="17.9894852"><ele>8.0</ele><time>2026-04-04T16:52:16.183Z</time></trkpt><trkpt lat="40.137781" lon="17.9893929"><ele>8.0</ele><time>2026-04-04T16:52:17.184Z</time></trkpt><trkpt lat="40.1378986" lon="17.9892992"><ele>8.0</ele><time>2026-04-04T16:52:18.184Z</time></trkpt><trkpt lat="40.1380167" lon="17.9892076"><ele>8.0</ele><time>2026-04-04T16:52:19.183Z</time></trkpt><trkpt lat="40.1381357" lon="17.9891161"><ele>8.0</ele><time>2026-04-04T16:52:20.184Z</time></trkpt><trkpt lat="40.1382593" lon="17.9890349"><ele>8.0</ele><time>2026-04-04T16:52:21.184Z</time></trkpt><trkpt lat="40.13839" lon="17.988976"><ele>8.0</ele><time>2026-04-04T16:52:22.184Z</time></trkpt><trkpt lat="40.1385241" lon="17.9889344"><ele>8.0</ele><time>2026-04-04T16:52:23.184Z</time></trkpt><trkpt lat="40.1386618" lon="17.9889008"><ele>8.0</ele><time>2026-04-04T16:52:24.185Z</time></trkpt><trkpt lat="40.1387992" lon="17.9888673"><ele>8.0</ele><time>2026-04-04T16:52:25.183Z</time></trkpt><trkpt lat="40.1389335" lon="17.9888332"><ele>8.0</ele><time>2026-04-04T16:52:26.183Z</time></trkpt><trkpt lat="40.1390538" lon="17.9888"><ele>8.0</ele><time>2026-04-04T16:52:27.183Z</time></trkpt><trkpt lat="40.1391664" lon="17.9887549"><ele>8.0</ele><time>2026-04-04T16:52:28.183Z</time></trkpt><trkpt lat="40.1392709" lon="17.9886838"><ele>7.333333333333333</ele><time>2026-04-04T16:52:29.184Z</time></trkpt><trkpt lat="40.1393539" lon="17.9885961"><ele>6.666666666666666</ele><time>2026-04-04T16:52:30.183Z</time></trkpt><trkpt lat="40.1394078" lon="17.9885152"><ele>6.0</ele><time>2026-04-04T16:52:31.183Z</time></trkpt><trkpt lat="40.1394572" lon="17.9884056"><ele>5.333333333333333</ele><time>2026-04-04T16:52:33.184Z</time></trkpt><trkpt lat="40.1394923" lon="17.9883355"><ele>4.666666666666666</ele><time>2026-04-04T16:52:39.183Z</time></trkpt><trkpt lat="40.1395203" lon="17.9882358"><ele>4.0</ele><time>2026-04-04T16:52:44.183Z</time></trkpt><trkpt lat="40.1395634" lon="17.9881585"><ele>4.0</ele><time>2026-04-04T16:52:45.184Z</time></trkpt><trkpt lat="40.1396226" lon="17.9880701"><ele>4.0</ele><time>2026-04-04T16:52:46.184Z</time></trkpt><trkpt lat="40.1396845" lon="17.9879763"><ele>4.0</ele><time>2026-04-04T16:52:47.184Z</time></trkpt><trkpt lat="40.1397326" lon="17.9878618"><ele>4.0</ele><time>2026-04-04T16:52:48.184Z</time></trkpt><trkpt lat="40.1397805" lon="17.987757"><ele>4.0</ele><time>2026-04-04T16:52:49.183Z</time></trkpt><trkpt lat="40.1398343" lon="17.9876792"><ele>3.6</ele><time>2026-04-04T16:52:50.183Z</time></trkpt><trkpt lat="40.1398904" lon="17.9876215"><ele>3.2</ele><time>2026-04-04T16:52:51.184Z</time></trkpt><trkpt lat="40.1399489" lon="17.9875711"><ele>2.8000000000000003</ele><time>2026-04-04T16:52:52.183Z</time></trkpt><trkpt lat="40.1400257" lon="17.9875189"><ele>2.4000000000000004</ele><time>2026-04-04T16:52:53.183Z</time></trkpt><trkpt lat="40.1401263" lon="17.9874802"><ele>2.0</ele><time>2026-04-04T16:52:54.184Z</time></trkpt><trkpt lat="40.1402455" lon="17.9874564"><ele>2.0</ele><time>2026-04-04T16:52:55.184Z</time></trkpt><trkpt lat="40.1403637" lon="17.9874477"><ele>2.0</ele><time>2026-04-04T16:52:56.184Z</time></trkpt><trkpt lat="40.1404815" lon="17.9874532"><ele>2.0</ele><time>2026-04-04T16:52:57.185Z</time></trkpt><trkpt lat="40.1405914" lon="17.9874308"><ele>2.0</ele><time>2026-04-04T16:52:58.184Z</time></trkpt><trkpt lat="40.1406823" lon="17.987367"><ele>1.9999999999999998</ele><time>2026-04-04T16:52:59.184Z</time></trkpt><trkpt lat="40.1407411" lon="17.987268"><ele>2.0</ele><time>2026-04-04T16:53:00.183Z</time></trkpt><trkpt lat="40.140759" lon="17.9871506"><ele>2.0</ele><time>2026-04-04T16:53:01.183Z</time></trkpt><trkpt lat="40.1407386" lon="17.9870389"><ele>2.0</ele><time>2026-04-04T16:53:02.184Z</time></trkpt><trkpt lat="40.1406903" lon="17.9869414"><ele>1.9999999999999998</ele><time>2026-04-04T16:53:03.183Z</time></trkpt><trkpt lat="40.140651" lon="17.9868525"><ele>2.0</ele><time>2026-04-04T16:53:04.184Z</time></trkpt><trkpt lat="40.1406336" lon="17.9867616"><ele>2.0</ele><time>2026-04-04T16:53:05.183Z</time></trkpt><trkpt lat="40.140621" lon="17.986637"><ele>2.0</ele><time>2026-04-04T16:53:07.184Z</time></trkpt><trkpt lat="40.1405994" lon="17.9865387"><ele>2.0</ele><time>2026-04-04T16:53:09.184Z</time></trkpt><trkpt lat="40.1405543" lon="17.9864294"><ele>2.0</ele><time>2026-04-04T16:53:11.183Z</time></trkpt><trkpt lat="40.1405039" lon="17.9862949"><ele>2.0</ele><time>2026-04-04T16:53:13.185Z</time></trkpt><trkpt lat="40.1404806" lon="17.9862135"><ele>2.0</ele><time>2026-04-04T16:53:14.185Z</time></trkpt><trkpt lat="40.1404617" lon="17.9861279"><ele>1.9999999999999998</ele><time>2026-04-04T16:53:15.185Z</time></trkpt><trkpt lat="40.1404395" lon="17.9860403"><ele>2.0</ele><time>2026-04-04T16:53:16.184Z</time></trkpt><trkpt lat="40.1404143" lon="17.9859498"><ele>2.0</ele><time>2026-04-04T16:53:17.185Z</time></trkpt><trkpt lat="40.1403858" lon="17.9858552"><ele>1.9999999999999998</ele><time>2026-04-04T16:53:18.185Z</time></trkpt><trkpt lat="40.1403614" lon="17.985757"><ele>2.0</ele><time>2026-04-04T16:53:19.185Z</time></trkpt><trkpt lat="40.1403555" lon="17.985658"><ele>2.0</ele><time>2026-04-04T16:53:20.185Z</time></trkpt><trkpt lat="40.1403788" lon="17.9855679"><ele>2.6666666666666665</ele><time>2026-04-04T16:53:21.185Z</time></trkpt><trkpt lat="40.1404299" lon="17.9854938"><ele>3.333333333333333</ele><time>2026-04-04T16:53:22.184Z</time></trkpt><trkpt lat="40.1404972" lon="17.9854432"><ele>4.0</ele><time>2026-04-04T16:53:23.184Z</time></trkpt><trkpt lat="40.1405737" lon="17.9854137"><ele>4.666666666666667</ele><time>2026-04-04T16:53:24.183Z</time></trkpt><trkpt lat="40.1406497" lon="17.9853856"><ele>5.333333333333333</ele><time>2026-04-04T16:53:25.185Z</time></trkpt><trkpt lat="40.140727" lon="17.9853591"><ele>6.0</ele><time>2026-04-04T16:53:26.184Z</time></trkpt><trkpt lat="40.1408035" lon="17.9853339"><ele>6.666666666666667</ele><time>2026-04-04T16:53:27.185Z</time></trkpt><trkpt lat="40.1408722" lon="17.9852938"><ele>7.333333333333334</ele><time>2026-04-04T16:53:28.185Z</time></trkpt><trkpt lat="40.1409419" lon="17.9852528"><ele>8.0</ele><time>2026-04-04T16:53:29.184Z</time></trkpt><trkpt lat="40.1410197" lon="17.9852172"><ele>8.666666666666668</ele><time>2026-04-04T16:53:30.184Z</time></trkpt><trkpt lat="40.1411056" lon="17.9851857"><ele>9.333333333333334</ele><time>2026-04-04T16:53:31.184Z</time></trkpt><trkpt lat="40.1411956" lon="17.9851543"><ele>10.0</ele><time>2026-04-04T16:53:32.184Z</time></trkpt><trkpt lat="40.1412904" lon="17.9851233"><ele>10.0</ele><time>2026-04-04T16:53:33.184Z</time></trkpt><trkpt lat="40.1413887" lon="17.9850881"><ele>10.0</ele><time>2026-04-04T16:53:34.183Z</time></trkpt><trkpt lat="40.1414849" lon="17.9850537"><ele>10.0</ele><time>2026-04-04T16:53:35.184Z</time></trkpt><trkpt lat="40.1415753" lon="17.9850216"><ele>10.0</ele><time>2026-04-04T16:53:36.183Z</time></trkpt><trkpt lat="40.1416595" lon="17.9849873"><ele>10.0</ele><time>2026-04-04T16:53:37.184Z</time></trkpt><trkpt lat="40.1417416" lon="17.9849507"><ele>11.4</ele><time>2026-04-04T16:53:38.184Z</time></trkpt><trkpt lat="40.1418259" lon="17.9849089"><ele>12.8</ele><time>2026-04-04T16:53:39.184Z</time></trkpt><trkpt lat="40.1419121" lon="17.9848683"><ele>14.2</ele><time>2026-04-04T16:53:40.184Z</time></trkpt><trkpt lat="40.1420059" lon="17.9848504"><ele>15.6</ele><time>2026-04-04T16:53:41.184Z</time></trkpt><trkpt lat="40.1421007" lon="17.9848694"><ele>17.0</ele><time>2026-04-04T16:53:42.183Z</time></trkpt><trkpt lat="40.1421946" lon="17.9849208"><ele>17.0</ele><time>2026-04-04T16:53:43.183Z</time></trkpt><trkpt lat="40.1422896" lon="17.9849891"><ele>17.0</ele><time>2026-04-04T16:53:44.183Z</time></trkpt><trkpt lat="40.1423922" lon="17.9850641"><ele>17.0</ele><time>2026-04-04T16:53:45.183Z</time></trkpt><trkpt lat="40.1424961" lon="17.9851598"><ele>17.0</ele><time>2026-04-04T16:53:46.183Z</time></trkpt><trkpt lat="40.1425927" lon="17.9852524"><ele>18.0</ele><time>2026-04-04T16:53:47.184Z</time></trkpt><trkpt lat="40.1426898" lon="17.9853433"><ele>19.0</ele><time>2026-04-04T16:53:48.183Z</time></trkpt><trkpt lat="40.142787" lon="17.9854414"><ele>20.0</ele><time>2026-04-04T16:53:49.184Z</time></trkpt><trkpt lat="40.142877" lon="17.9855539"><ele>21.0</ele><time>2026-04-04T16:53:50.184Z</time></trkpt><trkpt lat="40.1429562" lon="17.9856838"><ele>21.0</ele><time>2026-04-04T16:53:51.184Z</time></trkpt><trkpt lat="40.143018" lon="17.985824"><ele>21.0</ele><time>2026-04-04T16:53:52.183Z</time></trkpt><trkpt lat="40.143067" lon="17.9859766"><ele>21.0</ele><time>2026-04-04T16:53:53.183Z</time></trkpt><trkpt lat="40.1431044" lon="17.9861195"><ele>21.0</ele><time>2026-04-04T16:53:54.183Z</time></trkpt><trkpt lat="40.1431479" lon="17.9862531"><ele>20.6</ele><time>2026-04-04T16:53:55.183Z</time></trkpt><trkpt lat="40.1431978" lon="17.986378"><ele>20.200000000000003</ele><time>2026-04-04T16:53:56.184Z</time></trkpt><trkpt lat="40.1432496" lon="17.9865054"><ele>19.799999999999997</ele><time>2026-04-04T16:53:57.183Z</time></trkpt><trkpt lat="40.1433072" lon="17.9866277"><ele>19.4</ele><time>2026-04-04T16:53:58.185Z</time></trkpt><trkpt lat="40.1433811" lon="17.9867365"><ele>19.0</ele><time>2026-04-04T16:53:59.183Z</time></trkpt><trkpt lat="40.1434637" lon="17.9868419"><ele>22.5</ele><time>2026-04-04T16:54:00.183Z</time></trkpt><trkpt lat="40.1435533" lon="17.9869479"><ele>26.0</ele><time>2026-04-04T16:54:01.184Z</time></trkpt><trkpt lat="40.1436437" lon="17.9870531"><ele>29.5</ele><time>2026-04-04T16:54:02.184Z</time></trkpt><trkpt lat="40.1437356" lon="17.9871563"><ele>33.0</ele><time>2026-04-04T16:54:03.184Z</time></trkpt><trkpt lat="40.1438319" lon="17.9872564"><ele>33.0</ele><time>2026-04-04T16:54:04.183Z</time></trkpt><trkpt lat="40.1439255" lon="17.9873445"><ele>33.0</ele><time>2026-04-04T16:54:05.183Z</time></trkpt><trkpt lat="40.1440221" lon="17.9874093"><ele>33.0</ele><time>2026-04-04T16:54:06.185Z</time></trkpt><trkpt lat="40.1441202" lon="17.9874576"><ele>33.0</ele><time>2026-04-04T16:54:07.185Z</time></trkpt><trkpt lat="40.144214" lon="17.9874914"><ele>33.0</ele><time>2026-04-04T16:54:08.183Z</time></trkpt><trkpt lat="40.1443124" lon="17.9874679"><ele>33.833333333333336</ele><time>2026-04-04T16:54:09.184Z</time></trkpt><trkpt lat="40.1444041" lon="17.9874308"><ele>34.666666666666664</ele><time>2026-04-04T16:54:10.183Z</time></trkpt><trkpt lat="40.1444944" lon="17.9873852"><ele>35.5</ele><time>2026-04-04T16:54:11.183Z</time></trkpt><trkpt lat="40.1445791" lon="17.9873352"><ele>36.33333333333333</ele><time>2026-04-04T16:54:12.183Z</time></trkpt><trkpt lat="40.1446587" lon="17.9872998"><ele>37.166666666666664</ele><time>2026-04-04T16:54:13.184Z</time></trkpt><trkpt lat="40.144725" lon="17.987275"><ele>38.0</ele><time>2026-04-04T16:54:14.184Z</time></trkpt><trkpt lat="40.1448086" lon="17.9872627"><ele>38.199999999999996</ele><time>2026-04-04T16:54:16.183Z</time></trkpt><trkpt lat="40.1448906" lon="17.9872955"><ele>38.4</ele><time>2026-04-04T16:54:18.184Z</time></trkpt><trkpt lat="40.1449852" lon="17.9873741"><ele>38.599999999999994</ele><time>2026-04-04T16:54:20.183Z</time></trkpt><trkpt lat="40.1450777" lon="17.9874702"><ele>38.8</ele><time>2026-04-04T16:54:22.183Z</time></trkpt><trkpt lat="40.1451643" lon="17.9875548"><ele>39.0</ele><time>2026-04-04T16:54:24.184Z</time></trkpt><trkpt lat="40.1452898" lon="17.9875662"><ele>39.0</ele><time>2026-04-04T16:54:26.183Z</time></trkpt><trkpt lat="40.1453612" lon="17.9875407"><ele>39.0</ele><time>2026-04-04T16:54:27.183Z</time></trkpt><trkpt lat="40.1454384" lon="17.987496"><ele>39.0</ele><time>2026-04-04T16:54:28.184Z</time></trkpt><trkpt lat="40.1455176" lon="17.9874383"><ele>39.0</ele><time>2026-04-04T16:54:29.184Z</time></trkpt><trkpt lat="40.1455977" lon="17.9873795"><ele>39.0</ele><time>2026-04-04T16:54:30.183Z</time></trkpt><trkpt lat="40.145687" lon="17.9873267"><ele>39.0</ele><time>2026-04-04T16:54:31.183Z</time></trkpt><trkpt lat="40.1457767" lon="17.9872737"><ele>40.5</ele><time>2026-04-04T16:54:32.184Z</time></trkpt><trkpt lat="40.1458672" lon="17.9872202"><ele>42.0</ele><time>2026-04-04T16:54:33.185Z</time></trkpt><trkpt lat="40.1459433" lon="17.9871722"><ele>43.5</ele><time>2026-04-04T16:54:34.184Z</time></trkpt><trkpt lat="40.1460017" lon="17.9871253"><ele>45.0</ele><time>2026-04-04T16:54:35.184Z</time></trkpt><trkpt lat="40.1460411" lon="17.9870474"><ele>46.5</ele><time>2026-04-04T16:54:37.183Z</time></trkpt><trkpt lat="40.146015" lon="17.9869111"><ele>48.0</ele><time>2026-04-04T16:54:39.183Z</time></trkpt><trkpt lat="40.1459765" lon="17.9867966"><ele>48.75</ele><time>2026-04-04T16:54:40.183Z</time></trkpt><trkpt lat="40.1459289" lon="17.9866423"><ele>49.5</ele><time>2026-04-04T16:54:41.184Z</time></trkpt><trkpt lat="40.1458785" lon="17.9864681"><ele>50.25</ele><time>2026-04-04T16:54:42.184Z</time></trkpt><trkpt lat="40.1458248" lon="17.9862859"><ele>51.0</ele><time>2026-04-04T16:54:43.183Z</time></trkpt><trkpt lat="40.1457815" lon="17.9860961"><ele>51.0</ele><time>2026-04-04T16:54:44.184Z</time></trkpt><trkpt lat="40.145774" lon="17.9859009"><ele>51.0</ele><time>2026-04-04T16:54:45.185Z</time></trkpt><trkpt lat="40.1458031" lon="17.9857058"><ele>51.0</ele><time>2026-04-04T16:54:46.184Z</time></trkpt><trkpt lat="40.145864" lon="17.9855215"><ele>52.33333333333333</ele><time>2026-04-04T16:54:47.183Z</time></trkpt><trkpt lat="40.1459607" lon="17.9853404"><ele>53.666666666666664</ele><time>2026-04-04T16:54:48.184Z</time></trkpt><trkpt lat="40.1460792" lon="17.9851526"><ele>55.0</ele><time>2026-04-04T16:54:49.184Z</time></trkpt><trkpt lat="40.1462063" lon="17.9849532"><ele>55.33333333333333</ele><time>2026-04-04T16:54:50.183Z</time></trkpt><trkpt lat="40.1463283" lon="17.9847652"><ele>55.66666666666667</ele><time>2026-04-04T16:54:51.184Z</time></trkpt><trkpt lat="40.1464558" lon="17.9845915"><ele>56.0</ele><time>2026-04-04T16:54:52.183Z</time></trkpt><trkpt lat="40.1465798" lon="17.9844465"><ele>56.0</ele><time>2026-04-04T16:54:53.184Z</time></trkpt><trkpt lat="40.146688" lon="17.9843322"><ele>56.0</ele><time>2026-04-04T16:54:54.183Z</time></trkpt><trkpt lat="40.1467823" lon="17.9842398"><ele>56.0</ele><time>2026-04-04T16:54:55.184Z</time></trkpt><trkpt lat="40.1468765" lon="17.984158"><ele>56.0</ele><time>2026-04-04T16:54:56.183Z</time></trkpt><trkpt lat="40.1469879" lon="17.9840747"><ele>56.25</ele><time>2026-04-04T16:54:57.184Z</time></trkpt><trkpt lat="40.1471109" lon="17.9839859"><ele>56.5</ele><time>2026-04-04T16:54:58.184Z</time></trkpt><trkpt lat="40.1472409" lon="17.9838901"><ele>56.75</ele><time>2026-04-04T16:54:59.184Z</time></trkpt><trkpt lat="40.1473749" lon="17.9837947"><ele>57.0</ele><time>2026-04-04T16:55:00.183Z</time></trkpt><trkpt lat="40.1475079" lon="17.9837048"><ele>57.0</ele><time>2026-04-04T16:55:01.183Z</time></trkpt><trkpt lat="40.147648" lon="17.9836072"><ele>57.0</ele><time>2026-04-04T16:55:02.184Z</time></trkpt><trkpt lat="40.1477959" lon="17.9834931"><ele>57.0</ele><time>2026-04-04T16:55:03.184Z</time></trkpt><trkpt lat="40.1479454" lon="17.983378"><ele>57.33333333333333</ele><time>2026-04-04T16:55:04.184Z</time></trkpt><trkpt lat="40.1480955" lon="17.9832665"><ele>57.666666666666664</ele><time>2026-04-04T16:55:05.183Z</time></trkpt><trkpt lat="40.1482506" lon="17.9831558"><ele>58.0</ele><time>2026-04-04T16:55:06.184Z</time></trkpt><trkpt lat="40.148407" lon="17.9830425"><ele>58.0</ele><time>2026-04-04T16:55:07.183Z</time></trkpt><trkpt lat="40.1485643" lon="17.9829283"><ele>58.0</ele><time>2026-04-04T16:55:08.184Z</time></trkpt><trkpt lat="40.1487214" lon="17.9828144"><ele>58.0</ele><time>2026-04-04T16:55:09.185Z</time></trkpt><trkpt lat="40.1488808" lon="17.9827017"><ele>57.666666666666664</ele><time>2026-04-04T16:55:10.183Z</time></trkpt><trkpt lat="40.1490425" lon="17.9825863"><ele>57.33333333333333</ele><time>2026-04-04T16:55:11.183Z</time></trkpt><trkpt lat="40.1492061" lon="17.9824679"><ele>57.0</ele><time>2026-04-04T16:55:12.183Z</time></trkpt><trkpt lat="40.1493698" lon="17.9823459"><ele>58.33333333333333</ele><time>2026-04-04T16:55:13.184Z</time></trkpt><trkpt lat="40.1495328" lon="17.9822205"><ele>59.666666666666664</ele><time>2026-04-04T16:55:14.184Z</time></trkpt><trkpt lat="40.1496994" lon="17.9820976"><ele>61.0</ele><time>2026-04-04T16:55:15.183Z</time></trkpt><trkpt lat="40.1498669" lon="17.9819771"><ele>59.666666666666664</ele><time>2026-04-04T16:55:16.184Z</time></trkpt><trkpt lat="40.150041" lon="17.9818658"><ele>58.33333333333333</ele><time>2026-04-04T16:55:17.183Z</time></trkpt><trkpt lat="40.1502218" lon="17.9817677"><ele>57.0</ele><time>2026-04-04T16:55:18.184Z</time></trkpt><trkpt lat="40.1504083" lon="17.981688"><ele>58.0</ele><time>2026-04-04T16:55:19.184Z</time></trkpt><trkpt lat="40.1505989" lon="17.9816324"><ele>59.0</ele><time>2026-04-04T16:55:20.183Z</time></trkpt><trkpt lat="40.1507884" lon="17.9816019"><ele>60.0</ele><time>2026-04-04T16:55:21.184Z</time></trkpt><trkpt lat="40.1509784" lon="17.9815886"><ele>60.0</ele><time>2026-04-04T16:55:22.184Z</time></trkpt><trkpt lat="40.1511667" lon="17.9815742"><ele>60.0</ele><time>2026-04-04T16:55:23.184Z</time></trkpt><trkpt lat="40.1513561" lon="17.9815488"><ele>60.0</ele><time>2026-04-04T16:55:24.185Z</time></trkpt><trkpt lat="40.1515445" lon="17.9815089"><ele>60.0</ele><time>2026-04-04T16:55:25.184Z</time></trkpt><trkpt lat="40.1517273" lon="17.9814485"><ele>60.0</ele><time>2026-04-04T16:55:26.184Z</time></trkpt><trkpt lat="40.1519062" lon="17.9813701"><ele>60.0</ele><time>2026-04-04T16:55:27.185Z</time></trkpt><trkpt lat="40.1520793" lon="17.9812663"><ele>60.0</ele><time>2026-04-04T16:55:28.183Z</time></trkpt><trkpt lat="40.1522486" lon="17.981147"><ele>60.0</ele><time>2026-04-04T16:55:29.184Z</time></trkpt><trkpt lat="40.15242" lon="17.9810181"><ele>60.0</ele><time>2026-04-04T16:55:30.184Z</time></trkpt><trkpt lat="40.1525917" lon="17.9808825"><ele>60.0</ele><time>2026-04-04T16:55:31.183Z</time></trkpt><trkpt lat="40.1527685" lon="17.9807456"><ele>60.0</ele><time>2026-04-04T16:55:32.183Z</time></trkpt><trkpt lat="40.1529532" lon="17.9806029"><ele>60.0</ele><time>2026-04-04T16:55:33.184Z</time></trkpt><trkpt lat="40.1531477" lon="17.9804545"><ele>58.5</ele><time>2026-04-04T16:55:34.183Z</time></trkpt><trkpt lat="40.1533526" lon="17.9802959"><ele>57.0</ele><time>2026-04-04T16:55:35.184Z</time></trkpt><trkpt lat="40.1535679" lon="17.9801272"><ele>56.5</ele><time>2026-04-04T16:55:36.184Z</time></trkpt><trkpt lat="40.1537912" lon="17.979951"><ele>56.0</ele><time>2026-04-04T16:55:37.184Z</time></trkpt><trkpt lat="40.1540234" lon="17.9797664"><ele>56.0</ele><time>2026-04-04T16:55:38.184Z</time></trkpt><trkpt lat="40.1542604" lon="17.9795786"><ele>56.0</ele><time>2026-04-04T16:55:39.184Z</time></trkpt><trkpt lat="40.1545002" lon="17.9793919"><ele>56.0</ele><time>2026-04-04T16:55:40.184Z</time></trkpt><trkpt lat="40.1547425" lon="17.9792033"><ele>56.0</ele><time>2026-04-04T16:55:41.185Z</time></trkpt><trkpt lat="40.1549877" lon="17.9790128"><ele>55.5</ele><time>2026-04-04T16:55:42.185Z</time></trkpt><trkpt lat="40.1552343" lon="17.9788199"><ele>55.0</ele><time>2026-04-04T16:55:43.183Z</time></trkpt><trkpt lat="40.1554797" lon="17.9786248"><ele>55.0</ele><time>2026-04-04T16:55:44.183Z</time></trkpt><trkpt lat="40.1557253" lon="17.9784304"><ele>55.0</ele><time>2026-04-04T16:55:45.184Z</time></trkpt><trkpt lat="40.1559709" lon="17.9782399"><ele>55.0</ele><time>2026-04-04T16:55:46.183Z</time></trkpt><trkpt lat="40.156214" lon="17.9780509"><ele>55.0</ele><time>2026-04-04T16:55:47.184Z</time></trkpt><trkpt lat="40.1564554" lon="17.9778632"><ele>53.5</ele><time>2026-04-04T16:55:48.183Z</time></trkpt><trkpt lat="40.1566938" lon="17.9776742"><ele>52.0</ele><time>2026-04-04T16:55:49.184Z</time></trkpt><trkpt lat="40.1569294" lon="17.9774823"><ele>52.0</ele><time>2026-04-04T16:55:50.183Z</time></trkpt><trkpt lat="40.1571633" lon="17.9772846"><ele>52.0</ele><time>2026-04-04T16:55:51.184Z</time></trkpt><trkpt lat="40.1573944" lon="17.9770792"><ele>51.5</ele><time>2026-04-04T16:55:52.184Z</time></trkpt><trkpt lat="40.1576203" lon="17.976862"><ele>51.0</ele><time>2026-04-04T16:55:53.184Z</time></trkpt><trkpt lat="40.1578435" lon="17.9766315"><ele>51.0</ele><time>2026-04-04T16:55:54.185Z</time></trkpt><trkpt lat="40.1580602" lon="17.976389"><ele>51.0</ele><time>2026-04-04T16:55:55.183Z</time></trkpt><trkpt lat="40.158273" lon="17.9761317"><ele>51.0</ele><time>2026-04-04T16:55:56.183Z</time></trkpt><trkpt lat="40.1584824" lon="17.9758631"><ele>51.0</ele><time>2026-04-04T16:55:57.184Z</time></trkpt><trkpt lat="40.1586922" lon="17.9755848"><ele>51.0</ele><time>2026-04-04T16:55:58.183Z</time></trkpt><trkpt lat="40.1589038" lon="17.9752975"><ele>51.0</ele><time>2026-04-04T16:55:59.184Z</time></trkpt><trkpt lat="40.1591164" lon="17.9750062"><ele>51.0</ele><time>2026-04-04T16:56:00.184Z</time></trkpt><trkpt lat="40.1593299" lon="17.9747149"><ele>51.0</ele><time>2026-04-04T16:56:01.183Z</time></trkpt><trkpt lat="40.15954" lon="17.974426"><ele>50.5</ele><time>2026-04-04T16:56:02.184Z</time></trkpt><trkpt lat="40.1597459" lon="17.9741413"><ele>50.0</ele><time>2026-04-04T16:56:03.184Z</time></trkpt><trkpt lat="40.159946" lon="17.973861"><ele>50.0</ele><time>2026-04-04T16:56:04.184Z</time></trkpt><trkpt lat="40.1601432" lon="17.9735884"><ele>50.0</ele><time>2026-04-04T16:56:05.185Z</time></trkpt><trkpt lat="40.1603456" lon="17.9733213"><ele>50.0</ele><time>2026-04-04T16:56:06.184Z</time></trkpt><trkpt lat="40.1605509" lon="17.9730656"><ele>50.0</ele><time>2026-04-04T16:56:07.183Z</time></trkpt><trkpt lat="40.1607646" lon="17.9728238"><ele>50.0</ele><time>2026-04-04T16:56:08.184Z</time></trkpt><trkpt lat="40.1609849" lon="17.972594"><ele>50.0</ele><time>2026-04-04T16:56:09.184Z</time></trkpt><trkpt lat="40.1612055" lon="17.9723708"><ele>50.0</ele><time>2026-04-04T16:56:10.184Z</time></trkpt><trkpt lat="40.1614207" lon="17.9721536"><ele>50.0</ele><time>2026-04-04T16:56:11.185Z</time></trkpt><trkpt lat="40.161619" lon="17.9719564"><ele>49.66666666666667</ele><time>2026-04-04T16:56:12.184Z</time></trkpt><trkpt lat="40.1617908" lon="17.9717771"><ele>49.33333333333333</ele><time>2026-04-04T16:56:13.184Z</time></trkpt><trkpt lat="40.1619288" lon="17.9716057"><ele>49.0</ele><time>2026-04-04T16:56:14.184Z</time></trkpt><trkpt lat="40.1620317" lon="17.9714242"><ele>49.666666666666664</ele><time>2026-04-04T16:56:15.183Z</time></trkpt><trkpt lat="40.1620943" lon="17.9712255"><ele>50.33333333333333</ele><time>2026-04-04T16:56:16.184Z</time></trkpt><trkpt lat="40.1621157" lon="17.9710135"><ele>51.0</ele><time>2026-04-04T16:56:17.183Z</time></trkpt><trkpt lat="40.1620896" lon="17.9707938"><ele>51.33333333333333</ele><time>2026-04-04T16:56:18.183Z</time></trkpt><trkpt lat="40.1620235" lon="17.9705706"><ele>51.666666666666664</ele><time>2026-04-04T16:56:19.183Z</time></trkpt><trkpt lat="40.1619337" lon="17.9703448"><ele>52.0</ele><time>2026-04-04T16:56:20.183Z</time></trkpt><trkpt lat="40.1618242" lon="17.9700861"><ele>51.0</ele><time>2026-04-04T16:56:21.184Z</time></trkpt><trkpt lat="40.1616988" lon="17.9697885"><ele>50.0</ele><time>2026-04-04T16:56:22.183Z</time></trkpt><trkpt lat="40.1615546" lon="17.9694478"><ele>51.0</ele><time>2026-04-04T16:56:23.184Z</time></trkpt><trkpt lat="40.1613966" lon="17.9690795"><ele>52.0</ele><time>2026-04-04T16:56:24.184Z</time></trkpt><trkpt lat="40.1612395" lon="17.9687128"><ele>53.0</ele><time>2026-04-04T16:56:25.184Z</time></trkpt><trkpt lat="40.1610885" lon="17.9683595"><ele>54.0</ele><time>2026-04-04T16:56:26.184Z</time></trkpt><trkpt lat="40.1609438" lon="17.9680254"><ele>54.0</ele><time>2026-04-04T16:56:27.184Z</time></trkpt><trkpt lat="40.1608077" lon="17.9677151"><ele>54.0</ele><time>2026-04-04T16:56:28.183Z</time></trkpt><trkpt lat="40.1606878" lon="17.9674239"><ele>54.5</ele><time>2026-04-04T16:56:29.183Z</time></trkpt><trkpt lat="40.1605925" lon="17.9671346"><ele>55.0</ele><time>2026-04-04T16:56:30.184Z</time></trkpt><trkpt lat="40.1605206" lon="17.9668334"><ele>58.0</ele><time>2026-04-04T16:56:31.184Z</time></trkpt><trkpt lat="40.1604748" lon="17.9665368"><ele>61.0</ele><time>2026-04-04T16:56:32.184Z</time></trkpt><trkpt lat="40.1604676" lon="17.9662537"><ele>64.0</ele><time>2026-04-04T16:56:33.183Z</time></trkpt><trkpt lat="40.1604767" lon="17.9659754"><ele>65.33333333333333</ele><time>2026-04-04T16:56:34.183Z</time></trkpt><trkpt lat="40.1604924" lon="17.965699"><ele>66.66666666666667</ele><time>2026-04-04T16:56:35.183Z</time></trkpt><trkpt lat="40.1605156" lon="17.9654214"><ele>68.0</ele><time>2026-04-04T16:56:36.184Z</time></trkpt><trkpt lat="40.1605428" lon="17.9651277"><ele>68.0</ele><time>2026-04-04T16:56:37.184Z</time></trkpt><trkpt lat="40.1605488" lon="17.9648378"><ele>68.0</ele><time>2026-04-04T16:56:38.184Z</time></trkpt><trkpt lat="40.160526" lon="17.9645483"><ele>68.0</ele><time>2026-04-04T16:56:39.184Z</time></trkpt><trkpt lat="40.1604727" lon="17.9642589"><ele>68.0</ele><time>2026-04-04T16:56:40.184Z</time></trkpt><trkpt lat="40.160399" lon="17.9639515"><ele>68.0</ele><time>2026-04-04T16:56:41.183Z</time></trkpt><trkpt lat="40.1603168" lon="17.9636212"><ele>67.0</ele><time>2026-04-04T16:56:42.183Z</time></trkpt><trkpt lat="40.160226" lon="17.9632557"><ele>66.0</ele><time>2026-04-04T16:56:43.184Z</time></trkpt><trkpt lat="40.1601286" lon="17.9628688"><ele>63.5</ele><time>2026-04-04T16:56:44.184Z</time></trkpt><trkpt lat="40.1600326" lon="17.9624944"><ele>61.0</ele><time>2026-04-04T16:56:45.184Z</time></trkpt><trkpt lat="40.1599403" lon="17.9621386"><ele>59.0</ele><time>2026-04-04T16:56:46.184Z</time></trkpt><trkpt lat="40.1598523" lon="17.9618047"><ele>57.0</ele><time>2026-04-04T16:56:47.184Z</time></trkpt><trkpt lat="40.1597712" lon="17.9614822"><ele>54.0</ele><time>2026-04-04T16:56:48.183Z</time></trkpt><trkpt lat="40.1596968" lon="17.9611785"><ele>51.0</ele><time>2026-04-04T16:56:49.184Z</time></trkpt><trkpt lat="40.159645" lon="17.960877"><ele>48.5</ele><time>2026-04-04T16:56:50.184Z</time></trkpt><trkpt lat="40.1596197" lon="17.960591"><ele>46.0</ele><time>2026-04-04T16:56:51.183Z</time></trkpt><trkpt lat="40.1596145" lon="17.9602843"><ele>39.0</ele><time>2026-04-04T16:56:52.183Z</time></trkpt><trkpt lat="40.1596266" lon="17.9599638"><ele>32.0</ele><time>2026-04-04T16:56:53.184Z</time></trkpt><trkpt lat="40.1596409" lon="17.9596286"><ele>32.0</ele><time>2026-04-04T16:56:54.183Z</time></trkpt><trkpt lat="40.1596592" lon="17.95928"><ele>32.0</ele><time>2026-04-04T16:56:55.184Z</time></trkpt><trkpt lat="40.1596784" lon="17.9589237"><ele>27.0</ele><time>2026-04-04T16:56:56.184Z</time></trkpt><trkpt lat="40.1596968" lon="17.9585664"><ele>22.0</ele><time>2026-04-04T16:56:57.183Z</time></trkpt><trkpt lat="40.1597143" lon="17.9582137"><ele>21.0</ele><time>2026-04-04T16:56:58.184Z</time></trkpt><trkpt lat="40.1597294" lon="17.9578668"><ele>20.0</ele><time>2026-04-04T16:56:59.184Z</time></trkpt><trkpt lat="40.1597445" lon="17.9575311"><ele>23.5</ele><time>2026-04-04T16:57:00.184Z</time></trkpt><trkpt lat="40.1597606" lon="17.9572003"><ele>27.0</ele><time>2026-04-04T16:57:01.183Z</time></trkpt><trkpt lat="40.1597816" lon="17.9568816"><ele>27.0</ele><time>2026-04-04T16:57:02.184Z</time></trkpt><trkpt lat="40.1598114" lon="17.9565879"><ele>27.0</ele><time>2026-04-04T16:57:03.183Z</time></trkpt><trkpt lat="40.1598623" lon="17.9563136"><ele>27.0</ele><time>2026-04-04T16:57:04.183Z</time></trkpt><trkpt lat="40.1599376" lon="17.9560562"><ele>27.333333333333336</ele><time>2026-04-04T16:57:05.183Z</time></trkpt><trkpt lat="40.1600372" lon="17.9558192"><ele>27.666666666666668</ele><time>2026-04-04T16:57:06.183Z</time></trkpt><trkpt lat="40.1601638" lon="17.9555976"><ele>28.0</ele><time>2026-04-04T16:57:07.183Z</time></trkpt><trkpt lat="40.1603178" lon="17.9553709"><ele>28.0</ele><time>2026-04-04T16:57:08.184Z</time></trkpt><trkpt lat="40.1604923" lon="17.955129"><ele>28.0</ele><time>2026-04-04T16:57:09.184Z</time></trkpt><trkpt lat="40.1606912" lon="17.9548672"><ele>27.5</ele><time>2026-04-04T16:57:10.185Z</time></trkpt><trkpt lat="40.1608923" lon="17.9546053"><ele>27.0</ele><time>2026-04-04T16:57:11.183Z</time></trkpt><trkpt lat="40.1610814" lon="17.9543617"><ele>23.5</ele><time>2026-04-04T16:57:12.184Z</time></trkpt><trkpt lat="40.1612696" lon="17.9541446"><ele>20.0</ele><time>2026-04-04T16:57:13.184Z</time></trkpt><trkpt lat="40.161466" lon="17.9539573"><ele>22.5</ele><time>2026-04-04T16:57:14.185Z</time></trkpt><trkpt lat="40.1616706" lon="17.9537989"><ele>25.0</ele><time>2026-04-04T16:57:15.185Z</time></trkpt><trkpt lat="40.1618957" lon="17.9536591"><ele>25.0</ele><time>2026-04-04T16:57:16.184Z</time></trkpt><trkpt lat="40.162149" lon="17.9535252"><ele>25.0</ele><time>2026-04-04T16:57:17.184Z</time></trkpt><trkpt lat="40.1624277" lon="17.9533848"><ele>24.5</ele><time>2026-04-04T16:57:18.184Z</time></trkpt><trkpt lat="40.1627345" lon="17.9532325"><ele>24.0</ele><time>2026-04-04T16:57:19.184Z</time></trkpt><trkpt lat="40.1630421" lon="17.9530812"><ele>25.0</ele><time>2026-04-04T16:57:20.184Z</time></trkpt><trkpt lat="40.1633441" lon="17.952933"><ele>26.0</ele><time>2026-04-04T16:57:21.185Z</time></trkpt><trkpt lat="40.1636364" lon="17.9527911"><ele>26.0</ele><time>2026-04-04T16:57:22.183Z</time></trkpt><trkpt lat="40.163917" lon="17.9526535"><ele>26.0</ele><time>2026-04-04T16:57:23.184Z</time></trkpt><trkpt lat="40.164178" lon="17.952522"><ele>21.0</ele><time>2026-04-04T16:57:24.183Z</time></trkpt><trkpt lat="40.1644239" lon="17.9523958"><ele>16.0</ele><time>2026-04-04T16:57:25.183Z</time></trkpt><trkpt lat="40.1646646" lon="17.9522748"><ele>20.5</ele><time>2026-04-04T16:57:26.185Z</time></trkpt><trkpt lat="40.1649059" lon="17.9521645"><ele>25.0</ele><time>2026-04-04T16:57:27.184Z</time></trkpt><trkpt lat="40.1651548" lon="17.9520734"><ele>25.0</ele><time>2026-04-04T16:57:28.183Z</time></trkpt><trkpt lat="40.1654145" lon="17.9520012"><ele>25.0</ele><time>2026-04-04T16:57:29.184Z</time></trkpt><trkpt lat="40.1656879" lon="17.9519454"><ele>28.5</ele><time>2026-04-04T16:57:30.183Z</time></trkpt><trkpt lat="40.1659733" lon="17.9519029"><ele>32.0</ele><time>2026-04-04T16:57:31.184Z</time></trkpt><trkpt lat="40.1662492" lon="17.9518663"><ele>32.0</ele><time>2026-04-04T16:57:32.185Z</time></trkpt><trkpt lat="40.1665061" lon="17.9518318"><ele>32.0</ele><time>2026-04-04T16:57:33.183Z</time></trkpt><trkpt lat="40.1667468" lon="17.9518042"><ele>32.33333333333333</ele><time>2026-04-04T16:57:34.184Z</time></trkpt><trkpt lat="40.1669602" lon="17.9517655"><ele>32.666666666666664</ele><time>2026-04-04T16:57:35.185Z</time></trkpt><trkpt lat="40.1671467" lon="17.9516803"><ele>33.0</ele><time>2026-04-04T16:57:36.185Z</time></trkpt><trkpt lat="40.1673025" lon="17.9515464"><ele>30.0</ele><time>2026-04-04T16:57:37.184Z</time></trkpt><trkpt lat="40.1674387" lon="17.951366"><ele>27.0</ele><time>2026-04-04T16:57:38.184Z</time></trkpt><trkpt lat="40.1675654" lon="17.9511579"><ele>24.0</ele><time>2026-04-04T16:57:39.183Z</time></trkpt><trkpt lat="40.1676888" lon="17.9509453"><ele>20.333333333333332</ele><time>2026-04-04T16:57:40.184Z</time></trkpt><trkpt lat="40.1678211" lon="17.9507303"><ele>16.666666666666664</ele><time>2026-04-04T16:57:41.185Z</time></trkpt><trkpt lat="40.167974" lon="17.9505277"><ele>13.0</ele><time>2026-04-04T16:57:42.184Z</time></trkpt><trkpt lat="40.1681575" lon="17.9503456"><ele>12.0</ele><time>2026-04-04T16:57:43.184Z</time></trkpt><trkpt lat="40.1683663" lon="17.9501556"><ele>11.0</ele><time>2026-04-04T16:57:44.184Z</time></trkpt><trkpt lat="40.1685992" lon="17.9499423"><ele>11.0</ele><time>2026-04-04T16:57:45.185Z</time></trkpt><trkpt lat="40.1688591" lon="17.9497093"><ele>11.0</ele><time>2026-04-04T16:57:46.183Z</time></trkpt><trkpt lat="40.1691416" lon="17.9494571"><ele>10.0</ele><time>2026-04-04T16:57:47.184Z</time></trkpt><trkpt lat="40.1694297" lon="17.9491964"><ele>9.0</ele><time>2026-04-04T16:57:48.185Z</time></trkpt><trkpt lat="40.1697" lon="17.9489535"><ele>14.5</ele><time>2026-04-04T16:57:49.183Z</time></trkpt><trkpt lat="40.169958" lon="17.9487182"><ele>20.0</ele><time>2026-04-04T16:57:50.183Z</time></trkpt><trkpt lat="40.1701997" lon="17.9484994"><ele>14.5</ele><time>2026-04-04T16:57:51.185Z</time></trkpt><trkpt lat="40.1704248" lon="17.9482917"><ele>9.0</ele><time>2026-04-04T16:57:52.184Z</time></trkpt><trkpt lat="40.1706414" lon="17.9480967"><ele>15.5</ele><time>2026-04-04T16:57:53.185Z</time></trkpt><trkpt lat="40.1708513" lon="17.9479204"><ele>22.0</ele><time>2026-04-04T16:57:54.184Z</time></trkpt><trkpt lat="40.1710824" lon="17.9477512"><ele>22.0</ele><time>2026-04-04T16:57:55.183Z</time></trkpt><trkpt lat="40.1713399" lon="17.9475878"><ele>22.0</ele><time>2026-04-04T16:57:56.183Z</time></trkpt><trkpt lat="40.1716247" lon="17.9474244"><ele>17.0</ele><time>2026-04-04T16:57:57.184Z</time></trkpt><trkpt lat="40.1719355" lon="17.9472533"><ele>12.0</ele><time>2026-04-04T16:57:58.184Z</time></trkpt><trkpt lat="40.1722695" lon="17.9470743"><ele>13.5</ele><time>2026-04-04T16:57:59.183Z</time></trkpt><trkpt lat="40.1726241" lon="17.9468859"><ele>15.0</ele><time>2026-04-04T16:58:00.184Z</time></trkpt><trkpt lat="40.1729842" lon="17.9466936"><ele>12.0</ele><time>2026-04-04T16:58:01.183Z</time></trkpt><trkpt lat="40.1733266" lon="17.9465084"><ele>9.0</ele><time>2026-04-04T16:58:02.185Z</time></trkpt><trkpt lat="40.1736641" lon="17.9463318"><ele>9.0</ele><time>2026-04-04T16:58:03.183Z</time></trkpt><trkpt lat="40.1739931" lon="17.9461563"><ele>9.0</ele><time>2026-04-04T16:58:04.185Z</time></trkpt><trkpt lat="40.1743123" lon="17.9459881"><ele>8.0</ele><time>2026-04-04T16:58:05.183Z</time></trkpt><trkpt lat="40.1746037" lon="17.9458354"><ele>7.0</ele><time>2026-04-04T16:58:06.183Z</time></trkpt><trkpt lat="40.1748761" lon="17.9456938"><ele>9.5</ele><time>2026-04-04T16:58:07.184Z</time></trkpt><trkpt lat="40.1751259" lon="17.9455556"><ele>12.0</ele><time>2026-04-04T16:58:08.183Z</time></trkpt><trkpt lat="40.1753559" lon="17.9454025"><ele>12.0</ele><time>2026-04-04T16:58:09.185Z</time></trkpt><trkpt lat="40.1755647" lon="17.9452258"><ele>12.0</ele><time>2026-04-04T16:58:10.183Z</time></trkpt><trkpt lat="40.1757545" lon="17.9450285"><ele>12.0</ele><time>2026-04-04T16:58:11.184Z</time></trkpt><trkpt lat="40.1759321" lon="17.944793"><ele>12.0</ele><time>2026-04-04T16:58:12.183Z</time></trkpt><trkpt lat="40.1761093" lon="17.9445166"><ele>10.0</ele><time>2026-04-04T16:58:13.183Z</time></trkpt><trkpt lat="40.1763034" lon="17.9442117"><ele>8.0</ele><time>2026-04-04T16:58:14.184Z</time></trkpt><trkpt lat="40.1765155" lon="17.9438807"><ele>9.5</ele><time>2026-04-04T16:58:15.184Z</time></trkpt><trkpt lat="40.1767249" lon="17.943546"><ele>11.0</ele><time>2026-04-04T16:58:16.185Z</time></trkpt><trkpt lat="40.1769151" lon="17.9432376"><ele>11.5</ele><time>2026-04-04T16:58:17.185Z</time></trkpt><trkpt lat="40.1770956" lon="17.9429484"><ele>12.0</ele><time>2026-04-04T16:58:18.183Z</time></trkpt><trkpt lat="40.1772626" lon="17.9426805"><ele>13.0</ele><time>2026-04-04T16:58:19.184Z</time></trkpt><trkpt lat="40.1774177" lon="17.9424309"><ele>14.0</ele><time>2026-04-04T16:58:20.184Z</time></trkpt><trkpt lat="40.1775627" lon="17.9421973"><ele>14.0</ele><time>2026-04-04T16:58:21.184Z</time></trkpt><trkpt lat="40.1777004" lon="17.9419771"><ele>14.0</ele><time>2026-04-04T16:58:22.183Z</time></trkpt><trkpt lat="40.1778333" lon="17.941776"><ele>14.0</ele><time>2026-04-04T16:58:23.183Z</time></trkpt><trkpt lat="40.1779661" lon="17.9415945"><ele>12.666666666666668</ele><time>2026-04-04T16:58:24.185Z</time></trkpt><trkpt lat="40.1780997" lon="17.9414293"><ele>11.333333333333334</ele><time>2026-04-04T16:58:25.184Z</time></trkpt><trkpt lat="40.1782367" lon="17.9412804"><ele>10.0</ele><time>2026-04-04T16:58:26.184Z</time></trkpt><trkpt lat="40.1783752" lon="17.9411437"><ele>11.333333333333334</ele><time>2026-04-04T16:58:27.184Z</time></trkpt><trkpt lat="40.1785166" lon="17.9410152"><ele>12.666666666666668</ele><time>2026-04-04T16:58:28.184Z</time></trkpt><trkpt lat="40.1786692" lon="17.9408872"><ele>14.0</ele><time>2026-04-04T16:58:29.183Z</time></trkpt><trkpt lat="40.1788393" lon="17.9407496"><ele>16.5</ele><time>2026-04-04T16:58:30.183Z</time></trkpt><trkpt lat="40.1790279" lon="17.9406057"><ele>19.0</ele><time>2026-04-04T16:58:31.184Z</time></trkpt><trkpt lat="40.1792401" lon="17.9404595"><ele>19.0</ele><time>2026-04-04T16:58:32.183Z</time></trkpt><trkpt lat="40.1794719" lon="17.940308"><ele>19.0</ele><time>2026-04-04T16:58:33.183Z</time></trkpt><trkpt lat="40.1797022" lon="17.9401556"><ele>18.0</ele><time>2026-04-04T16:58:34.183Z</time></trkpt><trkpt lat="40.1799349" lon="17.9399976"><ele>17.0</ele><time>2026-04-04T16:58:35.184Z</time></trkpt><trkpt lat="40.1801689" lon="17.9398334"><ele>17.0</ele><time>2026-04-04T16:58:36.183Z</time></trkpt><trkpt lat="40.1803984" lon="17.9396691"><ele>17.0</ele><time>2026-04-04T16:58:37.184Z</time></trkpt><trkpt lat="40.1806145" lon="17.9395145"><ele>18.5</ele><time>2026-04-04T16:58:38.185Z</time></trkpt><trkpt lat="40.1808251" lon="17.9393653"><ele>20.0</ele><time>2026-04-04T16:58:39.183Z</time></trkpt><trkpt lat="40.1810272" lon="17.9392241"><ele>19.0</ele><time>2026-04-04T16:58:40.185Z</time></trkpt><trkpt lat="40.1812201" lon="17.9390835"><ele>18.0</ele><time>2026-04-04T16:58:41.183Z</time></trkpt><trkpt lat="40.1814123" lon="17.9389364"><ele>17.0</ele><time>2026-04-04T16:58:42.184Z</time></trkpt><trkpt lat="40.1816201" lon="17.9387751"><ele>17.0</ele><time>2026-04-04T16:58:43.184Z</time></trkpt><trkpt lat="40.1818492" lon="17.9386117"><ele>17.0</ele><time>2026-04-04T16:58:44.185Z</time></trkpt><trkpt lat="40.1820989" lon="17.9384413"><ele>16.5</ele><time>2026-04-04T16:58:45.183Z</time></trkpt><trkpt lat="40.1823568" lon="17.9382654"><ele>16.0</ele><time>2026-04-04T16:58:46.184Z</time></trkpt><trkpt lat="40.1826074" lon="17.9380856"><ele>16.0</ele><time>2026-04-04T16:58:47.184Z</time></trkpt><trkpt lat="40.1828562" lon="17.9379056"><ele>16.0</ele><time>2026-04-04T16:58:48.183Z</time></trkpt><trkpt lat="40.1830957" lon="17.9377265"><ele>14.5</ele><time>2026-04-04T16:58:49.185Z</time></trkpt><trkpt lat="40.1833399" lon="17.9375406"><ele>13.0</ele><time>2026-04-04T16:58:50.183Z</time></trkpt><trkpt lat="40.1835947" lon="17.9373551"><ele>13.0</ele><time>2026-04-04T16:58:51.183Z</time></trkpt><trkpt lat="40.1838483" lon="17.9371886"><ele>13.0</ele><time>2026-04-04T16:58:52.185Z</time></trkpt><trkpt lat="40.1840954" lon="17.9370226"><ele>13.5</ele><time>2026-04-04T16:58:53.184Z</time></trkpt><trkpt lat="40.184325" lon="17.9368574"><ele>14.0</ele><time>2026-04-04T16:58:54.185Z</time></trkpt><trkpt lat="40.1845424" lon="17.9367048"><ele>13.5</ele><time>2026-04-04T16:58:55.184Z</time></trkpt><trkpt lat="40.1847628" lon="17.9365691"><ele>13.0</ele><time>2026-04-04T16:58:56.183Z</time></trkpt><trkpt lat="40.1849919" lon="17.936456"><ele>13.0</ele><time>2026-04-04T16:58:57.184Z</time></trkpt><trkpt lat="40.1852388" lon="17.9363641"><ele>13.0</ele><time>2026-04-04T16:58:58.183Z</time></trkpt><trkpt lat="40.1854979" lon="17.9362882"><ele>15.5</ele><time>2026-04-04T16:58:59.183Z</time></trkpt><trkpt lat="40.1857556" lon="17.9362224"><ele>18.0</ele><time>2026-04-04T16:59:00.183Z</time></trkpt><trkpt lat="40.1860139" lon="17.9361628"><ele>18.0</ele><time>2026-04-04T16:59:01.185Z</time></trkpt><trkpt lat="40.1862735" lon="17.9361048"><ele>18.0</ele><time>2026-04-04T16:59:02.184Z</time></trkpt><trkpt lat="40.186535" lon="17.9360351"><ele>17.0</ele><time>2026-04-04T16:59:03.183Z</time></trkpt><trkpt lat="40.1867951" lon="17.9359564"><ele>16.0</ele><time>2026-04-04T16:59:04.184Z</time></trkpt><trkpt lat="40.187051" lon="17.9358538"><ele>14.0</ele><time>2026-04-04T16:59:05.183Z</time></trkpt><trkpt lat="40.1872981" lon="17.9357226"><ele>12.0</ele><time>2026-04-04T16:59:06.184Z</time></trkpt><trkpt lat="40.1875386" lon="17.935568"><ele>12.0</ele><time>2026-04-04T16:59:07.184Z</time></trkpt><trkpt lat="40.187772" lon="17.9353881"><ele>12.0</ele><time>2026-04-04T16:59:08.184Z</time></trkpt><trkpt lat="40.1880029" lon="17.9351926"><ele>11.0</ele><time>2026-04-04T16:59:09.184Z</time></trkpt><trkpt lat="40.1882433" lon="17.9349869"><ele>10.0</ele><time>2026-04-04T16:59:10.183Z</time></trkpt><trkpt lat="40.1884922" lon="17.9347727"><ele>10.0</ele><time>2026-04-04T16:59:11.183Z</time></trkpt><trkpt lat="40.1887559" lon="17.934549"><ele>10.0</ele><time>2026-04-04T16:59:12.184Z</time></trkpt><trkpt lat="40.1890209" lon="17.9343234"><ele>10.0</ele><time>2026-04-04T16:59:13.184Z</time></trkpt><trkpt lat="40.1892838" lon="17.9340973"><ele>10.0</ele><time>2026-04-04T16:59:14.184Z</time></trkpt><trkpt lat="40.1895623" lon="17.9338567"><ele>10.5</ele><time>2026-04-04T16:59:15.183Z</time></trkpt><trkpt lat="40.1898506" lon="17.9336081"><ele>11.0</ele><time>2026-04-04T16:59:16.183Z</time></trkpt><trkpt lat="40.1901173" lon="17.9333779"><ele>11.0</ele><time>2026-04-04T16:59:17.184Z</time></trkpt><trkpt lat="40.1903761" lon="17.9331575"><ele>11.0</ele><time>2026-04-04T16:59:18.184Z</time></trkpt><trkpt lat="40.1906245" lon="17.9329442"><ele>11.0</ele><time>2026-04-04T16:59:19.183Z</time></trkpt><trkpt lat="40.1908443" lon="17.9327443"><ele>11.0</ele><time>2026-04-04T16:59:20.184Z</time></trkpt><trkpt lat="40.1910483" lon="17.9325253"><ele>9.5</ele><time>2026-04-04T16:59:21.184Z</time></trkpt><trkpt lat="40.1912324" lon="17.9322685"><ele>8.0</ele><time>2026-04-04T16:59:22.183Z</time></trkpt><trkpt lat="40.1913948" lon="17.9319668"><ele>7.5</ele><time>2026-04-04T16:59:23.183Z</time></trkpt><trkpt lat="40.1915498" lon="17.9316247"><ele>7.0</ele><time>2026-04-04T16:59:24.183Z</time></trkpt><trkpt lat="40.1917112" lon="17.931253"><ele>6.0</ele><time>2026-04-04T16:59:25.184Z</time></trkpt><trkpt lat="40.1918714" lon="17.9308878"><ele>5.0</ele><time>2026-04-04T16:59:26.183Z</time></trkpt><trkpt lat="40.1920283" lon="17.9305285"><ele>5.0</ele><time>2026-04-04T16:59:27.183Z</time></trkpt><trkpt lat="40.1921783" lon="17.9301819"><ele>5.0</ele><time>2026-04-04T16:59:28.185Z</time></trkpt><trkpt lat="40.1923233" lon="17.9298445"><ele>5.0</ele><time>2026-04-04T16:59:29.185Z</time></trkpt><trkpt lat="40.1924632" lon="17.9295207"><ele>5.0</ele><time>2026-04-04T16:59:30.184Z</time></trkpt><trkpt lat="40.1925937" lon="17.9292167"><ele>5.0</ele><time>2026-04-04T16:59:31.183Z</time></trkpt><trkpt lat="40.192724" lon="17.9289351"><ele>5.0</ele><time>2026-04-04T16:59:32.183Z</time></trkpt><trkpt lat="40.1928749" lon="17.928676"><ele>5.0</ele><time>2026-04-04T16:59:33.183Z</time></trkpt><trkpt lat="40.1930417" lon="17.9284511"><ele>5.0</ele><time>2026-04-04T16:59:34.184Z</time></trkpt><trkpt lat="40.1932244" lon="17.9282566"><ele>4.666666666666667</ele><time>2026-04-04T16:59:35.185Z</time></trkpt><trkpt lat="40.1934146" lon="17.9281126"><ele>4.333333333333333</ele><time>2026-04-04T16:59:36.183Z</time></trkpt><trkpt lat="40.1936245" lon="17.9280042"><ele>4.0</ele><time>2026-04-04T16:59:37.184Z</time></trkpt><trkpt lat="40.1938628" lon="17.927927"><ele>4.5</ele><time>2026-04-04T16:59:38.184Z</time></trkpt><trkpt lat="40.1941203" lon="17.9278848"><ele>5.0</ele><time>2026-04-04T16:59:39.184Z</time></trkpt><trkpt lat="40.1944019" lon="17.9278634"><ele>5.0</ele><time>2026-04-04T16:59:40.185Z</time></trkpt><trkpt lat="40.1947098" lon="17.9278523"><ele>5.0</ele><time>2026-04-04T16:59:41.184Z</time></trkpt><trkpt lat="40.1950155" lon="17.9278441"><ele>3.5</ele><time>2026-04-04T16:59:42.183Z</time></trkpt><trkpt lat="40.1953053" lon="17.9278335"><ele>2.0</ele><time>2026-04-04T16:59:43.184Z</time></trkpt><trkpt lat="40.1955875" lon="17.9278259"><ele>1.5</ele><time>2026-04-04T16:59:44.184Z</time></trkpt><trkpt lat="40.1958563" lon="17.9278185"><ele>1.0</ele><time>2026-04-04T16:59:45.184Z</time></trkpt><trkpt lat="40.1961169" lon="17.9278092"><ele>1.0</ele><time>2026-04-04T16:59:46.184Z</time></trkpt><trkpt lat="40.1963709" lon="17.927796"><ele>1.0</ele><time>2026-04-04T16:59:47.184Z</time></trkpt><trkpt lat="40.1966194" lon="17.9277831"><ele>1.5</ele><time>2026-04-04T16:59:48.183Z</time></trkpt><trkpt lat="40.1968683" lon="17.9277707"><ele>2.0</ele><time>2026-04-04T16:59:49.184Z</time></trkpt><trkpt lat="40.1971175" lon="17.9277605"><ele>2.0</ele><time>2026-04-04T16:59:50.185Z</time></trkpt><trkpt lat="40.1973791" lon="17.9277512"><ele>2.0</ele><time>2026-04-04T16:59:51.183Z</time></trkpt><trkpt lat="40.1976647" lon="17.927741"><ele>2.0</ele><time>2026-04-04T16:59:52.183Z</time></trkpt><trkpt lat="40.1979757" lon="17.9277326"><ele>2.0</ele><time>2026-04-04T16:59:53.183Z</time></trkpt><trkpt lat="40.1983072" lon="17.9277307"><ele>2.0</ele><time>2026-04-04T16:59:54.185Z</time></trkpt><trkpt lat="40.1986627" lon="17.9277287"><ele>2.0</ele><time>2026-04-04T16:59:55.184Z</time></trkpt><trkpt lat="40.1990212" lon="17.927727"><ele>2.0</ele><time>2026-04-04T16:59:56.185Z</time></trkpt><trkpt lat="40.1993721" lon="17.9277187"><ele>2.0</ele><time>2026-04-04T16:59:57.184Z</time></trkpt><trkpt lat="40.1997228" lon="17.9277109"><ele>2.5</ele><time>2026-04-04T16:59:58.184Z</time></trkpt><trkpt lat="40.2000723" lon="17.9277029"><ele>3.0</ele><time>2026-04-04T16:59:59.184Z</time></trkpt><trkpt lat="40.2004221" lon="17.9276945"><ele>3.5</ele><time>2026-04-04T17:00:00.184Z</time></trkpt><trkpt lat="40.2007724" lon="17.9276863"><ele>4.0</ele><time>2026-04-04T17:00:01.185Z</time></trkpt><trkpt lat="40.2011181" lon="17.9276774"><ele>4.0</ele><time>2026-04-04T17:00:02.185Z</time></trkpt><trkpt lat="40.2014624" lon="17.9276673"><ele>4.0</ele><time>2026-04-04T17:00:03.184Z</time></trkpt><trkpt lat="40.2018042" lon="17.9276564"><ele>3.5</ele><time>2026-04-04T17:00:04.186Z</time></trkpt><trkpt lat="40.2021418" lon="17.9276473"><ele>3.0</ele><time>2026-04-04T17:00:05.184Z</time></trkpt><trkpt lat="40.2024788" lon="17.92764"><ele>2.5</ele><time>2026-04-04T17:00:06.185Z</time></trkpt><trkpt lat="40.2028169" lon="17.9276322"><ele>2.0</ele><time>2026-04-04T17:00:07.184Z</time></trkpt><trkpt lat="40.2031549" lon="17.9276223"><ele>2.0</ele><time>2026-04-04T17:00:08.186Z</time></trkpt><trkpt lat="40.2034929" lon="17.927613"><ele>2.0</ele><time>2026-04-04T17:00:09.186Z</time></trkpt><trkpt lat="40.2038235" lon="17.9276074"><ele>2.5</ele><time>2026-04-04T17:00:10.185Z</time></trkpt><trkpt lat="40.2041555" lon="17.9275989"><ele>3.0</ele><time>2026-04-04T17:00:11.184Z</time></trkpt><trkpt lat="40.2044919" lon="17.927588"><ele>3.0</ele><time>2026-04-04T17:00:12.184Z</time></trkpt><trkpt lat="40.2048372" lon="17.9275759"><ele>3.0</ele><time>2026-04-04T17:00:13.185Z</time></trkpt><trkpt lat="40.205196" lon="17.9275636"><ele>2.5</ele><time>2026-04-04T17:00:14.186Z</time></trkpt><trkpt lat="40.2055671" lon="17.9275502"><ele>2.0</ele><time>2026-04-04T17:00:15.186Z</time></trkpt><trkpt lat="40.2059296" lon="17.9275394"><ele>2.0</ele><time>2026-04-04T17:00:16.186Z</time></trkpt><trkpt lat="40.2062882" lon="17.9275311"><ele>2.0</ele><time>2026-04-04T17:00:17.185Z</time></trkpt><trkpt lat="40.2066432" lon="17.9275216"><ele>2.0</ele><time>2026-04-04T17:00:18.184Z</time></trkpt><trkpt lat="40.2069943" lon="17.927512"><ele>2.0</ele><time>2026-04-04T17:00:19.185Z</time></trkpt><trkpt lat="40.2073458" lon="17.9275011"><ele>2.5</ele><time>2026-04-04T17:00:20.185Z</time></trkpt><trkpt lat="40.2076982" lon="17.9274911"><ele>3.0</ele><time>2026-04-04T17:00:21.186Z</time></trkpt><trkpt lat="40.208041" lon="17.9274832"><ele>3.0</ele><time>2026-04-04T17:00:22.186Z</time></trkpt><trkpt lat="40.2083781" lon="17.9274752"><ele>3.0</ele><time>2026-04-04T17:00:23.186Z</time></trkpt><trkpt lat="40.2087012" lon="17.9274688"><ele>3.0</ele><time>2026-04-04T17:00:24.186Z</time></trkpt><trkpt lat="40.2090034" lon="17.9274599"><ele>3.0</ele><time>2026-04-04T17:00:25.185Z</time></trkpt><trkpt lat="40.209289" lon="17.9274509"><ele>3.0</ele><time>2026-04-04T17:00:26.185Z</time></trkpt><trkpt lat="40.2095605" lon="17.9274431"><ele>3.0</ele><time>2026-04-04T17:00:27.185Z</time></trkpt><trkpt lat="40.2098204" lon="17.9274347"><ele>3.0</ele><time>2026-04-04T17:00:28.185Z</time></trkpt><trkpt lat="40.2100724" lon="17.9274199"><ele>3.0</ele><time>2026-04-04T17:00:29.185Z</time></trkpt><trkpt lat="40.2103063" lon="17.9273805"><ele>3.0</ele><time>2026-04-04T17:00:30.185Z</time></trkpt><trkpt lat="40.2105241" lon="17.9273092"><ele>3.0</ele><time>2026-04-04T17:00:31.186Z</time></trkpt><trkpt lat="40.2107329" lon="17.9272045"><ele>3.0</ele><time>2026-04-04T17:00:32.186Z</time></trkpt><trkpt lat="40.2109366" lon="17.9270632"><ele>3.0</ele><time>2026-04-04T17:00:33.185Z</time></trkpt><trkpt lat="40.2111436" lon="17.9269046"><ele>3.0</ele><time>2026-04-04T17:00:34.185Z</time></trkpt><trkpt lat="40.2113507" lon="17.9267399"><ele>3.0</ele><time>2026-04-04T17:00:35.184Z</time></trkpt><trkpt lat="40.2115601" lon="17.9265685"><ele>3.0</ele><time>2026-04-04T17:00:36.185Z</time></trkpt><trkpt lat="40.2117699" lon="17.9263996"><ele>3.0</ele><time>2026-04-04T17:00:37.185Z</time></trkpt><trkpt lat="40.211965" lon="17.9262424"><ele>3.0</ele><time>2026-04-04T17:00:38.185Z</time></trkpt><trkpt lat="40.2121484" lon="17.9260938"><ele>3.0</ele><time>2026-04-04T17:00:39.184Z</time></trkpt><trkpt lat="40.2123207" lon="17.9259558"><ele>3.0</ele><time>2026-04-04T17:00:40.186Z</time></trkpt><trkpt lat="40.212488" lon="17.9258229"><ele>3.0</ele><time>2026-04-04T17:00:41.185Z</time></trkpt><trkpt lat="40.212648" lon="17.9256921"><ele>3.0</ele><time>2026-04-04T17:00:42.185Z</time></trkpt><trkpt lat="40.212809" lon="17.9255637"><ele>3.0</ele><time>2026-04-04T17:00:43.185Z</time></trkpt><trkpt lat="40.212965" lon="17.9254392"><ele>3.0</ele><time>2026-04-04T17:00:44.184Z</time></trkpt><trkpt lat="40.2131096" lon="17.9253205"><ele>3.0</ele><time>2026-04-04T17:00:45.186Z</time></trkpt><trkpt lat="40.2132467" lon="17.9252049"><ele>2.75</ele><time>2026-04-04T17:00:46.185Z</time></trkpt><trkpt lat="40.213374" lon="17.9250972"><ele>2.5</ele><time>2026-04-04T17:00:47.185Z</time></trkpt><trkpt lat="40.2134892" lon="17.9249956"><ele>2.25</ele><time>2026-04-04T17:00:48.185Z</time></trkpt><trkpt lat="40.2136003" lon="17.9248946"><ele>2.0</ele><time>2026-04-04T17:00:49.185Z</time></trkpt><trkpt lat="40.2137146" lon="17.9248056"><ele>2.0</ele><time>2026-04-04T17:00:50.184Z</time></trkpt><trkpt lat="40.2138323" lon="17.9247243"><ele>2.0</ele><time>2026-04-04T17:00:51.185Z</time></trkpt><trkpt lat="40.2139368" lon="17.9246494"><ele>2.0</ele><time>2026-04-04T17:00:52.185Z</time></trkpt><trkpt lat="40.2140088" lon="17.9245944"><ele>2.0</ele><time>2026-04-04T17:00:53.185Z</time></trkpt><trkpt lat="40.2141176" lon="17.9245961"><ele>2.0</ele><time>2026-04-04T17:00:55.185Z</time></trkpt><trkpt lat="40.2142013" lon="17.9247105"><ele>1.8</ele><time>2026-04-04T17:00:57.185Z</time></trkpt><trkpt lat="40.2142427" lon="17.9247935"><ele>1.6</ele><time>2026-04-04T17:00:58.184Z</time></trkpt><trkpt lat="40.2142856" lon="17.9248871"><ele>1.4000000000000001</ele><time>2026-04-04T17:00:59.184Z</time></trkpt><trkpt lat="40.2143333" lon="17.9249896"><ele>1.2000000000000002</ele><time>2026-04-04T17:01:00.184Z</time></trkpt><trkpt lat="40.2143852" lon="17.9250998"><ele>1.0</ele><time>2026-04-04T17:01:01.186Z</time></trkpt><trkpt lat="40.2144404" lon="17.9252158"><ele>0.75</ele><time>2026-04-04T17:01:02.185Z</time></trkpt><trkpt lat="40.2144971" lon="17.9253382"><ele>0.5</ele><time>2026-04-04T17:01:03.185Z</time></trkpt><trkpt lat="40.2145541" lon="17.9254631"><ele>0.25</ele><time>2026-04-04T17:01:04.186Z</time></trkpt><trkpt lat="40.2146133" lon="17.9255936"><ele>0.0</ele><time>2026-04-04T17:01:05.185Z</time></trkpt><trkpt lat="40.2146748" lon="17.9257275"><ele>0.0</ele><time>2026-04-04T17:01:06.185Z</time></trkpt><trkpt lat="40.2147384" lon="17.9258625"><ele>0.0</ele><time>2026-04-04T17:01:07.184Z</time></trkpt><trkpt lat="40.2148037" lon="17.9259964"><ele>0.0</ele><time>2026-04-04T17:01:08.186Z</time></trkpt><trkpt lat="40.2148694" lon="17.9261299"><ele>0.0</ele><time>2026-04-04T17:01:09.185Z</time></trkpt><trkpt lat="40.2149333" lon="17.926262"><ele>0.25</ele><time>2026-04-04T17:01:10.186Z</time></trkpt><trkpt lat="40.2149966" lon="17.9263934"><ele>0.5</ele><time>2026-04-04T17:01:11.185Z</time></trkpt><trkpt lat="40.2150569" lon="17.9265264"><ele>0.75</ele><time>2026-04-04T17:01:12.185Z</time></trkpt><trkpt lat="40.2151178" lon="17.9266589"><ele>1.0</ele><time>2026-04-04T17:01:13.184Z</time></trkpt><trkpt lat="40.2151843" lon="17.926793"><ele>1.5</ele><time>2026-04-04T17:01:14.185Z</time></trkpt><trkpt lat="40.2152541" lon="17.9269285"><ele>2.0</ele><time>2026-04-04T17:01:15.185Z</time></trkpt><trkpt lat="40.2153213" lon="17.9270604"><ele>2.5</ele><time>2026-04-04T17:01:16.184Z</time></trkpt><trkpt lat="40.2153773" lon="17.927179"><ele>3.0</ele><time>2026-04-04T17:01:17.184Z</time></trkpt><trkpt lat="40.2154296" lon="17.9272914"><ele>3.0</ele><time>2026-04-04T17:01:18.185Z</time></trkpt><trkpt lat="40.2154814" lon="17.9273975"><ele>3.0</ele><time>2026-04-04T17:01:19.186Z</time></trkpt><trkpt lat="40.2155309" lon="17.9274971"><ele>3.0</ele><time>2026-04-04T17:01:20.186Z</time></trkpt><trkpt lat="40.2155765" lon="17.9275902"><ele>3.0</ele><time>2026-04-04T17:01:21.186Z</time></trkpt><trkpt lat="40.2156192" lon="17.9276786"><ele>3.0</ele><time>2026-04-04T17:01:22.185Z</time></trkpt><trkpt lat="40.2156628" lon="17.9277726"><ele>3.0</ele><time>2026-04-04T17:01:23.186Z</time></trkpt><trkpt lat="40.2157093" lon="17.9278697"><ele>3.3333333333333335</ele><time>2026-04-04T17:01:24.186Z</time></trkpt><trkpt lat="40.2157554" lon="17.9279702"><ele>3.666666666666667</ele><time>2026-04-04T17:01:25.184Z</time></trkpt><trkpt lat="40.215801" lon="17.9280736"><ele>4.0</ele><time>2026-04-04T17:01:26.185Z</time></trkpt><trkpt lat="40.2158457" lon="17.9281721"><ele>4.333333333333334</ele><time>2026-04-04T17:01:27.185Z</time></trkpt><trkpt lat="40.2158893" lon="17.9282675"><ele>4.666666666666667</ele><time>2026-04-04T17:01:28.186Z</time></trkpt><trkpt lat="40.2159336" lon="17.9283618"><ele>5.0</ele><time>2026-04-04T17:01:29.185Z</time></trkpt><trkpt lat="40.2159785" lon="17.9284483"><ele>5.166666666666667</ele><time>2026-04-04T17:01:30.185Z</time></trkpt><trkpt lat="40.2160208" lon="17.9285202"><ele>5.333333333333334</ele><time>2026-04-04T17:01:31.185Z</time></trkpt><trkpt lat="40.216058" lon="17.9285874"><ele>5.5</ele><time>2026-04-04T17:01:32.185Z</time></trkpt><trkpt lat="40.2161036" lon="17.9286833"><ele>5.666666666666667</ele><time>2026-04-04T17:01:34.184Z</time></trkpt><trkpt lat="40.216161" lon="17.9288338"><ele>5.833333333333333</ele><time>2026-04-04T17:01:36.184Z</time></trkpt><trkpt lat="40.2161937" lon="17.92891"><ele>6.0</ele><time>2026-04-04T17:01:37.184Z</time></trkpt><trkpt lat="40.2162299" lon="17.9289914"><ele>6.0</ele><time>2026-04-04T17:01:38.185Z</time></trkpt><trkpt lat="40.2162674" lon="17.9290713"><ele>6.0</ele><time>2026-04-04T17:01:39.184Z</time></trkpt><trkpt lat="40.2163039" lon="17.9291518"><ele>6.0</ele><time>2026-04-04T17:01:40.185Z</time></trkpt><trkpt lat="40.2163482" lon="17.9292371"><ele>6.0</ele><time>2026-04-04T17:01:41.184Z</time></trkpt><trkpt lat="40.2163949" lon="17.9293298"><ele>6.0</ele><time>2026-04-04T17:01:42.184Z</time></trkpt><trkpt lat="40.2164376" lon="17.9294245"><ele>6.0</ele><time>2026-04-04T17:01:43.185Z</time></trkpt><trkpt lat="40.2164827" lon="17.9295221"><ele>6.4</ele><time>2026-04-04T17:01:44.185Z</time></trkpt><trkpt lat="40.2165298" lon="17.929621"><ele>6.8</ele><time>2026-04-04T17:01:45.185Z</time></trkpt><trkpt lat="40.2165781" lon="17.9297229"><ele>7.200000000000001</ele><time>2026-04-04T17:01:46.185Z</time></trkpt><trkpt lat="40.2166283" lon="17.9298264"><ele>7.6000000000000005</ele><time>2026-04-04T17:01:47.185Z</time></trkpt><trkpt lat="40.2166786" lon="17.9299308"><ele>8.0</ele><time>2026-04-04T17:01:48.185Z</time></trkpt><trkpt lat="40.2167282" lon="17.9300345"><ele>8.0</ele><time>2026-04-04T17:01:49.185Z</time></trkpt><trkpt lat="40.2167775" lon="17.9301401"><ele>8.0</ele><time>2026-04-04T17:01:50.185Z</time></trkpt><trkpt lat="40.216825" lon="17.9302449"><ele>8.0</ele><time>2026-04-04T17:01:51.184Z</time></trkpt><trkpt lat="40.216871" lon="17.9303489"><ele>8.0</ele><time>2026-04-04T17:01:52.186Z</time></trkpt><trkpt lat="40.2169164" lon="17.9304498"><ele>8.0</ele><time>2026-04-04T17:01:53.184Z</time></trkpt><trkpt lat="40.2169658" lon="17.930544"><ele>7.999999999999999</ele><time>2026-04-04T17:01:54.185Z</time></trkpt><trkpt lat="40.2170278" lon="17.9306191"><ele>8.0</ele><time>2026-04-04T17:01:55.185Z</time></trkpt><trkpt lat="40.2171031" lon="17.9306636"><ele>8.0</ele><time>2026-04-04T17:01:56.185Z</time></trkpt><trkpt lat="40.2171863" lon="17.9306739"><ele>8.0</ele><time>2026-04-04T17:01:57.185Z</time></trkpt><trkpt lat="40.2172718" lon="17.9306567"><ele>7.999999999999999</ele><time>2026-04-04T17:01:58.185Z</time></trkpt><trkpt lat="40.2173564" lon="17.930612"><ele>8.0</ele><time>2026-04-04T17:01:59.184Z</time></trkpt><trkpt lat="40.2174367" lon="17.9305415"><ele>8.0</ele><time>2026-04-04T17:02:00.184Z</time></trkpt><trkpt lat="40.2175167" lon="17.930455"><ele>8.0</ele><time>2026-04-04T17:02:01.184Z</time></trkpt><trkpt lat="40.2175967" lon="17.9303598"><ele>8.0</ele><time>2026-04-04T17:02:02.185Z</time></trkpt><trkpt lat="40.2176766" lon="17.9302594"><ele>8.0</ele><time>2026-04-04T17:02:03.185Z</time></trkpt><trkpt lat="40.2177618" lon="17.9301551"><ele>8.0</ele><time>2026-04-04T17:02:04.185Z</time></trkpt><trkpt lat="40.2178487" lon="17.9300473"><ele>8.0</ele><time>2026-04-04T17:02:05.185Z</time></trkpt><trkpt lat="40.2179372" lon="17.9299404"><ele>8.0</ele><time>2026-04-04T17:02:06.185Z</time></trkpt><trkpt lat="40.2180187" lon="17.9298406"><ele>8.0</ele><time>2026-04-04T17:02:07.185Z</time></trkpt><trkpt lat="40.2180956" lon="17.9297466"><ele>8.0</ele><time>2026-04-04T17:02:08.184Z</time></trkpt><trkpt lat="40.2181679" lon="17.9296588"><ele>8.0</ele><time>2026-04-04T17:02:09.184Z</time></trkpt><trkpt lat="40.2182354" lon="17.9295749"><ele>7.999999999999999</ele><time>2026-04-04T17:02:10.184Z</time></trkpt><trkpt lat="40.2183009" lon="17.9294971"><ele>8.0</ele><time>2026-04-04T17:02:11.185Z</time></trkpt><trkpt lat="40.2183658" lon="17.9294265"><ele>8.0</ele><time>2026-04-04T17:02:12.184Z</time></trkpt><trkpt lat="40.2184275" lon="17.9293598"><ele>8.0</ele><time>2026-04-04T17:02:13.185Z</time></trkpt><trkpt lat="40.21848" lon="17.9292955"><ele>7.999999999999999</ele><time>2026-04-04T17:02:14.184Z</time></trkpt><trkpt lat="40.2185635" lon="17.9291993"><ele>8.0</ele><time>2026-04-04T17:02:16.185Z</time></trkpt><trkpt lat="40.2186123" lon="17.9291446"><ele>7.999999999999999</ele><time>2026-04-04T17:02:18.186Z</time></trkpt><trkpt lat="40.2186825" lon="17.929091"><ele>8.0</ele><time>2026-04-04T17:02:24.184Z</time></trkpt><trkpt lat="40.2187501" lon="17.9289736"><ele>8.0</ele><time>2026-04-04T17:02:26.184Z</time></trkpt><trkpt lat="40.2187975" lon="17.9289066"><ele>8.0</ele><time>2026-04-04T17:02:27.185Z</time></trkpt><trkpt lat="40.2188597" lon="17.9288304"><ele>7.999999999999999</ele><time>2026-04-04T17:02:28.185Z</time></trkpt><trkpt lat="40.2189223" lon="17.9287545"><ele>8.0</ele><time>2026-04-04T17:02:29.185Z</time></trkpt><trkpt lat="40.2189902" lon="17.9286717"><ele>7.800000000000001</ele><time>2026-04-04T17:02:30.186Z</time></trkpt><trkpt lat="40.2190614" lon="17.9285813"><ele>7.6000000000000005</ele><time>2026-04-04T17:02:31.185Z</time></trkpt><trkpt lat="40.2191372" lon="17.9284892"><ele>7.3999999999999995</ele><time>2026-04-04T17:02:32.184Z</time></trkpt><trkpt lat="40.2192125" lon="17.9283975"><ele>7.199999999999999</ele><time>2026-04-04T17:02:33.185Z</time></trkpt><trkpt lat="40.2192844" lon="17.9283056"><ele>7.0</ele><time>2026-04-04T17:02:34.185Z</time></trkpt><trkpt lat="40.2193573" lon="17.9282153"><ele>6.666666666666667</ele><time>2026-04-04T17:02:35.185Z</time></trkpt><trkpt lat="40.2194295" lon="17.9281294"><ele>6.333333333333334</ele><time>2026-04-04T17:02:36.185Z</time></trkpt><trkpt lat="40.2194992" lon="17.9280485"><ele>6.0</ele><time>2026-04-04T17:02:37.184Z</time></trkpt><trkpt lat="40.2195611" lon="17.9279804"><ele>5.666666666666667</ele><time>2026-04-04T17:02:38.184Z</time></trkpt><trkpt lat="40.2196157" lon="17.9279169"><ele>5.333333333333334</ele><time>2026-04-04T17:02:39.184Z</time></trkpt><trkpt lat="40.2196531" lon="17.9278458"><ele>5.0</ele><time>2026-04-04T17:02:40.184Z</time></trkpt><trkpt lat="40.2196717" lon="17.9277582"><ele>5.0</ele><time>2026-04-04T17:02:41.184Z</time></trkpt><trkpt lat="40.219674" lon="17.9276551"><ele>5.0</ele><time>2026-04-04T17:02:42.185Z</time></trkpt><trkpt lat="40.2196696" lon="17.9275519"><ele>5.0</ele><time>2026-04-04T17:02:43.184Z</time></trkpt><trkpt lat="40.2196726" lon="17.9274542"><ele>5.0</ele><time>2026-04-04T17:02:44.185Z</time></trkpt><trkpt lat="40.2197037" lon="17.9273668"><ele>5.0</ele><time>2026-04-04T17:02:46.185Z</time></trkpt><trkpt lat="40.219773" lon="17.9273475"><ele>5.0</ele><time>2026-04-04T17:02:48.184Z</time></trkpt><trkpt lat="40.2198817" lon="17.9274003"><ele>4.0</ele><time>2026-04-04T17:02:50.186Z</time></trkpt><trkpt lat="40.2200034" lon="17.9274278"><ele>3.0</ele><time>2026-04-04T17:02:52.185Z</time></trkpt><trkpt lat="40.2200795" lon="17.9274429"><ele>2.0</ele><time>2026-04-04T17:02:53.185Z</time></trkpt><trkpt lat="40.2201596" lon="17.9274641"><ele>1.0</ele><time>2026-04-04T17:02:54.186Z</time></trkpt><trkpt lat="40.2202491" lon="17.9274886"><ele>0.0</ele><time>2026-04-04T17:02:55.184Z</time></trkpt><trkpt lat="40.2203454" lon="17.9275114"><ele>0.0</ele><time>2026-04-04T17:02:56.184Z</time></trkpt><trkpt lat="40.2204471" lon="17.9275332"><ele>0.0</ele><time>2026-04-04T17:02:57.185Z</time></trkpt><trkpt lat="40.2205578" lon="17.9275471"><ele>0.0</ele><time>2026-04-04T17:02:58.185Z</time></trkpt><trkpt lat="40.2206696" lon="17.9275553"><ele>0.0</ele><time>2026-04-04T17:02:59.185Z</time></trkpt><trkpt lat="40.2207797" lon="17.9275506"><ele>0.0</ele><time>2026-04-04T17:03:00.186Z</time></trkpt><trkpt lat="40.2208956" lon="17.9275411"><ele>0.5</ele><time>2026-04-04T17:03:01.186Z</time></trkpt><trkpt lat="40.2210127" lon="17.9275247"><ele>1.0</ele><time>2026-04-04T17:03:02.186Z</time></trkpt><trkpt lat="40.2211312" lon="17.9274954"><ele>1.5</ele><time>2026-04-04T17:03:03.185Z</time></trkpt><trkpt lat="40.221251" lon="17.9274567"><ele>2.0</ele><time>2026-04-04T17:03:04.185Z</time></trkpt><trkpt lat="40.2213733" lon="17.9274107"><ele>2.25</ele><time>2026-04-04T17:03:05.184Z</time></trkpt><trkpt lat="40.2214982" lon="17.9273569"><ele>2.5</ele><time>2026-04-04T17:03:06.185Z</time></trkpt><trkpt lat="40.2216267" lon="17.9273029"><ele>2.75</ele><time>2026-04-04T17:03:07.185Z</time></trkpt><trkpt lat="40.2217578" lon="17.9272501"><ele>3.0</ele><time>2026-04-04T17:03:08.186Z</time></trkpt><trkpt lat="40.2218914" lon="17.9271962"><ele>3.0</ele><time>2026-04-04T17:03:09.185Z</time></trkpt><trkpt lat="40.2220278" lon="17.9271413"><ele>3.0</ele><time>2026-04-04T17:03:10.186Z</time></trkpt><trkpt lat="40.2221668" lon="17.9270856"><ele>3.0</ele><time>2026-04-04T17:03:11.186Z</time></trkpt><trkpt lat="40.2223085" lon="17.9270291"><ele>3.0</ele><time>2026-04-04T17:03:12.186Z</time></trkpt><trkpt lat="40.2224529" lon="17.926973"><ele>3.333333333333333</ele><time>2026-04-04T17:03:13.184Z</time></trkpt><trkpt lat="40.2226001" lon="17.9269155"><ele>3.6666666666666665</ele><time>2026-04-04T17:03:14.185Z</time></trkpt><trkpt lat="40.2227502" lon="17.9268533"><ele>4.0</ele><time>2026-04-04T17:03:15.184Z</time></trkpt><trkpt lat="40.2229007" lon="17.9267908"><ele>4.0</ele><time>2026-04-04T17:03:16.185Z</time></trkpt><trkpt lat="40.2230536" lon="17.9267286"><ele>4.0</ele><time>2026-04-04T17:03:17.184Z</time></trkpt><trkpt lat="40.2232063" lon="17.9266666"><ele>4.0</ele><time>2026-04-04T17:03:18.185Z</time></trkpt><trkpt lat="40.2233598" lon="17.9266026"><ele>5.0</ele><time>2026-04-04T17:03:19.186Z</time></trkpt><trkpt lat="40.2235144" lon="17.9265366"><ele>6.0</ele><time>2026-04-04T17:03:20.185Z</time></trkpt><trkpt lat="40.2236706" lon="17.9264695"><ele>7.0</ele><time>2026-04-04T17:03:21.185Z</time></trkpt><trkpt lat="40.2238278" lon="17.9264008"><ele>6.333333333333334</ele><time>2026-04-04T17:03:22.185Z</time></trkpt><trkpt lat="40.2239868" lon="17.9263369"><ele>5.666666666666667</ele><time>2026-04-04T17:03:23.184Z</time></trkpt><trkpt lat="40.2241489" lon="17.9262724"><ele>5.0</ele><time>2026-04-04T17:03:24.185Z</time></trkpt><trkpt lat="40.2243132" lon="17.9262063"><ele>5.0</ele><time>2026-04-04T17:03:25.185Z</time></trkpt><trkpt lat="40.2244785" lon="17.926137"><ele>5.0</ele><time>2026-04-04T17:03:26.186Z</time></trkpt><trkpt lat="40.2246439" lon="17.926065"><ele>5.0</ele><time>2026-04-04T17:03:27.186Z</time></trkpt><trkpt lat="40.2248115" lon="17.9259936"><ele>6.0</ele><time>2026-04-04T17:03:28.185Z</time></trkpt><trkpt lat="40.224981" lon="17.925923"><ele>7.0</ele><time>2026-04-04T17:03:29.185Z</time></trkpt><trkpt lat="40.2251508" lon="17.9258537"><ele>8.0</ele><time>2026-04-04T17:03:30.186Z</time></trkpt><trkpt lat="40.2253221" lon="17.9257857"><ele>8.0</ele><time>2026-04-04T17:03:31.185Z</time></trkpt><trkpt lat="40.2254946" lon="17.9257176"><ele>8.0</ele><time>2026-04-04T17:03:32.184Z</time></trkpt><trkpt lat="40.2256674" lon="17.9256485"><ele>8.0</ele><time>2026-04-04T17:03:33.185Z</time></trkpt><trkpt lat="40.225842" lon="17.9255777"><ele>8.333333333333332</ele><time>2026-04-04T17:03:34.186Z</time></trkpt><trkpt lat="40.2260175" lon="17.9255071"><ele>8.666666666666666</ele><time>2026-04-04T17:03:35.185Z</time></trkpt><trkpt lat="40.2261955" lon="17.9254332"><ele>9.0</ele><time>2026-04-04T17:03:36.184Z</time></trkpt><trkpt lat="40.2263766" lon="17.9253577"><ele>9.333333333333334</ele><time>2026-04-04T17:03:37.184Z</time></trkpt><trkpt lat="40.2265607" lon="17.9252807"><ele>9.666666666666668</ele><time>2026-04-04T17:03:38.186Z</time></trkpt><trkpt lat="40.2267487" lon="17.9252028"><ele>10.0</ele><time>2026-04-04T17:03:39.185Z</time></trkpt><trkpt lat="40.2269394" lon="17.9251229"><ele>9.333333333333334</ele><time>2026-04-04T17:03:40.185Z</time></trkpt><trkpt lat="40.2271324" lon="17.9250429"><ele>8.666666666666666</ele><time>2026-04-04T17:03:41.186Z</time></trkpt><trkpt lat="40.2273279" lon="17.9249631"><ele>8.0</ele><time>2026-04-04T17:03:42.186Z</time></trkpt><trkpt lat="40.2275247" lon="17.924878"><ele>8.0</ele><time>2026-04-04T17:03:43.184Z</time></trkpt><trkpt lat="40.2277202" lon="17.9247805"><ele>8.0</ele><time>2026-04-04T17:03:44.185Z</time></trkpt><trkpt lat="40.2279113" lon="17.9246591"><ele>8.0</ele><time>2026-04-04T17:03:45.185Z</time></trkpt><trkpt lat="40.2280988" lon="17.9245204"><ele>8.333333333333332</ele><time>2026-04-04T17:03:46.185Z</time></trkpt><trkpt lat="40.2282839" lon="17.9243719"><ele>8.666666666666666</ele><time>2026-04-04T17:03:47.185Z</time></trkpt><trkpt lat="40.2284706" lon="17.924218"><ele>9.0</ele><time>2026-04-04T17:03:48.185Z</time></trkpt><trkpt lat="40.2286603" lon="17.9240647"><ele>8.0</ele><time>2026-04-04T17:03:49.185Z</time></trkpt><trkpt lat="40.2288516" lon="17.9239112"><ele>7.0</ele><time>2026-04-04T17:03:50.185Z</time></trkpt><trkpt lat="40.2290435" lon="17.9237563"><ele>7.0</ele><time>2026-04-04T17:03:51.185Z</time></trkpt><trkpt lat="40.2292331" lon="17.9236032"><ele>7.0</ele><time>2026-04-04T17:03:52.185Z</time></trkpt><trkpt lat="40.2294219" lon="17.9234512"><ele>7.0</ele><time>2026-04-04T17:03:53.185Z</time></trkpt><trkpt lat="40.2296096" lon="17.9233004"><ele>7.333333333333334</ele><time>2026-04-04T17:03:54.186Z</time></trkpt><trkpt lat="40.2297957" lon="17.9231519"><ele>7.666666666666666</ele><time>2026-04-04T17:03:55.185Z</time></trkpt><trkpt lat="40.2299789" lon="17.923004"><ele>8.0</ele><time>2026-04-04T17:03:56.184Z</time></trkpt><trkpt lat="40.230158" lon="17.9228589"><ele>8.0</ele><time>2026-04-04T17:03:57.185Z</time></trkpt><trkpt lat="40.2303339" lon="17.9227165"><ele>8.0</ele><time>2026-04-04T17:03:58.185Z</time></trkpt><trkpt lat="40.2305081" lon="17.9225761"><ele>8.0</ele><time>2026-04-04T17:03:59.186Z</time></trkpt><trkpt lat="40.2306777" lon="17.9224364"><ele>8.333333333333332</ele><time>2026-04-04T17:04:00.185Z</time></trkpt><trkpt lat="40.2308378" lon="17.9223016"><ele>8.666666666666666</ele><time>2026-04-04T17:04:01.185Z</time></trkpt><trkpt lat="40.2309877" lon="17.9221758"><ele>9.0</ele><time>2026-04-04T17:04:02.184Z</time></trkpt><trkpt lat="40.2311366" lon="17.9220513"><ele>9.0</ele><time>2026-04-04T17:04:03.184Z</time></trkpt><trkpt lat="40.2312873" lon="17.9219208"><ele>9.0</ele><time>2026-04-04T17:04:04.185Z</time></trkpt><trkpt lat="40.2314411" lon="17.9217915"><ele>9.0</ele><time>2026-04-04T17:04:05.184Z</time></trkpt><trkpt lat="40.2316033" lon="17.9216626"><ele>9.0</ele><time>2026-04-04T17:04:06.185Z</time></trkpt><trkpt lat="40.2317727" lon="17.9215291"><ele>9.0</ele><time>2026-04-04T17:04:07.186Z</time></trkpt><trkpt lat="40.2319478" lon="17.9213895"><ele>9.0</ele><time>2026-04-04T17:04:08.186Z</time></trkpt><trkpt lat="40.2321276" lon="17.9212448"><ele>8.333333333333334</ele><time>2026-04-04T17:04:09.184Z</time></trkpt><trkpt lat="40.2323105" lon="17.9210982"><ele>7.666666666666667</ele><time>2026-04-04T17:04:10.185Z</time></trkpt><trkpt lat="40.2324973" lon="17.9209545"><ele>7.0</ele><time>2026-04-04T17:04:11.184Z</time></trkpt><trkpt lat="40.2326862" lon="17.9208135"><ele>7.0</ele><time>2026-04-04T17:04:12.184Z</time></trkpt><trkpt lat="40.2328742" lon="17.9206707"><ele>7.0</ele><time>2026-04-04T17:04:13.185Z</time></trkpt><trkpt lat="40.2330613" lon="17.9205229"><ele>7.0</ele><time>2026-04-04T17:04:14.186Z</time></trkpt><trkpt lat="40.2332481" lon="17.9203737"><ele>7.0</ele><time>2026-04-04T17:04:15.186Z</time></trkpt><trkpt lat="40.233435" lon="17.9202238"><ele>7.0</ele><time>2026-04-04T17:04:16.185Z</time></trkpt><trkpt lat="40.2336217" lon="17.920073"><ele>7.0</ele><time>2026-04-04T17:04:17.184Z</time></trkpt><trkpt lat="40.2338098" lon="17.9199207"><ele>6.5</ele><time>2026-04-04T17:04:18.184Z</time></trkpt><trkpt lat="40.2340002" lon="17.9197649"><ele>6.0</ele><time>2026-04-04T17:04:19.184Z</time></trkpt><trkpt lat="40.234192" lon="17.9196075"><ele>6.0</ele><time>2026-04-04T17:04:20.184Z</time></trkpt><trkpt lat="40.234386" lon="17.91945"><ele>6.0</ele><time>2026-04-04T17:04:21.186Z</time></trkpt><trkpt lat="40.2345819" lon="17.9192911"><ele>6.5</ele><time>2026-04-04T17:04:22.185Z</time></trkpt><trkpt lat="40.2347795" lon="17.9191328"><ele>7.0</ele><time>2026-04-04T17:04:23.184Z</time></trkpt><trkpt lat="40.2349766" lon="17.9189757"><ele>7.5</ele><time>2026-04-04T17:04:24.185Z</time></trkpt><trkpt lat="40.2351726" lon="17.918819"><ele>8.0</ele><time>2026-04-04T17:04:25.184Z</time></trkpt><trkpt lat="40.2353679" lon="17.9186614"><ele>8.0</ele><time>2026-04-04T17:04:26.184Z</time></trkpt><trkpt lat="40.2355599" lon="17.9185051"><ele>8.0</ele><time>2026-04-04T17:04:27.185Z</time></trkpt><trkpt lat="40.2357456" lon="17.9183532"><ele>8.0</ele><time>2026-04-04T17:04:28.186Z</time></trkpt><trkpt lat="40.2359309" lon="17.9182026"><ele>8.0</ele><time>2026-04-04T17:04:29.184Z</time></trkpt><trkpt lat="40.2361157" lon="17.9180545"><ele>8.0</ele><time>2026-04-04T17:04:30.185Z</time></trkpt><trkpt lat="40.2362989" lon="17.9179064"><ele>8.0</ele><time>2026-04-04T17:04:31.184Z</time></trkpt><trkpt lat="40.2364805" lon="17.9177595"><ele>8.333333333333332</ele><time>2026-04-04T17:04:32.185Z</time></trkpt><trkpt lat="40.2366616" lon="17.9176126"><ele>8.666666666666666</ele><time>2026-04-04T17:04:33.185Z</time></trkpt><trkpt lat="40.2368407" lon="17.917469"><ele>9.0</ele><time>2026-04-04T17:04:34.184Z</time></trkpt><trkpt lat="40.2370206" lon="17.9173266"><ele>9.0</ele><time>2026-04-04T17:04:35.184Z</time></trkpt><trkpt lat="40.2372016" lon="17.917187"><ele>9.0</ele><time>2026-04-04T17:04:36.185Z</time></trkpt><trkpt lat="40.2373859" lon="17.9170567"><ele>9.0</ele><time>2026-04-04T17:04:37.185Z</time></trkpt><trkpt lat="40.237577" lon="17.9169467"><ele>9.666666666666666</ele><time>2026-04-04T17:04:38.185Z</time></trkpt><trkpt lat="40.2377749" lon="17.9168534"><ele>10.333333333333332</ele><time>2026-04-04T17:04:39.185Z</time></trkpt><trkpt lat="40.2379746" lon="17.9167646"><ele>11.0</ele><time>2026-04-04T17:04:40.185Z</time></trkpt><trkpt lat="40.2381767" lon="17.9166806"><ele>11.0</ele><time>2026-04-04T17:04:41.185Z</time></trkpt><trkpt lat="40.2383771" lon="17.9165993"><ele>11.0</ele><time>2026-04-04T17:04:42.184Z</time></trkpt><trkpt lat="40.2385775" lon="17.9165174"><ele>11.0</ele><time>2026-04-04T17:04:43.186Z</time></trkpt><trkpt lat="40.2387781" lon="17.9164364"><ele>11.666666666666666</ele><time>2026-04-04T17:04:44.185Z</time></trkpt><trkpt lat="40.2389789" lon="17.9163555"><ele>12.333333333333332</ele><time>2026-04-04T17:04:45.184Z</time></trkpt><trkpt lat="40.2391741" lon="17.9162747"><ele>13.0</ele><time>2026-04-04T17:04:46.184Z</time></trkpt><trkpt lat="40.239363" lon="17.9161948"><ele>13.0</ele><time>2026-04-04T17:04:47.184Z</time></trkpt><trkpt lat="40.2395521" lon="17.916111"><ele>13.0</ele><time>2026-04-04T17:04:48.185Z</time></trkpt><trkpt lat="40.2397461" lon="17.9160233"><ele>13.0</ele><time>2026-04-04T17:04:49.185Z</time></trkpt><trkpt lat="40.2399445" lon="17.9159439"><ele>13.0</ele><time>2026-04-04T17:04:50.184Z</time></trkpt><trkpt lat="40.2401477" lon="17.9158722"><ele>13.0</ele><time>2026-04-04T17:04:51.185Z</time></trkpt><trkpt lat="40.2403551" lon="17.9157982"><ele>13.0</ele><time>2026-04-04T17:04:52.185Z</time></trkpt><trkpt lat="40.2405645" lon="17.9157193"><ele>12.666666666666666</ele><time>2026-04-04T17:04:53.186Z</time></trkpt><trkpt lat="40.2407756" lon="17.9156361"><ele>12.333333333333332</ele><time>2026-04-04T17:04:54.185Z</time></trkpt><trkpt lat="40.2409894" lon="17.9155525"><ele>12.0</ele><time>2026-04-04T17:04:55.185Z</time></trkpt><trkpt lat="40.2412027" lon="17.9154646"><ele>12.0</ele><time>2026-04-04T17:04:56.185Z</time></trkpt><trkpt lat="40.2414157" lon="17.915378"><ele>12.0</ele><time>2026-04-04T17:04:57.184Z</time></trkpt><trkpt lat="40.2416291" lon="17.9152911"><ele>12.0</ele><time>2026-04-04T17:04:58.184Z</time></trkpt><trkpt lat="40.2418409" lon="17.9152022"><ele>12.0</ele><time>2026-04-04T17:04:59.184Z</time></trkpt><trkpt lat="40.2420536" lon="17.9151115"><ele>12.0</ele><time>2026-04-04T17:05:00.186Z</time></trkpt><trkpt lat="40.2422669" lon="17.9150247"><ele>12.0</ele><time>2026-04-04T17:05:01.185Z</time></trkpt><trkpt lat="40.2424838" lon="17.9149395"><ele>11.0</ele><time>2026-04-04T17:05:02.185Z</time></trkpt><trkpt lat="40.2426994" lon="17.9148557"><ele>10.0</ele><time>2026-04-04T17:05:03.184Z</time></trkpt><trkpt lat="40.2429138" lon="17.9147688"><ele>9.0</ele><time>2026-04-04T17:05:04.185Z</time></trkpt><trkpt lat="40.2431264" lon="17.9146806"><ele>8.333333333333334</ele><time>2026-04-04T17:05:05.186Z</time></trkpt><trkpt lat="40.243335" lon="17.9145911"><ele>7.666666666666667</ele><time>2026-04-04T17:05:06.185Z</time></trkpt><trkpt lat="40.2435438" lon="17.9144936"><ele>7.0</ele><time>2026-04-04T17:05:07.186Z</time></trkpt><trkpt lat="40.2437527" lon="17.9143891"><ele>7.0</ele><time>2026-04-04T17:05:08.185Z</time></trkpt><trkpt lat="40.2439608" lon="17.9142846"><ele>7.0</ele><time>2026-04-04T17:05:09.184Z</time></trkpt><trkpt lat="40.2441649" lon="17.9141817"><ele>7.0</ele><time>2026-04-04T17:05:10.185Z</time></trkpt><trkpt lat="40.2443636" lon="17.9140795"><ele>7.666666666666667</ele><time>2026-04-04T17:05:11.185Z</time></trkpt><trkpt lat="40.2445564" lon="17.9139773"><ele>8.333333333333334</ele><time>2026-04-04T17:05:12.186Z</time></trkpt><trkpt lat="40.2447357" lon="17.9138808"><ele>9.0</ele><time>2026-04-04T17:05:13.185Z</time></trkpt><trkpt lat="40.2449025" lon="17.9137885"><ele>9.0</ele><time>2026-04-04T17:05:14.185Z</time></trkpt><trkpt lat="40.2450609" lon="17.9137014"><ele>9.0</ele><time>2026-04-04T17:05:15.184Z</time></trkpt><trkpt lat="40.2452114" lon="17.9136243"><ele>9.0</ele><time>2026-04-04T17:05:16.185Z</time></trkpt><trkpt lat="40.2453358" lon="17.9135638"><ele>9.0</ele><time>2026-04-04T17:05:17.185Z</time></trkpt><trkpt lat="40.2454394" lon="17.9135113"><ele>9.0</ele><time>2026-04-04T17:05:18.185Z</time></trkpt><trkpt lat="40.2455235" lon="17.9134726"><ele>9.0</ele><time>2026-04-04T17:05:19.184Z</time></trkpt><trkpt lat="40.2456007" lon="17.9134397"><ele>9.0</ele><time>2026-04-04T17:05:20.185Z</time></trkpt><trkpt lat="40.245676" lon="17.9134021"><ele>9.0</ele><time>2026-04-04T17:05:21.185Z</time></trkpt><trkpt lat="40.2457638" lon="17.9133508"><ele>8.5</ele><time>2026-04-04T17:05:22.185Z</time></trkpt><trkpt lat="40.245868" lon="17.9132933"><ele>8.0</ele><time>2026-04-04T17:05:23.184Z</time></trkpt><trkpt lat="40.245975" lon="17.9132383"><ele>7.5</ele><time>2026-04-04T17:05:24.184Z</time></trkpt><trkpt lat="40.2460925" lon="17.9131796"><ele>7.0</ele><time>2026-04-04T17:05:25.184Z</time></trkpt><trkpt lat="40.2462149" lon="17.9131193"><ele>7.0</ele><time>2026-04-04T17:05:26.185Z</time></trkpt><trkpt lat="40.246341" lon="17.9130535"><ele>7.0</ele><time>2026-04-04T17:05:27.185Z</time></trkpt><trkpt lat="40.2464677" lon="17.9129833"><ele>7.0</ele><time>2026-04-04T17:05:28.186Z</time></trkpt><trkpt lat="40.2465975" lon="17.9129038"><ele>7.0</ele><time>2026-04-04T17:05:29.185Z</time></trkpt><trkpt lat="40.2467373" lon="17.9128215"><ele>7.0</ele><time>2026-04-04T17:05:30.184Z</time></trkpt><trkpt lat="40.2468865" lon="17.9127391"><ele>7.0</ele><time>2026-04-04T17:05:31.184Z</time></trkpt><trkpt lat="40.2470456" lon="17.9126585"><ele>7.0</ele><time>2026-04-04T17:05:32.186Z</time></trkpt><trkpt lat="40.2472123" lon="17.9125802"><ele>6.333333333333334</ele><time>2026-04-04T17:05:33.186Z</time></trkpt><trkpt lat="40.2473848" lon="17.9124979"><ele>5.666666666666667</ele><time>2026-04-04T17:05:34.185Z</time></trkpt><trkpt lat="40.2475626" lon="17.9124101"><ele>5.0</ele><time>2026-04-04T17:05:35.185Z</time></trkpt><trkpt lat="40.2477452" lon="17.9123165"><ele>5.0</ele><time>2026-04-04T17:05:36.185Z</time></trkpt><trkpt lat="40.2479305" lon="17.9122205"><ele>5.0</ele><time>2026-04-04T17:05:37.185Z</time></trkpt><trkpt lat="40.2481179" lon="17.9121248"><ele>5.0</ele><time>2026-04-04T17:05:38.185Z</time></trkpt><trkpt lat="40.2483068" lon="17.9120297"><ele>5.333333333333334</ele><time>2026-04-04T17:05:39.185Z</time></trkpt><trkpt lat="40.2484971" lon="17.9119337"><ele>5.666666666666667</ele><time>2026-04-04T17:05:40.185Z</time></trkpt><trkpt lat="40.2486857" lon="17.9118362"><ele>6.0</ele><time>2026-04-04T17:05:41.185Z</time></trkpt><trkpt lat="40.2488707" lon="17.911738"><ele>6.0</ele><time>2026-04-04T17:05:42.184Z</time></trkpt><trkpt lat="40.2490559" lon="17.911641"><ele>6.0</ele><time>2026-04-04T17:05:43.184Z</time></trkpt><trkpt lat="40.2492394" lon="17.9115478"><ele>6.0</ele><time>2026-04-04T17:05:44.185Z</time></trkpt><trkpt lat="40.2494208" lon="17.9114554"><ele>6.0</ele><time>2026-04-04T17:05:45.184Z</time></trkpt><trkpt lat="40.2496037" lon="17.9113669"><ele>6.0</ele><time>2026-04-04T17:05:46.186Z</time></trkpt><trkpt lat="40.2497883" lon="17.911279"><ele>6.0</ele><time>2026-04-04T17:05:47.186Z</time></trkpt><trkpt lat="40.2499722" lon="17.9111861"><ele>6.666666666666666</ele><time>2026-04-04T17:05:48.186Z</time></trkpt><trkpt lat="40.2501549" lon="17.9110811"><ele>7.333333333333333</ele><time>2026-04-04T17:05:49.185Z</time></trkpt><trkpt lat="40.2503316" lon="17.9109612"><ele>8.0</ele><time>2026-04-04T17:05:50.186Z</time></trkpt><trkpt lat="40.2505003" lon="17.9108234"><ele>7.333333333333333</ele><time>2026-04-04T17:05:51.184Z</time></trkpt><trkpt lat="40.2506576" lon="17.9106678"><ele>6.666666666666666</ele><time>2026-04-04T17:05:52.185Z</time></trkpt><trkpt lat="40.2508073" lon="17.9104991"><ele>6.0</ele><time>2026-04-04T17:05:53.185Z</time></trkpt><trkpt lat="40.2509543" lon="17.910323"><ele>6.0</ele><time>2026-04-04T17:05:54.184Z</time></trkpt><trkpt lat="40.2511011" lon="17.9101444"><ele>6.0</ele><time>2026-04-04T17:05:55.184Z</time></trkpt><trkpt lat="40.2512485" lon="17.9099666"><ele>6.0</ele><time>2026-04-04T17:05:56.185Z</time></trkpt><trkpt lat="40.2513966" lon="17.9097878"><ele>5.666666666666667</ele><time>2026-04-04T17:05:57.184Z</time></trkpt><trkpt lat="40.2515451" lon="17.9096099"><ele>5.333333333333334</ele><time>2026-04-04T17:05:58.184Z</time></trkpt><trkpt lat="40.251693" lon="17.9094319"><ele>5.0</ele><time>2026-04-04T17:05:59.185Z</time></trkpt><trkpt lat="40.251835" lon="17.9092623"><ele>4.333333333333334</ele><time>2026-04-04T17:06:00.185Z</time></trkpt><trkpt lat="40.2519676" lon="17.9091048"><ele>3.666666666666667</ele><time>2026-04-04T17:06:01.186Z</time></trkpt><trkpt lat="40.252093" lon="17.9089543"><ele>3.0</ele><time>2026-04-04T17:06:02.186Z</time></trkpt><trkpt lat="40.2522104" lon="17.9088138"><ele>2.6666666666666665</ele><time>2026-04-04T17:06:03.185Z</time></trkpt><trkpt lat="40.2523198" lon="17.9086802"><ele>2.333333333333333</ele><time>2026-04-04T17:06:04.185Z</time></trkpt><trkpt lat="40.2525255" lon="17.9084301"><ele>2.0</ele><time>2026-04-04T17:06:06.186Z</time></trkpt><trkpt lat="40.2526256" lon="17.9083081"><ele>2.0</ele><time>2026-04-04T17:06:07.186Z</time></trkpt><trkpt lat="40.252732" lon="17.908177"><ele>2.0</ele><time>2026-04-04T17:06:08.185Z</time></trkpt><trkpt lat="40.2528441" lon="17.9080375"><ele>2.0</ele><time>2026-04-04T17:06:09.185Z</time></trkpt><trkpt lat="40.2529615" lon="17.9078932"><ele>2.0</ele><time>2026-04-04T17:06:10.185Z</time></trkpt><trkpt lat="40.2530846" lon="17.9077388"><ele>2.0</ele><time>2026-04-04T17:06:11.185Z</time></trkpt><trkpt lat="40.253203" lon="17.9075912"><ele>2.0</ele><time>2026-04-04T17:06:12.185Z</time></trkpt><trkpt lat="40.2533123" lon="17.9074603"><ele>2.0</ele><time>2026-04-04T17:06:13.185Z</time></trkpt><trkpt lat="40.2534158" lon="17.9073331"><ele>2.0</ele><time>2026-04-04T17:06:14.185Z</time></trkpt><trkpt lat="40.2535229" lon="17.9071977"><ele>2.0</ele><time>2026-04-04T17:06:15.184Z</time></trkpt><trkpt lat="40.2536337" lon="17.9070609"><ele>2.0</ele><time>2026-04-04T17:06:16.185Z</time></trkpt><trkpt lat="40.253744" lon="17.9069347"><ele>2.0</ele><time>2026-04-04T17:06:17.186Z</time></trkpt><trkpt lat="40.2538466" lon="17.9068225"><ele>2.0</ele><time>2026-04-04T17:06:18.185Z</time></trkpt><trkpt lat="40.2539326" lon="17.9067238"><ele>2.0</ele><time>2026-04-04T17:06:19.185Z</time></trkpt><trkpt lat="40.2540139" lon="17.9066298"><ele>2.0</ele><time>2026-04-04T17:06:20.185Z</time></trkpt><trkpt lat="40.2540906" lon="17.9065421"><ele>2.0</ele><time>2026-04-04T17:06:21.184Z</time></trkpt><trkpt lat="40.2541659" lon="17.906457"><ele>2.0</ele><time>2026-04-04T17:06:22.184Z</time></trkpt><trkpt lat="40.2542456" lon="17.9063654"><ele>2.0</ele><time>2026-04-04T17:06:23.184Z</time></trkpt><trkpt lat="40.2543285" lon="17.9062678"><ele>2.0</ele><time>2026-04-04T17:06:24.185Z</time></trkpt><trkpt lat="40.2544081" lon="17.906171"><ele>2.0</ele><time>2026-04-04T17:06:25.185Z</time></trkpt><trkpt lat="40.2544903" lon="17.9060725"><ele>2.0</ele><time>2026-04-04T17:06:26.186Z</time></trkpt><trkpt lat="40.2545721" lon="17.9059793"><ele>2.0</ele><time>2026-04-04T17:06:27.185Z</time></trkpt><trkpt lat="40.2546538" lon="17.9058919"><ele>2.0</ele><time>2026-04-04T17:06:28.185Z</time></trkpt><trkpt lat="40.254735" lon="17.9058074"><ele>2.0</ele><time>2026-04-04T17:06:29.184Z</time></trkpt><trkpt lat="40.2548173" lon="17.9057274"><ele>2.0</ele><time>2026-04-04T17:06:30.184Z</time></trkpt><trkpt lat="40.2549019" lon="17.9056556"><ele>1.8</ele><time>2026-04-04T17:06:31.184Z</time></trkpt><trkpt lat="40.2549901" lon="17.9055876"><ele>1.6</ele><time>2026-04-04T17:06:32.184Z</time></trkpt><trkpt lat="40.2550784" lon="17.905522"><ele>1.4000000000000001</ele><time>2026-04-04T17:06:33.185Z</time></trkpt><trkpt lat="40.2551672" lon="17.9054583"><ele>1.2000000000000002</ele><time>2026-04-04T17:06:34.185Z</time></trkpt><trkpt lat="40.2552581" lon="17.9053972"><ele>1.0</ele><time>2026-04-04T17:06:35.185Z</time></trkpt><trkpt lat="40.2553423" lon="17.9053393"><ele>0.9999999999999999</ele><time>2026-04-04T17:06:36.185Z</time></trkpt><trkpt lat="40.2554181" lon="17.9052824"><ele>1.0</ele><time>2026-04-04T17:06:37.184Z</time></trkpt><trkpt lat="40.25548" lon="17.9052336"><ele>1.0</ele><time>2026-04-04T17:06:38.184Z</time></trkpt><trkpt lat="40.2555492" lon="17.9051734"><ele>1.0</ele><time>2026-04-04T17:06:40.184Z</time></trkpt><trkpt lat="40.2556089" lon="17.9051254"><ele>0.9999999999999999</ele><time>2026-04-04T17:06:43.184Z</time></trkpt><trkpt lat="40.2556817" lon="17.9050738"><ele>1.0</ele><time>2026-04-04T17:06:54.184Z</time></trkpt><trkpt lat="40.2557821" lon="17.9050362"><ele>1.0</ele><time>2026-04-04T17:06:56.185Z</time></trkpt><trkpt lat="40.2558907" lon="17.9049874"><ele>1.0</ele><time>2026-04-04T17:06:58.185Z</time></trkpt><trkpt lat="40.2560074" lon="17.9049267"><ele>1.0</ele><time>2026-04-04T17:07:00.185Z</time></trkpt><trkpt lat="40.2560661" lon="17.904896"><ele>1.0</ele><time>2026-04-04T17:07:01.186Z</time></trkpt><trkpt lat="40.2561512" lon="17.9048253"><ele>1.0</ele><time>2026-04-04T17:07:03.184Z</time></trkpt><trkpt lat="40.256203" lon="17.9047485"><ele>0.9999999999999999</ele><time>2026-04-04T17:07:06.185Z</time></trkpt><trkpt lat="40.2562812" lon="17.9047775"><ele>1.0</ele><time>2026-04-04T17:07:33.185Z</time></trkpt><trkpt lat="40.2562134" lon="17.904755"><ele>1.0</ele><time>2026-04-04T17:08:05.187Z</time></trkpt><trkpt lat="40.2562925" lon="17.9048203"><ele>1.0</ele><time>2026-04-04T17:09:16.185Z</time></trkpt><trkpt lat="40.2563606" lon="17.9048005"><ele>0.9999999999999999</ele><time>2026-04-04T17:09:17.184Z</time></trkpt><trkpt lat="40.2564361" lon="17.9047798"><ele>1.0</ele><time>2026-04-04T17:09:18.185Z</time></trkpt><trkpt lat="40.2565263" lon="17.9047589"><ele>1.5</ele><time>2026-04-04T17:09:19.184Z</time></trkpt><trkpt lat="40.2566313" lon="17.9047348"><ele>2.0</ele><time>2026-04-04T17:09:20.185Z</time></trkpt><trkpt lat="40.2567486" lon="17.9047126"><ele>2.5</ele><time>2026-04-04T17:09:21.185Z</time></trkpt><trkpt lat="40.2568736" lon="17.9046911"><ele>3.0</ele><time>2026-04-04T17:09:22.185Z</time></trkpt><trkpt lat="40.2570187" lon="17.9046677"><ele>3.0</ele><time>2026-04-04T17:09:23.185Z</time></trkpt><trkpt lat="40.2571661" lon="17.904657"><ele>3.0</ele><time>2026-04-04T17:09:24.184Z</time></trkpt><trkpt lat="40.2573183" lon="17.9046516"><ele>3.0</ele><time>2026-04-04T17:09:25.184Z</time></trkpt><trkpt lat="40.2574741" lon="17.9046451"><ele>3.0</ele><time>2026-04-04T17:09:26.185Z</time></trkpt><trkpt lat="40.2576324" lon="17.9046395"><ele>3.0</ele><time>2026-04-04T17:09:27.185Z</time></trkpt><trkpt lat="40.2577964" lon="17.9046262"><ele>3.0</ele><time>2026-04-04T17:09:28.186Z</time></trkpt><trkpt lat="40.257959" lon="17.9046095"><ele>3.333333333333333</ele><time>2026-04-04T17:09:29.186Z</time></trkpt><trkpt lat="40.2581236" lon="17.9045839"><ele>3.6666666666666665</ele><time>2026-04-04T17:09:30.186Z</time></trkpt><trkpt lat="40.2582889" lon="17.9045559"><ele>4.0</ele><time>2026-04-04T17:09:31.185Z</time></trkpt><trkpt lat="40.2584543" lon="17.9045119"><ele>4.0</ele><time>2026-04-04T17:09:32.184Z</time></trkpt><trkpt lat="40.2586175" lon="17.9044629"><ele>4.0</ele><time>2026-04-04T17:09:33.184Z</time></trkpt><trkpt lat="40.2587881" lon="17.9044054"><ele>4.0</ele><time>2026-04-04T17:09:34.186Z</time></trkpt><trkpt lat="40.2589547" lon="17.9043324"><ele>4.0</ele><time>2026-04-04T17:09:35.184Z</time></trkpt><trkpt lat="40.2591169" lon="17.9042589"><ele>4.0</ele><time>2026-04-04T17:09:36.184Z</time></trkpt><trkpt lat="40.2592788" lon="17.9041751"><ele>4.0</ele><time>2026-04-04T17:09:37.186Z</time></trkpt><trkpt lat="40.2594352" lon="17.9040857"><ele>4.0</ele><time>2026-04-04T17:09:38.185Z</time></trkpt><trkpt lat="40.2595726" lon="17.9040076"><ele>4.0</ele><time>2026-04-04T17:09:39.184Z</time></trkpt><trkpt lat="40.2597074" lon="17.9039212"><ele>4.0</ele><time>2026-04-04T17:09:40.184Z</time></trkpt><trkpt lat="40.2598334" lon="17.9038284"><ele>4.0</ele><time>2026-04-04T17:09:41.186Z</time></trkpt><trkpt lat="40.2599519" lon="17.9037478"><ele>4.5</ele><time>2026-04-04T17:09:42.184Z</time></trkpt><trkpt lat="40.2600664" lon="17.9036688"><ele>5.0</ele><time>2026-04-04T17:09:43.185Z</time></trkpt><trkpt lat="40.2601708" lon="17.9035879"><ele>5.5</ele><time>2026-04-04T17:09:44.186Z</time></trkpt><trkpt lat="40.2602661" lon="17.9035085"><ele>6.0</ele><time>2026-04-04T17:09:45.186Z</time></trkpt><trkpt lat="40.2603718" lon="17.9034294"><ele>6.0</ele><time>2026-04-04T17:09:46.186Z</time></trkpt><trkpt lat="40.2604706" lon="17.903359"><ele>6.0</ele><time>2026-04-04T17:09:47.185Z</time></trkpt><trkpt lat="40.2605812" lon="17.9032826"><ele>6.0</ele><time>2026-04-04T17:09:48.185Z</time></trkpt><trkpt lat="40.2606883" lon="17.9031965"><ele>6.0</ele><time>2026-04-04T17:09:49.185Z</time></trkpt><trkpt lat="40.2607987" lon="17.9031145"><ele>5.75</ele><time>2026-04-04T17:09:50.185Z</time></trkpt><trkpt lat="40.2609146" lon="17.9030332"><ele>5.5</ele><time>2026-04-04T17:09:51.184Z</time></trkpt><trkpt lat="40.2610301" lon="17.9029498"><ele>5.25</ele><time>2026-04-04T17:09:52.186Z</time></trkpt><trkpt lat="40.2611513" lon="17.9028647"><ele>5.0</ele><time>2026-04-04T17:09:53.185Z</time></trkpt><trkpt lat="40.2612698" lon="17.9027795"><ele>5.0</ele><time>2026-04-04T17:09:54.187Z</time></trkpt><trkpt lat="40.2613893" lon="17.9026958"><ele>5.0</ele><time>2026-04-04T17:09:55.186Z</time></trkpt><trkpt lat="40.2615104" lon="17.9025974"><ele>5.0</ele><time>2026-04-04T17:09:56.185Z</time></trkpt><trkpt lat="40.2616311" lon="17.9025083"><ele>5.0</ele><time>2026-04-04T17:09:57.186Z</time></trkpt><trkpt lat="40.2617547" lon="17.902415"><ele>4.5</ele><time>2026-04-04T17:09:58.185Z</time></trkpt><trkpt lat="40.2618787" lon="17.9023221"><ele>4.0</ele><time>2026-04-04T17:09:59.184Z</time></trkpt><trkpt lat="40.262002" lon="17.902233"><ele>3.5</ele><time>2026-04-04T17:10:00.185Z</time></trkpt><trkpt lat="40.2621214" lon="17.9021448"><ele>3.0</ele><time>2026-04-04T17:10:01.184Z</time></trkpt><trkpt lat="40.2622366" lon="17.9020554"><ele>3.25</ele><time>2026-04-04T17:10:02.185Z</time></trkpt><trkpt lat="40.2623486" lon="17.9019679"><ele>3.5</ele><time>2026-04-04T17:10:03.185Z</time></trkpt><trkpt lat="40.2624554" lon="17.9018886"><ele>3.75</ele><time>2026-04-04T17:10:04.185Z</time></trkpt><trkpt lat="40.2625588" lon="17.9018157"><ele>4.0</ele><time>2026-04-04T17:10:05.186Z</time></trkpt><trkpt lat="40.2626447" lon="17.9017585"><ele>4.0</ele><time>2026-04-04T17:10:06.185Z</time></trkpt><trkpt lat="40.2627045" lon="17.9017161"><ele>3.9999999999999996</ele><time>2026-04-04T17:10:07.184Z</time></trkpt><trkpt lat="40.2627807" lon="17.9016745"><ele>4.0</ele><time>2026-04-04T17:10:10.185Z</time></trkpt><trkpt lat="40.2628578" lon="17.9016177"><ele>4.0</ele><time>2026-04-04T17:10:12.185Z</time></trkpt><trkpt lat="40.2629248" lon="17.9015722"><ele>3.9999999999999996</ele><time>2026-04-04T17:10:13.184Z</time></trkpt><trkpt lat="40.2629889" lon="17.9015301"><ele>4.0</ele><time>2026-04-04T17:10:14.185Z</time></trkpt><trkpt lat="40.2630471" lon="17.9014983"><ele>4.0</ele><time>2026-04-04T17:10:15.185Z</time></trkpt><trkpt lat="40.2631457" lon="17.9014689"><ele>3.8000000000000003</ele><time>2026-04-04T17:10:17.185Z</time></trkpt><trkpt lat="40.2632307" lon="17.901443"><ele>3.6000000000000005</ele><time>2026-04-04T17:10:42.187Z</time></trkpt><trkpt lat="40.2633527" lon="17.9014733"><ele>3.4</ele><time>2026-04-04T17:10:44.185Z</time></trkpt><trkpt lat="40.2634264" lon="17.9015193"><ele>3.2</ele><time>2026-04-04T17:10:45.185Z</time></trkpt><trkpt lat="40.2634972" lon="17.9015913"><ele>3.0</ele><time>2026-04-04T17:10:46.186Z</time></trkpt><trkpt lat="40.2635712" lon="17.901681"><ele>3.25</ele><time>2026-04-04T17:10:47.185Z</time></trkpt><trkpt lat="40.2636333" lon="17.9017974"><ele>3.5</ele><time>2026-04-04T17:10:48.186Z</time></trkpt><trkpt lat="40.2636899" lon="17.9019266"><ele>3.75</ele><time>2026-04-04T17:10:49.184Z</time></trkpt><trkpt lat="40.2637437" lon="17.9020583"><ele>4.0</ele><time>2026-04-04T17:10:50.185Z</time></trkpt><trkpt lat="40.2638055" lon="17.9021996"><ele>4.0</ele><time>2026-04-04T17:10:51.185Z</time></trkpt><trkpt lat="40.263863" lon="17.9023448"><ele>4.0</ele><time>2026-04-04T17:10:52.185Z</time></trkpt><trkpt lat="40.2639281" lon="17.9024908"><ele>4.0</ele><time>2026-04-04T17:10:53.184Z</time></trkpt><trkpt lat="40.2639927" lon="17.9026427"><ele>4.0</ele><time>2026-04-04T17:10:54.186Z</time></trkpt><trkpt lat="40.2640575" lon="17.9027966"><ele>4.5</ele><time>2026-04-04T17:10:55.186Z</time></trkpt><trkpt lat="40.2641262" lon="17.9029578"><ele>5.0</ele><time>2026-04-04T17:10:56.184Z</time></trkpt><trkpt lat="40.2641985" lon="17.9031233"><ele>5.5</ele><time>2026-04-04T17:10:57.185Z</time></trkpt><trkpt lat="40.2642694" lon="17.9032903"><ele>6.0</ele><time>2026-04-04T17:10:58.185Z</time></trkpt><trkpt lat="40.2643526" lon="17.9034781"><ele>6.666666666666666</ele><time>2026-04-04T17:10:59.184Z</time></trkpt><trkpt lat="40.2644382" lon="17.9036733"><ele>7.333333333333333</ele><time>2026-04-04T17:11:00.185Z</time></trkpt><trkpt lat="40.2645174" lon="17.9038466"><ele>8.0</ele><time>2026-04-04T17:11:01.185Z</time></trkpt><trkpt lat="40.2645885" lon="17.904012"><ele>8.0</ele><time>2026-04-04T17:11:02.185Z</time></trkpt><trkpt lat="40.2646564" lon="17.9041544"><ele>8.0</ele><time>2026-04-04T17:11:03.184Z</time></trkpt><trkpt lat="40.2647201" lon="17.9042926"><ele>8.0</ele><time>2026-04-04T17:11:04.186Z</time></trkpt><trkpt lat="40.2647758" lon="17.9044257"><ele>8.0</ele><time>2026-04-04T17:11:05.185Z</time></trkpt><trkpt lat="40.2648251" lon="17.9045448"><ele>9.0</ele><time>2026-04-04T17:11:06.184Z</time></trkpt><trkpt lat="40.26487" lon="17.9046665"><ele>10.0</ele><time>2026-04-04T17:11:07.186Z</time></trkpt><trkpt lat="40.2649231" lon="17.9047939"><ele>11.0</ele><time>2026-04-04T17:11:08.184Z</time></trkpt><trkpt lat="40.2649858" lon="17.9049286"><ele>12.0</ele><time>2026-04-04T17:11:09.186Z</time></trkpt><trkpt lat="40.2650567" lon="17.9050726"><ele>13.0</ele><time>2026-04-04T17:11:10.185Z</time></trkpt><trkpt lat="40.2651329" lon="17.9052231"><ele>14.0</ele><time>2026-04-04T17:11:11.185Z</time></trkpt><trkpt lat="40.2652089" lon="17.9053917"><ele>15.0</ele><time>2026-04-04T17:11:12.185Z</time></trkpt><trkpt lat="40.2652986" lon="17.9055814"><ele>15.0</ele><time>2026-04-04T17:11:13.184Z</time></trkpt><trkpt lat="40.2653958" lon="17.9058003"><ele>15.0</ele><time>2026-04-04T17:11:14.184Z</time></trkpt><trkpt lat="40.2654961" lon="17.9060421"><ele>15.0</ele><time>2026-04-04T17:11:15.185Z</time></trkpt><trkpt lat="40.2655992" lon="17.9062931"><ele>16.5</ele><time>2026-04-04T17:11:16.185Z</time></trkpt><trkpt lat="40.2657105" lon="17.9065539"><ele>18.0</ele><time>2026-04-04T17:11:17.185Z</time></trkpt><trkpt lat="40.2658311" lon="17.9068311"><ele>19.0</ele><time>2026-04-04T17:11:18.185Z</time></trkpt><trkpt lat="40.2659553" lon="17.9071152"><ele>20.0</ele><time>2026-04-04T17:11:19.185Z</time></trkpt><trkpt lat="40.2660831" lon="17.9074116"><ele>20.0</ele><time>2026-04-04T17:11:20.184Z</time></trkpt><trkpt lat="40.2662157" lon="17.9077145"><ele>20.0</ele><time>2026-04-04T17:11:21.185Z</time></trkpt><trkpt lat="40.2663482" lon="17.908024"><ele>20.0</ele><time>2026-04-04T17:11:22.185Z</time></trkpt><trkpt lat="40.2664855" lon="17.908334"><ele>20.0</ele><time>2026-04-04T17:11:23.185Z</time></trkpt><trkpt lat="40.2666201" lon="17.908646"><ele>20.0</ele><time>2026-04-04T17:11:24.186Z</time></trkpt><trkpt lat="40.2667548" lon="17.9089535"><ele>20.0</ele><time>2026-04-04T17:11:25.186Z</time></trkpt><trkpt lat="40.2668792" lon="17.9092686"><ele>22.0</ele><time>2026-04-04T17:11:26.184Z</time></trkpt><trkpt lat="40.2670007" lon="17.9095904"><ele>24.0</ele><time>2026-04-04T17:11:27.185Z</time></trkpt><trkpt lat="40.2671158" lon="17.9099111"><ele>24.5</ele><time>2026-04-04T17:11:28.186Z</time></trkpt><trkpt lat="40.2672298" lon="17.9102279"><ele>25.0</ele><time>2026-04-04T17:11:29.184Z</time></trkpt><trkpt lat="40.2673392" lon="17.9105391"><ele>25.0</ele><time>2026-04-04T17:11:30.184Z</time></trkpt><trkpt lat="40.267446" lon="17.9108323"><ele>25.0</ele><time>2026-04-04T17:11:31.186Z</time></trkpt><trkpt lat="40.2675375" lon="17.9111133"><ele>25.0</ele><time>2026-04-04T17:11:32.184Z</time></trkpt><trkpt lat="40.2676239" lon="17.91138"><ele>25.0</ele><time>2026-04-04T17:11:33.186Z</time></trkpt><trkpt lat="40.2676899" lon="17.9115723"><ele>25.0</ele><time>2026-04-04T17:11:34.185Z</time></trkpt><trkpt lat="40.2677544" lon="17.9117633"><ele>24.25</ele><time>2026-04-04T17:11:35.185Z</time></trkpt><trkpt lat="40.2678114" lon="17.9119346"><ele>23.5</ele><time>2026-04-04T17:11:36.186Z</time></trkpt><trkpt lat="40.2678644" lon="17.9120865"><ele>22.75</ele><time>2026-04-04T17:11:37.186Z</time></trkpt><trkpt lat="40.2679115" lon="17.9122352"><ele>22.0</ele><time>2026-04-04T17:11:38.184Z</time></trkpt><trkpt lat="40.2679597" lon="17.9123982"><ele>22.333333333333332</ele><time>2026-04-04T17:11:39.185Z</time></trkpt><trkpt lat="40.2680092" lon="17.9125779"><ele>22.666666666666668</ele><time>2026-04-04T17:11:40.185Z</time></trkpt><trkpt lat="40.2680568" lon="17.912781"><ele>23.0</ele><time>2026-04-04T17:11:41.185Z</time></trkpt><trkpt lat="40.2681049" lon="17.9130031"><ele>23.333333333333336</ele><time>2026-04-04T17:11:42.186Z</time></trkpt><trkpt lat="40.2681497" lon="17.9132366"><ele>23.666666666666668</ele><time>2026-04-04T17:11:43.185Z</time></trkpt><trkpt lat="40.2681936" lon="17.9134697"><ele>24.0</ele><time>2026-04-04T17:11:44.185Z</time></trkpt><trkpt lat="40.2682362" lon="17.9136994"><ele>24.333333333333336</ele><time>2026-04-04T17:11:45.184Z</time></trkpt><trkpt lat="40.2682746" lon="17.913932"><ele>24.666666666666668</ele><time>2026-04-04T17:11:46.186Z</time></trkpt><trkpt lat="40.2683113" lon="17.9141617"><ele>25.0</ele><time>2026-04-04T17:11:47.185Z</time></trkpt><trkpt lat="40.2683528" lon="17.9143959"><ele>25.333333333333336</ele><time>2026-04-04T17:11:48.186Z</time></trkpt><trkpt lat="40.2683907" lon="17.9146301"><ele>25.666666666666664</ele><time>2026-04-04T17:11:49.184Z</time></trkpt><trkpt lat="40.268423" lon="17.9148702"><ele>26.0</ele><time>2026-04-04T17:11:50.185Z</time></trkpt><trkpt lat="40.2684554" lon="17.9151046"><ele>26.0</ele><time>2026-04-04T17:11:51.187Z</time></trkpt><trkpt lat="40.268497" lon="17.9153415"><ele>26.0</ele><time>2026-04-04T17:11:52.185Z</time></trkpt><trkpt lat="40.2685365" lon="17.9155744"><ele>26.0</ele><time>2026-04-04T17:11:53.185Z</time></trkpt><trkpt lat="40.2685827" lon="17.915816"><ele>25.666666666666664</ele><time>2026-04-04T17:11:54.185Z</time></trkpt><trkpt lat="40.2686236" lon="17.9160552"><ele>25.333333333333336</ele><time>2026-04-04T17:11:55.184Z</time></trkpt><trkpt lat="40.2686671" lon="17.9162724"><ele>25.0</ele><time>2026-04-04T17:11:56.185Z</time></trkpt><trkpt lat="40.2687061" lon="17.916485"><ele>25.0</ele><time>2026-04-04T17:11:57.186Z</time></trkpt><trkpt lat="40.2687415" lon="17.9166804"><ele>25.0</ele><time>2026-04-04T17:11:58.186Z</time></trkpt><trkpt lat="40.2687715" lon="17.9168656"><ele>25.0</ele><time>2026-04-04T17:11:59.185Z</time></trkpt><trkpt lat="40.2688052" lon="17.9170395"><ele>25.0</ele><time>2026-04-04T17:12:00.184Z</time></trkpt><trkpt lat="40.26884" lon="17.9171989"><ele>25.0</ele><time>2026-04-04T17:12:01.185Z</time></trkpt><trkpt lat="40.2688729" lon="17.917337"><ele>25.0</ele><time>2026-04-04T17:12:02.184Z</time></trkpt><trkpt lat="40.2688963" lon="17.9174757"><ele>25.0</ele><time>2026-04-04T17:12:03.186Z</time></trkpt><trkpt lat="40.2688973" lon="17.9176054"><ele>25.0</ele><time>2026-04-04T17:12:04.185Z</time></trkpt><trkpt lat="40.2688866" lon="17.9177329"><ele>25.0</ele><time>2026-04-04T17:12:05.185Z</time></trkpt><trkpt lat="40.2688727" lon="17.9178593"><ele>25.0</ele><time>2026-04-04T17:12:06.185Z</time></trkpt><trkpt lat="40.2688723" lon="17.9179808"><ele>25.0</ele><time>2026-04-04T17:12:07.184Z</time></trkpt><trkpt lat="40.2688972" lon="17.9180987"><ele>25.0</ele><time>2026-04-04T17:12:08.185Z</time></trkpt><trkpt lat="40.2689504" lon="17.9182051"><ele>25.0</ele><time>2026-04-04T17:12:09.185Z</time></trkpt><trkpt lat="40.2690258" lon="17.9182967"><ele>25.0</ele><time>2026-04-04T17:12:10.185Z</time></trkpt><trkpt lat="40.2691106" lon="17.9184061"><ele>25.0</ele><time>2026-04-04T17:12:11.184Z</time></trkpt><trkpt lat="40.269195" lon="17.9185328"><ele>25.0</ele><time>2026-04-04T17:12:12.185Z</time></trkpt><trkpt lat="40.2692581" lon="17.9187155"><ele>25.0</ele><time>2026-04-04T17:12:13.185Z</time></trkpt><trkpt lat="40.2693245" lon="17.918902"><ele>25.0</ele><time>2026-04-04T17:12:14.184Z</time></trkpt><trkpt lat="40.2693903" lon="17.9191001"><ele>25.0</ele><time>2026-04-04T17:12:15.184Z</time></trkpt><trkpt lat="40.2694611" lon="17.919303"><ele>25.0</ele><time>2026-04-04T17:12:16.184Z</time></trkpt><trkpt lat="40.2695296" lon="17.9194987"><ele>25.0</ele><time>2026-04-04T17:12:17.185Z</time></trkpt><trkpt lat="40.2695998" lon="17.9196945"><ele>25.0</ele><time>2026-04-04T17:12:18.186Z</time></trkpt><trkpt lat="40.2696795" lon="17.919894"><ele>25.0</ele><time>2026-04-04T17:12:19.186Z</time></trkpt><trkpt lat="40.2697591" lon="17.920104"><ele>25.0</ele><time>2026-04-04T17:12:20.186Z</time></trkpt><trkpt lat="40.269838" lon="17.9203274"><ele>26.0</ele><time>2026-04-04T17:12:21.186Z</time></trkpt><trkpt lat="40.2699141" lon="17.920558"><ele>27.0</ele><time>2026-04-04T17:12:22.184Z</time></trkpt><trkpt lat="40.2700013" lon="17.920805"><ele>28.0</ele><time>2026-04-04T17:12:23.186Z</time></trkpt><trkpt lat="40.2700898" lon="17.9210551"><ele>28.0</ele><time>2026-04-04T17:12:24.185Z</time></trkpt><trkpt lat="40.2701752" lon="17.9213119"><ele>28.0</ele><time>2026-04-04T17:12:25.185Z</time></trkpt><trkpt lat="40.2702577" lon="17.9215773"><ele>28.0</ele><time>2026-04-04T17:12:26.186Z</time></trkpt><trkpt lat="40.2703412" lon="17.9218425"><ele>27.666666666666668</ele><time>2026-04-04T17:12:27.186Z</time></trkpt><trkpt lat="40.2704301" lon="17.9221001"><ele>27.333333333333336</ele><time>2026-04-04T17:12:28.184Z</time></trkpt><trkpt lat="40.2705165" lon="17.9223572"><ele>27.0</ele><time>2026-04-04T17:12:29.185Z</time></trkpt><trkpt lat="40.2706031" lon="17.9226105"><ele>27.666666666666664</ele><time>2026-04-04T17:12:30.184Z</time></trkpt><trkpt lat="40.2706872" lon="17.9228595"><ele>28.333333333333332</ele><time>2026-04-04T17:12:31.186Z</time></trkpt><trkpt lat="40.2707697" lon="17.9230986"><ele>29.0</ele><time>2026-04-04T17:12:32.186Z</time></trkpt><trkpt lat="40.27085" lon="17.9233295"><ele>29.666666666666664</ele><time>2026-04-04T17:12:33.185Z</time></trkpt><trkpt lat="40.2709289" lon="17.9235597"><ele>30.333333333333336</ele><time>2026-04-04T17:12:34.185Z</time></trkpt><trkpt lat="40.2710074" lon="17.9237743"><ele>31.0</ele><time>2026-04-04T17:12:35.185Z</time></trkpt><trkpt lat="40.2710853" lon="17.9239865"><ele>31.0</ele><time>2026-04-04T17:12:36.185Z</time></trkpt><trkpt lat="40.271167" lon="17.9241971"><ele>31.0</ele><time>2026-04-04T17:12:37.185Z</time></trkpt><trkpt lat="40.2712474" lon="17.9244167"><ele>31.0</ele><time>2026-04-04T17:12:38.185Z</time></trkpt><trkpt lat="40.2713284" lon="17.9246465"><ele>31.0</ele><time>2026-04-04T17:12:39.186Z</time></trkpt><trkpt lat="40.271407" lon="17.9248807"><ele>31.0</ele><time>2026-04-04T17:12:40.185Z</time></trkpt><trkpt lat="40.2714857" lon="17.925113"><ele>31.0</ele><time>2026-04-04T17:12:41.185Z</time></trkpt><trkpt lat="40.2715621" lon="17.9253475"><ele>32.333333333333336</ele><time>2026-04-04T17:12:42.185Z</time></trkpt><trkpt lat="40.2716454" lon="17.925589"><ele>33.666666666666664</ele><time>2026-04-04T17:12:43.186Z</time></trkpt><trkpt lat="40.2717388" lon="17.9258352"><ele>35.0</ele><time>2026-04-04T17:12:44.185Z</time></trkpt><trkpt lat="40.2718269" lon="17.9260759"><ele>35.666666666666664</ele><time>2026-04-04T17:12:45.185Z</time></trkpt><trkpt lat="40.2719106" lon="17.9263105"><ele>36.333333333333336</ele><time>2026-04-04T17:12:46.185Z</time></trkpt><trkpt lat="40.2719881" lon="17.92654"><ele>37.0</ele><time>2026-04-04T17:12:47.185Z</time></trkpt><trkpt lat="40.2720598" lon="17.9267645"><ele>37.333333333333336</ele><time>2026-04-04T17:12:48.186Z</time></trkpt><trkpt lat="40.2721361" lon="17.926984"><ele>37.666666666666664</ele><time>2026-04-04T17:12:49.185Z</time></trkpt><trkpt lat="40.2722103" lon="17.9271916"><ele>38.0</ele><time>2026-04-04T17:12:50.187Z</time></trkpt><trkpt lat="40.2722812" lon="17.9273978"><ele>38.33333333333333</ele><time>2026-04-04T17:12:51.185Z</time></trkpt><trkpt lat="40.2723504" lon="17.9275985"><ele>38.666666666666664</ele><time>2026-04-04T17:12:52.186Z</time></trkpt><trkpt lat="40.2724195" lon="17.9277968"><ele>39.0</ele><time>2026-04-04T17:12:53.187Z</time></trkpt><trkpt lat="40.2724899" lon="17.9279956"><ele>39.0</ele><time>2026-04-04T17:12:54.185Z</time></trkpt><trkpt lat="40.2725673" lon="17.9282041"><ele>39.0</ele><time>2026-04-04T17:12:55.185Z</time></trkpt><trkpt lat="40.2726462" lon="17.9284262"><ele>39.0</ele><time>2026-04-04T17:12:56.185Z</time></trkpt><trkpt lat="40.2727254" lon="17.928661"><ele>38.666666666666664</ele><time>2026-04-04T17:12:57.185Z</time></trkpt><trkpt lat="40.2728145" lon="17.9289076"><ele>38.33333333333333</ele><time>2026-04-04T17:12:58.185Z</time></trkpt><trkpt lat="40.2729096" lon="17.9291666"><ele>38.0</ele><time>2026-04-04T17:12:59.186Z</time></trkpt><trkpt lat="40.2730096" lon="17.9294451"><ele>39.0</ele><time>2026-04-04T17:13:00.185Z</time></trkpt><trkpt lat="40.2731147" lon="17.9297397"><ele>40.0</ele><time>2026-04-04T17:13:01.185Z</time></trkpt><trkpt lat="40.2732269" lon="17.9300513"><ele>40.5</ele><time>2026-04-04T17:13:02.185Z</time></trkpt><trkpt lat="40.2733411" lon="17.9303783"><ele>41.0</ele><time>2026-04-04T17:13:03.185Z</time></trkpt><trkpt lat="40.2734572" lon="17.9307085"><ele>41.0</ele><time>2026-04-04T17:13:04.185Z</time></trkpt><trkpt lat="40.2735749" lon="17.9310411"><ele>41.0</ele><time>2026-04-04T17:13:05.186Z</time></trkpt><trkpt lat="40.27369" lon="17.9313779"><ele>41.0</ele><time>2026-04-04T17:13:06.187Z</time></trkpt><trkpt lat="40.2737992" lon="17.9317153"><ele>41.0</ele><time>2026-04-04T17:13:07.184Z</time></trkpt><trkpt lat="40.2739069" lon="17.9320493"><ele>41.0</ele><time>2026-04-04T17:13:08.184Z</time></trkpt><trkpt lat="40.274014" lon="17.9323778"><ele>41.0</ele><time>2026-04-04T17:13:09.186Z</time></trkpt><trkpt lat="40.2741241" lon="17.9326997"><ele>41.0</ele><time>2026-04-04T17:13:10.186Z</time></trkpt><trkpt lat="40.2742341" lon="17.9330147"><ele>41.0</ele><time>2026-04-04T17:13:11.185Z</time></trkpt><trkpt lat="40.274346" lon="17.9333287"><ele>40.5</ele><time>2026-04-04T17:13:12.184Z</time></trkpt><trkpt lat="40.2744544" lon="17.933634"><ele>40.0</ele><time>2026-04-04T17:13:13.184Z</time></trkpt><trkpt lat="40.2745609" lon="17.9339358"><ele>39.0</ele><time>2026-04-04T17:13:14.186Z</time></trkpt><trkpt lat="40.2746649" lon="17.934229"><ele>38.0</ele><time>2026-04-04T17:13:15.186Z</time></trkpt><trkpt lat="40.2747659" lon="17.9345205"><ele>38.5</ele><time>2026-04-04T17:13:16.185Z</time></trkpt><trkpt lat="40.2748628" lon="17.9348104"><ele>39.0</ele><time>2026-04-04T17:13:17.186Z</time></trkpt><trkpt lat="40.2749594" lon="17.9350934"><ele>39.0</ele><time>2026-04-04T17:13:18.185Z</time></trkpt><trkpt lat="40.2750555" lon="17.9353671"><ele>39.0</ele><time>2026-04-04T17:13:19.184Z</time></trkpt><trkpt lat="40.2751481" lon="17.9356314"><ele>39.0</ele><time>2026-04-04T17:13:20.185Z</time></trkpt><trkpt lat="40.2752333" lon="17.9358822"><ele>39.0</ele><time>2026-04-04T17:13:21.187Z</time></trkpt><trkpt lat="40.2753166" lon="17.9361239"><ele>39.0</ele><time>2026-04-04T17:13:22.185Z</time></trkpt><trkpt lat="40.2753924" lon="17.9363472"><ele>39.0</ele><time>2026-04-04T17:13:23.186Z</time></trkpt><trkpt lat="40.2754674" lon="17.9365554"><ele>39.0</ele><time>2026-04-04T17:13:24.184Z</time></trkpt><trkpt lat="40.2755392" lon="17.9367485"><ele>39.0</ele><time>2026-04-04T17:13:25.186Z</time></trkpt><trkpt lat="40.275606" lon="17.9369274"><ele>39.5</ele><time>2026-04-04T17:13:26.186Z</time></trkpt><trkpt lat="40.2756678" lon="17.9370958"><ele>40.0</ele><time>2026-04-04T17:13:27.186Z</time></trkpt><trkpt lat="40.2757207" lon="17.9372542"><ele>40.5</ele><time>2026-04-04T17:13:28.184Z</time></trkpt><trkpt lat="40.2757527" lon="17.9374043"><ele>41.0</ele><time>2026-04-04T17:13:29.185Z</time></trkpt><trkpt lat="40.2757553" lon="17.9375456"><ele>40.8</ele><time>2026-04-04T17:13:30.187Z</time></trkpt><trkpt lat="40.2757477" lon="17.9376836"><ele>40.599999999999994</ele><time>2026-04-04T17:13:31.185Z</time></trkpt><trkpt lat="40.2757575" lon="17.9378172"><ele>40.4</ele><time>2026-04-04T17:13:32.186Z</time></trkpt><trkpt lat="40.2757954" lon="17.9379407"><ele>40.2</ele><time>2026-04-04T17:13:33.185Z</time></trkpt><trkpt lat="40.2758667" lon="17.9380413"><ele>40.0</ele><time>2026-04-04T17:13:34.184Z</time></trkpt><trkpt lat="40.2759561" lon="17.9381392"><ele>40.0</ele><time>2026-04-04T17:13:35.185Z</time></trkpt><trkpt lat="40.2760504" lon="17.9382637"><ele>40.0</ele><time>2026-04-04T17:13:36.186Z</time></trkpt><trkpt lat="40.2761315" lon="17.9384155"><ele>40.0</ele><time>2026-04-04T17:13:37.187Z</time></trkpt><trkpt lat="40.2761953" lon="17.9386294"><ele>39.66666666666667</ele><time>2026-04-04T17:13:38.185Z</time></trkpt><trkpt lat="40.2762677" lon="17.9388458"><ele>39.333333333333336</ele><time>2026-04-04T17:13:39.184Z</time></trkpt><trkpt lat="40.2763476" lon="17.9390778"><ele>39.0</ele><time>2026-04-04T17:13:40.184Z</time></trkpt><trkpt lat="40.2764268" lon="17.9393112"><ele>39.666666666666664</ele><time>2026-04-04T17:13:41.186Z</time></trkpt><trkpt lat="40.2765132" lon="17.93955"><ele>40.33333333333333</ele><time>2026-04-04T17:13:42.186Z</time></trkpt><trkpt lat="40.2765934" lon="17.939793"><ele>41.0</ele><time>2026-04-04T17:13:43.184Z</time></trkpt><trkpt lat="40.2766794" lon="17.9400403"><ele>42.0</ele><time>2026-04-04T17:13:44.185Z</time></trkpt><trkpt lat="40.276766" lon="17.940293"><ele>43.0</ele><time>2026-04-04T17:13:45.185Z</time></trkpt><trkpt lat="40.2768524" lon="17.9405477"><ele>44.0</ele><time>2026-04-04T17:13:46.184Z</time></trkpt><trkpt lat="40.276942" lon="17.9408098"><ele>44.33333333333333</ele><time>2026-04-04T17:13:47.185Z</time></trkpt><trkpt lat="40.2770346" lon="17.9410675"><ele>44.666666666666664</ele><time>2026-04-04T17:13:48.184Z</time></trkpt><trkpt lat="40.2771306" lon="17.9413305"><ele>45.0</ele><time>2026-04-04T17:13:49.185Z</time></trkpt><trkpt lat="40.277223" lon="17.941593"><ele>45.666666666666664</ele><time>2026-04-04T17:13:50.186Z</time></trkpt><trkpt lat="40.2773207" lon="17.9418507"><ele>46.33333333333333</ele><time>2026-04-04T17:13:51.185Z</time></trkpt><trkpt lat="40.2774079" lon="17.9420988"><ele>47.0</ele><time>2026-04-04T17:13:52.184Z</time></trkpt><trkpt lat="40.2774929" lon="17.9423496"><ele>46.33333333333333</ele><time>2026-04-04T17:13:53.186Z</time></trkpt><trkpt lat="40.2775763" lon="17.9425889"><ele>45.666666666666664</ele><time>2026-04-04T17:13:54.186Z</time></trkpt><trkpt lat="40.2776582" lon="17.9428164"><ele>45.0</ele><time>2026-04-04T17:13:55.184Z</time></trkpt><trkpt lat="40.2777382" lon="17.9430456"><ele>45.0</ele><time>2026-04-04T17:13:56.185Z</time></trkpt><trkpt lat="40.2778205" lon="17.9432754"><ele>45.0</ele><time>2026-04-04T17:13:57.184Z</time></trkpt><trkpt lat="40.2778996" lon="17.9435148"><ele>45.0</ele><time>2026-04-04T17:13:58.185Z</time></trkpt><trkpt lat="40.2779857" lon="17.9437639"><ele>45.0</ele><time>2026-04-04T17:13:59.186Z</time></trkpt><trkpt lat="40.2780694" lon="17.9440191"><ele>45.0</ele><time>2026-04-04T17:14:00.185Z</time></trkpt><trkpt lat="40.2781555" lon="17.9442735"><ele>45.0</ele><time>2026-04-04T17:14:01.186Z</time></trkpt><trkpt lat="40.2782436" lon="17.9445301"><ele>45.0</ele><time>2026-04-04T17:14:02.186Z</time></trkpt><trkpt lat="40.2783332" lon="17.9447836"><ele>45.0</ele><time>2026-04-04T17:14:03.186Z</time></trkpt><trkpt lat="40.2784237" lon="17.9450365"><ele>45.0</ele><time>2026-04-04T17:14:04.185Z</time></trkpt><trkpt lat="40.2785139" lon="17.9452911"><ele>45.666666666666664</ele><time>2026-04-04T17:14:05.186Z</time></trkpt><trkpt lat="40.2786059" lon="17.9455547"><ele>46.33333333333333</ele><time>2026-04-04T17:14:06.186Z</time></trkpt><trkpt lat="40.2786918" lon="17.9458085"><ele>47.0</ele><time>2026-04-04T17:14:07.185Z</time></trkpt><trkpt lat="40.2787737" lon="17.9460477"><ele>47.0</ele><time>2026-04-04T17:14:08.185Z</time></trkpt><trkpt lat="40.2788545" lon="17.9462699"><ele>47.0</ele><time>2026-04-04T17:14:09.184Z</time></trkpt><trkpt lat="40.2789294" lon="17.9464812"><ele>47.0</ele><time>2026-04-04T17:14:10.185Z</time></trkpt><trkpt lat="40.279002" lon="17.9466838"><ele>47.666666666666664</ele><time>2026-04-04T17:14:11.184Z</time></trkpt><trkpt lat="40.2790734" lon="17.9468923"><ele>48.33333333333333</ele><time>2026-04-04T17:14:12.185Z</time></trkpt><trkpt lat="40.2791438" lon="17.9470964"><ele>49.0</ele><time>2026-04-04T17:14:13.185Z</time></trkpt><trkpt lat="40.2792138" lon="17.9473033"><ele>49.0</ele><time>2026-04-04T17:14:14.186Z</time></trkpt><trkpt lat="40.2792851" lon="17.9475137"><ele>49.0</ele><time>2026-04-04T17:14:15.185Z</time></trkpt><trkpt lat="40.2793603" lon="17.9477269"><ele>49.0</ele><time>2026-04-04T17:14:16.185Z</time></trkpt><trkpt lat="40.2794338" lon="17.9479379"><ele>49.33333333333333</ele><time>2026-04-04T17:14:17.186Z</time></trkpt><trkpt lat="40.2794989" lon="17.9481404"><ele>49.66666666666667</ele><time>2026-04-04T17:14:18.185Z</time></trkpt><trkpt lat="40.2795646" lon="17.9483416"><ele>50.0</ele><time>2026-04-04T17:14:19.185Z</time></trkpt><trkpt lat="40.279632" lon="17.9485424"><ele>50.0</ele><time>2026-04-04T17:14:20.185Z</time></trkpt><trkpt lat="40.279702" lon="17.9487339"><ele>50.0</ele><time>2026-04-04T17:14:21.185Z</time></trkpt><trkpt lat="40.2797645" lon="17.9489232"><ele>50.0</ele><time>2026-04-04T17:14:22.186Z</time></trkpt><trkpt lat="40.2798269" lon="17.9491171"><ele>50.0</ele><time>2026-04-04T17:14:23.187Z</time></trkpt><trkpt lat="40.27989" lon="17.9493082"><ele>50.0</ele><time>2026-04-04T17:14:24.186Z</time></trkpt><trkpt lat="40.2799574" lon="17.9494978"><ele>50.0</ele><time>2026-04-04T17:14:25.185Z</time></trkpt><trkpt lat="40.2800338" lon="17.9496889"><ele>50.0</ele><time>2026-04-04T17:14:26.184Z</time></trkpt><trkpt lat="40.280108" lon="17.9498874"><ele>50.0</ele><time>2026-04-04T17:14:27.186Z</time></trkpt><trkpt lat="40.2801898" lon="17.9501026"><ele>50.0</ele><time>2026-04-04T17:14:28.186Z</time></trkpt><trkpt lat="40.2802716" lon="17.9503266"><ele>50.0</ele><time>2026-04-04T17:14:29.185Z</time></trkpt><trkpt lat="40.2803511" lon="17.9505654"><ele>50.0</ele><time>2026-04-04T17:14:30.185Z</time></trkpt><trkpt lat="40.2804385" lon="17.9508028"><ele>50.0</ele><time>2026-04-04T17:14:31.187Z</time></trkpt><trkpt lat="40.2805255" lon="17.9510402"><ele>50.333333333333336</ele><time>2026-04-04T17:14:32.186Z</time></trkpt><trkpt lat="40.2806089" lon="17.9512842"><ele>50.66666666666667</ele><time>2026-04-04T17:14:33.186Z</time></trkpt><trkpt lat="40.280688" lon="17.951528"><ele>51.0</ele><time>2026-04-04T17:14:34.186Z</time></trkpt><trkpt lat="40.2807742" lon="17.9517633"><ele>51.33333333333333</ele><time>2026-04-04T17:14:35.186Z</time></trkpt><trkpt lat="40.2808556" lon="17.9520031"><ele>51.666666666666664</ele><time>2026-04-04T17:14:36.186Z</time></trkpt><trkpt lat="40.2809386" lon="17.9522417"><ele>52.0</ele><time>2026-04-04T17:14:37.185Z</time></trkpt><trkpt lat="40.2810238" lon="17.9524909"><ele>52.33333333333333</ele><time>2026-04-04T17:14:38.186Z</time></trkpt><trkpt lat="40.2811133" lon="17.9527434"><ele>52.66666666666667</ele><time>2026-04-04T17:14:39.185Z</time></trkpt><trkpt lat="40.281201" lon="17.9530059"><ele>53.0</ele><time>2026-04-04T17:14:40.185Z</time></trkpt><trkpt lat="40.281296" lon="17.9532743"><ele>52.5</ele><time>2026-04-04T17:14:41.187Z</time></trkpt><trkpt lat="40.2813931" lon="17.9535559"><ele>52.0</ele><time>2026-04-04T17:14:42.184Z</time></trkpt><trkpt lat="40.2814898" lon="17.9538429"><ele>52.0</ele><time>2026-04-04T17:14:43.186Z</time></trkpt><trkpt lat="40.2815873" lon="17.9541422"><ele>52.0</ele><time>2026-04-04T17:14:44.185Z</time></trkpt><trkpt lat="40.2816843" lon="17.9544426"><ele>52.0</ele><time>2026-04-04T17:14:45.185Z</time></trkpt><trkpt lat="40.2817822" lon="17.9547435"><ele>52.0</ele><time>2026-04-04T17:14:46.184Z</time></trkpt><trkpt lat="40.2818829" lon="17.9550368"><ele>51.0</ele><time>2026-04-04T17:14:47.187Z</time></trkpt><trkpt lat="40.2819844" lon="17.9553326"><ele>50.0</ele><time>2026-04-04T17:14:48.186Z</time></trkpt><trkpt lat="40.2820829" lon="17.9556215"><ele>50.5</ele><time>2026-04-04T17:14:49.186Z</time></trkpt><trkpt lat="40.2821818" lon="17.9559093"><ele>51.0</ele><time>2026-04-04T17:14:50.186Z</time></trkpt><trkpt lat="40.2822846" lon="17.9561922"><ele>51.0</ele><time>2026-04-04T17:14:51.186Z</time></trkpt><trkpt lat="40.2823827" lon="17.9564796"><ele>51.0</ele><time>2026-04-04T17:14:52.184Z</time></trkpt><trkpt lat="40.2824784" lon="17.9567654"><ele>51.0</ele><time>2026-04-04T17:14:53.185Z</time></trkpt><trkpt lat="40.2825765" lon="17.9570529"><ele>51.0</ele><time>2026-04-04T17:14:54.186Z</time></trkpt><trkpt lat="40.2826791" lon="17.9573383"><ele>50.0</ele><time>2026-04-04T17:14:55.186Z</time></trkpt><trkpt lat="40.2827799" lon="17.9576256"><ele>49.0</ele><time>2026-04-04T17:14:56.185Z</time></trkpt><trkpt lat="40.2828818" lon="17.9579118"><ele>49.0</ele><time>2026-04-04T17:14:57.186Z</time></trkpt><trkpt lat="40.2829817" lon="17.9582024"><ele>49.0</ele><time>2026-04-04T17:14:58.185Z</time></trkpt><trkpt lat="40.2830821" lon="17.9584973"><ele>49.0</ele><time>2026-04-04T17:14:59.184Z</time></trkpt><trkpt lat="40.2831829" lon="17.9587924"><ele>49.0</ele><time>2026-04-04T17:15:00.186Z</time></trkpt><trkpt lat="40.283288" lon="17.9590942"><ele>49.0</ele><time>2026-04-04T17:15:01.186Z</time></trkpt><trkpt lat="40.283394" lon="17.9593885"><ele>49.0</ele><time>2026-04-04T17:15:02.184Z</time></trkpt><trkpt lat="40.2835028" lon="17.9596902"><ele>49.0</ele><time>2026-04-04T17:15:03.185Z</time></trkpt><trkpt lat="40.28361" lon="17.9599931"><ele>49.0</ele><time>2026-04-04T17:15:04.185Z</time></trkpt><trkpt lat="40.2837184" lon="17.9603048"><ele>48.0</ele><time>2026-04-04T17:15:05.185Z</time></trkpt><trkpt lat="40.2838288" lon="17.9606143"><ele>47.0</ele><time>2026-04-04T17:15:06.186Z</time></trkpt><trkpt lat="40.2839356" lon="17.9609265"><ele>47.0</ele><time>2026-04-04T17:15:07.186Z</time></trkpt><trkpt lat="40.2840462" lon="17.9612388"><ele>47.0</ele><time>2026-04-04T17:15:08.186Z</time></trkpt><trkpt lat="40.2841548" lon="17.9615495"><ele>47.0</ele><time>2026-04-04T17:15:09.185Z</time></trkpt><trkpt lat="40.2842662" lon="17.9618658"><ele>47.0</ele><time>2026-04-04T17:15:10.186Z</time></trkpt><trkpt lat="40.2843771" lon="17.9621804"><ele>47.0</ele><time>2026-04-04T17:15:11.185Z</time></trkpt><trkpt lat="40.2844864" lon="17.962492"><ele>47.0</ele><time>2026-04-04T17:15:12.186Z</time></trkpt><trkpt lat="40.2845943" lon="17.9627911"><ele>47.0</ele><time>2026-04-04T17:15:13.184Z</time></trkpt><trkpt lat="40.2846944" lon="17.9630807"><ele>47.0</ele><time>2026-04-04T17:15:14.186Z</time></trkpt><trkpt lat="40.2847902" lon="17.9633631"><ele>47.0</ele><time>2026-04-04T17:15:15.185Z</time></trkpt><trkpt lat="40.2848891" lon="17.9636393"><ele>47.0</ele><time>2026-04-04T17:15:16.185Z</time></trkpt><trkpt lat="40.2849819" lon="17.9639143"><ele>47.0</ele><time>2026-04-04T17:15:17.185Z</time></trkpt><trkpt lat="40.2850733" lon="17.9641765"><ele>47.0</ele><time>2026-04-04T17:15:18.186Z</time></trkpt><trkpt lat="40.2851667" lon="17.9644322"><ele>47.0</ele><time>2026-04-04T17:15:19.184Z</time></trkpt><trkpt lat="40.2852495" lon="17.964667"><ele>47.0</ele><time>2026-04-04T17:15:20.186Z</time></trkpt><trkpt lat="40.285332" lon="17.9649013"><ele>47.0</ele><time>2026-04-04T17:15:21.186Z</time></trkpt><trkpt lat="40.2854135" lon="17.9651319"><ele>47.0</ele><time>2026-04-04T17:15:22.186Z</time></trkpt><trkpt lat="40.2854882" lon="17.9653421"><ele>46.75</ele><time>2026-04-04T17:15:23.185Z</time></trkpt><trkpt lat="40.2855542" lon="17.9655196"><ele>46.5</ele><time>2026-04-04T17:15:24.185Z</time></trkpt><trkpt lat="40.285615" lon="17.9656908"><ele>46.25</ele><time>2026-04-04T17:15:25.185Z</time></trkpt><trkpt lat="40.2856765" lon="17.9658559"><ele>46.0</ele><time>2026-04-04T17:15:26.186Z</time></trkpt><trkpt lat="40.2857353" lon="17.9660213"><ele>46.0</ele><time>2026-04-04T17:15:27.184Z</time></trkpt><trkpt lat="40.2857934" lon="17.9661905"><ele>46.0</ele><time>2026-04-04T17:15:28.184Z</time></trkpt><trkpt lat="40.2858561" lon="17.9663691"><ele>46.0</ele><time>2026-04-04T17:15:29.186Z</time></trkpt><trkpt lat="40.2859221" lon="17.9665587"><ele>46.25</ele><time>2026-04-04T17:15:30.184Z</time></trkpt><trkpt lat="40.285983" lon="17.9667353"><ele>46.5</ele><time>2026-04-04T17:15:31.184Z</time></trkpt><trkpt lat="40.2860396" lon="17.9669077"><ele>46.75</ele><time>2026-04-04T17:15:32.185Z</time></trkpt><trkpt lat="40.2861005" lon="17.967084"><ele>47.0</ele><time>2026-04-04T17:15:33.185Z</time></trkpt><trkpt lat="40.2861655" lon="17.9672639"><ele>47.0</ele><time>2026-04-04T17:15:34.184Z</time></trkpt><trkpt lat="40.2862184" lon="17.9674437"><ele>47.0</ele><time>2026-04-04T17:15:35.186Z</time></trkpt><trkpt lat="40.2862618" lon="17.9676193"><ele>47.0</ele><time>2026-04-04T17:15:36.185Z</time></trkpt><trkpt lat="40.2863011" lon="17.9677821"><ele>47.0</ele><time>2026-04-04T17:15:37.186Z</time></trkpt><trkpt lat="40.2863326" lon="17.9679415"><ele>46.400000000000006</ele><time>2026-04-04T17:15:38.184Z</time></trkpt><trkpt lat="40.2863592" lon="17.9680847"><ele>45.800000000000004</ele><time>2026-04-04T17:15:39.186Z</time></trkpt><trkpt lat="40.2863858" lon="17.9682128"><ele>45.2</ele><time>2026-04-04T17:15:40.185Z</time></trkpt><trkpt lat="40.2863987" lon="17.968301"><ele>44.6</ele><time>2026-04-04T17:15:41.184Z</time></trkpt><trkpt lat="40.2864202" lon="17.9684456"><ele>44.0</ele><time>2026-04-04T17:15:43.186Z</time></trkpt><trkpt lat="40.2864239" lon="17.9685694"><ele>44.0</ele><time>2026-04-04T17:15:45.186Z</time></trkpt><trkpt lat="40.2864185" lon="17.9686933"><ele>44.0</ele><time>2026-04-04T17:15:47.184Z</time></trkpt><trkpt lat="40.2863962" lon="17.9688526"><ele>44.0</ele><time>2026-04-04T17:15:49.186Z</time></trkpt><trkpt lat="40.2863849" lon="17.9689446"><ele>44.0</ele><time>2026-04-04T17:15:50.187Z</time></trkpt><trkpt lat="40.2863808" lon="17.9690406"><ele>44.0</ele><time>2026-04-04T17:15:51.184Z</time></trkpt><trkpt lat="40.2863971" lon="17.9691277"><ele>44.0</ele><time>2026-04-04T17:15:52.184Z</time></trkpt><trkpt lat="40.286427" lon="17.9692104"><ele>44.0</ele><time>2026-04-04T17:15:53.185Z</time></trkpt><trkpt lat="40.2864958" lon="17.9692515"><ele>44.0</ele><time>2026-04-04T17:15:54.185Z</time></trkpt><trkpt lat="40.2865737" lon="17.9692631"><ele>44.0</ele><time>2026-04-04T17:15:55.186Z</time></trkpt><trkpt lat="40.2866557" lon="17.9692314"><ele>44.0</ele><time>2026-04-04T17:15:56.185Z</time></trkpt><trkpt lat="40.2867367" lon="17.9691766"><ele>44.0</ele><time>2026-04-04T17:15:57.186Z</time></trkpt><trkpt lat="40.2868391" lon="17.9691383"><ele>44.0</ele><time>2026-04-04T17:15:58.185Z</time></trkpt><trkpt lat="40.2869506" lon="17.9691148"><ele>44.0</ele><time>2026-04-04T17:15:59.186Z</time></trkpt><trkpt lat="40.2870766" lon="17.9691003"><ele>44.0</ele><time>2026-04-04T17:16:00.187Z</time></trkpt><trkpt lat="40.287212" lon="17.9690906"><ele>44.0</ele><time>2026-04-04T17:16:01.186Z</time></trkpt><trkpt lat="40.2873694" lon="17.9690793"><ele>44.0</ele><time>2026-04-04T17:16:02.185Z</time></trkpt><trkpt lat="40.2875346" lon="17.9690768"><ele>42.666666666666664</ele><time>2026-04-04T17:16:03.186Z</time></trkpt><trkpt lat="40.2877111" lon="17.9690795"><ele>41.333333333333336</ele><time>2026-04-04T17:16:04.185Z</time></trkpt><trkpt lat="40.2878907" lon="17.9690773"><ele>40.0</ele><time>2026-04-04T17:16:05.187Z</time></trkpt><trkpt lat="40.2880948" lon="17.9690821"><ele>39.66666666666667</ele><time>2026-04-04T17:16:06.185Z</time></trkpt><trkpt lat="40.2882985" lon="17.9690877"><ele>39.333333333333336</ele><time>2026-04-04T17:16:07.185Z</time></trkpt><trkpt lat="40.2885105" lon="17.9690982"><ele>39.0</ele><time>2026-04-04T17:16:08.186Z</time></trkpt><trkpt lat="40.2887266" lon="17.969116"><ele>39.5</ele><time>2026-04-04T17:16:09.185Z</time></trkpt><trkpt lat="40.2889499" lon="17.9691396"><ele>40.0</ele><time>2026-04-04T17:16:10.185Z</time></trkpt><trkpt lat="40.2891759" lon="17.9691784"><ele>40.0</ele><time>2026-04-04T17:16:11.184Z</time></trkpt><trkpt lat="40.2894082" lon="17.9692343"><ele>40.0</ele><time>2026-04-04T17:16:12.184Z</time></trkpt><trkpt lat="40.2896446" lon="17.9693042"><ele>40.0</ele><time>2026-04-04T17:16:13.186Z</time></trkpt><trkpt lat="40.2898856" lon="17.9693863"><ele>40.0</ele><time>2026-04-04T17:16:14.186Z</time></trkpt><trkpt lat="40.290133" lon="17.9694755"><ele>40.0</ele><time>2026-04-04T17:16:15.184Z</time></trkpt><trkpt lat="40.2903776" lon="17.9695629"><ele>40.0</ele><time>2026-04-04T17:16:16.185Z</time></trkpt><trkpt lat="40.2906329" lon="17.9696422"><ele>40.0</ele><time>2026-04-04T17:16:17.184Z</time></trkpt><trkpt lat="40.290891" lon="17.9697224"><ele>40.0</ele><time>2026-04-04T17:16:18.185Z</time></trkpt><trkpt lat="40.2911495" lon="17.9698107"><ele>40.0</ele><time>2026-04-04T17:16:19.186Z</time></trkpt><trkpt lat="40.2914048" lon="17.9699034"><ele>40.0</ele><time>2026-04-04T17:16:20.186Z</time></trkpt><trkpt lat="40.2916588" lon="17.9699974"><ele>39.0</ele><time>2026-04-04T17:16:21.186Z</time></trkpt><trkpt lat="40.2919077" lon="17.9700926"><ele>38.0</ele><time>2026-04-04T17:16:22.185Z</time></trkpt><trkpt lat="40.2921542" lon="17.9701899"><ele>38.5</ele><time>2026-04-04T17:16:23.186Z</time></trkpt><trkpt lat="40.2923992" lon="17.9702922"><ele>39.0</ele><time>2026-04-04T17:16:24.186Z</time></trkpt><trkpt lat="40.2926391" lon="17.9704057"><ele>39.0</ele><time>2026-04-04T17:16:25.184Z</time></trkpt><trkpt lat="40.2928802" lon="17.9705402"><ele>39.0</ele><time>2026-04-04T17:16:26.185Z</time></trkpt><trkpt lat="40.2931213" lon="17.9706827"><ele>39.0</ele><time>2026-04-04T17:16:27.187Z</time></trkpt><trkpt lat="40.2933583" lon="17.9708312"><ele>39.0</ele><time>2026-04-04T17:16:28.187Z</time></trkpt><trkpt lat="40.2935961" lon="17.9710013"><ele>39.0</ele><time>2026-04-04T17:16:29.186Z</time></trkpt><trkpt lat="40.2938344" lon="17.9711696"><ele>39.0</ele><time>2026-04-04T17:16:30.185Z</time></trkpt><trkpt lat="40.294075" lon="17.9713335"><ele>39.5</ele><time>2026-04-04T17:16:31.186Z</time></trkpt><trkpt lat="40.2943125" lon="17.9714954"><ele>40.0</ele><time>2026-04-04T17:16:32.185Z</time></trkpt><trkpt lat="40.2945582" lon="17.9716602"><ele>39.5</ele><time>2026-04-04T17:16:33.185Z</time></trkpt><trkpt lat="40.294796" lon="17.9718428"><ele>39.0</ele><time>2026-04-04T17:16:34.185Z</time></trkpt><trkpt lat="40.2950282" lon="17.9720334"><ele>39.0</ele><time>2026-04-04T17:16:35.185Z</time></trkpt><trkpt lat="40.2952594" lon="17.9722364"><ele>39.0</ele><time>2026-04-04T17:16:36.186Z</time></trkpt><trkpt lat="40.2954864" lon="17.9724481"><ele>39.5</ele><time>2026-04-04T17:16:37.185Z</time></trkpt><trkpt lat="40.2957114" lon="17.9726689"><ele>40.0</ele><time>2026-04-04T17:16:38.186Z</time></trkpt><trkpt lat="40.2959384" lon="17.9728933"><ele>40.0</ele><time>2026-04-04T17:16:39.186Z</time></trkpt><trkpt lat="40.2961648" lon="17.9731127"><ele>40.0</ele><time>2026-04-04T17:16:40.187Z</time></trkpt><trkpt lat="40.2963946" lon="17.9733329"><ele>38.5</ele><time>2026-04-04T17:16:41.186Z</time></trkpt><trkpt lat="40.2966262" lon="17.9735482"><ele>37.0</ele><time>2026-04-04T17:16:42.186Z</time></trkpt><trkpt lat="40.2968561" lon="17.973765"><ele>37.0</ele><time>2026-04-04T17:16:43.185Z</time></trkpt><trkpt lat="40.2970826" lon="17.9739878"><ele>37.0</ele><time>2026-04-04T17:16:44.186Z</time></trkpt><trkpt lat="40.2973096" lon="17.9742064"><ele>37.5</ele><time>2026-04-04T17:16:45.186Z</time></trkpt><trkpt lat="40.2975377" lon="17.9744275"><ele>38.0</ele><time>2026-04-04T17:16:46.185Z</time></trkpt><trkpt lat="40.2977639" lon="17.9746434"><ele>38.0</ele><time>2026-04-04T17:16:47.186Z</time></trkpt><trkpt lat="40.2979901" lon="17.9748571"><ele>38.0</ele><time>2026-04-04T17:16:48.186Z</time></trkpt><trkpt lat="40.2982135" lon="17.9750742"><ele>37.5</ele><time>2026-04-04T17:16:49.184Z</time></trkpt><trkpt lat="40.2984361" lon="17.9752935"><ele>37.0</ele><time>2026-04-04T17:16:50.185Z</time></trkpt><trkpt lat="40.2986588" lon="17.9755149"><ele>37.0</ele><time>2026-04-04T17:16:51.187Z</time></trkpt><trkpt lat="40.298873" lon="17.9757468"><ele>37.0</ele><time>2026-04-04T17:16:52.186Z</time></trkpt><trkpt lat="40.2990828" lon="17.9759941"><ele>36.5</ele><time>2026-04-04T17:16:53.186Z</time></trkpt><trkpt lat="40.2992864" lon="17.9762485"><ele>36.0</ele><time>2026-04-04T17:16:54.186Z</time></trkpt><trkpt lat="40.2994911" lon="17.9765048"><ele>36.5</ele><time>2026-04-04T17:16:55.186Z</time></trkpt><trkpt lat="40.2996953" lon="17.9767597"><ele>37.0</ele><time>2026-04-04T17:16:56.185Z</time></trkpt><trkpt lat="40.2999006" lon="17.9770187"><ele>37.0</ele><time>2026-04-04T17:16:57.185Z</time></trkpt><trkpt lat="40.3001032" lon="17.9772744"><ele>37.0</ele><time>2026-04-04T17:16:58.185Z</time></trkpt><trkpt lat="40.3003093" lon="17.9775304"><ele>36.5</ele><time>2026-04-04T17:16:59.186Z</time></trkpt><trkpt lat="40.3005129" lon="17.9777887"><ele>36.0</ele><time>2026-04-04T17:17:00.184Z</time></trkpt><trkpt lat="40.3007107" lon="17.9780546"><ele>36.0</ele><time>2026-04-04T17:17:01.186Z</time></trkpt><trkpt lat="40.3008985" lon="17.9783299"><ele>36.0</ele><time>2026-04-04T17:17:02.185Z</time></trkpt><trkpt lat="40.3010773" lon="17.9786167"><ele>35.5</ele><time>2026-04-04T17:17:03.186Z</time></trkpt><trkpt lat="40.3012518" lon="17.978909"><ele>35.0</ele><time>2026-04-04T17:17:04.185Z</time></trkpt><trkpt lat="40.3014242" lon="17.9792058"><ele>35.0</ele><time>2026-04-04T17:17:05.185Z</time></trkpt><trkpt lat="40.3015922" lon="17.9795095"><ele>35.0</ele><time>2026-04-04T17:17:06.186Z</time></trkpt><trkpt lat="40.3017673" lon="17.9798017"><ele>36.0</ele><time>2026-04-04T17:17:07.185Z</time></trkpt><trkpt lat="40.3019405" lon="17.9800972"><ele>37.0</ele><time>2026-04-04T17:17:08.187Z</time></trkpt><trkpt lat="40.3021136" lon="17.9803957"><ele>36.5</ele><time>2026-04-04T17:17:09.186Z</time></trkpt><trkpt lat="40.3022774" lon="17.9807013"><ele>36.0</ele><time>2026-04-04T17:17:10.185Z</time></trkpt><trkpt lat="40.3024383" lon="17.9810099"><ele>36.0</ele><time>2026-04-04T17:17:11.186Z</time></trkpt><trkpt lat="40.3025948" lon="17.9813274"><ele>36.0</ele><time>2026-04-04T17:17:12.185Z</time></trkpt><trkpt lat="40.3027499" lon="17.9816491"><ele>36.0</ele><time>2026-04-04T17:17:13.185Z</time></trkpt><trkpt lat="40.3028985" lon="17.9819872"><ele>36.0</ele><time>2026-04-04T17:17:14.186Z</time></trkpt><trkpt lat="40.3030461" lon="17.9823363"><ele>36.5</ele><time>2026-04-04T17:17:15.184Z</time></trkpt><trkpt lat="40.3031946" lon="17.9827003"><ele>37.0</ele><time>2026-04-04T17:17:16.186Z</time></trkpt><trkpt lat="40.3033395" lon="17.9830791"><ele>37.0</ele><time>2026-04-04T17:17:17.186Z</time></trkpt><trkpt lat="40.3034765" lon="17.983459"><ele>37.0</ele><time>2026-04-04T17:17:18.185Z</time></trkpt><trkpt lat="40.3036107" lon="17.9838245"><ele>37.0</ele><time>2026-04-04T17:17:19.185Z</time></trkpt><trkpt lat="40.30373" lon="17.9841674"><ele>37.0</ele><time>2026-04-04T17:17:20.187Z</time></trkpt><trkpt lat="40.3038398" lon="17.9844954"><ele>36.5</ele><time>2026-04-04T17:17:21.185Z</time></trkpt><trkpt lat="40.303957" lon="17.984818"><ele>36.0</ele><time>2026-04-04T17:17:22.186Z</time></trkpt><trkpt lat="40.3040779" lon="17.9851552"><ele>36.0</ele><time>2026-04-04T17:17:23.187Z</time></trkpt><trkpt lat="40.3041907" lon="17.9855015"><ele>36.0</ele><time>2026-04-04T17:17:24.186Z</time></trkpt><trkpt lat="40.3043136" lon="17.985853"><ele>36.0</ele><time>2026-04-04T17:17:25.186Z</time></trkpt><trkpt lat="40.304438" lon="17.9862088"><ele>36.0</ele><time>2026-04-04T17:17:26.185Z</time></trkpt><trkpt lat="40.3045661" lon="17.9865618"><ele>34.5</ele><time>2026-04-04T17:17:27.185Z</time></trkpt><trkpt lat="40.3046898" lon="17.9869073"><ele>33.0</ele><time>2026-04-04T17:17:28.185Z</time></trkpt><trkpt lat="40.304806" lon="17.9872394"><ele>33.0</ele><time>2026-04-04T17:17:29.185Z</time></trkpt><trkpt lat="40.3049159" lon="17.9875524"><ele>33.0</ele><time>2026-04-04T17:17:30.185Z</time></trkpt><trkpt lat="40.3050189" lon="17.9878485"><ele>33.0</ele><time>2026-04-04T17:17:31.186Z</time></trkpt><trkpt lat="40.3051185" lon="17.9881293"><ele>33.0</ele><time>2026-04-04T17:17:32.186Z</time></trkpt><trkpt lat="40.3052127" lon="17.9883872"><ele>33.666666666666664</ele><time>2026-04-04T17:17:33.187Z</time></trkpt><trkpt lat="40.3053015" lon="17.9886296"><ele>34.33333333333333</ele><time>2026-04-04T17:17:34.186Z</time></trkpt><trkpt lat="40.3053876" lon="17.9888555"><ele>35.0</ele><time>2026-04-04T17:17:35.185Z</time></trkpt><trkpt lat="40.3054658" lon="17.9890644"><ele>35.0</ele><time>2026-04-04T17:17:36.185Z</time></trkpt><trkpt lat="40.3055288" lon="17.9892346"><ele>35.0</ele><time>2026-04-04T17:17:37.186Z</time></trkpt><trkpt lat="40.305584" lon="17.9893848"><ele>35.0</ele><time>2026-04-04T17:17:38.187Z</time></trkpt><trkpt lat="40.3055929" lon="17.9895082"><ele>35.0</ele><time>2026-04-04T17:17:39.184Z</time></trkpt><trkpt lat="40.3055868" lon="17.9896331"><ele>35.0</ele><time>2026-04-04T17:17:40.185Z</time></trkpt><trkpt lat="40.3055824" lon="17.9897516"><ele>35.0</ele><time>2026-04-04T17:17:41.184Z</time></trkpt><trkpt lat="40.3056019" lon="17.9898778"><ele>35.0</ele><time>2026-04-04T17:17:42.185Z</time></trkpt><trkpt lat="40.305654" lon="17.9899889"><ele>35.0</ele><time>2026-04-04T17:17:43.186Z</time></trkpt><trkpt lat="40.3057286" lon="17.9900905"><ele>35.0</ele><time>2026-04-04T17:17:44.185Z</time></trkpt><trkpt lat="40.3058022" lon="17.9902171"><ele>35.33333333333333</ele><time>2026-04-04T17:17:45.186Z</time></trkpt><trkpt lat="40.3058692" lon="17.9903669"><ele>35.666666666666664</ele><time>2026-04-04T17:17:46.186Z</time></trkpt><trkpt lat="40.305898" lon="17.9905901"><ele>36.0</ele><time>2026-04-04T17:17:47.186Z</time></trkpt><trkpt lat="40.3059403" lon="17.9908125"><ele>36.666666666666664</ele><time>2026-04-04T17:17:48.187Z</time></trkpt><trkpt lat="40.3059896" lon="17.991086"><ele>37.33333333333333</ele><time>2026-04-04T17:17:49.186Z</time></trkpt><trkpt lat="40.3060378" lon="17.9913665"><ele>38.0</ele><time>2026-04-04T17:17:50.185Z</time></trkpt><trkpt lat="40.3060851" lon="17.9916673"><ele>38.0</ele><time>2026-04-04T17:17:51.186Z</time></trkpt><trkpt lat="40.3061288" lon="17.9919785"><ele>38.0</ele><time>2026-04-04T17:17:52.186Z</time></trkpt><trkpt lat="40.3061641" lon="17.9922898"><ele>37.5</ele><time>2026-04-04T17:17:53.185Z</time></trkpt><trkpt lat="40.3061897" lon="17.9926027"><ele>37.0</ele><time>2026-04-04T17:17:54.184Z</time></trkpt><trkpt lat="40.3062084" lon="17.9929209"><ele>37.0</ele><time>2026-04-04T17:17:55.185Z</time></trkpt><trkpt lat="40.3062187" lon="17.9932369"><ele>37.0</ele><time>2026-04-04T17:17:56.186Z</time></trkpt><trkpt lat="40.306227" lon="17.9935532"><ele>38.0</ele><time>2026-04-04T17:17:57.186Z</time></trkpt><trkpt lat="40.3062299" lon="17.9938751"><ele>39.0</ele><time>2026-04-04T17:17:58.186Z</time></trkpt><trkpt lat="40.3062246" lon="17.9942054"><ele>39.5</ele><time>2026-04-04T17:17:59.186Z</time></trkpt><trkpt lat="40.3062058" lon="17.9945412"><ele>40.0</ele><time>2026-04-04T17:18:00.186Z</time></trkpt><trkpt lat="40.306171" lon="17.994876"><ele>39.5</ele><time>2026-04-04T17:18:01.186Z</time></trkpt><trkpt lat="40.3061204" lon="17.9952135"><ele>39.0</ele><time>2026-04-04T17:18:02.185Z</time></trkpt><trkpt lat="40.306063" lon="17.9955563"><ele>38.0</ele><time>2026-04-04T17:18:03.187Z</time></trkpt><trkpt lat="40.3060043" lon="17.9959069"><ele>37.0</ele><time>2026-04-04T17:18:04.186Z</time></trkpt><trkpt lat="40.3059473" lon="17.9962657"><ele>37.0</ele><time>2026-04-04T17:18:05.185Z</time></trkpt><trkpt lat="40.3058909" lon="17.9966193"><ele>37.0</ele><time>2026-04-04T17:18:06.186Z</time></trkpt><trkpt lat="40.3058367" lon="17.9969783"><ele>37.0</ele><time>2026-04-04T17:18:07.187Z</time></trkpt><trkpt lat="40.305784" lon="17.9973394"><ele>37.0</ele><time>2026-04-04T17:18:08.185Z</time></trkpt><trkpt lat="40.3057307" lon="17.9977025"><ele>37.0</ele><time>2026-04-04T17:18:09.186Z</time></trkpt><trkpt lat="40.3056754" lon="17.998064"><ele>37.0</ele><time>2026-04-04T17:18:10.186Z</time></trkpt><trkpt lat="40.3056209" lon="17.998429"><ele>37.0</ele><time>2026-04-04T17:18:11.184Z</time></trkpt><trkpt lat="40.3055673" lon="17.9987936"><ele>37.0</ele><time>2026-04-04T17:18:12.185Z</time></trkpt><trkpt lat="40.3055108" lon="17.9991576"><ele>37.5</ele><time>2026-04-04T17:18:13.186Z</time></trkpt><trkpt lat="40.305453" lon="17.9995258"><ele>38.0</ele><time>2026-04-04T17:18:14.185Z</time></trkpt><trkpt lat="40.3053937" lon="17.9998957"><ele>38.0</ele><time>2026-04-04T17:18:15.184Z</time></trkpt><trkpt lat="40.3053338" lon="18.0002705"><ele>38.0</ele><time>2026-04-04T17:18:16.185Z</time></trkpt><trkpt lat="40.3052831" lon="18.0006398"><ele>38.5</ele><time>2026-04-04T17:18:17.185Z</time></trkpt><trkpt lat="40.305227" lon="18.0010095"><ele>39.0</ele><time>2026-04-04T17:18:18.185Z</time></trkpt><trkpt lat="40.3051676" lon="18.0013803"><ele>38.5</ele><time>2026-04-04T17:18:19.185Z</time></trkpt><trkpt lat="40.3051097" lon="18.00175"><ele>38.0</ele><time>2026-04-04T17:18:20.186Z</time></trkpt><trkpt lat="40.3050498" lon="18.0021217"><ele>38.0</ele><time>2026-04-04T17:18:21.186Z</time></trkpt><trkpt lat="40.3049931" lon="18.0024861"><ele>38.0</ele><time>2026-04-04T17:18:22.186Z</time></trkpt><trkpt lat="40.3049372" lon="18.0028456"><ele>38.0</ele><time>2026-04-04T17:18:23.186Z</time></trkpt><trkpt lat="40.3048857" lon="18.0031892"><ele>38.0</ele><time>2026-04-04T17:18:24.186Z</time></trkpt><trkpt lat="40.304836" lon="18.0035135"><ele>38.5</ele><time>2026-04-04T17:18:25.186Z</time></trkpt><trkpt lat="40.3047896" lon="18.0038141"><ele>39.0</ele><time>2026-04-04T17:18:26.185Z</time></trkpt><trkpt lat="40.304747" lon="18.0040972"><ele>38.666666666666664</ele><time>2026-04-04T17:18:27.186Z</time></trkpt><trkpt lat="40.3047042" lon="18.004365"><ele>38.33333333333333</ele><time>2026-04-04T17:18:28.186Z</time></trkpt><trkpt lat="40.3046652" lon="18.0046133"><ele>38.0</ele><time>2026-04-04T17:18:29.185Z</time></trkpt><trkpt lat="40.3046243" lon="18.004847"><ele>38.0</ele><time>2026-04-04T17:18:30.186Z</time></trkpt><trkpt lat="40.3045812" lon="18.0050648"><ele>38.0</ele><time>2026-04-04T17:18:31.185Z</time></trkpt><trkpt lat="40.3045389" lon="18.0052657"><ele>38.0</ele><time>2026-04-04T17:18:32.186Z</time></trkpt><trkpt lat="40.3044955" lon="18.0054484"><ele>38.0</ele><time>2026-04-04T17:18:33.184Z</time></trkpt><trkpt lat="40.3044587" lon="18.0056089"><ele>38.0</ele><time>2026-04-04T17:18:34.186Z</time></trkpt><trkpt lat="40.3044179" lon="18.0057587"><ele>38.0</ele><time>2026-04-04T17:18:35.184Z</time></trkpt><trkpt lat="40.3043412" lon="18.0058417"><ele>38.0</ele><time>2026-04-04T17:18:36.187Z</time></trkpt><trkpt lat="40.3042572" lon="18.0059218"><ele>38.199999999999996</ele><time>2026-04-04T17:18:37.185Z</time></trkpt><trkpt lat="40.304187" lon="18.006006"><ele>38.4</ele><time>2026-04-04T17:18:38.186Z</time></trkpt><trkpt lat="40.3041638" lon="18.0061267"><ele>38.599999999999994</ele><time>2026-04-04T17:18:39.185Z</time></trkpt><trkpt lat="40.3041557" lon="18.0062501"><ele>38.8</ele><time>2026-04-04T17:18:40.187Z</time></trkpt><trkpt lat="40.3041609" lon="18.0063923"><ele>39.0</ele><time>2026-04-04T17:18:41.187Z</time></trkpt><trkpt lat="40.3041443" lon="18.0065518"><ele>38.666666666666664</ele><time>2026-04-04T17:18:42.187Z</time></trkpt><trkpt lat="40.3041036" lon="18.0067406"><ele>38.33333333333333</ele><time>2026-04-04T17:18:43.184Z</time></trkpt><trkpt lat="40.3040322" lon="18.0069591"><ele>38.0</ele><time>2026-04-04T17:18:44.187Z</time></trkpt><trkpt lat="40.3039445" lon="18.0072016"><ele>38.5</ele><time>2026-04-04T17:18:45.186Z</time></trkpt><trkpt lat="40.3038352" lon="18.0074665"><ele>39.0</ele><time>2026-04-04T17:18:46.185Z</time></trkpt><trkpt lat="40.3037103" lon="18.0077477"><ele>39.5</ele><time>2026-04-04T17:18:47.185Z</time></trkpt><trkpt lat="40.3035693" lon="18.0080407"><ele>40.0</ele><time>2026-04-04T17:18:48.185Z</time></trkpt><trkpt lat="40.303409" lon="18.0083306"><ele>40.0</ele><time>2026-04-04T17:18:49.185Z</time></trkpt><trkpt lat="40.3032301" lon="18.0086158"><ele>40.0</ele><time>2026-04-04T17:18:50.186Z</time></trkpt><trkpt lat="40.3030421" lon="18.0088742"><ele>39.5</ele><time>2026-04-04T17:18:51.184Z</time></trkpt><trkpt lat="40.3028539" lon="18.009122"><ele>39.0</ele><time>2026-04-04T17:18:52.185Z</time></trkpt><trkpt lat="40.302664" lon="18.0093251"><ele>40.0</ele><time>2026-04-04T17:18:53.186Z</time></trkpt><trkpt lat="40.3024738" lon="18.0095109"><ele>41.0</ele><time>2026-04-04T17:18:54.187Z</time></trkpt><trkpt lat="40.3022914" lon="18.0096744"><ele>41.33333333333333</ele><time>2026-04-04T17:18:55.185Z</time></trkpt><trkpt lat="40.3021264" lon="18.0098164"><ele>41.666666666666664</ele><time>2026-04-04T17:18:56.186Z</time></trkpt><trkpt lat="40.3019919" lon="18.0099334"><ele>42.0</ele><time>2026-04-04T17:18:57.187Z</time></trkpt><trkpt lat="40.3018707" lon="18.0100141"><ele>41.6</ele><time>2026-04-04T17:18:58.185Z</time></trkpt><trkpt lat="40.3017566" lon="18.0100526"><ele>41.2</ele><time>2026-04-04T17:18:59.186Z</time></trkpt><trkpt lat="40.3016405" lon="18.0100512"><ele>40.8</ele><time>2026-04-04T17:19:00.186Z</time></trkpt><trkpt lat="40.3015359" lon="18.0100637"><ele>40.4</ele><time>2026-04-04T17:19:01.187Z</time></trkpt><trkpt lat="40.3014509" lon="18.0101086"><ele>40.0</ele><time>2026-04-04T17:19:02.184Z</time></trkpt><trkpt lat="40.3013894" lon="18.0101926"><ele>40.0</ele><time>2026-04-04T17:19:03.184Z</time></trkpt><trkpt lat="40.3013631" lon="18.0102973"><ele>40.0</ele><time>2026-04-04T17:19:04.185Z</time></trkpt><trkpt lat="40.3013793" lon="18.0104005"><ele>40.0</ele><time>2026-04-04T17:19:05.186Z</time></trkpt><trkpt lat="40.3014313" lon="18.0104819"><ele>40.0</ele><time>2026-04-04T17:19:06.186Z</time></trkpt><trkpt lat="40.3015148" lon="18.0105347"><ele>40.0</ele><time>2026-04-04T17:19:07.185Z</time></trkpt><trkpt lat="40.3016248" lon="18.0105768"><ele>40.0</ele><time>2026-04-04T17:19:08.184Z</time></trkpt><trkpt lat="40.3017572" lon="18.0106459"><ele>40.0</ele><time>2026-04-04T17:19:09.186Z</time></trkpt><trkpt lat="40.3019051" lon="18.0107707"><ele>40.0</ele><time>2026-04-04T17:19:10.185Z</time></trkpt><trkpt lat="40.3020637" lon="18.010936"><ele>40.0</ele><time>2026-04-04T17:19:11.185Z</time></trkpt><trkpt lat="40.302237" lon="18.0111386"><ele>40.0</ele><time>2026-04-04T17:19:12.187Z</time></trkpt><trkpt lat="40.3024301" lon="18.0113635"><ele>39.5</ele><time>2026-04-04T17:19:13.187Z</time></trkpt><trkpt lat="40.3026397" lon="18.0116036"><ele>39.0</ele><time>2026-04-04T17:19:14.185Z</time></trkpt><trkpt lat="40.3028633" lon="18.0118556"><ele>38.5</ele><time>2026-04-04T17:19:15.187Z</time></trkpt><trkpt lat="40.3031002" lon="18.0121306"><ele>38.0</ele><time>2026-04-04T17:19:16.186Z</time></trkpt><trkpt lat="40.3033525" lon="18.0124197"><ele>39.0</ele><time>2026-04-04T17:19:17.185Z</time></trkpt><trkpt lat="40.3036087" lon="18.0127168"><ele>40.0</ele><time>2026-04-04T17:19:18.187Z</time></trkpt><trkpt lat="40.3038755" lon="18.0130255"><ele>39.5</ele><time>2026-04-04T17:19:19.186Z</time></trkpt><trkpt lat="40.3041479" lon="18.0133374"><ele>39.0</ele><time>2026-04-04T17:19:20.186Z</time></trkpt><trkpt lat="40.304421" lon="18.0136501"><ele>39.0</ele><time>2026-04-04T17:19:21.186Z</time></trkpt><trkpt lat="40.3046956" lon="18.0139676"><ele>39.0</ele><time>2026-04-04T17:19:22.185Z</time></trkpt><trkpt lat="40.3049665" lon="18.0142842"><ele>39.5</ele><time>2026-04-04T17:19:23.185Z</time></trkpt><trkpt lat="40.3052341" lon="18.0145953"><ele>40.0</ele><time>2026-04-04T17:19:24.186Z</time></trkpt><trkpt lat="40.3055036" lon="18.0149034"><ele>39.5</ele><time>2026-04-04T17:19:25.186Z</time></trkpt><trkpt lat="40.3057746" lon="18.0152142"><ele>39.0</ele><time>2026-04-04T17:19:26.186Z</time></trkpt><trkpt lat="40.3060469" lon="18.0155249"><ele>39.0</ele><time>2026-04-04T17:19:27.185Z</time></trkpt><trkpt lat="40.3063211" lon="18.015839"><ele>39.0</ele><time>2026-04-04T17:19:28.187Z</time></trkpt><trkpt lat="40.3065975" lon="18.0161507"><ele>38.5</ele><time>2026-04-04T17:19:29.186Z</time></trkpt><trkpt lat="40.3068754" lon="18.0164652"><ele>38.0</ele><time>2026-04-04T17:19:30.186Z</time></trkpt><trkpt lat="40.307154" lon="18.0167775"><ele>39.5</ele><time>2026-04-04T17:19:31.186Z</time></trkpt><trkpt lat="40.3074351" lon="18.0170891"><ele>41.0</ele><time>2026-04-04T17:19:32.185Z</time></trkpt><trkpt lat="40.307708" lon="18.0174118"><ele>41.5</ele><time>2026-04-04T17:19:33.185Z</time></trkpt><trkpt lat="40.307969" lon="18.0177522"><ele>42.0</ele><time>2026-04-04T17:19:34.186Z</time></trkpt><trkpt lat="40.3082136" lon="18.0181152"><ele>41.0</ele><time>2026-04-04T17:19:35.186Z</time></trkpt><trkpt lat="40.3084527" lon="18.0184824"><ele>40.0</ele><time>2026-04-04T17:19:36.187Z</time></trkpt><trkpt lat="40.3086931" lon="18.0188529"><ele>39.0</ele><time>2026-04-04T17:19:37.186Z</time></trkpt><trkpt lat="40.3089315" lon="18.0192262"><ele>38.0</ele><time>2026-04-04T17:19:38.186Z</time></trkpt><trkpt lat="40.3091711" lon="18.019603"><ele>38.0</ele><time>2026-04-04T17:19:39.187Z</time></trkpt><trkpt lat="40.3094104" lon="18.019979"><ele>38.0</ele><time>2026-04-04T17:19:40.186Z</time></trkpt><trkpt lat="40.3096501" lon="18.0203492"><ele>38.0</ele><time>2026-04-04T17:19:41.185Z</time></trkpt><trkpt lat="40.3098928" lon="18.0207153"><ele>38.0</ele><time>2026-04-04T17:19:42.186Z</time></trkpt><trkpt lat="40.31014" lon="18.0210819"><ele>37.5</ele><time>2026-04-04T17:19:43.185Z</time></trkpt><trkpt lat="40.3103773" lon="18.0214569"><ele>37.0</ele><time>2026-04-04T17:19:44.185Z</time></trkpt><trkpt lat="40.3106047" lon="18.0218381"><ele>37.0</ele><time>2026-04-04T17:19:45.187Z</time></trkpt><trkpt lat="40.3108142" lon="18.0222317"><ele>37.0</ele><time>2026-04-04T17:19:46.186Z</time></trkpt><trkpt lat="40.3110089" lon="18.0226395"><ele>37.0</ele><time>2026-04-04T17:19:47.187Z</time></trkpt><trkpt lat="40.3111867" lon="18.0230554"><ele>37.0</ele><time>2026-04-04T17:19:48.187Z</time></trkpt><trkpt lat="40.3113478" lon="18.0234766"><ele>37.0</ele><time>2026-04-04T17:19:49.187Z</time></trkpt><trkpt lat="40.3114917" lon="18.0239006"><ele>37.0</ele><time>2026-04-04T17:19:50.185Z</time></trkpt><trkpt lat="40.3116219" lon="18.024334"><ele>37.0</ele><time>2026-04-04T17:19:51.185Z</time></trkpt><trkpt lat="40.311734" lon="18.0247733"><ele>37.0</ele><time>2026-04-04T17:19:52.185Z</time></trkpt><trkpt lat="40.3118324" lon="18.0251985"><ele>36.5</ele><time>2026-04-04T17:19:53.186Z</time></trkpt><trkpt lat="40.3119134" lon="18.0256009"><ele>36.0</ele><time>2026-04-04T17:19:54.186Z</time></trkpt><trkpt lat="40.311982" lon="18.0259782"><ele>36.0</ele><time>2026-04-04T17:19:55.186Z</time></trkpt><trkpt lat="40.3120418" lon="18.026344"><ele>36.0</ele><time>2026-04-04T17:19:56.185Z</time></trkpt><trkpt lat="40.3121163" lon="18.0267162"><ele>36.5</ele><time>2026-04-04T17:19:57.187Z</time></trkpt><trkpt lat="40.312193" lon="18.0271137"><ele>37.0</ele><time>2026-04-04T17:19:58.185Z</time></trkpt><trkpt lat="40.3122656" lon="18.0275439"><ele>37.0</ele><time>2026-04-04T17:19:59.186Z</time></trkpt><trkpt lat="40.3123372" lon="18.0280043"><ele>37.0</ele><time>2026-04-04T17:20:00.185Z</time></trkpt><trkpt lat="40.3124139" lon="18.0284961"><ele>36.5</ele><time>2026-04-04T17:20:01.186Z</time></trkpt><trkpt lat="40.3124978" lon="18.0290223"><ele>36.0</ele><time>2026-04-04T17:20:02.186Z</time></trkpt><trkpt lat="40.3125859" lon="18.0295659"><ele>36.0</ele><time>2026-04-04T17:20:03.186Z</time></trkpt><trkpt lat="40.3126881" lon="18.0301488"><ele>36.0</ele><time>2026-04-04T17:20:04.186Z</time></trkpt><trkpt lat="40.3127901" lon="18.0307289"><ele>36.5</ele><time>2026-04-04T17:20:05.186Z</time></trkpt><trkpt lat="40.3128863" lon="18.0312836"><ele>37.0</ele><time>2026-04-04T17:20:06.185Z</time></trkpt><trkpt lat="40.3129817" lon="18.031827"><ele>37.0</ele><time>2026-04-04T17:20:07.185Z</time></trkpt><trkpt lat="40.3130707" lon="18.0323563"><ele>37.0</ele><time>2026-04-04T17:20:08.186Z</time></trkpt><trkpt lat="40.3131574" lon="18.0328744"><ele>36.5</ele><time>2026-04-04T17:20:09.185Z</time></trkpt><trkpt lat="40.3132448" lon="18.0333989"><ele>36.0</ele><time>2026-04-04T17:20:10.186Z</time></trkpt><trkpt lat="40.3133356" lon="18.0339187"><ele>35.5</ele><time>2026-04-04T17:20:11.186Z</time></trkpt><trkpt lat="40.3134198" lon="18.0344177"><ele>35.0</ele><time>2026-04-04T17:20:12.186Z</time></trkpt><trkpt lat="40.3135033" lon="18.0348883"><ele>35.5</ele><time>2026-04-04T17:20:13.186Z</time></trkpt><trkpt lat="40.3135789" lon="18.035331"><ele>36.0</ele><time>2026-04-04T17:20:14.186Z</time></trkpt><trkpt lat="40.3136457" lon="18.0357408"><ele>35.0</ele><time>2026-04-04T17:20:15.186Z</time></trkpt><trkpt lat="40.3136983" lon="18.0361529"><ele>34.0</ele><time>2026-04-04T17:20:16.186Z</time></trkpt><trkpt lat="40.3137308" lon="18.0365639"><ele>33.5</ele><time>2026-04-04T17:20:17.186Z</time></trkpt><trkpt lat="40.3137481" lon="18.0369637"><ele>33.0</ele><time>2026-04-04T17:20:18.186Z</time></trkpt><trkpt lat="40.3137508" lon="18.0373511"><ele>34.0</ele><time>2026-04-04T17:20:19.187Z</time></trkpt><trkpt lat="40.3137418" lon="18.0377172"><ele>35.0</ele><time>2026-04-04T17:20:20.187Z</time></trkpt><trkpt lat="40.3137233" lon="18.0380757"><ele>34.0</ele><time>2026-04-04T17:20:21.186Z</time></trkpt><trkpt lat="40.313701" lon="18.0384174"><ele>33.0</ele><time>2026-04-04T17:20:22.187Z</time></trkpt><trkpt lat="40.3136809" lon="18.0387436"><ele>33.0</ele><time>2026-04-04T17:20:23.186Z</time></trkpt><trkpt lat="40.3136565" lon="18.0390357"><ele>33.0</ele><time>2026-04-04T17:20:24.186Z</time></trkpt><trkpt lat="40.3136315" lon="18.039318"><ele>33.0</ele><time>2026-04-04T17:20:25.185Z</time></trkpt><trkpt lat="40.3136236" lon="18.0395953"><ele>34.0</ele><time>2026-04-04T17:20:26.187Z</time></trkpt><trkpt lat="40.3136278" lon="18.0398935"><ele>35.0</ele><time>2026-04-04T17:20:27.185Z</time></trkpt><trkpt lat="40.3136427" lon="18.0402055"><ele>35.0</ele><time>2026-04-04T17:20:28.186Z</time></trkpt><trkpt lat="40.3136597" lon="18.0405219"><ele>35.0</ele><time>2026-04-04T17:20:29.185Z</time></trkpt><trkpt lat="40.3136756" lon="18.0408377"><ele>35.0</ele><time>2026-04-04T17:20:30.184Z</time></trkpt><trkpt lat="40.3136922" lon="18.0411492"><ele>35.0</ele><time>2026-04-04T17:20:31.185Z</time></trkpt><trkpt lat="40.3137123" lon="18.0414491"><ele>34.666666666666664</ele><time>2026-04-04T17:20:32.184Z</time></trkpt><trkpt lat="40.3137338" lon="18.0417351"><ele>34.333333333333336</ele><time>2026-04-04T17:20:33.185Z</time></trkpt><trkpt lat="40.3137506" lon="18.0420087"><ele>34.0</ele><time>2026-04-04T17:20:34.186Z</time></trkpt><trkpt lat="40.3137766" lon="18.0422544"><ele>34.333333333333336</ele><time>2026-04-04T17:20:35.187Z</time></trkpt><trkpt lat="40.3138239" lon="18.0424936"><ele>34.666666666666664</ele><time>2026-04-04T17:20:36.186Z</time></trkpt><trkpt lat="40.3138864" lon="18.0427431"><ele>35.0</ele><time>2026-04-04T17:20:37.186Z</time></trkpt><trkpt lat="40.3139568" lon="18.0429889"><ele>35.0</ele><time>2026-04-04T17:20:38.185Z</time></trkpt><trkpt lat="40.3140301" lon="18.043217"><ele>35.0</ele><time>2026-04-04T17:20:39.186Z</time></trkpt><trkpt lat="40.3140861" lon="18.04342"><ele>35.0</ele><time>2026-04-04T17:20:40.186Z</time></trkpt><trkpt lat="40.3141161" lon="18.0435907"><ele>34.5</ele><time>2026-04-04T17:20:41.186Z</time></trkpt><trkpt lat="40.3141219" lon="18.0437503"><ele>34.0</ele><time>2026-04-04T17:20:42.187Z</time></trkpt><trkpt lat="40.3141357" lon="18.0438982"><ele>33.5</ele><time>2026-04-04T17:20:43.186Z</time></trkpt><trkpt lat="40.3141756" lon="18.0440314"><ele>33.0</ele><time>2026-04-04T17:20:44.186Z</time></trkpt><trkpt lat="40.3142455" lon="18.0441386"><ele>32.666666666666664</ele><time>2026-04-04T17:20:45.186Z</time></trkpt><trkpt lat="40.3143458" lon="18.0442619"><ele>32.33333333333333</ele><time>2026-04-04T17:20:46.186Z</time></trkpt><trkpt lat="40.3144564" lon="18.0444225"><ele>32.0</ele><time>2026-04-04T17:20:47.186Z</time></trkpt><trkpt lat="40.3145662" lon="18.0446429"><ele>32.0</ele><time>2026-04-04T17:20:48.187Z</time></trkpt><trkpt lat="40.3146731" lon="18.0449048"><ele>32.0</ele><time>2026-04-04T17:20:49.185Z</time></trkpt><trkpt lat="40.314793" lon="18.0452159"><ele>32.0</ele><time>2026-04-04T17:20:50.186Z</time></trkpt><trkpt lat="40.314927" lon="18.0455721"><ele>32.0</ele><time>2026-04-04T17:20:51.186Z</time></trkpt><trkpt lat="40.3150736" lon="18.0459611"><ele>32.0</ele><time>2026-04-04T17:20:52.186Z</time></trkpt><trkpt lat="40.3152176" lon="18.0463469"><ele>32.0</ele><time>2026-04-04T17:20:53.185Z</time></trkpt><trkpt lat="40.315361" lon="18.0467196"><ele>32.0</ele><time>2026-04-04T17:20:54.186Z</time></trkpt><trkpt lat="40.3154978" lon="18.0470885"><ele>32.0</ele><time>2026-04-04T17:20:55.186Z</time></trkpt><trkpt lat="40.3156362" lon="18.0474492"><ele>33.5</ele><time>2026-04-04T17:20:56.187Z</time></trkpt><trkpt lat="40.3157684" lon="18.047796"><ele>35.0</ele><time>2026-04-04T17:20:57.187Z</time></trkpt><trkpt lat="40.3158992" lon="18.0481388"><ele>34.5</ele><time>2026-04-04T17:20:58.185Z</time></trkpt><trkpt lat="40.3160309" lon="18.0484766"><ele>34.0</ele><time>2026-04-04T17:20:59.186Z</time></trkpt><trkpt lat="40.3161562" lon="18.0488116"><ele>34.0</ele><time>2026-04-04T17:21:00.186Z</time></trkpt><trkpt lat="40.3162753" lon="18.0491306"><ele>34.0</ele><time>2026-04-04T17:21:01.186Z</time></trkpt><trkpt lat="40.3163916" lon="18.0494422"><ele>33.5</ele><time>2026-04-04T17:21:02.187Z</time></trkpt><trkpt lat="40.3165037" lon="18.049734"><ele>33.0</ele><time>2026-04-04T17:21:03.186Z</time></trkpt><trkpt lat="40.3166098" lon="18.0500177"><ele>33.0</ele><time>2026-04-04T17:21:04.187Z</time></trkpt><trkpt lat="40.3167102" lon="18.0502858"><ele>33.0</ele><time>2026-04-04T17:21:05.187Z</time></trkpt><trkpt lat="40.3168112" lon="18.05055"><ele>33.333333333333336</ele><time>2026-04-04T17:21:06.186Z</time></trkpt><trkpt lat="40.3169063" lon="18.0508044"><ele>33.66666666666667</ele><time>2026-04-04T17:21:07.186Z</time></trkpt><trkpt lat="40.3170027" lon="18.0510556"><ele>34.0</ele><time>2026-04-04T17:21:08.185Z</time></trkpt><trkpt lat="40.317093" lon="18.0512929"><ele>34.0</ele><time>2026-04-04T17:21:09.185Z</time></trkpt><trkpt lat="40.3171767" lon="18.0515217"><ele>34.0</ele><time>2026-04-04T17:21:10.186Z</time></trkpt><trkpt lat="40.3172543" lon="18.0517359"><ele>34.0</ele><time>2026-04-04T17:21:11.186Z</time></trkpt><trkpt lat="40.3173319" lon="18.0519426"><ele>34.66666666666667</ele><time>2026-04-04T17:21:12.185Z</time></trkpt><trkpt lat="40.3174003" lon="18.0521432"><ele>35.333333333333336</ele><time>2026-04-04T17:21:13.187Z</time></trkpt><trkpt lat="40.3174594" lon="18.0523464"><ele>36.0</ele><time>2026-04-04T17:21:14.185Z</time></trkpt><trkpt lat="40.3175067" lon="18.0525493"><ele>36.333333333333336</ele><time>2026-04-04T17:21:15.185Z</time></trkpt><trkpt lat="40.3175423" lon="18.0527578"><ele>36.66666666666667</ele><time>2026-04-04T17:21:16.187Z</time></trkpt><trkpt lat="40.3175669" lon="18.0529738"><ele>37.0</ele><time>2026-04-04T17:21:17.186Z</time></trkpt><trkpt lat="40.3175851" lon="18.0531953"><ele>37.0</ele><time>2026-04-04T17:21:18.186Z</time></trkpt><trkpt lat="40.3175973" lon="18.0534148"><ele>37.0</ele><time>2026-04-04T17:21:19.187Z</time></trkpt><trkpt lat="40.317602" lon="18.0536411"><ele>37.0</ele><time>2026-04-04T17:21:20.186Z</time></trkpt><trkpt lat="40.3176097" lon="18.0538661"><ele>37.0</ele><time>2026-04-04T17:21:21.186Z</time></trkpt><trkpt lat="40.3176135" lon="18.0540941"><ele>37.0</ele><time>2026-04-04T17:21:22.185Z</time></trkpt><trkpt lat="40.3176177" lon="18.0543222"><ele>37.0</ele><time>2026-04-04T17:21:23.186Z</time></trkpt><trkpt lat="40.3176217" lon="18.0545558"><ele>37.333333333333336</ele><time>2026-04-04T17:21:24.186Z</time></trkpt><trkpt lat="40.3176306" lon="18.054796"><ele>37.666666666666664</ele><time>2026-04-04T17:21:25.186Z</time></trkpt><trkpt lat="40.3176396" lon="18.0550462"><ele>38.0</ele><time>2026-04-04T17:21:26.186Z</time></trkpt><trkpt lat="40.3176491" lon="18.0553113"><ele>38.0</ele><time>2026-04-04T17:21:27.185Z</time></trkpt><trkpt lat="40.317645" lon="18.0556034"><ele>38.0</ele><time>2026-04-04T17:21:28.187Z</time></trkpt><trkpt lat="40.3176395" lon="18.0559069"><ele>38.0</ele><time>2026-04-04T17:21:29.185Z</time></trkpt><trkpt lat="40.317634" lon="18.0562227"><ele>38.0</ele><time>2026-04-04T17:21:30.186Z</time></trkpt><trkpt lat="40.3176332" lon="18.0565484"><ele>37.5</ele><time>2026-04-04T17:21:31.185Z</time></trkpt><trkpt lat="40.3176339" lon="18.0568862"><ele>37.0</ele><time>2026-04-04T17:21:32.185Z</time></trkpt><trkpt lat="40.3176366" lon="18.0572349"><ele>38.0</ele><time>2026-04-04T17:21:33.187Z</time></trkpt><trkpt lat="40.3176377" lon="18.0575906"><ele>39.0</ele><time>2026-04-04T17:21:34.185Z</time></trkpt><trkpt lat="40.3176448" lon="18.0579505"><ele>38.5</ele><time>2026-04-04T17:21:35.186Z</time></trkpt><trkpt lat="40.3176507" lon="18.0583084"><ele>38.0</ele><time>2026-04-04T17:21:36.185Z</time></trkpt><trkpt lat="40.3176556" lon="18.0586766"><ele>38.0</ele><time>2026-04-04T17:21:37.185Z</time></trkpt><trkpt lat="40.3176613" lon="18.0590378"><ele>38.0</ele><time>2026-04-04T17:21:38.186Z</time></trkpt><trkpt lat="40.3176682" lon="18.0593776"><ele>38.5</ele><time>2026-04-04T17:21:39.187Z</time></trkpt><trkpt lat="40.3176707" lon="18.0597189"><ele>39.0</ele><time>2026-04-04T17:21:40.185Z</time></trkpt><trkpt lat="40.3176736" lon="18.0600489"><ele>39.5</ele><time>2026-04-04T17:21:41.185Z</time></trkpt><trkpt lat="40.3176767" lon="18.0603647"><ele>40.0</ele><time>2026-04-04T17:21:42.187Z</time></trkpt><trkpt lat="40.3176851" lon="18.0606687"><ele>40.66666666666667</ele><time>2026-04-04T17:21:43.186Z</time></trkpt><trkpt lat="40.3177004" lon="18.0609675"><ele>41.333333333333336</ele><time>2026-04-04T17:21:44.186Z</time></trkpt><trkpt lat="40.3177358" lon="18.0612531"><ele>42.0</ele><time>2026-04-04T17:21:45.186Z</time></trkpt><trkpt lat="40.3177892" lon="18.0615339"><ele>41.333333333333336</ele><time>2026-04-04T17:21:46.185Z</time></trkpt><trkpt lat="40.3178571" lon="18.0618087"><ele>40.66666666666667</ele><time>2026-04-04T17:21:47.187Z</time></trkpt><trkpt lat="40.3179559" lon="18.0620679"><ele>40.0</ele><time>2026-04-04T17:21:48.186Z</time></trkpt><trkpt lat="40.3180608" lon="18.0623197"><ele>40.333333333333336</ele><time>2026-04-04T17:21:49.187Z</time></trkpt><trkpt lat="40.3181696" lon="18.062565"><ele>40.666666666666664</ele><time>2026-04-04T17:21:50.186Z</time></trkpt><trkpt lat="40.3182849" lon="18.0628061"><ele>41.0</ele><time>2026-04-04T17:21:51.187Z</time></trkpt><trkpt lat="40.3183978" lon="18.0630502"><ele>40.33333333333333</ele><time>2026-04-04T17:21:52.185Z</time></trkpt><trkpt lat="40.3185101" lon="18.0632885"><ele>39.666666666666664</ele><time>2026-04-04T17:21:53.185Z</time></trkpt><trkpt lat="40.3186237" lon="18.0635183"><ele>39.0</ele><time>2026-04-04T17:21:54.186Z</time></trkpt><trkpt lat="40.3187288" lon="18.0637408"><ele>39.0</ele><time>2026-04-04T17:21:55.185Z</time></trkpt><trkpt lat="40.3188333" lon="18.0639614"><ele>39.0</ele><time>2026-04-04T17:21:56.186Z</time></trkpt><trkpt lat="40.3189351" lon="18.0641734"><ele>39.0</ele><time>2026-04-04T17:21:57.186Z</time></trkpt><trkpt lat="40.319033" lon="18.0643794"><ele>39.0</ele><time>2026-04-04T17:21:58.185Z</time></trkpt><trkpt lat="40.3191296" lon="18.0645841"><ele>39.0</ele><time>2026-04-04T17:21:59.188Z</time></trkpt><trkpt lat="40.3192292" lon="18.0647996"><ele>39.0</ele><time>2026-04-04T17:22:00.186Z</time></trkpt><trkpt lat="40.3193339" lon="18.0650321"><ele>38.5</ele><time>2026-04-04T17:22:01.185Z</time></trkpt><trkpt lat="40.3194516" lon="18.0652787"><ele>38.0</ele><time>2026-04-04T17:22:02.185Z</time></trkpt><trkpt lat="40.3195795" lon="18.0655421"><ele>38.5</ele><time>2026-04-04T17:22:03.186Z</time></trkpt><trkpt lat="40.3197099" lon="18.0658221"><ele>39.0</ele><time>2026-04-04T17:22:04.185Z</time></trkpt><trkpt lat="40.3198406" lon="18.0660969"><ele>40.0</ele><time>2026-04-04T17:22:05.186Z</time></trkpt><trkpt lat="40.3199697" lon="18.0663596"><ele>41.0</ele><time>2026-04-04T17:22:06.186Z</time></trkpt><trkpt lat="40.3200929" lon="18.0666133"><ele>41.0</ele><time>2026-04-04T17:22:07.186Z</time></trkpt><trkpt lat="40.3202117" lon="18.0668549"><ele>41.0</ele><time>2026-04-04T17:22:08.185Z</time></trkpt><trkpt lat="40.3203248" lon="18.0670814"><ele>41.0</ele><time>2026-04-04T17:22:09.185Z</time></trkpt><trkpt lat="40.3204289" lon="18.0672929"><ele>41.25</ele><time>2026-04-04T17:22:10.185Z</time></trkpt><trkpt lat="40.3205202" lon="18.0674839"><ele>41.5</ele><time>2026-04-04T17:22:11.186Z</time></trkpt><trkpt lat="40.3205725" lon="18.067637"><ele>41.75</ele><time>2026-04-04T17:22:12.186Z</time></trkpt><trkpt lat="40.3206017" lon="18.0677806"><ele>42.0</ele><time>2026-04-04T17:22:13.185Z</time></trkpt><trkpt lat="40.3206001" lon="18.0679101"><ele>42.0</ele><time>2026-04-04T17:22:14.187Z</time></trkpt><trkpt lat="40.3205747" lon="18.0680336"><ele>42.0</ele><time>2026-04-04T17:22:15.187Z</time></trkpt><trkpt lat="40.3205566" lon="18.0681527"><ele>42.0</ele><time>2026-04-04T17:22:16.186Z</time></trkpt><trkpt lat="40.3205855" lon="18.0682649"><ele>42.0</ele><time>2026-04-04T17:22:17.186Z</time></trkpt><trkpt lat="40.3206367" lon="18.0683539"><ele>42.0</ele><time>2026-04-04T17:22:18.187Z</time></trkpt><trkpt lat="40.3207251" lon="18.0684179"><ele>42.5</ele><time>2026-04-04T17:22:19.186Z</time></trkpt><trkpt lat="40.32084" lon="18.0684693"><ele>43.0</ele><time>2026-04-04T17:22:20.186Z</time></trkpt><trkpt lat="40.3209588" lon="18.0685527"><ele>43.5</ele><time>2026-04-04T17:22:21.186Z</time></trkpt><trkpt lat="40.3210726" lon="18.068677"><ele>44.0</ele><time>2026-04-04T17:22:22.187Z</time></trkpt><trkpt lat="40.3211687" lon="18.0688357"><ele>44.0</ele><time>2026-04-04T17:22:23.188Z</time></trkpt><trkpt lat="40.3212619" lon="18.0690242"><ele>44.0</ele><time>2026-04-04T17:22:24.186Z</time></trkpt><trkpt lat="40.3213481" lon="18.0692316"><ele>44.0</ele><time>2026-04-04T17:22:25.185Z</time></trkpt><trkpt lat="40.3214242" lon="18.0694505"><ele>44.0</ele><time>2026-04-04T17:22:26.186Z</time></trkpt><trkpt lat="40.3214825" lon="18.0696775"><ele>44.0</ele><time>2026-04-04T17:22:27.185Z</time></trkpt><trkpt lat="40.3215185" lon="18.0699133"><ele>44.0</ele><time>2026-04-04T17:22:28.185Z</time></trkpt><trkpt lat="40.3215413" lon="18.0701467"><ele>44.0</ele><time>2026-04-04T17:22:29.186Z</time></trkpt><trkpt lat="40.3215515" lon="18.0703834"><ele>44.0</ele><time>2026-04-04T17:22:30.185Z</time></trkpt><trkpt lat="40.3215605" lon="18.0706204"><ele>44.0</ele><time>2026-04-04T17:22:31.186Z</time></trkpt><trkpt lat="40.3215662" lon="18.0708531"><ele>44.0</ele><time>2026-04-04T17:22:32.187Z</time></trkpt><trkpt lat="40.321579" lon="18.0710883"><ele>44.0</ele><time>2026-04-04T17:22:33.186Z</time></trkpt><trkpt lat="40.321595" lon="18.0713366"><ele>44.0</ele><time>2026-04-04T17:22:34.187Z</time></trkpt><trkpt lat="40.321611" lon="18.0715885"><ele>43.666666666666664</ele><time>2026-04-04T17:22:35.186Z</time></trkpt><trkpt lat="40.3216382" lon="18.071842"><ele>43.333333333333336</ele><time>2026-04-04T17:22:36.187Z</time></trkpt><trkpt lat="40.3216874" lon="18.0721039"><ele>43.0</ele><time>2026-04-04T17:22:37.186Z</time></trkpt><trkpt lat="40.3217515" lon="18.0723636"><ele>43.333333333333336</ele><time>2026-04-04T17:22:38.187Z</time></trkpt><trkpt lat="40.3218353" lon="18.0726197"><ele>43.666666666666664</ele><time>2026-04-04T17:22:39.185Z</time></trkpt><trkpt lat="40.3219315" lon="18.072878"><ele>44.0</ele><time>2026-04-04T17:22:40.187Z</time></trkpt><trkpt lat="40.3220618" lon="18.0731299"><ele>43.5</ele><time>2026-04-04T17:22:41.185Z</time></trkpt><trkpt lat="40.3222004" lon="18.0733861"><ele>43.0</ele><time>2026-04-04T17:22:42.185Z</time></trkpt><trkpt lat="40.3223388" lon="18.0736485"><ele>43.0</ele><time>2026-04-04T17:22:43.185Z</time></trkpt><trkpt lat="40.3224847" lon="18.073917"><ele>43.0</ele><time>2026-04-04T17:22:44.186Z</time></trkpt><trkpt lat="40.3226315" lon="18.0741954"><ele>42.0</ele><time>2026-04-04T17:22:45.186Z</time></trkpt><trkpt lat="40.3227839" lon="18.0744746"><ele>41.0</ele><time>2026-04-04T17:22:46.187Z</time></trkpt><trkpt lat="40.3229348" lon="18.0747613"><ele>42.5</ele><time>2026-04-04T17:22:47.187Z</time></trkpt><trkpt lat="40.3230879" lon="18.0750469"><ele>44.0</ele><time>2026-04-04T17:22:48.186Z</time></trkpt><trkpt lat="40.3232396" lon="18.0753327"><ele>44.0</ele><time>2026-04-04T17:22:49.187Z</time></trkpt><trkpt lat="40.3233902" lon="18.0756251"><ele>44.0</ele><time>2026-04-04T17:22:50.187Z</time></trkpt><trkpt lat="40.3235437" lon="18.0759111"><ele>43.0</ele><time>2026-04-04T17:22:51.186Z</time></trkpt><trkpt lat="40.3237009" lon="18.0761948"><ele>42.0</ele><time>2026-04-04T17:22:52.186Z</time></trkpt><trkpt lat="40.3238579" lon="18.0764736"><ele>42.5</ele><time>2026-04-04T17:22:53.186Z</time></trkpt><trkpt lat="40.3240197" lon="18.0767391"><ele>43.0</ele><time>2026-04-04T17:22:54.186Z</time></trkpt><trkpt lat="40.324185" lon="18.076996"><ele>43.0</ele><time>2026-04-04T17:22:55.186Z</time></trkpt><trkpt lat="40.324354" lon="18.0772426"><ele>43.0</ele><time>2026-04-04T17:22:56.186Z</time></trkpt><trkpt lat="40.3245207" lon="18.0774825"><ele>42.5</ele><time>2026-04-04T17:22:57.186Z</time></trkpt><trkpt lat="40.324684" lon="18.0777098"><ele>42.0</ele><time>2026-04-04T17:22:58.186Z</time></trkpt><trkpt lat="40.3248427" lon="18.0779299"><ele>42.0</ele><time>2026-04-04T17:22:59.186Z</time></trkpt><trkpt lat="40.3249934" lon="18.0781371"><ele>42.0</ele><time>2026-04-04T17:23:00.186Z</time></trkpt><trkpt lat="40.3251318" lon="18.0783244"><ele>42.0</ele><time>2026-04-04T17:23:01.186Z</time></trkpt><trkpt lat="40.3252726" lon="18.0785095"><ele>42.333333333333336</ele><time>2026-04-04T17:23:02.186Z</time></trkpt><trkpt lat="40.3253992" lon="18.0786815"><ele>42.66666666666667</ele><time>2026-04-04T17:23:03.187Z</time></trkpt><trkpt lat="40.3255173" lon="18.0788408"><ele>43.0</ele><time>2026-04-04T17:23:04.186Z</time></trkpt><trkpt lat="40.32563" lon="18.0789977"><ele>41.66666666666667</ele><time>2026-04-04T17:23:05.186Z</time></trkpt><trkpt lat="40.3257397" lon="18.0791458"><ele>40.333333333333336</ele><time>2026-04-04T17:23:06.185Z</time></trkpt><trkpt lat="40.3258495" lon="18.0792965"><ele>39.0</ele><time>2026-04-04T17:23:07.186Z</time></trkpt><trkpt lat="40.3259606" lon="18.0794476"><ele>39.0</ele><time>2026-04-04T17:23:08.188Z</time></trkpt><trkpt lat="40.3260745" lon="18.0796006"><ele>39.0</ele><time>2026-04-04T17:23:09.185Z</time></trkpt><trkpt lat="40.326185" lon="18.0797531"><ele>39.0</ele><time>2026-04-04T17:23:10.186Z</time></trkpt><trkpt lat="40.3262942" lon="18.0799022"><ele>39.0</ele><time>2026-04-04T17:23:11.185Z</time></trkpt><trkpt lat="40.3264038" lon="18.0800477"><ele>39.0</ele><time>2026-04-04T17:23:12.187Z</time></trkpt><trkpt lat="40.3265114" lon="18.080197"><ele>39.0</ele><time>2026-04-04T17:23:13.186Z</time></trkpt><trkpt lat="40.3266238" lon="18.080347"><ele>39.0</ele><time>2026-04-04T17:23:14.187Z</time></trkpt><trkpt lat="40.3267258" lon="18.080507"><ele>39.0</ele><time>2026-04-04T17:23:15.186Z</time></trkpt><trkpt lat="40.3268242" lon="18.0806761"><ele>39.0</ele><time>2026-04-04T17:23:16.187Z</time></trkpt><trkpt lat="40.3269212" lon="18.0808436"><ele>39.0</ele><time>2026-04-04T17:23:17.186Z</time></trkpt><trkpt lat="40.3270047" lon="18.0810212"><ele>39.0</ele><time>2026-04-04T17:23:18.187Z</time></trkpt><trkpt lat="40.327088" lon="18.0812017"><ele>39.0</ele><time>2026-04-04T17:23:19.188Z</time></trkpt><trkpt lat="40.3271734" lon="18.08138"><ele>38.333333333333336</ele><time>2026-04-04T17:23:20.185Z</time></trkpt><trkpt lat="40.3272701" lon="18.0815678"><ele>37.66666666666667</ele><time>2026-04-04T17:23:21.186Z</time></trkpt><trkpt lat="40.3273725" lon="18.0817765"><ele>37.0</ele><time>2026-04-04T17:23:22.187Z</time></trkpt><trkpt lat="40.3274721" lon="18.0819807"><ele>36.66666666666667</ele><time>2026-04-04T17:23:23.186Z</time></trkpt><trkpt lat="40.3275609" lon="18.0821801"><ele>36.333333333333336</ele><time>2026-04-04T17:23:24.185Z</time></trkpt><trkpt lat="40.3276462" lon="18.0823704"><ele>36.0</ele><time>2026-04-04T17:23:25.185Z</time></trkpt><trkpt lat="40.3277302" lon="18.0825527"><ele>36.0</ele><time>2026-04-04T17:23:26.187Z</time></trkpt><trkpt lat="40.3278" lon="18.0827254"><ele>36.0</ele><time>2026-04-04T17:23:27.186Z</time></trkpt><trkpt lat="40.327879" lon="18.0828887"><ele>36.0</ele><time>2026-04-04T17:23:28.186Z</time></trkpt><trkpt lat="40.3279468" lon="18.0830472"><ele>36.0</ele><time>2026-04-04T17:23:29.185Z</time></trkpt><trkpt lat="40.3280136" lon="18.0831993"><ele>36.0</ele><time>2026-04-04T17:23:30.187Z</time></trkpt><trkpt lat="40.3280702" lon="18.0833259"><ele>36.0</ele><time>2026-04-04T17:23:31.186Z</time></trkpt><trkpt lat="40.3281194" lon="18.083435"><ele>36.0</ele><time>2026-04-04T17:23:32.186Z</time></trkpt><trkpt lat="40.3281712" lon="18.0835134"><ele>36.0</ele><time>2026-04-04T17:23:33.186Z</time></trkpt><trkpt lat="40.3282223" lon="18.0835808"><ele>36.0</ele><time>2026-04-04T17:23:34.186Z</time></trkpt><trkpt lat="40.3282892" lon="18.0836842"><ele>36.0</ele><time>2026-04-04T17:23:36.186Z</time></trkpt><trkpt lat="40.3283308" lon="18.0838142"><ele>36.0</ele><time>2026-04-04T17:23:38.185Z</time></trkpt><trkpt lat="40.3283761" lon="18.0839387"><ele>36.0</ele><time>2026-04-04T17:23:40.187Z</time></trkpt><trkpt lat="40.3284653" lon="18.0840276"><ele>36.0</ele><time>2026-04-04T17:23:42.185Z</time></trkpt><trkpt lat="40.328535" lon="18.0840401"><ele>36.0</ele><time>2026-04-04T17:23:43.186Z</time></trkpt><trkpt lat="40.3286006" lon="18.0840562"><ele>35.0</ele><time>2026-04-04T17:23:44.186Z</time></trkpt><trkpt lat="40.328669" lon="18.0840993"><ele>34.0</ele><time>2026-04-04T17:23:45.187Z</time></trkpt><trkpt lat="40.3287378" lon="18.0841701"><ele>33.0</ele><time>2026-04-04T17:23:46.187Z</time></trkpt><trkpt lat="40.3288139" lon="18.0842634"><ele>32.0</ele><time>2026-04-04T17:23:47.186Z</time></trkpt><trkpt lat="40.3288946" lon="18.0844073"><ele>31.0</ele><time>2026-04-04T17:23:48.186Z</time></trkpt><trkpt lat="40.3289786" lon="18.0846202"><ele>30.666666666666668</ele><time>2026-04-04T17:23:49.187Z</time></trkpt><trkpt lat="40.3290518" lon="18.0848593"><ele>30.333333333333336</ele><time>2026-04-04T17:23:50.186Z</time></trkpt><trkpt lat="40.3291088" lon="18.0850975"><ele>30.0</ele><time>2026-04-04T17:23:51.185Z</time></trkpt><trkpt lat="40.3291469" lon="18.0853125"><ele>30.0</ele><time>2026-04-04T17:23:52.188Z</time></trkpt><trkpt lat="40.3291883" lon="18.0855173"><ele>30.0</ele><time>2026-04-04T17:23:53.186Z</time></trkpt><trkpt lat="40.3292399" lon="18.0856992"><ele>30.0</ele><time>2026-04-04T17:23:54.187Z</time></trkpt><trkpt lat="40.3293002" lon="18.0858797"><ele>29.75</ele><time>2026-04-04T17:23:55.185Z</time></trkpt><trkpt lat="40.3293557" lon="18.0860592"><ele>29.5</ele><time>2026-04-04T17:23:56.186Z</time></trkpt><trkpt lat="40.3294191" lon="18.086235"><ele>29.25</ele><time>2026-04-04T17:23:57.187Z</time></trkpt><trkpt lat="40.3294889" lon="18.0864051"><ele>29.0</ele><time>2026-04-04T17:23:58.188Z</time></trkpt><trkpt lat="40.3295616" lon="18.0865677"><ele>29.333333333333332</ele><time>2026-04-04T17:23:59.186Z</time></trkpt><trkpt lat="40.3296415" lon="18.0867359"><ele>29.666666666666664</ele><time>2026-04-04T17:24:00.186Z</time></trkpt><trkpt lat="40.329718" lon="18.0869043"><ele>30.0</ele><time>2026-04-04T17:24:01.185Z</time></trkpt><trkpt lat="40.3297996" lon="18.0870769"><ele>30.25</ele><time>2026-04-04T17:24:02.186Z</time></trkpt><trkpt lat="40.3298761" lon="18.0872468"><ele>30.5</ele><time>2026-04-04T17:24:03.188Z</time></trkpt><trkpt lat="40.3299509" lon="18.0874106"><ele>30.75</ele><time>2026-04-04T17:24:04.186Z</time></trkpt><trkpt lat="40.3300199" lon="18.0875636"><ele>31.0</ele><time>2026-04-04T17:24:05.187Z</time></trkpt><trkpt lat="40.3300951" lon="18.0877104"><ele>30.75</ele><time>2026-04-04T17:24:06.186Z</time></trkpt><trkpt lat="40.3301673" lon="18.0878664"><ele>30.5</ele><time>2026-04-04T17:24:07.186Z</time></trkpt><trkpt lat="40.330244" lon="18.0880266"><ele>30.25</ele><time>2026-04-04T17:24:08.186Z</time></trkpt><trkpt lat="40.330335" lon="18.0882035"><ele>30.0</ele><time>2026-04-04T17:24:09.186Z</time></trkpt><trkpt lat="40.3304222" lon="18.0883945"><ele>30.0</ele><time>2026-04-04T17:24:10.187Z</time></trkpt><trkpt lat="40.3305012" lon="18.0885759"><ele>30.0</ele><time>2026-04-04T17:24:11.186Z</time></trkpt><trkpt lat="40.3305754" lon="18.0887407"><ele>30.0</ele><time>2026-04-04T17:24:12.187Z</time></trkpt><trkpt lat="40.3306484" lon="18.0889023"><ele>30.0</ele><time>2026-04-04T17:24:13.186Z</time></trkpt><trkpt lat="40.3307341" lon="18.0890673"><ele>30.0</ele><time>2026-04-04T17:24:14.186Z</time></trkpt><trkpt lat="40.330827" lon="18.0892396"><ele>30.0</ele><time>2026-04-04T17:24:15.186Z</time></trkpt><trkpt lat="40.3309108" lon="18.0894189"><ele>30.0</ele><time>2026-04-04T17:24:16.186Z</time></trkpt><trkpt lat="40.3309771" lon="18.0895873"><ele>30.0</ele><time>2026-04-04T17:24:17.186Z</time></trkpt><trkpt lat="40.3310442" lon="18.0897446"><ele>30.0</ele><time>2026-04-04T17:24:18.185Z</time></trkpt><trkpt lat="40.331111" lon="18.0898911"><ele>30.0</ele><time>2026-04-04T17:24:19.188Z</time></trkpt><trkpt lat="40.3311852" lon="18.0900322"><ele>30.0</ele><time>2026-04-04T17:24:20.187Z</time></trkpt><trkpt lat="40.3312717" lon="18.0901903"><ele>30.0</ele><time>2026-04-04T17:24:21.187Z</time></trkpt><trkpt lat="40.331356" lon="18.0903608"><ele>30.0</ele><time>2026-04-04T17:24:22.186Z</time></trkpt><trkpt lat="40.3314538" lon="18.0905614"><ele>30.0</ele><time>2026-04-04T17:24:23.185Z</time></trkpt><trkpt lat="40.3315454" lon="18.0907513"><ele>30.0</ele><time>2026-04-04T17:24:24.186Z</time></trkpt><trkpt lat="40.3316266" lon="18.0909394"><ele>30.0</ele><time>2026-04-04T17:24:25.186Z</time></trkpt><trkpt lat="40.3316964" lon="18.09112"><ele>30.0</ele><time>2026-04-04T17:24:26.186Z</time></trkpt><trkpt lat="40.3317602" lon="18.0912936"><ele>30.0</ele><time>2026-04-04T17:24:27.187Z</time></trkpt><trkpt lat="40.331826" lon="18.0914567"><ele>30.0</ele><time>2026-04-04T17:24:28.186Z</time></trkpt><trkpt lat="40.3318912" lon="18.0916069"><ele>30.0</ele><time>2026-04-04T17:24:29.186Z</time></trkpt><trkpt lat="40.3319525" lon="18.0917409"><ele>30.0</ele><time>2026-04-04T17:24:30.186Z</time></trkpt><trkpt lat="40.3320023" lon="18.0918458"><ele>30.0</ele><time>2026-04-04T17:24:31.186Z</time></trkpt><trkpt lat="40.3320452" lon="18.0919363"><ele>30.0</ele><time>2026-04-04T17:24:32.186Z</time></trkpt><trkpt lat="40.3320803" lon="18.0920274"><ele>30.0</ele><time>2026-04-04T17:24:33.187Z</time></trkpt><trkpt lat="40.332118" lon="18.0921047"><ele>30.0</ele><time>2026-04-04T17:24:34.187Z</time></trkpt><trkpt lat="40.3321515" lon="18.0921771"><ele>30.0</ele><time>2026-04-04T17:24:35.187Z</time></trkpt><trkpt lat="40.3321851" lon="18.0922512"><ele>30.0</ele><time>2026-04-04T17:24:36.188Z</time></trkpt><trkpt lat="40.3322162" lon="18.092326"><ele>30.0</ele><time>2026-04-04T17:24:37.185Z</time></trkpt><trkpt lat="40.3322051" lon="18.0924838"><ele>30.0</ele><time>2026-04-04T17:24:39.188Z</time></trkpt><trkpt lat="40.332192" lon="18.0925884"><ele>30.0</ele><time>2026-04-04T17:24:40.188Z</time></trkpt><trkpt lat="40.3321992" lon="18.0926987"><ele>30.0</ele><time>2026-04-04T17:24:41.187Z</time></trkpt><trkpt lat="40.3322215" lon="18.0928112"><ele>30.0</ele><time>2026-04-04T17:24:42.187Z</time></trkpt><trkpt lat="40.3323066" lon="18.0928776"><ele>30.0</ele><time>2026-04-04T17:24:43.188Z</time></trkpt><trkpt lat="40.3323801" lon="18.0929502"><ele>30.0</ele><time>2026-04-04T17:24:44.187Z</time></trkpt><trkpt lat="40.3324648" lon="18.0930342"><ele>30.0</ele><time>2026-04-04T17:24:45.186Z</time></trkpt><trkpt lat="40.3325543" lon="18.0931402"><ele>30.0</ele><time>2026-04-04T17:24:46.187Z</time></trkpt><trkpt lat="40.3326306" lon="18.0932661"><ele>30.0</ele><time>2026-04-04T17:24:47.186Z</time></trkpt><trkpt lat="40.332714" lon="18.0934014"><ele>30.0</ele><time>2026-04-04T17:24:48.186Z</time></trkpt><trkpt lat="40.3327837" lon="18.0935432"><ele>30.0</ele><time>2026-04-04T17:24:49.187Z</time></trkpt><trkpt lat="40.3328486" lon="18.0936818"><ele>30.0</ele><time>2026-04-04T17:24:50.185Z</time></trkpt><trkpt lat="40.3329009" lon="18.0938176"><ele>30.0</ele><time>2026-04-04T17:24:51.185Z</time></trkpt><trkpt lat="40.3329372" lon="18.0939189"><ele>30.0</ele><time>2026-04-04T17:24:52.188Z</time></trkpt><trkpt lat="40.3329751" lon="18.0940025"><ele>30.0</ele><time>2026-04-04T17:24:53.188Z</time></trkpt><trkpt lat="40.3330068" lon="18.0940769"><ele>30.0</ele><time>2026-04-04T17:24:54.188Z</time></trkpt><trkpt lat="40.3330443" lon="18.0941556"><ele>30.0</ele><time>2026-04-04T17:24:55.186Z</time></trkpt><trkpt lat="40.3330861" lon="18.0942466"><ele>30.0</ele><time>2026-04-04T17:24:56.187Z</time></trkpt><trkpt lat="40.333136" lon="18.0943519"><ele>30.0</ele><time>2026-04-04T17:24:57.186Z</time></trkpt><trkpt lat="40.3331971" lon="18.0944809"><ele>30.0</ele><time>2026-04-04T17:24:58.186Z</time></trkpt><trkpt lat="40.3332648" lon="18.0946324"><ele>30.0</ele><time>2026-04-04T17:24:59.188Z</time></trkpt><trkpt lat="40.333335" lon="18.0948132"><ele>30.0</ele><time>2026-04-04T17:25:00.186Z</time></trkpt><trkpt lat="40.3334067" lon="18.0950141"><ele>30.0</ele><time>2026-04-04T17:25:01.187Z</time></trkpt><trkpt lat="40.3334705" lon="18.0952431"><ele>30.0</ele><time>2026-04-04T17:25:02.185Z</time></trkpt><trkpt lat="40.3335308" lon="18.095483"><ele>30.0</ele><time>2026-04-04T17:25:03.186Z</time></trkpt><trkpt lat="40.3335835" lon="18.095737"><ele>30.0</ele><time>2026-04-04T17:25:04.187Z</time></trkpt><trkpt lat="40.3336417" lon="18.0959913"><ele>29.666666666666664</ele><time>2026-04-04T17:25:05.187Z</time></trkpt><trkpt lat="40.3336854" lon="18.0962727"><ele>29.333333333333332</ele><time>2026-04-04T17:25:06.186Z</time></trkpt><trkpt lat="40.3337315" lon="18.0965562"><ele>29.0</ele><time>2026-04-04T17:25:07.186Z</time></trkpt><trkpt lat="40.3337751" lon="18.0968398"><ele>29.0</ele><time>2026-04-04T17:25:08.186Z</time></trkpt><trkpt lat="40.3338222" lon="18.0971251"><ele>29.0</ele><time>2026-04-04T17:25:09.187Z</time></trkpt><trkpt lat="40.3338715" lon="18.0974124"><ele>29.0</ele><time>2026-04-04T17:25:10.185Z</time></trkpt><trkpt lat="40.3339193" lon="18.0977032"><ele>29.0</ele><time>2026-04-04T17:25:11.187Z</time></trkpt><trkpt lat="40.3339662" lon="18.0979973"><ele>29.0</ele><time>2026-04-04T17:25:12.186Z</time></trkpt><trkpt lat="40.3340147" lon="18.0982945"><ele>29.5</ele><time>2026-04-04T17:25:13.186Z</time></trkpt><trkpt lat="40.3340645" lon="18.0985892"><ele>30.0</ele><time>2026-04-04T17:25:14.187Z</time></trkpt><trkpt lat="40.3341153" lon="18.0988812"><ele>30.0</ele><time>2026-04-04T17:25:15.186Z</time></trkpt><trkpt lat="40.334163" lon="18.0991648"><ele>30.0</ele><time>2026-04-04T17:25:16.186Z</time></trkpt><trkpt lat="40.3342065" lon="18.0994355"><ele>30.0</ele><time>2026-04-04T17:25:17.187Z</time></trkpt><trkpt lat="40.334248" lon="18.0996999"><ele>30.0</ele><time>2026-04-04T17:25:18.186Z</time></trkpt><trkpt lat="40.3342947" lon="18.0999549"><ele>30.0</ele><time>2026-04-04T17:25:19.185Z</time></trkpt><trkpt lat="40.3343632" lon="18.1002008"><ele>30.0</ele><time>2026-04-04T17:25:20.186Z</time></trkpt><trkpt lat="40.3344508" lon="18.1004365"><ele>30.0</ele><time>2026-04-04T17:25:21.187Z</time></trkpt><trkpt lat="40.3345476" lon="18.1006548"><ele>30.0</ele><time>2026-04-04T17:25:22.187Z</time></trkpt><trkpt lat="40.3346506" lon="18.1008509"><ele>30.0</ele><time>2026-04-04T17:25:23.186Z</time></trkpt><trkpt lat="40.3347502" lon="18.1010397"><ele>28.666666666666664</ele><time>2026-04-04T17:25:24.188Z</time></trkpt><trkpt lat="40.3348456" lon="18.1012167"><ele>27.333333333333332</ele><time>2026-04-04T17:25:25.186Z</time></trkpt><trkpt lat="40.3349337" lon="18.1013792"><ele>26.0</ele><time>2026-04-04T17:25:26.185Z</time></trkpt><trkpt lat="40.3350214" lon="18.1015332"><ele>26.0</ele><time>2026-04-04T17:25:27.186Z</time></trkpt><trkpt lat="40.3351056" lon="18.1016771"><ele>26.0</ele><time>2026-04-04T17:25:28.186Z</time></trkpt><trkpt lat="40.3351871" lon="18.10181"><ele>26.0</ele><time>2026-04-04T17:25:29.188Z</time></trkpt><trkpt lat="40.3352623" lon="18.1019382"><ele>26.0</ele><time>2026-04-04T17:25:30.187Z</time></trkpt><trkpt lat="40.3353351" lon="18.1020761"><ele>26.0</ele><time>2026-04-04T17:25:31.187Z</time></trkpt><trkpt lat="40.3353912" lon="18.1022047"><ele>26.0</ele><time>2026-04-04T17:25:32.186Z</time></trkpt><trkpt lat="40.3354324" lon="18.1023408"><ele>26.0</ele><time>2026-04-04T17:25:33.186Z</time></trkpt><trkpt lat="40.3354611" lon="18.1024935"><ele>26.0</ele><time>2026-04-04T17:25:34.187Z</time></trkpt><trkpt lat="40.3354797" lon="18.1026597"><ele>25.666666666666664</ele><time>2026-04-04T17:25:35.187Z</time></trkpt><trkpt lat="40.3354697" lon="18.1028673"><ele>25.333333333333336</ele><time>2026-04-04T17:25:36.186Z</time></trkpt><trkpt lat="40.3354636" lon="18.1030962"><ele>25.0</ele><time>2026-04-04T17:25:37.186Z</time></trkpt><trkpt lat="40.3354582" lon="18.1033314"><ele>25.0</ele><time>2026-04-04T17:25:38.187Z</time></trkpt><trkpt lat="40.3354516" lon="18.1035807"><ele>25.0</ele><time>2026-04-04T17:25:39.186Z</time></trkpt><trkpt lat="40.3354437" lon="18.1038494"><ele>25.0</ele><time>2026-04-04T17:25:40.186Z</time></trkpt><trkpt lat="40.3354516" lon="18.1041192"><ele>25.0</ele><time>2026-04-04T17:25:41.185Z</time></trkpt><trkpt lat="40.3354612" lon="18.1043974"><ele>25.0</ele><time>2026-04-04T17:25:42.185Z</time></trkpt><trkpt lat="40.3354891" lon="18.1046679"><ele>25.0</ele><time>2026-04-04T17:25:43.186Z</time></trkpt><trkpt lat="40.3355292" lon="18.1049296"><ele>25.666666666666668</ele><time>2026-04-04T17:25:44.187Z</time></trkpt><trkpt lat="40.335579" lon="18.105186"><ele>26.333333333333336</ele><time>2026-04-04T17:25:45.186Z</time></trkpt><trkpt lat="40.3356366" lon="18.1054366"><ele>27.0</ele><time>2026-04-04T17:25:46.186Z</time></trkpt><trkpt lat="40.3356917" lon="18.1056875"><ele>27.0</ele><time>2026-04-04T17:25:47.185Z</time></trkpt><trkpt lat="40.3357507" lon="18.1059251"><ele>27.0</ele><time>2026-04-04T17:25:48.186Z</time></trkpt><trkpt lat="40.3358115" lon="18.1061488"><ele>27.0</ele><time>2026-04-04T17:25:49.186Z</time></trkpt><trkpt lat="40.3358663" lon="18.106361"><ele>27.0</ele><time>2026-04-04T17:25:50.186Z</time></trkpt><trkpt lat="40.3359227" lon="18.1065551"><ele>27.0</ele><time>2026-04-04T17:25:51.187Z</time></trkpt><trkpt lat="40.3359894" lon="18.1067237"><ele>27.0</ele><time>2026-04-04T17:25:52.188Z</time></trkpt><trkpt lat="40.3360565" lon="18.1068745"><ele>27.0</ele><time>2026-04-04T17:25:53.187Z</time></trkpt><trkpt lat="40.3361182" lon="18.1070215"><ele>27.0</ele><time>2026-04-04T17:25:54.187Z</time></trkpt><trkpt lat="40.3361708" lon="18.1071552"><ele>27.000000000000004</ele><time>2026-04-04T17:25:55.187Z</time></trkpt><trkpt lat="40.3362162" lon="18.1072844"><ele>27.000000000000004</ele><time>2026-04-04T17:25:56.187Z</time></trkpt><trkpt lat="40.3362568" lon="18.1073685"><ele>27.0</ele><time>2026-04-04T17:25:57.187Z</time></trkpt><trkpt lat="40.3362954" lon="18.1074904"><ele>27.0</ele><time>2026-04-04T17:25:59.187Z</time></trkpt><trkpt lat="40.3363166" lon="18.1075835"><ele>26.5</ele><time>2026-04-04T17:26:07.186Z</time></trkpt><trkpt lat="40.3363757" lon="18.10774"><ele>26.0</ele><time>2026-04-04T17:26:09.187Z</time></trkpt><trkpt lat="40.3364229" lon="18.1078645"><ele>25.5</ele><time>2026-04-04T17:26:10.187Z</time></trkpt><trkpt lat="40.3364727" lon="18.1080257"><ele>25.0</ele><time>2026-04-04T17:26:11.187Z</time></trkpt><trkpt lat="40.3365276" lon="18.1082458"><ele>24.333333333333336</ele><time>2026-04-04T17:26:12.187Z</time></trkpt><trkpt lat="40.336575" lon="18.108486"><ele>23.666666666666668</ele><time>2026-04-04T17:26:13.188Z</time></trkpt><trkpt lat="40.3366238" lon="18.108765"><ele>23.0</ele><time>2026-04-04T17:26:14.185Z</time></trkpt><trkpt lat="40.3366659" lon="18.1090571"><ele>23.0</ele><time>2026-04-04T17:26:15.187Z</time></trkpt><trkpt lat="40.336708" lon="18.109376"><ele>23.0</ele><time>2026-04-04T17:26:16.185Z</time></trkpt><trkpt lat="40.3367534" lon="18.1097199"><ele>22.5</ele><time>2026-04-04T17:26:17.188Z</time></trkpt><trkpt lat="40.3368071" lon="18.1100723"><ele>22.0</ele><time>2026-04-04T17:26:18.185Z</time></trkpt><trkpt lat="40.3368611" lon="18.1104361"><ele>22.5</ele><time>2026-04-04T17:26:19.188Z</time></trkpt><trkpt lat="40.3369148" lon="18.1108102"><ele>23.0</ele><time>2026-04-04T17:26:20.187Z</time></trkpt><trkpt lat="40.3369697" lon="18.111183"><ele>23.0</ele><time>2026-04-04T17:26:21.187Z</time></trkpt><trkpt lat="40.3370278" lon="18.1115611"><ele>23.0</ele><time>2026-04-04T17:26:22.186Z</time></trkpt><trkpt lat="40.337081" lon="18.1119412"><ele>23.0</ele><time>2026-04-04T17:26:23.187Z</time></trkpt><trkpt lat="40.3371239" lon="18.1123441"><ele>23.0</ele><time>2026-04-04T17:26:24.186Z</time></trkpt><trkpt lat="40.3371665" lon="18.1127414"><ele>23.0</ele><time>2026-04-04T17:26:25.186Z</time></trkpt><trkpt lat="40.3372037" lon="18.1131254"><ele>23.0</ele><time>2026-04-04T17:26:26.187Z</time></trkpt><trkpt lat="40.3372453" lon="18.1135076"><ele>23.0</ele><time>2026-04-04T17:26:27.186Z</time></trkpt><trkpt lat="40.3372935" lon="18.1138807"><ele>23.0</ele><time>2026-04-04T17:26:28.186Z</time></trkpt><trkpt lat="40.3373409" lon="18.1142542"><ele>23.0</ele><time>2026-04-04T17:26:29.185Z</time></trkpt><trkpt lat="40.3373823" lon="18.1146113"><ele>23.0</ele><time>2026-04-04T17:26:30.187Z</time></trkpt><trkpt lat="40.3374339" lon="18.1149744"><ele>23.0</ele><time>2026-04-04T17:26:31.186Z</time></trkpt><trkpt lat="40.337484" lon="18.1153466"><ele>23.0</ele><time>2026-04-04T17:26:32.186Z</time></trkpt><trkpt lat="40.3375395" lon="18.1157259"><ele>22.0</ele><time>2026-04-04T17:26:33.187Z</time></trkpt><trkpt lat="40.3375916" lon="18.1161253"><ele>21.0</ele><time>2026-04-04T17:26:34.186Z</time></trkpt><trkpt lat="40.3376407" lon="18.1165402"><ele>21.5</ele><time>2026-04-04T17:26:35.187Z</time></trkpt><trkpt lat="40.337694" lon="18.1169586"><ele>22.0</ele><time>2026-04-04T17:26:36.187Z</time></trkpt><trkpt lat="40.3377503" lon="18.1173882"><ele>21.5</ele><time>2026-04-04T17:26:37.185Z</time></trkpt><trkpt lat="40.3378073" lon="18.1178172"><ele>21.0</ele><time>2026-04-04T17:26:38.187Z</time></trkpt><trkpt lat="40.3378608" lon="18.118242"><ele>19.5</ele><time>2026-04-04T17:26:39.186Z</time></trkpt><trkpt lat="40.3379106" lon="18.1186614"><ele>18.0</ele><time>2026-04-04T17:26:40.187Z</time></trkpt><trkpt lat="40.3379572" lon="18.1190696"><ele>18.0</ele><time>2026-04-04T17:26:41.187Z</time></trkpt><trkpt lat="40.3380044" lon="18.1194731"><ele>18.0</ele><time>2026-04-04T17:26:42.187Z</time></trkpt><trkpt lat="40.338053" lon="18.1198681"><ele>19.5</ele><time>2026-04-04T17:26:43.187Z</time></trkpt><trkpt lat="40.338098" lon="18.120261"><ele>21.0</ele><time>2026-04-04T17:26:44.188Z</time></trkpt><trkpt lat="40.3381422" lon="18.1206479"><ele>23.0</ele><time>2026-04-04T17:26:45.187Z</time></trkpt><trkpt lat="40.3381933" lon="18.1210441"><ele>25.0</ele><time>2026-04-04T17:26:46.187Z</time></trkpt><trkpt lat="40.3382454" lon="18.1214389"><ele>26.0</ele><time>2026-04-04T17:26:47.186Z</time></trkpt><trkpt lat="40.3382953" lon="18.1218239"><ele>27.0</ele><time>2026-04-04T17:26:48.186Z</time></trkpt><trkpt lat="40.3383461" lon="18.1222094"><ele>26.5</ele><time>2026-04-04T17:26:49.188Z</time></trkpt><trkpt lat="40.3384011" lon="18.1225955"><ele>26.0</ele><time>2026-04-04T17:26:50.185Z</time></trkpt><trkpt lat="40.3384511" lon="18.1229835"><ele>25.5</ele><time>2026-04-04T17:26:51.185Z</time></trkpt><trkpt lat="40.3385036" lon="18.1233738"><ele>25.0</ele><time>2026-04-04T17:26:52.186Z</time></trkpt><trkpt lat="40.3385563" lon="18.123762"><ele>23.5</ele><time>2026-04-04T17:26:53.187Z</time></trkpt><trkpt lat="40.3386042" lon="18.1241465"><ele>22.0</ele><time>2026-04-04T17:26:54.187Z</time></trkpt><trkpt lat="40.3386582" lon="18.1245267"><ele>21.5</ele><time>2026-04-04T17:26:55.185Z</time></trkpt><trkpt lat="40.3387058" lon="18.1249013"><ele>21.0</ele><time>2026-04-04T17:26:56.185Z</time></trkpt><trkpt lat="40.3387512" lon="18.1252746"><ele>21.0</ele><time>2026-04-04T17:26:57.186Z</time></trkpt><trkpt lat="40.3387942" lon="18.1256348"><ele>21.0</ele><time>2026-04-04T17:26:58.188Z</time></trkpt><trkpt lat="40.338838" lon="18.1259851"><ele>23.5</ele><time>2026-04-04T17:26:59.187Z</time></trkpt><trkpt lat="40.3388874" lon="18.1263174"><ele>26.0</ele><time>2026-04-04T17:27:00.185Z</time></trkpt><trkpt lat="40.3389327" lon="18.1266406"><ele>26.0</ele><time>2026-04-04T17:27:01.185Z</time></trkpt><trkpt lat="40.3389815" lon="18.1269422"><ele>26.0</ele><time>2026-04-04T17:27:02.186Z</time></trkpt><trkpt lat="40.3390189" lon="18.1272253"><ele>26.0</ele><time>2026-04-04T17:27:03.186Z</time></trkpt><trkpt lat="40.3390465" lon="18.1274923"><ele>26.0</ele><time>2026-04-04T17:27:04.186Z</time></trkpt><trkpt lat="40.3390738" lon="18.1277388"><ele>26.0</ele><time>2026-04-04T17:27:05.186Z</time></trkpt><trkpt lat="40.3391016" lon="18.1279736"><ele>26.0</ele><time>2026-04-04T17:27:06.188Z</time></trkpt><trkpt lat="40.3391324" lon="18.128187"><ele>26.0</ele><time>2026-04-04T17:27:07.187Z</time></trkpt><trkpt lat="40.3391649" lon="18.1283844"><ele>26.0</ele><time>2026-04-04T17:27:08.187Z</time></trkpt><trkpt lat="40.3391868" lon="18.1285583"><ele>25.6</ele><time>2026-04-04T17:27:09.188Z</time></trkpt><trkpt lat="40.3392032" lon="18.1287071"><ele>25.200000000000003</ele><time>2026-04-04T17:27:10.187Z</time></trkpt><trkpt lat="40.3392256" lon="18.128839"><ele>24.799999999999997</ele><time>2026-04-04T17:27:11.186Z</time></trkpt><trkpt lat="40.3392334" lon="18.1289309"><ele>24.4</ele><time>2026-04-04T17:27:12.188Z</time></trkpt><trkpt lat="40.3392414" lon="18.1290727"><ele>24.0</ele><time>2026-04-04T17:27:14.187Z</time></trkpt><trkpt lat="40.3392362" lon="18.129171"><ele>24.0</ele><time>2026-04-04T17:27:16.185Z</time></trkpt><trkpt lat="40.3392081" lon="18.129259"><ele>24.0</ele><time>2026-04-04T17:27:19.186Z</time></trkpt><trkpt lat="40.3392227" lon="18.1293638"><ele>24.0</ele><time>2026-04-04T17:27:26.186Z</time></trkpt><trkpt lat="40.3392403" lon="18.1295632"><ele>24.0</ele><time>2026-04-04T17:27:28.185Z</time></trkpt><trkpt lat="40.3392662" lon="18.1297294"><ele>24.0</ele><time>2026-04-04T17:27:29.186Z</time></trkpt><trkpt lat="40.3393065" lon="18.1299442"><ele>24.0</ele><time>2026-04-04T17:27:30.188Z</time></trkpt><trkpt lat="40.3393452" lon="18.1302077"><ele>24.0</ele><time>2026-04-04T17:27:31.188Z</time></trkpt><trkpt lat="40.3393817" lon="18.1305185"><ele>24.0</ele><time>2026-04-04T17:27:32.186Z</time></trkpt><trkpt lat="40.3394192" lon="18.1308498"><ele>24.0</ele><time>2026-04-04T17:27:33.186Z</time></trkpt><trkpt lat="40.3394573" lon="18.1311706"><ele>24.0</ele><time>2026-04-04T17:27:34.185Z</time></trkpt><trkpt lat="40.3394968" lon="18.1314722"><ele>23.5</ele><time>2026-04-04T17:27:35.187Z</time></trkpt><trkpt lat="40.3395346" lon="18.1317735"><ele>23.0</ele><time>2026-04-04T17:27:36.187Z</time></trkpt><trkpt lat="40.3395726" lon="18.1320647"><ele>23.0</ele><time>2026-04-04T17:27:37.187Z</time></trkpt><trkpt lat="40.3396146" lon="18.1323486"><ele>23.0</ele><time>2026-04-04T17:27:38.187Z</time></trkpt><trkpt lat="40.3396573" lon="18.1326248"><ele>23.0</ele><time>2026-04-04T17:27:39.186Z</time></trkpt><trkpt lat="40.3396942" lon="18.1328998"><ele>24.0</ele><time>2026-04-04T17:27:40.187Z</time></trkpt><trkpt lat="40.339732" lon="18.1331638"><ele>25.0</ele><time>2026-04-04T17:27:41.187Z</time></trkpt><trkpt lat="40.3397723" lon="18.1334168"><ele>26.0</ele><time>2026-04-04T17:27:42.187Z</time></trkpt><trkpt lat="40.3397993" lon="18.1336537"><ele>26.0</ele><time>2026-04-04T17:27:43.188Z</time></trkpt><trkpt lat="40.3398233" lon="18.1338796"><ele>26.0</ele><time>2026-04-04T17:27:44.188Z</time></trkpt><trkpt lat="40.3398523" lon="18.1340816"><ele>26.0</ele><time>2026-04-04T17:27:45.186Z</time></trkpt><trkpt lat="40.3398771" lon="18.134266"><ele>26.0</ele><time>2026-04-04T17:27:46.187Z</time></trkpt><trkpt lat="40.3398989" lon="18.1344275"><ele>26.0</ele><time>2026-04-04T17:27:47.187Z</time></trkpt><trkpt lat="40.3399168" lon="18.1345692"><ele>26.0</ele><time>2026-04-04T17:27:48.186Z</time></trkpt><trkpt lat="40.3399328" lon="18.1346941"><ele>26.0</ele><time>2026-04-04T17:27:49.187Z</time></trkpt><trkpt lat="40.3399451" lon="18.1348154"><ele>26.0</ele><time>2026-04-04T17:27:50.186Z</time></trkpt><trkpt lat="40.3399543" lon="18.1349291"><ele>26.0</ele><time>2026-04-04T17:27:51.186Z</time></trkpt><trkpt lat="40.3399668" lon="18.1350284"><ele>26.0</ele><time>2026-04-04T17:27:52.185Z</time></trkpt><trkpt lat="40.3399783" lon="18.1351198"><ele>26.0</ele><time>2026-04-04T17:27:53.187Z</time></trkpt><trkpt lat="40.3399868" lon="18.1352103"><ele>26.0</ele><time>2026-04-04T17:27:54.185Z</time></trkpt><trkpt lat="40.3400067" lon="18.1353713"><ele>26.0</ele><time>2026-04-04T17:27:56.187Z</time></trkpt><trkpt lat="40.3400274" lon="18.1355232"><ele>26.0</ele><time>2026-04-04T17:27:58.187Z</time></trkpt><trkpt lat="40.3399908" lon="18.135639"><ele>26.0</ele><time>2026-04-04T17:28:00.188Z</time></trkpt><trkpt lat="40.339914" lon="18.1356972"><ele>26.0</ele><time>2026-04-04T17:28:02.187Z</time></trkpt><trkpt lat="40.3398197" lon="18.135659"><ele>26.0</ele><time>2026-04-04T17:28:04.186Z</time></trkpt><trkpt lat="40.3397617" lon="18.1356105"><ele>26.0</ele><time>2026-04-04T17:28:05.186Z</time></trkpt><trkpt lat="40.3396905" lon="18.1355179"><ele>25.666666666666664</ele><time>2026-04-04T17:28:06.186Z</time></trkpt><trkpt lat="40.3396184" lon="18.1354033"><ele>25.333333333333336</ele><time>2026-04-04T17:28:07.187Z</time></trkpt><trkpt lat="40.339526" lon="18.1352196"><ele>25.0</ele><time>2026-04-04T17:28:08.186Z</time></trkpt><trkpt lat="40.3394305" lon="18.1350344"><ele>26.0</ele><time>2026-04-04T17:28:09.187Z</time></trkpt><trkpt lat="40.3393368" lon="18.1348416"><ele>27.0</ele><time>2026-04-04T17:28:10.186Z</time></trkpt><trkpt lat="40.3392388" lon="18.1346502"><ele>28.0</ele><time>2026-04-04T17:28:11.187Z</time></trkpt><trkpt lat="40.3391343" lon="18.1344648"><ele>28.0</ele><time>2026-04-04T17:28:12.186Z</time></trkpt><trkpt lat="40.339038" lon="18.1342807"><ele>28.0</ele><time>2026-04-04T17:28:13.186Z</time></trkpt><trkpt lat="40.338942" lon="18.1341017"><ele>28.0</ele><time>2026-04-04T17:28:14.187Z</time></trkpt><trkpt lat="40.338846" lon="18.1339331"><ele>26.333333333333336</ele><time>2026-04-04T17:28:15.186Z</time></trkpt><trkpt lat="40.33874" lon="18.1337848"><ele>24.666666666666668</ele><time>2026-04-04T17:28:16.188Z</time></trkpt><trkpt lat="40.3386297" lon="18.1336534"><ele>23.0</ele><time>2026-04-04T17:28:17.187Z</time></trkpt><trkpt lat="40.3385161" lon="18.1335262"><ele>23.0</ele><time>2026-04-04T17:28:18.188Z</time></trkpt><trkpt lat="40.3384173" lon="18.1333801"><ele>23.0</ele><time>2026-04-04T17:28:19.186Z</time></trkpt><trkpt lat="40.3383307" lon="18.1332046"><ele>23.0</ele><time>2026-04-04T17:28:20.186Z</time></trkpt><trkpt lat="40.3382559" lon="18.1330116"><ele>22.666666666666668</ele><time>2026-04-04T17:28:21.186Z</time></trkpt><trkpt lat="40.3381712" lon="18.1328067"><ele>22.333333333333332</ele><time>2026-04-04T17:28:22.187Z</time></trkpt><trkpt lat="40.3380775" lon="18.1325957"><ele>22.0</ele><time>2026-04-04T17:28:23.186Z</time></trkpt><trkpt lat="40.337966" lon="18.1323804"><ele>22.0</ele><time>2026-04-04T17:28:24.188Z</time></trkpt><trkpt lat="40.3378461" lon="18.132165"><ele>22.0</ele><time>2026-04-04T17:28:25.187Z</time></trkpt><trkpt lat="40.3377176" lon="18.1319476"><ele>22.0</ele><time>2026-04-04T17:28:26.186Z</time></trkpt><trkpt lat="40.3375895" lon="18.1317229"><ele>21.666666666666664</ele><time>2026-04-04T17:28:27.186Z</time></trkpt><trkpt lat="40.3374572" lon="18.1314886"><ele>21.333333333333332</ele><time>2026-04-04T17:28:28.188Z</time></trkpt><trkpt lat="40.3373226" lon="18.1312518"><ele>21.0</ele><time>2026-04-04T17:28:29.187Z</time></trkpt><trkpt lat="40.3371925" lon="18.1310108"><ele>20.5</ele><time>2026-04-04T17:28:30.186Z</time></trkpt><trkpt lat="40.3370577" lon="18.1307658"><ele>20.0</ele><time>2026-04-04T17:28:31.187Z</time></trkpt><trkpt lat="40.336917" lon="18.130511"><ele>21.5</ele><time>2026-04-04T17:28:32.187Z</time></trkpt><trkpt lat="40.3367718" lon="18.130248"><ele>23.0</ele><time>2026-04-04T17:28:33.187Z</time></trkpt><trkpt lat="40.3366139" lon="18.1299582"><ele>22.5</ele><time>2026-04-04T17:28:34.185Z</time></trkpt><trkpt lat="40.3364475" lon="18.1296591"><ele>22.0</ele><time>2026-04-04T17:28:35.186Z</time></trkpt><trkpt lat="40.3362713" lon="18.129346"><ele>19.5</ele><time>2026-04-04T17:28:36.186Z</time></trkpt><trkpt lat="40.3360908" lon="18.1290238"><ele>17.0</ele><time>2026-04-04T17:28:37.186Z</time></trkpt><trkpt lat="40.3358969" lon="18.1286745"><ele>17.0</ele><time>2026-04-04T17:28:38.188Z</time></trkpt><trkpt lat="40.3357046" lon="18.1283359"><ele>17.0</ele><time>2026-04-04T17:28:39.187Z</time></trkpt><trkpt lat="40.3355156" lon="18.1280026"><ele>19.0</ele><time>2026-04-04T17:28:40.187Z</time></trkpt><trkpt lat="40.3353243" lon="18.1276726"><ele>21.0</ele><time>2026-04-04T17:28:41.187Z</time></trkpt><trkpt lat="40.335145" lon="18.1273458"><ele>22.0</ele><time>2026-04-04T17:28:42.186Z</time></trkpt><trkpt lat="40.3349664" lon="18.1270165"><ele>23.0</ele><time>2026-04-04T17:28:43.186Z</time></trkpt><trkpt lat="40.3347944" lon="18.1267057"><ele>21.5</ele><time>2026-04-04T17:28:44.186Z</time></trkpt><trkpt lat="40.3346268" lon="18.1264081"><ele>20.0</ele><time>2026-04-04T17:28:45.185Z</time></trkpt><trkpt lat="40.3344723" lon="18.1261401"><ele>20.0</ele><time>2026-04-04T17:28:46.187Z</time></trkpt><trkpt lat="40.3343361" lon="18.1258951"><ele>20.0</ele><time>2026-04-04T17:28:47.188Z</time></trkpt><trkpt lat="40.3341991" lon="18.1256611"><ele>20.333333333333336</ele><time>2026-04-04T17:28:48.187Z</time></trkpt><trkpt lat="40.3340734" lon="18.125444"><ele>20.666666666666668</ele><time>2026-04-04T17:28:49.188Z</time></trkpt><trkpt lat="40.3339603" lon="18.1252388"><ele>21.0</ele><time>2026-04-04T17:28:50.186Z</time></trkpt><trkpt lat="40.3339089" lon="18.125078"><ele>21.0</ele><time>2026-04-04T17:28:51.187Z</time></trkpt><trkpt lat="40.3338697" lon="18.1249149"><ele>21.0</ele><time>2026-04-04T17:28:52.187Z</time></trkpt><trkpt lat="40.3338766" lon="18.1247478"><ele>21.0</ele><time>2026-04-04T17:28:53.186Z</time></trkpt><trkpt lat="40.3338859" lon="18.1245859"><ele>21.0</ele><time>2026-04-04T17:28:54.188Z</time></trkpt><trkpt lat="40.333891" lon="18.1244242"><ele>21.25</ele><time>2026-04-04T17:28:55.186Z</time></trkpt><trkpt lat="40.3338638" lon="18.1242758"><ele>21.5</ele><time>2026-04-04T17:28:56.186Z</time></trkpt><trkpt lat="40.3338028" lon="18.124148"><ele>21.75</ele><time>2026-04-04T17:28:57.186Z</time></trkpt><trkpt lat="40.3337198" lon="18.1240368"><ele>22.0</ele><time>2026-04-04T17:28:58.187Z</time></trkpt><trkpt lat="40.3336076" lon="18.1239741"><ele>22.0</ele><time>2026-04-04T17:28:59.186Z</time></trkpt><trkpt lat="40.3334948" lon="18.1239598"><ele>22.0</ele><time>2026-04-04T17:29:00.187Z</time></trkpt><trkpt lat="40.3333868" lon="18.1239989"><ele>22.0</ele><time>2026-04-04T17:29:01.187Z</time></trkpt><trkpt lat="40.3332977" lon="18.1240903"><ele>22.0</ele><time>2026-04-04T17:29:02.186Z</time></trkpt><trkpt lat="40.3332311" lon="18.124221"><ele>22.0</ele><time>2026-04-04T17:29:03.187Z</time></trkpt><trkpt lat="40.333208" lon="18.1243747"><ele>22.0</ele><time>2026-04-04T17:29:04.186Z</time></trkpt><trkpt lat="40.3332208" lon="18.1245412"><ele>22.0</ele><time>2026-04-04T17:29:05.185Z</time></trkpt><trkpt lat="40.3332681" lon="18.1247229"><ele>22.0</ele><time>2026-04-04T17:29:06.187Z</time></trkpt><trkpt lat="40.3333184" lon="18.1249309"><ele>21.333333333333332</ele><time>2026-04-04T17:29:07.187Z</time></trkpt><trkpt lat="40.3333555" lon="18.1251631"><ele>20.666666666666668</ele><time>2026-04-04T17:29:08.186Z</time></trkpt><trkpt lat="40.3333964" lon="18.1254086"><ele>20.0</ele><time>2026-04-04T17:29:09.187Z</time></trkpt><trkpt lat="40.3334567" lon="18.1256665"><ele>19.333333333333336</ele><time>2026-04-04T17:29:10.185Z</time></trkpt><trkpt lat="40.3335344" lon="18.1259343"><ele>18.666666666666668</ele><time>2026-04-04T17:29:11.187Z</time></trkpt><trkpt lat="40.3336105" lon="18.1261931"><ele>18.0</ele><time>2026-04-04T17:29:12.186Z</time></trkpt><trkpt lat="40.3337118" lon="18.1264528"><ele>18.0</ele><time>2026-04-04T17:29:13.186Z</time></trkpt><trkpt lat="40.3338083" lon="18.1267159"><ele>18.0</ele><time>2026-04-04T17:29:14.187Z</time></trkpt><trkpt lat="40.333906" lon="18.126974"><ele>18.0</ele><time>2026-04-04T17:29:15.187Z</time></trkpt><trkpt lat="40.3340003" lon="18.1272402"><ele>18.0</ele><time>2026-04-04T17:29:16.187Z</time></trkpt><trkpt lat="40.3340879" lon="18.1274881"><ele>18.0</ele><time>2026-04-04T17:29:17.187Z</time></trkpt><trkpt lat="40.3341684" lon="18.1277331"><ele>18.0</ele><time>2026-04-04T17:29:18.186Z</time></trkpt><trkpt lat="40.3342457" lon="18.1279615"><ele>18.0</ele><time>2026-04-04T17:29:19.186Z</time></trkpt><trkpt lat="40.3343141" lon="18.1281702"><ele>18.0</ele><time>2026-04-04T17:29:20.186Z</time></trkpt><trkpt lat="40.3343777" lon="18.1283692"><ele>18.0</ele><time>2026-04-04T17:29:21.186Z</time></trkpt><trkpt lat="40.3344372" lon="18.1285571"><ele>17.75</ele><time>2026-04-04T17:29:22.186Z</time></trkpt><trkpt lat="40.3344955" lon="18.1287404"><ele>17.5</ele><time>2026-04-04T17:29:23.187Z</time></trkpt><trkpt lat="40.3345461" lon="18.1288941"><ele>17.25</ele><time>2026-04-04T17:29:24.187Z</time></trkpt><trkpt lat="40.3345883" lon="18.1290231"><ele>17.0</ele><time>2026-04-04T17:29:25.187Z</time></trkpt><trkpt lat="40.3346221" lon="18.1291274"><ele>16.5</ele><time>2026-04-04T17:29:26.186Z</time></trkpt><trkpt lat="40.3346489" lon="18.1292316"><ele>16.0</ele><time>2026-04-04T17:29:27.186Z</time></trkpt><trkpt lat="40.3346592" lon="18.1293363"><ele>15.5</ele><time>2026-04-04T17:29:28.187Z</time></trkpt><trkpt lat="40.3346595" lon="18.1294541"><ele>15.0</ele><time>2026-04-04T17:29:29.188Z</time></trkpt><trkpt lat="40.3346454" lon="18.1295705"><ele>14.500000000000002</ele><time>2026-04-04T17:29:30.187Z</time></trkpt><trkpt lat="40.334618" lon="18.1296843"><ele>14.0</ele><time>2026-04-04T17:29:31.187Z</time></trkpt><trkpt lat="40.3345682" lon="18.1298068"><ele>14.333333333333334</ele><time>2026-04-04T17:29:32.187Z</time></trkpt><trkpt lat="40.334493" lon="18.1299518"><ele>14.666666666666668</ele><time>2026-04-04T17:29:33.188Z</time></trkpt><trkpt lat="40.3343846" lon="18.1301267"><ele>15.0</ele><time>2026-04-04T17:29:34.187Z</time></trkpt><trkpt lat="40.3342511" lon="18.1303307"><ele>15.0</ele><time>2026-04-04T17:29:35.186Z</time></trkpt><trkpt lat="40.3340987" lon="18.1305587"><ele>15.0</ele><time>2026-04-04T17:29:36.188Z</time></trkpt><trkpt lat="40.3339231" lon="18.1308164"><ele>16.0</ele><time>2026-04-04T17:29:37.188Z</time></trkpt><trkpt lat="40.3337347" lon="18.1310709"><ele>17.0</ele><time>2026-04-04T17:29:38.187Z</time></trkpt><trkpt lat="40.3335532" lon="18.1313065"><ele>17.0</ele><time>2026-04-04T17:29:39.185Z</time></trkpt><trkpt lat="40.3333855" lon="18.1315382"><ele>17.0</ele><time>2026-04-04T17:29:40.187Z</time></trkpt><trkpt lat="40.3332243" lon="18.1317529"><ele>17.666666666666668</ele><time>2026-04-04T17:29:41.186Z</time></trkpt><trkpt lat="40.3330923" lon="18.1319427"><ele>18.333333333333332</ele><time>2026-04-04T17:29:42.186Z</time></trkpt><trkpt lat="40.3329866" lon="18.1321115"><ele>19.0</ele><time>2026-04-04T17:29:43.187Z</time></trkpt><trkpt lat="40.3329135" lon="18.1322809"><ele>19.75</ele><time>2026-04-04T17:29:44.186Z</time></trkpt><trkpt lat="40.3328785" lon="18.1324671"><ele>20.5</ele><time>2026-04-04T17:29:45.185Z</time></trkpt><trkpt lat="40.332886" lon="18.1326449"><ele>21.25</ele><time>2026-04-04T17:29:46.186Z</time></trkpt><trkpt lat="40.3329366" lon="18.1328048"><ele>22.0</ele><time>2026-04-04T17:29:47.187Z</time></trkpt><trkpt lat="40.3330226" lon="18.1329445"><ele>21.5</ele><time>2026-04-04T17:29:48.186Z</time></trkpt><trkpt lat="40.3331138" lon="18.1330773"><ele>21.0</ele><time>2026-04-04T17:29:49.187Z</time></trkpt><trkpt lat="40.3331824" lon="18.1332244"><ele>20.5</ele><time>2026-04-04T17:29:50.187Z</time></trkpt><trkpt lat="40.3332104" lon="18.1333925"><ele>20.0</ele><time>2026-04-04T17:29:51.187Z</time></trkpt><trkpt lat="40.3331939" lon="18.1335566"><ele>20.0</ele><time>2026-04-04T17:29:52.186Z</time></trkpt><trkpt lat="40.3331379" lon="18.133725"><ele>20.0</ele><time>2026-04-04T17:29:53.186Z</time></trkpt><trkpt lat="40.333056" lon="18.1339001"><ele>20.0</ele><time>2026-04-04T17:29:54.187Z</time></trkpt><trkpt lat="40.3329616" lon="18.1340979"><ele>20.333333333333336</ele><time>2026-04-04T17:29:55.185Z</time></trkpt><trkpt lat="40.3328633" lon="18.1343141"><ele>20.666666666666668</ele><time>2026-04-04T17:29:56.186Z</time></trkpt><trkpt lat="40.3327369" lon="18.1345947"><ele>21.0</ele><time>2026-04-04T17:29:57.187Z</time></trkpt><trkpt lat="40.3326117" lon="18.1348788"><ele>19.0</ele><time>2026-04-04T17:29:58.188Z</time></trkpt><trkpt lat="40.3324545" lon="18.1351958"><ele>17.0</ele><time>2026-04-04T17:29:59.186Z</time></trkpt><trkpt lat="40.3322994" lon="18.1355197"><ele>18.5</ele><time>2026-04-04T17:30:00.186Z</time></trkpt><trkpt lat="40.3321354" lon="18.1358527"><ele>20.0</ele><time>2026-04-04T17:30:01.186Z</time></trkpt><trkpt lat="40.3319732" lon="18.1361839"><ele>20.0</ele><time>2026-04-04T17:30:02.188Z</time></trkpt><trkpt lat="40.3318101" lon="18.136515"><ele>20.0</ele><time>2026-04-04T17:30:03.187Z</time></trkpt><trkpt lat="40.331656" lon="18.1368505"><ele>20.5</ele><time>2026-04-04T17:30:04.186Z</time></trkpt><trkpt lat="40.3314997" lon="18.1371815"><ele>21.0</ele><time>2026-04-04T17:30:05.186Z</time></trkpt><trkpt lat="40.3313423" lon="18.1375123"><ele>21.0</ele><time>2026-04-04T17:30:06.186Z</time></trkpt><trkpt lat="40.3311802" lon="18.1378349"><ele>21.0</ele><time>2026-04-04T17:30:07.187Z</time></trkpt><trkpt lat="40.3310162" lon="18.1381626"><ele>22.0</ele><time>2026-04-04T17:30:08.188Z</time></trkpt><trkpt lat="40.3308517" lon="18.1384844"><ele>23.0</ele><time>2026-04-04T17:30:09.186Z</time></trkpt><trkpt lat="40.3306911" lon="18.1388103"><ele>23.5</ele><time>2026-04-04T17:30:10.187Z</time></trkpt><trkpt lat="40.3305239" lon="18.1391291"><ele>24.0</ele><time>2026-04-04T17:30:11.187Z</time></trkpt><trkpt lat="40.330363" lon="18.1394473"><ele>24.0</ele><time>2026-04-04T17:30:12.188Z</time></trkpt><trkpt lat="40.330201" lon="18.1397658"><ele>24.0</ele><time>2026-04-04T17:30:13.188Z</time></trkpt><trkpt lat="40.3300365" lon="18.140065"><ele>23.5</ele><time>2026-04-04T17:30:14.187Z</time></trkpt><trkpt lat="40.3298764" lon="18.1403626"><ele>23.0</ele><time>2026-04-04T17:30:15.187Z</time></trkpt><trkpt lat="40.3297025" lon="18.1406342"><ele>24.0</ele><time>2026-04-04T17:30:16.187Z</time></trkpt><trkpt lat="40.3295243" lon="18.1408928"><ele>25.0</ele><time>2026-04-04T17:30:17.186Z</time></trkpt><trkpt lat="40.3293421" lon="18.1411465"><ele>25.0</ele><time>2026-04-04T17:30:18.187Z</time></trkpt><trkpt lat="40.3291467" lon="18.1413721"><ele>25.0</ele><time>2026-04-04T17:30:19.187Z</time></trkpt><trkpt lat="40.3289395" lon="18.1415854"><ele>25.0</ele><time>2026-04-04T17:30:20.188Z</time></trkpt><trkpt lat="40.3287361" lon="18.1417991"><ele>25.0</ele><time>2026-04-04T17:30:21.187Z</time></trkpt><trkpt lat="40.3285387" lon="18.14202"><ele>25.0</ele><time>2026-04-04T17:30:22.186Z</time></trkpt><trkpt lat="40.3283437" lon="18.1422406"><ele>25.0</ele><time>2026-04-04T17:30:23.186Z</time></trkpt><trkpt lat="40.3281623" lon="18.1424675"><ele>24.0</ele><time>2026-04-04T17:30:24.186Z</time></trkpt><trkpt lat="40.3279799" lon="18.1427024"><ele>23.0</ele><time>2026-04-04T17:30:25.187Z</time></trkpt><trkpt lat="40.327804" lon="18.1429477"><ele>23.0</ele><time>2026-04-04T17:30:26.188Z</time></trkpt><trkpt lat="40.3276395" lon="18.1432056"><ele>23.0</ele><time>2026-04-04T17:30:27.186Z</time></trkpt><trkpt lat="40.3274806" lon="18.1434692"><ele>23.0</ele><time>2026-04-04T17:30:28.186Z</time></trkpt><trkpt lat="40.3273278" lon="18.14374"><ele>23.0</ele><time>2026-04-04T17:30:29.187Z</time></trkpt><trkpt lat="40.3271823" lon="18.1440136"><ele>22.5</ele><time>2026-04-04T17:30:30.187Z</time></trkpt><trkpt lat="40.3270462" lon="18.1442987"><ele>22.0</ele><time>2026-04-04T17:30:31.187Z</time></trkpt><trkpt lat="40.326927" lon="18.1445879"><ele>23.0</ele><time>2026-04-04T17:30:32.187Z</time></trkpt><trkpt lat="40.3268134" lon="18.1448834"><ele>24.0</ele><time>2026-04-04T17:30:33.186Z</time></trkpt><trkpt lat="40.3267108" lon="18.145181"><ele>24.0</ele><time>2026-04-04T17:30:34.188Z</time></trkpt><trkpt lat="40.326611" lon="18.1454771"><ele>24.0</ele><time>2026-04-04T17:30:35.186Z</time></trkpt><trkpt lat="40.3265305" lon="18.1457892"><ele>24.5</ele><time>2026-04-04T17:30:36.186Z</time></trkpt><trkpt lat="40.3264554" lon="18.1461049"><ele>25.0</ele><time>2026-04-04T17:30:37.188Z</time></trkpt><trkpt lat="40.3263947" lon="18.1464207"><ele>26.0</ele><time>2026-04-04T17:30:38.188Z</time></trkpt><trkpt lat="40.3263435" lon="18.146741"><ele>27.0</ele><time>2026-04-04T17:30:39.187Z</time></trkpt><trkpt lat="40.3262991" lon="18.1470684"><ele>29.0</ele><time>2026-04-04T17:30:40.187Z</time></trkpt><trkpt lat="40.3262602" lon="18.1473983"><ele>31.0</ele><time>2026-04-04T17:30:41.188Z</time></trkpt><trkpt lat="40.3262307" lon="18.1477436"><ele>31.0</ele><time>2026-04-04T17:30:42.187Z</time></trkpt><trkpt lat="40.3262126" lon="18.1481024"><ele>31.0</ele><time>2026-04-04T17:30:43.187Z</time></trkpt><trkpt lat="40.3262023" lon="18.1484804"><ele>30.5</ele><time>2026-04-04T17:30:44.187Z</time></trkpt><trkpt lat="40.3261975" lon="18.1488788"><ele>30.0</ele><time>2026-04-04T17:30:45.187Z</time></trkpt><trkpt lat="40.3261938" lon="18.1492953"><ele>30.0</ele><time>2026-04-04T17:30:46.187Z</time></trkpt><trkpt lat="40.3261885" lon="18.1497231"><ele>30.0</ele><time>2026-04-04T17:30:47.188Z</time></trkpt><trkpt lat="40.3261844" lon="18.1501624"><ele>29.5</ele><time>2026-04-04T17:30:48.187Z</time></trkpt><trkpt lat="40.3261807" lon="18.1506175"><ele>29.0</ele><time>2026-04-04T17:30:49.187Z</time></trkpt><trkpt lat="40.3261772" lon="18.1510734"><ele>30.0</ele><time>2026-04-04T17:30:50.187Z</time></trkpt><trkpt lat="40.3261737" lon="18.1515218"><ele>31.0</ele><time>2026-04-04T17:30:51.188Z</time></trkpt><trkpt lat="40.3261713" lon="18.1519686"><ele>30.0</ele><time>2026-04-04T17:30:52.186Z</time></trkpt><trkpt lat="40.32617" lon="18.1524028"><ele>29.0</ele><time>2026-04-04T17:30:53.187Z</time></trkpt><trkpt lat="40.3261672" lon="18.1528279"><ele>28.5</ele><time>2026-04-04T17:30:54.186Z</time></trkpt><trkpt lat="40.3261643" lon="18.1532381"><ele>28.0</ele><time>2026-04-04T17:30:55.186Z</time></trkpt><trkpt lat="40.3261676" lon="18.1536433"><ele>29.0</ele><time>2026-04-04T17:30:56.187Z</time></trkpt><trkpt lat="40.326163" lon="18.1540415"><ele>30.0</ele><time>2026-04-04T17:30:57.186Z</time></trkpt><trkpt lat="40.3261585" lon="18.1544429"><ele>30.0</ele><time>2026-04-04T17:30:58.186Z</time></trkpt><trkpt lat="40.3261577" lon="18.1548415"><ele>30.0</ele><time>2026-04-04T17:30:59.187Z</time></trkpt><trkpt lat="40.3261569" lon="18.1552392"><ele>32.0</ele><time>2026-04-04T17:31:00.187Z</time></trkpt><trkpt lat="40.3261546" lon="18.1556334"><ele>34.0</ele><time>2026-04-04T17:31:01.186Z</time></trkpt><trkpt lat="40.3261512" lon="18.1560306"><ele>34.0</ele><time>2026-04-04T17:31:02.187Z</time></trkpt><trkpt lat="40.3261469" lon="18.1564266"><ele>34.0</ele><time>2026-04-04T17:31:03.186Z</time></trkpt><trkpt lat="40.326143" lon="18.1568211"><ele>34.5</ele><time>2026-04-04T17:31:04.186Z</time></trkpt><trkpt lat="40.3261394" lon="18.1572181"><ele>35.0</ele><time>2026-04-04T17:31:05.189Z</time></trkpt><trkpt lat="40.3261341" lon="18.1576209"><ele>35.0</ele><time>2026-04-04T17:31:06.186Z</time></trkpt><trkpt lat="40.3261336" lon="18.1580241"><ele>35.0</ele><time>2026-04-04T17:31:07.187Z</time></trkpt><trkpt lat="40.3261305" lon="18.1584262"><ele>35.5</ele><time>2026-04-04T17:31:08.187Z</time></trkpt><trkpt lat="40.3261244" lon="18.1588308"><ele>36.0</ele><time>2026-04-04T17:31:09.187Z</time></trkpt><trkpt lat="40.3261201" lon="18.1592424"><ele>37.5</ele><time>2026-04-04T17:31:10.186Z</time></trkpt><trkpt lat="40.3261164" lon="18.1596601"><ele>39.0</ele><time>2026-04-04T17:31:11.187Z</time></trkpt><trkpt lat="40.3261145" lon="18.1600926"><ele>39.5</ele><time>2026-04-04T17:31:12.187Z</time></trkpt><trkpt lat="40.3261085" lon="18.1605305"><ele>40.0</ele><time>2026-04-04T17:31:13.186Z</time></trkpt><trkpt lat="40.3260971" lon="18.1609578"><ele>40.5</ele><time>2026-04-04T17:31:14.186Z</time></trkpt><trkpt lat="40.3260772" lon="18.1613782"><ele>41.0</ele><time>2026-04-04T17:31:15.187Z</time></trkpt><trkpt lat="40.3260429" lon="18.1617888"><ele>41.5</ele><time>2026-04-04T17:31:16.188Z</time></trkpt><trkpt lat="40.3259974" lon="18.1621861"><ele>42.0</ele><time>2026-04-04T17:31:17.188Z</time></trkpt><trkpt lat="40.3259324" lon="18.1625702"><ele>42.0</ele><time>2026-04-04T17:31:18.186Z</time></trkpt><trkpt lat="40.3258549" lon="18.1629407"><ele>42.0</ele><time>2026-04-04T17:31:19.186Z</time></trkpt><trkpt lat="40.3257701" lon="18.1633071"><ele>43.0</ele><time>2026-04-04T17:31:20.188Z</time></trkpt><trkpt lat="40.3256776" lon="18.1636619"><ele>44.0</ele><time>2026-04-04T17:31:21.187Z</time></trkpt><trkpt lat="40.3255822" lon="18.1640062"><ele>43.5</ele><time>2026-04-04T17:31:22.187Z</time></trkpt><trkpt lat="40.3254905" lon="18.1643463"><ele>43.0</ele><time>2026-04-04T17:31:23.187Z</time></trkpt><trkpt lat="40.3254005" lon="18.1646808"><ele>42.5</ele><time>2026-04-04T17:31:24.188Z</time></trkpt><trkpt lat="40.3253087" lon="18.1650066"><ele>42.0</ele><time>2026-04-04T17:31:25.187Z</time></trkpt><trkpt lat="40.3252179" lon="18.1653353"><ele>42.0</ele><time>2026-04-04T17:31:26.187Z</time></trkpt><trkpt lat="40.3251272" lon="18.1656657"><ele>42.0</ele><time>2026-04-04T17:31:27.187Z</time></trkpt><trkpt lat="40.3250355" lon="18.1659965"><ele>42.5</ele><time>2026-04-04T17:31:28.186Z</time></trkpt><trkpt lat="40.3249445" lon="18.1663245"><ele>43.0</ele><time>2026-04-04T17:31:29.187Z</time></trkpt><trkpt lat="40.3248542" lon="18.1666611"><ele>43.0</ele><time>2026-04-04T17:31:30.187Z</time></trkpt><trkpt lat="40.3247653" lon="18.1669999"><ele>43.0</ele><time>2026-04-04T17:31:31.186Z</time></trkpt><trkpt lat="40.3246705" lon="18.1673443"><ele>42.5</ele><time>2026-04-04T17:31:32.186Z</time></trkpt><trkpt lat="40.3245751" lon="18.167689"><ele>42.0</ele><time>2026-04-04T17:31:33.187Z</time></trkpt><trkpt lat="40.3244839" lon="18.1680318"><ele>43.0</ele><time>2026-04-04T17:31:34.187Z</time></trkpt><trkpt lat="40.324392" lon="18.1683716"><ele>44.0</ele><time>2026-04-04T17:31:35.187Z</time></trkpt><trkpt lat="40.3242977" lon="18.1687134"><ele>44.0</ele><time>2026-04-04T17:31:36.188Z</time></trkpt><trkpt lat="40.3242048" lon="18.169055"><ele>44.0</ele><time>2026-04-04T17:31:37.188Z</time></trkpt><trkpt lat="40.3241101" lon="18.1693941"><ele>44.0</ele><time>2026-04-04T17:31:38.186Z</time></trkpt><trkpt lat="40.3240171" lon="18.1697371"><ele>44.0</ele><time>2026-04-04T17:31:39.188Z</time></trkpt><trkpt lat="40.3239239" lon="18.1700937"><ele>43.0</ele><time>2026-04-04T17:31:40.187Z</time></trkpt><trkpt lat="40.3238215" lon="18.1704717"><ele>42.0</ele><time>2026-04-04T17:31:41.187Z</time></trkpt><trkpt lat="40.3237142" lon="18.1708611"><ele>42.0</ele><time>2026-04-04T17:31:42.187Z</time></trkpt><trkpt lat="40.3236116" lon="18.1712651"><ele>42.0</ele><time>2026-04-04T17:31:43.187Z</time></trkpt><trkpt lat="40.3235187" lon="18.1716749"><ele>42.0</ele><time>2026-04-04T17:31:44.187Z</time></trkpt><trkpt lat="40.3234331" lon="18.1720918"><ele>42.0</ele><time>2026-04-04T17:31:45.189Z</time></trkpt><trkpt lat="40.3233682" lon="18.1725036"><ele>42.0</ele><time>2026-04-04T17:31:46.187Z</time></trkpt><trkpt lat="40.3233083" lon="18.1729137"><ele>42.0</ele><time>2026-04-04T17:31:47.186Z</time></trkpt><trkpt lat="40.3232616" lon="18.1733145"><ele>43.0</ele><time>2026-04-04T17:31:48.186Z</time></trkpt><trkpt lat="40.3232259" lon="18.1737127"><ele>44.0</ele><time>2026-04-04T17:31:49.187Z</time></trkpt><trkpt lat="40.3231973" lon="18.1741017"><ele>44.0</ele><time>2026-04-04T17:31:50.187Z</time></trkpt><trkpt lat="40.3231785" lon="18.1744824"><ele>44.0</ele><time>2026-04-04T17:31:51.189Z</time></trkpt><trkpt lat="40.3231657" lon="18.1748713"><ele>44.5</ele><time>2026-04-04T17:31:52.186Z</time></trkpt><trkpt lat="40.3231483" lon="18.1752565"><ele>45.0</ele><time>2026-04-04T17:31:53.186Z</time></trkpt><trkpt lat="40.3231307" lon="18.175647"><ele>44.5</ele><time>2026-04-04T17:31:54.188Z</time></trkpt><trkpt lat="40.3231134" lon="18.1760365"><ele>44.0</ele><time>2026-04-04T17:31:55.187Z</time></trkpt><trkpt lat="40.3230963" lon="18.1764274"><ele>42.5</ele><time>2026-04-04T17:31:56.186Z</time></trkpt><trkpt lat="40.3230782" lon="18.1768221"><ele>41.0</ele><time>2026-04-04T17:31:57.187Z</time></trkpt><trkpt lat="40.3230592" lon="18.1772122"><ele>40.0</ele><time>2026-04-04T17:31:58.187Z</time></trkpt><trkpt lat="40.3230395" lon="18.1776088"><ele>39.0</ele><time>2026-04-04T17:31:59.187Z</time></trkpt><trkpt lat="40.3230218" lon="18.1780069"><ele>39.5</ele><time>2026-04-04T17:32:00.187Z</time></trkpt><trkpt lat="40.3230036" lon="18.1784053"><ele>40.0</ele><time>2026-04-04T17:32:01.188Z</time></trkpt><trkpt lat="40.3229864" lon="18.1788076"><ele>40.0</ele><time>2026-04-04T17:32:02.186Z</time></trkpt><trkpt lat="40.3229697" lon="18.1792099"><ele>40.0</ele><time>2026-04-04T17:32:03.186Z</time></trkpt><trkpt lat="40.3229534" lon="18.1796136"><ele>40.5</ele><time>2026-04-04T17:32:04.188Z</time></trkpt><trkpt lat="40.3229354" lon="18.1800228"><ele>41.0</ele><time>2026-04-04T17:32:05.186Z</time></trkpt><trkpt lat="40.3229175" lon="18.1804327"><ele>41.0</ele><time>2026-04-04T17:32:06.187Z</time></trkpt><trkpt lat="40.3228993" lon="18.1808425"><ele>41.0</ele><time>2026-04-04T17:32:07.187Z</time></trkpt><trkpt lat="40.3228812" lon="18.181254"><ele>41.5</ele><time>2026-04-04T17:32:08.186Z</time></trkpt><trkpt lat="40.3228624" lon="18.1816723"><ele>42.0</ele><time>2026-04-04T17:32:09.186Z</time></trkpt><trkpt lat="40.3228453" lon="18.1820923"><ele>42.0</ele><time>2026-04-04T17:32:10.187Z</time></trkpt><trkpt lat="40.3228246" lon="18.1825167"><ele>42.0</ele><time>2026-04-04T17:32:11.187Z</time></trkpt><trkpt lat="40.3228047" lon="18.1829415"><ele>42.0</ele><time>2026-04-04T17:32:12.189Z</time></trkpt><trkpt lat="40.3227875" lon="18.1833693"><ele>42.0</ele><time>2026-04-04T17:32:13.187Z</time></trkpt><trkpt lat="40.3227704" lon="18.183783"><ele>42.5</ele><time>2026-04-04T17:32:14.189Z</time></trkpt><trkpt lat="40.3227573" lon="18.1841944"><ele>43.0</ele><time>2026-04-04T17:32:15.188Z</time></trkpt><trkpt lat="40.3227436" lon="18.1845984"><ele>43.5</ele><time>2026-04-04T17:32:16.186Z</time></trkpt><trkpt lat="40.3227397" lon="18.1850037"><ele>44.0</ele><time>2026-04-04T17:32:17.187Z</time></trkpt><trkpt lat="40.3227562" lon="18.1854066"><ele>44.0</ele><time>2026-04-04T17:32:18.187Z</time></trkpt><trkpt lat="40.322787" lon="18.1858073"><ele>44.0</ele><time>2026-04-04T17:32:19.188Z</time></trkpt><trkpt lat="40.3228278" lon="18.1862134"><ele>43.5</ele><time>2026-04-04T17:32:20.187Z</time></trkpt><trkpt lat="40.3229043" lon="18.1866016"><ele>43.0</ele><time>2026-04-04T17:32:21.188Z</time></trkpt><trkpt lat="40.3229948" lon="18.1869906"><ele>41.5</ele><time>2026-04-04T17:32:22.187Z</time></trkpt><trkpt lat="40.3231045" lon="18.1873714"><ele>40.0</ele><time>2026-04-04T17:32:23.187Z</time></trkpt><trkpt lat="40.3232322" lon="18.1877462"><ele>40.0</ele><time>2026-04-04T17:32:24.187Z</time></trkpt><trkpt lat="40.3233765" lon="18.1881138"><ele>40.0</ele><time>2026-04-04T17:32:25.187Z</time></trkpt><trkpt lat="40.3235345" lon="18.1884679"><ele>40.0</ele><time>2026-04-04T17:32:26.187Z</time></trkpt><trkpt lat="40.3237028" lon="18.1888015"><ele>40.0</ele><time>2026-04-04T17:32:27.186Z</time></trkpt><trkpt lat="40.3238877" lon="18.1891265"><ele>39.5</ele><time>2026-04-04T17:32:28.186Z</time></trkpt><trkpt lat="40.3240798" lon="18.1894435"><ele>39.0</ele><time>2026-04-04T17:32:29.188Z</time></trkpt><trkpt lat="40.3242822" lon="18.1897478"><ele>39.0</ele><time>2026-04-04T17:32:30.187Z</time></trkpt><trkpt lat="40.3244967" lon="18.1900425"><ele>39.0</ele><time>2026-04-04T17:32:31.188Z</time></trkpt><trkpt lat="40.324732" lon="18.1903345"><ele>39.0</ele><time>2026-04-04T17:32:32.187Z</time></trkpt><trkpt lat="40.3249849" lon="18.1906205"><ele>39.0</ele><time>2026-04-04T17:32:33.187Z</time></trkpt><trkpt lat="40.3252533" lon="18.1908861"><ele>39.0</ele><time>2026-04-04T17:32:34.187Z</time></trkpt><trkpt lat="40.3255363" lon="18.1911384"><ele>39.0</ele><time>2026-04-04T17:32:35.188Z</time></trkpt><trkpt lat="40.3258313" lon="18.1913805"><ele>39.5</ele><time>2026-04-04T17:32:36.188Z</time></trkpt><trkpt lat="40.3261224" lon="18.1916029"><ele>40.0</ele><time>2026-04-04T17:32:37.188Z</time></trkpt><trkpt lat="40.3264079" lon="18.1918088"><ele>39.0</ele><time>2026-04-04T17:32:38.188Z</time></trkpt><trkpt lat="40.3266858" lon="18.1920133"><ele>38.0</ele><time>2026-04-04T17:32:39.187Z</time></trkpt><trkpt lat="40.3269512" lon="18.1922066"><ele>39.0</ele><time>2026-04-04T17:32:40.187Z</time></trkpt><trkpt lat="40.327214" lon="18.192401"><ele>40.0</ele><time>2026-04-04T17:32:41.187Z</time></trkpt><trkpt lat="40.3274726" lon="18.1925932"><ele>40.0</ele><time>2026-04-04T17:32:42.186Z</time></trkpt><trkpt lat="40.32773" lon="18.1927808"><ele>40.0</ele><time>2026-04-04T17:32:43.187Z</time></trkpt><trkpt lat="40.3279836" lon="18.1929677"><ele>40.5</ele><time>2026-04-04T17:32:44.187Z</time></trkpt><trkpt lat="40.3282338" lon="18.1931544"><ele>41.0</ele><time>2026-04-04T17:32:45.187Z</time></trkpt><trkpt lat="40.3284798" lon="18.1933317"><ele>41.0</ele><time>2026-04-04T17:32:46.187Z</time></trkpt><trkpt lat="40.3287255" lon="18.1935068"><ele>41.0</ele><time>2026-04-04T17:32:47.188Z</time></trkpt><trkpt lat="40.3289685" lon="18.1936844"><ele>41.5</ele><time>2026-04-04T17:32:48.187Z</time></trkpt><trkpt lat="40.3292082" lon="18.1938589"><ele>42.0</ele><time>2026-04-04T17:32:49.188Z</time></trkpt><trkpt lat="40.3294505" lon="18.1940389"><ele>42.5</ele><time>2026-04-04T17:32:50.187Z</time></trkpt><trkpt lat="40.3296873" lon="18.1942127"><ele>43.0</ele><time>2026-04-04T17:32:51.187Z</time></trkpt><trkpt lat="40.3299295" lon="18.1943944"><ele>43.0</ele><time>2026-04-04T17:32:52.187Z</time></trkpt><trkpt lat="40.3301806" lon="18.1945803"><ele>43.0</ele><time>2026-04-04T17:32:53.189Z</time></trkpt><trkpt lat="40.3304407" lon="18.1947728"><ele>42.5</ele><time>2026-04-04T17:32:54.187Z</time></trkpt><trkpt lat="40.3307176" lon="18.1949745"><ele>42.0</ele><time>2026-04-04T17:32:55.186Z</time></trkpt><trkpt lat="40.3310173" lon="18.1951907"><ele>42.0</ele><time>2026-04-04T17:32:56.187Z</time></trkpt><trkpt lat="40.3313358" lon="18.1954211"><ele>42.0</ele><time>2026-04-04T17:32:57.187Z</time></trkpt><trkpt lat="40.3316761" lon="18.1956711"><ele>42.0</ele><time>2026-04-04T17:32:58.188Z</time></trkpt><trkpt lat="40.3320395" lon="18.1959392"><ele>42.0</ele><time>2026-04-04T17:32:59.186Z</time></trkpt><trkpt lat="40.3324121" lon="18.196219"><ele>42.0</ele><time>2026-04-04T17:33:00.188Z</time></trkpt><trkpt lat="40.3327838" lon="18.1964963"><ele>42.0</ele><time>2026-04-04T17:33:01.188Z</time></trkpt><trkpt lat="40.3331534" lon="18.1967756"><ele>41.5</ele><time>2026-04-04T17:33:02.187Z</time></trkpt><trkpt lat="40.3335204" lon="18.1970497"><ele>41.0</ele><time>2026-04-04T17:33:03.186Z</time></trkpt><trkpt lat="40.3338858" lon="18.1973258"><ele>39.5</ele><time>2026-04-04T17:33:04.187Z</time></trkpt><trkpt lat="40.3342419" lon="18.197585"><ele>38.0</ele><time>2026-04-04T17:33:05.186Z</time></trkpt><trkpt lat="40.3345922" lon="18.1978323"><ele>39.0</ele><time>2026-04-04T17:33:06.188Z</time></trkpt><trkpt lat="40.3349383" lon="18.1980792"><ele>40.0</ele><time>2026-04-04T17:33:07.188Z</time></trkpt><trkpt lat="40.3352936" lon="18.1983241"><ele>41.0</ele><time>2026-04-04T17:33:08.188Z</time></trkpt><trkpt lat="40.335649" lon="18.1985614"><ele>42.0</ele><time>2026-04-04T17:33:09.187Z</time></trkpt><trkpt lat="40.3360086" lon="18.1987893"><ele>42.0</ele><time>2026-04-04T17:33:10.186Z</time></trkpt><trkpt lat="40.3363682" lon="18.1990057"><ele>42.0</ele><time>2026-04-04T17:33:11.187Z</time></trkpt><trkpt lat="40.3367322" lon="18.1992148"><ele>42.0</ele><time>2026-04-04T17:33:12.189Z</time></trkpt><trkpt lat="40.337102" lon="18.1994212"><ele>42.0</ele><time>2026-04-04T17:33:13.188Z</time></trkpt><trkpt lat="40.3374692" lon="18.1996233"><ele>41.0</ele><time>2026-04-04T17:33:14.186Z</time></trkpt><trkpt lat="40.3378323" lon="18.1998165"><ele>40.0</ele><time>2026-04-04T17:33:15.187Z</time></trkpt><trkpt lat="40.3381869" lon="18.200007"><ele>40.0</ele><time>2026-04-04T17:33:16.188Z</time></trkpt><trkpt lat="40.3385354" lon="18.2001957"><ele>40.0</ele><time>2026-04-04T17:33:17.186Z</time></trkpt><trkpt lat="40.3388805" lon="18.2003789"><ele>40.0</ele><time>2026-04-04T17:33:18.187Z</time></trkpt><trkpt lat="40.3392099" lon="18.2005452"><ele>37.0</ele><time>2026-04-04T17:33:19.187Z</time></trkpt></trkseg></trk></gpx>